<?xml version='1.0' encoding='UTF-8'?><gpx version="1.1" creator="JPX - https://github.com/jenetics/jpx" xmlns="http://www.topografix.com/GPX/1/1"><trk><trkseg><trkpt lat="45.46872873006304" lon="11.063266728909518"><ele>69.0</ele><time>2026-04-25T08:35:03Z</time></trkpt><trkpt lat="45.468768109370835" lon="11.063185474135079"><ele>69.0</ele><time>2026-04-25T08:35:41Z</time></trkpt><trkpt lat="45.46882370755417" lon="11.06314121009967"><ele>69.0</ele><time>2026-04-25T08:35:45Z</time></trkpt><trkpt lat="45.46878681236281" lon="11.063044082385037"><ele>69.0</ele><time>2026-04-25T08:35:48Z</time></trkpt><trkpt lat="45.46869431720489" lon="11.063050935858616"><ele>69.0</ele><time>2026-04-25T08:35:50Z</time></trkpt><trkpt lat="45.46862976808832" lon="11.063056477721092"><ele>69.0</ele><time>2026-04-25T08:35:52Z</time></trkpt><trkpt lat="45.468558638586174" lon="11.063010991407243"><ele>69.0</ele><time>2026-04-25T08:35:55Z</time></trkpt><trkpt lat="45.468582329747015" lon="11.063113634540024"><ele>69.0</ele><time>2026-04-25T08:35:58Z</time></trkpt><trkpt lat="45.46866569693013" lon="11.06309371507314"><ele>69.0</ele><time>2026-04-25T08:36:00Z</time></trkpt><trkpt lat="45.4687454232203" lon="11.06310059597011"><ele>69.0</ele><time>2026-04-25T08:36:05Z</time></trkpt><trkpt lat="45.46882433673838" lon="11.063112221537073"><ele>69.0</ele><time>2026-04-25T08:36:07Z</time></trkpt><trkpt lat="45.46893638360429" lon="11.063105368914583"><ele>69.0</ele><time>2026-04-25T08:36:09Z</time></trkpt><trkpt lat="45.46900736514923" lon="11.063105969763352"><ele>69.0</ele><time>2026-04-25T08:36:09.999Z</time></trkpt><trkpt lat="45.46907584550133" lon="11.06311400881795"><ele>69.0</ele><time>2026-04-25T08:36:10.999Z</time></trkpt><trkpt lat="45.469167174761346" lon="11.06311451630778"><ele>69.0</ele><time>2026-04-25T08:36:11.999Z</time></trkpt><trkpt lat="45.469281007171524" lon="11.06312759036144"><ele>69.0</ele><time>2026-04-25T08:36:12.999Z</time></trkpt><trkpt lat="45.46938889232015" lon="11.063134236353854"><ele>69.0</ele><time>2026-04-25T08:36:13.999Z</time></trkpt><trkpt lat="45.469509925288435" lon="11.063135255769591"><ele>69.0</ele><time>2026-04-25T08:36:14.999Z</time></trkpt><trkpt lat="45.469634281263865" lon="11.063120177288454"><ele>69.25</ele><time>2026-04-25T08:36:15.999Z</time></trkpt><trkpt lat="45.46975779895633" lon="11.063154666237224"><ele>69.5</ele><time>2026-04-25T08:36:16.999Z</time></trkpt><trkpt lat="45.469894864700464" lon="11.06315246501793"><ele>69.75</ele><time>2026-04-25T08:36:17.999Z</time></trkpt><trkpt lat="45.470010003747305" lon="11.063142142928301"><ele>70.0</ele><time>2026-04-25T08:36:18.999Z</time></trkpt><trkpt lat="45.470126996769025" lon="11.063147549456563"><ele>70.0</ele><time>2026-04-25T08:36:19.999Z</time></trkpt><trkpt lat="45.47024404201925" lon="11.063171665318846"><ele>70.0</ele><time>2026-04-25T08:36:20.999Z</time></trkpt><trkpt lat="45.470354141099214" lon="11.063167601263778"><ele>70.0</ele><time>2026-04-25T08:36:21.999Z</time></trkpt><trkpt lat="45.470469049331214" lon="11.063182219381973"><ele>70.0</ele><time>2026-04-25T08:36:22.999Z</time></trkpt><trkpt lat="45.47059657196515" lon="11.063176452790943"><ele>70.25</ele><time>2026-04-25T08:36:23.999Z</time></trkpt><trkpt lat="45.470719235820276" lon="11.063178177484312"><ele>70.5</ele><time>2026-04-25T08:36:24.999Z</time></trkpt><trkpt lat="45.47083905658339" lon="11.063192665317251"><ele>70.75</ele><time>2026-04-25T08:36:25.999Z</time></trkpt><trkpt lat="45.47096132294985" lon="11.063196876417281"><ele>71.0</ele><time>2026-04-25T08:36:26.999Z</time></trkpt><trkpt lat="45.47107456441942" lon="11.063200059313221"><ele>71.0</ele><time>2026-04-25T08:36:27.999Z</time></trkpt><trkpt lat="45.47117333689805" lon="11.063215399483038"><ele>71.0</ele><time>2026-04-25T08:36:28.999Z</time></trkpt><trkpt lat="45.471262547742285" lon="11.063223773690234"><ele>71.0</ele><time>2026-04-25T08:36:29.999Z</time></trkpt><trkpt lat="45.471347459235616" lon="11.063233212217837"><ele>71.0</ele><time>2026-04-25T08:36:30.999Z</time></trkpt><trkpt lat="45.47139687010385" lon="11.063321676352578"><ele>71.0</ele><time>2026-04-25T08:36:31.999Z</time></trkpt><trkpt lat="45.471441297176504" lon="11.063449229623002"><ele>71.2</ele><time>2026-04-25T08:36:32.999Z</time></trkpt><trkpt lat="45.47146428308624" lon="11.063582295281865"><ele>71.39999999999999</ele><time>2026-04-25T08:36:33.999Z</time></trkpt><trkpt lat="45.4714732136268" lon="11.063717729524344"><ele>71.6</ele><time>2026-04-25T08:36:34.999Z</time></trkpt><trkpt lat="45.47148902414224" lon="11.063864045369863"><ele>71.8</ele><time>2026-04-25T08:36:35.999Z</time></trkpt><trkpt lat="45.4715040195411" lon="11.064001562506252"><ele>72.0</ele><time>2026-04-25T08:36:36.999Z</time></trkpt><trkpt lat="45.471506182879594" lon="11.064140617386826"><ele>72.0</ele><time>2026-04-25T08:36:37.999Z</time></trkpt><trkpt lat="45.47150792961467" lon="11.064284880417258"><ele>72.0</ele><time>2026-04-25T08:36:38.999Z</time></trkpt><trkpt lat="45.471516736485206" lon="11.064431835368435"><ele>72.0</ele><time>2026-04-25T08:36:39.999Z</time></trkpt><trkpt lat="45.47152057803579" lon="11.064578239904076"><ele>72.0</ele><time>2026-04-25T08:36:40.999Z</time></trkpt><trkpt lat="45.47153391691517" lon="11.064724330789566"><ele>72.0</ele><time>2026-04-25T08:36:41.999Z</time></trkpt><trkpt lat="45.47156324279457" lon="11.064857441232133"><ele>72.16666666666667</ele><time>2026-04-25T08:36:42.999Z</time></trkpt><trkpt lat="45.47159323363564" lon="11.064989225140053"><ele>72.33333333333333</ele><time>2026-04-25T08:36:43.999Z</time></trkpt><trkpt lat="45.4716225426893" lon="11.065099151495623"><ele>72.5</ele><time>2026-04-25T08:36:44.999Z</time></trkpt><trkpt lat="45.471644755887226" lon="11.065222444557737"><ele>72.66666666666666</ele><time>2026-04-25T08:36:45.999Z</time></trkpt><trkpt lat="45.471664730246495" lon="11.065321426560525"><ele>72.83333333333333</ele><time>2026-04-25T08:36:46.999Z</time></trkpt><trkpt lat="45.4716731979431" lon="11.065421211025019"><ele>73.0</ele><time>2026-04-25T08:36:47.999Z</time></trkpt><trkpt lat="45.47165646863003" lon="11.065534594861893"><ele>73.0</ele><time>2026-04-25T08:36:48.999Z</time></trkpt><trkpt lat="45.47164783860314" lon="11.065648856291919"><ele>73.0</ele><time>2026-04-25T08:36:49.999Z</time></trkpt><trkpt lat="45.47164759534059" lon="11.065779047534685"><ele>73.0</ele><time>2026-04-25T08:36:50.999Z</time></trkpt><trkpt lat="45.4716591753342" lon="11.065932527958001"><ele>73.0</ele><time>2026-04-25T08:36:51.999Z</time></trkpt><trkpt lat="45.471688911392334" lon="11.066048891921461"><ele>73.0</ele><time>2026-04-25T08:36:52.999Z</time></trkpt><trkpt lat="45.47170870225936" lon="11.066174124481137"><ele>73.16666666666666</ele><time>2026-04-25T08:36:53.999Z</time></trkpt><trkpt lat="45.47172034460985" lon="11.066268000276777"><ele>73.33333333333333</ele><time>2026-04-25T08:36:54.999Z</time></trkpt><trkpt lat="45.471702998375115" lon="11.066397773295588"><ele>73.5</ele><time>2026-04-25T08:36:56.999Z</time></trkpt><trkpt lat="45.4716690039079" lon="11.066557836503964"><ele>73.66666666666667</ele><time>2026-04-25T08:36:58.999Z</time></trkpt><trkpt lat="45.47169246639529" lon="11.066657728327787"><ele>73.83333333333334</ele><time>2026-04-25T08:36:59.999Z</time></trkpt><trkpt lat="45.4717492175999" lon="11.066758572997426"><ele>74.0</ele><time>2026-04-25T08:37:00.999Z</time></trkpt><trkpt lat="45.47181429397513" lon="11.066855162976067"><ele>74.8</ele><time>2026-04-25T08:37:01.999Z</time></trkpt><trkpt lat="45.471885657986945" lon="11.06695382059595"><ele>75.60000000000001</ele><time>2026-04-25T08:37:02.999Z</time></trkpt><trkpt lat="45.47191982550746" lon="11.067063660551753"><ele>76.4</ele><time>2026-04-25T08:37:03.999Z</time></trkpt><trkpt lat="45.47189449719718" lon="11.067204178654123"><ele>77.2</ele><time>2026-04-25T08:37:05.999Z</time></trkpt><trkpt lat="45.471844041384195" lon="11.067283395627408"><ele>78.0</ele><time>2026-04-25T08:37:06.999Z</time></trkpt><trkpt lat="45.471751918739926" lon="11.067351220981648"><ele>78.0</ele><time>2026-04-25T08:37:08.999Z</time></trkpt><trkpt lat="45.471630922164394" lon="11.067302673572984"><ele>78.0</ele><time>2026-04-25T08:37:10.999Z</time></trkpt><trkpt lat="45.471569805284304" lon="11.067255306620906"><ele>78.0</ele><time>2026-04-25T08:37:11.999Z</time></trkpt><trkpt lat="45.4714562796569" lon="11.067221072021406"><ele>78.0</ele><time>2026-04-25T08:37:13.999Z</time></trkpt><trkpt lat="45.47138986036401" lon="11.067198104128664"><ele>78.0</ele><time>2026-04-25T08:37:14.999Z</time></trkpt><trkpt lat="45.47130766749093" lon="11.067137522290281"><ele>77.0</ele><time>2026-04-25T08:37:15.999Z</time></trkpt><trkpt lat="45.47120593857291" lon="11.067080482396545"><ele>76.0</ele><time>2026-04-25T08:37:16.999Z</time></trkpt><trkpt lat="45.471087466380105" lon="11.067066483602567"><ele>75.0</ele><time>2026-04-25T08:37:17.999Z</time></trkpt><trkpt lat="45.47097009348988" lon="11.067110925414907"><ele>74.0</ele><time>2026-04-25T08:37:18.999Z</time></trkpt><trkpt lat="45.470864415894994" lon="11.0671968100497"><ele>74.0</ele><time>2026-04-25T08:37:19.999Z</time></trkpt><trkpt lat="45.4707654352616" lon="11.067292145769523"><ele>74.0</ele><time>2026-04-25T08:37:20.999Z</time></trkpt><trkpt lat="45.47066836493748" lon="11.06739675498685"><ele>74.0</ele><time>2026-04-25T08:37:21.999Z</time></trkpt><trkpt lat="45.47056605629811" lon="11.067500825259444"><ele>74.0</ele><time>2026-04-25T08:37:22.999Z</time></trkpt><trkpt lat="45.47046866611921" lon="11.067598248309192"><ele>74.60000000000001</ele><time>2026-04-25T08:37:23.999Z</time></trkpt><trkpt lat="45.47037760777238" lon="11.067701996860729"><ele>75.2</ele><time>2026-04-25T08:37:24.999Z</time></trkpt><trkpt lat="45.470282176337875" lon="11.067754948937951"><ele>75.80000000000001</ele><time>2026-04-25T08:37:25.999Z</time></trkpt><trkpt lat="45.47017875946015" lon="11.067785245315289"><ele>76.4</ele><time>2026-04-25T08:37:26.999Z</time></trkpt><trkpt lat="45.47007107337402" lon="11.067794477345622"><ele>77.0</ele><time>2026-04-25T08:37:27.999Z</time></trkpt><trkpt lat="45.46995862668369" lon="11.06776125734823"><ele>77.0</ele><time>2026-04-25T08:37:28.999Z</time></trkpt><trkpt lat="45.469840531785295" lon="11.06771177639428"><ele>77.0</ele><time>2026-04-25T08:37:29.999Z</time></trkpt><trkpt lat="45.46972022239867" lon="11.067675580267643"><ele>77.0</ele><time>2026-04-25T08:37:30.999Z</time></trkpt><trkpt lat="45.4695901945396" lon="11.067633682926557"><ele>77.0</ele><time>2026-04-25T08:37:31.999Z</time></trkpt><trkpt lat="45.469472795506356" lon="11.06760752993348"><ele>77.0</ele><time>2026-04-25T08:37:32.999Z</time></trkpt><trkpt lat="45.46935454318388" lon="11.067571170850206"><ele>77.0</ele><time>2026-04-25T08:37:33.999Z</time></trkpt><trkpt lat="45.46924505491218" lon="11.067525403061008"><ele>77.0</ele><time>2026-04-25T08:37:34.999Z</time></trkpt><trkpt lat="45.469126311163755" lon="11.06748764069385"><ele>77.0</ele><time>2026-04-25T08:37:35.999Z</time></trkpt><trkpt lat="45.46900450882828" lon="11.067457291338451"><ele>77.4</ele><time>2026-04-25T08:37:36.999Z</time></trkpt><trkpt lat="45.46890763960198" lon="11.067414996312511"><ele>77.80000000000001</ele><time>2026-04-25T08:37:37.999Z</time></trkpt><trkpt lat="45.468813343866465" lon="11.06738599550158"><ele>78.2</ele><time>2026-04-25T08:37:38.999Z</time></trkpt><trkpt lat="45.468730512891966" lon="11.067372532499261"><ele>78.60000000000001</ele><time>2026-04-25T08:37:39.999Z</time></trkpt><trkpt lat="45.46866568098518" lon="11.067365708391096"><ele>79.0</ele><time>2026-04-25T08:37:40.999Z</time></trkpt><trkpt lat="45.4686163568074" lon="11.067500059630124"><ele>79.0</ele><time>2026-04-25T08:37:42.999Z</time></trkpt><trkpt lat="45.46862880998979" lon="11.067606143670362"><ele>79.0</ele><time>2026-04-25T08:37:43.999Z</time></trkpt><trkpt lat="45.46864759937575" lon="11.067728368341875"><ele>79.0</ele><time>2026-04-25T08:37:44.999Z</time></trkpt><trkpt lat="45.46865674091599" lon="11.06788324418141"><ele>79.0</ele><time>2026-04-25T08:37:45.999Z</time></trkpt><trkpt lat="45.46864677674009" lon="11.068052596078324"><ele>79.0</ele><time>2026-04-25T08:37:46.999Z</time></trkpt><trkpt lat="45.46865002190231" lon="11.068204768403465"><ele>79.80000000000001</ele><time>2026-04-25T08:37:47.999Z</time></trkpt><trkpt lat="45.46866310699558" lon="11.068366016473819"><ele>80.60000000000001</ele><time>2026-04-25T08:37:48.999Z</time></trkpt><trkpt lat="45.468691122560955" lon="11.068514795250593"><ele>81.4</ele><time>2026-04-25T08:37:49.999Z</time></trkpt><trkpt lat="45.46870715162053" lon="11.06866495798766"><ele>82.2</ele><time>2026-04-25T08:37:50.999Z</time></trkpt><trkpt lat="45.46870295201688" lon="11.06881809914215"><ele>83.0</ele><time>2026-04-25T08:37:51.999Z</time></trkpt><trkpt lat="45.468684005083034" lon="11.06895347983031"><ele>83.0</ele><time>2026-04-25T08:37:52.999Z</time></trkpt><trkpt lat="45.4686615588038" lon="11.069107940776655"><ele>83.0</ele><time>2026-04-25T08:37:53.999Z</time></trkpt><trkpt lat="45.46863728151542" lon="11.069273874127727"><ele>83.0</ele><time>2026-04-25T08:37:54.999Z</time></trkpt><trkpt lat="45.46862276588444" lon="11.069431214383163"><ele>83.0</ele><time>2026-04-25T08:37:55.999Z</time></trkpt><trkpt lat="45.46860167063971" lon="11.069601666219194"><ele>84.25</ele><time>2026-04-25T08:37:56.999Z</time></trkpt><trkpt lat="45.46858767557093" lon="11.069767223925131"><ele>85.5</ele><time>2026-04-25T08:37:57.999Z</time></trkpt><trkpt lat="45.46856854339175" lon="11.069928799512294"><ele>86.75</ele><time>2026-04-25T08:37:58.999Z</time></trkpt><trkpt lat="45.468570142911695" lon="11.07007668931136"><ele>88.0</ele><time>2026-04-25T08:37:59.999Z</time></trkpt><trkpt lat="45.468584207640525" lon="11.070252065061808"><ele>89.25</ele><time>2026-04-25T08:38:00.999Z</time></trkpt><trkpt lat="45.46859248510359" lon="11.070420102406883"><ele>90.5</ele><time>2026-04-25T08:38:01.999Z</time></trkpt><trkpt lat="45.468597478875" lon="11.070599457126727"><ele>91.75</ele><time>2026-04-25T08:38:02.999Z</time></trkpt><trkpt lat="45.46859903379283" lon="11.070763955566495"><ele>93.0</ele><time>2026-04-25T08:38:03.998Z</time></trkpt><trkpt lat="45.46858631201037" lon="11.070924007790072"><ele>93.80000000000001</ele><time>2026-04-25T08:38:04.998Z</time></trkpt><trkpt lat="45.46855980272205" lon="11.071076510055152"><ele>94.6</ele><time>2026-04-25T08:38:05.998Z</time></trkpt><trkpt lat="45.468557647751545" lon="11.071215963382434"><ele>95.4</ele><time>2026-04-25T08:38:06.998Z</time></trkpt><trkpt lat="45.4685684097842" lon="11.071355136236328"><ele>96.19999999999999</ele><time>2026-04-25T08:38:07.998Z</time></trkpt><trkpt lat="45.46862947728209" lon="11.071454896274929"><ele>97.0</ele><time>2026-04-25T08:38:08.998Z</time></trkpt><trkpt lat="45.468728268640675" lon="11.07151751644718"><ele>97.39999999999999</ele><time>2026-04-25T08:38:09.998Z</time></trkpt><trkpt lat="45.468827677501224" lon="11.07156119000068"><ele>97.8</ele><time>2026-04-25T08:38:10.998Z</time></trkpt><trkpt lat="45.46893469042338" lon="11.071561145695085"><ele>98.2</ele><time>2026-04-25T08:38:11.998Z</time></trkpt><trkpt lat="45.46904350949324" lon="11.07161421588503"><ele>98.6</ele><time>2026-04-25T08:38:12.998Z</time></trkpt><trkpt lat="45.469146651853286" lon="11.071640416360372"><ele>99.0</ele><time>2026-04-25T08:38:13.998Z</time></trkpt><trkpt lat="45.46925509473699" lon="11.071621944960537"><ele>99.0</ele><time>2026-04-25T08:38:14.998Z</time></trkpt><trkpt lat="45.46932004483752" lon="11.071612655037327"><ele>99.0</ele><time>2026-04-25T08:38:15.998Z</time></trkpt><trkpt lat="45.46935293816132" lon="11.071492527585761"><ele>99.0</ele><time>2026-04-25T08:38:16.998Z</time></trkpt><trkpt lat="45.46940879028124" lon="11.071401797009853"><ele>99.0</ele><time>2026-04-25T08:38:17.998Z</time></trkpt><trkpt lat="45.46946188061267" lon="11.07135238564805"><ele>99.0</ele><time>2026-04-25T08:38:18.998Z</time></trkpt><trkpt lat="45.46954782160743" lon="11.071289726960748"><ele>99.0</ele><time>2026-04-25T08:38:19.998Z</time></trkpt><trkpt lat="45.46964307625207" lon="11.071249741698395"><ele>100.83333333333333</ele><time>2026-04-25T08:38:20.998Z</time></trkpt><trkpt lat="45.46972684401358" lon="11.071191929685344"><ele>102.66666666666666</ele><time>2026-04-25T08:38:21.998Z</time></trkpt><trkpt lat="45.469813442147526" lon="11.071171903997286"><ele>104.5</ele><time>2026-04-25T08:38:22.998Z</time></trkpt><trkpt lat="45.469888868903936" lon="11.071145566034382"><ele>106.33333333333333</ele><time>2026-04-25T08:38:23.998Z</time></trkpt><trkpt lat="45.46995547975122" lon="11.071087437026867"><ele>108.16666666666666</ele><time>2026-04-25T08:38:24.998Z</time></trkpt><trkpt lat="45.47003159866704" lon="11.070994893640526"><ele>110.0</ele><time>2026-04-25T08:38:25.998Z</time></trkpt><trkpt lat="45.470105318299794" lon="11.070914195351733"><ele>110.0</ele><time>2026-04-25T08:38:26.998Z</time></trkpt><trkpt lat="45.47018784262897" lon="11.070877607042988"><ele>110.0</ele><time>2026-04-25T08:38:27.998Z</time></trkpt><trkpt lat="45.47029116913291" lon="11.070854839975388"><ele>110.0</ele><time>2026-04-25T08:38:28.998Z</time></trkpt><trkpt lat="45.470381099249614" lon="11.070876093888499"><ele>110.0</ele><time>2026-04-25T08:38:29.998Z</time></trkpt><trkpt lat="45.470488204427184" lon="11.07089397399153"><ele>110.0</ele><time>2026-04-25T08:38:30.998Z</time></trkpt><trkpt lat="45.470598722330195" lon="11.070906926749856"><ele>112.0</ele><time>2026-04-25T08:38:31.998Z</time></trkpt><trkpt lat="45.47070698991941" lon="11.070913424607562"><ele>114.0</ele><time>2026-04-25T08:38:32.998Z</time></trkpt><trkpt lat="45.47081720709585" lon="11.070918876617094"><ele>116.0</ele><time>2026-04-25T08:38:33.998Z</time></trkpt><trkpt lat="45.47092882288253" lon="11.070928171995542"><ele>118.0</ele><time>2026-04-25T08:38:34.998Z</time></trkpt><trkpt lat="45.471048590797224" lon="11.07094073108"><ele>118.0</ele><time>2026-04-25T08:38:35.998Z</time></trkpt><trkpt lat="45.47116689962619" lon="11.070927437681272"><ele>118.0</ele><time>2026-04-25T08:38:36.998Z</time></trkpt><trkpt lat="45.47129430064588" lon="11.070958487506628"><ele>118.0</ele><time>2026-04-25T08:38:37.998Z</time></trkpt><trkpt lat="45.47142594217653" lon="11.07099402117094"><ele>118.0</ele><time>2026-04-25T08:38:38.998Z</time></trkpt><trkpt lat="45.47154387681278" lon="11.071039996379277"><ele>119.25</ele><time>2026-04-25T08:38:39.998Z</time></trkpt><trkpt lat="45.47167611485013" lon="11.071060629687407"><ele>120.5</ele><time>2026-04-25T08:38:40.998Z</time></trkpt><trkpt lat="45.47179252557345" lon="11.071099441943971"><ele>121.75</ele><time>2026-04-25T08:38:41.998Z</time></trkpt><trkpt lat="45.47189973490332" lon="11.071135253351732"><ele>123.0</ele><time>2026-04-25T08:38:42.998Z</time></trkpt><trkpt lat="45.471991914441034" lon="11.071177247223453"><ele>123.0</ele><time>2026-04-25T08:38:43.998Z</time></trkpt><trkpt lat="45.47204967321693" lon="11.07122535844457"><ele>123.0</ele><time>2026-04-25T08:38:44.998Z</time></trkpt><trkpt lat="45.47210433042569" lon="11.07129600660256"><ele>123.0</ele><time>2026-04-25T08:38:45.998Z</time></trkpt><trkpt lat="45.47212246043385" lon="11.071395395795104"><ele>123.0</ele><time>2026-04-25T08:38:46.998Z</time></trkpt><trkpt lat="45.472121267721135" lon="11.071510732603187"><ele>123.0</ele><time>2026-04-25T08:38:47.998Z</time></trkpt><trkpt lat="45.47211978652494" lon="11.071656721732158"><ele>123.0</ele><time>2026-04-25T08:38:48.998Z</time></trkpt><trkpt lat="45.472115639135346" lon="11.071828814496984"><ele>123.5</ele><time>2026-04-25T08:38:49.998Z</time></trkpt><trkpt lat="45.47210530340204" lon="11.072007036881892"><ele>124.0</ele><time>2026-04-25T08:38:50.998Z</time></trkpt><trkpt lat="45.47210420965487" lon="11.072183572565496"><ele>124.5</ele><time>2026-04-25T08:38:51.998Z</time></trkpt><trkpt lat="45.47211112363711" lon="11.072358134107853"><ele>125.0</ele><time>2026-04-25T08:38:52.998Z</time></trkpt><trkpt lat="45.47209982604385" lon="11.072504529336513"><ele>129.4</ele><time>2026-04-25T08:38:53.998Z</time></trkpt><trkpt lat="45.472057782537" lon="11.07265130889931"><ele>133.8</ele><time>2026-04-25T08:38:54.998Z</time></trkpt><trkpt lat="45.4719791043728" lon="11.072776033956703"><ele>138.2</ele><time>2026-04-25T08:38:55.998Z</time></trkpt><trkpt lat="45.47190306760493" lon="11.072909408502438"><ele>142.6</ele><time>2026-04-25T08:38:56.998Z</time></trkpt><trkpt lat="45.47183419585011" lon="11.07298695024697"><ele>147.0</ele><time>2026-04-25T08:38:57.998Z</time></trkpt><trkpt lat="45.47177505481582" lon="11.073057971240889"><ele>147.0</ele><time>2026-04-25T08:38:59.998Z</time></trkpt><trkpt lat="45.47173620542109" lon="11.073157123383051"><ele>147.0</ele><time>2026-04-25T08:39:01.998Z</time></trkpt><trkpt lat="45.47168060302008" lon="11.073279428156946"><ele>147.0</ele><time>2026-04-25T08:39:03.998Z</time></trkpt><trkpt lat="45.47165045395626" lon="11.0733601573123"><ele>147.0</ele><time>2026-04-25T08:39:04.998Z</time></trkpt><trkpt lat="45.471619649822564" lon="11.073524523687038"><ele>147.0</ele><time>2026-04-25T08:39:06.998Z</time></trkpt><trkpt lat="45.47160827484523" lon="11.073721713957772"><ele>148.0</ele><time>2026-04-25T08:39:08.998Z</time></trkpt><trkpt lat="45.47159600722469" lon="11.073835951548268"><ele>149.0</ele><time>2026-04-25T08:39:09.998Z</time></trkpt><trkpt lat="45.47157127131056" lon="11.073946907941245"><ele>150.0</ele><time>2026-04-25T08:39:10.998Z</time></trkpt><trkpt lat="45.47153948670068" lon="11.074084698321748"><ele>151.0</ele><time>2026-04-25T08:39:11.998Z</time></trkpt><trkpt lat="45.47151466447045" lon="11.074247634505134"><ele>152.0</ele><time>2026-04-25T08:39:12.998Z</time></trkpt><trkpt lat="45.471478219988256" lon="11.074391194372263"><ele>154.25</ele><time>2026-04-25T08:39:13.998Z</time></trkpt><trkpt lat="45.47145137002951" lon="11.07454198869686"><ele>156.5</ele><time>2026-04-25T08:39:14.998Z</time></trkpt><trkpt lat="45.471439795920695" lon="11.074729312774744"><ele>158.75</ele><time>2026-04-25T08:39:15.998Z</time></trkpt><trkpt lat="45.471444359638035" lon="11.074914272222811"><ele>161.0</ele><time>2026-04-25T08:39:16.998Z</time></trkpt><trkpt lat="45.471460514687216" lon="11.07511219545767"><ele>162.75</ele><time>2026-04-25T08:39:17.998Z</time></trkpt><trkpt lat="45.471477567102575" lon="11.07531111752441"><ele>164.5</ele><time>2026-04-25T08:39:18.998Z</time></trkpt><trkpt lat="45.4715000703138" lon="11.075503986812985"><ele>166.25</ele><time>2026-04-25T08:39:19.998Z</time></trkpt><trkpt lat="45.471517990994954" lon="11.075686790247222"><ele>168.0</ele><time>2026-04-25T08:39:20.998Z</time></trkpt><trkpt lat="45.4715377452224" lon="11.07583746105045"><ele>169.60000000000002</ele><time>2026-04-25T08:39:21.998Z</time></trkpt><trkpt lat="45.47152393554716" lon="11.075988411809533"><ele>171.20000000000002</ele><time>2026-04-25T08:39:22.998Z</time></trkpt><trkpt lat="45.47148966318722" lon="11.076144546496996"><ele>172.8</ele><time>2026-04-25T08:39:23.998Z</time></trkpt><trkpt lat="45.47144258455585" lon="11.076308599004356"><ele>174.4</ele><time>2026-04-25T08:39:24.998Z</time></trkpt><trkpt lat="45.4714040485242" lon="11.076437753453595"><ele>176.0</ele><time>2026-04-25T08:39:25.998Z</time></trkpt><trkpt lat="45.4713851984571" lon="11.076549669059355"><ele>177.33333333333331</ele><time>2026-04-25T08:39:26.998Z</time></trkpt><trkpt lat="45.47139138897593" lon="11.07664465067191"><ele>178.66666666666666</ele><time>2026-04-25T08:39:27.998Z</time></trkpt><trkpt lat="45.47140978413452" lon="11.076738160808166"><ele>180.0</ele><time>2026-04-25T08:39:28.998Z</time></trkpt><trkpt lat="45.471430533172274" lon="11.076857668497148"><ele>181.33333333333334</ele><time>2026-04-25T08:39:29.998Z</time></trkpt><trkpt lat="45.47144974860372" lon="11.07695165758578"><ele>182.66666666666669</ele><time>2026-04-25T08:39:30.998Z</time></trkpt><trkpt lat="45.47147134363343" lon="11.07707312701555"><ele>184.0</ele><time>2026-04-25T08:39:31.998Z</time></trkpt><trkpt lat="45.47153055726141" lon="11.077178919870722"><ele>184.0</ele><time>2026-04-25T08:39:32.998Z</time></trkpt><trkpt lat="45.47158859903624" lon="11.077275848959001"><ele>184.0</ele><time>2026-04-25T08:39:33.998Z</time></trkpt><trkpt lat="45.47163015185155" lon="11.07736308586528"><ele>184.0</ele><time>2026-04-25T08:39:34.998Z</time></trkpt><trkpt lat="45.471684825158626" lon="11.077495998581783"><ele>184.0</ele><time>2026-04-25T08:39:36.998Z</time></trkpt><trkpt lat="45.47169695645007" lon="11.07759947244985"><ele>184.0</ele><time>2026-04-25T08:39:37.998Z</time></trkpt><trkpt lat="45.47171707579268" lon="11.077757218694051"><ele>187.0</ele><time>2026-04-25T08:39:38.998Z</time></trkpt><trkpt lat="45.471757864852364" lon="11.077915113110999"><ele>190.0</ele><time>2026-04-25T08:39:39.998Z</time></trkpt><trkpt lat="45.47180710090838" lon="11.078069556178413"><ele>193.0</ele><time>2026-04-25T08:39:40.998Z</time></trkpt><trkpt lat="45.47187382390204" lon="11.078220202558212"><ele>196.0</ele><time>2026-04-25T08:39:41.998Z</time></trkpt><trkpt lat="45.47195111590899" lon="11.078376219131826"><ele>196.75</ele><time>2026-04-25T08:39:42.998Z</time></trkpt><trkpt lat="45.47203396631344" lon="11.078561785832058"><ele>197.5</ele><time>2026-04-25T08:39:43.998Z</time></trkpt><trkpt lat="45.47211380035849" lon="11.078700551383932"><ele>198.25</ele><time>2026-04-25T08:39:44.998Z</time></trkpt><trkpt lat="45.472205725743656" lon="11.078816177908848"><ele>199.0</ele><time>2026-04-25T08:39:45.998Z</time></trkpt><trkpt lat="45.47228977158857" lon="11.078934541224259"><ele>199.0</ele><time>2026-04-25T08:39:46.998Z</time></trkpt><trkpt lat="45.47234295322644" lon="11.07909486780232"><ele>199.0</ele><time>2026-04-25T08:39:47.998Z</time></trkpt><trkpt lat="45.47240875578278" lon="11.079234242430978"><ele>199.0</ele><time>2026-04-25T08:39:48.998Z</time></trkpt><trkpt lat="45.47246380279094" lon="11.079398435703647"><ele>199.0</ele><time>2026-04-25T08:39:49.998Z</time></trkpt><trkpt lat="45.472516257564266" lon="11.079557774348562"><ele>203.0</ele><time>2026-04-25T08:39:50.998Z</time></trkpt><trkpt lat="45.47256377234" lon="11.079692306224851"><ele>207.0</ele><time>2026-04-25T08:39:51.998Z</time></trkpt><trkpt lat="45.47259462596894" lon="11.079837423413897"><ele>210.99999999999997</ele><time>2026-04-25T08:39:52.998Z</time></trkpt><trkpt lat="45.47265695569854" lon="11.079964528614736"><ele>215.0</ele><time>2026-04-25T08:39:53.998Z</time></trkpt><trkpt lat="45.47273902919643" lon="11.080079644537188"><ele>219.0</ele><time>2026-04-25T08:39:54.998Z</time></trkpt><trkpt lat="45.47282176281396" lon="11.08019816183887"><ele>219.25</ele><time>2026-04-25T08:39:55.998Z</time></trkpt><trkpt lat="45.47291528232656" lon="11.08033333964528"><ele>219.5</ele><time>2026-04-25T08:39:56.998Z</time></trkpt><trkpt lat="45.47301353332247" lon="11.080455109270472"><ele>219.75</ele><time>2026-04-25T08:39:57.997Z</time></trkpt><trkpt lat="45.473107902271025" lon="11.080584848562944"><ele>220.0</ele><time>2026-04-25T08:39:58.997Z</time></trkpt><trkpt lat="45.47319874264017" lon="11.080710278939371"><ele>223.75</ele><time>2026-04-25T08:39:59.997Z</time></trkpt><trkpt lat="45.47325421583827" lon="11.080859815379402"><ele>227.5</ele><time>2026-04-25T08:40:00.997Z</time></trkpt><trkpt lat="45.47331027500044" lon="11.080995119350614"><ele>231.25</ele><time>2026-04-25T08:40:01.997Z</time></trkpt><trkpt lat="45.473363442113815" lon="11.081134278184022"><ele>235.0</ele><time>2026-04-25T08:40:02.997Z</time></trkpt><trkpt lat="45.473426792387784" lon="11.081269529946871"><ele>235.0</ele><time>2026-04-25T08:40:03.997Z</time></trkpt><trkpt lat="45.4734652561798" lon="11.081420702423191"><ele>235.0</ele><time>2026-04-25T08:40:04.997Z</time></trkpt><trkpt lat="45.47349622779477" lon="11.081566453187484"><ele>235.0</ele><time>2026-04-25T08:40:05.997Z</time></trkpt><trkpt lat="45.47352758602251" lon="11.081645569739784"><ele>235.0</ele><time>2026-04-25T08:40:06.997Z</time></trkpt><trkpt lat="45.47364112390232" lon="11.081727606746435"><ele>235.0</ele><time>2026-04-25T08:40:08.997Z</time></trkpt><trkpt lat="45.473731381386095" lon="11.08175674139799"><ele>237.6</ele><time>2026-04-25T08:40:09.997Z</time></trkpt><trkpt lat="45.47381961129048" lon="11.081770710495835"><ele>240.2</ele><time>2026-04-25T08:40:10.997Z</time></trkpt><trkpt lat="45.47391460632672" lon="11.081818087631069"><ele>242.8</ele><time>2026-04-25T08:40:11.997Z</time></trkpt><trkpt lat="45.47402801031687" lon="11.0818334749276"><ele>245.4</ele><time>2026-04-25T08:40:12.997Z</time></trkpt><trkpt lat="45.47411808041365" lon="11.08182260630734"><ele>248.0</ele><time>2026-04-25T08:40:13.997Z</time></trkpt><trkpt lat="45.474197637038536" lon="11.081805127263312"><ele>248.0</ele><time>2026-04-25T08:40:14.997Z</time></trkpt><trkpt lat="45.47426529854401" lon="11.081805020702065"><ele>248.0</ele><time>2026-04-25T08:40:15.997Z</time></trkpt><trkpt lat="45.47436638040025" lon="11.081834987703504"><ele>248.0</ele><time>2026-04-25T08:40:17.997Z</time></trkpt><trkpt lat="45.47441009796824" lon="11.08193001432293"><ele>248.0</ele><time>2026-04-25T08:40:19.997Z</time></trkpt><trkpt lat="45.4745325724163" lon="11.082042110455848"><ele>248.0</ele><time>2026-04-25T08:40:21.997Z</time></trkpt><trkpt lat="45.47460406246357" lon="11.082057699513689"><ele>248.60000000000002</ele><time>2026-04-25T08:40:22.997Z</time></trkpt><trkpt lat="45.474677488712885" lon="11.082049105865803"><ele>249.20000000000002</ele><time>2026-04-25T08:40:23.997Z</time></trkpt><trkpt lat="45.47476458316294" lon="11.08202428373752"><ele>249.8</ele><time>2026-04-25T08:40:24.997Z</time></trkpt><trkpt lat="45.474867531555965" lon="11.082008335198305"><ele>250.4</ele><time>2026-04-25T08:40:26.997Z</time></trkpt><trkpt lat="45.47493456688122" lon="11.08202855329426"><ele>251.0</ele><time>2026-04-25T08:40:27.997Z</time></trkpt><trkpt lat="45.47506209658557" lon="11.082059081044859"><ele>251.00000000000003</ele><time>2026-04-25T08:40:29.997Z</time></trkpt><trkpt lat="45.47514451999696" lon="11.082088257454522"><ele>251.0</ele><time>2026-04-25T08:40:30.997Z</time></trkpt><trkpt lat="45.475212956855835" lon="11.082119515046486"><ele>251.0</ele><time>2026-04-25T08:40:31.997Z</time></trkpt><trkpt lat="45.47528371433387" lon="11.082149226616451"><ele>251.0</ele><time>2026-04-25T08:40:32.997Z</time></trkpt><trkpt lat="45.47535193346545" lon="11.082166985666566"><ele>251.00000000000003</ele><time>2026-04-25T08:40:33.997Z</time></trkpt><trkpt lat="45.47541423721238" lon="11.082186619583503"><ele>251.0</ele><time>2026-04-25T08:40:35.997Z</time></trkpt><trkpt lat="45.47550150575493" lon="11.082219824218349"><ele>249.20000000000002</ele><time>2026-04-25T08:40:37.997Z</time></trkpt><trkpt lat="45.47556297338217" lon="11.082271189784793"><ele>247.40000000000003</ele><time>2026-04-25T08:40:40.997Z</time></trkpt><trkpt lat="45.47555591190457" lon="11.082361754321678"><ele>245.6</ele><time>2026-04-25T08:40:41.997Z</time></trkpt><trkpt lat="45.47557359743174" lon="11.082458379308578"><ele>243.8</ele><time>2026-04-25T08:40:43.997Z</time></trkpt><trkpt lat="45.47562776797023" lon="11.082619381922212"><ele>242.0</ele><time>2026-04-25T08:40:45.997Z</time></trkpt><trkpt lat="45.47561840705428" lon="11.082808752331127"><ele>246.5</ele><time>2026-04-25T08:40:47.997Z</time></trkpt><trkpt lat="45.475641008525955" lon="11.082956445584399"><ele>251.0</ele><time>2026-04-25T08:40:49.997Z</time></trkpt><trkpt lat="45.475621885700285" lon="11.08310714840846"><ele>255.5</ele><time>2026-04-25T08:40:51.997Z</time></trkpt><trkpt lat="45.4755740959929" lon="11.08327573547818"><ele>260.0</ele><time>2026-04-25T08:40:53.997Z</time></trkpt><trkpt lat="45.475518889189175" lon="11.083435464866996"><ele>261.8</ele><time>2026-04-25T08:40:55.997Z</time></trkpt><trkpt lat="45.4755072451676" lon="11.083550449816402"><ele>263.6</ele><time>2026-04-25T08:40:56.997Z</time></trkpt><trkpt lat="45.475520251477825" lon="11.083683959817893"><ele>265.4</ele><time>2026-04-25T08:40:58.997Z</time></trkpt><trkpt lat="45.47554251733035" lon="11.083836053203134"><ele>267.2</ele><time>2026-04-25T08:41:00.997Z</time></trkpt><trkpt lat="45.47559822830608" lon="11.083951246809837"><ele>269.0</ele><time>2026-04-25T08:41:02.997Z</time></trkpt><trkpt lat="45.47567912142118" lon="11.084011312036631"><ele>269.0</ele><time>2026-04-25T08:41:04.997Z</time></trkpt><trkpt lat="45.47572901596161" lon="11.084096512549246"><ele>269.0</ele><time>2026-04-25T08:41:06.997Z</time></trkpt><trkpt lat="45.475785185384645" lon="11.084147793212356"><ele>269.0</ele><time>2026-04-25T08:41:08.997Z</time></trkpt><trkpt lat="45.47584023034493" lon="11.084238924614786"><ele>269.0</ele><time>2026-04-25T08:41:10.997Z</time></trkpt><trkpt lat="45.475905047632224" lon="11.084320810430208"><ele>269.0</ele><time>2026-04-25T08:41:13.997Z</time></trkpt><trkpt lat="45.475955146634696" lon="11.08438648044572"><ele>269.0</ele><time>2026-04-25T08:41:15.997Z</time></trkpt><trkpt lat="45.47599653933076" lon="11.084458033249199"><ele>269.0</ele><time>2026-04-25T08:41:17.997Z</time></trkpt><trkpt lat="45.47604338086678" lon="11.084559724238057"><ele>271.6666666666667</ele><time>2026-04-25T08:41:19.997Z</time></trkpt><trkpt lat="45.47607508156209" lon="11.08470833973499"><ele>274.33333333333337</ele><time>2026-04-25T08:41:21.997Z</time></trkpt><trkpt lat="45.47609492698733" lon="11.084824228929273"><ele>277.0</ele><time>2026-04-25T08:41:23.997Z</time></trkpt><trkpt lat="45.47615778342594" lon="11.084866543755325"><ele>279.6666666666667</ele><time>2026-04-25T08:41:25.997Z</time></trkpt><trkpt lat="45.47622836562852" lon="11.084934396081128"><ele>282.3333333333333</ele><time>2026-04-25T08:41:27.997Z</time></trkpt><trkpt lat="45.47629611164942" lon="11.08500258869249"><ele>285.0</ele><time>2026-04-25T08:41:29.997Z</time></trkpt><trkpt lat="45.476376323052285" lon="11.08506728846162"><ele>287.3333333333333</ele><time>2026-04-25T08:41:31.997Z</time></trkpt><trkpt lat="45.4764586723434" lon="11.085152422557771"><ele>289.6666666666667</ele><time>2026-04-25T08:41:34.997Z</time></trkpt><trkpt lat="45.47653185438889" lon="11.085223150315748"><ele>292.0</ele><time>2026-04-25T08:41:36.997Z</time></trkpt><trkpt lat="45.47661336481404" lon="11.08527576872103"><ele>294.33333333333337</ele><time>2026-04-25T08:41:38.997Z</time></trkpt><trkpt lat="45.47670209351273" lon="11.08533923227005"><ele>296.6666666666667</ele><time>2026-04-25T08:41:40.997Z</time></trkpt><trkpt lat="45.4767639154093" lon="11.085376388407356"><ele>299.0</ele><time>2026-04-25T08:41:42.997Z</time></trkpt><trkpt lat="45.47682361798128" lon="11.08540981756342"><ele>299.0</ele><time>2026-04-25T08:41:44.997Z</time></trkpt><trkpt lat="45.47691678917386" lon="11.085473436400285"><ele>299.0</ele><time>2026-04-25T08:41:47.997Z</time></trkpt><trkpt lat="45.47699392500899" lon="11.085522626290631"><ele>299.0</ele><time>2026-04-25T08:41:48.997Z</time></trkpt><trkpt lat="45.47706043641198" lon="11.08557332985077"><ele>299.0</ele><time>2026-04-25T08:41:49.997Z</time></trkpt><trkpt lat="45.47711896432827" lon="11.0856076066216"><ele>299.0</ele><time>2026-04-25T08:41:50.997Z</time></trkpt><trkpt lat="45.477233388701556" lon="11.085702137051056"><ele>301.8</ele><time>2026-04-25T08:41:52.996Z</time></trkpt><trkpt lat="45.47729823788064" lon="11.085765803096578"><ele>304.59999999999997</ele><time>2026-04-25T08:41:54.996Z</time></trkpt><trkpt lat="45.47734680617633" lon="11.085844970601393"><ele>307.4</ele><time>2026-04-25T08:41:55.996Z</time></trkpt><trkpt lat="45.47738440345999" lon="11.085923752863824"><ele>310.2</ele><time>2026-04-25T08:41:56.996Z</time></trkpt><trkpt lat="45.47744500458488" lon="11.086061882413258"><ele>313.0</ele><time>2026-04-25T08:41:58.996Z</time></trkpt><trkpt lat="45.47753585185731" lon="11.086198164867552"><ele>313.0</ele><time>2026-04-25T08:42:00.996Z</time></trkpt><trkpt lat="45.47763728616456" lon="11.086290933451156"><ele>313.0</ele><time>2026-04-25T08:42:02.996Z</time></trkpt><trkpt lat="45.47773846690268" lon="11.08632465514326"><ele>313.0</ele><time>2026-04-25T08:42:04.996Z</time></trkpt><trkpt lat="45.47780733933852" lon="11.086338644580804"><ele>313.0</ele><time>2026-04-25T08:42:05.996Z</time></trkpt><trkpt lat="45.47786877050654" lon="11.086372927588776"><ele>313.0</ele><time>2026-04-25T08:42:06.996Z</time></trkpt><trkpt lat="45.47797043783197" lon="11.08641162157859"><ele>315.0</ele><time>2026-04-25T08:42:08.996Z</time></trkpt><trkpt lat="45.47803386766954" lon="11.08643739222749"><ele>317.0</ele><time>2026-04-25T08:42:09.996Z</time></trkpt><trkpt lat="45.47810996390706" lon="11.086500288211399"><ele>319.0</ele><time>2026-04-25T08:42:11.996Z</time></trkpt><trkpt lat="45.47818757183079" lon="11.086545624624751"><ele>321.0</ele><time>2026-04-25T08:42:13.996Z</time></trkpt><trkpt lat="45.47828975871905" lon="11.086567945497892"><ele>323.0</ele><time>2026-04-25T08:42:15.996Z</time></trkpt><trkpt lat="45.478347292740246" lon="11.08661653371634"><ele>325.0</ele><time>2026-04-25T08:42:16.996Z</time></trkpt><trkpt lat="45.4784290496343" lon="11.086685370887054"><ele>325.0</ele><time>2026-04-25T08:42:18.996Z</time></trkpt><trkpt lat="45.478504283803" lon="11.086729634699752"><ele>325.0</ele><time>2026-04-25T08:42:20.996Z</time></trkpt><trkpt lat="45.47856775636636" lon="11.086746540200417"><ele>325.0</ele><time>2026-04-25T08:42:22.996Z</time></trkpt><trkpt lat="45.478647819131965" lon="11.086821842137482"><ele>325.0</ele><time>2026-04-25T08:42:24.996Z</time></trkpt><trkpt lat="45.47872035521338" lon="11.086855626091843"><ele>325.0</ele><time>2026-04-25T08:42:26.996Z</time></trkpt><trkpt lat="45.47877638366173" lon="11.086924086675035"><ele>325.0</ele><time>2026-04-25T08:42:27.996Z</time></trkpt><trkpt lat="45.478828364260934" lon="11.086999036465453"><ele>324.4</ele><time>2026-04-25T08:42:28.996Z</time></trkpt><trkpt lat="45.478902963993534" lon="11.087088553166199"><ele>323.8</ele><time>2026-04-25T08:42:29.996Z</time></trkpt><trkpt lat="45.47898626235024" lon="11.087154744125193"><ele>323.20000000000005</ele><time>2026-04-25T08:42:30.996Z</time></trkpt><trkpt lat="45.47909253353334" lon="11.08720201186864"><ele>322.6</ele><time>2026-04-25T08:42:31.996Z</time></trkpt><trkpt lat="45.47919001551421" lon="11.087270384659305"><ele>322.0</ele><time>2026-04-25T08:42:32.996Z</time></trkpt><trkpt lat="45.47926870642395" lon="11.087344455137394"><ele>325.25</ele><time>2026-04-25T08:42:33.996Z</time></trkpt><trkpt lat="45.47932561998446" lon="11.087446833084838"><ele>328.5</ele><time>2026-04-25T08:42:34.996Z</time></trkpt><trkpt lat="45.479365936784625" lon="11.087578511108068"><ele>331.75</ele><time>2026-04-25T08:42:35.996Z</time></trkpt><trkpt lat="45.479430776199564" lon="11.087735358980757"><ele>335.0</ele><time>2026-04-25T08:42:36.996Z</time></trkpt><trkpt lat="45.47950765715132" lon="11.087897258337327"><ele>335.0</ele><time>2026-04-25T08:42:37.996Z</time></trkpt><trkpt lat="45.4795838020949" lon="11.088023780883635"><ele>335.0</ele><time>2026-04-25T08:42:38.996Z</time></trkpt><trkpt lat="45.47965600453949" lon="11.088092688217875"><ele>335.0</ele><time>2026-04-25T08:42:39.996Z</time></trkpt><trkpt lat="45.47970541295375" lon="11.088227928115378"><ele>335.0</ele><time>2026-04-25T08:42:41.996Z</time></trkpt><trkpt lat="45.47965941578061" lon="11.088290002231577"><ele>335.0</ele><time>2026-04-25T08:42:42.996Z</time></trkpt><trkpt lat="45.47958467889053" lon="11.088336126706663"><ele>337.4</ele><time>2026-04-25T08:42:43.996Z</time></trkpt><trkpt lat="45.47950637074054" lon="11.088363109831878"><ele>339.8</ele><time>2026-04-25T08:42:44.996Z</time></trkpt><trkpt lat="45.47943483281307" lon="11.0883918895617"><ele>342.20000000000005</ele><time>2026-04-25T08:42:45.996Z</time></trkpt><trkpt lat="45.47936438272561" lon="11.088555456763023"><ele>344.6</ele><time>2026-04-25T08:42:47.996Z</time></trkpt><trkpt lat="45.479367631002454" lon="11.088710449200073"><ele>347.0</ele><time>2026-04-25T08:42:48.996Z</time></trkpt><trkpt lat="45.47938710566267" lon="11.088865807195402"><ele>347.0</ele><time>2026-04-25T08:42:49.996Z</time></trkpt><trkpt lat="45.479405469930974" lon="11.088987254080534"><ele>347.0</ele><time>2026-04-25T08:42:50.996Z</time></trkpt><trkpt lat="45.47938934405788" lon="11.08911038516351"><ele>347.0</ele><time>2026-04-25T08:42:52.996Z</time></trkpt><trkpt lat="45.47929815411369" lon="11.089093262111009"><ele>347.0</ele><time>2026-04-25T08:42:55.996Z</time></trkpt><trkpt lat="45.47921079867457" lon="11.089068985870789"><ele>347.0</ele><time>2026-04-25T08:42:57.996Z</time></trkpt><trkpt lat="45.47914610849562" lon="11.08903588888668"><ele>347.0</ele><time>2026-04-25T08:42:59.996Z</time></trkpt><trkpt lat="45.479080333174444" lon="11.089014280884076"><ele>347.0</ele><time>2026-04-25T08:43:00.996Z</time></trkpt><trkpt lat="45.47900268238449" lon="11.088984341298131"><ele>347.0</ele><time>2026-04-25T08:43:01.996Z</time></trkpt><trkpt lat="45.47891129372352" lon="11.08895378192423"><ele>347.0</ele><time>2026-04-25T08:43:02.996Z</time></trkpt><trkpt lat="45.478820176309924" lon="11.088919224158676"><ele>347.0</ele><time>2026-04-25T08:43:03.996Z</time></trkpt><trkpt lat="45.47871990914354" lon="11.088888192382571"><ele>347.0</ele><time>2026-04-25T08:43:04.996Z</time></trkpt><trkpt lat="45.47862900048963" lon="11.088850119397579"><ele>346.6</ele><time>2026-04-25T08:43:05.996Z</time></trkpt><trkpt lat="45.478528860864" lon="11.088818381468158"><ele>346.20000000000005</ele><time>2026-04-25T08:43:06.996Z</time></trkpt><trkpt lat="45.478434942449006" lon="11.08878427581367"><ele>345.8</ele><time>2026-04-25T08:43:07.996Z</time></trkpt><trkpt lat="45.47834093368665" lon="11.08874624843664"><ele>345.4</ele><time>2026-04-25T08:43:08.996Z</time></trkpt><trkpt lat="45.47824645448734" lon="11.088707205039347"><ele>345.0</ele><time>2026-04-25T08:43:09.996Z</time></trkpt><trkpt lat="45.47816419311944" lon="11.088665219187826"><ele>345.0</ele><time>2026-04-25T08:43:10.996Z</time></trkpt><trkpt lat="45.47806695927996" lon="11.088621744806815"><ele>345.0</ele><time>2026-04-25T08:43:11.996Z</time></trkpt><trkpt lat="45.477961708901255" lon="11.088567947392166"><ele>345.0</ele><time>2026-04-25T08:43:12.996Z</time></trkpt><trkpt lat="45.47784676862988" lon="11.088513642142074"><ele>345.0</ele><time>2026-04-25T08:43:13.996Z</time></trkpt><trkpt lat="45.477735124188996" lon="11.088473124017174"><ele>346.2</ele><time>2026-04-25T08:43:14.996Z</time></trkpt><trkpt lat="45.47764217885732" lon="11.08842919187426"><ele>347.4</ele><time>2026-04-25T08:43:15.996Z</time></trkpt><trkpt lat="45.47754960174005" lon="11.088419990664157"><ele>348.6</ele><time>2026-04-25T08:43:16.996Z</time></trkpt><trkpt lat="45.47745015990934" lon="11.088430264001461"><ele>349.8</ele><time>2026-04-25T08:43:17.996Z</time></trkpt><trkpt lat="45.4773510255033" lon="11.088488127730251"><ele>351.0</ele><time>2026-04-25T08:43:18.996Z</time></trkpt><trkpt lat="45.47724583584685" lon="11.088592616951479"><ele>351.0</ele><time>2026-04-25T08:43:19.996Z</time></trkpt><trkpt lat="45.47713068362506" lon="11.088702405367918"><ele>351.0</ele><time>2026-04-25T08:43:20.996Z</time></trkpt><trkpt lat="45.47702692109037" lon="11.088778237816244"><ele>351.0</ele><time>2026-04-25T08:43:21.996Z</time></trkpt><trkpt lat="45.47690743320042" lon="11.08883903596775"><ele>351.0</ele><time>2026-04-25T08:43:22.996Z</time></trkpt><trkpt lat="45.47678018189482" lon="11.088877536132438"><ele>353.75</ele><time>2026-04-25T08:43:23.996Z</time></trkpt><trkpt lat="45.47665503284377" lon="11.088897880664467"><ele>356.5</ele><time>2026-04-25T08:43:24.996Z</time></trkpt><trkpt lat="45.476527630368864" lon="11.088923975332053"><ele>359.25</ele><time>2026-04-25T08:43:25.996Z</time></trkpt><trkpt lat="45.47640083053648" lon="11.088947202713646"><ele>362.0</ele><time>2026-04-25T08:43:26.996Z</time></trkpt><trkpt lat="45.47627038158892" lon="11.088956498346162"><ele>362.5</ele><time>2026-04-25T08:43:27.996Z</time></trkpt><trkpt lat="45.47614109844437" lon="11.088960246833347"><ele>363.0</ele><time>2026-04-25T08:43:28.996Z</time></trkpt><trkpt lat="45.47601451648214" lon="11.088950545496797"><ele>363.5</ele><time>2026-04-25T08:43:29.996Z</time></trkpt><trkpt lat="45.47588478209663" lon="11.08892593710905"><ele>364.0</ele><time>2026-04-25T08:43:30.996Z</time></trkpt><trkpt lat="45.47576591974815" lon="11.088885854141642"><ele>364.0</ele><time>2026-04-25T08:43:31.996Z</time></trkpt><trkpt lat="45.475623560397516" lon="11.088832036581831"><ele>364.0</ele><time>2026-04-25T08:43:32.996Z</time></trkpt><trkpt lat="45.47547282913944" lon="11.088777988578126"><ele>364.0</ele><time>2026-04-25T08:43:33.996Z</time></trkpt><trkpt lat="45.47532663223882" lon="11.088711294474297"><ele>362.75</ele><time>2026-04-25T08:43:34.996Z</time></trkpt><trkpt lat="45.4751791944287" lon="11.08864945855673"><ele>361.5</ele><time>2026-04-25T08:43:35.996Z</time></trkpt><trkpt lat="45.47503412361962" lon="11.088600895979106"><ele>360.25</ele><time>2026-04-25T08:43:36.996Z</time></trkpt><trkpt lat="45.47489935925955" lon="11.088554841499374"><ele>359.0</ele><time>2026-04-25T08:43:37.996Z</time></trkpt><trkpt lat="45.47475616032911" lon="11.088506711194904"><ele>359.0</ele><time>2026-04-25T08:43:38.996Z</time></trkpt><trkpt lat="45.474606372988454" lon="11.088472827239448"><ele>359.0</ele><time>2026-04-25T08:43:39.996Z</time></trkpt><trkpt lat="45.47447340103607" lon="11.088423103354712"><ele>359.0</ele><time>2026-04-25T08:43:40.996Z</time></trkpt><trkpt lat="45.474337217918325" lon="11.088379983998612"><ele>359.0</ele><time>2026-04-25T08:43:41.996Z</time></trkpt><trkpt lat="45.4741961033848" lon="11.088326121488365"><ele>358.5</ele><time>2026-04-25T08:43:42.996Z</time></trkpt><trkpt lat="45.474058703813164" lon="11.0882728009859"><ele>358.0</ele><time>2026-04-25T08:43:43.996Z</time></trkpt><trkpt lat="45.473918669290555" lon="11.088214392818967"><ele>357.5</ele><time>2026-04-25T08:43:44.996Z</time></trkpt><trkpt lat="45.47377262859072" lon="11.088160885547207"><ele>357.0</ele><time>2026-04-25T08:43:45.995Z</time></trkpt><trkpt lat="45.473633843344786" lon="11.088107512162589"><ele>355.75</ele><time>2026-04-25T08:43:46.995Z</time></trkpt><trkpt lat="45.473491393221565" lon="11.0880576797331"><ele>354.5</ele><time>2026-04-25T08:43:47.995Z</time></trkpt><trkpt lat="45.473355464345374" lon="11.088018468261422"><ele>353.25</ele><time>2026-04-25T08:43:48.995Z</time></trkpt><trkpt lat="45.47321405638281" lon="11.087990470381554"><ele>352.0</ele><time>2026-04-25T08:43:49.995Z</time></trkpt><trkpt lat="45.47307596196616" lon="11.087947311090954"><ele>352.0</ele><time>2026-04-25T08:43:50.995Z</time></trkpt><trkpt lat="45.47294209097163" lon="11.087903527765013"><ele>352.0</ele><time>2026-04-25T08:43:51.995Z</time></trkpt><trkpt lat="45.47281882893089" lon="11.08786259101392"><ele>352.0</ele><time>2026-04-25T08:43:52.995Z</time></trkpt><trkpt lat="45.47270523574016" lon="11.087823634787775"><ele>352.0</ele><time>2026-04-25T08:43:53.995Z</time></trkpt><trkpt lat="45.47259524686302" lon="11.087783945162005"><ele>351.8</ele><time>2026-04-25T08:43:54.995Z</time></trkpt><trkpt lat="45.4724953215748" lon="11.087750761515263"><ele>351.6</ele><time>2026-04-25T08:43:55.995Z</time></trkpt><trkpt lat="45.472391691845495" lon="11.087711819933565"><ele>351.40000000000003</ele><time>2026-04-25T08:43:56.995Z</time></trkpt><trkpt lat="45.47228514956157" lon="11.087695435281171"><ele>351.20000000000005</ele><time>2026-04-25T08:43:57.995Z</time></trkpt><trkpt lat="45.4721704076849" lon="11.087660173819932"><ele>351.0</ele><time>2026-04-25T08:43:58.995Z</time></trkpt><trkpt lat="45.47206224235177" lon="11.087634449771475"><ele>350.8333333333333</ele><time>2026-04-25T08:43:59.995Z</time></trkpt><trkpt lat="45.471972559126556" lon="11.087615881272166"><ele>350.6666666666667</ele><time>2026-04-25T08:44:00.995Z</time></trkpt><trkpt lat="45.47189271653264" lon="11.087595073138129"><ele>350.5</ele><time>2026-04-25T08:44:01.995Z</time></trkpt><trkpt lat="45.471808543904466" lon="11.087579548759466"><ele>350.33333333333337</ele><time>2026-04-25T08:44:02.995Z</time></trkpt><trkpt lat="45.471732734227544" lon="11.087555721944751"><ele>350.1666666666667</ele><time>2026-04-25T08:44:03.995Z</time></trkpt><trkpt lat="45.47165757954024" lon="11.087534495975905"><ele>350.0</ele><time>2026-04-25T08:44:04.995Z</time></trkpt><trkpt lat="45.47158521651491" lon="11.087514133251783"><ele>350.0</ele><time>2026-04-25T08:44:05.995Z</time></trkpt><trkpt lat="45.471448820960376" lon="11.08746509363798"><ele>350.0</ele><time>2026-04-25T08:44:07.995Z</time></trkpt><trkpt lat="45.471365274563716" lon="11.087449880433034"><ele>350.0</ele><time>2026-04-25T08:44:08.995Z</time></trkpt><trkpt lat="45.47128234237688" lon="11.087438044125138"><ele>350.0</ele><time>2026-04-25T08:44:09.995Z</time></trkpt><trkpt lat="45.471202686210674" lon="11.087416773609167"><ele>350.0</ele><time>2026-04-25T08:44:10.995Z</time></trkpt><trkpt lat="45.47112498579702" lon="11.087388979706565"><ele>348.6666666666667</ele><time>2026-04-25T08:44:11.995Z</time></trkpt><trkpt lat="45.471052105873675" lon="11.087368940173553"><ele>347.33333333333337</ele><time>2026-04-25T08:44:12.995Z</time></trkpt><trkpt lat="45.47097549405382" lon="11.087350557315377"><ele>346.0</ele><time>2026-04-25T08:44:13.995Z</time></trkpt><trkpt lat="45.47090027354845" lon="11.087327306140882"><ele>344.6666666666667</ele><time>2026-04-25T08:44:14.995Z</time></trkpt><trkpt lat="45.470825064435395" lon="11.087307637580007"><ele>343.3333333333333</ele><time>2026-04-25T08:44:15.995Z</time></trkpt><trkpt lat="45.47076269009526" lon="11.08729124175222"><ele>342.0</ele><time>2026-04-25T08:44:16.995Z</time></trkpt><trkpt lat="45.470682931366845" lon="11.087239671301356"><ele>342.0</ele><time>2026-04-25T08:44:18.995Z</time></trkpt><trkpt lat="45.47059472554689" lon="11.087326480066494"><ele>342.0</ele><time>2026-04-25T08:44:20.995Z</time></trkpt><trkpt lat="45.47051029170399" lon="11.08744491880265"><ele>342.0</ele><time>2026-04-25T08:44:21.995Z</time></trkpt><trkpt lat="45.4704281427295" lon="11.087566712584858"><ele>342.0</ele><time>2026-04-25T08:44:22.995Z</time></trkpt><trkpt lat="45.47034929320513" lon="11.087735421230997"><ele>341.25</ele><time>2026-04-25T08:44:23.995Z</time></trkpt><trkpt lat="45.47027252927823" lon="11.08793655173069"><ele>340.5</ele><time>2026-04-25T08:44:24.995Z</time></trkpt><trkpt lat="45.47020264089804" lon="11.088088798565108"><ele>339.75</ele><time>2026-04-25T08:44:25.995Z</time></trkpt><trkpt lat="45.47014743706662" lon="11.088250843473897"><ele>339.0</ele><time>2026-04-25T08:44:26.995Z</time></trkpt><trkpt lat="45.47008888262975" lon="11.08840762790987"><ele>339.0</ele><time>2026-04-25T08:44:27.995Z</time></trkpt><trkpt lat="45.47005549970381" lon="11.088563833725445"><ele>339.0</ele><time>2026-04-25T08:44:28.995Z</time></trkpt><trkpt lat="45.470046859950614" lon="11.088706357689802"><ele>339.0</ele><time>2026-04-25T08:44:29.995Z</time></trkpt><trkpt lat="45.47003796453385" lon="11.088856320723645"><ele>339.0</ele><time>2026-04-25T08:44:30.995Z</time></trkpt><trkpt lat="45.47000813068026" lon="11.088957992525103"><ele>339.0</ele><time>2026-04-25T08:44:31.995Z</time></trkpt><trkpt lat="45.46993981888312" lon="11.089037062320022"><ele>337.5</ele><time>2026-04-25T08:44:32.995Z</time></trkpt><trkpt lat="45.469847831326476" lon="11.089142843916818"><ele>336.0</ele><time>2026-04-25T08:44:33.995Z</time></trkpt><trkpt lat="45.46976344422958" lon="11.089253499096538"><ele>334.5</ele><time>2026-04-25T08:44:34.995Z</time></trkpt><trkpt lat="45.46967696975163" lon="11.08936044405829"><ele>333.0</ele><time>2026-04-25T08:44:35.995Z</time></trkpt><trkpt lat="45.46958952807984" lon="11.08945750419604"><ele>333.0</ele><time>2026-04-25T08:44:36.995Z</time></trkpt><trkpt lat="45.46949761719171" lon="11.089539469751694"><ele>333.0</ele><time>2026-04-25T08:44:37.995Z</time></trkpt><trkpt lat="45.46939787757146" lon="11.089649295422952"><ele>333.0</ele><time>2026-04-25T08:44:38.995Z</time></trkpt><trkpt lat="45.469314153122326" lon="11.089759949150183"><ele>333.0</ele><time>2026-04-25T08:44:39.995Z</time></trkpt><trkpt lat="45.46923179949421" lon="11.089892357638625"><ele>336.5</ele><time>2026-04-25T08:44:40.995Z</time></trkpt><trkpt lat="45.469154547755274" lon="11.09006751260265"><ele>340.0</ele><time>2026-04-25T08:44:41.995Z</time></trkpt><trkpt lat="45.46907852318724" lon="11.090235458798524"><ele>343.5</ele><time>2026-04-25T08:44:42.995Z</time></trkpt><trkpt lat="45.468995674717725" lon="11.090370394011059"><ele>347.0</ele><time>2026-04-25T08:44:43.995Z</time></trkpt><trkpt lat="45.46889937839634" lon="11.090509990798735"><ele>347.0</ele><time>2026-04-25T08:44:44.995Z</time></trkpt><trkpt lat="45.468809236333314" lon="11.090635001942866"><ele>347.0</ele><time>2026-04-25T08:44:45.995Z</time></trkpt><trkpt lat="45.46872794942797" lon="11.090749558930279"><ele>347.0</ele><time>2026-04-25T08:44:46.995Z</time></trkpt><trkpt lat="45.46864596474381" lon="11.090880224192516"><ele>347.0</ele><time>2026-04-25T08:44:47.995Z</time></trkpt><trkpt lat="45.46856840977049" lon="11.090991007030858"><ele>347.20000000000005</ele><time>2026-04-25T08:44:48.995Z</time></trkpt><trkpt lat="45.46849655476274" lon="11.091089762162701"><ele>347.4</ele><time>2026-04-25T08:44:49.995Z</time></trkpt><trkpt lat="45.468413500517336" lon="11.091181079973357"><ele>347.6</ele><time>2026-04-25T08:44:50.995Z</time></trkpt><trkpt lat="45.46832858879477" lon="11.09126448435423"><ele>347.79999999999995</ele><time>2026-04-25T08:44:51.995Z</time></trkpt><trkpt lat="45.468238462004365" lon="11.091356017423589"><ele>348.0</ele><time>2026-04-25T08:44:52.995Z</time></trkpt><trkpt lat="45.46815351684775" lon="11.091431745581103"><ele>348.0</ele><time>2026-04-25T08:44:53.995Z</time></trkpt><trkpt lat="45.46805634484445" lon="11.091528574440675"><ele>348.0</ele><time>2026-04-25T08:44:54.995Z</time></trkpt><trkpt lat="45.46795676244887" lon="11.09161208303311"><ele>348.0</ele><time>2026-04-25T08:44:55.995Z</time></trkpt><trkpt lat="45.46786390561551" lon="11.091708648492876"><ele>348.0</ele><time>2026-04-25T08:44:56.995Z</time></trkpt><trkpt lat="45.46777957995464" lon="11.091814174818714"><ele>347.79999999999995</ele><time>2026-04-25T08:44:57.995Z</time></trkpt><trkpt lat="45.467713753808894" lon="11.091937900830418"><ele>347.6</ele><time>2026-04-25T08:44:58.995Z</time></trkpt><trkpt lat="45.46766709773073" lon="11.092087391917294"><ele>347.4</ele><time>2026-04-25T08:44:59.995Z</time></trkpt><trkpt lat="45.46763323304614" lon="11.092204121899616"><ele>347.20000000000005</ele><time>2026-04-25T08:45:00.995Z</time></trkpt><trkpt lat="45.46764879584379" lon="11.092309005023578"><ele>347.0</ele><time>2026-04-25T08:45:02.995Z</time></trkpt><trkpt lat="45.46771109243593" lon="11.092335064204427"><ele>347.0</ele><time>2026-04-25T08:45:03.995Z</time></trkpt><trkpt lat="45.46780743253354" lon="11.092341675687573"><ele>347.0</ele><time>2026-04-25T08:45:04.995Z</time></trkpt><trkpt lat="45.46789994099593" lon="11.09232396284002"><ele>347.0</ele><time>2026-04-25T08:45:05.995Z</time></trkpt><trkpt lat="45.46801920487718" lon="11.092295578710612"><ele>347.0</ele><time>2026-04-25T08:45:06.995Z</time></trkpt><trkpt lat="45.46816728886641" lon="11.092286905351129"><ele>348.5</ele><time>2026-04-25T08:45:07.995Z</time></trkpt><trkpt lat="45.468308804924895" lon="11.092294816870979"><ele>350.0</ele><time>2026-04-25T08:45:08.995Z</time></trkpt><trkpt lat="45.468433332118856" lon="11.09233316774556"><ele>351.5</ele><time>2026-04-25T08:45:09.995Z</time></trkpt><trkpt lat="45.468535519237534" lon="11.092401903030146"><ele>353.0</ele><time>2026-04-25T08:45:10.995Z</time></trkpt><trkpt lat="45.468610182089705" lon="11.092486816419175"><ele>353.0</ele><time>2026-04-25T08:45:11.995Z</time></trkpt><trkpt lat="45.468661973642185" lon="11.092604126304959"><ele>353.0</ele><time>2026-04-25T08:45:12.995Z</time></trkpt><trkpt lat="45.46871514530866" lon="11.092773674735147"><ele>353.0</ele><time>2026-04-25T08:45:13.995Z</time></trkpt><trkpt lat="45.46877879024198" lon="11.092984366492523"><ele>353.0</ele><time>2026-04-25T08:45:14.995Z</time></trkpt><trkpt lat="45.468849504206915" lon="11.093177121567996"><ele>352.5</ele><time>2026-04-25T08:45:15.995Z</time></trkpt><trkpt lat="45.468919069112296" lon="11.09336267620354"><ele>352.0</ele><time>2026-04-25T08:45:16.995Z</time></trkpt><trkpt lat="45.46899232707575" lon="11.093538709979313"><ele>351.5</ele><time>2026-04-25T08:45:17.995Z</time></trkpt><trkpt lat="45.46906269739223" lon="11.093715858843948"><ele>351.0</ele><time>2026-04-25T08:45:18.995Z</time></trkpt><trkpt lat="45.469127001061295" lon="11.093885647484115"><ele>351.0</ele><time>2026-04-25T08:45:19.995Z</time></trkpt><trkpt lat="45.46918389946372" lon="11.094034498571343"><ele>351.0</ele><time>2026-04-25T08:45:20.995Z</time></trkpt><trkpt lat="45.46923660906334" lon="11.094168219399993"><ele>351.0</ele><time>2026-04-25T08:45:21.995Z</time></trkpt><trkpt lat="45.469277356294185" lon="11.094276121095174"><ele>351.0</ele><time>2026-04-25T08:45:22.995Z</time></trkpt><trkpt lat="45.46931681760772" lon="11.094372972145072"><ele>351.0</ele><time>2026-04-25T08:45:23.995Z</time></trkpt><trkpt lat="45.469346986547365" lon="11.09445458258201"><ele>349.6666666666667</ele><time>2026-04-25T08:45:24.995Z</time></trkpt><trkpt lat="45.46943212804471" lon="11.094558482877519"><ele>348.3333333333333</ele><time>2026-04-25T08:45:26.995Z</time></trkpt><trkpt lat="45.46950819958576" lon="11.09456877304582"><ele>347.0</ele><time>2026-04-25T08:45:27.995Z</time></trkpt><trkpt lat="45.46957712316185" lon="11.094561922403415"><ele>345.66666666666663</ele><time>2026-04-25T08:45:28.995Z</time></trkpt><trkpt lat="45.469612461110145" lon="11.094651171490453"><ele>344.3333333333333</ele><time>2026-04-25T08:45:31.995Z</time></trkpt><trkpt lat="45.46954834021715" lon="11.094758918647354"><ele>343.0</ele><time>2026-04-25T08:45:33.995Z</time></trkpt><trkpt lat="45.4694566824353" lon="11.094835889735567"><ele>343.0</ele><time>2026-04-25T08:45:34.995Z</time></trkpt><trkpt lat="45.4693350142127" lon="11.094911590845332"><ele>343.0</ele><time>2026-04-25T08:45:35.995Z</time></trkpt><trkpt lat="45.469199931128415" lon="11.094935335317006"><ele>343.0</ele><time>2026-04-25T08:45:36.995Z</time></trkpt><trkpt lat="45.46907805419345" lon="11.094988415377367"><ele>343.0</ele><time>2026-04-25T08:45:37.995Z</time></trkpt><trkpt lat="45.46898082780652" lon="11.095050738243703"><ele>340.59999999999997</ele><time>2026-04-25T08:45:38.995Z</time></trkpt><trkpt lat="45.46890414733464" lon="11.095114289477634"><ele>338.2</ele><time>2026-04-25T08:45:39.994Z</time></trkpt><trkpt lat="45.46884540899523" lon="11.095214587014304"><ele>335.8</ele><time>2026-04-25T08:45:40.994Z</time></trkpt><trkpt lat="45.468765758827914" lon="11.095299858361209"><ele>333.4</ele><time>2026-04-25T08:45:41.994Z</time></trkpt><trkpt lat="45.46867821975411" lon="11.095391789924667"><ele>331.0</ele><time>2026-04-25T08:45:42.994Z</time></trkpt><trkpt lat="45.468610079443394" lon="11.095490606599961"><ele>331.0</ele><time>2026-04-25T08:45:43.994Z</time></trkpt><trkpt lat="45.46854812810373" lon="11.095586933090576"><ele>331.0</ele><time>2026-04-25T08:45:44.994Z</time></trkpt><trkpt lat="45.46847285420542" lon="11.095650618043404"><ele>331.0</ele><time>2026-04-25T08:45:45.994Z</time></trkpt><trkpt lat="45.468405987088076" lon="11.095702671721856"><ele>331.0</ele><time>2026-04-25T08:45:46.994Z</time></trkpt><trkpt lat="45.468312167398345" lon="11.09574830396681"><ele>331.0</ele><time>2026-04-25T08:45:48.994Z</time></trkpt><trkpt lat="45.46841330681155" lon="11.095840526337119"><ele>327.2</ele><time>2026-04-25T08:45:52.994Z</time></trkpt><trkpt lat="45.46851048792916" lon="11.09584425560311"><ele>323.40000000000003</ele><time>2026-04-25T08:45:53.994Z</time></trkpt><trkpt lat="45.468596702317264" lon="11.095843872524465"><ele>319.6</ele><time>2026-04-25T08:45:54.994Z</time></trkpt><trkpt lat="45.46871481826171" lon="11.095867976090554"><ele>315.8</ele><time>2026-04-25T08:45:55.994Z</time></trkpt><trkpt lat="45.46885050852073" lon="11.095865383781073"><ele>312.0</ele><time>2026-04-25T08:45:56.994Z</time></trkpt><trkpt lat="45.46897625937777" lon="11.09584581905594"><ele>311.6</ele><time>2026-04-25T08:45:57.994Z</time></trkpt><trkpt lat="45.46910205598408" lon="11.095819138617646"><ele>311.2</ele><time>2026-04-25T08:45:58.994Z</time></trkpt><trkpt lat="45.46921074342335" lon="11.095787318945119"><ele>310.8</ele><time>2026-04-25T08:45:59.994Z</time></trkpt><trkpt lat="45.469317502974434" lon="11.095772611727707"><ele>310.4</ele><time>2026-04-25T08:46:00.994Z</time></trkpt><trkpt lat="45.46940599793946" lon="11.095756075347616"><ele>310.0</ele><time>2026-04-25T08:46:01.994Z</time></trkpt><trkpt lat="45.46949913463096" lon="11.095733471754118"><ele>310.0</ele><time>2026-04-25T08:46:03.994Z</time></trkpt><trkpt lat="45.46956254519384" lon="11.095712052772868"><ele>310.0</ele><time>2026-04-25T08:46:05.994Z</time></trkpt><trkpt lat="45.46952718091459" lon="11.095801242631273"><ele>310.0</ele><time>2026-04-25T08:46:08.994Z</time></trkpt><trkpt lat="45.469458465813446" lon="11.09585453855241"><ele>310.0</ele><time>2026-04-25T08:46:10.994Z</time></trkpt><trkpt lat="45.46932134322532" lon="11.095941453777758"><ele>310.0</ele><time>2026-04-25T08:46:12.994Z</time></trkpt><trkpt lat="45.46924087648163" lon="11.096011932458005"><ele>310.0</ele><time>2026-04-25T08:46:13.994Z</time></trkpt><trkpt lat="45.469157704029406" lon="11.096084734150175"><ele>310.0</ele><time>2026-04-25T08:46:14.994Z</time></trkpt><trkpt lat="45.46907326903301" lon="11.09615909993126"><ele>310.0</ele><time>2026-04-25T08:46:15.994Z</time></trkpt><trkpt lat="45.46897981902969" lon="11.09623138002992"><ele>310.0</ele><time>2026-04-25T08:46:16.994Z</time></trkpt><trkpt lat="45.46889101165596" lon="11.096298023267957"><ele>310.0</ele><time>2026-04-25T08:46:17.994Z</time></trkpt><trkpt lat="45.46880267768525" lon="11.096360266329395"><ele>310.4</ele><time>2026-04-25T08:46:18.994Z</time></trkpt><trkpt lat="45.46872005477247" lon="11.096409817390409"><ele>310.8</ele><time>2026-04-25T08:46:19.994Z</time></trkpt><trkpt lat="45.468637416740705" lon="11.096455912824064"><ele>311.2</ele><time>2026-04-25T08:46:20.994Z</time></trkpt><trkpt lat="45.468555451178524" lon="11.096508300043933"><ele>311.6</ele><time>2026-04-25T08:46:21.994Z</time></trkpt><trkpt lat="45.46846288441905" lon="11.096571354767287"><ele>312.0</ele><time>2026-04-25T08:46:22.994Z</time></trkpt><trkpt lat="45.4683694946616" lon="11.096645750617311"><ele>307.2</ele><time>2026-04-25T08:46:23.994Z</time></trkpt><trkpt lat="45.46826867445465" lon="11.09670509381887"><ele>302.4</ele><time>2026-04-25T08:46:24.994Z</time></trkpt><trkpt lat="45.468179083997526" lon="11.096757519002413"><ele>297.6</ele><time>2026-04-25T08:46:25.994Z</time></trkpt><trkpt lat="45.46809484325397" lon="11.096819313237706"><ele>292.8</ele><time>2026-04-25T08:46:26.994Z</time></trkpt><trkpt lat="45.46801893589461" lon="11.096872670884204"><ele>288.0</ele><time>2026-04-25T08:46:27.994Z</time></trkpt><trkpt lat="45.46794813971496" lon="11.096891158208967"><ele>288.0</ele><time>2026-04-25T08:46:28.994Z</time></trkpt><trkpt lat="45.467887910399476" lon="11.096925770747948"><ele>288.0</ele><time>2026-04-25T08:46:29.994Z</time></trkpt><trkpt lat="45.46781475219809" lon="11.096960401522214"><ele>288.0</ele><time>2026-04-25T08:46:31.994Z</time></trkpt><trkpt lat="45.46775609765022" lon="11.097021932433242"><ele>288.0</ele><time>2026-04-25T08:46:46.994Z</time></trkpt><trkpt lat="45.46781691852513" lon="11.096959371874988"><ele>288.0</ele><time>2026-04-25T08:46:51.994Z</time></trkpt><trkpt lat="45.46793176225888" lon="11.096946816912352"><ele>288.0</ele><time>2026-04-25T08:46:53.994Z</time></trkpt><trkpt lat="45.468014823517585" lon="11.096902673554784"><ele>288.0</ele><time>2026-04-25T08:46:54.994Z</time></trkpt><trkpt lat="45.46810601308703" lon="11.096860555327085"><ele>288.0</ele><time>2026-04-25T08:46:55.994Z</time></trkpt><trkpt lat="45.468187876317124" lon="11.09680683398443"><ele>288.0</ele><time>2026-04-25T08:46:56.994Z</time></trkpt><trkpt lat="45.46827029869873" lon="11.096760346525661"><ele>288.0</ele><time>2026-04-25T08:46:57.994Z</time></trkpt><trkpt lat="45.468351982586185" lon="11.096704603784609"><ele>288.0</ele><time>2026-04-25T08:46:58.994Z</time></trkpt><trkpt lat="45.46843498124401" lon="11.096645355644107"><ele>288.0</ele><time>2026-04-25T08:46:59.994Z</time></trkpt><trkpt lat="45.46852189250067" lon="11.096598324231062"><ele>288.0</ele><time>2026-04-25T08:47:00.994Z</time></trkpt><trkpt lat="45.46860774213424" lon="11.096571276154041"><ele>288.0</ele><time>2026-04-25T08:47:01.994Z</time></trkpt><trkpt lat="45.46868431538366" lon="11.096504453681325"><ele>288.0</ele><time>2026-04-25T08:47:02.994Z</time></trkpt><trkpt lat="45.46876679130336" lon="11.096450480691228"><ele>288.0</ele><time>2026-04-25T08:47:03.994Z</time></trkpt><trkpt lat="45.46885271483565" lon="11.096391881334938"><ele>292.4</ele><time>2026-04-25T08:47:04.994Z</time></trkpt><trkpt lat="45.46894453381626" lon="11.096337646492092"><ele>296.8</ele><time>2026-04-25T08:47:05.994Z</time></trkpt><trkpt lat="45.46902379623772" lon="11.096311284158528"><ele>301.2</ele><time>2026-04-25T08:47:06.994Z</time></trkpt><trkpt lat="45.46911370767261" lon="11.096247390893778"><ele>305.6</ele><time>2026-04-25T08:47:07.994Z</time></trkpt><trkpt lat="45.46919667084799" lon="11.09616140514908"><ele>310.0</ele><time>2026-04-25T08:47:08.994Z</time></trkpt><trkpt lat="45.46928086620386" lon="11.096092051942831"><ele>310.0</ele><time>2026-04-25T08:47:09.994Z</time></trkpt><trkpt lat="45.46936072442928" lon="11.096025255391389"><ele>310.0</ele><time>2026-04-25T08:47:10.994Z</time></trkpt><trkpt lat="45.46943436700292" lon="11.095963671968024"><ele>310.0</ele><time>2026-04-25T08:47:11.994Z</time></trkpt><trkpt lat="45.469494287391484" lon="11.095903072055343"><ele>310.0</ele><time>2026-04-25T08:47:12.994Z</time></trkpt><trkpt lat="45.46957290472427" lon="11.095821990831865"><ele>310.0</ele><time>2026-04-25T08:47:14.994Z</time></trkpt><trkpt lat="45.469532085152494" lon="11.095706248591087"><ele>310.0</ele><time>2026-04-25T08:47:17.994Z</time></trkpt><trkpt lat="45.46946535781344" lon="11.095743283107813"><ele>310.0</ele><time>2026-04-25T08:47:19.994Z</time></trkpt><trkpt lat="45.46940200447808" lon="11.095757888424563"><ele>310.0</ele><time>2026-04-25T08:47:20.994Z</time></trkpt><trkpt lat="45.46932826077431" lon="11.095757042003555"><ele>310.0</ele><time>2026-04-25T08:47:21.994Z</time></trkpt><trkpt lat="45.46923476530064" lon="11.095766395339718"><ele>310.0</ele><time>2026-04-25T08:47:22.994Z</time></trkpt><trkpt lat="45.46912334942813" lon="11.095800400128123"><ele>310.0</ele><time>2026-04-25T08:47:23.994Z</time></trkpt><trkpt lat="45.4690285138296" lon="11.095831073340253"><ele>310.0</ele><time>2026-04-25T08:47:24.994Z</time></trkpt><trkpt lat="45.46891346171193" lon="11.095852105140127"><ele>310.0</ele><time>2026-04-25T08:47:25.994Z</time></trkpt><trkpt lat="45.46880999695369" lon="11.095874628094238"><ele>310.0</ele><time>2026-04-25T08:47:26.994Z</time></trkpt><trkpt lat="45.46868940064984" lon="11.095875664390299"><ele>310.0</ele><time>2026-04-25T08:47:27.994Z</time></trkpt><trkpt lat="45.46859500901803" lon="11.095878916411733"><ele>310.0</ele><time>2026-04-25T08:47:28.994Z</time></trkpt><trkpt lat="45.468508245423656" lon="11.095884171215717"><ele>310.0</ele><time>2026-04-25T08:47:29.994Z</time></trkpt><trkpt lat="45.468433242027615" lon="11.095832062844845"><ele>314.0</ele><time>2026-04-25T08:47:32.994Z</time></trkpt><trkpt lat="45.468521476534015" lon="11.095733982512655"><ele>318.0</ele><time>2026-04-25T08:47:37.993Z</time></trkpt><trkpt lat="45.468587172373915" lon="11.095686039273126"><ele>322.0</ele><time>2026-04-25T08:47:38.993Z</time></trkpt><trkpt lat="45.46865889966781" lon="11.095609704883554"><ele>326.0</ele><time>2026-04-25T08:47:39.993Z</time></trkpt><trkpt lat="45.46873067196854" lon="11.09554349661743"><ele>330.0</ele><time>2026-04-25T08:47:40.993Z</time></trkpt><trkpt lat="45.468811051378474" lon="11.09546168119863"><ele>330.0</ele><time>2026-04-25T08:47:41.993Z</time></trkpt><trkpt lat="45.46888320340319" lon="11.095360503246436"><ele>330.0</ele><time>2026-04-25T08:47:42.993Z</time></trkpt><trkpt lat="45.468956837619864" lon="11.095262618203291"><ele>330.0</ele><time>2026-04-25T08:47:43.993Z</time></trkpt><trkpt lat="45.4690362187485" lon="11.095191375539121"><ele>330.0</ele><time>2026-04-25T08:47:44.993Z</time></trkpt><trkpt lat="45.469130521632266" lon="11.095122650152177"><ele>330.0</ele><time>2026-04-25T08:47:45.993Z</time></trkpt><trkpt lat="45.46922484570183" lon="11.095077878670537"><ele>330.0</ele><time>2026-04-25T08:47:46.993Z</time></trkpt><trkpt lat="45.46931685634883" lon="11.095031133757745"><ele>330.0</ele><time>2026-04-25T08:47:47.993Z</time></trkpt><trkpt lat="45.46939915701355" lon="11.09499095869787"><ele>330.0</ele><time>2026-04-25T08:47:48.993Z</time></trkpt><trkpt lat="45.469475540561916" lon="11.094948895559373"><ele>330.0</ele><time>2026-04-25T08:47:49.993Z</time></trkpt><trkpt lat="45.46954576035513" lon="11.094898157076303"><ele>330.0</ele><time>2026-04-25T08:47:50.993Z</time></trkpt><trkpt lat="45.46960706809291" lon="11.094820006798509"><ele>330.0</ele><time>2026-04-25T08:47:51.993Z</time></trkpt><trkpt lat="45.46965020826837" lon="11.094749563429326"><ele>330.6666666666667</ele><time>2026-04-25T08:47:52.993Z</time></trkpt><trkpt lat="45.4696937197486" lon="11.094670279432254"><ele>331.3333333333333</ele><time>2026-04-25T08:47:54.993Z</time></trkpt><trkpt lat="45.46963856535153" lon="11.0945416785205"><ele>332.0</ele><time>2026-04-25T08:47:57.993Z</time></trkpt><trkpt lat="45.46957968127011" lon="11.094509380341"><ele>332.66666666666663</ele><time>2026-04-25T08:47:58.993Z</time></trkpt><trkpt lat="45.46946661858034" lon="11.094531321689882"><ele>333.3333333333333</ele><time>2026-04-25T08:48:00.993Z</time></trkpt><trkpt lat="45.469393945705455" lon="11.094472147914118"><ele>334.0</ele><time>2026-04-25T08:48:02.993Z</time></trkpt><trkpt lat="45.46933991373989" lon="11.094278835705637"><ele>335.79999999999995</ele><time>2026-04-25T08:48:04.993Z</time></trkpt><trkpt lat="45.469295256652124" lon="11.094165192016469"><ele>337.59999999999997</ele><time>2026-04-25T08:48:05.993Z</time></trkpt><trkpt lat="45.46924451390102" lon="11.094024174709237"><ele>339.4</ele><time>2026-04-25T08:48:06.993Z</time></trkpt><trkpt lat="45.46919027376569" lon="11.093872671759048"><ele>341.2</ele><time>2026-04-25T08:48:07.993Z</time></trkpt><trkpt lat="45.46914869185027" lon="11.093720006036769"><ele>343.0</ele><time>2026-04-25T08:48:08.993Z</time></trkpt><trkpt lat="45.46909284422378" lon="11.09354910024988"><ele>345.0</ele><time>2026-04-25T08:48:09.993Z</time></trkpt><trkpt lat="45.469034433546874" lon="11.093383031273566"><ele>347.0</ele><time>2026-04-25T08:48:10.993Z</time></trkpt><trkpt lat="45.46896892374406" lon="11.093222222243119"><ele>349.0</ele><time>2026-04-25T08:48:11.993Z</time></trkpt><trkpt lat="45.46890556850797" lon="11.093068426096222"><ele>351.0</ele><time>2026-04-25T08:48:12.993Z</time></trkpt><trkpt lat="45.46884792949625" lon="11.092927730569704"><ele>351.4</ele><time>2026-04-25T08:48:13.993Z</time></trkpt><trkpt lat="45.46880172951802" lon="11.092787239008763"><ele>351.8</ele><time>2026-04-25T08:48:14.993Z</time></trkpt><trkpt lat="45.46874827910118" lon="11.092650349348999"><ele>352.2</ele><time>2026-04-25T08:48:15.993Z</time></trkpt><trkpt lat="45.46869932757051" lon="11.092527599077686"><ele>352.59999999999997</ele><time>2026-04-25T08:48:16.993Z</time></trkpt><trkpt lat="45.46864011197908" lon="11.09241983287351"><ele>353.0</ele><time>2026-04-25T08:48:17.993Z</time></trkpt><trkpt lat="45.46858077325111" lon="11.092350998626928"><ele>353.25</ele><time>2026-04-25T08:48:18.993Z</time></trkpt><trkpt lat="45.468490924164946" lon="11.092308922160914"><ele>353.5</ele><time>2026-04-25T08:48:19.993Z</time></trkpt><trkpt lat="45.468376867287915" lon="11.09227021381198"><ele>353.75</ele><time>2026-04-25T08:48:20.993Z</time></trkpt><trkpt lat="45.46826345286128" lon="11.092243225715052"><ele>354.0</ele><time>2026-04-25T08:48:21.993Z</time></trkpt><trkpt lat="45.46812791327924" lon="11.09224201120098"><ele>354.0</ele><time>2026-04-25T08:48:22.993Z</time></trkpt><trkpt lat="45.46799786231656" lon="11.092264406925255"><ele>354.0</ele><time>2026-04-25T08:48:23.993Z</time></trkpt><trkpt lat="45.467879821611305" lon="11.092291480802402"><ele>354.0</ele><time>2026-04-25T08:48:24.993Z</time></trkpt><trkpt lat="45.46778594892811" lon="11.092311873663274"><ele>354.0</ele><time>2026-04-25T08:48:25.993Z</time></trkpt><trkpt lat="45.46772310132447" lon="11.092324900863838"><ele>354.0</ele><time>2026-04-25T08:48:26.993Z</time></trkpt><trkpt lat="45.46765806562691" lon="11.092265136779767"><ele>352.8333333333333</ele><time>2026-04-25T08:48:28.993Z</time></trkpt><trkpt lat="45.46766736979647" lon="11.092108758964356"><ele>351.6666666666667</ele><time>2026-04-25T08:48:30.993Z</time></trkpt><trkpt lat="45.467703844912606" lon="11.092019893863796"><ele>350.5</ele><time>2026-04-25T08:48:31.993Z</time></trkpt><trkpt lat="45.467735723342244" lon="11.091936335867357"><ele>349.33333333333337</ele><time>2026-04-25T08:48:32.993Z</time></trkpt><trkpt lat="45.467776407614075" lon="11.09186361151096"><ele>348.1666666666667</ele><time>2026-04-25T08:48:33.993Z</time></trkpt><trkpt lat="45.46782419740572" lon="11.091790899323914"><ele>347.0</ele><time>2026-04-25T08:48:34.993Z</time></trkpt><trkpt lat="45.467886655899015" lon="11.091729310758929"><ele>347.20000000000005</ele><time>2026-04-25T08:48:35.993Z</time></trkpt><trkpt lat="45.467956066180875" lon="11.091682563813437"><ele>347.4</ele><time>2026-04-25T08:48:36.993Z</time></trkpt><trkpt lat="45.468039200937376" lon="11.091587524889666"><ele>347.6</ele><time>2026-04-25T08:48:37.993Z</time></trkpt><trkpt lat="45.46813195106286" lon="11.091530669715507"><ele>347.79999999999995</ele><time>2026-04-25T08:48:38.993Z</time></trkpt><trkpt lat="45.46822135719998" lon="11.091460132591443"><ele>348.0</ele><time>2026-04-25T08:48:39.993Z</time></trkpt><trkpt lat="45.468300796532795" lon="11.09137815118972"><ele>348.0</ele><time>2026-04-25T08:48:40.993Z</time></trkpt><trkpt lat="45.46837931837292" lon="11.091280274180189"><ele>348.0</ele><time>2026-04-25T08:48:41.993Z</time></trkpt><trkpt lat="45.468460133084" lon="11.091193703022425"><ele>348.0</ele><time>2026-04-25T08:48:42.993Z</time></trkpt><trkpt lat="45.4685451861194" lon="11.091104328541185"><ele>348.0</ele><time>2026-04-25T08:48:43.993Z</time></trkpt><trkpt lat="45.46862685106911" lon="11.091021102285211"><ele>348.0</ele><time>2026-04-25T08:48:44.993Z</time></trkpt><trkpt lat="45.4686989290512" lon="11.090915157211311"><ele>348.0</ele><time>2026-04-25T08:48:45.993Z</time></trkpt><trkpt lat="45.46877029425196" lon="11.090799107387298"><ele>348.0</ele><time>2026-04-25T08:48:46.993Z</time></trkpt><trkpt lat="45.46884616785681" lon="11.090690041515522"><ele>348.0</ele><time>2026-04-25T08:48:47.993Z</time></trkpt><trkpt lat="45.46891785912377" lon="11.090575213537965"><ele>348.0</ele><time>2026-04-25T08:48:48.993Z</time></trkpt><trkpt lat="45.46898984056699" lon="11.090480289336263"><ele>348.0</ele><time>2026-04-25T08:48:49.993Z</time></trkpt><trkpt lat="45.46906414948049" lon="11.090372064439908"><ele>347.79999999999995</ele><time>2026-04-25T08:48:50.993Z</time></trkpt><trkpt lat="45.469124277626776" lon="11.090270824309885"><ele>347.6</ele><time>2026-04-25T08:48:51.993Z</time></trkpt><trkpt lat="45.46918513041382" lon="11.09014439818838"><ele>347.4</ele><time>2026-04-25T08:48:52.993Z</time></trkpt><trkpt lat="45.46924388765572" lon="11.090027757954132"><ele>347.20000000000005</ele><time>2026-04-25T08:48:53.993Z</time></trkpt><trkpt lat="45.46931507530729" lon="11.08990991251833"><ele>347.0</ele><time>2026-04-25T08:48:54.993Z</time></trkpt><trkpt lat="45.46938978328874" lon="11.089814485530026"><ele>347.25</ele><time>2026-04-25T08:48:55.993Z</time></trkpt><trkpt lat="45.46947940288781" lon="11.089704255129185"><ele>347.5</ele><time>2026-04-25T08:48:56.993Z</time></trkpt><trkpt lat="45.46958334783685" lon="11.089589734955553"><ele>347.75</ele><time>2026-04-25T08:48:57.993Z</time></trkpt><trkpt lat="45.46966446427738" lon="11.08950111582601"><ele>348.0</ele><time>2026-04-25T08:48:58.993Z</time></trkpt><trkpt lat="45.46975651271316" lon="11.089414129457916"><ele>348.0</ele><time>2026-04-25T08:48:59.993Z</time></trkpt><trkpt lat="45.46983370436151" lon="11.089309889332979"><ele>348.0</ele><time>2026-04-25T08:49:00.993Z</time></trkpt><trkpt lat="45.469898703002244" lon="11.08920052648415"><ele>348.0</ele><time>2026-04-25T08:49:01.993Z</time></trkpt><trkpt lat="45.469976727379596" lon="11.089091618695917"><ele>348.0</ele><time>2026-04-25T08:49:02.993Z</time></trkpt><trkpt lat="45.470032092189264" lon="11.08900866967414"><ele>348.0</ele><time>2026-04-25T08:49:03.993Z</time></trkpt><trkpt lat="45.47005105605674" lon="11.088889978533318"><ele>346.5</ele><time>2026-04-25T08:49:04.993Z</time></trkpt><trkpt lat="45.47007193976123" lon="11.088786753511057"><ele>345.0</ele><time>2026-04-25T08:49:05.993Z</time></trkpt><trkpt lat="45.47008229212542" lon="11.088679780359373"><ele>343.5</ele><time>2026-04-25T08:49:06.993Z</time></trkpt><trkpt lat="45.47007719241886" lon="11.088544795035354"><ele>342.0</ele><time>2026-04-25T08:49:07.993Z</time></trkpt><trkpt lat="45.470105532276094" lon="11.088448766770552"><ele>340.5</ele><time>2026-04-25T08:49:08.993Z</time></trkpt><trkpt lat="45.47014991242816" lon="11.088340311291697"><ele>339.0</ele><time>2026-04-25T08:49:09.993Z</time></trkpt><trkpt lat="45.47022018439966" lon="11.088178440054387"><ele>337.5</ele><time>2026-04-25T08:49:10.993Z</time></trkpt><trkpt lat="45.470286594941555" lon="11.087995757384228"><ele>336.0</ele><time>2026-04-25T08:49:11.993Z</time></trkpt><trkpt lat="45.47034010085128" lon="11.087840636913885"><ele>334.5</ele><time>2026-04-25T08:49:12.993Z</time></trkpt><trkpt lat="45.47038955767408" lon="11.087691539876406"><ele>333.0</ele><time>2026-04-25T08:49:13.993Z</time></trkpt><trkpt lat="45.47045767618985" lon="11.087541031616892"><ele>335.25</ele><time>2026-04-25T08:49:14.993Z</time></trkpt><trkpt lat="45.47051419671553" lon="11.087446728679902"><ele>337.5</ele><time>2026-04-25T08:49:15.993Z</time></trkpt><trkpt lat="45.470620284239494" lon="11.087359562393056"><ele>339.75</ele><time>2026-04-25T08:49:17.993Z</time></trkpt><trkpt lat="45.47083158882327" lon="11.087403109494351"><ele>342.0</ele><time>2026-04-25T08:49:22.993Z</time></trkpt><trkpt lat="45.47093237250567" lon="11.08742108004808"><ele>342.8</ele><time>2026-04-25T08:49:23.993Z</time></trkpt><trkpt lat="45.471030077640364" lon="11.087453743910809"><ele>343.6</ele><time>2026-04-25T08:49:24.993Z</time></trkpt><trkpt lat="45.471143150359545" lon="11.087470727009311"><ele>344.40000000000003</ele><time>2026-04-25T08:49:25.993Z</time></trkpt><trkpt lat="45.47125165319338" lon="11.087498778101043"><ele>345.20000000000005</ele><time>2026-04-25T08:49:26.993Z</time></trkpt><trkpt lat="45.4713688412119" lon="11.087512867348783"><ele>346.0</ele><time>2026-04-25T08:49:27.992Z</time></trkpt><trkpt lat="45.47148673879239" lon="11.087537171809998"><ele>347.0</ele><time>2026-04-25T08:49:28.992Z</time></trkpt><trkpt lat="45.471606489088785" lon="11.08756772565966"><ele>348.0</ele><time>2026-04-25T08:49:29.992Z</time></trkpt><trkpt lat="45.47172581235977" lon="11.087596198470672"><ele>349.0</ele><time>2026-04-25T08:49:30.992Z</time></trkpt><trkpt lat="45.47183484071655" lon="11.087620905667736"><ele>350.0</ele><time>2026-04-25T08:49:31.992Z</time></trkpt><trkpt lat="45.471950555373525" lon="11.087648157919531"><ele>350.0</ele><time>2026-04-25T08:49:32.992Z</time></trkpt><trkpt lat="45.472053445944375" lon="11.087675080008756"><ele>350.0</ele><time>2026-04-25T08:49:33.992Z</time></trkpt><trkpt lat="45.47215334122342" lon="11.087704034460545"><ele>350.0</ele><time>2026-04-25T08:49:34.992Z</time></trkpt><trkpt lat="45.47225265463445" lon="11.087721455114457"><ele>350.0</ele><time>2026-04-25T08:49:35.992Z</time></trkpt><trkpt lat="45.472336872123336" lon="11.087753854238267"><ele>350.0</ele><time>2026-04-25T08:49:36.992Z</time></trkpt><trkpt lat="45.47243649543907" lon="11.08778910931132"><ele>350.1666666666667</ele><time>2026-04-25T08:49:37.992Z</time></trkpt><trkpt lat="45.47252287979901" lon="11.087821342637234"><ele>350.33333333333337</ele><time>2026-04-25T08:49:38.992Z</time></trkpt><trkpt lat="45.47261245344618" lon="11.087827402400707"><ele>350.5</ele><time>2026-04-25T08:49:39.992Z</time></trkpt><trkpt lat="45.472692182424076" lon="11.087844318798549"><ele>350.6666666666667</ele><time>2026-04-25T08:49:40.992Z</time></trkpt><trkpt lat="45.47276150934034" lon="11.087867092630317"><ele>350.8333333333333</ele><time>2026-04-25T08:49:41.992Z</time></trkpt><trkpt lat="45.472831584295776" lon="11.087885390005175"><ele>351.0</ele><time>2026-04-25T08:49:42.992Z</time></trkpt><trkpt lat="45.472896536792994" lon="11.08791095886745"><ele>351.1666666666667</ele><time>2026-04-25T08:49:43.992Z</time></trkpt><trkpt lat="45.472965458184994" lon="11.087936786402846"><ele>351.3333333333333</ele><time>2026-04-25T08:49:44.992Z</time></trkpt><trkpt lat="45.47303613599688" lon="11.08796142865539"><ele>351.5</ele><time>2026-04-25T08:49:45.992Z</time></trkpt><trkpt lat="45.473110163736756" lon="11.087986662361137"><ele>351.66666666666663</ele><time>2026-04-25T08:49:46.992Z</time></trkpt><trkpt lat="45.473185927230226" lon="11.088003475155942"><ele>351.8333333333333</ele><time>2026-04-25T08:49:47.992Z</time></trkpt><trkpt lat="45.47325980688468" lon="11.08803086639038"><ele>352.0</ele><time>2026-04-25T08:49:48.992Z</time></trkpt><trkpt lat="45.47334141874276" lon="11.088042864906129"><ele>352.0</ele><time>2026-04-25T08:49:49.992Z</time></trkpt><trkpt lat="45.47341776373832" lon="11.088068491825684"><ele>352.0</ele><time>2026-04-25T08:49:50.992Z</time></trkpt><trkpt lat="45.47350044533357" lon="11.088094463756942"><ele>352.0</ele><time>2026-04-25T08:49:51.992Z</time></trkpt><trkpt lat="45.47359235819871" lon="11.088115605401008"><ele>352.0</ele><time>2026-04-25T08:49:52.992Z</time></trkpt><trkpt lat="45.47368355787889" lon="11.08813784523368"><ele>352.0</ele><time>2026-04-25T08:49:53.992Z</time></trkpt><trkpt lat="45.47378150083404" lon="11.088180532940093"><ele>352.75</ele><time>2026-04-25T08:49:54.992Z</time></trkpt><trkpt lat="45.473883157291816" lon="11.0882294428245"><ele>353.5</ele><time>2026-04-25T08:49:55.992Z</time></trkpt><trkpt lat="45.47399288699907" lon="11.088273325748471"><ele>354.25</ele><time>2026-04-25T08:49:56.992Z</time></trkpt><trkpt lat="45.47410072195452" lon="11.088316320427477"><ele>355.0</ele><time>2026-04-25T08:49:57.992Z</time></trkpt><trkpt lat="45.47422201797813" lon="11.088348218839878"><ele>355.0</ele><time>2026-04-25T08:49:58.992Z</time></trkpt><trkpt lat="45.47433158896288" lon="11.088401300559665"><ele>355.0</ele><time>2026-04-25T08:49:59.992Z</time></trkpt><trkpt lat="45.47446129969924" lon="11.088444426021194"><ele>355.0</ele><time>2026-04-25T08:50:00.992Z</time></trkpt><trkpt lat="45.474591841213936" lon="11.088482845366798"><ele>355.0</ele><time>2026-04-25T08:50:01.992Z</time></trkpt><trkpt lat="45.4747255211322" lon="11.088526206301108"><ele>356.0</ele><time>2026-04-25T08:50:02.992Z</time></trkpt><trkpt lat="45.47486241471218" lon="11.088569617253741"><ele>357.0</ele><time>2026-04-25T08:50:03.992Z</time></trkpt><trkpt lat="45.47499894936567" lon="11.088608396211596"><ele>358.0</ele><time>2026-04-25T08:50:04.992Z</time></trkpt><trkpt lat="45.47513373845269" lon="11.088656963734921"><ele>359.0</ele><time>2026-04-25T08:50:05.992Z</time></trkpt><trkpt lat="45.475263327748074" lon="11.08871136106482"><ele>359.0</ele><time>2026-04-25T08:50:06.992Z</time></trkpt><trkpt lat="45.475391206555635" lon="11.088750663855942"><ele>359.0</ele><time>2026-04-25T08:50:07.992Z</time></trkpt><trkpt lat="45.47551562253099" lon="11.088797671144196"><ele>359.0</ele><time>2026-04-25T08:50:08.992Z</time></trkpt><trkpt lat="45.4756348190089" lon="11.088848288575448"><ele>359.0</ele><time>2026-04-25T08:50:09.992Z</time></trkpt><trkpt lat="45.47575731604516" lon="11.088888034723787"><ele>360.25</ele><time>2026-04-25T08:50:10.992Z</time></trkpt><trkpt lat="45.475877326423245" lon="11.088925960092533"><ele>361.5</ele><time>2026-04-25T08:50:11.992Z</time></trkpt><trkpt lat="45.47599836416326" lon="11.088948092587103"><ele>362.75</ele><time>2026-04-25T08:50:12.992Z</time></trkpt><trkpt lat="45.47612061568568" lon="11.088961667040817"><ele>364.0</ele><time>2026-04-25T08:50:13.992Z</time></trkpt><trkpt lat="45.476231913997665" lon="11.088962475679423"><ele>363.6</ele><time>2026-04-25T08:50:14.992Z</time></trkpt><trkpt lat="45.4763394868777" lon="11.088957656685604"><ele>363.2</ele><time>2026-04-25T08:50:15.992Z</time></trkpt><trkpt lat="45.47643841875572" lon="11.08894156355706"><ele>362.8</ele><time>2026-04-25T08:50:16.992Z</time></trkpt><trkpt lat="45.47653817026049" lon="11.088924503499513"><ele>362.40000000000003</ele><time>2026-04-25T08:50:17.992Z</time></trkpt><trkpt lat="45.476633106487725" lon="11.088907153521092"><ele>362.0</ele><time>2026-04-25T08:50:18.992Z</time></trkpt><trkpt lat="45.47671743902346" lon="11.08889105104044"><ele>362.0</ele><time>2026-04-25T08:50:19.992Z</time></trkpt><trkpt lat="45.47679299942762" lon="11.08886470019028"><ele>362.0</ele><time>2026-04-25T08:50:20.992Z</time></trkpt><trkpt lat="45.47686600106196" lon="11.088838736640966"><ele>362.0</ele><time>2026-04-25T08:50:21.992Z</time></trkpt><trkpt lat="45.47693280589494" lon="11.088824601005129"><ele>362.0</ele><time>2026-04-25T08:50:22.992Z</time></trkpt><trkpt lat="45.47699667258894" lon="11.088797589784477"><ele>362.0</ele><time>2026-04-25T08:50:23.992Z</time></trkpt><trkpt lat="45.47706810448645" lon="11.08876190493845"><ele>362.0</ele><time>2026-04-25T08:50:24.992Z</time></trkpt><trkpt lat="45.477130764810916" lon="11.088728569164088"><ele>362.0</ele><time>2026-04-25T08:50:25.992Z</time></trkpt><trkpt lat="45.47719376428843" lon="11.088679164731209"><ele>359.8</ele><time>2026-04-25T08:50:26.992Z</time></trkpt><trkpt lat="45.47731375374867" lon="11.088582048439392"><ele>357.6</ele><time>2026-04-25T08:50:28.992Z</time></trkpt><trkpt lat="45.477369795608084" lon="11.08851464697451"><ele>355.40000000000003</ele><time>2026-04-25T08:50:29.992Z</time></trkpt><trkpt lat="45.47744351055824" lon="11.088471035113932"><ele>353.20000000000005</ele><time>2026-04-25T08:50:31.992Z</time></trkpt><trkpt lat="45.47754138932334" lon="11.088440409567637"><ele>351.0</ele><time>2026-04-25T08:50:33.992Z</time></trkpt><trkpt lat="45.477620229632386" lon="11.088452248863653"><ele>351.0</ele><time>2026-04-25T08:50:34.992Z</time></trkpt><trkpt lat="45.47771542241351" lon="11.088485066414744"><ele>351.0</ele><time>2026-04-25T08:50:35.992Z</time></trkpt><trkpt lat="45.47782976111521" lon="11.08852378249817"><ele>351.0</ele><time>2026-04-25T08:50:36.992Z</time></trkpt><trkpt lat="45.47794936286583" lon="11.088578018034555"><ele>351.0</ele><time>2026-04-25T08:50:37.992Z</time></trkpt><trkpt lat="45.47809313707588" lon="11.088621285149198"><ele>349.0</ele><time>2026-04-25T08:50:38.992Z</time></trkpt><trkpt lat="45.47822147790765" lon="11.088675943056698"><ele>347.0</ele><time>2026-04-25T08:50:39.992Z</time></trkpt><trkpt lat="45.47837388223807" lon="11.088722319932076"><ele>345.0</ele><time>2026-04-25T08:50:40.992Z</time></trkpt><trkpt lat="45.47853278805387" lon="11.088765210881068"><ele>345.0</ele><time>2026-04-25T08:50:41.992Z</time></trkpt><trkpt lat="45.4786711331857" lon="11.088824668654915"><ele>345.0</ele><time>2026-04-25T08:50:42.992Z</time></trkpt><trkpt lat="45.478800904558774" lon="11.08888019429573"><ele>345.0</ele><time>2026-04-25T08:50:43.992Z</time></trkpt><trkpt lat="45.478922374826176" lon="11.08893245336434"><ele>345.0</ele><time>2026-04-25T08:50:44.992Z</time></trkpt><trkpt lat="45.47903943220083" lon="11.08897582971338"><ele>345.3333333333333</ele><time>2026-04-25T08:50:45.992Z</time></trkpt><trkpt lat="45.47914962128232" lon="11.089019414786213"><ele>345.6666666666667</ele><time>2026-04-25T08:50:46.992Z</time></trkpt><trkpt lat="45.47924055365678" lon="11.089047633635873"><ele>346.0</ele><time>2026-04-25T08:50:47.992Z</time></trkpt><trkpt lat="45.47930348484916" lon="11.089076098617198"><ele>346.33333333333337</ele><time>2026-04-25T08:50:48.992Z</time></trkpt><trkpt lat="45.479374655769156" lon="11.089151857725899"><ele>346.6666666666667</ele><time>2026-04-25T08:50:50.992Z</time></trkpt><trkpt lat="45.479420237028194" lon="11.089229008689383"><ele>347.0</ele><time>2026-04-25T08:50:53.992Z</time></trkpt><trkpt lat="45.47940015367412" lon="11.089109523624028"><ele>347.0</ele><time>2026-04-25T08:50:56.992Z</time></trkpt><trkpt lat="45.479341806095924" lon="11.089069670834387"><ele>347.0</ele><time>2026-04-25T08:50:57.992Z</time></trkpt><trkpt lat="45.47926646914223" lon="11.089041618665313"><ele>347.0</ele><time>2026-04-25T08:50:58.992Z</time></trkpt><trkpt lat="45.4791559296466" lon="11.089006297858118"><ele>347.0</ele><time>2026-04-25T08:50:59.992Z</time></trkpt><trkpt lat="45.47902289363649" lon="11.088959108796828"><ele>347.0</ele><time>2026-04-25T08:51:00.992Z</time></trkpt><trkpt lat="45.4788892623739" lon="11.088903818082493"><ele>346.5</ele><time>2026-04-25T08:51:01.992Z</time></trkpt><trkpt lat="45.47875378181971" lon="11.088842973917247"><ele>346.0</ele><time>2026-04-25T08:51:02.992Z</time></trkpt><trkpt lat="45.47861269849241" lon="11.088789777039421"><ele>345.5</ele><time>2026-04-25T08:51:03.992Z</time></trkpt><trkpt lat="45.47846898268274" lon="11.088731675351186"><ele>345.0</ele><time>2026-04-25T08:51:04.992Z</time></trkpt><trkpt lat="45.47833075874411" lon="11.088677371467302"><ele>345.0</ele><time>2026-04-25T08:51:05.992Z</time></trkpt><trkpt lat="45.47818749645881" lon="11.088627908705666"><ele>345.0</ele><time>2026-04-25T08:51:06.992Z</time></trkpt><trkpt lat="45.47805756419066" lon="11.088576757005404"><ele>345.0</ele><time>2026-04-25T08:51:07.992Z</time></trkpt><trkpt lat="45.47792292134306" lon="11.088523146793412"><ele>345.0</ele><time>2026-04-25T08:51:08.992Z</time></trkpt><trkpt lat="45.47780273175183" lon="11.08847504077191"><ele>346.5</ele><time>2026-04-25T08:51:09.992Z</time></trkpt><trkpt lat="45.47768874651978" lon="11.088424742833249"><ele>348.0</ele><time>2026-04-25T08:51:10.992Z</time></trkpt><trkpt lat="45.477580444903715" lon="11.08840919027374"><ele>349.5</ele><time>2026-04-25T08:51:11.992Z</time></trkpt><trkpt lat="45.47747907927055" lon="11.088425521665407"><ele>351.0</ele><time>2026-04-25T08:51:12.992Z</time></trkpt><trkpt lat="45.47736441995829" lon="11.08847443175658"><ele>351.0</ele><time>2026-04-25T08:51:13.992Z</time></trkpt><trkpt lat="45.47726309766088" lon="11.088569927506656"><ele>351.0</ele><time>2026-04-25T08:51:14.992Z</time></trkpt><trkpt lat="45.47716556670136" lon="11.088665281905275"><ele>351.0</ele><time>2026-04-25T08:51:15.992Z</time></trkpt><trkpt lat="45.477050716486964" lon="11.088754929521137"><ele>351.0</ele><time>2026-04-25T08:51:16.992Z</time></trkpt><trkpt lat="45.47693574369267" lon="11.088824167223144"><ele>353.75</ele><time>2026-04-25T08:51:17.992Z</time></trkpt><trkpt lat="45.47681306503714" lon="11.0888544714641"><ele>356.5</ele><time>2026-04-25T08:51:18.992Z</time></trkpt><trkpt lat="45.47669123877817" lon="11.088873920499237"><ele>359.25</ele><time>2026-04-25T08:51:19.992Z</time></trkpt><trkpt lat="45.47657365023199" lon="11.088898006348385"><ele>362.0</ele><time>2026-04-25T08:51:20.992Z</time></trkpt><trkpt lat="45.476453023270274" lon="11.088920008134219"><ele>362.0</ele><time>2026-04-25T08:51:21.991Z</time></trkpt><trkpt lat="45.47633488358418" lon="11.088934057880374"><ele>362.0</ele><time>2026-04-25T08:51:22.991Z</time></trkpt><trkpt lat="45.47621422301936" lon="11.088942825161054"><ele>362.0</ele><time>2026-04-25T08:51:23.991Z</time></trkpt><trkpt lat="45.4760971502245" lon="11.088942748607307"><ele>362.0</ele><time>2026-04-25T08:51:24.991Z</time></trkpt><trkpt lat="45.47598312021982" lon="11.08892504174323"><ele>362.5</ele><time>2026-04-25T08:51:25.991Z</time></trkpt><trkpt lat="45.47586751208432" lon="11.088896073325843"><ele>363.0</ele><time>2026-04-25T08:51:26.991Z</time></trkpt><trkpt lat="45.47574188805603" lon="11.088850102398565"><ele>363.5</ele><time>2026-04-25T08:51:27.991Z</time></trkpt><trkpt lat="45.475617538018575" lon="11.088812301553286"><ele>364.0</ele><time>2026-04-25T08:51:28.991Z</time></trkpt><trkpt lat="45.47550205677211" lon="11.088763554319991"><ele>362.75</ele><time>2026-04-25T08:51:29.991Z</time></trkpt><trkpt lat="45.47537083328916" lon="11.088715742598948"><ele>361.5</ele><time>2026-04-25T08:51:30.991Z</time></trkpt><trkpt lat="45.47524096082654" lon="11.08865951055045"><ele>360.25</ele><time>2026-04-25T08:51:31.991Z</time></trkpt><trkpt lat="45.47510294708783" lon="11.088607965132363"><ele>359.0</ele><time>2026-04-25T08:51:32.991Z</time></trkpt><trkpt lat="45.47496421774946" lon="11.088558497761392"><ele>359.0</ele><time>2026-04-25T08:51:33.991Z</time></trkpt><trkpt lat="45.474825586021296" lon="11.088517755379616"><ele>359.0</ele><time>2026-04-25T08:51:34.991Z</time></trkpt><trkpt lat="45.47468920731376" lon="11.088477829229058"><ele>359.0</ele><time>2026-04-25T08:51:35.991Z</time></trkpt><trkpt lat="45.47455239384526" lon="11.088437061469136"><ele>359.0</ele><time>2026-04-25T08:51:36.991Z</time></trkpt><trkpt lat="45.474422557014584" lon="11.088383312499452"><ele>358.5</ele><time>2026-04-25T08:51:37.991Z</time></trkpt><trkpt lat="45.474284171396626" lon="11.088344384178269"><ele>358.0</ele><time>2026-04-25T08:51:38.991Z</time></trkpt><trkpt lat="45.4741448984027" lon="11.088294031915135"><ele>357.5</ele><time>2026-04-25T08:51:39.991Z</time></trkpt><trkpt lat="45.47400789355341" lon="11.088250524665147"><ele>357.0</ele><time>2026-04-25T08:51:40.991Z</time></trkpt><trkpt lat="45.47387639285016" lon="11.08819213777928"><ele>355.75</ele><time>2026-04-25T08:51:41.991Z</time></trkpt><trkpt lat="45.47373590128676" lon="11.088143839036306"><ele>354.5</ele><time>2026-04-25T08:51:42.991Z</time></trkpt><trkpt lat="45.47358970253426" lon="11.088101326703013"><ele>353.25</ele><time>2026-04-25T08:51:43.991Z</time></trkpt><trkpt lat="45.47344836231979" lon="11.088053199479464"><ele>352.0</ele><time>2026-04-25T08:51:44.991Z</time></trkpt><trkpt lat="45.473303494431875" lon="11.088026148027682"><ele>352.0</ele><time>2026-04-25T08:51:45.991Z</time></trkpt><trkpt lat="45.473160470042146" lon="11.087986458757257"><ele>352.0</ele><time>2026-04-25T08:51:46.991Z</time></trkpt><trkpt lat="45.473020395977436" lon="11.087930645392987"><ele>352.0</ele><time>2026-04-25T08:51:47.991Z</time></trkpt><trkpt lat="45.47288524044201" lon="11.087894509511212"><ele>352.0</ele><time>2026-04-25T08:51:48.991Z</time></trkpt><trkpt lat="45.47274425942864" lon="11.087838540677941"><ele>351.75</ele><time>2026-04-25T08:51:49.991Z</time></trkpt><trkpt lat="45.47260998166221" lon="11.087791564192818"><ele>351.5</ele><time>2026-04-25T08:51:50.991Z</time></trkpt><trkpt lat="45.47247649871807" lon="11.087753983378535"><ele>351.25</ele><time>2026-04-25T08:51:51.991Z</time></trkpt><trkpt lat="45.47234539420823" lon="11.08771313405674"><ele>351.0</ele><time>2026-04-25T08:51:52.991Z</time></trkpt><trkpt lat="45.47221636448032" lon="11.087667801083361"><ele>350.75</ele><time>2026-04-25T08:51:53.991Z</time></trkpt><trkpt lat="45.47209856273558" lon="11.087631510821696"><ele>350.5</ele><time>2026-04-25T08:51:54.991Z</time></trkpt><trkpt lat="45.47197746090833" lon="11.087606944325476"><ele>350.25</ele><time>2026-04-25T08:51:55.991Z</time></trkpt><trkpt lat="45.47185490951887" lon="11.087575345172203"><ele>350.0</ele><time>2026-04-25T08:51:56.991Z</time></trkpt><trkpt lat="45.47174559196952" lon="11.087536575712798"><ele>350.0</ele><time>2026-04-25T08:51:57.991Z</time></trkpt><trkpt lat="45.471631388645356" lon="11.087512087621498"><ele>350.0</ele><time>2026-04-25T08:51:58.991Z</time></trkpt><trkpt lat="45.47150987056405" lon="11.087480909399094"><ele>350.0</ele><time>2026-04-25T08:51:59.991Z</time></trkpt><trkpt lat="45.47140104276211" lon="11.08744714141454"><ele>350.0</ele><time>2026-04-25T08:52:00.991Z</time></trkpt><trkpt lat="45.47127812603059" lon="11.087409875505662"><ele>348.4</ele><time>2026-04-25T08:52:01.991Z</time></trkpt><trkpt lat="45.47116191352149" lon="11.087393577426003"><ele>346.8</ele><time>2026-04-25T08:52:02.991Z</time></trkpt><trkpt lat="45.47104360043173" lon="11.08736761456022"><ele>345.20000000000005</ele><time>2026-04-25T08:52:03.991Z</time></trkpt><trkpt lat="45.47094174007718" lon="11.087334994912009"><ele>343.6</ele><time>2026-04-25T08:52:04.991Z</time></trkpt><trkpt lat="45.470860984202176" lon="11.087304553382202"><ele>342.0</ele><time>2026-04-25T08:52:05.991Z</time></trkpt><trkpt lat="45.47077955649408" lon="11.087292085245243"><ele>342.0</ele><time>2026-04-25T08:52:06.991Z</time></trkpt><trkpt lat="45.47068897632119" lon="11.087254414253648"><ele>342.0</ele><time>2026-04-25T08:52:08.991Z</time></trkpt><trkpt lat="45.47058248358727" lon="11.087323529165287"><ele>342.0</ele><time>2026-04-25T08:52:11.991Z</time></trkpt><trkpt lat="45.4705044384649" lon="11.087395094308208"><ele>342.0</ele><time>2026-04-25T08:52:12.991Z</time></trkpt><trkpt lat="45.470432109164314" lon="11.087474410795812"><ele>342.0</ele><time>2026-04-25T08:52:13.991Z</time></trkpt><trkpt lat="45.470374447621616" lon="11.087585774225113"><ele>339.75</ele><time>2026-04-25T08:52:14.991Z</time></trkpt><trkpt lat="45.47030583447923" lon="11.087740014228912"><ele>337.5</ele><time>2026-04-25T08:52:15.991Z</time></trkpt><trkpt lat="45.47024843423424" lon="11.087887341633902"><ele>335.25</ele><time>2026-04-25T08:52:16.991Z</time></trkpt><trkpt lat="45.470197997417266" lon="11.0880238240943"><ele>333.0</ele><time>2026-04-25T08:52:17.991Z</time></trkpt><trkpt lat="45.470149799577996" lon="11.088175151592067"><ele>334.2</ele><time>2026-04-25T08:52:18.991Z</time></trkpt><trkpt lat="45.470094488794395" lon="11.088300843292943"><ele>335.4</ele><time>2026-04-25T08:52:19.991Z</time></trkpt><trkpt lat="45.47005255854138" lon="11.088428775945681"><ele>336.59999999999997</ele><time>2026-04-25T08:52:20.991Z</time></trkpt><trkpt lat="45.470038930303325" lon="11.088571310645653"><ele>337.79999999999995</ele><time>2026-04-25T08:52:21.991Z</time></trkpt><trkpt lat="45.47004617936359" lon="11.088697521265683"><ele>339.0</ele><time>2026-04-25T08:52:22.991Z</time></trkpt><trkpt lat="45.47000818560521" lon="11.088822505513711"><ele>339.0</ele><time>2026-04-25T08:52:24.991Z</time></trkpt><trkpt lat="45.46995427642626" lon="11.088882537514738"><ele>339.0</ele><time>2026-04-25T08:52:25.991Z</time></trkpt><trkpt lat="45.4698727635952" lon="11.089006047441451"><ele>339.0</ele><time>2026-04-25T08:52:26.991Z</time></trkpt><trkpt lat="45.469808803983476" lon="11.089109303191092"><ele>339.0</ele><time>2026-04-25T08:52:27.991Z</time></trkpt><trkpt lat="45.46972886948361" lon="11.089203589546187"><ele>339.0</ele><time>2026-04-25T08:52:28.991Z</time></trkpt><trkpt lat="45.46964997652509" lon="11.089296833323596"><ele>337.5</ele><time>2026-04-25T08:52:29.991Z</time></trkpt><trkpt lat="45.46954262903099" lon="11.089396105288087"><ele>336.0</ele><time>2026-04-25T08:52:30.991Z</time></trkpt><trkpt lat="45.46944841318787" lon="11.089495223049243"><ele>334.5</ele><time>2026-04-25T08:52:31.991Z</time></trkpt><trkpt lat="45.46935319333216" lon="11.089612952934848"><ele>333.0</ele><time>2026-04-25T08:52:32.991Z</time></trkpt><trkpt lat="45.46926952304188" lon="11.089734737261004"><ele>333.0</ele><time>2026-04-25T08:52:33.991Z</time></trkpt><trkpt lat="45.469193170587104" lon="11.089865803422827"><ele>333.0</ele><time>2026-04-25T08:52:34.991Z</time></trkpt><trkpt lat="45.469131207653916" lon="11.090014662867137"><ele>333.0</ele><time>2026-04-25T08:52:35.991Z</time></trkpt><trkpt lat="45.46906591786101" lon="11.09016454054214"><ele>333.0</ele><time>2026-04-25T08:52:36.991Z</time></trkpt><trkpt lat="45.46899828977665" lon="11.090279555784416"><ele>333.25</ele><time>2026-04-25T08:52:37.991Z</time></trkpt><trkpt lat="45.4689097889176" lon="11.090404528045596"><ele>333.5</ele><time>2026-04-25T08:52:38.991Z</time></trkpt><trkpt lat="45.468822253572064" lon="11.090525494900628"><ele>333.75</ele><time>2026-04-25T08:52:39.991Z</time></trkpt><trkpt lat="45.46873435569647" lon="11.090653420737018"><ele>334.0</ele><time>2026-04-25T08:52:40.991Z</time></trkpt><trkpt lat="45.468654163059966" lon="11.09078615619148"><ele>337.5</ele><time>2026-04-25T08:52:41.991Z</time></trkpt><trkpt lat="45.46856552371414" lon="11.090924832887564"><ele>341.0</ele><time>2026-04-25T08:52:42.991Z</time></trkpt><trkpt lat="45.46846963266925" lon="11.091041782394054"><ele>344.5</ele><time>2026-04-25T08:52:43.991Z</time></trkpt><trkpt lat="45.46837107681151" lon="11.091158498873467"><ele>348.0</ele><time>2026-04-25T08:52:44.991Z</time></trkpt><trkpt lat="45.468264806096386" lon="11.091254991507121"><ele>348.0</ele><time>2026-04-25T08:52:45.991Z</time></trkpt><trkpt lat="45.46815489373809" lon="11.091365641553162"><ele>348.0</ele><time>2026-04-25T08:52:46.991Z</time></trkpt><trkpt lat="45.46804768518715" lon="11.091477882417735"><ele>348.0</ele><time>2026-04-25T08:52:47.991Z</time></trkpt><trkpt lat="45.46794110942461" lon="11.09158659123078"><ele>348.0</ele><time>2026-04-25T08:52:48.991Z</time></trkpt><trkpt lat="45.46784853384572" lon="11.091680824417052"><ele>347.79999999999995</ele><time>2026-04-25T08:52:49.991Z</time></trkpt><trkpt lat="45.46778148350955" lon="11.091775585446623"><ele>347.6</ele><time>2026-04-25T08:52:50.991Z</time></trkpt><trkpt lat="45.46773124801657" lon="11.091920350714187"><ele>347.4</ele><time>2026-04-25T08:52:51.991Z</time></trkpt><trkpt lat="45.46768146375895" lon="11.09204260766548"><ele>347.20000000000005</ele><time>2026-04-25T08:52:52.991Z</time></trkpt><trkpt lat="45.4676530193415" lon="11.092172840668317"><ele>347.0</ele><time>2026-04-25T08:52:53.991Z</time></trkpt><trkpt lat="45.46763388407948" lon="11.09226748580022"><ele>347.0</ele><time>2026-04-25T08:52:54.991Z</time></trkpt><trkpt lat="45.46771020959861" lon="11.092327654496044"><ele>347.0</ele><time>2026-04-25T08:52:56.991Z</time></trkpt><trkpt lat="45.46781215246195" lon="11.092332826532726"><ele>347.0</ele><time>2026-04-25T08:52:57.991Z</time></trkpt><trkpt lat="45.46790459670526" lon="11.09230824943052"><ele>347.0</ele><time>2026-04-25T08:52:58.991Z</time></trkpt><trkpt lat="45.468012762633585" lon="11.092284325725624"><ele>347.0</ele><time>2026-04-25T08:52:59.991Z</time></trkpt><trkpt lat="45.46814583760887" lon="11.092281973112504"><ele>348.20000000000005</ele><time>2026-04-25T08:53:00.991Z</time></trkpt><trkpt lat="45.46825266291114" lon="11.092284223979913"><ele>349.4</ele><time>2026-04-25T08:53:01.991Z</time></trkpt><trkpt lat="45.468326130054045" lon="11.092298788399816"><ele>350.6</ele><time>2026-04-25T08:53:02.991Z</time></trkpt><trkpt lat="45.468409412672" lon="11.092333405773747"><ele>351.79999999999995</ele><time>2026-04-25T08:53:03.99Z</time></trkpt><trkpt lat="45.46850027004638" lon="11.092368793314415"><ele>353.0</ele><time>2026-04-25T08:53:04.99Z</time></trkpt><trkpt lat="45.4685821360108" lon="11.092434786323217"><ele>353.0</ele><time>2026-04-25T08:53:05.99Z</time></trkpt><trkpt lat="45.46864329285722" lon="11.092514411037948"><ele>353.0</ele><time>2026-04-25T08:53:06.99Z</time></trkpt><trkpt lat="45.468695391767405" lon="11.092655777293247"><ele>353.0</ele><time>2026-04-25T08:53:07.99Z</time></trkpt><trkpt lat="45.468751304463964" lon="11.092836760161717"><ele>353.0</ele><time>2026-04-25T08:53:08.99Z</time></trkpt><trkpt lat="45.46881059163231" lon="11.093036082794196"><ele>353.5</ele><time>2026-04-25T08:53:09.99Z</time></trkpt><trkpt lat="45.468883274990276" lon="11.093221853585433"><ele>354.0</ele><time>2026-04-25T08:53:10.99Z</time></trkpt><trkpt lat="45.46895612735131" lon="11.093386983351527"><ele>354.5</ele><time>2026-04-25T08:53:11.99Z</time></trkpt><trkpt lat="45.46901218487365" lon="11.093558419154935"><ele>355.0</ele><time>2026-04-25T08:53:12.99Z</time></trkpt><trkpt lat="45.469077698793264" lon="11.093721587191691"><ele>354.0</ele><time>2026-04-25T08:53:13.99Z</time></trkpt><trkpt lat="45.46913697188639" lon="11.09388668230785"><ele>353.0</ele><time>2026-04-25T08:53:14.99Z</time></trkpt><trkpt lat="45.469194918669885" lon="11.094049870023575"><ele>352.0</ele><time>2026-04-25T08:53:15.99Z</time></trkpt><trkpt lat="45.469242567598094" lon="11.094183780888923"><ele>351.0</ele><time>2026-04-25T08:53:16.99Z</time></trkpt><trkpt lat="45.46929570491433" lon="11.094315467170055"><ele>349.6666666666667</ele><time>2026-04-25T08:53:17.99Z</time></trkpt><trkpt lat="45.46933316701346" lon="11.094411649939634"><ele>348.3333333333333</ele><time>2026-04-25T08:53:18.99Z</time></trkpt><trkpt lat="45.46936772075544" lon="11.094488314977418"><ele>347.0</ele><time>2026-04-25T08:53:19.99Z</time></trkpt><trkpt lat="45.4694527826284" lon="11.094565877383557"><ele>345.66666666666663</ele><time>2026-04-25T08:53:21.99Z</time></trkpt><trkpt lat="45.46952392362117" lon="11.094560836873617"><ele>344.3333333333333</ele><time>2026-04-25T08:53:22.99Z</time></trkpt><trkpt lat="45.46961902219246" lon="11.094550904989704"><ele>343.0</ele><time>2026-04-25T08:53:24.99Z</time></trkpt><trkpt lat="45.46961376825064" lon="11.09464822715868"><ele>343.0</ele><time>2026-04-25T08:53:26.99Z</time></trkpt><trkpt lat="45.46956883342027" lon="11.094729668493573"><ele>343.0</ele><time>2026-04-25T08:53:28.99Z</time></trkpt><trkpt lat="45.469460489357616" lon="11.09483148780654"><ele>343.0</ele><time>2026-04-25T08:53:30.99Z</time></trkpt><trkpt lat="45.46939356072813" lon="11.094880444131244"><ele>343.0</ele><time>2026-04-25T08:53:31.99Z</time></trkpt><trkpt lat="45.46931408264214" lon="11.094903268435504"><ele>343.0</ele><time>2026-04-25T08:53:32.99Z</time></trkpt><trkpt lat="45.469223930957284" lon="11.094932911392528"><ele>340.8333333333333</ele><time>2026-04-25T08:53:33.99Z</time></trkpt><trkpt lat="45.46914073087039" lon="11.094969194095752"><ele>338.66666666666663</ele><time>2026-04-25T08:53:34.99Z</time></trkpt><trkpt lat="45.46906217502444" lon="11.09501664319902"><ele>336.5</ele><time>2026-04-25T08:53:35.99Z</time></trkpt><trkpt lat="45.468990553772024" lon="11.095072125898845"><ele>334.3333333333333</ele><time>2026-04-25T08:53:36.99Z</time></trkpt><trkpt lat="45.46892268389151" lon="11.095134219585253"><ele>332.1666666666667</ele><time>2026-04-25T08:53:37.99Z</time></trkpt><trkpt lat="45.46885253455448" lon="11.095217957975052"><ele>330.0</ele><time>2026-04-25T08:53:38.99Z</time></trkpt><trkpt lat="45.46878308037903" lon="11.095313473605797"><ele>330.2</ele><time>2026-04-25T08:53:39.99Z</time></trkpt><trkpt lat="45.46870128250965" lon="11.095413184627105"><ele>330.4</ele><time>2026-04-25T08:53:40.99Z</time></trkpt><trkpt lat="45.46862134675292" lon="11.095520824102461"><ele>330.6</ele><time>2026-04-25T08:53:41.99Z</time></trkpt><trkpt lat="45.46853518203406" lon="11.095628076044237"><ele>330.8</ele><time>2026-04-25T08:53:42.99Z</time></trkpt><trkpt lat="45.46845134666664" lon="11.095684544739925"><ele>331.0</ele><time>2026-04-25T08:53:43.99Z</time></trkpt><trkpt lat="45.468392588231396" lon="11.095719836077086"><ele>331.0</ele><time>2026-04-25T08:53:44.99Z</time></trkpt><trkpt lat="45.468312256834416" lon="11.095722521243136"><ele>331.0</ele><time>2026-04-25T08:53:47.99Z</time></trkpt><trkpt lat="45.46832291623278" lon="11.09582186671927"><ele>331.0</ele><time>2026-04-25T08:53:49.99Z</time></trkpt><trkpt lat="45.46843897700273" lon="11.095834934655356"><ele>331.0</ele><time>2026-04-25T08:53:51.99Z</time></trkpt><trkpt lat="45.46852698317566" lon="11.09581367338357"><ele>331.0</ele><time>2026-04-25T08:53:52.99Z</time></trkpt><trkpt lat="45.468634046987525" lon="11.095828285472457"><ele>326.25</ele><time>2026-04-25T08:53:53.99Z</time></trkpt><trkpt lat="45.46876960733915" lon="11.095841611514452"><ele>321.5</ele><time>2026-04-25T08:53:54.99Z</time></trkpt><trkpt lat="45.46891912635984" lon="11.095828524127715"><ele>316.75</ele><time>2026-04-25T08:53:55.99Z</time></trkpt><trkpt lat="45.46907112636057" lon="11.095814955233298"><ele>312.0</ele><time>2026-04-25T08:53:56.99Z</time></trkpt><trkpt lat="45.46920349537095" lon="11.095779690592435"><ele>311.6</ele><time>2026-04-25T08:53:57.99Z</time></trkpt><trkpt lat="45.46931575225265" lon="11.095744318243721"><ele>311.2</ele><time>2026-04-25T08:53:58.99Z</time></trkpt><trkpt lat="45.4693977856821" lon="11.095711903478971"><ele>310.8</ele><time>2026-04-25T08:53:59.99Z</time></trkpt><trkpt lat="45.46948222786297" lon="11.09568636412163"><ele>310.4</ele><time>2026-04-25T08:54:01.99Z</time></trkpt><trkpt lat="45.46942100043542" lon="11.095889052316465"><ele>310.0</ele><time>2026-04-25T08:54:06.99Z</time></trkpt><trkpt lat="45.46931477812038" lon="11.095970892552904"><ele>310.0</ele><time>2026-04-25T08:54:07.99Z</time></trkpt><trkpt lat="45.46920246488152" lon="11.096069139012068"><ele>310.0</ele><time>2026-04-25T08:54:08.99Z</time></trkpt><trkpt lat="45.46907506300762" lon="11.096158202309025"><ele>310.0</ele><time>2026-04-25T08:54:09.99Z</time></trkpt><trkpt lat="45.4689464068527" lon="11.096252237348173"><ele>310.0</ele><time>2026-04-25T08:54:10.99Z</time></trkpt><trkpt lat="45.4688286828174" lon="11.096351712037425"><ele>310.66666666666663</ele><time>2026-04-25T08:54:11.99Z</time></trkpt><trkpt lat="45.4687026937009" lon="11.096445271760107"><ele>311.3333333333333</ele><time>2026-04-25T08:54:12.99Z</time></trkpt><trkpt lat="45.468557303251096" lon="11.096534022054454"><ele>312.0</ele><time>2026-04-25T08:54:13.99Z</time></trkpt><trkpt lat="45.46841283803659" lon="11.09662155628776"><ele>306.5</ele><time>2026-04-25T08:54:14.99Z</time></trkpt><trkpt lat="45.4682657136545" lon="11.09671362000669"><ele>301.0</ele><time>2026-04-25T08:54:15.99Z</time></trkpt><trkpt lat="45.468133424727455" lon="11.096786127445055"><ele>295.5</ele><time>2026-04-25T08:54:16.99Z</time></trkpt><trkpt lat="45.4680122890828" lon="11.09686258769113"><ele>290.0</ele><time>2026-04-25T08:54:17.99Z</time></trkpt><trkpt lat="45.46789691082303" lon="11.096925171367108"><ele>290.0</ele><time>2026-04-25T08:54:18.99Z</time></trkpt><trkpt lat="45.467799488156054" lon="11.096973698707751"><ele>290.0</ele><time>2026-04-25T08:54:19.99Z</time></trkpt><trkpt lat="45.467711816488425" lon="11.09708501247357"><ele>290.0</ele><time>2026-04-25T08:54:21.99Z</time></trkpt><trkpt lat="45.467676917364344" lon="11.097225983223066"><ele>290.0</ele><time>2026-04-25T08:54:22.99Z</time></trkpt><trkpt lat="45.46766735494297" lon="11.09736513822134"><ele>290.0</ele><time>2026-04-25T08:54:23.99Z</time></trkpt><trkpt lat="45.467670139353075" lon="11.097462011534759"><ele>287.0</ele><time>2026-04-25T08:54:24.99Z</time></trkpt><trkpt lat="45.46761273810912" lon="11.097564220087987"><ele>284.0</ele><time>2026-04-25T08:54:27.998Z</time></trkpt><trkpt lat="45.467511192983736" lon="11.097595908786445"><ele>281.0</ele><time>2026-04-25T08:54:28.998Z</time></trkpt><trkpt lat="45.467399403677426" lon="11.09762658443484"><ele>278.0</ele><time>2026-04-25T08:54:29.998Z</time></trkpt><trkpt lat="45.46727930231431" lon="11.097624363366013"><ele>275.0</ele><time>2026-04-25T08:54:30.998Z</time></trkpt><trkpt lat="45.46714794956773" lon="11.097630022150696"><ele>274.6666666666667</ele><time>2026-04-25T08:54:31.998Z</time></trkpt><trkpt lat="45.466997411901026" lon="11.097616964688669"><ele>274.3333333333333</ele><time>2026-04-25T08:54:32.998Z</time></trkpt><trkpt lat="45.466831172860985" lon="11.09761157678675"><ele>274.0</ele><time>2026-04-25T08:54:33.998Z</time></trkpt><trkpt lat="45.46668657593755" lon="11.097613671631953"><ele>274.0</ele><time>2026-04-25T08:54:34.998Z</time></trkpt><trkpt lat="45.466561225914056" lon="11.097632295269504"><ele>274.0</ele><time>2026-04-25T08:54:35.998Z</time></trkpt><trkpt lat="45.466449803378595" lon="11.097628424122417"><ele>274.0</ele><time>2026-04-25T08:54:36.998Z</time></trkpt><trkpt lat="45.466367823374625" lon="11.09764510871589"><ele>274.0</ele><time>2026-04-25T08:54:37.998Z</time></trkpt><trkpt lat="45.46628519584797" lon="11.097666325561176"><ele>274.0</ele><time>2026-04-25T08:54:39.998Z</time></trkpt><trkpt lat="45.466221518010286" lon="11.097674703779537"><ele>273.0</ele><time>2026-04-25T08:54:41.998Z</time></trkpt><trkpt lat="45.46615911221113" lon="11.097629792326243"><ele>272.0</ele><time>2026-04-25T08:54:43.998Z</time></trkpt><trkpt lat="45.4660927870741" lon="11.097588588107012"><ele>271.0</ele><time>2026-04-25T08:54:45.998Z</time></trkpt><trkpt lat="45.46601289751018" lon="11.09761185502701"><ele>270.0</ele><time>2026-04-25T08:54:47.998Z</time></trkpt><trkpt lat="45.46590858316456" lon="11.097688723011894"><ele>269.0</ele><time>2026-04-25T08:54:49.998Z</time></trkpt><trkpt lat="45.46584854520592" lon="11.097740347895725"><ele>268.0</ele><time>2026-04-25T08:54:50.998Z</time></trkpt><trkpt lat="45.465789832919874" lon="11.097844298215238"><ele>268.0</ele><time>2026-04-25T08:54:52.998Z</time></trkpt><trkpt lat="45.46582694912181" lon="11.09796785992784"><ele>268.0</ele><time>2026-04-25T08:54:54.998Z</time></trkpt><trkpt lat="45.46587278735461" lon="11.098032897703535"><ele>268.0</ele><time>2026-04-25T08:54:55.998Z</time></trkpt><trkpt lat="45.465896134577996" lon="11.098145174056164"><ele>268.0</ele><time>2026-04-25T08:54:57.998Z</time></trkpt><trkpt lat="45.465895966399756" lon="11.098263501820751"><ele>268.0</ele><time>2026-04-25T08:54:59.998Z</time></trkpt><trkpt lat="45.46591013088667" lon="11.098354194623978"><ele>268.0</ele><time>2026-04-25T08:55:02.997Z</time></trkpt><trkpt lat="45.465825895060775" lon="11.098407002443977"><ele>265.16666666666663</ele><time>2026-04-25T08:55:04.997Z</time></trkpt><trkpt lat="45.46575527212342" lon="11.098436606764936"><ele>262.3333333333333</ele><time>2026-04-25T08:55:05.997Z</time></trkpt><trkpt lat="45.46568001790306" lon="11.09847005893409"><ele>259.5</ele><time>2026-04-25T08:55:06.997Z</time></trkpt><trkpt lat="45.46559147164171" lon="11.098515215851943"><ele>256.6666666666667</ele><time>2026-04-25T08:55:07.997Z</time></trkpt><trkpt lat="45.465541388193635" lon="11.098604966936461"><ele>253.83333333333334</ele><time>2026-04-25T08:55:08.997Z</time></trkpt><trkpt lat="45.465516547412385" lon="11.098725180267422"><ele>251.0</ele><time>2026-04-25T08:55:09.997Z</time></trkpt><trkpt lat="45.46551817902485" lon="11.098857996682025"><ele>251.0</ele><time>2026-04-25T08:55:10.997Z</time></trkpt><trkpt lat="45.46552731293813" lon="11.09902695022244"><ele>251.00000000000003</ele><time>2026-04-25T08:55:11.997Z</time></trkpt><trkpt lat="45.465518909658215" lon="11.09916477559139"><ele>251.00000000000003</ele><time>2026-04-25T08:55:12.997Z</time></trkpt><trkpt lat="45.46549515769181" lon="11.099316586998542"><ele>251.0</ele><time>2026-04-25T08:55:13.997Z</time></trkpt><trkpt lat="45.46546189601162" lon="11.09945198199142"><ele>251.0</ele><time>2026-04-25T08:55:14.999Z</time></trkpt><trkpt lat="45.46542560273313" lon="11.099553146283727"><ele>248.71428571428567</ele><time>2026-04-25T08:55:15.998Z</time></trkpt><trkpt lat="45.46539670017084" lon="11.099634001895183"><ele>246.42857142857142</ele><time>2026-04-25T08:55:17.998Z</time></trkpt><trkpt lat="45.465400086279466" lon="11.099735997254749"><ele>244.1428571428571</ele><time>2026-04-25T08:55:24.999Z</time></trkpt><trkpt lat="45.46538417917142" lon="11.099830579770424"><ele>241.85714285714283</ele><time>2026-04-25T08:55:28.999Z</time></trkpt><trkpt lat="45.46536816083201" lon="11.099931579859707"><ele>239.57142857142856</ele><time>2026-04-25T08:55:31.999Z</time></trkpt><trkpt lat="45.465369447939025" lon="11.100043346843979"><ele>237.28571428571428</ele><time>2026-04-25T08:55:34.999Z</time></trkpt><trkpt lat="45.46534850288836" lon="11.100145683423472"><ele>235.0</ele><time>2026-04-25T08:55:36.998Z</time></trkpt><trkpt lat="45.46530000858953" lon="11.100258536774627"><ele>233.4</ele><time>2026-04-25T08:55:38.998Z</time></trkpt><trkpt lat="45.465242482297285" lon="11.100342507571744"><ele>231.8</ele><time>2026-04-25T08:55:40.998Z</time></trkpt><trkpt lat="45.465129342422024" lon="11.100420015896873"><ele>230.2</ele><time>2026-04-25T08:55:42.998Z</time></trkpt><trkpt lat="45.46504045655701" lon="11.100463320632358"><ele>228.6</ele><time>2026-04-25T08:55:44.998Z</time></trkpt><trkpt lat="45.46495079893096" lon="11.100484462867184"><ele>227.0</ele><time>2026-04-25T08:55:46.998Z</time></trkpt><trkpt lat="45.46488330181786" lon="11.100562044735579"><ele>227.00000000000003</ele><time>2026-04-25T08:55:48.998Z</time></trkpt><trkpt lat="45.464788475943806" lon="11.100590617830406"><ele>227.0</ele><time>2026-04-25T08:55:51.998Z</time></trkpt><trkpt lat="45.464745679749015" lon="11.10051344979679"><ele>227.0</ele><time>2026-04-25T08:55:53.998Z</time></trkpt><trkpt lat="45.46467371102044" lon="11.10046380344879"><ele>227.0</ele><time>2026-04-25T08:55:56.998Z</time></trkpt><trkpt lat="45.46461251502998" lon="11.10050864259931"><ele>227.00000000000003</ele><time>2026-04-25T08:55:58.998Z</time></trkpt><trkpt lat="45.464585072780494" lon="11.100638783073832"><ele>227.0</ele><time>2026-04-25T08:56:00.998Z</time></trkpt><trkpt lat="45.46459512073293" lon="11.100732341568202"><ele>223.6</ele><time>2026-04-25T08:56:02.998Z</time></trkpt><trkpt lat="45.464531022148826" lon="11.100870577191298"><ele>220.2</ele><time>2026-04-25T08:56:04.998Z</time></trkpt><trkpt lat="45.46448519296119" lon="11.100943573149229"><ele>216.8</ele><time>2026-04-25T08:56:05.998Z</time></trkpt><trkpt lat="45.46440280538791" lon="11.101051969872634"><ele>213.4</ele><time>2026-04-25T08:56:07.998Z</time></trkpt><trkpt lat="45.464348115433665" lon="11.101216920653894"><ele>210.0</ele><time>2026-04-25T08:56:09.998Z</time></trkpt><trkpt lat="45.46430916505737" lon="11.101361172461596"><ele>210.0</ele><time>2026-04-25T08:56:11.998Z</time></trkpt><trkpt lat="45.46427058689399" lon="11.101455103651432"><ele>210.0</ele><time>2026-04-25T08:56:26.998Z</time></trkpt><trkpt lat="45.4642777902093" lon="11.101653429694096"><ele>210.0</ele><time>2026-04-25T08:56:34.998Z</time></trkpt><trkpt lat="45.46431370005602" lon="11.101756587061375"><ele>210.0</ele><time>2026-04-25T08:56:35.998Z</time></trkpt><trkpt lat="45.46435737290258" lon="11.101897712851846"><ele>210.0</ele><time>2026-04-25T08:56:37.998Z</time></trkpt><trkpt lat="45.46441272032039" lon="11.101983626734812"><ele>208.16666666666666</ele><time>2026-04-25T08:56:39.998Z</time></trkpt><trkpt lat="45.46449167617809" lon="11.102056147232108"><ele>206.33333333333331</ele><time>2026-04-25T08:56:41.998Z</time></trkpt><trkpt lat="45.46459859058915" lon="11.102127365722843"><ele>204.5</ele><time>2026-04-25T08:56:43.998Z</time></trkpt><trkpt lat="45.46466463969001" lon="11.102182562526384"><ele>202.66666666666666</ele><time>2026-04-25T08:56:44.998Z</time></trkpt><trkpt lat="45.464724116883275" lon="11.102234534056215"><ele>200.83333333333331</ele><time>2026-04-25T08:56:45.998Z</time></trkpt><trkpt lat="45.46477731831225" lon="11.102288086175948"><ele>199.0</ele><time>2026-04-25T08:56:46.998Z</time></trkpt><trkpt lat="45.464873307887956" lon="11.102366369073165"><ele>199.0</ele><time>2026-04-25T08:56:48.998Z</time></trkpt><trkpt lat="45.465040205437354" lon="11.102388074128145"><ele>199.0</ele><time>2026-04-25T08:56:52.998Z</time></trkpt><trkpt lat="45.46510525651142" lon="11.102528537652132"><ele>199.0</ele><time>2026-04-25T08:56:54.998Z</time></trkpt><trkpt lat="45.4651888229215" lon="11.102627700812953"><ele>199.0</ele><time>2026-04-25T08:56:56.998Z</time></trkpt><trkpt lat="45.46527312635962" lon="11.102635941214462"><ele>195.39999999999998</ele><time>2026-04-25T08:56:57.998Z</time></trkpt><trkpt lat="45.46534820198157" lon="11.102630463978914"><ele>191.8</ele><time>2026-04-25T08:56:58.998Z</time></trkpt><trkpt lat="45.465420561678634" lon="11.102622465864487"><ele>188.2</ele><time>2026-04-25T08:56:59.998Z</time></trkpt><trkpt lat="45.46553492474221" lon="11.102579711333785"><ele>184.60000000000002</ele><time>2026-04-25T08:57:01.998Z</time></trkpt><trkpt lat="45.46561039609096" lon="11.102527548718987"><ele>181.0</ele><time>2026-04-25T08:57:03.998Z</time></trkpt><trkpt lat="45.46578982934948" lon="11.102660152087228"><ele>179.0</ele><time>2026-04-25T08:57:07.998Z</time></trkpt><trkpt lat="45.46593078036748" lon="11.102753640149121"><ele>177.0</ele><time>2026-04-25T08:57:09.998Z</time></trkpt><trkpt lat="45.46600565424389" lon="11.102739505736277"><ele>175.0</ele><time>2026-04-25T08:57:10.998Z</time></trkpt><trkpt lat="45.46610618212292" lon="11.102756751017015"><ele>173.0</ele><time>2026-04-25T08:57:12.998Z</time></trkpt><trkpt lat="45.466157760109276" lon="11.102852608233837"><ele>171.0</ele><time>2026-04-25T08:57:13.998Z</time></trkpt><trkpt lat="45.466210528719756" lon="11.102974618122401"><ele>167.60000000000002</ele><time>2026-04-25T08:57:14.998Z</time></trkpt><trkpt lat="45.466299686057184" lon="11.103117400109692"><ele>164.20000000000002</ele><time>2026-04-25T08:57:15.998Z</time></trkpt><trkpt lat="45.46637324796559" lon="11.10320585278447"><ele>160.8</ele><time>2026-04-25T08:57:16.998Z</time></trkpt><trkpt lat="45.466422308789106" lon="11.103302692156968"><ele>157.4</ele><time>2026-04-25T08:57:17.998Z</time></trkpt><trkpt lat="45.466485871696634" lon="11.103394112763928"><ele>154.0</ele><time>2026-04-25T08:57:19.998Z</time></trkpt><trkpt lat="45.4665239957667" lon="11.103466404140999"><ele>151.2</ele><time>2026-04-25T08:57:21.998Z</time></trkpt><trkpt lat="45.466566463828215" lon="11.103537519944252"><ele>148.4</ele><time>2026-04-25T08:57:23.998Z</time></trkpt><trkpt lat="45.46661666658064" lon="11.103648329857425"><ele>145.6</ele><time>2026-04-25T08:57:25.998Z</time></trkpt><trkpt lat="45.4666741897753" lon="11.103719117469202"><ele>142.8</ele><time>2026-04-25T08:57:27.998Z</time></trkpt><trkpt lat="45.46674795953717" lon="11.103779029894355"><ele>140.0</ele><time>2026-04-25T08:57:29.998Z</time></trkpt><trkpt lat="45.46693627470452" lon="11.103802616129824"><ele>140.0</ele><time>2026-04-25T08:57:48.997Z</time></trkpt><trkpt lat="45.46701263862523" lon="11.103689060025484"><ele>140.0</ele><time>2026-04-25T08:58:00.997Z</time></trkpt><trkpt lat="45.46706682507957" lon="11.103601267548532"><ele>140.0</ele><time>2026-04-25T08:58:01.997Z</time></trkpt><trkpt lat="45.467129964635156" lon="11.10350305189127"><ele>140.0</ele><time>2026-04-25T08:58:02.997Z</time></trkpt><trkpt lat="45.467196885004086" lon="11.103398192863258"><ele>140.0</ele><time>2026-04-25T08:58:03.997Z</time></trkpt><trkpt lat="45.46727669969919" lon="11.103303296062302"><ele>141.0</ele><time>2026-04-25T08:58:04.997Z</time></trkpt><trkpt lat="45.46738260015995" lon="11.103231430848643"><ele>142.0</ele><time>2026-04-25T08:58:05.997Z</time></trkpt><trkpt lat="45.4674959840052" lon="11.10317486885581"><ele>143.0</ele><time>2026-04-25T08:58:06.997Z</time></trkpt><trkpt lat="45.4676366934864" lon="11.103166368944065"><ele>144.0</ele><time>2026-04-25T08:58:07.997Z</time></trkpt><trkpt lat="45.4677921780231" lon="11.103147036470194"><ele>144.0</ele><time>2026-04-25T08:58:08.997Z</time></trkpt><trkpt lat="45.46794890582484" lon="11.103122302395528"><ele>144.0</ele><time>2026-04-25T08:58:09.997Z</time></trkpt><trkpt lat="45.468101185327704" lon="11.10311154139157"><ele>144.0</ele><time>2026-04-25T08:58:10.997Z</time></trkpt><trkpt lat="45.4682550520418" lon="11.103084235514036"><ele>144.0</ele><time>2026-04-25T08:58:11.997Z</time></trkpt><trkpt lat="45.468399080363135" lon="11.103066726572214"><ele>144.0</ele><time>2026-04-25T08:58:12.997Z</time></trkpt><trkpt lat="45.46855337721187" lon="11.102996779749088"><ele>144.0</ele><time>2026-04-25T08:58:13.997Z</time></trkpt><trkpt lat="45.468707397334605" lon="11.102888332845795"><ele>144.66666666666666</ele><time>2026-04-25T08:58:14.997Z</time></trkpt><trkpt lat="45.46884553334303" lon="11.102769416692782"><ele>145.33333333333331</ele><time>2026-04-25T08:58:15.997Z</time></trkpt><trkpt lat="45.46897925098435" lon="11.102630961165833"><ele>146.0</ele><time>2026-04-25T08:58:16.997Z</time></trkpt><trkpt lat="45.469121216371654" lon="11.102502564962291"><ele>148.33333333333331</ele><time>2026-04-25T08:58:17.997Z</time></trkpt><trkpt lat="45.46926574756833" lon="11.102359882179837"><ele>150.66666666666666</ele><time>2026-04-25T08:58:18.997Z</time></trkpt><trkpt lat="45.46940655426964" lon="11.102218251965915"><ele>153.0</ele><time>2026-04-25T08:58:19.997Z</time></trkpt><trkpt lat="45.46955729499998" lon="11.102083364022498"><ele>152.33333333333334</ele><time>2026-04-25T08:58:20.997Z</time></trkpt><trkpt lat="45.46970918224511" lon="11.101974498025768"><ele>151.66666666666669</ele><time>2026-04-25T08:58:21.997Z</time></trkpt><trkpt lat="45.46986095860581" lon="11.101876913956422"><ele>151.0</ele><time>2026-04-25T08:58:22.997Z</time></trkpt><trkpt lat="45.470014534934506" lon="11.101786563538376"><ele>151.0</ele><time>2026-04-25T08:58:23.997Z</time></trkpt><trkpt lat="45.470169569030844" lon="11.101706754550015"><ele>151.0</ele><time>2026-04-25T08:58:24.997Z</time></trkpt><trkpt lat="45.470330533140164" lon="11.101624656520725"><ele>151.0</ele><time>2026-04-25T08:58:25.997Z</time></trkpt><trkpt lat="45.47049409616531" lon="11.101553705613394"><ele>153.33333333333334</ele><time>2026-04-25T08:58:26.997Z</time></trkpt><trkpt lat="45.47065663500471" lon="11.10148314304284"><ele>155.66666666666666</ele><time>2026-04-25T08:58:27.997Z</time></trkpt><trkpt lat="45.470815406520295" lon="11.101397286280694"><ele>158.0</ele><time>2026-04-25T08:58:28.997Z</time></trkpt><trkpt lat="45.47098025181178" lon="11.101316939324677"><ele>158.0</ele><time>2026-04-25T08:58:29.997Z</time></trkpt><trkpt lat="45.47114409532708" lon="11.101236063618082"><ele>158.0</ele><time>2026-04-25T08:58:30.997Z</time></trkpt><trkpt lat="45.471305654517195" lon="11.101152804377712"><ele>158.0</ele><time>2026-04-25T08:58:31.997Z</time></trkpt><trkpt lat="45.47146784035596" lon="11.10105673489092"><ele>158.33333333333331</ele><time>2026-04-25T08:58:32.997Z</time></trkpt><trkpt lat="45.47162725719682" lon="11.10095366433036"><ele>158.66666666666666</ele><time>2026-04-25T08:58:33.997Z</time></trkpt><trkpt lat="45.47177890461928" lon="11.100846056585121"><ele>159.0</ele><time>2026-04-25T08:58:34.997Z</time></trkpt><trkpt lat="45.47193576526995" lon="11.100727114576761"><ele>161.66666666666666</ele><time>2026-04-25T08:58:35.997Z</time></trkpt><trkpt lat="45.4720851805558" lon="11.100623022133249"><ele>164.33333333333331</ele><time>2026-04-25T08:58:36.997Z</time></trkpt><trkpt lat="45.47223808408463" lon="11.10051128305594"><ele>167.0</ele><time>2026-04-25T08:58:37.997Z</time></trkpt><trkpt lat="45.472389204835764" lon="11.10040207170466"><ele>167.0</ele><time>2026-04-25T08:58:38.997Z</time></trkpt><trkpt lat="45.472541379589" lon="11.100297306395523"><ele>167.0</ele><time>2026-04-25T08:58:39.997Z</time></trkpt><trkpt lat="45.472695758189914" lon="11.100198479561207"><ele>167.0</ele><time>2026-04-25T08:58:40.997Z</time></trkpt><trkpt lat="45.47285172168042" lon="11.100111895598742"><ele>167.0</ele><time>2026-04-25T08:58:41.997Z</time></trkpt><trkpt lat="45.47301022591589" lon="11.100016372161035"><ele>167.0</ele><time>2026-04-25T08:58:42.997Z</time></trkpt><trkpt lat="45.473162058998035" lon="11.09993073329872"><ele>167.0</ele><time>2026-04-25T08:58:43.997Z</time></trkpt><trkpt lat="45.47332213791875" lon="11.099836641955863"><ele>168.66666666666666</ele><time>2026-04-25T08:58:44.997Z</time></trkpt><trkpt lat="45.47347294588723" lon="11.099750879688203"><ele>170.33333333333334</ele><time>2026-04-25T08:58:45.997Z</time></trkpt><trkpt lat="45.47362857187118" lon="11.099661262095424"><ele>172.0</ele><time>2026-04-25T08:58:46.997Z</time></trkpt><trkpt lat="45.47378208494366" lon="11.099576842792926"><ele>172.33333333333334</ele><time>2026-04-25T08:58:47.997Z</time></trkpt><trkpt lat="45.47394275725619" lon="11.099499632095345"><ele>172.66666666666666</ele><time>2026-04-25T08:58:48.997Z</time></trkpt><trkpt lat="45.4741012432532" lon="11.099440100988856"><ele>173.0</ele><time>2026-04-25T08:58:49.997Z</time></trkpt><trkpt lat="45.47426674591912" lon="11.09938754829236"><ele>173.0</ele><time>2026-04-25T08:58:50.997Z</time></trkpt><trkpt lat="45.474430608353416" lon="11.09934787865811"><ele>173.0</ele><time>2026-04-25T08:58:51.997Z</time></trkpt><trkpt lat="45.474605058224334" lon="11.099307387551923"><ele>173.0</ele><time>2026-04-25T08:58:52.997Z</time></trkpt><trkpt lat="45.474767135047685" lon="11.099271458758109"><ele>174.0</ele><time>2026-04-25T08:58:53.997Z</time></trkpt><trkpt lat="45.4749296955064" lon="11.099218982332253"><ele>175.0</ele><time>2026-04-25T08:58:54.997Z</time></trkpt><trkpt lat="45.4750849276261" lon="11.099148373016472"><ele>176.0</ele><time>2026-04-25T08:58:55.997Z</time></trkpt><trkpt lat="45.47524252120567" lon="11.099048812216543"><ele>177.66666666666666</ele><time>2026-04-25T08:58:56.997Z</time></trkpt><trkpt lat="45.47537693692701" lon="11.098959457760408"><ele>179.33333333333334</ele><time>2026-04-25T08:58:57.997Z</time></trkpt><trkpt lat="45.475523373463815" lon="11.098863192995273"><ele>181.0</ele><time>2026-04-25T08:58:58.997Z</time></trkpt><trkpt lat="45.47567831330511" lon="11.098796603094016"><ele>183.0</ele><time>2026-04-25T08:58:59.997Z</time></trkpt><trkpt lat="45.47584723523508" lon="11.098747888146958"><ele>185.0</ele><time>2026-04-25T08:59:00.997Z</time></trkpt><trkpt lat="45.476019032852975" lon="11.0987374276159"><ele>187.0</ele><time>2026-04-25T08:59:01.997Z</time></trkpt><trkpt lat="45.47618633036109" lon="11.098672580085655"><ele>187.33333333333334</ele><time>2026-04-25T08:59:02.997Z</time></trkpt><trkpt lat="45.476353563314404" lon="11.098610889487254"><ele>187.66666666666666</ele><time>2026-04-25T08:59:03.997Z</time></trkpt><trkpt lat="45.47651400920027" lon="11.098564298542305"><ele>188.0</ele><time>2026-04-25T08:59:04.997Z</time></trkpt><trkpt lat="45.47667705944502" lon="11.098554165984202"><ele>188.0</ele><time>2026-04-25T08:59:05.997Z</time></trkpt><trkpt lat="45.47683954550694" lon="11.098503850390362"><ele>188.0</ele><time>2026-04-25T08:59:06.997Z</time></trkpt><trkpt lat="45.47699371976194" lon="11.098479422170998"><ele>188.0</ele><time>2026-04-25T08:59:07.997Z</time></trkpt><trkpt lat="45.477150403518515" lon="11.098451361210154"><ele>190.0</ele><time>2026-04-25T08:59:08.997Z</time></trkpt><trkpt lat="45.47731154648973" lon="11.098427026476932"><ele>192.0</ele><time>2026-04-25T08:59:09.997Z</time></trkpt><trkpt lat="45.477462462560894" lon="11.098397538271401"><ele>194.0</ele><time>2026-04-25T08:59:10.997Z</time></trkpt><trkpt lat="45.47761912864564" lon="11.098371508714951"><ele>194.0</ele><time>2026-04-25T08:59:11.997Z</time></trkpt><trkpt lat="45.47777372277173" lon="11.098342123885564"><ele>194.0</ele><time>2026-04-25T08:59:12.997Z</time></trkpt><trkpt lat="45.477926811378374" lon="11.098296575500724"><ele>194.0</ele><time>2026-04-25T08:59:13.997Z</time></trkpt><trkpt lat="45.47807509043257" lon="11.098226798068668"><ele>201.0</ele><time>2026-04-25T08:59:14.997Z</time></trkpt><trkpt lat="45.47821240985571" lon="11.098146106307272"><ele>208.0</ele><time>2026-04-25T08:59:15.997Z</time></trkpt><trkpt lat="45.47835245874697" lon="11.098038918562024"><ele>215.0</ele><time>2026-04-25T08:59:16.997Z</time></trkpt><trkpt lat="45.47849210685508" lon="11.097959614605509"><ele>215.0</ele><time>2026-04-25T08:59:17.997Z</time></trkpt><trkpt lat="45.478618499061874" lon="11.097838532393084"><ele>215.0</ele><time>2026-04-25T08:59:18.997Z</time></trkpt><trkpt lat="45.478753511582696" lon="11.097743504322343"><ele>215.0</ele><time>2026-04-25T08:59:19.997Z</time></trkpt><trkpt lat="45.478892781420264" lon="11.097662462678402"><ele>215.66666666666669</ele><time>2026-04-25T08:59:20.997Z</time></trkpt><trkpt lat="45.479035558852125" lon="11.097599671751768"><ele>216.33333333333331</ele><time>2026-04-25T08:59:21.997Z</time></trkpt><trkpt lat="45.47918160739575" lon="11.097556539017347"><ele>217.0</ele><time>2026-04-25T08:59:22.997Z</time></trkpt><trkpt lat="45.479333970286525" lon="11.097530758178836"><ele>217.0</ele><time>2026-04-25T08:59:23.997Z</time></trkpt><trkpt lat="45.47947932331402" lon="11.097517041528448"><ele>217.0</ele><time>2026-04-25T08:59:24.997Z</time></trkpt><trkpt lat="45.47962796404912" lon="11.097502960351886"><ele>217.0</ele><time>2026-04-25T08:59:25.997Z</time></trkpt><trkpt lat="45.47975968926334" lon="11.097508166142713"><ele>217.0</ele><time>2026-04-25T08:59:26.997Z</time></trkpt><trkpt lat="45.47988401899805" lon="11.097480015591602"><ele>217.16666666666666</ele><time>2026-04-25T08:59:27.998Z</time></trkpt><trkpt lat="45.479983183516126" lon="11.097425083481621"><ele>217.33333333333331</ele><time>2026-04-25T08:59:28.998Z</time></trkpt><trkpt lat="45.48007889781398" lon="11.09746411070634"><ele>217.5</ele><time>2026-04-25T08:59:29.997Z</time></trkpt><trkpt lat="45.480150881167035" lon="11.097515711463343"><ele>217.66666666666669</ele><time>2026-04-25T08:59:30.998Z</time></trkpt><trkpt lat="45.480198740868595" lon="11.097594446747383"><ele>217.83333333333334</ele><time>2026-04-25T08:59:31.998Z</time></trkpt><trkpt lat="45.48021037686444" lon="11.097698197052345"><ele>218.0</ele><time>2026-04-25T08:59:32.997Z</time></trkpt><trkpt lat="45.480200419262495" lon="11.097819316533034"><ele>218.0</ele><time>2026-04-25T08:59:33.997Z</time></trkpt><trkpt lat="45.48018186504491" lon="11.097956951111913"><ele>218.0</ele><time>2026-04-25T08:59:34.997Z</time></trkpt><trkpt lat="45.48017953320157" lon="11.098120105946693"><ele>218.0</ele><time>2026-04-25T08:59:35.998Z</time></trkpt><trkpt lat="45.48018715691575" lon="11.098294988716338"><ele>218.0</ele><time>2026-04-25T08:59:36.998Z</time></trkpt><trkpt lat="45.48019259661843" lon="11.09848200527313"><ele>216.0</ele><time>2026-04-25T08:59:37.998Z</time></trkpt><trkpt lat="45.480204201534754" lon="11.098655016197183"><ele>214.0</ele><time>2026-04-25T08:59:38.997Z</time></trkpt><trkpt lat="45.480213133301895" lon="11.098826677137714"><ele>212.0</ele><time>2026-04-25T08:59:39.998Z</time></trkpt><trkpt lat="45.48022478749933" lon="11.098996702916674"><ele>210.0</ele><time>2026-04-25T08:59:40.998Z</time></trkpt><trkpt lat="45.48023086359867" lon="11.099161933939783"><ele>209.83333333333334</ele><time>2026-04-25T08:59:41.998Z</time></trkpt><trkpt lat="45.480235543596805" lon="11.099302341061497"><ele>209.66666666666669</ele><time>2026-04-25T08:59:42.998Z</time></trkpt><trkpt lat="45.480242176753755" lon="11.099417054166759"><ele>209.5</ele><time>2026-04-25T08:59:43.998Z</time></trkpt><trkpt lat="45.48026146070928" lon="11.099564335983567"><ele>209.33333333333334</ele><time>2026-04-25T08:59:45.998Z</time></trkpt><trkpt lat="45.480273385748745" lon="11.099669312336339"><ele>209.16666666666669</ele><time>2026-04-25T09:01:15.997Z</time></trkpt><trkpt lat="45.48033228075225" lon="11.09971460830922"><ele>209.0</ele><time>2026-04-25T09:01:18.997Z</time></trkpt><trkpt lat="45.48040709316014" lon="11.099774474611875"><ele>209.0</ele><time>2026-04-25T09:01:20.997Z</time></trkpt><trkpt lat="45.48040979303821" lon="11.09987193154204"><ele>209.0</ele><time>2026-04-25T09:01:21.997Z</time></trkpt><trkpt lat="45.480410469706975" lon="11.100001561714913"><ele>209.0</ele><time>2026-04-25T09:01:22.997Z</time></trkpt><trkpt lat="45.48039923003405" lon="11.100145822561048"><ele>209.0</ele><time>2026-04-25T09:01:23.997Z</time></trkpt><trkpt lat="45.480414731945615" lon="11.100311475279623"><ele>209.0</ele><time>2026-04-25T09:01:24.997Z</time></trkpt><trkpt lat="45.48045525386044" lon="11.10047368224722"><ele>211.5</ele><time>2026-04-25T09:01:25.997Z</time></trkpt><trkpt lat="45.4805162276585" lon="11.100653954774998"><ele>214.0</ele><time>2026-04-25T09:01:26.997Z</time></trkpt><trkpt lat="45.48054625013031" lon="11.100801439130842"><ele>216.5</ele><time>2026-04-25T09:01:27.997Z</time></trkpt><trkpt lat="45.48054904122171" lon="11.100966725601616"><ele>219.0</ele><time>2026-04-25T09:01:28.997Z</time></trkpt><trkpt lat="45.480551270867146" lon="11.101113859229269"><ele>220.79999999999998</ele><time>2026-04-25T09:01:29.997Z</time></trkpt><trkpt lat="45.48058017268751" lon="11.101233364308646"><ele>222.59999999999997</ele><time>2026-04-25T09:01:30.997Z</time></trkpt><trkpt lat="45.480679773695265" lon="11.101299357205065"><ele>224.4</ele><time>2026-04-25T09:01:32.997Z</time></trkpt><trkpt lat="45.4807532907736" lon="11.101299060530408"><ele>226.2</ele><time>2026-04-25T09:01:33.998Z</time></trkpt><trkpt lat="45.48083052707858" lon="11.101369285269099"><ele>228.0</ele><time>2026-04-25T09:01:34.998Z</time></trkpt><trkpt lat="45.48090276235332" lon="11.101436432678737"><ele>228.0</ele><time>2026-04-25T09:01:35.997Z</time></trkpt><trkpt lat="45.48095201339209" lon="11.101497349862894"><ele>228.0</ele><time>2026-04-25T09:01:36.997Z</time></trkpt><trkpt lat="45.480999475655736" lon="11.101606130785532"><ele>228.0</ele><time>2026-04-25T09:01:38.997Z</time></trkpt><trkpt lat="45.48104143101701" lon="11.10168257466693"><ele>228.0</ele><time>2026-04-25T09:01:39.997Z</time></trkpt><trkpt lat="45.481093991346704" lon="11.101745183413128"><ele>228.0</ele><time>2026-04-25T09:01:41.997Z</time></trkpt><trkpt lat="45.4811148064574" lon="11.10190887620797"><ele>228.0</ele><time>2026-04-25T09:01:44.997Z</time></trkpt><trkpt lat="45.48114271311699" lon="11.102027785193533"><ele>228.66666666666666</ele><time>2026-04-25T09:01:47.997Z</time></trkpt><trkpt lat="45.48119769195657" lon="11.102126110304434"><ele>229.33333333333331</ele><time>2026-04-25T09:01:50.997Z</time></trkpt><trkpt lat="45.48126506392729" lon="11.102201926597616"><ele>230.0</ele><time>2026-04-25T09:01:52.997Z</time></trkpt><trkpt lat="45.481332424580984" lon="11.10221026528281"><ele>230.66666666666666</ele><time>2026-04-25T09:01:54.997Z</time></trkpt><trkpt lat="45.481381065096144" lon="11.102310339452195"><ele>231.33333333333331</ele><time>2026-04-25T09:01:57.997Z</time></trkpt><trkpt lat="45.481388268449734" lon="11.102412007133989"><ele>232.0</ele><time>2026-04-25T09:02:02.997Z</time></trkpt><trkpt lat="45.48143380594582" lon="11.102498002793178"><ele>234.83333333333331</ele><time>2026-04-25T09:02:04.997Z</time></trkpt><trkpt lat="45.48148526513472" lon="11.102577111678118"><ele>237.66666666666666</ele><time>2026-04-25T09:02:06.997Z</time></trkpt><trkpt lat="45.48153608469455" lon="11.102632776888003"><ele>240.5</ele><time>2026-04-25T09:02:08.996Z</time></trkpt><trkpt lat="45.48158598006675" lon="11.102752328728855"><ele>243.33333333333331</ele><time>2026-04-25T09:02:11.996Z</time></trkpt><trkpt lat="45.481624774694495" lon="11.102837785940212"><ele>246.16666666666666</ele><time>2026-04-25T09:02:13.996Z</time></trkpt><trkpt lat="45.481664765280456" lon="11.102949861233173"><ele>249.0</ele><time>2026-04-25T09:02:16.996Z</time></trkpt><trkpt lat="45.481728263146294" lon="11.103016255340751"><ele>249.0</ele><time>2026-04-25T09:02:18.996Z</time></trkpt><trkpt lat="45.48178842497809" lon="11.10307340248492"><ele>248.99999999999997</ele><time>2026-04-25T09:02:20.996Z</time></trkpt><trkpt lat="45.48181751121501" lon="11.103160280025632"><ele>249.0</ele><time>2026-04-25T09:02:22.996Z</time></trkpt><trkpt lat="45.481861327555" lon="11.103261932165486"><ele>249.0</ele><time>2026-04-25T09:02:24.996Z</time></trkpt><trkpt lat="45.481881204427246" lon="11.103366933006727"><ele>248.99999999999997</ele><time>2026-04-25T09:02:27.996Z</time></trkpt><trkpt lat="45.48191311616347" lon="11.103463162073847"><ele>249.0</ele><time>2026-04-25T09:02:30.996Z</time></trkpt><trkpt lat="45.481950235745416" lon="11.103543057937303"><ele>249.0</ele><time>2026-04-25T09:02:33.996Z</time></trkpt><trkpt lat="45.482007896961754" lon="11.103615977318722"><ele>250.5</ele><time>2026-04-25T09:02:37.996Z</time></trkpt><trkpt lat="45.48204800916946" lon="11.103702602652978"><ele>252.0</ele><time>2026-04-25T09:02:41.996Z</time></trkpt><trkpt lat="45.48210227644478" lon="11.103756529864585"><ele>253.5</ele><time>2026-04-25T09:02:44.996Z</time></trkpt><trkpt lat="45.482192669084164" lon="11.103805485941004"><ele>255.0</ele><time>2026-04-25T09:02:47.996Z</time></trkpt><trkpt lat="45.4822546386141" lon="11.103869947999717"><ele>256.5</ele><time>2026-04-25T09:02:50.996Z</time></trkpt><trkpt lat="45.482319827805775" lon="11.103891137494186"><ele>258.0</ele><time>2026-04-25T09:02:52.996Z</time></trkpt><trkpt lat="45.48238536406155" lon="11.103954657857383"><ele>259.85714285714283</ele><time>2026-04-25T09:02:54.996Z</time></trkpt><trkpt lat="45.48243304304312" lon="11.104046733728701"><ele>261.7142857142857</ele><time>2026-04-25T09:02:57.996Z</time></trkpt><trkpt lat="45.482486522350406" lon="11.104105608219182"><ele>263.57142857142856</ele><time>2026-04-25T09:03:00.996Z</time></trkpt><trkpt lat="45.48254658948332" lon="11.104165636974537"><ele>265.42857142857144</ele><time>2026-04-25T09:03:04.996Z</time></trkpt><trkpt lat="45.482592946776556" lon="11.104233151690837"><ele>267.2857142857143</ele><time>2026-04-25T09:03:09.996Z</time></trkpt><trkpt lat="45.482638708896445" lon="11.104298364753182"><ele>269.1428571428571</ele><time>2026-04-25T09:03:12.996Z</time></trkpt><trkpt lat="45.4826733721349" lon="11.104396695155867"><ele>271.0</ele><time>2026-04-25T09:03:15.996Z</time></trkpt><trkpt lat="45.48270549416394" lon="11.104476183020038"><ele>271.0</ele><time>2026-04-25T09:03:21.996Z</time></trkpt><trkpt lat="45.48270592029642" lon="11.104569539360416"><ele>271.0</ele><time>2026-04-25T09:03:26.996Z</time></trkpt><trkpt lat="45.48263990276612" lon="11.104569378699333"><ele>271.0</ele><time>2026-04-25T09:03:33.996Z</time></trkpt><trkpt lat="45.482586583819646" lon="11.10448253398657"><ele>271.0</ele><time>2026-04-25T09:03:36.996Z</time></trkpt><trkpt lat="45.48251372473709" lon="11.104482721116963"><ele>271.0</ele><time>2026-04-25T09:03:42.997Z</time></trkpt><trkpt lat="45.482441822005555" lon="11.104438575335305"><ele>271.0</ele><time>2026-04-25T09:04:23.996Z</time></trkpt><trkpt lat="45.48235569719585" lon="11.10446513539301"><ele>271.0</ele><time>2026-04-25T09:04:25.996Z</time></trkpt><trkpt lat="45.482389863023066" lon="11.104555246156133"><ele>271.0</ele><time>2026-04-25T09:04:28.996Z</time></trkpt><trkpt lat="45.48244782168145" lon="11.104641479860424"><ele>271.0</ele><time>2026-04-25T09:04:30.996Z</time></trkpt><trkpt lat="45.48242790475945" lon="11.104736033711278"><ele>271.0</ele><time>2026-04-25T09:04:33.996Z</time></trkpt><trkpt lat="45.48236404940931" lon="11.104703792755064"><ele>271.0</ele><time>2026-04-25T09:04:35.996Z</time></trkpt><trkpt lat="45.48226533584894" lon="11.104685629009548"><ele>271.0</ele><time>2026-04-25T09:04:38.996Z</time></trkpt><trkpt lat="45.48219968581867" lon="11.104687000142283"><ele>272.8</ele><time>2026-04-25T09:04:39.996Z</time></trkpt><trkpt lat="45.48207088727212" lon="11.104678111689456"><ele>274.6</ele><time>2026-04-25T09:04:41.996Z</time></trkpt><trkpt lat="45.48199541613846" lon="11.10469010844915"><ele>276.4</ele><time>2026-04-25T09:04:42.996Z</time></trkpt><trkpt lat="45.481926488411496" lon="11.104701462930047"><ele>278.2</ele><time>2026-04-25T09:04:43.996Z</time></trkpt><trkpt lat="45.48178991831557" lon="11.10468310119447"><ele>280.0</ele><time>2026-04-25T09:04:45.996Z</time></trkpt><trkpt lat="45.481726578428685" lon="11.104660386424483"><ele>280.0</ele><time>2026-04-25T09:04:46.996Z</time></trkpt><trkpt lat="45.481653056213396" lon="11.104629761190328"><ele>280.0</ele><time>2026-04-25T09:04:47.996Z</time></trkpt><trkpt lat="45.48156904292488" lon="11.104607910003384"><ele>280.0</ele><time>2026-04-25T09:04:48.996Z</time></trkpt><trkpt lat="45.481432741594176" lon="11.104617964641356"><ele>280.0</ele><time>2026-04-25T09:04:49.996Z</time></trkpt><trkpt lat="45.481336733875466" lon="11.104619080281878"><ele>280.0</ele><time>2026-04-25T09:04:50.996Z</time></trkpt><trkpt lat="45.48125987542152" lon="11.104612375904459"><ele>283.6</ele><time>2026-04-25T09:04:51.996Z</time></trkpt><trkpt lat="45.48117701744616" lon="11.104641863908657"><ele>287.2</ele><time>2026-04-25T09:04:52.996Z</time></trkpt><trkpt lat="45.4810907749628" lon="11.104650381666985"><ele>290.8</ele><time>2026-04-25T09:04:53.996Z</time></trkpt><trkpt lat="45.48101301234826" lon="11.10465842308219"><ele>294.4</ele><time>2026-04-25T09:04:54.996Z</time></trkpt><trkpt lat="45.48089091285379" lon="11.104645884610497"><ele>298.0</ele><time>2026-04-25T09:04:56.996Z</time></trkpt><trkpt lat="45.480785352799" lon="11.104538748156077"><ele>298.0</ele><time>2026-04-25T09:04:58.996Z</time></trkpt><trkpt lat="45.48070936973024" lon="11.104446613450328"><ele>298.0</ele><time>2026-04-25T09:04:59.996Z</time></trkpt><trkpt lat="45.48065547192779" lon="11.10439144375897"><ele>298.0</ele><time>2026-04-25T09:05:00.996Z</time></trkpt><trkpt lat="45.48058878384549" lon="11.104356018809003"><ele>298.0</ele><time>2026-04-25T09:05:01.996Z</time></trkpt><trkpt lat="45.48051701496549" lon="11.104319724309697"><ele>298.0</ele><time>2026-04-25T09:05:02.996Z</time></trkpt><trkpt lat="45.48042610340913" lon="11.104296320616102"><ele>298.0</ele><time>2026-04-25T09:05:03.996Z</time></trkpt><trkpt lat="45.4803176965425" lon="11.104257097107133"><ele>299.66666666666663</ele><time>2026-04-25T09:05:04.996Z</time></trkpt><trkpt lat="45.48022063845982" lon="11.10422424782195"><ele>301.3333333333333</ele><time>2026-04-25T09:05:05.996Z</time></trkpt><trkpt lat="45.48014612906369" lon="11.104191469704887"><ele>303.0</ele><time>2026-04-25T09:05:06.996Z</time></trkpt><trkpt lat="45.48005209617128" lon="11.104160577390077"><ele>304.6666666666667</ele><time>2026-04-25T09:05:07.996Z</time></trkpt><trkpt lat="45.47996781031493" lon="11.104171111491116"><ele>306.33333333333337</ele><time>2026-04-25T09:05:08.996Z</time></trkpt><trkpt lat="45.47989941186241" lon="11.104146253684991"><ele>308.0</ele><time>2026-04-25T09:05:09.996Z</time></trkpt><trkpt lat="45.47974543422864" lon="11.104166767062088"><ele>308.0</ele><time>2026-04-25T09:05:11.996Z</time></trkpt><trkpt lat="45.47965498361795" lon="11.104189281383308"><ele>308.0</ele><time>2026-04-25T09:05:12.996Z</time></trkpt><trkpt lat="45.479561778554285" lon="11.10419300022248"><ele>308.0</ele><time>2026-04-25T09:05:13.996Z</time></trkpt><trkpt lat="45.47946097144803" lon="11.104204143535672"><ele>308.0</ele><time>2026-04-25T09:05:14.996Z</time></trkpt><trkpt lat="45.47936615594564" lon="11.104214789010603"><ele>308.0</ele><time>2026-04-25T09:05:15.996Z</time></trkpt><trkpt lat="45.47928402715482" lon="11.104236946696933"><ele>307.6666666666667</ele><time>2026-04-25T09:05:16.996Z</time></trkpt><trkpt lat="45.47918707853988" lon="11.104287424734496"><ele>307.33333333333337</ele><time>2026-04-25T09:05:17.996Z</time></trkpt><trkpt lat="45.47909722735983" lon="11.104331313942465"><ele>307.0</ele><time>2026-04-25T09:05:18.996Z</time></trkpt><trkpt lat="45.47900844622859" lon="11.104379550566218"><ele>306.6666666666667</ele><time>2026-04-25T09:05:19.996Z</time></trkpt><trkpt lat="45.47894327765199" lon="11.10443365127069"><ele>306.3333333333333</ele><time>2026-04-25T09:05:20.996Z</time></trkpt><trkpt lat="45.478883053115815" lon="11.104479660458475"><ele>306.0</ele><time>2026-04-25T09:05:21.996Z</time></trkpt><trkpt lat="45.478772561464694" lon="11.104540911860111"><ele>304.3333333333333</ele><time>2026-04-25T09:05:23.996Z</time></trkpt><trkpt lat="45.47871744831094" lon="11.104612161912755"><ele>302.6666666666667</ele><time>2026-04-25T09:05:24.996Z</time></trkpt><trkpt lat="45.478659979284984" lon="11.104687941239213"><ele>301.0</ele><time>2026-04-25T09:05:25.996Z</time></trkpt><trkpt lat="45.47859641706716" lon="11.104804550051062"><ele>299.33333333333337</ele><time>2026-04-25T09:05:26.996Z</time></trkpt><trkpt lat="45.47853876222037" lon="11.104922403019211"><ele>297.6666666666667</ele><time>2026-04-25T09:05:27.996Z</time></trkpt><trkpt lat="45.478492124466214" lon="11.105034551869135"><ele>296.0</ele><time>2026-04-25T09:05:28.996Z</time></trkpt><trkpt lat="45.478448335795576" lon="11.10516293943544"><ele>295.83333333333337</ele><time>2026-04-25T09:05:29.996Z</time></trkpt><trkpt lat="45.47840845802075" lon="11.105286301472502"><ele>295.6666666666667</ele><time>2026-04-25T09:05:30.996Z</time></trkpt><trkpt lat="45.47838306426073" lon="11.105396382113426"><ele>295.5</ele><time>2026-04-25T09:05:31.996Z</time></trkpt><trkpt lat="45.47835757382029" lon="11.10548290947271"><ele>295.3333333333333</ele><time>2026-04-25T09:05:32.996Z</time></trkpt><trkpt lat="45.47832559859857" lon="11.105602384605753"><ele>295.16666666666663</ele><time>2026-04-25T09:05:34.996Z</time></trkpt><trkpt lat="45.478275219410264" lon="11.105660385834542"><ele>295.0</ele><time>2026-04-25T09:05:36.996Z</time></trkpt><trkpt lat="45.47820789631029" lon="11.105647627653633"><ele>295.0</ele><time>2026-04-25T09:05:39.996Z</time></trkpt><trkpt lat="45.47814955972477" lon="11.10571458242933"><ele>295.0</ele><time>2026-04-25T09:06:02.997Z</time></trkpt><trkpt lat="45.47810076781401" lon="11.105829687384245"><ele>295.0</ele><time>2026-04-25T09:06:04.997Z</time></trkpt><trkpt lat="45.478056522484245" lon="11.105942132160482"><ele>295.0</ele><time>2026-04-25T09:06:06.997Z</time></trkpt><trkpt lat="45.47798621902858" lon="11.106068304184012"><ele>295.0</ele><time>2026-04-25T09:06:08.997Z</time></trkpt><trkpt lat="45.477937450655794" lon="11.1062001677668"><ele>292.5</ele><time>2026-04-25T09:06:10.997Z</time></trkpt><trkpt lat="45.47789755035878" lon="11.106306110579714"><ele>290.0</ele><time>2026-04-25T09:06:12.996Z</time></trkpt><trkpt lat="45.477874031759484" lon="11.106392959534903"><ele>287.5</ele><time>2026-04-25T09:06:13.996Z</time></trkpt><trkpt lat="45.477810236653035" lon="11.106490341886438"><ele>285.0</ele><time>2026-04-25T09:06:15.996Z</time></trkpt><trkpt lat="45.477769421647864" lon="11.106627527098754"><ele>282.5</ele><time>2026-04-25T09:06:17.996Z</time></trkpt><trkpt lat="45.477744200133536" lon="11.106716771224797"><ele>280.0</ele><time>2026-04-25T09:06:18.996Z</time></trkpt><trkpt lat="45.47767941298621" lon="11.106872785369951"><ele>280.0</ele><time>2026-04-25T09:06:20.996Z</time></trkpt><trkpt lat="45.47761736898846" lon="11.107013675676916"><ele>280.0</ele><time>2026-04-25T09:06:22.996Z</time></trkpt><trkpt lat="45.47756307021878" lon="11.107110257650845"><ele>280.0</ele><time>2026-04-25T09:06:24.996Z</time></trkpt><trkpt lat="45.4775108991463" lon="11.10719247686649"><ele>280.0</ele><time>2026-04-25T09:06:27.996Z</time></trkpt><trkpt lat="45.477579592101605" lon="11.107316087141959"><ele>280.0</ele><time>2026-04-25T09:06:29.996Z</time></trkpt><trkpt lat="45.47761017530735" lon="11.10739537506029"><ele>279.5</ele><time>2026-04-25T09:06:30.996Z</time></trkpt><trkpt lat="45.47761723596429" lon="11.107485776559162"><ele>279.0</ele><time>2026-04-25T09:06:31.996Z</time></trkpt><trkpt lat="45.47757798325951" lon="11.107584736099502"><ele>278.5</ele><time>2026-04-25T09:06:32.996Z</time></trkpt><trkpt lat="45.477535211263564" lon="11.107690155753508"><ele>278.0</ele><time>2026-04-25T09:06:33.996Z</time></trkpt><trkpt lat="45.4775101057532" lon="11.107800556708582"><ele>277.5</ele><time>2026-04-25T09:06:34.996Z</time></trkpt><trkpt lat="45.477487461816075" lon="11.107903208388286"><ele>277.0</ele><time>2026-04-25T09:06:35.996Z</time></trkpt><trkpt lat="45.47745681260272" lon="11.107993403330033"><ele>277.0</ele><time>2026-04-25T09:06:36.996Z</time></trkpt><trkpt lat="45.47742510400687" lon="11.10807112865897"><ele>277.0</ele><time>2026-04-25T09:06:37.996Z</time></trkpt><trkpt lat="45.47736399028385" lon="11.108197188691815"><ele>277.0</ele><time>2026-04-25T09:06:39.996Z</time></trkpt><trkpt lat="45.477328032786936" lon="11.108279425270714"><ele>277.0</ele><time>2026-04-25T09:06:40.996Z</time></trkpt><trkpt lat="45.47730879595556" lon="11.108392895861204"><ele>277.0</ele><time>2026-04-25T09:06:41.996Z</time></trkpt><trkpt lat="45.47733781972606" lon="11.10853347749312"><ele>277.0</ele><time>2026-04-25T09:06:43.996Z</time></trkpt><trkpt lat="45.47730761883941" lon="11.108652985793396"><ele>274.25</ele><time>2026-04-25T09:06:46.996Z</time></trkpt><trkpt lat="45.47745444455156" lon="11.108663151506944"><ele>271.5</ele><time>2026-04-25T09:06:50.996Z</time></trkpt><trkpt lat="45.47750807609204" lon="11.108593043396665"><ele>268.75</ele><time>2026-04-25T09:06:51.996Z</time></trkpt><trkpt lat="45.47755319458171" lon="11.108492366754513"><ele>266.0</ele><time>2026-04-25T09:06:53.996Z</time></trkpt><trkpt lat="45.477529586051894" lon="11.108706231337269"><ele>266.0</ele><time>2026-04-25T09:06:57.996Z</time></trkpt><trkpt lat="45.477505526700135" lon="11.108792857336452"><ele>266.0</ele><time>2026-04-25T09:06:58.996Z</time></trkpt><trkpt lat="45.477472667098255" lon="11.10891969788294"><ele>266.0</ele><time>2026-04-25T09:07:00.996Z</time></trkpt><trkpt lat="45.47742870352351" lon="11.109067604451422"><ele>266.0</ele><time>2026-04-25T09:07:02.996Z</time></trkpt><trkpt lat="45.47746350701495" lon="11.10922902326078"><ele>266.0</ele><time>2026-04-25T09:07:04.996Z</time></trkpt><trkpt lat="45.47745358691676" lon="11.109413700086806"><ele>263.6666666666667</ele><time>2026-04-25T09:07:06.996Z</time></trkpt><trkpt lat="45.47745758766802" lon="11.10959019884001"><ele>261.33333333333337</ele><time>2026-04-25T09:07:08.996Z</time></trkpt><trkpt lat="45.477463565032785" lon="11.109689080979471"><ele>259.0</ele><time>2026-04-25T09:07:09.996Z</time></trkpt><trkpt lat="45.477483135833936" lon="11.109798372899878"><ele>256.6666666666667</ele><time>2026-04-25T09:07:10.996Z</time></trkpt><trkpt lat="45.47751721703042" lon="11.109906858491163"><ele>254.33333333333334</ele><time>2026-04-25T09:07:11.996Z</time></trkpt><trkpt lat="45.47753825508675" lon="11.110009777964871"><ele>252.0</ele><time>2026-04-25T09:07:12.996Z</time></trkpt><trkpt lat="45.47756296157356" lon="11.110169589317449"><ele>249.8</ele><time>2026-04-25T09:07:14.996Z</time></trkpt><trkpt lat="45.47755200581478" lon="11.11034285376623"><ele>247.6</ele><time>2026-04-25T09:07:16.996Z</time></trkpt><trkpt lat="45.47757793177023" lon="11.110454243230382"><ele>245.40000000000003</ele><time>2026-04-25T09:07:18.996Z</time></trkpt><trkpt lat="45.47764770716179" lon="11.110566083953897"><ele>243.20000000000002</ele><time>2026-04-25T09:07:20.996Z</time></trkpt><trkpt lat="45.47772494923793" lon="11.110659964244112"><ele>241.0</ele><time>2026-04-25T09:07:22.996Z</time></trkpt><trkpt lat="45.47775715275645" lon="11.110746220035335"><ele>239.60000000000002</ele><time>2026-04-25T09:07:23.996Z</time></trkpt><trkpt lat="45.4777623942208" lon="11.110852107101689"><ele>238.20000000000002</ele><time>2026-04-25T09:07:24.996Z</time></trkpt><trkpt lat="45.47772904058646" lon="11.110986618842803"><ele>236.79999999999998</ele><time>2026-04-25T09:07:25.996Z</time></trkpt><trkpt lat="45.477697475919165" lon="11.111154613422977"><ele>235.39999999999998</ele><time>2026-04-25T09:07:26.996Z</time></trkpt><trkpt lat="45.477679609711515" lon="11.111307608037796"><ele>234.0</ele><time>2026-04-25T09:07:27.996Z</time></trkpt><trkpt lat="45.4776724386787" lon="11.111506590752544"><ele>231.5</ele><time>2026-04-25T09:07:28.996Z</time></trkpt><trkpt lat="45.47765363133935" lon="11.111676522807548"><ele>229.0</ele><time>2026-04-25T09:07:29.996Z</time></trkpt><trkpt lat="45.4776467697094" lon="11.11183761225155"><ele>226.5</ele><time>2026-04-25T09:07:30.996Z</time></trkpt><trkpt lat="45.477634051692874" lon="11.11199964127769"><ele>224.0</ele><time>2026-04-25T09:07:31.996Z</time></trkpt><trkpt lat="45.47762609117669" lon="11.112158225181908"><ele>224.0</ele><time>2026-04-25T09:07:32.996Z</time></trkpt><trkpt lat="45.47760919927146" lon="11.112291088624655"><ele>224.0</ele><time>2026-04-25T09:07:33.996Z</time></trkpt><trkpt lat="45.47757678838975" lon="11.112484225846478"><ele>224.0</ele><time>2026-04-25T09:07:35.996Z</time></trkpt><trkpt lat="45.47755407900571" lon="11.112667834452841"><ele>224.0</ele><time>2026-04-25T09:07:37.996Z</time></trkpt><trkpt lat="45.477564247596234" lon="11.112788793767589"><ele>222.0</ele><time>2026-04-25T09:07:38.996Z</time></trkpt><trkpt lat="45.477643378921435" lon="11.11292151658554"><ele>219.99999999999997</ele><time>2026-04-25T09:07:39.996Z</time></trkpt><trkpt lat="45.477696498471275" lon="11.113049701056715"><ele>217.99999999999997</ele><time>2026-04-25T09:07:40.996Z</time></trkpt><trkpt lat="45.4777397462265" lon="11.113170131669605"><ele>216.0</ele><time>2026-04-25T09:07:41.996Z</time></trkpt><trkpt lat="45.47777974170625" lon="11.113283075989749"><ele>214.0</ele><time>2026-04-25T09:07:42.996Z</time></trkpt><trkpt lat="45.47781368188341" lon="11.113392579652839"><ele>211.33333333333331</ele><time>2026-04-25T09:07:43.996Z</time></trkpt><trkpt lat="45.47782939555712" lon="11.113487461900396"><ele>208.66666666666666</ele><time>2026-04-25T09:07:44.996Z</time></trkpt><trkpt lat="45.47782102833485" lon="11.113598738854376"><ele>206.0</ele><time>2026-04-25T09:07:45.996Z</time></trkpt><trkpt lat="45.477793298991" lon="11.113692629196892"><ele>203.33333333333331</ele><time>2026-04-25T09:07:46.996Z</time></trkpt><trkpt lat="45.47772227611316" lon="11.113773945124345"><ele>200.66666666666666</ele><time>2026-04-25T09:07:47.996Z</time></trkpt><trkpt lat="45.477651630462134" lon="11.11382968947457"><ele>198.0</ele><time>2026-04-25T09:07:48.997Z</time></trkpt><trkpt lat="45.4775901023425" lon="11.113896252011887"><ele>198.0</ele><time>2026-04-25T09:07:49.996Z</time></trkpt><trkpt lat="45.47753813950388" lon="11.11397980979476"><ele>198.0</ele><time>2026-04-25T09:07:50.996Z</time></trkpt><trkpt lat="45.47748859361516" lon="11.114118084834233"><ele>198.0</ele><time>2026-04-25T09:07:51.996Z</time></trkpt><trkpt lat="45.477444980379026" lon="11.11428605302004"><ele>198.0</ele><time>2026-04-25T09:07:52.997Z</time></trkpt><trkpt lat="45.477416415475346" lon="11.114459995290238"><ele>198.0</ele><time>2026-04-25T09:07:53.997Z</time></trkpt><trkpt lat="45.47739483358823" lon="11.114616705527004"><ele>194.5</ele><time>2026-04-25T09:07:54.996Z</time></trkpt><trkpt lat="45.477391998719426" lon="11.11475997482988"><ele>191.0</ele><time>2026-04-25T09:07:55.995Z</time></trkpt><trkpt lat="45.47741188525511" lon="11.11490954904278"><ele>187.5</ele><time>2026-04-25T09:07:56.995Z</time></trkpt><trkpt lat="45.477458391491105" lon="11.115099414958097"><ele>184.0</ele><time>2026-04-25T09:07:57.996Z</time></trkpt><trkpt lat="45.47750360640091" lon="11.115293098398668"><ele>182.5</ele><time>2026-04-25T09:07:58.996Z</time></trkpt><trkpt lat="45.4775256694145" lon="11.115475126687299"><ele>181.0</ele><time>2026-04-25T09:07:59.996Z</time></trkpt><trkpt lat="45.477527958138694" lon="11.115640969283193"><ele>179.5</ele><time>2026-04-25T09:08:00.996Z</time></trkpt><trkpt lat="45.47753021215362" lon="11.115784138980498"><ele>178.0</ele><time>2026-04-25T09:08:01.996Z</time></trkpt><trkpt lat="45.47758066193178" lon="11.115930006800813"><ele>177.60000000000002</ele><time>2026-04-25T09:08:02.996Z</time></trkpt><trkpt lat="45.477611752257395" lon="11.116065759939831"><ele>177.20000000000002</ele><time>2026-04-25T09:08:03.996Z</time></trkpt><trkpt lat="45.47764435145037" lon="11.116196821245753"><ele>176.8</ele><time>2026-04-25T09:08:04.996Z</time></trkpt><trkpt lat="45.477698408672524" lon="11.116343549460604"><ele>176.4</ele><time>2026-04-25T09:08:05.996Z</time></trkpt><trkpt lat="45.47777111282411" lon="11.116506349784672"><ele>176.0</ele><time>2026-04-25T09:08:06.996Z</time></trkpt><trkpt lat="45.477828927588234" lon="11.116684570896181"><ele>174.0</ele><time>2026-04-25T09:08:07.996Z</time></trkpt><trkpt lat="45.47789116781296" lon="11.11684349161118"><ele>172.0</ele><time>2026-04-25T09:08:08.996Z</time></trkpt><trkpt lat="45.4779475368381" lon="11.11700436566577"><ele>170.0</ele><time>2026-04-25T09:08:09.996Z</time></trkpt><trkpt lat="45.478018056570036" lon="11.117130987375097"><ele>168.0</ele><time>2026-04-25T09:08:10.996Z</time></trkpt><trkpt lat="45.47809306919003" lon="11.117268879954931"><ele>168.0</ele><time>2026-04-25T09:08:11.996Z</time></trkpt><trkpt lat="45.47818359161654" lon="11.11740095834622"><ele>168.0</ele><time>2026-04-25T09:08:12.996Z</time></trkpt><trkpt lat="45.47826636774257" lon="11.117529024990201"><ele>168.0</ele><time>2026-04-25T09:08:13.996Z</time></trkpt><trkpt lat="45.47836339357426" lon="11.11763533621226"><ele>168.0</ele><time>2026-04-25T09:08:14.996Z</time></trkpt><trkpt lat="45.47841796282208" lon="11.117778015350714"><ele>168.5</ele><time>2026-04-25T09:08:15.996Z</time></trkpt><trkpt lat="45.47847136939709" lon="11.117933275885813"><ele>169.0</ele><time>2026-04-25T09:08:16.996Z</time></trkpt><trkpt lat="45.478515209787744" lon="11.118127393677142"><ele>169.5</ele><time>2026-04-25T09:08:17.996Z</time></trkpt><trkpt lat="45.47853446472549" lon="11.118336448214883"><ele>170.0</ele><time>2026-04-25T09:08:18.996Z</time></trkpt><trkpt lat="45.47856077567236" lon="11.118540096430065"><ele>170.0</ele><time>2026-04-25T09:08:19.996Z</time></trkpt><trkpt lat="45.4785810798105" lon="11.118733169497373"><ele>170.0</ele><time>2026-04-25T09:08:20.996Z</time></trkpt><trkpt lat="45.47861020330155" lon="11.118933305734023"><ele>170.0</ele><time>2026-04-25T09:08:21.996Z</time></trkpt><trkpt lat="45.47865180498332" lon="11.119140032647914"><ele>170.0</ele><time>2026-04-25T09:08:22.996Z</time></trkpt><trkpt lat="45.47870505818184" lon="11.119356068563244"><ele>165.66666666666666</ele><time>2026-04-25T09:08:23.996Z</time></trkpt><trkpt lat="45.47876843124363" lon="11.119565255752793"><ele>161.33333333333334</ele><time>2026-04-25T09:08:24.996Z</time></trkpt><trkpt lat="45.478828014682975" lon="11.119760541167187"><ele>157.0</ele><time>2026-04-25T09:08:25.996Z</time></trkpt><trkpt lat="45.478887199549234" lon="11.11995114771066"><ele>155.33333333333334</ele><time>2026-04-25T09:08:26.996Z</time></trkpt><trkpt lat="45.47893646856516" lon="11.120159999093545"><ele>153.66666666666666</ele><time>2026-04-25T09:08:27.996Z</time></trkpt><trkpt lat="45.478965663258194" lon="11.12037808341763"><ele>152.0</ele><time>2026-04-25T09:08:28.996Z</time></trkpt><trkpt lat="45.47898505977675" lon="11.12061397974718"><ele>149.33333333333331</ele><time>2026-04-25T09:08:29.996Z</time></trkpt><trkpt lat="45.4789918376002" lon="11.120854139328106"><ele>146.66666666666666</ele><time>2026-04-25T09:08:30.996Z</time></trkpt><trkpt lat="45.478984961184736" lon="11.121093803795214"><ele>144.0</ele><time>2026-04-25T09:08:31.996Z</time></trkpt><trkpt lat="45.47897274839268" lon="11.121327474793242"><ele>142.66666666666666</ele><time>2026-04-25T09:08:32.996Z</time></trkpt><trkpt lat="45.47897546047975" lon="11.12156691244679"><ele>141.33333333333331</ele><time>2026-04-25T09:08:33.996Z</time></trkpt><trkpt lat="45.47897433198332" lon="11.12179332368321"><ele>140.0</ele><time>2026-04-25T09:08:34.996Z</time></trkpt><trkpt lat="45.47898009310239" lon="11.122015923919335"><ele>140.0</ele><time>2026-04-25T09:08:35.996Z</time></trkpt><trkpt lat="45.4789858679333" lon="11.122231098230861"><ele>140.0</ele><time>2026-04-25T09:08:36.996Z</time></trkpt><trkpt lat="45.47899458929386" lon="11.122440936965749"><ele>140.0</ele><time>2026-04-25T09:08:37.996Z</time></trkpt><trkpt lat="45.47901821352167" lon="11.122659924384047"><ele>140.0</ele><time>2026-04-25T09:08:38.996Z</time></trkpt><trkpt lat="45.47902914151091" lon="11.122851290369658"><ele>140.0</ele><time>2026-04-25T09:08:39.996Z</time></trkpt><trkpt lat="45.479053764307224" lon="11.123025378707876"><ele>140.0</ele><time>2026-04-25T09:08:40.996Z</time></trkpt><trkpt lat="45.47906249990814" lon="11.123163263379539"><ele>140.0</ele><time>2026-04-25T09:08:41.996Z</time></trkpt><trkpt lat="45.47908614984182" lon="11.123270769647013"><ele>140.0</ele><time>2026-04-25T09:08:42.996Z</time></trkpt><trkpt lat="45.479124096487936" lon="11.123348828360433"><ele>140.0</ele><time>2026-04-25T09:08:43.996Z</time></trkpt><trkpt lat="45.47919853133812" lon="11.123383540591643"><ele>140.0</ele><time>2026-04-25T09:08:44.996Z</time></trkpt><trkpt lat="45.47929542310932" lon="11.123360372664951"><ele>140.0</ele><time>2026-04-25T09:08:45.996Z</time></trkpt><trkpt lat="45.47940576473231" lon="11.123331418007153"><ele>140.0</ele><time>2026-04-25T09:08:46.996Z</time></trkpt><trkpt lat="45.47952817240865" lon="11.123297572636716"><ele>140.0</ele><time>2026-04-25T09:08:47.996Z</time></trkpt><trkpt lat="45.479647777368776" lon="11.12328056071095"><ele>139.2</ele><time>2026-04-25T09:08:48.996Z</time></trkpt><trkpt lat="45.479759919877765" lon="11.12326027420818"><ele>138.4</ele><time>2026-04-25T09:08:49.996Z</time></trkpt><trkpt lat="45.47985542884259" lon="11.123240112167604"><ele>137.6</ele><time>2026-04-25T09:08:50.996Z</time></trkpt><trkpt lat="45.47992527219538" lon="11.12321953784096"><ele>136.8</ele><time>2026-04-25T09:08:51.996Z</time></trkpt><trkpt lat="45.480008650552215" lon="11.123267864816803"><ele>136.0</ele><time>2026-04-25T09:08:53.996Z</time></trkpt><trkpt lat="45.48006686667954" lon="11.123358086663869"><ele>136.75</ele><time>2026-04-25T09:08:54.996Z</time></trkpt><trkpt lat="45.480139116658464" lon="11.123492154330451"><ele>137.5</ele><time>2026-04-25T09:08:55.996Z</time></trkpt><trkpt lat="45.480225181496735" lon="11.123644343142983"><ele>138.25</ele><time>2026-04-25T09:08:56.996Z</time></trkpt><trkpt lat="45.48032901200374" lon="11.123806575092635"><ele>139.0</ele><time>2026-04-25T09:08:57.996Z</time></trkpt><trkpt lat="45.48043368359453" lon="11.123957316679661"><ele>136.33333333333334</ele><time>2026-04-25T09:08:58.996Z</time></trkpt><trkpt lat="45.48054692190921" lon="11.124119867432976"><ele>133.66666666666666</ele><time>2026-04-25T09:08:59.996Z</time></trkpt><trkpt lat="45.480657454832006" lon="11.124283747544046"><ele>131.0</ele><time>2026-04-25T09:09:00.996Z</time></trkpt><trkpt lat="45.48076639758442" lon="11.124444176731561"><ele>131.0</ele><time>2026-04-25T09:09:01.996Z</time></trkpt><trkpt lat="45.480868762685205" lon="11.124601743339657"><ele>131.0</ele><time>2026-04-25T09:09:02.996Z</time></trkpt><trkpt lat="45.48096821036805" lon="11.124750616621018"><ele>131.0</ele><time>2026-04-25T09:09:03.996Z</time></trkpt><trkpt lat="45.481051608993496" lon="11.124894855495569"><ele>131.0</ele><time>2026-04-25T09:09:04.996Z</time></trkpt><trkpt lat="45.48112807315125" lon="11.125032879262102"><ele>131.5</ele><time>2026-04-25T09:09:05.996Z</time></trkpt><trkpt lat="45.48120659947144" lon="11.12515557619947"><ele>132.0</ele><time>2026-04-25T09:09:06.996Z</time></trkpt><trkpt lat="45.48128363891599" lon="11.125303395890256"><ele>132.5</ele><time>2026-04-25T09:09:07.996Z</time></trkpt><trkpt lat="45.48137438770459" lon="11.12544995840122"><ele>133.0</ele><time>2026-04-25T09:09:08.996Z</time></trkpt><trkpt lat="45.481461134829026" lon="11.125601715727088"><ele>131.75</ele><time>2026-04-25T09:09:09.996Z</time></trkpt><trkpt lat="45.48153352838761" lon="11.12576904360677"><ele>130.5</ele><time>2026-04-25T09:09:10.996Z</time></trkpt><trkpt lat="45.4815933938306" lon="11.125950393843018"><ele>129.25</ele><time>2026-04-25T09:09:11.996Z</time></trkpt><trkpt lat="45.48164088498823" lon="11.12613060044562"><ele>128.0</ele><time>2026-04-25T09:09:12.996Z</time></trkpt><trkpt lat="45.48169474791988" lon="11.126290418973673"><ele>128.0</ele><time>2026-04-25T09:09:13.996Z</time></trkpt><trkpt lat="45.48176463396142" lon="11.12643386254685"><ele>128.0</ele><time>2026-04-25T09:09:14.996Z</time></trkpt><trkpt lat="45.481819845033485" lon="11.126570883018198"><ele>128.0</ele><time>2026-04-25T09:09:15.996Z</time></trkpt><trkpt lat="45.48186396742176" lon="11.126667999520683"><ele>128.0</ele><time>2026-04-25T09:09:16.996Z</time></trkpt><trkpt lat="45.48190992023097" lon="11.126770826197847"><ele>128.0</ele><time>2026-04-25T09:09:17.996Z</time></trkpt><trkpt lat="45.4819209850894" lon="11.126881928947956"><ele>127.2</ele><time>2026-04-25T09:09:18.996Z</time></trkpt><trkpt lat="45.48195830645309" lon="11.127006797561044"><ele>126.4</ele><time>2026-04-25T09:09:20.996Z</time></trkpt><trkpt lat="45.482013196465715" lon="11.127115847707456"><ele>125.60000000000001</ele><time>2026-04-25T09:09:23.996Z</time></trkpt><trkpt lat="45.482039385755584" lon="11.127274768168629"><ele>124.80000000000001</ele><time>2026-04-25T09:09:25.996Z</time></trkpt><trkpt lat="45.48204945047436" lon="11.127416387838183"><ele>124.0</ele><time>2026-04-25T09:09:26.996Z</time></trkpt><trkpt lat="45.48208277150652" lon="11.12757100269984"><ele>123.6</ele><time>2026-04-25T09:09:27.996Z</time></trkpt><trkpt lat="45.48210812272003" lon="11.127715598163748"><ele>123.2</ele><time>2026-04-25T09:09:28.996Z</time></trkpt><trkpt lat="45.48214006155317" lon="11.127864045247327"><ele>122.79999999999998</ele><time>2026-04-25T09:09:29.996Z</time></trkpt><trkpt lat="45.48216037281135" lon="11.127982265763869"><ele>122.39999999999999</ele><time>2026-04-25T09:09:30.996Z</time></trkpt><trkpt lat="45.482172214417545" lon="11.128115064355583"><ele>122.0</ele><time>2026-04-25T09:09:31.996Z</time></trkpt><trkpt lat="45.48220440180684" lon="11.12822686319565"><ele>121.66666666666666</ele><time>2026-04-25T09:09:32.996Z</time></trkpt><trkpt lat="45.48221713104483" lon="11.128335383695026"><ele>121.33333333333333</ele><time>2026-04-25T09:09:33.996Z</time></trkpt><trkpt lat="45.48223257548934" lon="11.128446613218847"><ele>121.0</ele><time>2026-04-25T09:09:34.996Z</time></trkpt><trkpt lat="45.48224929444841" lon="11.128541951266655"><ele>120.66666666666666</ele><time>2026-04-25T09:09:36.995Z</time></trkpt><trkpt lat="45.48226624001667" lon="11.128655904818867"><ele>120.33333333333333</ele><time>2026-04-25T09:09:38.995Z</time></trkpt><trkpt lat="45.48228139160434" lon="11.128813299953281"><ele>120.0</ele><time>2026-04-25T09:09:40.995Z</time></trkpt><trkpt lat="45.482291389744994" lon="11.128922054040002"><ele>120.0</ele><time>2026-04-25T09:09:41.995Z</time></trkpt><trkpt lat="45.48231019472458" lon="11.129030322655298"><ele>120.0</ele><time>2026-04-25T09:09:42.995Z</time></trkpt><trkpt lat="45.48234672380619" lon="11.129163067938082"><ele>120.0</ele><time>2026-04-25T09:09:43.995Z</time></trkpt><trkpt lat="45.482396314285765" lon="11.129307874524027"><ele>120.0</ele><time>2026-04-25T09:09:44.995Z</time></trkpt><trkpt lat="45.4824264449393" lon="11.129466132825833"><ele>120.0</ele><time>2026-04-25T09:09:45.995Z</time></trkpt><trkpt lat="45.48244077935407" lon="11.129626141382081"><ele>120.0</ele><time>2026-04-25T09:09:46.995Z</time></trkpt><trkpt lat="45.482461958881785" lon="11.12978565862739"><ele>120.0</ele><time>2026-04-25T09:09:47.995Z</time></trkpt><trkpt lat="45.48248809254228" lon="11.129928309204375"><ele>120.0</ele><time>2026-04-25T09:09:48.995Z</time></trkpt><trkpt lat="45.48252556932965" lon="11.130063081678026"><ele>120.0</ele><time>2026-04-25T09:09:49.995Z</time></trkpt><trkpt lat="45.482557728951065" lon="11.130200952987273"><ele>120.0</ele><time>2026-04-25T09:09:50.995Z</time></trkpt><trkpt lat="45.482583671612225" lon="11.130340526179008"><ele>120.0</ele><time>2026-04-25T09:09:51.995Z</time></trkpt><trkpt lat="45.48261725870474" lon="11.130473760184866"><ele>120.0</ele><time>2026-04-25T09:09:52.995Z</time></trkpt><trkpt lat="45.482650392607674" lon="11.130620678426236"><ele>120.0</ele><time>2026-04-25T09:09:53.995Z</time></trkpt><trkpt lat="45.48268034075627" lon="11.130773258361"><ele>120.0</ele><time>2026-04-25T09:09:54.996Z</time></trkpt><trkpt lat="45.48269647584816" lon="11.130941616206995"><ele>120.0</ele><time>2026-04-25T09:09:55.996Z</time></trkpt><trkpt lat="45.4827104848296" lon="11.131114932253313"><ele>120.75</ele><time>2026-04-25T09:09:56.996Z</time></trkpt><trkpt lat="45.48271341368767" lon="11.131286894551296"><ele>121.5</ele><time>2026-04-25T09:09:57.996Z</time></trkpt><trkpt lat="45.482683742831064" lon="11.131462057818679"><ele>122.25</ele><time>2026-04-25T09:09:58.996Z</time></trkpt><trkpt lat="45.48262254659759" lon="11.131640647098662"><ele>123.0</ele><time>2026-04-25T09:09:59.996Z</time></trkpt><trkpt lat="45.48254016765685" lon="11.131815833546701"><ele>124.5</ele><time>2026-04-25T09:10:00.996Z</time></trkpt><trkpt lat="45.48247349204765" lon="11.13195272602004"><ele>126.0</ele><time>2026-04-25T09:10:01.995Z</time></trkpt><trkpt lat="45.482400594657456" lon="11.132052679663346"><ele>127.5</ele><time>2026-04-25T09:10:02.995Z</time></trkpt><trkpt lat="45.482331943295335" lon="11.132188193030329"><ele>129.0</ele><time>2026-04-25T09:10:03.996Z</time></trkpt><trkpt lat="45.48228162586251" lon="11.13234414410255"><ele>131.5</ele><time>2026-04-25T09:10:04.995Z</time></trkpt><trkpt lat="45.482260083948574" lon="11.132505718612572"><ele>134.0</ele><time>2026-04-25T09:10:05.995Z</time></trkpt><trkpt lat="45.4822363442213" lon="11.132675992200742"><ele>136.5</ele><time>2026-04-25T09:10:06.995Z</time></trkpt><trkpt lat="45.48222902926192" lon="11.132859399150634"><ele>139.0</ele><time>2026-04-25T09:10:07.996Z</time></trkpt><trkpt lat="45.482219085821455" lon="11.133016647925006"><ele>139.0</ele><time>2026-04-25T09:10:08.996Z</time></trkpt><trkpt lat="45.482203373613444" lon="11.133170672002457"><ele>139.0</ele><time>2026-04-25T09:10:09.996Z</time></trkpt><trkpt lat="45.482188366563335" lon="11.133311675768681"><ele>139.0</ele><time>2026-04-25T09:10:10.996Z</time></trkpt><trkpt lat="45.48216546004099" lon="11.133461379790056"><ele>139.0</ele><time>2026-04-25T09:10:11.996Z</time></trkpt><trkpt lat="45.482149589673774" lon="11.133622309017182"><ele>139.0</ele><time>2026-04-25T09:10:12.996Z</time></trkpt><trkpt lat="45.48217609075874" lon="11.133789265448941"><ele>139.8</ele><time>2026-04-25T09:10:13.996Z</time></trkpt><trkpt lat="45.48219391323233" lon="11.133928514165126"><ele>140.60000000000002</ele><time>2026-04-25T09:10:14.996Z</time></trkpt><trkpt lat="45.48221826534736" lon="11.134091299602147"><ele>141.4</ele><time>2026-04-25T09:10:15.996Z</time></trkpt><trkpt lat="45.48223526109026" lon="11.13422371335455"><ele>142.20000000000002</ele><time>2026-04-25T09:10:16.996Z</time></trkpt><trkpt lat="45.48226365129795" lon="11.134383645071182"><ele>143.0</ele><time>2026-04-25T09:10:17.996Z</time></trkpt><trkpt lat="45.48231676405489" lon="11.13453125188313"><ele>143.6</ele><time>2026-04-25T09:10:18.996Z</time></trkpt><trkpt lat="45.482372969508205" lon="11.134673132054205"><ele>144.20000000000002</ele><time>2026-04-25T09:10:19.996Z</time></trkpt><trkpt lat="45.48240922285387" lon="11.13483399417994"><ele>144.8</ele><time>2026-04-25T09:10:20.996Z</time></trkpt><trkpt lat="45.482428757002175" lon="11.13496942529722"><ele>145.4</ele><time>2026-04-25T09:10:21.996Z</time></trkpt><trkpt lat="45.48243715402074" lon="11.135114319469123"><ele>146.0</ele><time>2026-04-25T09:10:22.996Z</time></trkpt><trkpt lat="45.48241647238533" lon="11.135268158674517"><ele>147.0</ele><time>2026-04-25T09:10:23.996Z</time></trkpt><trkpt lat="45.48236090625992" lon="11.135392869476796"><ele>148.0</ele><time>2026-04-25T09:10:24.996Z</time></trkpt><trkpt lat="45.48229648627087" lon="11.13556709986898"><ele>149.0</ele><time>2026-04-25T09:10:25.996Z</time></trkpt><trkpt lat="45.482235011580975" lon="11.135777847970422"><ele>150.0</ele><time>2026-04-25T09:10:26.996Z</time></trkpt><trkpt lat="45.482186820979564" lon="11.135971285217597"><ele>152.5</ele><time>2026-04-25T09:10:27.996Z</time></trkpt><trkpt lat="45.48213533383025" lon="11.13613776942581"><ele>155.0</ele><time>2026-04-25T09:10:28.996Z</time></trkpt><trkpt lat="45.482083433823185" lon="11.136297475754127"><ele>157.5</ele><time>2026-04-25T09:10:29.996Z</time></trkpt><trkpt lat="45.482067834879075" lon="11.136483736687525"><ele>160.0</ele><time>2026-04-25T09:10:30.996Z</time></trkpt><trkpt lat="45.48206541444019" lon="11.136666516036497"><ele>161.5</ele><time>2026-04-25T09:10:31.996Z</time></trkpt><trkpt lat="45.48208792711756" lon="11.136841099269049"><ele>163.0</ele><time>2026-04-25T09:10:32.996Z</time></trkpt><trkpt lat="45.482114103091796" lon="11.137015989824203"><ele>164.5</ele><time>2026-04-25T09:10:33.996Z</time></trkpt><trkpt lat="45.48212960952361" lon="11.137204327092729"><ele>166.0</ele><time>2026-04-25T09:10:34.996Z</time></trkpt><trkpt lat="45.48212793279866" lon="11.1373742303967"><ele>168.25</ele><time>2026-04-25T09:10:35.996Z</time></trkpt><trkpt lat="45.482136810235126" lon="11.137532500064554"><ele>170.5</ele><time>2026-04-25T09:10:36.996Z</time></trkpt><trkpt lat="45.48216640479782" lon="11.137701192268622"><ele>172.75</ele><time>2026-04-25T09:10:37.996Z</time></trkpt><trkpt lat="45.48220976304054" lon="11.137858691308088"><ele>175.0</ele><time>2026-04-25T09:10:38.996Z</time></trkpt><trkpt lat="45.48225438321982" lon="11.138017944765615"><ele>175.0</ele><time>2026-04-25T09:10:39.996Z</time></trkpt><trkpt lat="45.48231776740357" lon="11.138155668255076"><ele>175.0</ele><time>2026-04-25T09:10:40.996Z</time></trkpt><trkpt lat="45.4823735566194" lon="11.138252704641483"><ele>175.0</ele><time>2026-04-25T09:10:41.996Z</time></trkpt><trkpt lat="45.482437952353905" lon="11.138301108960158"><ele>175.0</ele><time>2026-04-25T09:10:42.996Z</time></trkpt><trkpt lat="45.482503864091214" lon="11.13831380456165"><ele>175.0</ele><time>2026-04-25T09:10:43.996Z</time></trkpt><trkpt lat="45.482601554967886" lon="11.138310900778732"><ele>175.0</ele><time>2026-04-25T09:10:44.996Z</time></trkpt><trkpt lat="45.48267904499762" lon="11.138298272433067"><ele>175.0</ele><time>2026-04-25T09:10:45.996Z</time></trkpt><trkpt lat="45.48278291971086" lon="11.138270718597655"><ele>175.0</ele><time>2026-04-25T09:10:46.996Z</time></trkpt><trkpt lat="45.482854638219536" lon="11.138204123446329"><ele>175.0</ele><time>2026-04-25T09:10:47.996Z</time></trkpt><trkpt lat="45.482916654633925" lon="11.13809873175393"><ele>175.0</ele><time>2026-04-25T09:10:48.996Z</time></trkpt><trkpt lat="45.48296930297358" lon="11.137970019841076"><ele>175.0</ele><time>2026-04-25T09:10:49.996Z</time></trkpt><trkpt lat="45.4830252841531" lon="11.137829215913813"><ele>178.25</ele><time>2026-04-25T09:10:50.996Z</time></trkpt><trkpt lat="45.48306367039113" lon="11.13763599076055"><ele>181.5</ele><time>2026-04-25T09:10:51.996Z</time></trkpt><trkpt lat="45.48310859124273" lon="11.137467508469905"><ele>184.75</ele><time>2026-04-25T09:10:52.996Z</time></trkpt><trkpt lat="45.48312877245267" lon="11.13731582413094"><ele>188.0</ele><time>2026-04-25T09:10:53.996Z</time></trkpt><trkpt lat="45.483157080365515" lon="11.137177646080174"><ele>188.0</ele><time>2026-04-25T09:10:54.996Z</time></trkpt><trkpt lat="45.483187229772746" lon="11.13707821150211"><ele>188.0</ele><time>2026-04-25T09:10:55.996Z</time></trkpt><trkpt lat="45.48323741078542" lon="11.137002006604897"><ele>188.0</ele><time>2026-04-25T09:10:56.996Z</time></trkpt><trkpt lat="45.483295174264626" lon="11.136927084112603"><ele>188.0</ele><time>2026-04-25T09:10:57.996Z</time></trkpt><trkpt lat="45.48335886439461" lon="11.136841323122479"><ele>188.0</ele><time>2026-04-25T09:10:58.996Z</time></trkpt><trkpt lat="45.48344327802373" lon="11.136731350887977"><ele>188.0</ele><time>2026-04-25T09:10:59.996Z</time></trkpt><trkpt lat="45.483537356251254" lon="11.136604122309215"><ele>190.25</ele><time>2026-04-25T09:11:00.996Z</time></trkpt><trkpt lat="45.483636352150064" lon="11.136492475372481"><ele>192.5</ele><time>2026-04-25T09:11:01.996Z</time></trkpt><trkpt lat="45.483726425127344" lon="11.136372359918896"><ele>194.75</ele><time>2026-04-25T09:11:02.996Z</time></trkpt><trkpt lat="45.483798188914214" lon="11.13622548870893"><ele>197.0</ele><time>2026-04-25T09:11:03.996Z</time></trkpt><trkpt lat="45.48386971942829" lon="11.13607224280802"><ele>197.0</ele><time>2026-04-25T09:11:04.996Z</time></trkpt><trkpt lat="45.48393632459079" lon="11.135935448394282"><ele>197.0</ele><time>2026-04-25T09:11:05.996Z</time></trkpt><trkpt lat="45.48401926577293" lon="11.135823454464331"><ele>197.0</ele><time>2026-04-25T09:11:06.996Z</time></trkpt><trkpt lat="45.48409899038231" lon="11.135714167853525"><ele>197.0</ele><time>2026-04-25T09:11:07.996Z</time></trkpt><trkpt lat="45.484196167464" lon="11.13563454294599"><ele>195.5</ele><time>2026-04-25T09:11:08.996Z</time></trkpt><trkpt lat="45.48426970326674" lon="11.13552132333539"><ele>194.0</ele><time>2026-04-25T09:11:09.995Z</time></trkpt><trkpt lat="45.48428809310028" lon="11.135354060551203"><ele>192.5</ele><time>2026-04-25T09:11:10.995Z</time></trkpt><trkpt lat="45.48429911253332" lon="11.135187904528731"><ele>191.0</ele><time>2026-04-25T09:11:11.995Z</time></trkpt><trkpt lat="45.484303164854104" lon="11.13501799838478"><ele>189.60000000000002</ele><time>2026-04-25T09:11:12.995Z</time></trkpt><trkpt lat="45.484338213815356" lon="11.134875673671727"><ele>188.2</ele><time>2026-04-25T09:11:13.995Z</time></trkpt><trkpt lat="45.48438447329573" lon="11.134758465182154"><ele>186.8</ele><time>2026-04-25T09:11:14.995Z</time></trkpt><trkpt lat="45.48443045791856" lon="11.134653920468603"><ele>185.39999999999998</ele><time>2026-04-25T09:11:15.995Z</time></trkpt><trkpt lat="45.484491626436785" lon="11.13454677654043"><ele>184.0</ele><time>2026-04-25T09:11:16.995Z</time></trkpt><trkpt lat="45.484574508043416" lon="11.134470254472836"><ele>186.79999999999998</ele><time>2026-04-25T09:11:17.995Z</time></trkpt><trkpt lat="45.48465975146668" lon="11.134427544362559"><ele>189.6</ele><time>2026-04-25T09:11:18.995Z</time></trkpt><trkpt lat="45.484752475347356" lon="11.134413271930958"><ele>192.4</ele><time>2026-04-25T09:11:19.995Z</time></trkpt><trkpt lat="45.48484743654367" lon="11.134442181660942"><ele>195.2</ele><time>2026-04-25T09:11:20.995Z</time></trkpt><trkpt lat="45.484946439545844" lon="11.13449214734084"><ele>198.0</ele><time>2026-04-25T09:11:21.995Z</time></trkpt><trkpt lat="45.485032243148765" lon="11.13454849263996"><ele>198.0</ele><time>2026-04-25T09:11:22.995Z</time></trkpt><trkpt lat="45.485111244644756" lon="11.134617270489715"><ele>198.0</ele><time>2026-04-25T09:11:23.995Z</time></trkpt><trkpt lat="45.48518954724208" lon="11.13469505654226"><ele>198.0</ele><time>2026-04-25T09:11:24.995Z</time></trkpt><trkpt lat="45.48526730673047" lon="11.134793237405784"><ele>198.0</ele><time>2026-04-25T09:11:25.995Z</time></trkpt><trkpt lat="45.48533326883583" lon="11.134860651824871"><ele>198.0</ele><time>2026-04-25T09:11:26.995Z</time></trkpt><trkpt lat="45.48540982091565" lon="11.134926388637012"><ele>200.83333333333334</ele><time>2026-04-25T09:11:27.995Z</time></trkpt><trkpt lat="45.485481741347805" lon="11.134942997194921"><ele>203.66666666666669</ele><time>2026-04-25T09:11:28.995Z</time></trkpt><trkpt lat="45.485555666970114" lon="11.134888171262793"><ele>206.5</ele><time>2026-04-25T09:11:29.995Z</time></trkpt><trkpt lat="45.48561173527054" lon="11.134793813849184"><ele>209.33333333333334</ele><time>2026-04-25T09:11:30.995Z</time></trkpt><trkpt lat="45.485629902000014" lon="11.134663504155297"><ele>212.16666666666669</ele><time>2026-04-25T09:11:31.995Z</time></trkpt><trkpt lat="45.48559935872156" lon="11.134541338946018"><ele>215.0</ele><time>2026-04-25T09:11:32.995Z</time></trkpt><trkpt lat="45.48554286712495" lon="11.134448678141627"><ele>215.0</ele><time>2026-04-25T09:11:33.995Z</time></trkpt><trkpt lat="45.48549177207769" lon="11.134336293517654"><ele>215.0</ele><time>2026-04-25T09:11:34.995Z</time></trkpt><trkpt lat="45.48545311581945" lon="11.13423434714484"><ele>215.0</ele><time>2026-04-25T09:11:35.995Z</time></trkpt><trkpt lat="45.485417354072474" lon="11.134107563149481"><ele>215.0</ele><time>2026-04-25T09:11:36.995Z</time></trkpt><trkpt lat="45.485421210711806" lon="11.13395280723336"><ele>215.0</ele><time>2026-04-25T09:11:37.995Z</time></trkpt><trkpt lat="45.485437578820886" lon="11.133799358552714"><ele>215.4</ele><time>2026-04-25T09:11:38.995Z</time></trkpt><trkpt lat="45.48546691919993" lon="11.133634110139427"><ele>215.8</ele><time>2026-04-25T09:11:39.995Z</time></trkpt><trkpt lat="45.48550253001972" lon="11.133486942166373"><ele>216.2</ele><time>2026-04-25T09:11:40.995Z</time></trkpt><trkpt lat="45.48554658654433" lon="11.133364415480406"><ele>216.6</ele><time>2026-04-25T09:11:41.995Z</time></trkpt><trkpt lat="45.48558931921253" lon="11.133231364936414"><ele>217.0</ele><time>2026-04-25T09:11:42.995Z</time></trkpt><trkpt lat="45.485642560070026" lon="11.133086968380026"><ele>213.39999999999998</ele><time>2026-04-25T09:11:43.995Z</time></trkpt><trkpt lat="45.485721986263236" lon="11.132973757716204"><ele>209.79999999999998</ele><time>2026-04-25T09:11:44.995Z</time></trkpt><trkpt lat="45.48581533969766" lon="11.132895151590503"><ele>206.2</ele><time>2026-04-25T09:11:45.995Z</time></trkpt><trkpt lat="45.48591783328177" lon="11.132822212018691"><ele>202.6</ele><time>2026-04-25T09:11:46.995Z</time></trkpt><trkpt lat="45.48601268324883" lon="11.132816066733373"><ele>199.0</ele><time>2026-04-25T09:11:47.995Z</time></trkpt><trkpt lat="45.48613461802619" lon="11.13279284348543"><ele>199.0</ele><time>2026-04-25T09:11:48.995Z</time></trkpt><trkpt lat="45.486247005790425" lon="11.13277360764446"><ele>199.0</ele><time>2026-04-25T09:11:49.995Z</time></trkpt><trkpt lat="45.486366077075374" lon="11.132780882529262"><ele>199.0</ele><time>2026-04-25T09:11:50.995Z</time></trkpt><trkpt lat="45.48647690537859" lon="11.13279680760704"><ele>199.0</ele><time>2026-04-25T09:11:51.995Z</time></trkpt><trkpt lat="45.48659843701065" lon="11.132809037777696"><ele>202.5</ele><time>2026-04-25T09:11:52.995Z</time></trkpt><trkpt lat="45.48670960704164" lon="11.132791203269504"><ele>206.0</ele><time>2026-04-25T09:11:53.995Z</time></trkpt><trkpt lat="45.48684340108865" lon="11.132756651591844"><ele>209.5</ele><time>2026-04-25T09:11:54.995Z</time></trkpt><trkpt lat="45.48697818848754" lon="11.13270846323422"><ele>213.0</ele><time>2026-04-25T09:11:55.995Z</time></trkpt><trkpt lat="45.487094122647036" lon="11.132660915896102"><ele>217.5</ele><time>2026-04-25T09:11:56.995Z</time></trkpt><trkpt lat="45.48721863561747" lon="11.132618008881018"><ele>222.0</ele><time>2026-04-25T09:11:57.995Z</time></trkpt><trkpt lat="45.48736411675306" lon="11.132564509540316"><ele>226.5</ele><time>2026-04-25T09:11:58.995Z</time></trkpt><trkpt lat="45.48749841635624" lon="11.132506810425433"><ele>231.0</ele><time>2026-04-25T09:11:59.995Z</time></trkpt><trkpt lat="45.48762137706871" lon="11.132445714492432"><ele>229.75</ele><time>2026-04-25T09:12:00.996Z</time></trkpt><trkpt lat="45.48774685163993" lon="11.132368619686595"><ele>228.5</ele><time>2026-04-25T09:12:01.995Z</time></trkpt><trkpt lat="45.48787344579957" lon="11.132299962312205"><ele>227.25</ele><time>2026-04-25T09:12:02.995Z</time></trkpt><trkpt lat="45.48799988085373" lon="11.132194312159491"><ele>226.0</ele><time>2026-04-25T09:12:03.996Z</time></trkpt><trkpt lat="45.48811437120562" lon="11.132080140893539"><ele>226.0</ele><time>2026-04-25T09:12:04.995Z</time></trkpt><trkpt lat="45.48821771008253" lon="11.131950097802047"><ele>226.0</ele><time>2026-04-25T09:12:05.995Z</time></trkpt><trkpt lat="45.488308392371614" lon="11.131787528249173"><ele>226.0</ele><time>2026-04-25T09:12:06.996Z</time></trkpt><trkpt lat="45.4883890577949" lon="11.131642629791518"><ele>226.0</ele><time>2026-04-25T09:12:07.995Z</time></trkpt><trkpt lat="45.48846315585422" lon="11.131503174096723"><ele>224.0</ele><time>2026-04-25T09:12:08.995Z</time></trkpt><trkpt lat="45.48854486311842" lon="11.131413161654981"><ele>222.0</ele><time>2026-04-25T09:12:09.995Z</time></trkpt><trkpt lat="45.48864295625248" lon="11.131333110830672"><ele>220.0</ele><time>2026-04-25T09:12:10.995Z</time></trkpt><trkpt lat="45.48876382543147" lon="11.13129002791755"><ele>218.0</ele><time>2026-04-25T09:12:11.995Z</time></trkpt><trkpt lat="45.48887060223329" lon="11.131234093498637"><ele>218.0</ele><time>2026-04-25T09:12:12.996Z</time></trkpt><trkpt lat="45.48898673614244" lon="11.131166520150469"><ele>218.0</ele><time>2026-04-25T09:12:13.996Z</time></trkpt><trkpt lat="45.489102759555536" lon="11.131088573737639"><ele>218.0</ele><time>2026-04-25T09:12:14.996Z</time></trkpt><trkpt lat="45.48921141395095" lon="11.131022177019114"><ele>218.0</ele><time>2026-04-25T09:12:15.996Z</time></trkpt><trkpt lat="45.48932016041178" lon="11.130971484458076"><ele>218.0</ele><time>2026-04-25T09:12:16.996Z</time></trkpt><trkpt lat="45.48943224416975" lon="11.130958118582116"><ele>218.0</ele><time>2026-04-25T09:12:17.996Z</time></trkpt><trkpt lat="45.489551061393705" lon="11.130956335953652"><ele>218.0</ele><time>2026-04-25T09:12:18.996Z</time></trkpt><trkpt lat="45.48967688333641" lon="11.130974292238685"><ele>218.0</ele><time>2026-04-25T09:12:19.996Z</time></trkpt><trkpt lat="45.48979933189527" lon="11.130985547129137"><ele>217.50000000000003</ele><time>2026-04-25T09:12:20.996Z</time></trkpt><trkpt lat="45.489900326412716" lon="11.131009662880038"><ele>217.0</ele><time>2026-04-25T09:12:21.996Z</time></trkpt><trkpt lat="45.489978941830394" lon="11.131038297812154"><ele>216.5</ele><time>2026-04-25T09:12:22.996Z</time></trkpt><trkpt lat="45.49005320594016" lon="11.131094928824176"><ele>216.0</ele><time>2026-04-25T09:12:23.996Z</time></trkpt><trkpt lat="45.49011012660533" lon="11.131178813073104"><ele>215.50000000000003</ele><time>2026-04-25T09:12:24.996Z</time></trkpt><trkpt lat="45.49014832814151" lon="11.131267832299097"><ele>215.0</ele><time>2026-04-25T09:12:25.996Z</time></trkpt><trkpt lat="45.490179002988704" lon="11.131377346781402"><ele>215.0</ele><time>2026-04-25T09:12:26.996Z</time></trkpt><trkpt lat="45.490197563553664" lon="11.13149669386258"><ele>215.0</ele><time>2026-04-25T09:12:27.996Z</time></trkpt><trkpt lat="45.490194420287615" lon="11.131608055207739"><ele>215.0</ele><time>2026-04-25T09:12:28.996Z</time></trkpt><trkpt lat="45.49018656711169" lon="11.131759121091386"><ele>215.0</ele><time>2026-04-25T09:12:29.996Z</time></trkpt><trkpt lat="45.490150810974995" lon="11.131969965855049"><ele>215.0</ele><time>2026-04-25T09:12:30.996Z</time></trkpt><trkpt lat="45.49011559958842" lon="11.132173462957295"><ele>217.6</ele><time>2026-04-25T09:12:31.996Z</time></trkpt><trkpt lat="45.490076515743645" lon="11.132336698575447"><ele>220.2</ele><time>2026-04-25T09:12:32.996Z</time></trkpt><trkpt lat="45.49005259308017" lon="11.13249651342018"><ele>222.8</ele><time>2026-04-25T09:12:33.996Z</time></trkpt><trkpt lat="45.49001106650818" lon="11.132625700610067"><ele>225.4</ele><time>2026-04-25T09:12:34.996Z</time></trkpt><trkpt lat="45.489977728606796" lon="11.132766007449238"><ele>228.0</ele><time>2026-04-25T09:12:35.996Z</time></trkpt><trkpt lat="45.48999560223846" lon="11.132942460446898"><ele>228.66666666666669</ele><time>2026-04-25T09:12:36.996Z</time></trkpt><trkpt lat="45.490028391160614" lon="11.133143589508068"><ele>229.33333333333334</ele><time>2026-04-25T09:12:37.996Z</time></trkpt><trkpt lat="45.49006863229022" lon="11.133364271336918"><ele>230.0</ele><time>2026-04-25T09:12:38.996Z</time></trkpt><trkpt lat="45.490103654069586" lon="11.133577001742925"><ele>230.25</ele><time>2026-04-25T09:12:39.996Z</time></trkpt><trkpt lat="45.49015384797877" lon="11.133780122753812"><ele>230.5</ele><time>2026-04-25T09:12:40.996Z</time></trkpt><trkpt lat="45.49019840843676" lon="11.13396955687055"><ele>230.75</ele><time>2026-04-25T09:12:41.996Z</time></trkpt><trkpt lat="45.49022351827276" lon="11.134133795559896"><ele>231.0</ele><time>2026-04-25T09:12:42.995Z</time></trkpt><trkpt lat="45.490236848275394" lon="11.134301248470988"><ele>231.4</ele><time>2026-04-25T09:12:43.995Z</time></trkpt><trkpt lat="45.490242297568564" lon="11.13447562738824"><ele>231.8</ele><time>2026-04-25T09:12:44.995Z</time></trkpt><trkpt lat="45.4902497346059" lon="11.134628093802215"><ele>232.20000000000002</ele><time>2026-04-25T09:12:45.995Z</time></trkpt><trkpt lat="45.49028070008055" lon="11.134736614577776"><ele>232.60000000000002</ele><time>2026-04-25T09:12:46.995Z</time></trkpt><trkpt lat="45.49029152868773" lon="11.13483972875843"><ele>233.0</ele><time>2026-04-25T09:12:47.995Z</time></trkpt><trkpt lat="45.490246343136675" lon="11.13505317292994"><ele>233.0</ele><time>2026-04-25T09:12:49.995Z</time></trkpt><trkpt lat="45.49021908951049" lon="11.135193191063587"><ele>233.0</ele><time>2026-04-25T09:12:50.995Z</time></trkpt><trkpt lat="45.49016680126035" lon="11.135328729746055"><ele>233.0</ele><time>2026-04-25T09:12:51.995Z</time></trkpt><trkpt lat="45.490106394099875" lon="11.135446725569409"><ele>233.0</ele><time>2026-04-25T09:12:52.995Z</time></trkpt><trkpt lat="45.49003870818587" lon="11.135565704673649"><ele>233.0</ele><time>2026-04-25T09:12:53.995Z</time></trkpt><trkpt lat="45.48997682583569" lon="11.135689279362538"><ele>231.0</ele><time>2026-04-25T09:12:54.995Z</time></trkpt><trkpt lat="45.48989732079296" lon="11.135824038172203"><ele>229.0</ele><time>2026-04-25T09:12:55.995Z</time></trkpt><trkpt lat="45.48982867502783" lon="11.135940100716962"><ele>227.0</ele><time>2026-04-25T09:12:56.995Z</time></trkpt><trkpt lat="45.4898203098845" lon="11.136078698444582"><ele>225.0</ele><time>2026-04-25T09:12:57.995Z</time></trkpt><trkpt lat="45.48983166791743" lon="11.136277380416201"><ele>225.0</ele><time>2026-04-25T09:12:59.995Z</time></trkpt><trkpt lat="45.48984052633622" lon="11.136400331163355"><ele>225.0</ele><time>2026-04-25T09:13:00.995Z</time></trkpt><trkpt lat="45.48980412066608" lon="11.13654994919976"><ele>225.0</ele><time>2026-04-25T09:13:01.995Z</time></trkpt><trkpt lat="45.48973378015334" lon="11.136695936259697"><ele>225.0</ele><time>2026-04-25T09:13:02.995Z</time></trkpt><trkpt lat="45.48967695636991" lon="11.136852611057499"><ele>225.0</ele><time>2026-04-25T09:13:03.995Z</time></trkpt><trkpt lat="45.489653004838004" lon="11.137001786646653"><ele>225.5</ele><time>2026-04-25T09:13:04.995Z</time></trkpt><trkpt lat="45.48965488540052" lon="11.137168166027898"><ele>226.0</ele><time>2026-04-25T09:13:05.995Z</time></trkpt><trkpt lat="45.489675145295266" lon="11.137355411747777"><ele>226.5</ele><time>2026-04-25T09:13:06.995Z</time></trkpt><trkpt lat="45.48969316552389" lon="11.137550830734932"><ele>227.0</ele><time>2026-04-25T09:13:07.995Z</time></trkpt><trkpt lat="45.48970738022151" lon="11.137779818090221"><ele>229.0</ele><time>2026-04-25T09:13:08.995Z</time></trkpt><trkpt lat="45.48974013714438" lon="11.137988423834113"><ele>231.0</ele><time>2026-04-25T09:13:09.995Z</time></trkpt><trkpt lat="45.4897606655293" lon="11.138186309774072"><ele>233.0</ele><time>2026-04-25T09:13:10.995Z</time></trkpt><trkpt lat="45.48977021950757" lon="11.138357141221991"><ele>235.0</ele><time>2026-04-25T09:13:11.995Z</time></trkpt><trkpt lat="45.48977244298679" lon="11.13852972403049"><ele>235.0</ele><time>2026-04-25T09:13:12.995Z</time></trkpt><trkpt lat="45.48979633289712" lon="11.138725391129322"><ele>235.0</ele><time>2026-04-25T09:13:13.995Z</time></trkpt><trkpt lat="45.48981335801321" lon="11.138902317030952"><ele>235.0</ele><time>2026-04-25T09:13:14.995Z</time></trkpt><trkpt lat="45.48982130619755" lon="11.139048870635357"><ele>235.0</ele><time>2026-04-25T09:13:15.995Z</time></trkpt><trkpt lat="45.48983459575682" lon="11.139171167355775"><ele>236.0</ele><time>2026-04-25T09:13:16.995Z</time></trkpt><trkpt lat="45.4899023879681" lon="11.13934547109629"><ele>237.0</ele><time>2026-04-25T09:13:18.995Z</time></trkpt><trkpt lat="45.48994256997647" lon="11.139560145087104"><ele>238.0</ele><time>2026-04-25T09:13:19.995Z</time></trkpt><trkpt lat="45.48996716137969" lon="11.139780066674147"><ele>239.60000000000002</ele><time>2026-04-25T09:13:20.995Z</time></trkpt><trkpt lat="45.489988058997206" lon="11.139969875692053"><ele>241.20000000000002</ele><time>2026-04-25T09:13:21.995Z</time></trkpt><trkpt lat="45.489990559241704" lon="11.140122816261108"><ele>242.8</ele><time>2026-04-25T09:13:22.995Z</time></trkpt><trkpt lat="45.48999795477428" lon="11.140249173989064"><ele>244.4</ele><time>2026-04-25T09:13:23.995Z</time></trkpt><trkpt lat="45.49003077397981" lon="11.140338219775726"><ele>246.0</ele><time>2026-04-25T09:13:24.995Z</time></trkpt><trkpt lat="45.49010212604347" lon="11.140434143809575"><ele>246.0</ele><time>2026-04-25T09:13:25.995Z</time></trkpt><trkpt lat="45.49016608706071" lon="11.140540781520002"><ele>246.0</ele><time>2026-04-25T09:13:26.995Z</time></trkpt><trkpt lat="45.49021427798156" lon="11.14062084496496"><ele>246.0</ele><time>2026-04-25T09:13:27.995Z</time></trkpt><trkpt lat="45.49026730002184" lon="11.140696798412957"><ele>246.0</ele><time>2026-04-25T09:13:28.995Z</time></trkpt><trkpt lat="45.490337861647326" lon="11.140746528101461"><ele>246.0</ele><time>2026-04-25T09:13:29.995Z</time></trkpt><trkpt lat="45.49041816490422" lon="11.140719959920883"><ele>246.0</ele><time>2026-04-25T09:13:30.995Z</time></trkpt><trkpt lat="45.490526910567375" lon="11.140666142194883"><ele>247.5</ele><time>2026-04-25T09:13:31.995Z</time></trkpt><trkpt lat="45.49063726512701" lon="11.140573901733406"><ele>249.0</ele><time>2026-04-25T09:13:32.995Z</time></trkpt><trkpt lat="45.49073130368175" lon="11.140488485675942"><ele>250.5</ele><time>2026-04-25T09:13:33.995Z</time></trkpt><trkpt lat="45.49086217892812" lon="11.140377264042918"><ele>252.0</ele><time>2026-04-25T09:13:34.995Z</time></trkpt><trkpt lat="45.49096310691972" lon="11.140277819431773"><ele>252.0</ele><time>2026-04-25T09:13:35.995Z</time></trkpt><trkpt lat="45.49107745640422" lon="11.140181442141019"><ele>252.0</ele><time>2026-04-25T09:13:36.995Z</time></trkpt><trkpt lat="45.49120400688467" lon="11.140117837089111"><ele>252.0</ele><time>2026-04-25T09:13:37.995Z</time></trkpt><trkpt lat="45.49130483823378" lon="11.140063602653507"><ele>252.0</ele><time>2026-04-25T09:13:38.995Z</time></trkpt><trkpt lat="45.491380069979066" lon="11.140036396805185"><ele>255.6</ele><time>2026-04-25T09:13:39.995Z</time></trkpt><trkpt lat="45.4914552756953" lon="11.1400630112554"><ele>259.2</ele><time>2026-04-25T09:13:40.995Z</time></trkpt><trkpt lat="45.49152067045716" lon="11.140142539582808"><ele>262.8</ele><time>2026-04-25T09:13:41.995Z</time></trkpt><trkpt lat="45.4915814989229" lon="11.140257035304643"><ele>266.4</ele><time>2026-04-25T09:13:42.995Z</time></trkpt><trkpt lat="45.49165689931799" lon="11.140329558461307"><ele>270.0</ele><time>2026-04-25T09:13:43.995Z</time></trkpt><trkpt lat="45.49176359206836" lon="11.14037996281336"><ele>270.0</ele><time>2026-04-25T09:13:44.995Z</time></trkpt><trkpt lat="45.49186520544506" lon="11.140412899010407"><ele>270.0</ele><time>2026-04-25T09:13:45.995Z</time></trkpt><trkpt lat="45.491986256441955" lon="11.140478675626115"><ele>270.0</ele><time>2026-04-25T09:13:46.995Z</time></trkpt><trkpt lat="45.49210629818824" lon="11.140569824066958"><ele>270.0</ele><time>2026-04-25T09:13:47.995Z</time></trkpt><trkpt lat="45.49219130003269" lon="11.140661422222593"><ele>275.4</ele><time>2026-04-25T09:13:48.995Z</time></trkpt><trkpt lat="45.49226327186986" lon="11.14079179085872"><ele>280.8</ele><time>2026-04-25T09:13:49.995Z</time></trkpt><trkpt lat="45.49233201129106" lon="11.140918464931168"><ele>286.2</ele><time>2026-04-25T09:13:50.995Z</time></trkpt><trkpt lat="45.492416257124226" lon="11.141018470087726"><ele>291.6</ele><time>2026-04-25T09:13:51.995Z</time></trkpt><trkpt lat="45.492478387194076" lon="11.141121007412595"><ele>297.0</ele><time>2026-04-25T09:13:52.995Z</time></trkpt><trkpt lat="45.49250587258623" lon="11.141229558828675"><ele>297.0</ele><time>2026-04-25T09:13:53.995Z</time></trkpt><trkpt lat="45.49250294516891" lon="11.141363629665925"><ele>297.0</ele><time>2026-04-25T09:13:54.995Z</time></trkpt><trkpt lat="45.492534862475914" lon="11.141482910793242"><ele>297.0</ele><time>2026-04-25T09:13:55.995Z</time></trkpt><trkpt lat="45.49257251805906" lon="11.141621087902855"><ele>297.0</ele><time>2026-04-25T09:13:56.995Z</time></trkpt><trkpt lat="45.49260114897996" lon="11.141734440059786"><ele>297.0</ele><time>2026-04-25T09:13:57.995Z</time></trkpt><trkpt lat="45.49267168600832" lon="11.141825164111301"><ele>297.2</ele><time>2026-04-25T09:13:59.995Z</time></trkpt><trkpt lat="45.492803726333776" lon="11.141792361013717"><ele>297.4</ele><time>2026-04-25T09:14:01.995Z</time></trkpt><trkpt lat="45.49290070375387" lon="11.141782343668812"><ele>297.6</ele><time>2026-04-25T09:14:02.995Z</time></trkpt><trkpt lat="45.49299285708926" lon="11.141745436590153"><ele>297.8</ele><time>2026-04-25T09:14:03.995Z</time></trkpt><trkpt lat="45.493087328735875" lon="11.14166862164421"><ele>298.0</ele><time>2026-04-25T09:14:04.995Z</time></trkpt><trkpt lat="45.493172610488784" lon="11.141627842258217"><ele>301.25</ele><time>2026-04-25T09:14:05.995Z</time></trkpt><trkpt lat="45.49327590096331" lon="11.141603097759488"><ele>304.5</ele><time>2026-04-25T09:14:06.995Z</time></trkpt><trkpt lat="45.49340216003156" lon="11.141586743508462"><ele>307.75</ele><time>2026-04-25T09:14:07.995Z</time></trkpt><trkpt lat="45.493539163594356" lon="11.141537454765002"><ele>311.0</ele><time>2026-04-25T09:14:08.996Z</time></trkpt><trkpt lat="45.49366856896896" lon="11.141511231327707"><ele>314.0</ele><time>2026-04-25T09:14:09.995Z</time></trkpt><trkpt lat="45.4937867412828" lon="11.141443764093758"><ele>317.0</ele><time>2026-04-25T09:14:10.995Z</time></trkpt><trkpt lat="45.49388674383573" lon="11.141364596132822"><ele>320.0</ele><time>2026-04-25T09:14:11.995Z</time></trkpt><trkpt lat="45.49396604218481" lon="11.14131617894214"><ele>323.0</ele><time>2026-04-25T09:14:12.996Z</time></trkpt><trkpt lat="45.494031068631685" lon="11.141260581595805"><ele>326.0</ele><time>2026-04-25T09:14:13.996Z</time></trkpt><trkpt lat="45.49408154537007" lon="11.141206210768411"><ele>326.0</ele><time>2026-04-25T09:14:14.996Z</time></trkpt><trkpt lat="45.49414530549642" lon="11.14121581532029"><ele>326.0</ele><time>2026-04-25T09:14:18.995Z</time></trkpt><trkpt lat="45.494087605024006" lon="11.14132079921027"><ele>326.0</ele><time>2026-04-25T09:14:20.995Z</time></trkpt><trkpt lat="45.49403263457773" lon="11.141474489458625"><ele>326.0</ele><time>2026-04-25T09:14:22.995Z</time></trkpt><trkpt lat="45.49396442556807" lon="11.141638513065772"><ele>326.0</ele><time>2026-04-25T09:14:24.995Z</time></trkpt><trkpt lat="45.49393879458546" lon="11.14173956797711"><ele>326.4</ele><time>2026-04-25T09:14:25.995Z</time></trkpt><trkpt lat="45.49389939088807" lon="11.141847220553542"><ele>326.8</ele><time>2026-04-25T09:14:26.995Z</time></trkpt><trkpt lat="45.493866681752415" lon="11.141981625039"><ele>327.2</ele><time>2026-04-25T09:14:27.995Z</time></trkpt><trkpt lat="45.4938304034172" lon="11.142120241050547"><ele>327.59999999999997</ele><time>2026-04-25T09:14:28.995Z</time></trkpt><trkpt lat="45.4937907138188" lon="11.14224762216587"><ele>328.0</ele><time>2026-04-25T09:14:29.995Z</time></trkpt><trkpt lat="45.49374778685226" lon="11.142394042668432"><ele>324.25</ele><time>2026-04-25T09:14:30.995Z</time></trkpt><trkpt lat="45.493696264776496" lon="11.142566419075546"><ele>320.5</ele><time>2026-04-25T09:14:31.995Z</time></trkpt><trkpt lat="45.493663513773285" lon="11.142763720324652"><ele>316.75</ele><time>2026-04-25T09:14:32.995Z</time></trkpt><trkpt lat="45.493620760398755" lon="11.142929334273456"><ele>313.0</ele><time>2026-04-25T09:14:33.995Z</time></trkpt><trkpt lat="45.49360858149104" lon="11.143056331284"><ele>313.0</ele><time>2026-04-25T09:14:34.995Z</time></trkpt><trkpt lat="45.49360498099909" lon="11.14315555172236"><ele>313.0</ele><time>2026-04-25T09:14:35.995Z</time></trkpt><trkpt lat="45.493669583405236" lon="11.143315229962933"><ele>313.0</ele><time>2026-04-25T09:14:37.995Z</time></trkpt><trkpt lat="45.4936975732787" lon="11.143415469319562"><ele>313.0</ele><time>2026-04-25T09:14:38.995Z</time></trkpt><trkpt lat="45.49370063279288" lon="11.143528501775863"><ele>313.0</ele><time>2026-04-25T09:14:40.995Z</time></trkpt><trkpt lat="45.49356798800064" lon="11.143565722942313"><ele>315.5</ele><time>2026-04-25T09:14:42.995Z</time></trkpt><trkpt lat="45.49345341153231" lon="11.143563630491828"><ele>318.0</ele><time>2026-04-25T09:14:43.995Z</time></trkpt><trkpt lat="45.49332030544151" lon="11.143575179825287"><ele>320.5</ele><time>2026-04-25T09:14:44.995Z</time></trkpt><trkpt lat="45.493201231621235" lon="11.143617314649745"><ele>323.0</ele><time>2026-04-25T09:14:45.995Z</time></trkpt><trkpt lat="45.493066523974804" lon="11.14368625732884"><ele>323.0</ele><time>2026-04-25T09:14:46.995Z</time></trkpt><trkpt lat="45.49294656971609" lon="11.143729872400614"><ele>323.0</ele><time>2026-04-25T09:14:47.995Z</time></trkpt><trkpt lat="45.49285366059859" lon="11.143752180718034"><ele>323.0</ele><time>2026-04-25T09:14:48.995Z</time></trkpt><trkpt lat="45.49274945390547" lon="11.143722876901723"><ele>323.0</ele><time>2026-04-25T09:14:49.995Z</time></trkpt><trkpt lat="45.492646661947504" lon="11.143706596503117"><ele>323.0</ele><time>2026-04-25T09:14:50.995Z</time></trkpt><trkpt lat="45.49257357924855" lon="11.143716880172457"><ele>322.1666666666667</ele><time>2026-04-25T09:14:51.995Z</time></trkpt><trkpt lat="45.49248771046224" lon="11.143739386959634"><ele>321.33333333333337</ele><time>2026-04-25T09:14:52.995Z</time></trkpt><trkpt lat="45.4924069916755" lon="11.143771961229538"><ele>320.5</ele><time>2026-04-25T09:14:53.995Z</time></trkpt><trkpt lat="45.49231900896486" lon="11.143817464108622"><ele>319.6666666666667</ele><time>2026-04-25T09:14:54.995Z</time></trkpt><trkpt lat="45.49224096747322" lon="11.14384709795914"><ele>318.8333333333333</ele><time>2026-04-25T09:14:55.995Z</time></trkpt><trkpt lat="45.49215542635244" lon="11.143907723583736"><ele>318.0</ele><time>2026-04-25T09:14:56.995Z</time></trkpt><trkpt lat="45.492081947269135" lon="11.143904016324555"><ele>318.0</ele><time>2026-04-25T09:14:57.994Z</time></trkpt><trkpt lat="45.49200332094494" lon="11.143908314873388"><ele>318.0</ele><time>2026-04-25T09:14:58.994Z</time></trkpt><trkpt lat="45.49193408779817" lon="11.143927490946334"><ele>318.0</ele><time>2026-04-25T09:14:59.994Z</time></trkpt><trkpt lat="45.49186564146875" lon="11.143971950579223"><ele>318.0</ele><time>2026-04-25T09:15:00.994Z</time></trkpt><trkpt lat="45.49179383928101" lon="11.144025063988137"><ele>318.0</ele><time>2026-04-25T09:15:01.994Z</time></trkpt><trkpt lat="45.49173310563298" lon="11.14409360556279"><ele>318.0</ele><time>2026-04-25T09:15:02.994Z</time></trkpt><trkpt lat="45.491669109276174" lon="11.14420033705201"><ele>322.0</ele><time>2026-04-25T09:15:03.994Z</time></trkpt><trkpt lat="45.491606870443704" lon="11.14431333437698"><ele>326.0</ele><time>2026-04-25T09:15:04.994Z</time></trkpt><trkpt lat="45.491567721383475" lon="11.144388310562006"><ele>330.0</ele><time>2026-04-25T09:15:05.994Z</time></trkpt><trkpt lat="45.49150843039506" lon="11.144460777362324"><ele>334.0</ele><time>2026-04-25T09:15:07.994Z</time></trkpt><trkpt lat="45.49143557229022" lon="11.144407219497953"><ele>338.0</ele><time>2026-04-25T09:15:10.994Z</time></trkpt><trkpt lat="45.491367005602285" lon="11.14435885180728"><ele>342.0</ele><time>2026-04-25T09:15:12.994Z</time></trkpt><trkpt lat="45.491267649215416" lon="11.144343397256476"><ele>341.6</ele><time>2026-04-25T09:15:14.994Z</time></trkpt><trkpt lat="45.49120652212356" lon="11.144314006544796"><ele>341.20000000000005</ele><time>2026-04-25T09:15:15.994Z</time></trkpt><trkpt lat="45.49115224956906" lon="11.144259041225135"><ele>340.8</ele><time>2026-04-25T09:15:16.994Z</time></trkpt><trkpt lat="45.49103353744509" lon="11.144240297448674"><ele>340.4</ele><time>2026-04-25T09:15:18.994Z</time></trkpt><trkpt lat="45.490923131134686" lon="11.144237571781588"><ele>340.0</ele><time>2026-04-25T09:15:20.994Z</time></trkpt><trkpt lat="45.49081618238998" lon="11.144277781129478"><ele>340.0</ele><time>2026-04-25T09:15:22.994Z</time></trkpt><trkpt lat="45.49071253744253" lon="11.144331124547925"><ele>340.0</ele><time>2026-04-25T09:15:24.994Z</time></trkpt><trkpt lat="45.49064209008174" lon="11.144366684841197"><ele>340.0</ele><time>2026-04-25T09:15:25.994Z</time></trkpt><trkpt lat="45.49052010653204" lon="11.14443892026298"><ele>340.0</ele><time>2026-04-25T09:15:27.994Z</time></trkpt><trkpt lat="45.49043141118912" lon="11.14451783520593"><ele>340.0</ele><time>2026-04-25T09:15:29.994Z</time></trkpt><trkpt lat="45.490364937042024" lon="11.144637241574557"><ele>341.0</ele><time>2026-04-25T09:15:31.994Z</time></trkpt><trkpt lat="45.490321559961814" lon="11.144751483753494"><ele>342.0</ele><time>2026-04-25T09:15:33.994Z</time></trkpt><trkpt lat="45.490293601557475" lon="11.144858064943719"><ele>343.0</ele><time>2026-04-25T09:15:35.994Z</time></trkpt><trkpt lat="45.49021532472905" lon="11.144902098820394"><ele>344.0</ele><time>2026-04-25T09:15:37.994Z</time></trkpt><trkpt lat="45.490163849970465" lon="11.144808689914552"><ele>345.0</ele><time>2026-04-25T09:15:39.994Z</time></trkpt><trkpt lat="45.4901267862198" lon="11.144685233708667"><ele>346.0</ele><time>2026-04-25T09:15:40.994Z</time></trkpt><trkpt lat="45.49009773171117" lon="11.144559914031623"><ele>346.0</ele><time>2026-04-25T09:15:41.994Z</time></trkpt><trkpt lat="45.49005020286026" lon="11.144451224204015"><ele>346.0</ele><time>2026-04-25T09:15:42.994Z</time></trkpt><trkpt lat="45.48999755988746" lon="11.144345554657399"><ele>346.0</ele><time>2026-04-25T09:15:43.994Z</time></trkpt><trkpt lat="45.48994894990222" lon="11.144272042407582"><ele>346.0</ele><time>2026-04-25T09:15:44.994Z</time></trkpt><trkpt lat="45.489813814438" lon="11.14425678725561"><ele>346.0</ele><time>2026-04-25T09:15:47.994Z</time></trkpt><trkpt lat="45.489702877496114" lon="11.144289360990957"><ele>348.20000000000005</ele><time>2026-04-25T09:15:48.994Z</time></trkpt><trkpt lat="45.489587428911044" lon="11.144325283194384"><ele>350.40000000000003</ele><time>2026-04-25T09:15:49.994Z</time></trkpt><trkpt lat="45.489511835618885" lon="11.144340496421341"><ele>352.6</ele><time>2026-04-25T09:15:50.994Z</time></trkpt><trkpt lat="45.489373372224804" lon="11.144242006004337"><ele>354.8</ele><time>2026-04-25T09:15:52.994Z</time></trkpt><trkpt lat="45.48930356633041" lon="11.14417496309521"><ele>357.0</ele><time>2026-04-25T09:15:54.994Z</time></trkpt><trkpt lat="45.48924924950189" lon="11.144228151173243"><ele>357.0</ele><time>2026-04-25T09:15:56.994Z</time></trkpt><trkpt lat="45.48931225338642" lon="11.14434222107884"><ele>357.0</ele><time>2026-04-25T09:15:58.994Z</time></trkpt><trkpt lat="45.489386252174526" lon="11.144372756057379"><ele>357.0</ele><time>2026-04-25T09:15:59.994Z</time></trkpt><trkpt lat="45.489450832399584" lon="11.144417150664518"><ele>357.0</ele><time>2026-04-25T09:16:00.994Z</time></trkpt><trkpt lat="45.48953060378817" lon="11.144434808430843"><ele>357.0</ele><time>2026-04-25T09:16:01.994Z</time></trkpt><trkpt lat="45.489649282568344" lon="11.144435517165041"><ele>359.0</ele><time>2026-04-25T09:16:03.994Z</time></trkpt><trkpt lat="45.48971790422021" lon="11.144438535293666"><ele>361.0</ele><time>2026-04-25T09:16:04.994Z</time></trkpt><trkpt lat="45.4898248149769" lon="11.14457187972585"><ele>363.0</ele><time>2026-04-25T09:16:06.994Z</time></trkpt><trkpt lat="45.489881032131755" lon="11.144693809572145"><ele>365.0</ele><time>2026-04-25T09:16:07.994Z</time></trkpt><trkpt lat="45.48992719016867" lon="11.144844579141532"><ele>367.0</ele><time>2026-04-25T09:16:08.994Z</time></trkpt><trkpt lat="45.48998716005249" lon="11.14498957250581"><ele>367.0</ele><time>2026-04-25T09:16:09.994Z</time></trkpt><trkpt lat="45.49004994901579" lon="11.14511115070167"><ele>367.0</ele><time>2026-04-25T09:16:10.994Z</time></trkpt><trkpt lat="45.49008257413955" lon="11.145214074738098"><ele>367.0</ele><time>2026-04-25T09:16:11.995Z</time></trkpt><trkpt lat="45.49010194770156" lon="11.145304195237385"><ele>367.0</ele><time>2026-04-25T09:16:12.995Z</time></trkpt><trkpt lat="45.49021007608249" lon="11.145358408952882"><ele>367.0</ele><time>2026-04-25T09:16:14.995Z</time></trkpt><trkpt lat="45.4902940902918" lon="11.145325943388958"><ele>367.0</ele><time>2026-04-25T09:16:15.995Z</time></trkpt><trkpt lat="45.49036638975834" lon="11.145257470029144"><ele>367.0</ele><time>2026-04-25T09:16:16.995Z</time></trkpt><trkpt lat="45.49044019493759" lon="11.145199556113905"><ele>367.0</ele><time>2026-04-25T09:16:17.995Z</time></trkpt><trkpt lat="45.490519974321344" lon="11.145162677232554"><ele>367.0</ele><time>2026-04-25T09:16:18.995Z</time></trkpt><trkpt lat="45.49060063399057" lon="11.145162103148119"><ele>367.0</ele><time>2026-04-25T09:16:19.995Z</time></trkpt><trkpt lat="45.4906987662266" lon="11.14518035582015"><ele>367.0</ele><time>2026-04-25T09:16:20.996Z</time></trkpt><trkpt lat="45.490784521129235" lon="11.145202402223278"><ele>366.25</ele><time>2026-04-25T09:16:21.995Z</time></trkpt><trkpt lat="45.49089330883974" lon="11.145235896289224"><ele>365.5</ele><time>2026-04-25T09:16:22.995Z</time></trkpt><trkpt lat="45.49101910982443" lon="11.145245279627279"><ele>364.75</ele><time>2026-04-25T09:16:23.995Z</time></trkpt><trkpt lat="45.491132356414965" lon="11.145205661840995"><ele>364.0</ele><time>2026-04-25T09:16:24.995Z</time></trkpt><trkpt lat="45.49124843941562" lon="11.145199111418947"><ele>364.25</ele><time>2026-04-25T09:16:25.995Z</time></trkpt><trkpt lat="45.49136913861693" lon="11.145214368869748"><ele>364.5</ele><time>2026-04-25T09:16:26.995Z</time></trkpt><trkpt lat="45.49152538358895" lon="11.14522037815178"><ele>364.75</ele><time>2026-04-25T09:16:27.995Z</time></trkpt><trkpt lat="45.491677060875965" lon="11.145200863644854"><ele>365.0</ele><time>2026-04-25T09:16:28.995Z</time></trkpt><trkpt lat="45.49180315060255" lon="11.145151514172666"><ele>365.0</ele><time>2026-04-25T09:16:29.995Z</time></trkpt><trkpt lat="45.49193834960464" lon="11.145085684152722"><ele>365.0</ele><time>2026-04-25T09:16:30.995Z</time></trkpt><trkpt lat="45.49204711204294" lon="11.145007596419468"><ele>365.0</ele><time>2026-04-25T09:16:31.995Z</time></trkpt><trkpt lat="45.49214684284803" lon="11.144920085629712"><ele>365.0</ele><time>2026-04-25T09:16:32.995Z</time></trkpt><trkpt lat="45.492251930170006" lon="11.144833517597313"><ele>361.0</ele><time>2026-04-25T09:16:33.995Z</time></trkpt><trkpt lat="45.492366800182495" lon="11.144764894665627"><ele>357.0</ele><time>2026-04-25T09:16:34.995Z</time></trkpt><trkpt lat="45.492511424169095" lon="11.144705065372989"><ele>353.0</ele><time>2026-04-25T09:16:35.995Z</time></trkpt><trkpt lat="45.492664268791" lon="11.144656027247828"><ele>349.0</ele><time>2026-04-25T09:16:36.995Z</time></trkpt><trkpt lat="45.49281154797666" lon="11.144634503353515"><ele>350.0</ele><time>2026-04-25T09:16:37.995Z</time></trkpt><trkpt lat="45.49295139773265" lon="11.144590114344492"><ele>351.0</ele><time>2026-04-25T09:16:38.995Z</time></trkpt><trkpt lat="45.493070961734624" lon="11.144572170017195"><ele>352.0</ele><time>2026-04-25T09:16:39.995Z</time></trkpt><trkpt lat="45.49320860263466" lon="11.144569536036016"><ele>353.0</ele><time>2026-04-25T09:16:40.995Z</time></trkpt><trkpt lat="45.49335195637099" lon="11.144548166111285"><ele>353.0</ele><time>2026-04-25T09:16:41.995Z</time></trkpt><trkpt lat="45.49348224473933" lon="11.144507411866371"><ele>353.0</ele><time>2026-04-25T09:16:42.995Z</time></trkpt><trkpt lat="45.49360132920306" lon="11.144480638113889"><ele>353.0</ele><time>2026-04-25T09:16:43.995Z</time></trkpt><trkpt lat="45.49369216600455" lon="11.144430885628742"><ele>353.0</ele><time>2026-04-25T09:16:44.995Z</time></trkpt><trkpt lat="45.493791473501076" lon="11.144407847454312"><ele>355.6666666666667</ele><time>2026-04-25T09:16:45.995Z</time></trkpt><trkpt lat="45.49387000837083" lon="11.144403260901948"><ele>358.33333333333337</ele><time>2026-04-25T09:16:46.995Z</time></trkpt><trkpt lat="45.493947682871" lon="11.144325288103328"><ele>361.0</ele><time>2026-04-25T09:16:47.995Z</time></trkpt><trkpt lat="45.49403009714532" lon="11.144277458191562"><ele>363.6666666666667</ele><time>2026-04-25T09:16:48.995Z</time></trkpt><trkpt lat="45.49411238873188" lon="11.1442224169287"><ele>366.3333333333333</ele><time>2026-04-25T09:16:49.995Z</time></trkpt><trkpt lat="45.49418443078954" lon="11.144189088983222"><ele>369.0</ele><time>2026-04-25T09:16:50.995Z</time></trkpt><trkpt lat="45.49425263466065" lon="11.144130378408658"><ele>369.0</ele><time>2026-04-25T09:16:51.995Z</time></trkpt><trkpt lat="45.49434187009097" lon="11.144140392069477"><ele>369.0</ele><time>2026-04-25T09:16:53.995Z</time></trkpt><trkpt lat="45.49433087079091" lon="11.14424363611789"><ele>369.0</ele><time>2026-04-25T09:16:55.995Z</time></trkpt><trkpt lat="45.49429002648386" lon="11.144318519285154"><ele>369.0</ele><time>2026-04-25T09:16:56.995Z</time></trkpt><trkpt lat="45.494254686783904" lon="11.144403111564952"><ele>369.0</ele><time>2026-04-25T09:16:57.995Z</time></trkpt><trkpt lat="45.494202041456965" lon="11.144469558817416"><ele>369.0</ele><time>2026-04-25T09:16:58.995Z</time></trkpt><trkpt lat="45.494150828554346" lon="11.144549987288544"><ele>369.0</ele><time>2026-04-25T09:16:59.995Z</time></trkpt><trkpt lat="45.494101218787414" lon="11.144635445606859"><ele>369.0</ele><time>2026-04-25T09:17:00.995Z</time></trkpt><trkpt lat="45.49404914573077" lon="11.14472388445459"><ele>369.0</ele><time>2026-04-25T09:17:01.995Z</time></trkpt><trkpt lat="45.49399806798657" lon="11.144820004731864"><ele>369.0</ele><time>2026-04-25T09:17:02.995Z</time></trkpt><trkpt lat="45.493958968613434" lon="11.144932960608578"><ele>369.0</ele><time>2026-04-25T09:17:03.995Z</time></trkpt><trkpt lat="45.493938200785706" lon="11.14505672319487"><ele>369.0</ele><time>2026-04-25T09:17:04.995Z</time></trkpt><trkpt lat="45.493940798338926" lon="11.145167314281865"><ele>369.0</ele><time>2026-04-25T09:17:05.995Z</time></trkpt><trkpt lat="45.49396750362992" lon="11.145268533369883"><ele>371.3333333333333</ele><time>2026-04-25T09:17:06.995Z</time></trkpt><trkpt lat="45.494007966865794" lon="11.145362158487572"><ele>373.6666666666667</ele><time>2026-04-25T09:17:07.995Z</time></trkpt><trkpt lat="45.49407160879412" lon="11.145431418000156"><ele>376.0</ele><time>2026-04-25T09:17:08.995Z</time></trkpt><trkpt lat="45.49415413924525" lon="11.145482061459782"><ele>378.33333333333337</ele><time>2026-04-25T09:17:09.995Z</time></trkpt><trkpt lat="45.49423591165018" lon="11.145500879237623"><ele>380.6666666666667</ele><time>2026-04-25T09:17:10.995Z</time></trkpt><trkpt lat="45.49432499726445" lon="11.145517865445555"><ele>383.0</ele><time>2026-04-25T09:17:11.995Z</time></trkpt><trkpt lat="45.494404543596175" lon="11.14553512131081"><ele>383.0</ele><time>2026-04-25T09:17:12.995Z</time></trkpt><trkpt lat="45.49447506847554" lon="11.145558135736952"><ele>383.0</ele><time>2026-04-25T09:17:13.995Z</time></trkpt><trkpt lat="45.494575530046006" lon="11.145605119160267"><ele>383.0</ele><time>2026-04-25T09:17:15.995Z</time></trkpt><trkpt lat="45.49465441885644" lon="11.145664413089486"><ele>383.0</ele><time>2026-04-25T09:17:17.995Z</time></trkpt><trkpt lat="45.49472332703941" lon="11.145731243116625"><ele>383.0</ele><time>2026-04-25T09:17:20.995Z</time></trkpt><trkpt lat="45.494750471128654" lon="11.145833706896633"><ele>383.0</ele><time>2026-04-25T09:17:30.995Z</time></trkpt><trkpt lat="45.49474185420151" lon="11.145925104924798"><ele>383.79999999999995</ele><time>2026-04-25T09:17:32.995Z</time></trkpt><trkpt lat="45.49468319961732" lon="11.146030628467635"><ele>384.6</ele><time>2026-04-25T09:17:34.995Z</time></trkpt><trkpt lat="45.494618646979816" lon="11.146196225144285"><ele>385.4</ele><time>2026-04-25T09:17:36.995Z</time></trkpt><trkpt lat="45.49458917974522" lon="11.146306197867798"><ele>386.20000000000005</ele><time>2026-04-25T09:17:37.995Z</time></trkpt><trkpt lat="45.494574376795754" lon="11.146419882956682"><ele>387.0</ele><time>2026-04-25T09:17:38.995Z</time></trkpt><trkpt lat="45.49456713681024" lon="11.146521753712467"><ele>386.40000000000003</ele><time>2026-04-25T09:17:39.995Z</time></trkpt><trkpt lat="45.49456276221692" lon="11.146670600527235"><ele>385.8</ele><time>2026-04-25T09:17:41.995Z</time></trkpt><trkpt lat="45.49453687878047" lon="11.146763875814916"><ele>385.2</ele><time>2026-04-25T09:17:43.995Z</time></trkpt><trkpt lat="45.49457692433103" lon="11.146920792254756"><ele>384.6</ele><time>2026-04-25T09:17:45.995Z</time></trkpt><trkpt lat="45.494621917319385" lon="11.146991802992034"><ele>384.0</ele><time>2026-04-25T09:17:46.995Z</time></trkpt><trkpt lat="45.49471253076863" lon="11.147114614318316"><ele>384.0</ele><time>2026-04-25T09:17:48.995Z</time></trkpt><trkpt lat="45.49478293704856" lon="11.147188848298168"><ele>384.0</ele><time>2026-04-25T09:17:50.995Z</time></trkpt><trkpt lat="45.49473353142399" lon="11.147261553003473"><ele>384.0</ele><time>2026-04-25T09:17:52.995Z</time></trkpt><trkpt lat="45.49462170554825" lon="11.147307714115177"><ele>384.0</ele><time>2026-04-25T09:17:54.995Z</time></trkpt><trkpt lat="45.49455369111782" lon="11.147337701322796"><ele>384.0</ele><time>2026-04-25T09:17:55.995Z</time></trkpt><trkpt lat="45.494455861520215" lon="11.147378733257103"><ele>384.0</ele><time>2026-04-25T09:17:57.995Z</time></trkpt><trkpt lat="45.494386843325266" lon="11.147522059468509"><ele>380.3333333333333</ele><time>2026-04-25T09:18:00.995Z</time></trkpt><trkpt lat="45.49436111527171" lon="11.147613247488575"><ele>376.6666666666667</ele><time>2026-04-25T09:18:01.995Z</time></trkpt><trkpt lat="45.49432466524137" lon="11.14770726966538"><ele>373.0</ele><time>2026-04-25T09:18:02.995Z</time></trkpt><trkpt lat="45.494294433726935" lon="11.147801547417295"><ele>369.33333333333337</ele><time>2026-04-25T09:18:03.995Z</time></trkpt><trkpt lat="45.49427812214005" lon="11.147900978164408"><ele>365.6666666666667</ele><time>2026-04-25T09:18:04.995Z</time></trkpt><trkpt lat="45.49427199108759" lon="11.148030880690122"><ele>362.0</ele><time>2026-04-25T09:18:05.994Z</time></trkpt><trkpt lat="45.494273519806775" lon="11.14814122446169"><ele>358.40000000000003</ele><time>2026-04-25T09:18:06.994Z</time></trkpt><trkpt lat="45.49427157222219" lon="11.148311724298"><ele>354.8</ele><time>2026-04-25T09:18:08.994Z</time></trkpt><trkpt lat="45.494285105326554" lon="11.148454631267569"><ele>351.2</ele><time>2026-04-25T09:18:10.994Z</time></trkpt><trkpt lat="45.494282171569324" lon="11.148627489827977"><ele>347.6</ele><time>2026-04-25T09:18:12.994Z</time></trkpt><trkpt lat="45.494282485262204" lon="11.148771412779693"><ele>344.0</ele><time>2026-04-25T09:18:14.994Z</time></trkpt><trkpt lat="45.49430781709756" lon="11.148865342903225"><ele>344.0</ele><time>2026-04-25T09:18:15.994Z</time></trkpt><trkpt lat="45.49435972840977" lon="11.1489698394024"><ele>344.0</ele><time>2026-04-25T09:18:16.994Z</time></trkpt><trkpt lat="45.494419960477664" lon="11.149075036661266"><ele>344.0</ele><time>2026-04-25T09:18:17.995Z</time></trkpt><trkpt lat="45.49447891117579" lon="11.149159857325312"><ele>344.0</ele><time>2026-04-25T09:18:18.995Z</time></trkpt><trkpt lat="45.4945602080228" lon="11.149190722419856"><ele>344.0</ele><time>2026-04-25T09:18:20.995Z</time></trkpt><trkpt lat="45.49464603063108" lon="11.14920779590756"><ele>344.0</ele><time>2026-04-25T09:18:22.995Z</time></trkpt><trkpt lat="45.49472513239872" lon="11.149209839360907"><ele>339.79999999999995</ele><time>2026-04-25T09:18:23.995Z</time></trkpt><trkpt lat="45.49483497402797" lon="11.149191996524971"><ele>335.59999999999997</ele><time>2026-04-25T09:18:24.995Z</time></trkpt><trkpt lat="45.49493164826164" lon="11.149162230564738"><ele>331.4</ele><time>2026-04-25T09:18:25.995Z</time></trkpt><trkpt lat="45.49502685076662" lon="11.149119142921665"><ele>327.2</ele><time>2026-04-25T09:18:26.996Z</time></trkpt><trkpt lat="45.49510821886776" lon="11.149059039922664"><ele>323.0</ele><time>2026-04-25T09:18:27.995Z</time></trkpt><trkpt lat="45.495228796140154" lon="11.149202489751227"><ele>323.0</ele><time>2026-04-25T09:18:31.995Z</time></trkpt><trkpt lat="45.49525699801237" lon="11.14931287239402"><ele>323.0</ele><time>2026-04-25T09:18:32.995Z</time></trkpt><trkpt lat="45.49530039379778" lon="11.149445260771339"><ele>323.0</ele><time>2026-04-25T09:18:33.995Z</time></trkpt><trkpt lat="45.49535428188308" lon="11.149574729320427"><ele>323.0</ele><time>2026-04-25T09:18:34.995Z</time></trkpt><trkpt lat="45.49540131138183" lon="11.149655827849953"><ele>323.0</ele><time>2026-04-25T09:18:35.995Z</time></trkpt><trkpt lat="45.49546948325598" lon="11.149742521049799"><ele>322.83333333333337</ele><time>2026-04-25T09:18:37.995Z</time></trkpt><trkpt lat="45.49552016808471" lon="11.149662862654598"><ele>322.6666666666667</ele><time>2026-04-25T09:18:39.995Z</time></trkpt><trkpt lat="45.495514458410284" lon="11.149484599432494"><ele>322.5</ele><time>2026-04-25T09:18:41.995Z</time></trkpt><trkpt lat="45.495586810779855" lon="11.149465304480746"><ele>322.3333333333333</ele><time>2026-04-25T09:18:44.995Z</time></trkpt><trkpt lat="45.49564717225904" lon="11.14953809308966"><ele>322.16666666666663</ele><time>2026-04-25T09:18:46.995Z</time></trkpt><trkpt lat="45.495613149507285" lon="11.149637821921925"><ele>322.0</ele><time>2026-04-25T09:18:48.995Z</time></trkpt><trkpt lat="45.495660460578065" lon="11.149736310212372"><ele>322.0</ele><time>2026-04-25T09:18:50.995Z</time></trkpt><trkpt lat="45.495759389985864" lon="11.14982771580703"><ele>322.0</ele><time>2026-04-25T09:18:53.995Z</time></trkpt><trkpt lat="45.49577769441867" lon="11.149942979626294"><ele>322.0</ele><time>2026-04-25T09:18:55.995Z</time></trkpt><trkpt lat="45.49570088886745" lon="11.150156253904948"><ele>322.0</ele><time>2026-04-25T09:18:57.995Z</time></trkpt><trkpt lat="45.495668184177305" lon="11.150303086526506"><ele>317.25</ele><time>2026-04-25T09:18:58.995Z</time></trkpt><trkpt lat="45.49563070021796" lon="11.150476512482715"><ele>312.5</ele><time>2026-04-25T09:18:59.995Z</time></trkpt><trkpt lat="45.49558022793183" lon="11.150634048598105"><ele>307.75</ele><time>2026-04-25T09:19:00.995Z</time></trkpt><trkpt lat="45.49550132350227" lon="11.15079166213659"><ele>303.0</ele><time>2026-04-25T09:19:01.995Z</time></trkpt><trkpt lat="45.4954008803901" lon="11.15096117901558"><ele>298.3333333333333</ele><time>2026-04-25T09:19:02.995Z</time></trkpt><trkpt lat="45.49528467373646" lon="11.151149339603482"><ele>293.66666666666663</ele><time>2026-04-25T09:19:03.995Z</time></trkpt><trkpt lat="45.495180397828825" lon="11.151322639554719"><ele>289.0</ele><time>2026-04-25T09:19:04.995Z</time></trkpt><trkpt lat="45.49508716744644" lon="11.1515029169564"><ele>286.25</ele><time>2026-04-25T09:19:05.995Z</time></trkpt><trkpt lat="45.49498755705592" lon="11.151647364986596"><ele>283.5</ele><time>2026-04-25T09:19:06.995Z</time></trkpt><trkpt lat="45.494886267658856" lon="11.151803588633543"><ele>280.75</ele><time>2026-04-25T09:19:07.995Z</time></trkpt><trkpt lat="45.49478070686394" lon="11.151943492581683"><ele>278.0</ele><time>2026-04-25T09:19:08.995Z</time></trkpt><trkpt lat="45.49466678996711" lon="11.152082509352631"><ele>279.0</ele><time>2026-04-25T09:19:09.995Z</time></trkpt><trkpt lat="45.49453493507082" lon="11.152218818473695"><ele>280.0</ele><time>2026-04-25T09:19:10.995Z</time></trkpt><trkpt lat="45.49438588758928" lon="11.152358710001035"><ele>281.0</ele><time>2026-04-25T09:19:11.995Z</time></trkpt><trkpt lat="45.49424619084014" lon="11.1524849358018"><ele>278.75</ele><time>2026-04-25T09:19:12.995Z</time></trkpt><trkpt lat="45.4941228510669" lon="11.15260317030243"><ele>276.5</ele><time>2026-04-25T09:19:13.995Z</time></trkpt><trkpt lat="45.49400363272794" lon="11.152727265554645"><ele>274.25</ele><time>2026-04-25T09:19:14.995Z</time></trkpt><trkpt lat="45.493889901422655" lon="11.152844388214477"><ele>272.0</ele><time>2026-04-25T09:19:15.995Z</time></trkpt><trkpt lat="45.493776791198236" lon="11.152948585030387"><ele>272.6</ele><time>2026-04-25T09:19:16.995Z</time></trkpt><trkpt lat="45.493674825713555" lon="11.153045548589942"><ele>273.2</ele><time>2026-04-25T09:19:17.995Z</time></trkpt><trkpt lat="45.493599705163874" lon="11.153144198743984"><ele>273.8</ele><time>2026-04-25T09:19:18.995Z</time></trkpt><trkpt lat="45.49354996346629" lon="11.153244244919653"><ele>274.4</ele><time>2026-04-25T09:19:19.995Z</time></trkpt><trkpt lat="45.493527934658026" lon="11.153369333250568"><ele>275.0</ele><time>2026-04-25T09:19:20.995Z</time></trkpt><trkpt lat="45.493517157119136" lon="11.153539236724502"><ele>275.0</ele><time>2026-04-25T09:19:21.995Z</time></trkpt><trkpt lat="45.49349284502283" lon="11.153752550636602"><ele>275.0</ele><time>2026-04-25T09:19:22.995Z</time></trkpt><trkpt lat="45.493451752622924" lon="11.153951977098517"><ele>275.0</ele><time>2026-04-25T09:19:23.995Z</time></trkpt><trkpt lat="45.49340816995043" lon="11.154168543428666"><ele>272.5</ele><time>2026-04-25T09:19:24.995Z</time></trkpt><trkpt lat="45.493362666148734" lon="11.154377155653073"><ele>270.0</ele><time>2026-04-25T09:19:25.995Z</time></trkpt><trkpt lat="45.493318288277756" lon="11.154569459933121"><ele>267.5</ele><time>2026-04-25T09:19:26.995Z</time></trkpt><trkpt lat="45.49328200325421" lon="11.154752240480603"><ele>265.0</ele><time>2026-04-25T09:19:27.995Z</time></trkpt><trkpt lat="45.493273126191696" lon="11.154909521093746"><ele>263.25</ele><time>2026-04-25T09:19:28.995Z</time></trkpt><trkpt lat="45.49327657986423" lon="11.155051813559336"><ele>261.5</ele><time>2026-04-25T09:19:29.995Z</time></trkpt><trkpt lat="45.493311329553094" lon="11.155216650032651"><ele>259.75</ele><time>2026-04-25T09:19:30.995Z</time></trkpt><trkpt lat="45.493368802635686" lon="11.155423763210276"><ele>258.0</ele><time>2026-04-25T09:19:31.995Z</time></trkpt><trkpt lat="45.49342081576092" lon="11.15562925524385"><ele>258.0</ele><time>2026-04-25T09:19:32.995Z</time></trkpt><trkpt lat="45.493468997669986" lon="11.155817720681036"><ele>258.0</ele><time>2026-04-25T09:19:33.995Z</time></trkpt><trkpt lat="45.49351439761737" lon="11.15599763472963"><ele>258.0</ele><time>2026-04-25T09:19:34.995Z</time></trkpt><trkpt lat="45.49355528665742" lon="11.156166602560663"><ele>258.0</ele><time>2026-04-25T09:19:35.995Z</time></trkpt><trkpt lat="45.49358839048207" lon="11.156312288931266"><ele>258.0</ele><time>2026-04-25T09:19:36.995Z</time></trkpt><trkpt lat="45.49360026844429" lon="11.156443037001932"><ele>258.0</ele><time>2026-04-25T09:19:37.995Z</time></trkpt><trkpt lat="45.49357519567397" lon="11.156574214656711"><ele>258.0</ele><time>2026-04-25T09:19:38.995Z</time></trkpt><trkpt lat="45.49354069632808" lon="11.156686468485232"><ele>258.0</ele><time>2026-04-25T09:19:39.995Z</time></trkpt><trkpt lat="45.49346623714077" lon="11.156780133895403"><ele>258.0</ele><time>2026-04-25T09:19:40.995Z</time></trkpt><trkpt lat="45.493367582479344" lon="11.156891197820526"><ele>257.5</ele><time>2026-04-25T09:19:41.995Z</time></trkpt><trkpt lat="45.49326939702931" lon="11.157016813255662"><ele>257.0</ele><time>2026-04-25T09:19:42.995Z</time></trkpt><trkpt lat="45.49317713366839" lon="11.157147483073418"><ele>256.5</ele><time>2026-04-25T09:19:43.995Z</time></trkpt><trkpt lat="45.49309389445693" lon="11.157269113521526"><ele>256.0</ele><time>2026-04-25T09:19:44.995Z</time></trkpt><trkpt lat="45.49302193215596" lon="11.157389513152095"><ele>254.60000000000002</ele><time>2026-04-25T09:19:45.995Z</time></trkpt><trkpt lat="45.492967277199284" lon="11.157504795726155"><ele>253.20000000000002</ele><time>2026-04-25T09:19:46.995Z</time></trkpt><trkpt lat="45.49293225425842" lon="11.157633730398612"><ele>251.79999999999998</ele><time>2026-04-25T09:19:47.995Z</time></trkpt><trkpt lat="45.49291509312025" lon="11.157785551306494"><ele>250.39999999999998</ele><time>2026-04-25T09:19:48.995Z</time></trkpt><trkpt lat="45.492909815317475" lon="11.15795838016202"><ele>249.0</ele><time>2026-04-25T09:19:49.995Z</time></trkpt><trkpt lat="45.49291541532694" lon="11.158128818882927"><ele>248.6</ele><time>2026-04-25T09:19:50.995Z</time></trkpt><trkpt lat="45.492939190733345" lon="11.158294525792"><ele>248.2</ele><time>2026-04-25T09:19:51.995Z</time></trkpt><trkpt lat="45.492982996379524" lon="11.158459051649904"><ele>247.79999999999998</ele><time>2026-04-25T09:19:52.995Z</time></trkpt><trkpt lat="45.49303124971953" lon="11.158600927108795"><ele>247.39999999999998</ele><time>2026-04-25T09:19:53.995Z</time></trkpt><trkpt lat="45.493057457979546" lon="11.158704348476883"><ele>247.0</ele><time>2026-04-25T09:19:54.995Z</time></trkpt><trkpt lat="45.493055482255144" lon="11.15880533252509"><ele>247.0</ele><time>2026-04-25T09:19:55.995Z</time></trkpt><trkpt lat="45.492999030076675" lon="11.159003708367079"><ele>247.0</ele><time>2026-04-25T09:19:57.995Z</time></trkpt><trkpt lat="45.49298233683622" lon="11.159176818298972"><ele>247.0</ele><time>2026-04-25T09:19:58.995Z</time></trkpt><trkpt lat="45.49294564394132" lon="11.159333392159388"><ele>247.0</ele><time>2026-04-25T09:19:59.995Z</time></trkpt><trkpt lat="45.49290231996214" lon="11.159507889818563"><ele>246.33333333333331</ele><time>2026-04-25T09:20:00.995Z</time></trkpt><trkpt lat="45.49285971527143" lon="11.159713357873853"><ele>245.66666666666669</ele><time>2026-04-25T09:20:01.995Z</time></trkpt><trkpt lat="45.492807030514605" lon="11.159958478872923"><ele>245.0</ele><time>2026-04-25T09:20:02.995Z</time></trkpt><trkpt lat="45.49276058225152" lon="11.160204555882627"><ele>245.0</ele><time>2026-04-25T09:20:03.995Z</time></trkpt><trkpt lat="45.49271514303167" lon="11.160423708555344"><ele>245.0</ele><time>2026-04-25T09:20:04.995Z</time></trkpt><trkpt lat="45.492695321610135" lon="11.160626265214088"><ele>245.0</ele><time>2026-04-25T09:20:05.995Z</time></trkpt><trkpt lat="45.49263927417678" lon="11.16079557644848"><ele>245.0</ele><time>2026-04-25T09:20:06.995Z</time></trkpt><trkpt lat="45.49255685860993" lon="11.160934445884154"><ele>244.75</ele><time>2026-04-25T09:20:07.994Z</time></trkpt><trkpt lat="45.49245030496908" lon="11.161060253380246"><ele>244.5</ele><time>2026-04-25T09:20:08.994Z</time></trkpt><trkpt lat="45.4923325707589" lon="11.16116048633978"><ele>244.25</ele><time>2026-04-25T09:20:09.994Z</time></trkpt><trkpt lat="45.49220120778327" lon="11.161243772016743"><ele>244.0</ele><time>2026-04-25T09:20:10.994Z</time></trkpt><trkpt lat="45.49205610889604" lon="11.161308001252523"><ele>243.75</ele><time>2026-04-25T09:20:11.994Z</time></trkpt><trkpt lat="45.49190595530333" lon="11.161354822857524"><ele>243.5</ele><time>2026-04-25T09:20:12.994Z</time></trkpt><trkpt lat="45.49177925911304" lon="11.16139711097009"><ele>243.25</ele><time>2026-04-25T09:20:13.994Z</time></trkpt><trkpt lat="45.49165192718261" lon="11.161446288734814"><ele>243.0</ele><time>2026-04-25T09:20:14.994Z</time></trkpt><trkpt lat="45.491534980707314" lon="11.161508151938337"><ele>243.0</ele><time>2026-04-25T09:20:15.994Z</time></trkpt><trkpt lat="45.49142742184921" lon="11.161574380360404"><ele>243.0</ele><time>2026-04-25T09:20:16.994Z</time></trkpt><trkpt lat="45.49132486963911" lon="11.161642872477906"><ele>243.0</ele><time>2026-04-25T09:20:17.994Z</time></trkpt><trkpt lat="45.49123605065741" lon="11.161718517313718"><ele>243.0</ele><time>2026-04-25T09:20:18.994Z</time></trkpt><trkpt lat="45.49114106255828" lon="11.161774533273642"><ele>243.0</ele><time>2026-04-25T09:20:19.994Z</time></trkpt><trkpt lat="45.491043481185024" lon="11.16182538772197"><ele>242.5</ele><time>2026-04-25T09:20:20.994Z</time></trkpt><trkpt lat="45.490950357805524" lon="11.161893761295676"><ele>242.0</ele><time>2026-04-25T09:20:21.994Z</time></trkpt><trkpt lat="45.490846780969456" lon="11.161978078522559"><ele>241.5</ele><time>2026-04-25T09:20:22.994Z</time></trkpt><trkpt lat="45.49076888598653" lon="11.162099570996464"><ele>241.0</ele><time>2026-04-25T09:20:23.995Z</time></trkpt><trkpt lat="45.49070007317901" lon="11.162248417526555"><ele>241.0</ele><time>2026-04-25T09:20:24.994Z</time></trkpt><trkpt lat="45.49063779770127" lon="11.162424853669375"><ele>241.0</ele><time>2026-04-25T09:20:25.994Z</time></trkpt><trkpt lat="45.490586174521056" lon="11.162617620303847"><ele>241.0</ele><time>2026-04-25T09:20:26.995Z</time></trkpt><trkpt lat="45.49054706439628" lon="11.16282887735965"><ele>241.0</ele><time>2026-04-25T09:20:27.995Z</time></trkpt><trkpt lat="45.490530986162334" lon="11.16305429985833"><ele>241.33333333333331</ele><time>2026-04-25T09:20:28.995Z</time></trkpt><trkpt lat="45.490526084679026" lon="11.163293198236426"><ele>241.66666666666669</ele><time>2026-04-25T09:20:29.995Z</time></trkpt><trkpt lat="45.490520995260695" lon="11.163530774267567"><ele>242.0</ele><time>2026-04-25T09:20:30.994Z</time></trkpt><trkpt lat="45.49051378185421" lon="11.16376714504365"><ele>242.0</ele><time>2026-04-25T09:20:31.994Z</time></trkpt><trkpt lat="45.49051446216029" lon="11.16398519114537"><ele>242.0</ele><time>2026-04-25T09:20:32.995Z</time></trkpt><trkpt lat="45.49052273484072" lon="11.164175990907328"><ele>242.0</ele><time>2026-04-25T09:20:33.994Z</time></trkpt><trkpt lat="45.490528028984684" lon="11.164347659762775"><ele>242.0</ele><time>2026-04-25T09:20:34.994Z</time></trkpt><trkpt lat="45.49050959405494" lon="11.164483854090198"><ele>241.75</ele><time>2026-04-25T09:20:35.995Z</time></trkpt><trkpt lat="45.4904805925674" lon="11.164651991295285"><ele>241.5</ele><time>2026-04-25T09:20:36.995Z</time></trkpt><trkpt lat="45.49043618582623" lon="11.164798742802297"><ele>241.25</ele><time>2026-04-25T09:20:37.995Z</time></trkpt><trkpt lat="45.490372556354075" lon="11.164949782282763"><ele>241.0</ele><time>2026-04-25T09:20:38.995Z</time></trkpt><trkpt lat="45.490286775178284" lon="11.165092640805337"><ele>240.0</ele><time>2026-04-25T09:20:39.995Z</time></trkpt><trkpt lat="45.4902005733933" lon="11.165240491015462"><ele>239.0</ele><time>2026-04-25T09:20:40.995Z</time></trkpt><trkpt lat="45.49012690141253" lon="11.165401569952396"><ele>238.0</ele><time>2026-04-25T09:20:41.995Z</time></trkpt><trkpt lat="45.49006167587666" lon="11.165564014580285"><ele>237.0</ele><time>2026-04-25T09:20:42.995Z</time></trkpt><trkpt lat="45.49000190285526" lon="11.165720363089235"><ele>236.75</ele><time>2026-04-25T09:20:43.995Z</time></trkpt><trkpt lat="45.48995918103983" lon="11.165874488344802"><ele>236.5</ele><time>2026-04-25T09:20:44.995Z</time></trkpt><trkpt lat="45.48993235629432" lon="11.16601788780071"><ele>236.25</ele><time>2026-04-25T09:20:45.995Z</time></trkpt><trkpt lat="45.4899339510769" lon="11.166177298259583"><ele>236.0</ele><time>2026-04-25T09:20:46.995Z</time></trkpt><trkpt lat="45.48994660838416" lon="11.166361151963693"><ele>236.75</ele><time>2026-04-25T09:20:47.995Z</time></trkpt><trkpt lat="45.48996393143746" lon="11.166550539216246"><ele>237.5</ele><time>2026-04-25T09:20:48.995Z</time></trkpt><trkpt lat="45.48997864331532" lon="11.16676310382463"><ele>238.25</ele><time>2026-04-25T09:20:49.995Z</time></trkpt><trkpt lat="45.48999507507216" lon="11.166961411416048"><ele>239.0</ele><time>2026-04-25T09:20:50.995Z</time></trkpt><trkpt lat="45.49001152423395" lon="11.16714697594877"><ele>239.0</ele><time>2026-04-25T09:20:51.995Z</time></trkpt><trkpt lat="45.49002711208988" lon="11.167332602304512"><ele>239.0</ele><time>2026-04-25T09:20:52.995Z</time></trkpt><trkpt lat="45.490047250687546" lon="11.167512539603932"><ele>239.0</ele><time>2026-04-25T09:20:53.994Z</time></trkpt><trkpt lat="45.49005795599773" lon="11.167696134402501"><ele>239.0</ele><time>2026-04-25T09:20:54.994Z</time></trkpt><trkpt lat="45.49007656274804" lon="11.167872167118004"><ele>238.75</ele><time>2026-04-25T09:20:55.994Z</time></trkpt><trkpt lat="45.49008357096315" lon="11.168043448711494"><ele>238.5</ele><time>2026-04-25T09:20:56.994Z</time></trkpt><trkpt lat="45.49008839877563" lon="11.168212976625762"><ele>238.25</ele><time>2026-04-25T09:20:57.994Z</time></trkpt><trkpt lat="45.49009109879161" lon="11.168395243326215"><ele>238.0</ele><time>2026-04-25T09:20:58.994Z</time></trkpt><trkpt lat="45.490092823306874" lon="11.168580224073418"><ele>238.0</ele><time>2026-04-25T09:20:59.994Z</time></trkpt><trkpt lat="45.4900785744004" lon="11.168729846212049"><ele>238.0</ele><time>2026-04-25T09:21:00.994Z</time></trkpt><trkpt lat="45.4900281093907" lon="11.168909671662126"><ele>238.0</ele><time>2026-04-25T09:21:01.994Z</time></trkpt><trkpt lat="45.48997158038815" lon="11.169086645139531"><ele>238.0</ele><time>2026-04-25T09:21:02.994Z</time></trkpt><trkpt lat="45.489880957525315" lon="11.169243260238652"><ele>237.75</ele><time>2026-04-25T09:21:03.994Z</time></trkpt><trkpt lat="45.489776051537376" lon="11.169380234929115"><ele>237.5</ele><time>2026-04-25T09:21:04.994Z</time></trkpt><trkpt lat="45.48966891498303" lon="11.16951934438857"><ele>237.25</ele><time>2026-04-25T09:21:05.994Z</time></trkpt><trkpt lat="45.489570399017474" lon="11.169672456750213"><ele>237.0</ele><time>2026-04-25T09:21:06.994Z</time></trkpt><trkpt lat="45.48949376444185" lon="11.169861684877421"><ele>236.66666666666669</ele><time>2026-04-25T09:21:07.994Z</time></trkpt><trkpt lat="45.48944481670097" lon="11.170066563626309"><ele>236.33333333333334</ele><time>2026-04-25T09:21:08.994Z</time></trkpt><trkpt lat="45.489401563193994" lon="11.170277434885062"><ele>236.0</ele><time>2026-04-25T09:21:09.994Z</time></trkpt><trkpt lat="45.48936140330011" lon="11.170491616534868"><ele>235.66666666666669</ele><time>2026-04-25T09:21:10.994Z</time></trkpt><trkpt lat="45.48931440299489" lon="11.170705392657867"><ele>235.33333333333331</ele><time>2026-04-25T09:21:11.994Z</time></trkpt><trkpt lat="45.489270380961834" lon="11.170931557989684"><ele>235.0</ele><time>2026-04-25T09:21:12.994Z</time></trkpt><trkpt lat="45.48923144504731" lon="11.17115801941393"><ele>235.0</ele><time>2026-04-25T09:21:13.994Z</time></trkpt><trkpt lat="45.48916630412242" lon="11.171379829308119"><ele>235.0</ele><time>2026-04-25T09:21:14.994Z</time></trkpt><trkpt lat="45.48912252985901" lon="11.171609388865939"><ele>235.0</ele><time>2026-04-25T09:21:15.994Z</time></trkpt><trkpt lat="45.48906728291862" lon="11.171803568679339"><ele>234.5</ele><time>2026-04-25T09:21:16.994Z</time></trkpt><trkpt lat="45.48900309725508" lon="11.171982052227667"><ele>234.0</ele><time>2026-04-25T09:21:17.994Z</time></trkpt><trkpt lat="45.488909413183364" lon="11.172126938551493"><ele>233.5</ele><time>2026-04-25T09:21:18.994Z</time></trkpt><trkpt lat="45.488800029272504" lon="11.172279175516808"><ele>233.0</ele><time>2026-04-25T09:21:19.994Z</time></trkpt><trkpt lat="45.48868329999125" lon="11.172423992304498"><ele>232.25</ele><time>2026-04-25T09:21:20.994Z</time></trkpt><trkpt lat="45.4885620152801" lon="11.172529364562092"><ele>231.5</ele><time>2026-04-25T09:21:21.994Z</time></trkpt><trkpt lat="45.488457808676884" lon="11.172640492022236"><ele>230.75</ele><time>2026-04-25T09:21:22.994Z</time></trkpt><trkpt lat="45.488388270723895" lon="11.172767924575176"><ele>230.0</ele><time>2026-04-25T09:21:23.994Z</time></trkpt><trkpt lat="45.488361205085816" lon="11.172937491851345"><ele>230.0</ele><time>2026-04-25T09:21:24.994Z</time></trkpt><trkpt lat="45.48836424620009" lon="11.173133499924191"><ele>230.0</ele><time>2026-04-25T09:21:25.994Z</time></trkpt><trkpt lat="45.48838235720279" lon="11.173323030802743"><ele>230.0</ele><time>2026-04-25T09:21:26.994Z</time></trkpt><trkpt lat="45.48839813851881" lon="11.173528882794614"><ele>230.0</ele><time>2026-04-25T09:21:27.994Z</time></trkpt><trkpt lat="45.48841098297039" lon="11.173737493217073"><ele>230.0</ele><time>2026-04-25T09:21:28.994Z</time></trkpt><trkpt lat="45.488430215697306" lon="11.17393669442489"><ele>230.0</ele><time>2026-04-25T09:21:29.994Z</time></trkpt><trkpt lat="45.48845152841416" lon="11.17412264381267"><ele>230.0</ele><time>2026-04-25T09:21:30.994Z</time></trkpt><trkpt lat="45.488471085181494" lon="11.174307490757442"><ele>230.0</ele><time>2026-04-25T09:21:31.994Z</time></trkpt><trkpt lat="45.48849010513558" lon="11.174480602577718"><ele>230.0</ele><time>2026-04-25T09:21:32.994Z</time></trkpt><trkpt lat="45.48850436382409" lon="11.17464525322899"><ele>230.0</ele><time>2026-04-25T09:21:33.994Z</time></trkpt><trkpt lat="45.488516449772625" lon="11.174806389889678"><ele>230.0</ele><time>2026-04-25T09:21:34.994Z</time></trkpt><trkpt lat="45.48853950581386" lon="11.174953259544695"><ele>230.0</ele><time>2026-04-25T09:21:35.994Z</time></trkpt><trkpt lat="45.48856705935215" lon="11.175083211506113"><ele>230.0</ele><time>2026-04-25T09:21:36.994Z</time></trkpt><trkpt lat="45.48858901482602" lon="11.175214346537583"><ele>230.00000000000003</ele><time>2026-04-25T09:21:37.994Z</time></trkpt><trkpt lat="45.488596190941536" lon="11.175343430492997"><ele>230.0</ele><time>2026-04-25T09:21:38.994Z</time></trkpt><trkpt lat="45.48860014260505" lon="11.175434236767105"><ele>230.0</ele><time>2026-04-25T09:21:39.994Z</time></trkpt><trkpt lat="45.48860566625806" lon="11.175538376495645"><ele>230.0</ele><time>2026-04-25T09:21:41.994Z</time></trkpt><trkpt lat="45.48860732420804" lon="11.175640127183495"><ele>230.00000000000003</ele><time>2026-04-25T09:21:48.994Z</time></trkpt><trkpt lat="45.48862176561848" lon="11.175788803886938"><ele>230.0</ele><time>2026-04-25T09:21:50.994Z</time></trkpt><trkpt lat="45.48854904048597" lon="11.175912855252246"><ele>230.00000000000003</ele><time>2026-04-25T09:21:53.994Z</time></trkpt><trkpt lat="45.48847710393121" lon="11.17594608363044"><ele>230.0</ele><time>2026-04-25T09:21:54.994Z</time></trkpt><trkpt lat="45.488401097369874" lon="11.17597666404727"><ele>230.0</ele><time>2026-04-25T09:21:55.994Z</time></trkpt><trkpt lat="45.488323307208645" lon="11.176004610090587"><ele>230.0</ele><time>2026-04-25T09:21:56.994Z</time></trkpt><trkpt lat="45.488237768259324" lon="11.176044012975625"><ele>230.00000000000003</ele><time>2026-04-25T09:21:57.994Z</time></trkpt><trkpt lat="45.488148204167636" lon="11.176083424922279"><ele>230.0</ele><time>2026-04-25T09:21:58.994Z</time></trkpt><trkpt lat="45.488059304034" lon="11.176117267715691"><ele>230.0</ele><time>2026-04-25T09:21:59.994Z</time></trkpt><trkpt lat="45.487971030538375" lon="11.17614517666104"><ele>230.0</ele><time>2026-04-25T09:22:00.994Z</time></trkpt><trkpt lat="45.48788735244183" lon="11.176177921336206"><ele>230.0</ele><time>2026-04-25T09:22:01.994Z</time></trkpt><trkpt lat="45.487813626888006" lon="11.176227455032778"><ele>230.0</ele><time>2026-04-25T09:22:02.994Z</time></trkpt><trkpt lat="45.487721961035284" lon="11.176272673877172"><ele>230.0</ele><time>2026-04-25T09:22:03.994Z</time></trkpt><trkpt lat="45.48762968850971" lon="11.176308660400743"><ele>229.6</ele><time>2026-04-25T09:22:04.994Z</time></trkpt><trkpt lat="45.48754195515224" lon="11.176345631872907"><ele>229.2</ele><time>2026-04-25T09:22:05.994Z</time></trkpt><trkpt lat="45.48745601233708" lon="11.176351681085116"><ele>228.8</ele><time>2026-04-25T09:22:06.994Z</time></trkpt><trkpt lat="45.487356887743225" lon="11.176395552719752"><ele>228.4</ele><time>2026-04-25T09:22:07.994Z</time></trkpt><trkpt lat="45.48726094066849" lon="11.176439860763855"><ele>228.0</ele><time>2026-04-25T09:22:08.994Z</time></trkpt><trkpt lat="45.48716109740648" lon="11.176482889697313"><ele>227.2</ele><time>2026-04-25T09:22:09.994Z</time></trkpt><trkpt lat="45.487055203344134" lon="11.176534240139691"><ele>226.4</ele><time>2026-04-25T09:22:10.994Z</time></trkpt><trkpt lat="45.486958925689514" lon="11.176576214780184"><ele>225.59999999999997</ele><time>2026-04-25T09:22:11.994Z</time></trkpt><trkpt lat="45.486851712409546" lon="11.176627078550734"><ele>224.79999999999998</ele><time>2026-04-25T09:22:12.994Z</time></trkpt><trkpt lat="45.486746647059405" lon="11.176670353454453"><ele>224.0</ele><time>2026-04-25T09:22:13.994Z</time></trkpt><trkpt lat="45.486637081308395" lon="11.176724145391313"><ele>224.0</ele><time>2026-04-25T09:22:14.994Z</time></trkpt><trkpt lat="45.48652610494976" lon="11.176769714284294"><ele>224.0</ele><time>2026-04-25T09:22:15.994Z</time></trkpt><trkpt lat="45.48641434937821" lon="11.176800961490096"><ele>224.0</ele><time>2026-04-25T09:22:16.994Z</time></trkpt><trkpt lat="45.48630448309967" lon="11.176836976038611"><ele>224.0</ele><time>2026-04-25T09:22:17.994Z</time></trkpt><trkpt lat="45.48619471475287" lon="11.17686390271195"><ele>223.50000000000003</ele><time>2026-04-25T09:22:18.994Z</time></trkpt><trkpt lat="45.48608720032934" lon="11.17688476777067"><ele>223.0</ele><time>2026-04-25T09:22:19.994Z</time></trkpt><trkpt lat="45.48599025990269" lon="11.176902275133648"><ele>222.5</ele><time>2026-04-25T09:22:20.994Z</time></trkpt><trkpt lat="45.48591176528911" lon="11.176921182926245"><ele>222.0</ele><time>2026-04-25T09:22:21.994Z</time></trkpt><trkpt lat="45.4858429303723" lon="11.176948345442804"><ele>221.50000000000003</ele><time>2026-04-25T09:22:22.994Z</time></trkpt><trkpt lat="45.48579711304655" lon="11.17701203992716"><ele>221.0</ele><time>2026-04-25T09:22:23.994Z</time></trkpt><trkpt lat="45.48581093846453" lon="11.177203536156169"><ele>221.00000000000003</ele><time>2026-04-25T09:22:25.994Z</time></trkpt><trkpt lat="45.48582346459784" lon="11.177308147250631"><ele>221.0</ele><time>2026-04-25T09:22:26.994Z</time></trkpt><trkpt lat="45.485839404339785" lon="11.177421164786052"><ele>221.0</ele><time>2026-04-25T09:22:27.994Z</time></trkpt><trkpt lat="45.48583740294317" lon="11.177532860734106"><ele>221.0</ele><time>2026-04-25T09:22:28.994Z</time></trkpt><trkpt lat="45.48584992049333" lon="11.177672784959068"><ele>221.00000000000003</ele><time>2026-04-25T09:22:29.995Z</time></trkpt><trkpt lat="45.485857203389706" lon="11.177777574079775"><ele>221.0</ele><time>2026-04-25T09:22:30.995Z</time></trkpt><trkpt lat="45.48587123400931" lon="11.177867598287964"><ele>221.0</ele><time>2026-04-25T09:22:31.995Z</time></trkpt><trkpt lat="45.4858777607864" lon="11.177965771878423"><ele>221.0</ele><time>2026-04-25T09:22:32.994Z</time></trkpt><trkpt lat="45.485803630887055" lon="11.178125053256167"><ele>221.0</ele><time>2026-04-25T09:22:34.995Z</time></trkpt><trkpt lat="45.48585628455691" lon="11.178312007940537"><ele>221.0</ele><time>2026-04-25T09:22:35.995Z</time></trkpt><trkpt lat="45.48590451631204" lon="11.178493548834417"><ele>221.0</ele><time>2026-04-25T09:22:36.994Z</time></trkpt><trkpt lat="45.48593421781312" lon="11.178641764139321"><ele>221.0</ele><time>2026-04-25T09:22:37.994Z</time></trkpt><trkpt lat="45.485947708893804" lon="11.17882162515809"><ele>221.0</ele><time>2026-04-25T09:22:38.995Z</time></trkpt><trkpt lat="45.48597886970322" lon="11.1790051706395"><ele>221.0</ele><time>2026-04-25T09:22:39.994Z</time></trkpt><trkpt lat="45.48600856792129" lon="11.179180134159363"><ele>220.75</ele><time>2026-04-25T09:22:40.994Z</time></trkpt><trkpt lat="45.48604742613004" lon="11.179347105090294"><ele>220.5</ele><time>2026-04-25T09:22:41.995Z</time></trkpt><trkpt lat="45.486073547030514" lon="11.179511818505569"><ele>220.25</ele><time>2026-04-25T09:22:42.995Z</time></trkpt><trkpt lat="45.48606947247818" lon="11.179705550826313"><ele>220.0</ele><time>2026-04-25T09:22:43.995Z</time></trkpt><trkpt lat="45.48607922822731" lon="11.179876238813982"><ele>220.0</ele><time>2026-04-25T09:22:44.995Z</time></trkpt><trkpt lat="45.48607375489736" lon="11.180064310644058"><ele>220.0</ele><time>2026-04-25T09:22:45.995Z</time></trkpt><trkpt lat="45.486097381003155" lon="11.18023895120329"><ele>220.0</ele><time>2026-04-25T09:22:46.995Z</time></trkpt><trkpt lat="45.486128233054316" lon="11.180424382775747"><ele>220.0</ele><time>2026-04-25T09:22:47.995Z</time></trkpt><trkpt lat="45.486161356507516" lon="11.180601439276472"><ele>220.0</ele><time>2026-04-25T09:22:48.995Z</time></trkpt><trkpt lat="45.486198121248556" lon="11.180783558861693"><ele>220.0</ele><time>2026-04-25T09:22:49.995Z</time></trkpt><trkpt lat="45.48623251348518" lon="11.180944064640117"><ele>220.0</ele><time>2026-04-25T09:22:50.995Z</time></trkpt><trkpt lat="45.48627393383754" lon="11.181120332955524"><ele>220.0</ele><time>2026-04-25T09:22:51.995Z</time></trkpt><trkpt lat="45.48632010087237" lon="11.181304787902201"><ele>220.0</ele><time>2026-04-25T09:22:52.995Z</time></trkpt><trkpt lat="45.48636715543918" lon="11.181463698876064"><ele>220.0</ele><time>2026-04-25T09:22:53.995Z</time></trkpt><trkpt lat="45.48642631439637" lon="11.181611112528678"><ele>220.0</ele><time>2026-04-25T09:22:54.995Z</time></trkpt><trkpt lat="45.48645085397189" lon="11.181777096899983"><ele>220.0</ele><time>2026-04-25T09:22:55.995Z</time></trkpt><trkpt lat="45.48646201254837" lon="11.18193747558716"><ele>219.75</ele><time>2026-04-25T09:22:56.995Z</time></trkpt><trkpt lat="45.48645689493355" lon="11.182119331480525"><ele>219.5</ele><time>2026-04-25T09:22:57.995Z</time></trkpt><trkpt lat="45.48644521971529" lon="11.182329253739818"><ele>219.25</ele><time>2026-04-25T09:22:58.995Z</time></trkpt><trkpt lat="45.48642604038508" lon="11.182537595974445"><ele>219.0</ele><time>2026-04-25T09:22:59.994Z</time></trkpt><trkpt lat="45.486404714164124" lon="11.18274562188625"><ele>218.75</ele><time>2026-04-25T09:23:00.994Z</time></trkpt><trkpt lat="45.48638874322128" lon="11.182955200001283"><ele>218.5</ele><time>2026-04-25T09:23:01.994Z</time></trkpt><trkpt lat="45.486372129296484" lon="11.183166458385625"><ele>218.25</ele><time>2026-04-25T09:23:02.994Z</time></trkpt><trkpt lat="45.48635595481345" lon="11.183376482669802"><ele>218.0</ele><time>2026-04-25T09:23:03.994Z</time></trkpt><trkpt lat="45.486338736474316" lon="11.18358145296146"><ele>217.25</ele><time>2026-04-25T09:23:04.994Z</time></trkpt><trkpt lat="45.48632038921367" lon="11.183779567682295"><ele>216.5</ele><time>2026-04-25T09:23:05.994Z</time></trkpt><trkpt lat="45.486300970929115" lon="11.183968197749538"><ele>215.75</ele><time>2026-04-25T09:23:06.994Z</time></trkpt><trkpt lat="45.48628079161211" lon="11.184147191623863"><ele>215.0</ele><time>2026-04-25T09:23:07.994Z</time></trkpt><trkpt lat="45.4862626284374" lon="11.184319861665712"><ele>214.6</ele><time>2026-04-25T09:23:08.994Z</time></trkpt><trkpt lat="45.486244289574955" lon="11.184486095357201"><ele>214.2</ele><time>2026-04-25T09:23:09.994Z</time></trkpt><trkpt lat="45.48622916360402" lon="11.18464629996521"><ele>213.8</ele><time>2026-04-25T09:23:10.994Z</time></trkpt><trkpt lat="45.48619626820528" lon="11.184782510180494"><ele>213.4</ele><time>2026-04-25T09:23:11.994Z</time></trkpt><trkpt lat="45.4861800417348" lon="11.184922589770606"><ele>213.0</ele><time>2026-04-25T09:23:12.994Z</time></trkpt><trkpt lat="45.486163710861554" lon="11.185058941028835"><ele>212.66666666666666</ele><time>2026-04-25T09:23:13.994Z</time></trkpt><trkpt lat="45.4861485944553" lon="11.185181953578727"><ele>212.33333333333331</ele><time>2026-04-25T09:23:14.994Z</time></trkpt><trkpt lat="45.48613239277754" lon="11.185304840630156"><ele>212.0</ele><time>2026-04-25T09:23:15.994Z</time></trkpt><trkpt lat="45.48610018243399" lon="11.185414551217502"><ele>211.66666666666666</ele><time>2026-04-25T09:23:17.994Z</time></trkpt><trkpt lat="45.48608252763444" lon="11.185520099919525"><ele>211.33333333333331</ele><time>2026-04-25T09:23:25.994Z</time></trkpt><trkpt lat="45.48610241744216" lon="11.185670840621297"><ele>211.0</ele><time>2026-04-25T09:23:28.994Z</time></trkpt><trkpt lat="45.48616142600884" lon="11.185705007956905"><ele>212.20000000000002</ele><time>2026-04-25T09:23:29.994Z</time></trkpt><trkpt lat="45.486286079360596" lon="11.185785449095663"><ele>213.4</ele><time>2026-04-25T09:23:31.994Z</time></trkpt><trkpt lat="45.48635673687527" lon="11.185834626082084"><ele>214.6</ele><time>2026-04-25T09:23:32.994Z</time></trkpt><trkpt lat="45.486433946340036" lon="11.185893617626746"><ele>215.8</ele><time>2026-04-25T09:23:33.994Z</time></trkpt><trkpt lat="45.486506050421546" lon="11.185951209047968"><ele>217.0</ele><time>2026-04-25T09:23:34.994Z</time></trkpt><trkpt lat="45.486577131552636" lon="11.186016418176372"><ele>216.99999999999997</ele><time>2026-04-25T09:23:35.994Z</time></trkpt><trkpt lat="45.48663629043226" lon="11.186089821154809"><ele>217.0</ele><time>2026-04-25T09:23:36.994Z</time></trkpt><trkpt lat="45.48668090829241" lon="11.186166164571736"><ele>217.0</ele><time>2026-04-25T09:23:37.994Z</time></trkpt><trkpt lat="45.48673010329733" lon="11.18628396354713"><ele>217.0</ele><time>2026-04-25T09:23:39.994Z</time></trkpt><trkpt lat="45.486756911099306" lon="11.186370038047992"><ele>216.99999999999997</ele><time>2026-04-25T09:23:41.994Z</time></trkpt><trkpt lat="45.486791940086185" lon="11.186486866825092"><ele>217.0</ele><time>2026-04-25T09:23:44.994Z</time></trkpt><trkpt lat="45.486814105109815" lon="11.18661111060318"><ele>217.16666666666666</ele><time>2026-04-25T09:23:46.994Z</time></trkpt><trkpt lat="45.486815472517634" lon="11.186731955354343"><ele>217.33333333333331</ele><time>2026-04-25T09:23:48.994Z</time></trkpt><trkpt lat="45.4867881651898" lon="11.186897484819653"><ele>217.5</ele><time>2026-04-25T09:23:50.994Z</time></trkpt><trkpt lat="45.486768545355616" lon="11.186994362427004"><ele>217.66666666666669</ele><time>2026-04-25T09:23:51.994Z</time></trkpt><trkpt lat="45.48674142283515" lon="11.187097466068387"><ele>217.83333333333334</ele><time>2026-04-25T09:23:52.994Z</time></trkpt><trkpt lat="45.4867181818165" lon="11.187206942843057"><ele>218.0</ele><time>2026-04-25T09:23:53.994Z</time></trkpt><trkpt lat="45.4866996035473" lon="11.187303673552115"><ele>217.42857142857144</ele><time>2026-04-25T09:23:54.994Z</time></trkpt><trkpt lat="45.48668657552113" lon="11.187402452232195"><ele>216.85714285714286</ele><time>2026-04-25T09:23:55.994Z</time></trkpt><trkpt lat="45.48666331418696" lon="11.187491118613751"><ele>216.28571428571428</ele><time>2026-04-25T09:23:56.994Z</time></trkpt><trkpt lat="45.48663887056795" lon="11.187577481552097"><ele>215.71428571428572</ele><time>2026-04-25T09:23:57.994Z</time></trkpt><trkpt lat="45.48661935230232" lon="11.187673218869229"><ele>215.14285714285714</ele><time>2026-04-25T09:23:58.994Z</time></trkpt><trkpt lat="45.48659176275242" lon="11.187780412696412"><ele>214.57142857142858</ele><time>2026-04-25T09:23:59.994Z</time></trkpt><trkpt lat="45.486561311268346" lon="11.187887388854469"><ele>214.0</ele><time>2026-04-25T09:24:00.994Z</time></trkpt><trkpt lat="45.4865501564638" lon="11.188019172714911"><ele>214.0</ele><time>2026-04-25T09:24:01.994Z</time></trkpt><trkpt lat="45.486534145003915" lon="11.18816011374044"><ele>214.0</ele><time>2026-04-25T09:24:02.994Z</time></trkpt><trkpt lat="45.48653324204119" lon="11.18833629785677"><ele>214.0</ele><time>2026-04-25T09:24:03.994Z</time></trkpt><trkpt lat="45.48652835566439" lon="11.188507936666094"><ele>214.0</ele><time>2026-04-25T09:24:04.994Z</time></trkpt><trkpt lat="45.48652479398054" lon="11.188684318887438"><ele>214.25</ele><time>2026-04-25T09:24:05.994Z</time></trkpt><trkpt lat="45.48651471358472" lon="11.188884338708498"><ele>214.5</ele><time>2026-04-25T09:24:06.994Z</time></trkpt><trkpt lat="45.486507163435455" lon="11.189084528846132"><ele>214.75</ele><time>2026-04-25T09:24:07.994Z</time></trkpt><trkpt lat="45.48651725543318" lon="11.189286513563877"><ele>215.0</ele><time>2026-04-25T09:24:08.994Z</time></trkpt><trkpt lat="45.486539190031486" lon="11.189458674502834"><ele>215.0</ele><time>2026-04-25T09:24:09.994Z</time></trkpt><trkpt lat="45.48656588826855" lon="11.189637552416343"><ele>215.0</ele><time>2026-04-25T09:24:10.994Z</time></trkpt><trkpt lat="45.48659522389148" lon="11.189804066645966"><ele>215.0</ele><time>2026-04-25T09:24:11.994Z</time></trkpt><trkpt lat="45.48662511548181" lon="11.189969045197564"><ele>215.0</ele><time>2026-04-25T09:24:12.994Z</time></trkpt><trkpt lat="45.486646093661754" lon="11.190120897627153"><ele>215.0</ele><time>2026-04-25T09:24:13.994Z</time></trkpt><trkpt lat="45.48667124440219" lon="11.190298311848386"><ele>215.0</ele><time>2026-04-25T09:24:14.994Z</time></trkpt><trkpt lat="45.486698833959935" lon="11.190468318347097"><ele>215.0</ele><time>2026-04-25T09:24:15.994Z</time></trkpt><trkpt lat="45.48672379651352" lon="11.190643264616506"><ele>215.0</ele><time>2026-04-25T09:24:16.994Z</time></trkpt><trkpt lat="45.48675216117142" lon="11.190804039734365"><ele>215.33333333333334</ele><time>2026-04-25T09:24:17.994Z</time></trkpt><trkpt lat="45.486774547936164" lon="11.190947568624077"><ele>215.66666666666669</ele><time>2026-04-25T09:24:18.994Z</time></trkpt><trkpt lat="45.48679267430391" lon="11.191077575622964"><ele>216.0</ele><time>2026-04-25T09:24:19.994Z</time></trkpt><trkpt lat="45.48678996945274" lon="11.191178681894622"><ele>216.33333333333331</ele><time>2026-04-25T09:24:20.994Z</time></trkpt><trkpt lat="45.486775737906" lon="11.191282044847897"><ele>216.66666666666666</ele><time>2026-04-25T09:24:21.994Z</time></trkpt><trkpt lat="45.48672623976446" lon="11.191366011279166"><ele>217.0</ele><time>2026-04-25T09:24:22.994Z</time></trkpt><trkpt lat="45.486653551477865" lon="11.191442478987994"><ele>218.6</ele><time>2026-04-25T09:24:23.994Z</time></trkpt><trkpt lat="45.4865651971685" lon="11.191512280411764"><ele>220.2</ele><time>2026-04-25T09:24:24.994Z</time></trkpt><trkpt lat="45.48646082007289" lon="11.191567468276665"><ele>221.8</ele><time>2026-04-25T09:24:25.994Z</time></trkpt><trkpt lat="45.48635411368993" lon="11.191600757992388"><ele>223.4</ele><time>2026-04-25T09:24:26.994Z</time></trkpt><trkpt lat="45.486258336114254" lon="11.191623697392998"><ele>225.0</ele><time>2026-04-25T09:24:27.994Z</time></trkpt><trkpt lat="45.48613917752811" lon="11.191650802687754"><ele>225.5</ele><time>2026-04-25T09:24:28.994Z</time></trkpt><trkpt lat="45.48601474583343" lon="11.191671270528335"><ele>226.0</ele><time>2026-04-25T09:24:29.994Z</time></trkpt><trkpt lat="45.485874619062265" lon="11.191719501841659"><ele>226.5</ele><time>2026-04-25T09:24:30.994Z</time></trkpt><trkpt lat="45.48574235611964" lon="11.191771366916191"><ele>227.0</ele><time>2026-04-25T09:24:31.994Z</time></trkpt><trkpt lat="45.48561706473316" lon="11.19181616845457"><ele>227.0</ele><time>2026-04-25T09:24:32.994Z</time></trkpt><trkpt lat="45.485490719372166" lon="11.191877720842427"><ele>227.0</ele><time>2026-04-25T09:24:33.994Z</time></trkpt><trkpt lat="45.4853757545725" lon="11.19197089871662"><ele>227.0</ele><time>2026-04-25T09:24:34.994Z</time></trkpt><trkpt lat="45.4852748882642" lon="11.192069016146895"><ele>227.0</ele><time>2026-04-25T09:24:35.994Z</time></trkpt><trkpt lat="45.48520159157957" lon="11.192154136833873"><ele>226.39999999999998</ele><time>2026-04-25T09:24:36.994Z</time></trkpt><trkpt lat="45.48515146231722" lon="11.192230792588918"><ele>225.79999999999998</ele><time>2026-04-25T09:24:37.994Z</time></trkpt><trkpt lat="45.48516071286883" lon="11.192343924963001"><ele>225.2</ele><time>2026-04-25T09:24:39.994Z</time></trkpt><trkpt lat="45.485268932895636" lon="11.192405899662136"><ele>224.6</ele><time>2026-04-25T09:24:41.994Z</time></trkpt><trkpt lat="45.48535493773464" lon="11.192415121923158"><ele>224.0</ele><time>2026-04-25T09:24:42.994Z</time></trkpt><trkpt lat="45.48546032282373" lon="11.192404259270653"><ele>227.5</ele><time>2026-04-25T09:24:43.994Z</time></trkpt><trkpt lat="45.485570203930635" lon="11.192389001996105"><ele>231.0</ele><time>2026-04-25T09:24:44.994Z</time></trkpt><trkpt lat="45.48568726493753" lon="11.19237061522687"><ele>234.5</ele><time>2026-04-25T09:24:45.995Z</time></trkpt><trkpt lat="45.48581451920643" lon="11.192370281738816"><ele>238.0</ele><time>2026-04-25T09:24:46.995Z</time></trkpt><trkpt lat="45.48594903252596" lon="11.192394765384071"><ele>238.0</ele><time>2026-04-25T09:24:47.994Z</time></trkpt><trkpt lat="45.48608036863368" lon="11.192398096880664"><ele>238.0</ele><time>2026-04-25T09:24:48.994Z</time></trkpt><trkpt lat="45.48618982334023" lon="11.192397031376558"><ele>238.0</ele><time>2026-04-25T09:24:49.994Z</time></trkpt><trkpt lat="45.48629973540657" lon="11.192408802746204"><ele>238.0</ele><time>2026-04-25T09:24:50.994Z</time></trkpt><trkpt lat="45.48639111262302" lon="11.1924350821055"><ele>238.0</ele><time>2026-04-25T09:24:51.994Z</time></trkpt><trkpt lat="45.48645694984317" lon="11.192480852789998"><ele>238.60000000000002</ele><time>2026-04-25T09:24:52.994Z</time></trkpt><trkpt lat="45.48650661744626" lon="11.192579989668042"><ele>239.20000000000002</ele><time>2026-04-25T09:24:53.994Z</time></trkpt><trkpt lat="45.48659456080634" lon="11.192689620328464"><ele>239.8</ele><time>2026-04-25T09:24:54.994Z</time></trkpt><trkpt lat="45.486678659999036" lon="11.19278839389166"><ele>240.4</ele><time>2026-04-25T09:24:55.994Z</time></trkpt><trkpt lat="45.48677756423186" lon="11.192879834848345"><ele>241.0</ele><time>2026-04-25T09:24:56.994Z</time></trkpt><trkpt lat="45.48687059695426" lon="11.192974430381511"><ele>241.0</ele><time>2026-04-25T09:24:57.994Z</time></trkpt><trkpt lat="45.486959721788395" lon="11.193082323334904"><ele>241.00000000000003</ele><time>2026-04-25T09:24:58.994Z</time></trkpt><trkpt lat="45.4870497510752" lon="11.193176017278034"><ele>241.00000000000003</ele><time>2026-04-25T09:24:59.994Z</time></trkpt><trkpt lat="45.4871313626207" lon="11.193273259515038"><ele>241.0</ele><time>2026-04-25T09:25:00.994Z</time></trkpt><trkpt lat="45.48722662695964" lon="11.193355105325672"><ele>241.0</ele><time>2026-04-25T09:25:01.994Z</time></trkpt><trkpt lat="45.487329926953" lon="11.193426527775564"><ele>241.60000000000002</ele><time>2026-04-25T09:25:02.994Z</time></trkpt><trkpt lat="45.487429798975505" lon="11.193491613279734"><ele>242.20000000000002</ele><time>2026-04-25T09:25:03.994Z</time></trkpt><trkpt lat="45.48753614213193" lon="11.193538515514588"><ele>242.79999999999998</ele><time>2026-04-25T09:25:04.994Z</time></trkpt><trkpt lat="45.4876356621374" lon="11.193568348581323"><ele>243.39999999999998</ele><time>2026-04-25T09:25:05.994Z</time></trkpt><trkpt lat="45.48773026509838" lon="11.193594686928764"><ele>244.0</ele><time>2026-04-25T09:25:06.994Z</time></trkpt><trkpt lat="45.487821144221236" lon="11.193621150366384"><ele>244.0</ele><time>2026-04-25T09:25:07.994Z</time></trkpt><trkpt lat="45.48790828888812" lon="11.193655400862584"><ele>243.99999999999997</ele><time>2026-04-25T09:25:08.994Z</time></trkpt><trkpt lat="45.487990259448075" lon="11.193701307831033"><ele>243.99999999999997</ele><time>2026-04-25T09:25:09.994Z</time></trkpt><trkpt lat="45.48807636491797" lon="11.193734295848161"><ele>244.0</ele><time>2026-04-25T09:25:10.994Z</time></trkpt><trkpt lat="45.488166638225245" lon="11.193762973043938"><ele>244.0</ele><time>2026-04-25T09:25:11.994Z</time></trkpt><trkpt lat="45.488259975445985" lon="11.193793993364759"><ele>245.0</ele><time>2026-04-25T09:25:12.994Z</time></trkpt><trkpt lat="45.4883614855059" lon="11.19381974599163"><ele>245.99999999999997</ele><time>2026-04-25T09:25:13.994Z</time></trkpt><trkpt lat="45.48846218905518" lon="11.193849536713579"><ele>246.99999999999997</ele><time>2026-04-25T09:25:14.994Z</time></trkpt><trkpt lat="45.48856943821492" lon="11.193866564036261"><ele>248.0</ele><time>2026-04-25T09:25:15.994Z</time></trkpt><trkpt lat="45.488675117331326" lon="11.193876176312601"><ele>249.0</ele><time>2026-04-25T09:25:16.994Z</time></trkpt><trkpt lat="45.48877805245546" lon="11.193890562393712"><ele>250.2</ele><time>2026-04-25T09:25:17.994Z</time></trkpt><trkpt lat="45.48888081620403" lon="11.193908525239534"><ele>251.39999999999998</ele><time>2026-04-25T09:25:18.994Z</time></trkpt><trkpt lat="45.488982205718145" lon="11.19393073464365"><ele>252.6</ele><time>2026-04-25T09:25:19.994Z</time></trkpt><trkpt lat="45.48908096517673" lon="11.193960881540068"><ele>253.8</ele><time>2026-04-25T09:25:20.994Z</time></trkpt><trkpt lat="45.489183377973205" lon="11.193978437707747"><ele>255.0</ele><time>2026-04-25T09:25:21.994Z</time></trkpt><trkpt lat="45.48928894737119" lon="11.194004066905327"><ele>251.0</ele><time>2026-04-25T09:25:22.994Z</time></trkpt><trkpt lat="45.489403914283" lon="11.194037077493963"><ele>247.0</ele><time>2026-04-25T09:25:23.994Z</time></trkpt><trkpt lat="45.489523660349505" lon="11.194068523137842"><ele>243.0</ele><time>2026-04-25T09:25:24.994Z</time></trkpt><trkpt lat="45.48966502151953" lon="11.194096318201154"><ele>239.0</ele><time>2026-04-25T09:25:25.994Z</time></trkpt><trkpt lat="45.48980911534133" lon="11.19415068598714"><ele>239.0</ele><time>2026-04-25T09:25:26.994Z</time></trkpt><trkpt lat="45.489956769186804" lon="11.19417624561214"><ele>239.0</ele><time>2026-04-25T09:25:27.994Z</time></trkpt><trkpt lat="45.490100292198726" lon="11.194207136997663"><ele>239.0</ele><time>2026-04-25T09:25:28.994Z</time></trkpt><trkpt lat="45.490236178108965" lon="11.194248958172729"><ele>239.0</ele><time>2026-04-25T09:25:29.994Z</time></trkpt><trkpt lat="45.490379103148264" lon="11.194284525125067"><ele>241.66666666666669</ele><time>2026-04-25T09:25:30.994Z</time></trkpt><trkpt lat="45.490523117145244" lon="11.19431479192495"><ele>244.33333333333331</ele><time>2026-04-25T09:25:31.994Z</time></trkpt><trkpt lat="45.4906821037745" lon="11.194342569409361"><ele>247.0</ele><time>2026-04-25T09:25:32.994Z</time></trkpt><trkpt lat="45.49084760135049" lon="11.194368121578073"><ele>247.0</ele><time>2026-04-25T09:25:33.994Z</time></trkpt><trkpt lat="45.49099888882102" lon="11.194395891023863"><ele>247.0</ele><time>2026-04-25T09:25:34.994Z</time></trkpt><trkpt lat="45.49113778408082" lon="11.194409752369445"><ele>247.0</ele><time>2026-04-25T09:25:35.994Z</time></trkpt><trkpt lat="45.491270824963756" lon="11.194431934798356"><ele>247.0</ele><time>2026-04-25T09:25:36.994Z</time></trkpt><trkpt lat="45.49139608353377" lon="11.194467510422065"><ele>249.5</ele><time>2026-04-25T09:25:37.994Z</time></trkpt><trkpt lat="45.49151998684381" lon="11.194499875639682"><ele>252.0</ele><time>2026-04-25T09:25:38.994Z</time></trkpt><trkpt lat="45.491628176887424" lon="11.194570253628475"><ele>254.5</ele><time>2026-04-25T09:25:39.994Z</time></trkpt><trkpt lat="45.4917369770881" lon="11.194642549436004"><ele>257.0</ele><time>2026-04-25T09:25:40.994Z</time></trkpt><trkpt lat="45.49184630719109" lon="11.19473191798576"><ele>253.0</ele><time>2026-04-25T09:25:41.994Z</time></trkpt><trkpt lat="45.49196036265591" lon="11.19485386481443"><ele>249.0</ele><time>2026-04-25T09:25:42.994Z</time></trkpt><trkpt lat="45.492077573490484" lon="11.194970595832688"><ele>245.0</ele><time>2026-04-25T09:25:43.994Z</time></trkpt><trkpt lat="45.49219971584983" lon="11.19507562846012"><ele>241.0</ele><time>2026-04-25T09:25:44.994Z</time></trkpt><trkpt lat="45.492318481363704" lon="11.195163802842691"><ele>241.0</ele><time>2026-04-25T09:25:45.994Z</time></trkpt><trkpt lat="45.49243236831794" lon="11.19523909057746"><ele>241.0</ele><time>2026-04-25T09:25:46.994Z</time></trkpt><trkpt lat="45.49254291853872" lon="11.195305382337846"><ele>241.0</ele><time>2026-04-25T09:25:47.994Z</time></trkpt><trkpt lat="45.492656510705544" lon="11.195368678495077"><ele>241.0</ele><time>2026-04-25T09:25:48.994Z</time></trkpt><trkpt lat="45.49276711632758" lon="11.195454896908808"><ele>241.0</ele><time>2026-04-25T09:25:49.994Z</time></trkpt><trkpt lat="45.49286333873881" lon="11.195560122705114"><ele>241.00000000000003</ele><time>2026-04-25T09:25:50.994Z</time></trkpt><trkpt lat="45.492948647520436" lon="11.195677003928205"><ele>241.00000000000003</ele><time>2026-04-25T09:25:51.994Z</time></trkpt><trkpt lat="45.49303189558285" lon="11.195779835611544"><ele>241.0</ele><time>2026-04-25T09:25:52.994Z</time></trkpt><trkpt lat="45.493101786743374" lon="11.195873532632108"><ele>241.0</ele><time>2026-04-25T09:25:53.994Z</time></trkpt><trkpt lat="45.493154479726805" lon="11.195931552514308"><ele>239.66666666666666</ele><time>2026-04-25T09:25:54.994Z</time></trkpt><trkpt lat="45.493201438845155" lon="11.196032347516303"><ele>238.33333333333331</ele><time>2026-04-25T09:25:56.994Z</time></trkpt><trkpt lat="45.49314172257298" lon="11.196146928877587"><ele>237.0</ele><time>2026-04-25T09:25:58.994Z</time></trkpt><trkpt lat="45.49310698856025" lon="11.196240600040825"><ele>235.66666666666669</ele><time>2026-04-25T09:25:59.994Z</time></trkpt><trkpt lat="45.49307727320876" lon="11.196323428440222"><ele>234.33333333333334</ele><time>2026-04-25T09:26:00.994Z</time></trkpt><trkpt lat="45.49308409650964" lon="11.19647140004698"><ele>233.0</ele><time>2026-04-25T09:26:02.994Z</time></trkpt><trkpt lat="45.493190671938834" lon="11.19657755699995"><ele>231.33333333333334</ele><time>2026-04-25T09:26:04.994Z</time></trkpt><trkpt lat="45.493260597568494" lon="11.1966249312995"><ele>229.66666666666669</ele><time>2026-04-25T09:26:05.994Z</time></trkpt><trkpt lat="45.49332347344718" lon="11.19666649764228"><ele>228.0</ele><time>2026-04-25T09:26:06.994Z</time></trkpt><trkpt lat="45.493392010457214" lon="11.196709781492904"><ele>226.33333333333331</ele><time>2026-04-25T09:26:07.993Z</time></trkpt><trkpt lat="45.49346905534226" lon="11.196740371191973"><ele>224.66666666666666</ele><time>2026-04-25T09:26:08.993Z</time></trkpt><trkpt lat="45.493539214672886" lon="11.196760290363072"><ele>223.0</ele><time>2026-04-25T09:26:09.993Z</time></trkpt><trkpt lat="45.49366152570667" lon="11.196716653277024"><ele>222.99999999999997</ele><time>2026-04-25T09:26:11.993Z</time></trkpt><trkpt lat="45.4937161446261" lon="11.1966717552936"><ele>223.0</ele><time>2026-04-25T09:26:12.993Z</time></trkpt><trkpt lat="45.49381380832517" lon="11.196592466322016"><ele>223.0</ele><time>2026-04-25T09:26:14.993Z</time></trkpt><trkpt lat="45.4938681710713" lon="11.196672352775867"><ele>223.0</ele><time>2026-04-25T09:26:16.993Z</time></trkpt><trkpt lat="45.493869458246394" lon="11.196805246469847"><ele>222.99999999999997</ele><time>2026-04-25T09:26:17.993Z</time></trkpt><trkpt lat="45.49388977393713" lon="11.196945305772498"><ele>223.0</ele><time>2026-04-25T09:26:18.993Z</time></trkpt><trkpt lat="45.49392863367491" lon="11.197055251725267"><ele>223.66666666666666</ele><time>2026-04-25T09:26:19.993Z</time></trkpt><trkpt lat="45.493964915422865" lon="11.197137033270028"><ele>224.33333333333331</ele><time>2026-04-25T09:26:20.993Z</time></trkpt><trkpt lat="45.49401126056546" lon="11.197202495756644"><ele>225.0</ele><time>2026-04-25T09:26:21.993Z</time></trkpt><trkpt lat="45.49408096598248" lon="11.19726263695622"><ele>225.66666666666669</ele><time>2026-04-25T09:26:22.993Z</time></trkpt><trkpt lat="45.49416756733808" lon="11.197293993693568"><ele>226.33333333333334</ele><time>2026-04-25T09:26:23.993Z</time></trkpt><trkpt lat="45.4942413539793" lon="11.197299547006075"><ele>227.0</ele><time>2026-04-25T09:26:24.993Z</time></trkpt><trkpt lat="45.49433180773175" lon="11.19727175658991"><ele>227.0</ele><time>2026-04-25T09:26:25.993Z</time></trkpt><trkpt lat="45.494448971620244" lon="11.19721714912264"><ele>227.0</ele><time>2026-04-25T09:26:26.993Z</time></trkpt><trkpt lat="45.4945849053236" lon="11.197180857173606"><ele>227.0</ele><time>2026-04-25T09:26:27.993Z</time></trkpt><trkpt lat="45.49471691117619" lon="11.197126228898725"><ele>227.0</ele><time>2026-04-25T09:26:28.993Z</time></trkpt><trkpt lat="45.49483949382877" lon="11.197095717708358"><ele>226.33333333333334</ele><time>2026-04-25T09:26:29.993Z</time></trkpt><trkpt lat="45.49494525429472" lon="11.197092699793723"><ele>225.66666666666669</ele><time>2026-04-25T09:26:30.993Z</time></trkpt><trkpt lat="45.49504022869509" lon="11.197075216910488"><ele>225.0</ele><time>2026-04-25T09:26:31.993Z</time></trkpt><trkpt lat="45.495110317033266" lon="11.197046122317632"><ele>224.33333333333331</ele><time>2026-04-25T09:26:32.993Z</time></trkpt><trkpt lat="45.49517610911649" lon="11.197083299193965"><ele>223.66666666666666</ele><time>2026-04-25T09:26:34.993Z</time></trkpt><trkpt lat="45.49515340217026" lon="11.19722196427097"><ele>223.0</ele><time>2026-04-25T09:26:36.993Z</time></trkpt><trkpt lat="45.495099098943456" lon="11.197294369240995"><ele>218.0</ele><time>2026-04-25T09:26:37.993Z</time></trkpt><trkpt lat="45.495023891401296" lon="11.19734451133155"><ele>213.0</ele><time>2026-04-25T09:26:38.993Z</time></trkpt><trkpt lat="45.49491338216549" lon="11.197383521120788"><ele>208.0</ele><time>2026-04-25T09:26:39.993Z</time></trkpt><trkpt lat="45.49478047823357" lon="11.197415602006771"><ele>203.0</ele><time>2026-04-25T09:26:40.993Z</time></trkpt><trkpt lat="45.49463609147321" lon="11.197481252898456"><ele>204.0</ele><time>2026-04-25T09:26:41.994Z</time></trkpt><trkpt lat="45.49448706789078" lon="11.197552697461132"><ele>205.0</ele><time>2026-04-25T09:26:42.993Z</time></trkpt><trkpt lat="45.49435015607276" lon="11.197622249327052"><ele>206.0</ele><time>2026-04-25T09:26:43.993Z</time></trkpt><trkpt lat="45.494236313585574" lon="11.19768601208919"><ele>207.0</ele><time>2026-04-25T09:26:44.994Z</time></trkpt><trkpt lat="45.49414768996592" lon="11.197759242689633"><ele>207.0</ele><time>2026-04-25T09:26:45.994Z</time></trkpt><trkpt lat="45.494075516593284" lon="11.19780279616042"><ele>207.0</ele><time>2026-04-25T09:26:46.994Z</time></trkpt><trkpt lat="45.49396688689444" lon="11.19782250136352"><ele>207.0</ele><time>2026-04-25T09:26:48.994Z</time></trkpt><trkpt lat="45.49391572499797" lon="11.197761475389063"><ele>207.0</ele><time>2026-04-25T09:26:49.994Z</time></trkpt><trkpt lat="45.49385940540198" lon="11.197680008260702"><ele>207.0</ele><time>2026-04-25T09:26:50.994Z</time></trkpt><trkpt lat="45.49381940298199" lon="11.197576849645625"><ele>207.0</ele><time>2026-04-25T09:26:51.994Z</time></trkpt><trkpt lat="45.49378495270351" lon="11.197470730470801"><ele>207.0</ele><time>2026-04-25T09:26:52.994Z</time></trkpt><trkpt lat="45.49374640234458" lon="11.197398806715173"><ele>207.0</ele><time>2026-04-25T09:26:54.994Z</time></trkpt><trkpt lat="45.4936911444862" lon="11.19751758849499"><ele>207.0</ele><time>2026-04-25T09:26:56.994Z</time></trkpt><trkpt lat="45.49370583943051" lon="11.197635251528549"><ele>207.0</ele><time>2026-04-25T09:26:57.994Z</time></trkpt><trkpt lat="45.49374202174381" lon="11.197750449879925"><ele>207.0</ele><time>2026-04-25T09:26:58.994Z</time></trkpt><trkpt lat="45.4937703002268" lon="11.197831404171096"><ele>207.0</ele><time>2026-04-25T09:26:59.994Z</time></trkpt><trkpt lat="45.493768149687746" lon="11.197987386170425"><ele>207.0</ele><time>2026-04-25T09:27:01.994Z</time></trkpt><trkpt lat="45.49380073504497" lon="11.198130116410177"><ele>207.0</ele><time>2026-04-25T09:27:03.994Z</time></trkpt><trkpt lat="45.49392753574363" lon="11.198218314725477"><ele>207.0</ele><time>2026-04-25T09:27:05.994Z</time></trkpt><trkpt lat="45.49402862209912" lon="11.19825750394408"><ele>207.0</ele><time>2026-04-25T09:27:06.994Z</time></trkpt><trkpt lat="45.49413966572439" lon="11.198291411454532"><ele>200.75</ele><time>2026-04-25T09:27:07.994Z</time></trkpt><trkpt lat="45.49424746376414" lon="11.198311191926075"><ele>194.5</ele><time>2026-04-25T09:27:08.994Z</time></trkpt><trkpt lat="45.49435489224955" lon="11.198341737761394"><ele>188.25</ele><time>2026-04-25T09:27:09.994Z</time></trkpt><trkpt lat="45.494473837365625" lon="11.1983547681968"><ele>182.0</ele><time>2026-04-25T09:27:10.994Z</time></trkpt><trkpt lat="45.49462002230779" lon="11.198339731977736"><ele>181.83333333333331</ele><time>2026-04-25T09:27:11.994Z</time></trkpt><trkpt lat="45.49473870241317" lon="11.198344634171143"><ele>181.66666666666666</ele><time>2026-04-25T09:27:12.994Z</time></trkpt><trkpt lat="45.494838878692356" lon="11.198314617853883"><ele>181.5</ele><time>2026-04-25T09:27:13.994Z</time></trkpt><trkpt lat="45.49492207900651" lon="11.198281804478151"><ele>181.33333333333334</ele><time>2026-04-25T09:27:14.994Z</time></trkpt><trkpt lat="45.49498318170483" lon="11.198247113770627"><ele>181.16666666666669</ele><time>2026-04-25T09:27:15.994Z</time></trkpt><trkpt lat="45.495057446999596" lon="11.198251058798478"><ele>181.0</ele><time>2026-04-25T09:27:18.994Z</time></trkpt><trkpt lat="45.49501190685714" lon="11.198340371378698"><ele>181.0</ele><time>2026-04-25T09:27:20.994Z</time></trkpt><trkpt lat="45.494923714607935" lon="11.19836244945777"><ele>181.0</ele><time>2026-04-25T09:27:21.994Z</time></trkpt><trkpt lat="45.494818153847" lon="11.198384507258494"><ele>181.0</ele><time>2026-04-25T09:27:22.994Z</time></trkpt><trkpt lat="45.4947079561959" lon="11.198426801646267"><ele>181.0</ele><time>2026-04-25T09:27:23.994Z</time></trkpt><trkpt lat="45.494601548701745" lon="11.198505284977967"><ele>181.0</ele><time>2026-04-25T09:27:24.994Z</time></trkpt><trkpt lat="45.4944874995693" lon="11.198555125076162"><ele>181.25</ele><time>2026-04-25T09:27:25.994Z</time></trkpt><trkpt lat="45.49435990985918" lon="11.198589716302164"><ele>181.5</ele><time>2026-04-25T09:27:26.994Z</time></trkpt><trkpt lat="45.494254500193726" lon="11.198626858245852"><ele>181.75</ele><time>2026-04-25T09:27:27.994Z</time></trkpt><trkpt lat="45.49413223973527" lon="11.198664708165039"><ele>182.0</ele><time>2026-04-25T09:27:28.994Z</time></trkpt><trkpt lat="45.49404523620393" lon="11.19869677831077"><ele>182.0</ele><time>2026-04-25T09:27:29.994Z</time></trkpt><trkpt lat="45.49394182114903" lon="11.198684815540524"><ele>182.0</ele><time>2026-04-25T09:27:30.994Z</time></trkpt><trkpt lat="45.49383191424062" lon="11.198668254601465"><ele>182.0</ele><time>2026-04-25T09:27:31.994Z</time></trkpt><trkpt lat="45.49373622448503" lon="11.198666681206975"><ele>182.0</ele><time>2026-04-25T09:27:32.994Z</time></trkpt><trkpt lat="45.49367027578171" lon="11.198652068914177"><ele>182.0</ele><time>2026-04-25T09:27:33.994Z</time></trkpt><trkpt lat="45.49360730300299" lon="11.1986655584537"><ele>182.0</ele><time>2026-04-25T09:27:34.994Z</time></trkpt><trkpt lat="45.49354233332098" lon="11.19872186173574"><ele>181.0</ele><time>2026-04-25T09:27:35.994Z</time></trkpt><trkpt lat="45.493443944741465" lon="11.198807255158492"><ele>180.0</ele><time>2026-04-25T09:27:36.994Z</time></trkpt><trkpt lat="45.493364530663015" lon="11.198891932137956"><ele>179.0</ele><time>2026-04-25T09:27:37.994Z</time></trkpt><trkpt lat="45.493282037584315" lon="11.19897199057535"><ele>178.0</ele><time>2026-04-25T09:27:38.994Z</time></trkpt><trkpt lat="45.493217228520436" lon="11.199077457759326"><ele>177.0</ele><time>2026-04-25T09:27:39.994Z</time></trkpt><trkpt lat="45.49316537750984" lon="11.199193343258113"><ele>176.5</ele><time>2026-04-25T09:27:40.994Z</time></trkpt><trkpt lat="45.49315409993506" lon="11.199305435134454"><ele>176.0</ele><time>2026-04-25T09:27:41.994Z</time></trkpt><trkpt lat="45.493153789541466" lon="11.199430748530654"><ele>175.5</ele><time>2026-04-25T09:27:42.994Z</time></trkpt><trkpt lat="45.493172967269395" lon="11.199547329587913"><ele>175.0</ele><time>2026-04-25T09:27:43.994Z</time></trkpt><trkpt lat="45.49319798143829" lon="11.199663978871344"><ele>174.5</ele><time>2026-04-25T09:27:44.994Z</time></trkpt><trkpt lat="45.49322850138716" lon="11.19977170430612"><ele>174.0</ele><time>2026-04-25T09:27:45.994Z</time></trkpt><trkpt lat="45.493249818961104" lon="11.19986509460521"><ele>174.0</ele><time>2026-04-25T09:27:46.994Z</time></trkpt><trkpt lat="45.49325466873424" lon="11.199996625941072"><ele>174.0</ele><time>2026-04-25T09:27:48.994Z</time></trkpt><trkpt lat="45.49325297876898" lon="11.20011940428995"><ele>174.0</ele><time>2026-04-25T09:27:51.994Z</time></trkpt><trkpt lat="45.493292150384875" lon="11.200191642210001"><ele>174.0</ele><time>2026-04-25T09:27:55.994Z</time></trkpt><trkpt lat="45.49335194001396" lon="11.200250414329284"><ele>174.0</ele><time>2026-04-25T09:28:11.993Z</time></trkpt><trkpt lat="45.49349382924423" lon="11.200225073351143"><ele>174.0</ele><time>2026-04-25T09:28:13.993Z</time></trkpt><trkpt lat="45.49360160016921" lon="11.200166088864902"><ele>174.0</ele><time>2026-04-25T09:28:14.993Z</time></trkpt><trkpt lat="45.493704528836695" lon="11.200108723749453"><ele>174.0</ele><time>2026-04-25T09:28:15.993Z</time></trkpt><trkpt lat="45.4938093924199" lon="11.200032679933361"><ele>174.0</ele><time>2026-04-25T09:28:16.993Z</time></trkpt><trkpt lat="45.493901940172215" lon="11.199988681161466"><ele>174.0</ele><time>2026-04-25T09:28:17.993Z</time></trkpt><trkpt lat="45.4940051451839" lon="11.199922751897795"><ele>175.2</ele><time>2026-04-25T09:28:18.993Z</time></trkpt><trkpt lat="45.49410703967441" lon="11.199908950212604"><ele>176.39999999999998</ele><time>2026-04-25T09:28:19.993Z</time></trkpt><trkpt lat="45.49420614553564" lon="11.199926764426356"><ele>177.6</ele><time>2026-04-25T09:28:20.993Z</time></trkpt><trkpt lat="45.49429297462" lon="11.199965164808344"><ele>178.8</ele><time>2026-04-25T09:28:21.993Z</time></trkpt><trkpt lat="45.49433912274267" lon="11.200088255224289"><ele>180.0</ele><time>2026-04-25T09:28:23.993Z</time></trkpt><trkpt lat="45.49422425542447" lon="11.20010112305345"><ele>180.0</ele><time>2026-04-25T09:28:25.993Z</time></trkpt><trkpt lat="45.49412743746756" lon="11.200111775278666"><ele>180.0</ele><time>2026-04-25T09:28:27.993Z</time></trkpt><trkpt lat="45.49406129896629" lon="11.200155904406243"><ele>180.0</ele><time>2026-04-25T09:28:28.993Z</time></trkpt><trkpt lat="45.494034547057964" lon="11.200248796280665"><ele>180.0</ele><time>2026-04-25T09:28:29.993Z</time></trkpt><trkpt lat="45.49404971448379" lon="11.200349187636158"><ele>180.0</ele><time>2026-04-25T09:28:30.993Z</time></trkpt><trkpt lat="45.49406047804026" lon="11.200441836040552"><ele>180.0</ele><time>2026-04-25T09:28:31.993Z</time></trkpt><trkpt lat="45.494097472492506" lon="11.200532134487778"><ele>180.0</ele><time>2026-04-25T09:28:32.993Z</time></trkpt><trkpt lat="45.49419740972396" lon="11.200616665027724"><ele>180.0</ele><time>2026-04-25T09:28:34.993Z</time></trkpt><trkpt lat="45.49421845721252" lon="11.20072297071736"><ele>180.0</ele><time>2026-04-25T09:28:35.993Z</time></trkpt><trkpt lat="45.49422863286338" lon="11.200869548535259"><ele>180.0</ele><time>2026-04-25T09:28:36.993Z</time></trkpt><trkpt lat="45.49426908563884" lon="11.201009991500985"><ele>180.0</ele><time>2026-04-25T09:28:37.993Z</time></trkpt><trkpt lat="45.49432429217977" lon="11.201143739081846"><ele>182.6</ele><time>2026-04-25T09:28:38.993Z</time></trkpt><trkpt lat="45.494374029628986" lon="11.201294986473432"><ele>185.2</ele><time>2026-04-25T09:28:39.993Z</time></trkpt><trkpt lat="45.49441219952386" lon="11.201416108056161"><ele>187.8</ele><time>2026-04-25T09:28:40.993Z</time></trkpt><trkpt lat="45.49442144972971" lon="11.201525944847381"><ele>190.4</ele><time>2026-04-25T09:28:41.993Z</time></trkpt><trkpt lat="45.494442751300205" lon="11.201645633270324"><ele>193.0</ele><time>2026-04-25T09:28:42.993Z</time></trkpt><trkpt lat="45.49448576304768" lon="11.201755420099053"><ele>195.5</ele><time>2026-04-25T09:28:43.993Z</time></trkpt><trkpt lat="45.49453465882036" lon="11.201856995004224"><ele>198.0</ele><time>2026-04-25T09:28:44.993Z</time></trkpt><trkpt lat="45.49457611983181" lon="11.20202979399408"><ele>200.5</ele><time>2026-04-25T09:28:46.993Z</time></trkpt><trkpt lat="45.49464261659307" lon="11.202183092169264"><ele>203.0</ele><time>2026-04-25T09:28:48.993Z</time></trkpt><trkpt lat="45.494736981538516" lon="11.202315995876473"><ele>208.60000000000002</ele><time>2026-04-25T09:28:50.994Z</time></trkpt><trkpt lat="45.49480196644053" lon="11.202382623962265"><ele>214.20000000000002</ele><time>2026-04-25T09:28:51.994Z</time></trkpt><trkpt lat="45.494857832612674" lon="11.2024452605263"><ele>219.8</ele><time>2026-04-25T09:28:53.994Z</time></trkpt><trkpt lat="45.49495963450046" lon="11.202239927782648"><ele>225.4</ele><time>2026-04-25T09:28:58.993Z</time></trkpt><trkpt lat="45.49502686122525" lon="11.202148808950328"><ele>231.0</ele><time>2026-04-25T09:29:00.994Z</time></trkpt><trkpt lat="45.495147026135946" lon="11.20202707776798"><ele>231.0</ele><time>2026-04-25T09:29:02.994Z</time></trkpt><trkpt lat="45.49521195309617" lon="11.201985143201373"><ele>231.00000000000003</ele><time>2026-04-25T09:29:03.994Z</time></trkpt><trkpt lat="45.49528108981113" lon="11.201938521991243"><ele>231.00000000000003</ele><time>2026-04-25T09:29:04.994Z</time></trkpt><trkpt lat="45.49541833748394" lon="11.201972490664097"><ele>231.0</ele><time>2026-04-25T09:29:06.994Z</time></trkpt><trkpt lat="45.49551593822355" lon="11.202005611424322"><ele>231.0</ele><time>2026-04-25T09:29:07.994Z</time></trkpt><trkpt lat="45.49561483468326" lon="11.202027968801456"><ele>235.0</ele><time>2026-04-25T09:29:08.994Z</time></trkpt><trkpt lat="45.495677592866805" lon="11.202106735585867"><ele>239.0</ele><time>2026-04-25T09:29:10.994Z</time></trkpt><trkpt lat="45.49571368522759" lon="11.20229016921042"><ele>243.0</ele><time>2026-04-25T09:29:12.994Z</time></trkpt><trkpt lat="45.495795763843965" lon="11.202448705455984"><ele>247.0</ele><time>2026-04-25T09:29:14.994Z</time></trkpt><trkpt lat="45.49588518662138" lon="11.202534164553859"><ele>249.8</ele><time>2026-04-25T09:29:15.994Z</time></trkpt><trkpt lat="45.49598786615226" lon="11.202536437141662"><ele>252.6</ele><time>2026-04-25T09:29:16.994Z</time></trkpt><trkpt lat="45.496071684151616" lon="11.202566620651403"><ele>255.40000000000003</ele><time>2026-04-25T09:29:17.994Z</time></trkpt><trkpt lat="45.49618259875524" lon="11.202600276236382"><ele>258.2</ele><time>2026-04-25T09:29:18.994Z</time></trkpt><trkpt lat="45.49628245549869" lon="11.202630862413436"><ele>261.0</ele><time>2026-04-25T09:29:19.994Z</time></trkpt><trkpt lat="45.49638523877752" lon="11.202670736589306"><ele>263.0</ele><time>2026-04-25T09:29:20.994Z</time></trkpt><trkpt lat="45.49647851572339" lon="11.202717893861754"><ele>265.0</ele><time>2026-04-25T09:29:21.994Z</time></trkpt><trkpt lat="45.49658660784" lon="11.20277713415546"><ele>267.0</ele><time>2026-04-25T09:29:22.994Z</time></trkpt><trkpt lat="45.49673074982137" lon="11.202829377332812"><ele>269.0</ele><time>2026-04-25T09:29:23.994Z</time></trkpt><trkpt lat="45.49685756000832" lon="11.202915583469846"><ele>269.0</ele><time>2026-04-25T09:29:24.994Z</time></trkpt><trkpt lat="45.49695222731505" lon="11.203006156606397"><ele>269.0</ele><time>2026-04-25T09:29:25.994Z</time></trkpt><trkpt lat="45.49702180337498" lon="11.203072478354242"><ele>269.0</ele><time>2026-04-25T09:29:26.994Z</time></trkpt><trkpt lat="45.49706749659859" lon="11.203144931534526"><ele>269.0</ele><time>2026-04-25T09:29:27.994Z</time></trkpt><trkpt lat="45.4970973817354" lon="11.203226947456683"><ele>269.0</ele><time>2026-04-25T09:29:28.994Z</time></trkpt><trkpt lat="45.49715236159561" lon="11.203324274328825"><ele>269.0</ele><time>2026-04-25T09:29:29.994Z</time></trkpt><trkpt lat="45.49722326881254" lon="11.203422958128039"><ele>271.8</ele><time>2026-04-25T09:29:30.994Z</time></trkpt><trkpt lat="45.497286969674555" lon="11.203502052816777"><ele>274.59999999999997</ele><time>2026-04-25T09:29:31.994Z</time></trkpt><trkpt lat="45.497342150167725" lon="11.203590716620372"><ele>277.4</ele><time>2026-04-25T09:29:32.994Z</time></trkpt><trkpt lat="45.497400697485126" lon="11.203665713098838"><ele>280.2</ele><time>2026-04-25T09:29:33.994Z</time></trkpt><trkpt lat="45.497448337122435" lon="11.203840544802125"><ele>283.0</ele><time>2026-04-25T09:29:35.993Z</time></trkpt><trkpt lat="45.497449226975" lon="11.203951685727096"><ele>288.2</ele><time>2026-04-25T09:29:36.993Z</time></trkpt><trkpt lat="45.4974280009859" lon="11.204087386935282"><ele>293.4</ele><time>2026-04-25T09:29:37.993Z</time></trkpt><trkpt lat="45.49742455681219" lon="11.204218025504776"><ele>298.59999999999997</ele><time>2026-04-25T09:29:38.993Z</time></trkpt><trkpt lat="45.49747392334145" lon="11.20435785185232"><ele>303.8</ele><time>2026-04-25T09:29:40.993Z</time></trkpt><trkpt lat="45.49753486075296" lon="11.204432986334805"><ele>309.0</ele><time>2026-04-25T09:29:41.993Z</time></trkpt><trkpt lat="45.49761409524596" lon="11.204520384968399"><ele>309.0</ele><time>2026-04-25T09:29:43.993Z</time></trkpt><trkpt lat="45.49768797534244" lon="11.204552401681127"><ele>309.0</ele><time>2026-04-25T09:29:45.993Z</time></trkpt><trkpt lat="45.49781388644641" lon="11.204606010794565"><ele>309.0</ele><time>2026-04-25T09:29:47.993Z</time></trkpt><trkpt lat="45.49790212936184" lon="11.204626347932583"><ele>309.0</ele><time>2026-04-25T09:29:49.993Z</time></trkpt><trkpt lat="45.4980067350306" lon="11.20470469138618"><ele>309.0</ele><time>2026-04-25T09:29:51.993Z</time></trkpt><trkpt lat="45.4980858387937" lon="11.204751828006112"><ele>307.8333333333333</ele><time>2026-04-25T09:29:52.993Z</time></trkpt><trkpt lat="45.49817960168715" lon="11.204771027229768"><ele>306.6666666666667</ele><time>2026-04-25T09:29:53.993Z</time></trkpt><trkpt lat="45.49826018893415" lon="11.204806027315646"><ele>305.5</ele><time>2026-04-25T09:29:54.993Z</time></trkpt><trkpt lat="45.498328706414384" lon="11.204823215273716"><ele>304.33333333333337</ele><time>2026-04-25T09:29:55.993Z</time></trkpt><trkpt lat="45.49839441821315" lon="11.204849745043973"><ele>303.1666666666667</ele><time>2026-04-25T09:29:56.993Z</time></trkpt><trkpt lat="45.49845737106148" lon="11.20489885828981"><ele>302.0</ele><time>2026-04-25T09:29:57.993Z</time></trkpt><trkpt lat="45.498542155063355" lon="11.20501033697748"><ele>303.4</ele><time>2026-04-25T09:29:59.993Z</time></trkpt><trkpt lat="45.498589038993174" lon="11.20509785558228"><ele>304.79999999999995</ele><time>2026-04-25T09:30:00.993Z</time></trkpt><trkpt lat="45.498642528007686" lon="11.205193963604032"><ele>306.2</ele><time>2026-04-25T09:30:01.993Z</time></trkpt><trkpt lat="45.49870713774598" lon="11.205251148753934"><ele>307.59999999999997</ele><time>2026-04-25T09:30:02.993Z</time></trkpt><trkpt lat="45.49880406034085" lon="11.205396640529427"><ele>309.0</ele><time>2026-04-25T09:30:03.993Z</time></trkpt><trkpt lat="45.498915514341164" lon="11.205580631667143"><ele>315.2</ele><time>2026-04-25T09:30:04.993Z</time></trkpt><trkpt lat="45.4990309628291" lon="11.205715285278782"><ele>321.4</ele><time>2026-04-25T09:30:05.993Z</time></trkpt><trkpt lat="45.49912618196498" lon="11.20580496755591"><ele>327.6</ele><time>2026-04-25T09:30:06.993Z</time></trkpt><trkpt lat="45.499206018360574" lon="11.205904008731826"><ele>333.8</ele><time>2026-04-25T09:30:07.993Z</time></trkpt><trkpt lat="45.49925565058885" lon="11.205986932153213"><ele>340.0</ele><time>2026-04-25T09:30:08.993Z</time></trkpt><trkpt lat="45.49932124454348" lon="11.206110354684032"><ele>340.0</ele><time>2026-04-25T09:30:10.993Z</time></trkpt><trkpt lat="45.49936097155706" lon="11.206228107007577"><ele>340.0</ele><time>2026-04-25T09:30:11.993Z</time></trkpt><trkpt lat="45.49938808338879" lon="11.206336127680768"><ele>340.0</ele><time>2026-04-25T09:30:12.993Z</time></trkpt><trkpt lat="45.49942644048506" lon="11.206493154112943"><ele>340.0</ele><time>2026-04-25T09:30:13.993Z</time></trkpt><trkpt lat="45.49946310199284" lon="11.206625598049692"><ele>340.0</ele><time>2026-04-25T09:30:14.993Z</time></trkpt><trkpt lat="45.49953954235638" lon="11.206800944533587"><ele>340.0</ele><time>2026-04-25T09:30:15.993Z</time></trkpt><trkpt lat="45.49959918176125" lon="11.206952162613511"><ele>340.0</ele><time>2026-04-25T09:30:16.993Z</time></trkpt><trkpt lat="45.49965893313039" lon="11.207112393120601"><ele>340.0</ele><time>2026-04-25T09:30:17.993Z</time></trkpt><trkpt lat="45.49971335561264" lon="11.207291414403032"><ele>340.0</ele><time>2026-04-25T09:30:18.993Z</time></trkpt><trkpt lat="45.4997501808828" lon="11.207431725952588"><ele>344.6</ele><time>2026-04-25T09:30:19.993Z</time></trkpt><trkpt lat="45.49979104813698" lon="11.207567941656345"><ele>349.2</ele><time>2026-04-25T09:30:20.993Z</time></trkpt><trkpt lat="45.49984798125639" lon="11.207701107492673"><ele>353.79999999999995</ele><time>2026-04-25T09:30:21.993Z</time></trkpt><trkpt lat="45.49991615570444" lon="11.20785367803537"><ele>358.4</ele><time>2026-04-25T09:30:22.993Z</time></trkpt><trkpt lat="45.49998015948314" lon="11.207971455249107"><ele>363.0</ele><time>2026-04-25T09:30:23.993Z</time></trkpt><trkpt lat="45.500056018922216" lon="11.208089079513716"><ele>368.75</ele><time>2026-04-25T09:30:24.993Z</time></trkpt><trkpt lat="45.50013190689588" lon="11.208172042915372"><ele>374.5</ele><time>2026-04-25T09:30:25.993Z</time></trkpt><trkpt lat="45.50019237460067" lon="11.208298084309858"><ele>380.25</ele><time>2026-04-25T09:30:26.993Z</time></trkpt><trkpt lat="45.50025478341533" lon="11.208425218995803"><ele>386.0</ele><time>2026-04-25T09:30:27.993Z</time></trkpt><trkpt lat="45.500349707928436" lon="11.208679077817889"><ele>382.5</ele><time>2026-04-25T09:30:28.993Z</time></trkpt><trkpt lat="45.50043063526463" lon="11.208879979484855"><ele>379.0</ele><time>2026-04-25T09:30:29.993Z</time></trkpt><trkpt lat="45.50050342863717" lon="11.20905100070473"><ele>375.5</ele><time>2026-04-25T09:30:30.993Z</time></trkpt><trkpt lat="45.500548989252366" lon="11.209190800941021"><ele>372.0</ele><time>2026-04-25T09:30:31.993Z</time></trkpt><trkpt lat="45.5005765055213" lon="11.209314753604138"><ele>372.0</ele><time>2026-04-25T09:30:32.993Z</time></trkpt><trkpt lat="45.50066194795814" lon="11.209372144860495"><ele>372.0</ele><time>2026-04-25T09:30:34.993Z</time></trkpt><trkpt lat="45.50072028755134" lon="11.209430845920577"><ele>372.0</ele><time>2026-04-25T09:30:35.993Z</time></trkpt><trkpt lat="45.50078049850756" lon="11.209521668142376"><ele>372.0</ele><time>2026-04-25T09:30:36.993Z</time></trkpt><trkpt lat="45.500886031213916" lon="11.209669722612368"><ele>372.0</ele><time>2026-04-25T09:30:37.993Z</time></trkpt><trkpt lat="45.50096861009695" lon="11.209823777109152"><ele>373.3333333333333</ele><time>2026-04-25T09:30:38.993Z</time></trkpt><trkpt lat="45.501037556801734" lon="11.20992274440163"><ele>374.6666666666667</ele><time>2026-04-25T09:30:39.993Z</time></trkpt><trkpt lat="45.501096838150175" lon="11.209975505483602"><ele>376.0</ele><time>2026-04-25T09:30:40.993Z</time></trkpt><trkpt lat="45.50116034278779" lon="11.210021962805666"><ele>377.33333333333337</ele><time>2026-04-25T09:30:41.993Z</time></trkpt><trkpt lat="45.50120793178025" lon="11.210085388406107"><ele>378.6666666666667</ele><time>2026-04-25T09:30:42.993Z</time></trkpt><trkpt lat="45.50127727643113" lon="11.210163540463126"><ele>380.0</ele><time>2026-04-25T09:30:43.993Z</time></trkpt><trkpt lat="45.50134762270483" lon="11.210243130279437"><ele>380.0</ele><time>2026-04-25T09:30:44.993Z</time></trkpt><trkpt lat="45.501425220222885" lon="11.210307028531389"><ele>380.0</ele><time>2026-04-25T09:30:45.993Z</time></trkpt><trkpt lat="45.50151486897873" lon="11.210382904835445"><ele>380.0</ele><time>2026-04-25T09:30:47.993Z</time></trkpt><trkpt lat="45.50156705264445" lon="11.210505049072781"><ele>380.0</ele><time>2026-04-25T09:30:49.993Z</time></trkpt><trkpt lat="45.50162114464759" lon="11.21062584785524"><ele>380.0</ele><time>2026-04-25T09:30:51.993Z</time></trkpt><trkpt lat="45.50163561499714" lon="11.210718823771094"><ele>386.33333333333337</ele><time>2026-04-25T09:30:54.993Z</time></trkpt><trkpt lat="45.50156412086212" lon="11.210766240638195"><ele>392.6666666666667</ele><time>2026-04-25T09:30:58.993Z</time></trkpt><trkpt lat="45.50146060319306" lon="11.210759992666667"><ele>399.0</ele><time>2026-04-25T09:31:00.993Z</time></trkpt><trkpt lat="45.501379409090845" lon="11.210818325846345"><ele>405.33333333333337</ele><time>2026-04-25T09:31:02.993Z</time></trkpt><trkpt lat="45.501422669887965" lon="11.210922970352973"><ele>411.6666666666667</ele><time>2026-04-25T09:31:05.993Z</time></trkpt><trkpt lat="45.5014785991126" lon="11.21102479968535"><ele>418.0</ele><time>2026-04-25T09:31:07.993Z</time></trkpt><trkpt lat="45.50154031106235" lon="11.211167639672547"><ele>418.00000000000006</ele><time>2026-04-25T09:31:09.993Z</time></trkpt><trkpt lat="45.501579878115564" lon="11.211258067244243"><ele>418.0</ele><time>2026-04-25T09:31:10.993Z</time></trkpt><trkpt lat="45.50160626915268" lon="11.211363651111215"><ele>418.0</ele><time>2026-04-25T09:31:11.993Z</time></trkpt><trkpt lat="45.50163854602213" lon="11.211490731940382"><ele>418.0</ele><time>2026-04-25T09:31:13.993Z</time></trkpt><trkpt lat="45.50154633515682" lon="11.211549713634039"><ele>418.00000000000006</ele><time>2026-04-25T09:31:16.993Z</time></trkpt><trkpt lat="45.50146036356655" lon="11.211538048622934"><ele>418.0</ele><time>2026-04-25T09:31:17.993Z</time></trkpt><trkpt lat="45.501369302777036" lon="11.211495697238925"><ele>418.0</ele><time>2026-04-25T09:31:18.993Z</time></trkpt><trkpt lat="45.50126259839436" lon="11.211431377994783"><ele>418.0</ele><time>2026-04-25T09:31:19.993Z</time></trkpt><trkpt lat="45.50115392249575" lon="11.211426943461335"><ele>418.0</ele><time>2026-04-25T09:31:20.993Z</time></trkpt><trkpt lat="45.50102963327822" lon="11.21136157669679"><ele>418.0</ele><time>2026-04-25T09:31:21.993Z</time></trkpt><trkpt lat="45.500905747063975" lon="11.211329064179738"><ele>422.2</ele><time>2026-04-25T09:31:22.993Z</time></trkpt><trkpt lat="45.50081148607647" lon="11.211313143013575"><ele>426.4</ele><time>2026-04-25T09:31:23.993Z</time></trkpt><trkpt lat="45.50070917428339" lon="11.211343409845703"><ele>430.59999999999997</ele><time>2026-04-25T09:31:25.993Z</time></trkpt><trkpt lat="45.50059270956269" lon="11.211457737167592"><ele>434.79999999999995</ele><time>2026-04-25T09:31:27.993Z</time></trkpt><trkpt lat="45.500518072542484" lon="11.211563459584772"><ele>439.0</ele><time>2026-04-25T09:31:28.993Z</time></trkpt><trkpt lat="45.50045996680025" lon="11.211668774548354"><ele>444.6666666666667</ele><time>2026-04-25T09:31:29.993Z</time></trkpt><trkpt lat="45.50041777187263" lon="11.211737613406223"><ele>450.33333333333337</ele><time>2026-04-25T09:31:30.993Z</time></trkpt><trkpt lat="45.50041684969062" lon="11.211841440781505"><ele>456.0</ele><time>2026-04-25T09:31:32.993Z</time></trkpt><trkpt lat="45.50045065471952" lon="11.211955040798035"><ele>461.66666666666663</ele><time>2026-04-25T09:31:34.993Z</time></trkpt><trkpt lat="45.50055300824576" lon="11.21199538819511"><ele>467.3333333333333</ele><time>2026-04-25T09:31:36.993Z</time></trkpt><trkpt lat="45.50062639889255" lon="11.212025578958198"><ele>473.0</ele><time>2026-04-25T09:31:37.993Z</time></trkpt><trkpt lat="45.5007135720519" lon="11.212068565572952"><ele>472.99999999999994</ele><time>2026-04-25T09:31:38.993Z</time></trkpt><trkpt lat="45.50080283003932" lon="11.212095042196655"><ele>473.0</ele><time>2026-04-25T09:31:39.993Z</time></trkpt><trkpt lat="45.50086656658937" lon="11.212168639997863"><ele>473.0</ele><time>2026-04-25T09:31:40.993Z</time></trkpt><trkpt lat="45.50092208504642" lon="11.212243921581777"><ele>473.0</ele><time>2026-04-25T09:31:41.993Z</time></trkpt><trkpt lat="45.50098320893049" lon="11.21232441724339"><ele>472.99999999999994</ele><time>2026-04-25T09:31:42.993Z</time></trkpt><trkpt lat="45.50106236760074" lon="11.212432708939957"><ele>473.0</ele><time>2026-04-25T09:31:43.993Z</time></trkpt><trkpt lat="45.501155285527354" lon="11.212558994424485"><ele>476.25</ele><time>2026-04-25T09:31:44.992Z</time></trkpt><trkpt lat="45.50123862215606" lon="11.212678818321145"><ele>479.5</ele><time>2026-04-25T09:31:45.992Z</time></trkpt><trkpt lat="45.5013328720756" lon="11.212803955197604"><ele>482.75</ele><time>2026-04-25T09:31:46.992Z</time></trkpt><trkpt lat="45.50141715741467" lon="11.212913715107296"><ele>486.0</ele><time>2026-04-25T09:31:47.992Z</time></trkpt><trkpt lat="45.50151518788748" lon="11.213009053417132"><ele>486.0</ele><time>2026-04-25T09:31:48.992Z</time></trkpt><trkpt lat="45.50157825678287" lon="11.21308846654753"><ele>486.0</ele><time>2026-04-25T09:31:49.992Z</time></trkpt><trkpt lat="45.50164841052293" lon="11.213154094542341"><ele>486.0</ele><time>2026-04-25T09:31:50.992Z</time></trkpt><trkpt lat="45.501745238502316" lon="11.213188868608105"><ele>486.0</ele><time>2026-04-25T09:31:51.992Z</time></trkpt><trkpt lat="45.501840829494704" lon="11.213214184399895"><ele>486.0</ele><time>2026-04-25T09:31:52.992Z</time></trkpt><trkpt lat="45.50193887038649" lon="11.213214289503783"><ele>487.6</ele><time>2026-04-25T09:31:53.992Z</time></trkpt><trkpt lat="45.50202688788453" lon="11.213221504939128"><ele>489.20000000000005</ele><time>2026-04-25T09:31:54.992Z</time></trkpt><trkpt lat="45.50211263234901" lon="11.21327027226356"><ele>490.79999999999995</ele><time>2026-04-25T09:31:55.992Z</time></trkpt><trkpt lat="45.50218627518438" lon="11.213409886494457"><ele>492.4</ele><time>2026-04-25T09:31:56.992Z</time></trkpt><trkpt lat="45.50228114610604" lon="11.213548616076054"><ele>494.0</ele><time>2026-04-25T09:31:57.992Z</time></trkpt><trkpt lat="45.50236729739616" lon="11.213698854443587"><ele>495.0</ele><time>2026-04-25T09:31:58.992Z</time></trkpt><trkpt lat="45.502471456073984" lon="11.213854254976114"><ele>496.0</ele><time>2026-04-25T09:31:59.992Z</time></trkpt><trkpt lat="45.5025619243574" lon="11.214011608670381"><ele>497.0</ele><time>2026-04-25T09:32:00.992Z</time></trkpt><trkpt lat="45.50265449219106" lon="11.214156422326724"><ele>498.0</ele><time>2026-04-25T09:32:01.992Z</time></trkpt><trkpt lat="45.502738514008335" lon="11.21432195184775"><ele>502.0</ele><time>2026-04-25T09:32:02.992Z</time></trkpt><trkpt lat="45.50285641725619" lon="11.21446952172853"><ele>506.0</ele><time>2026-04-25T09:32:03.992Z</time></trkpt><trkpt lat="45.50299055528463" lon="11.21460534775581"><ele>510.0</ele><time>2026-04-25T09:32:04.992Z</time></trkpt><trkpt lat="45.50311436571577" lon="11.214724269909704"><ele>514.5</ele><time>2026-04-25T09:32:05.992Z</time></trkpt><trkpt lat="45.503233474608116" lon="11.214844386875177"><ele>519.0</ele><time>2026-04-25T09:32:06.992Z</time></trkpt><trkpt lat="45.50334665212284" lon="11.21497413876019"><ele>523.5</ele><time>2026-04-25T09:32:07.992Z</time></trkpt><trkpt lat="45.50346915846266" lon="11.21510215086575"><ele>528.0</ele><time>2026-04-25T09:32:08.992Z</time></trkpt><trkpt lat="45.50358338987878" lon="11.21522974615308"><ele>528.0</ele><time>2026-04-25T09:32:09.992Z</time></trkpt><trkpt lat="45.503707638603764" lon="11.21537030306891"><ele>528.0</ele><time>2026-04-25T09:32:10.992Z</time></trkpt><trkpt lat="45.5038178914367" lon="11.215532130874891"><ele>528.0</ele><time>2026-04-25T09:32:11.992Z</time></trkpt><trkpt lat="45.50392182839295" lon="11.215694021148883"><ele>531.25</ele><time>2026-04-25T09:32:12.992Z</time></trkpt><trkpt lat="45.504005575579626" lon="11.21588454663483"><ele>534.5</ele><time>2026-04-25T09:32:13.992Z</time></trkpt><trkpt lat="45.50406104705588" lon="11.216081112296667"><ele>537.75</ele><time>2026-04-25T09:32:14.992Z</time></trkpt><trkpt lat="45.504134556787825" lon="11.216254790373444"><ele>541.0</ele><time>2026-04-25T09:32:15.992Z</time></trkpt><trkpt lat="45.50421980086301" lon="11.2164066101816"><ele>543.0</ele><time>2026-04-25T09:32:16.992Z</time></trkpt><trkpt lat="45.50434021221822" lon="11.216534607161888"><ele>545.0</ele><time>2026-04-25T09:32:17.992Z</time></trkpt><trkpt lat="45.50444429553983" lon="11.216653144981427"><ele>547.0</ele><time>2026-04-25T09:32:18.992Z</time></trkpt><trkpt lat="45.504529409714884" lon="11.216758796969074"><ele>549.0</ele><time>2026-04-25T09:32:19.992Z</time></trkpt><trkpt lat="45.50458728588583" lon="11.216858352281543"><ele>550.2</ele><time>2026-04-25T09:32:20.992Z</time></trkpt><trkpt lat="45.50461675146703" lon="11.216987019586918"><ele>551.4</ele><time>2026-04-25T09:32:21.992Z</time></trkpt><trkpt lat="45.50462132004199" lon="11.217128716396143"><ele>552.6</ele><time>2026-04-25T09:32:22.992Z</time></trkpt><trkpt lat="45.50460237858848" lon="11.217280782688087"><ele>553.8</ele><time>2026-04-25T09:32:23.992Z</time></trkpt><trkpt lat="45.50455927685707" lon="11.217405366201183"><ele>555.0</ele><time>2026-04-25T09:32:24.992Z</time></trkpt><trkpt lat="45.504530471103855" lon="11.2175089719003"><ele>556.1666666666666</ele><time>2026-04-25T09:32:25.992Z</time></trkpt><trkpt lat="45.504526498544664" lon="11.217601398954477"><ele>557.3333333333334</ele><time>2026-04-25T09:32:26.992Z</time></trkpt><trkpt lat="45.50450566406503" lon="11.217717530513386"><ele>558.5</ele><time>2026-04-25T09:32:28.992Z</time></trkpt><trkpt lat="45.504448388320746" lon="11.217794050267138"><ele>559.6666666666667</ele><time>2026-04-25T09:32:31.992Z</time></trkpt><trkpt lat="45.50437670933731" lon="11.217768643504236"><ele>560.8333333333334</ele><time>2026-04-25T09:32:34.992Z</time></trkpt><trkpt lat="45.504294874028474" lon="11.217724149744427"><ele>562.0</ele><time>2026-04-25T09:32:40.992Z</time></trkpt><trkpt lat="45.50421999359356" lon="11.217668321580188"><ele>562.0</ele><time>2026-04-25T09:32:41.992Z</time></trkpt><trkpt lat="45.504153431478564" lon="11.217590470527714"><ele>562.0</ele><time>2026-04-25T09:32:42.992Z</time></trkpt><trkpt lat="45.50406773902737" lon="11.217505624146941"><ele>562.0</ele><time>2026-04-25T09:32:43.992Z</time></trkpt><trkpt lat="45.50396259602936" lon="11.217454627479372"><ele>562.0</ele><time>2026-04-25T09:32:44.992Z</time></trkpt><trkpt lat="45.503870108471915" lon="11.217379904675605"><ele>562.0</ele><time>2026-04-25T09:32:45.992Z</time></trkpt><trkpt lat="45.50376435349828" lon="11.217336012491412"><ele>560.8000000000001</ele><time>2026-04-25T09:32:46.992Z</time></trkpt><trkpt lat="45.50366874920068" lon="11.217278381569042"><ele>559.6</ele><time>2026-04-25T09:32:47.992Z</time></trkpt><trkpt lat="45.503561937612695" lon="11.217250939027133"><ele>558.4000000000001</ele><time>2026-04-25T09:32:48.992Z</time></trkpt><trkpt lat="45.50345065260315" lon="11.217261944701203"><ele>557.2</ele><time>2026-04-25T09:32:49.992Z</time></trkpt><trkpt lat="45.50332836373567" lon="11.217295506708512"><ele>556.0</ele><time>2026-04-25T09:32:50.992Z</time></trkpt><trkpt lat="45.503202406053006" lon="11.21732930042316"><ele>556.0</ele><time>2026-04-25T09:32:51.992Z</time></trkpt><trkpt lat="45.50308075984899" lon="11.217356873362139"><ele>556.0</ele><time>2026-04-25T09:32:52.992Z</time></trkpt><trkpt lat="45.50296692187758" lon="11.217374403978257"><ele>556.0</ele><time>2026-04-25T09:32:53.992Z</time></trkpt><trkpt lat="45.502828484332326" lon="11.217423858271038"><ele>556.0</ele><time>2026-04-25T09:32:54.992Z</time></trkpt><trkpt lat="45.502706740836715" lon="11.21744936784155"><ele>554.75</ele><time>2026-04-25T09:32:55.992Z</time></trkpt><trkpt lat="45.50257740290726" lon="11.217484616481766"><ele>553.5</ele><time>2026-04-25T09:32:56.992Z</time></trkpt><trkpt lat="45.5024445163465" lon="11.217508235001462"><ele>552.25</ele><time>2026-04-25T09:32:57.992Z</time></trkpt><trkpt lat="45.50230893807331" lon="11.217546348431181"><ele>551.0</ele><time>2026-04-25T09:32:58.992Z</time></trkpt><trkpt lat="45.50218048091512" lon="11.217564573033897"><ele>549.25</ele><time>2026-04-25T09:32:59.993Z</time></trkpt><trkpt lat="45.50206947238094" lon="11.217613812090088"><ele>547.5</ele><time>2026-04-25T09:33:00.993Z</time></trkpt><trkpt lat="45.50194106590989" lon="11.217643090813953"><ele>545.75</ele><time>2026-04-25T09:33:01.993Z</time></trkpt><trkpt lat="45.50181238115892" lon="11.217682192045402"><ele>544.0</ele><time>2026-04-25T09:33:02.993Z</time></trkpt><trkpt lat="45.50167798120396" lon="11.217709040046332"><ele>544.0</ele><time>2026-04-25T09:33:03.993Z</time></trkpt><trkpt lat="45.50154666442588" lon="11.217725609040542"><ele>544.0</ele><time>2026-04-25T09:33:04.993Z</time></trkpt><trkpt lat="45.50141174364958" lon="11.217740268912081"><ele>544.0</ele><time>2026-04-25T09:33:05.993Z</time></trkpt><trkpt lat="45.50127492800064" lon="11.21775817404387"><ele>544.0</ele><time>2026-04-25T09:33:06.993Z</time></trkpt><trkpt lat="45.50113502152735" lon="11.217778489406216"><ele>541.25</ele><time>2026-04-25T09:33:07.993Z</time></trkpt><trkpt lat="45.50099918504705" lon="11.217775058424776"><ele>538.5</ele><time>2026-04-25T09:33:08.993Z</time></trkpt><trkpt lat="45.500868194693886" lon="11.217756644191452"><ele>535.75</ele><time>2026-04-25T09:33:09.993Z</time></trkpt><trkpt lat="45.50073433428814" lon="11.217755977354178"><ele>533.0</ele><time>2026-04-25T09:33:10.993Z</time></trkpt><trkpt lat="45.50060762923053" lon="11.217757960662384"><ele>533.0</ele><time>2026-04-25T09:33:11.993Z</time></trkpt><trkpt lat="45.50048770754902" lon="11.217788486985544"><ele>533.0</ele><time>2026-04-25T09:33:12.993Z</time></trkpt><trkpt lat="45.50036283295168" lon="11.217804942991942"><ele>533.0</ele><time>2026-04-25T09:33:13.993Z</time></trkpt><trkpt lat="45.50024286899518" lon="11.217848236915334"><ele>533.0</ele><time>2026-04-25T09:33:14.993Z</time></trkpt><trkpt lat="45.500126536981774" lon="11.217912905811588"><ele>531.0</ele><time>2026-04-25T09:33:15.993Z</time></trkpt><trkpt lat="45.50001782151973" lon="11.217979482125536"><ele>529.0</ele><time>2026-04-25T09:33:16.993Z</time></trkpt><trkpt lat="45.49991225511437" lon="11.218077022404627"><ele>527.0</ele><time>2026-04-25T09:33:17.993Z</time></trkpt><trkpt lat="45.49980929967087" lon="11.218150197697506"><ele>525.0</ele><time>2026-04-25T09:33:18.993Z</time></trkpt><trkpt lat="45.499689111958446" lon="11.218192233901439"><ele>524.4</ele><time>2026-04-25T09:33:19.993Z</time></trkpt><trkpt lat="45.49958299888998" lon="11.218234665739178"><ele>523.8</ele><time>2026-04-25T09:33:20.993Z</time></trkpt><trkpt lat="45.499494385405576" lon="11.218274686028735"><ele>523.2</ele><time>2026-04-25T09:33:21.993Z</time></trkpt><trkpt lat="45.49942515491677" lon="11.218303464157083"><ele>522.6</ele><time>2026-04-25T09:33:22.993Z</time></trkpt><trkpt lat="45.49933759637708" lon="11.21838232660229"><ele>522.0</ele><time>2026-04-25T09:33:24.993Z</time></trkpt><trkpt lat="45.49931754385456" lon="11.218480012119748"><ele>522.0</ele><time>2026-04-25T09:33:26.993Z</time></trkpt><trkpt lat="45.49937309002582" lon="11.218639129133194"><ele>522.0</ele><time>2026-04-25T09:33:28.993Z</time></trkpt><trkpt lat="45.49937420262537" lon="11.218741345149157"><ele>522.0</ele><time>2026-04-25T09:33:29.993Z</time></trkpt><trkpt lat="45.49939816474702" lon="11.218852756241018"><ele>522.0</ele><time>2026-04-25T09:33:30.993Z</time></trkpt><trkpt lat="45.49945343525861" lon="11.218946895438332"><ele>522.0</ele><time>2026-04-25T09:33:31.993Z</time></trkpt><trkpt lat="45.49953888121969" lon="11.219006048393883"><ele>519.8000000000001</ele><time>2026-04-25T09:33:32.993Z</time></trkpt><trkpt lat="45.49962855269652" lon="11.21903455131465"><ele>517.6</ele><time>2026-04-25T09:33:33.993Z</time></trkpt><trkpt lat="45.499701485134665" lon="11.219059057318947"><ele>515.4000000000001</ele><time>2026-04-25T09:33:34.993Z</time></trkpt><trkpt lat="45.499809074599106" lon="11.219049657304536"><ele>513.2</ele><time>2026-04-25T09:33:36.993Z</time></trkpt><trkpt lat="45.49993396437346" lon="11.219022640997526"><ele>511.0</ele><time>2026-04-25T09:33:38.993Z</time></trkpt><trkpt lat="45.50000819278139" lon="11.219015572975868"><ele>511.0</ele><time>2026-04-25T09:33:39.993Z</time></trkpt><trkpt lat="45.50010464803431" lon="11.21898498901768"><ele>511.0</ele><time>2026-04-25T09:33:40.993Z</time></trkpt><trkpt lat="45.500224902023135" lon="11.218972545630534"><ele>511.0</ele><time>2026-04-25T09:33:41.993Z</time></trkpt><trkpt lat="45.50034637527" lon="11.21898354568099"><ele>511.0</ele><time>2026-04-25T09:33:42.993Z</time></trkpt><trkpt lat="45.50048106177055" lon="11.218980009862184"><ele>518.0</ele><time>2026-04-25T09:33:43.993Z</time></trkpt><trkpt lat="45.500633263279475" lon="11.218956192097556"><ele>525.0</ele><time>2026-04-25T09:33:44.993Z</time></trkpt><trkpt lat="45.50078154735779" lon="11.21894722293266"><ele>532.0</ele><time>2026-04-25T09:33:45.993Z</time></trkpt><trkpt lat="45.500932991160276" lon="11.218933937579957"><ele>532.0</ele><time>2026-04-25T09:33:46.993Z</time></trkpt><trkpt lat="45.501075515070085" lon="11.218925992870993"><ele>532.0</ele><time>2026-04-25T09:33:47.993Z</time></trkpt><trkpt lat="45.50122255137129" lon="11.218952150241014"><ele>532.0</ele><time>2026-04-25T09:33:48.993Z</time></trkpt><trkpt lat="45.50136530483148" lon="11.21899755694574"><ele>532.0</ele><time>2026-04-25T09:33:49.993Z</time></trkpt><trkpt lat="45.50150413933816" lon="11.219067084590144"><ele>530.0</ele><time>2026-04-25T09:33:50.993Z</time></trkpt><trkpt lat="45.501641647065114" lon="11.219122285397253"><ele>528.0</ele><time>2026-04-25T09:33:51.993Z</time></trkpt><trkpt lat="45.50175052611404" lon="11.219178792673194"><ele>526.0</ele><time>2026-04-25T09:33:52.993Z</time></trkpt><trkpt lat="45.50184926059191" lon="11.219217925358274"><ele>524.0</ele><time>2026-04-25T09:33:53.993Z</time></trkpt><trkpt lat="45.50191336166264" lon="11.219297712116498"><ele>522.0</ele><time>2026-04-25T09:33:54.993Z</time></trkpt><trkpt lat="45.50195449634122" lon="11.219431239261516"><ele>522.0</ele><time>2026-04-25T09:33:55.993Z</time></trkpt><trkpt lat="45.501972460598566" lon="11.219618348491306"><ele>522.0</ele><time>2026-04-25T09:33:56.993Z</time></trkpt><trkpt lat="45.50198230917345" lon="11.21976248433299"><ele>522.0</ele><time>2026-04-25T09:33:57.993Z</time></trkpt><trkpt lat="45.50197115419395" lon="11.219886028113221"><ele>522.0</ele><time>2026-04-25T09:33:58.993Z</time></trkpt><trkpt lat="45.50195102611175" lon="11.220002323110647"><ele>522.0</ele><time>2026-04-25T09:33:59.993Z</time></trkpt><trkpt lat="45.50193779847012" lon="11.220120081477814"><ele>520.6</ele><time>2026-04-25T09:34:00.993Z</time></trkpt><trkpt lat="45.50195039303298" lon="11.220228431894101"><ele>519.2</ele><time>2026-04-25T09:34:01.993Z</time></trkpt><trkpt lat="45.50198194469171" lon="11.220312673669296"><ele>517.8</ele><time>2026-04-25T09:34:02.993Z</time></trkpt><trkpt lat="45.502110051250305" lon="11.220387763272289"><ele>516.4</ele><time>2026-04-25T09:34:04.992Z</time></trkpt><trkpt lat="45.50221355416858" lon="11.22037779352715"><ele>515.0</ele><time>2026-04-25T09:34:05.992Z</time></trkpt><trkpt lat="45.502309814050236" lon="11.22036741654976"><ele>515.0</ele><time>2026-04-25T09:34:06.992Z</time></trkpt><trkpt lat="45.50239425208121" lon="11.220360159209939"><ele>515.0</ele><time>2026-04-25T09:34:07.992Z</time></trkpt><trkpt lat="45.5024967144913" lon="11.220367982779377"><ele>515.0</ele><time>2026-04-25T09:34:08.992Z</time></trkpt><trkpt lat="45.50260472230905" lon="11.22037370720492"><ele>515.0</ele><time>2026-04-25T09:34:09.992Z</time></trkpt><trkpt lat="45.5026979951056" lon="11.220370687690696"><ele>515.0</ele><time>2026-04-25T09:34:10.992Z</time></trkpt><trkpt lat="45.50278531861972" lon="11.220360384724254"><ele>515.0</ele><time>2026-04-25T09:34:11.992Z</time></trkpt><trkpt lat="45.5028698278964" lon="11.22039299018329"><ele>515.0</ele><time>2026-04-25T09:34:12.992Z</time></trkpt><trkpt lat="45.50294839329308" lon="11.22046258525855"><ele>515.0</ele><time>2026-04-25T09:34:13.992Z</time></trkpt><trkpt lat="45.50304087425623" lon="11.22054046293103"><ele>515.0</ele><time>2026-04-25T09:34:15.992Z</time></trkpt><trkpt lat="45.5031287368847" lon="11.220644534695863"><ele>515.0</ele><time>2026-04-25T09:34:17.992Z</time></trkpt><trkpt lat="45.50316249081875" lon="11.220721456802876"><ele>510.4</ele><time>2026-04-25T09:34:18.992Z</time></trkpt><trkpt lat="45.50327079621761" lon="11.220817067080304"><ele>505.8</ele><time>2026-04-25T09:34:20.992Z</time></trkpt><trkpt lat="45.50334512011263" lon="11.220838674672715"><ele>501.20000000000005</ele><time>2026-04-25T09:34:21.992Z</time></trkpt><trkpt lat="45.50341180744354" lon="11.220865892914517"><ele>496.6</ele><time>2026-04-25T09:34:22.992Z</time></trkpt><trkpt lat="45.503523997619205" lon="11.220905696139216"><ele>492.0</ele><time>2026-04-25T09:34:24.992Z</time></trkpt><trkpt lat="45.50357744795889" lon="11.220953731868393"><ele>492.0</ele><time>2026-04-25T09:34:26.992Z</time></trkpt><trkpt lat="45.50351026295847" lon="11.22102438433381"><ele>492.00000000000006</ele><time>2026-04-25T09:34:29.992Z</time></trkpt><trkpt lat="45.5034236014171" lon="11.22101639323351"><ele>492.00000000000006</ele><time>2026-04-25T09:34:31.992Z</time></trkpt><trkpt lat="45.50333046833439" lon="11.221016422480396"><ele>492.0</ele><time>2026-04-25T09:34:32.992Z</time></trkpt><trkpt lat="45.503212685507194" lon="11.22104451953091"><ele>492.0</ele><time>2026-04-25T09:34:33.992Z</time></trkpt><trkpt lat="45.50313032551347" lon="11.221062231962433"><ele>492.0</ele><time>2026-04-25T09:34:34.992Z</time></trkpt><trkpt lat="45.50304076261289" lon="11.221065228179846"><ele>492.00000000000006</ele><time>2026-04-25T09:34:35.992Z</time></trkpt><trkpt lat="45.502968021014354" lon="11.221061709038587"><ele>492.00000000000006</ele><time>2026-04-25T09:34:36.992Z</time></trkpt><trkpt lat="45.50288490828115" lon="11.221056854543416"><ele>492.0</ele><time>2026-04-25T09:34:38.992Z</time></trkpt><trkpt lat="45.502806049945235" lon="11.221209253090436"><ele>492.0</ele><time>2026-04-25T09:34:40.992Z</time></trkpt><trkpt lat="45.50274991714312" lon="11.221332971602951"><ele>492.0</ele><time>2026-04-25T09:34:41.992Z</time></trkpt><trkpt lat="45.50268892614741" lon="11.221452363371208"><ele>492.0</ele><time>2026-04-25T09:34:42.992Z</time></trkpt><trkpt lat="45.50263180952605" lon="11.22155568980869"><ele>492.0</ele><time>2026-04-25T09:34:43.992Z</time></trkpt><trkpt lat="45.50257700203862" lon="11.221603205733699"><ele>492.0</ele><time>2026-04-25T09:34:44.992Z</time></trkpt><trkpt lat="45.50250224379888" lon="11.221642003099113"><ele>492.0</ele><time>2026-04-25T09:34:45.992Z</time></trkpt><trkpt lat="45.50242696775575" lon="11.22163885565144"><ele>492.0</ele><time>2026-04-25T09:34:46.992Z</time></trkpt><trkpt lat="45.50234225514265" lon="11.221671652865245"><ele>487.0</ele><time>2026-04-25T09:34:47.992Z</time></trkpt><trkpt lat="45.502256924658305" lon="11.221672396419374"><ele>482.00000000000006</ele><time>2026-04-25T09:34:48.992Z</time></trkpt><trkpt lat="45.50217387833172" lon="11.221688640830001"><ele>477.00000000000006</ele><time>2026-04-25T09:34:49.992Z</time></trkpt><trkpt lat="45.502056249041814" lon="11.221732041920578"><ele>472.0</ele><time>2026-04-25T09:34:51.992Z</time></trkpt><trkpt lat="45.50198177634948" lon="11.221779333430089"><ele>467.0</ele><time>2026-04-25T09:34:52.992Z</time></trkpt><trkpt lat="45.501898231753415" lon="11.221814127128987"><ele>466.8333333333333</ele><time>2026-04-25T09:34:53.992Z</time></trkpt><trkpt lat="45.501826780606855" lon="11.221841220799677"><ele>466.66666666666663</ele><time>2026-04-25T09:34:54.992Z</time></trkpt><trkpt lat="45.501747426020245" lon="11.221865547619435"><ele>466.5</ele><time>2026-04-25T09:34:55.992Z</time></trkpt><trkpt lat="45.50166947095892" lon="11.221888969238924"><ele>466.33333333333337</ele><time>2026-04-25T09:34:56.992Z</time></trkpt><trkpt lat="45.50159095360035" lon="11.221903401317778"><ele>466.1666666666667</ele><time>2026-04-25T09:34:57.992Z</time></trkpt><trkpt lat="45.501514113941944" lon="11.22191785258249"><ele>466.0</ele><time>2026-04-25T09:34:58.992Z</time></trkpt><trkpt lat="45.50141099446027" lon="11.221943821906697"><ele>466.00000000000006</ele><time>2026-04-25T09:35:00.992Z</time></trkpt><trkpt lat="45.50132266459616" lon="11.221965524427505"><ele>466.0</ele><time>2026-04-25T09:35:02.992Z</time></trkpt><trkpt lat="45.50128490504184" lon="11.22207892905308"><ele>466.0</ele><time>2026-04-25T09:35:05.992Z</time></trkpt><trkpt lat="45.50136610824082" lon="11.222189913755198"><ele>466.0</ele><time>2026-04-25T09:35:07.993Z</time></trkpt><trkpt lat="45.50143685540821" lon="11.222245449367234"><ele>466.00000000000006</ele><time>2026-04-25T09:35:09.992Z</time></trkpt><trkpt lat="45.50147356450954" lon="11.222333519586556"><ele>466.0</ele><time>2026-04-25T09:35:11.993Z</time></trkpt><trkpt lat="45.5013946128431" lon="11.222415361477388"><ele>462.1666666666667</ele><time>2026-04-25T09:35:13.993Z</time></trkpt><trkpt lat="45.50133092223558" lon="11.222468044794757"><ele>458.33333333333337</ele><time>2026-04-25T09:35:15.992Z</time></trkpt><trkpt lat="45.501340149629016" lon="11.222610183586314"><ele>454.5</ele><time>2026-04-25T09:35:17.992Z</time></trkpt><trkpt lat="45.50132967031843" lon="11.22270961174854"><ele>450.66666666666663</ele><time>2026-04-25T09:35:19.992Z</time></trkpt><trkpt lat="45.501249837912376" lon="11.222743402210263"><ele>446.8333333333333</ele><time>2026-04-25T09:35:22.992Z</time></trkpt><trkpt lat="45.501169801842664" lon="11.22278280025848"><ele>443.0</ele><time>2026-04-25T09:35:24.992Z</time></trkpt><trkpt lat="45.50107218718811" lon="11.222778645893866"><ele>441.99999999999994</ele><time>2026-04-25T09:35:26.992Z</time></trkpt><trkpt lat="45.500999604296354" lon="11.222760259749403"><ele>441.0</ele><time>2026-04-25T09:35:27.992Z</time></trkpt><trkpt lat="45.50091387324581" lon="11.222780698267096"><ele>440.0</ele><time>2026-04-25T09:35:28.992Z</time></trkpt><trkpt lat="45.50083354054634" lon="11.22281797280893"><ele>439.0</ele><time>2026-04-25T09:35:29.992Z</time></trkpt><trkpt lat="45.50070983993124" lon="11.22282985653752"><ele>437.99999999999994</ele><time>2026-04-25T09:35:31.992Z</time></trkpt><trkpt lat="45.500639630236364" lon="11.22285369214901"><ele>437.0</ele><time>2026-04-25T09:35:32.992Z</time></trkpt><trkpt lat="45.50057380168835" lon="11.222918632360871"><ele>436.99999999999994</ele><time>2026-04-25T09:35:33.992Z</time></trkpt><trkpt lat="45.50055279120303" lon="11.223018411289004"><ele>437.0</ele><time>2026-04-25T09:35:34.992Z</time></trkpt><trkpt lat="45.500510145369624" lon="11.223110549099504"><ele>437.0</ele><time>2026-04-25T09:35:35.992Z</time></trkpt><trkpt lat="45.500393112225915" lon="11.223140001653627"><ele>437.0</ele><time>2026-04-25T09:35:37.992Z</time></trkpt><trkpt lat="45.50032794205625" lon="11.223164061892348"><ele>436.99999999999994</ele><time>2026-04-25T09:35:38.992Z</time></trkpt><trkpt lat="45.500240123244446" lon="11.223223117474273"><ele>437.0</ele><time>2026-04-25T09:35:39.992Z</time></trkpt><trkpt lat="45.500148259585984" lon="11.223266036892428"><ele>433.6</ele><time>2026-04-25T09:35:40.992Z</time></trkpt><trkpt lat="45.50006462857585" lon="11.223294009783334"><ele>430.20000000000005</ele><time>2026-04-25T09:35:41.992Z</time></trkpt><trkpt lat="45.499984799572026" lon="11.223329316429323"><ele>426.8</ele><time>2026-04-25T09:35:42.992Z</time></trkpt><trkpt lat="45.4998700203588" lon="11.2233568682984"><ele>423.4</ele><time>2026-04-25T09:35:44.992Z</time></trkpt><trkpt lat="45.499789703505584" lon="11.22335726133099"><ele>420.0</ele><time>2026-04-25T09:35:45.992Z</time></trkpt><trkpt lat="45.499678810894196" lon="11.223294543042819"><ele>420.0</ele><time>2026-04-25T09:35:47.992Z</time></trkpt><trkpt lat="45.49962580938315" lon="11.223237108783424"><ele>420.0</ele><time>2026-04-25T09:35:48.992Z</time></trkpt><trkpt lat="45.499579273355174" lon="11.223173819931587"><ele>420.0</ele><time>2026-04-25T09:35:49.992Z</time></trkpt><trkpt lat="45.4995419794882" lon="11.223099360216438"><ele>420.0</ele><time>2026-04-25T09:35:50.992Z</time></trkpt><trkpt lat="45.49946176756251" lon="11.222988174345254"><ele>420.0</ele><time>2026-04-25T09:35:52.992Z</time></trkpt><trkpt lat="45.49938906726373" lon="11.222991240087339"><ele>420.0</ele><time>2026-04-25T09:35:55.992Z</time></trkpt><trkpt lat="45.49928878158403" lon="11.223007589630331"><ele>419.6666666666667</ele><time>2026-04-25T09:35:57.992Z</time></trkpt><trkpt lat="45.49922915105275" lon="11.223045015679498"><ele>419.33333333333337</ele><time>2026-04-25T09:35:58.992Z</time></trkpt><trkpt lat="45.49916070679283" lon="11.223076202260778"><ele>419.0</ele><time>2026-04-25T09:35:59.992Z</time></trkpt><trkpt lat="45.49908930094269" lon="11.223112209977176"><ele>418.6666666666667</ele><time>2026-04-25T09:36:00.992Z</time></trkpt><trkpt lat="45.49899845364002" lon="11.223134986817813"><ele>418.33333333333337</ele><time>2026-04-25T09:36:01.992Z</time></trkpt><trkpt lat="45.498900770983" lon="11.22316863659223"><ele>418.0</ele><time>2026-04-25T09:36:02.992Z</time></trkpt><trkpt lat="45.498783919917116" lon="11.223178834701296"><ele>417.6666666666667</ele><time>2026-04-25T09:36:03.992Z</time></trkpt><trkpt lat="45.49867923841462" lon="11.223158656263589"><ele>417.33333333333337</ele><time>2026-04-25T09:36:04.992Z</time></trkpt><trkpt lat="45.49859665497151" lon="11.223136427904388"><ele>417.0</ele><time>2026-04-25T09:36:05.992Z</time></trkpt><trkpt lat="45.498502318839186" lon="11.2231350498211"><ele>416.66666666666663</ele><time>2026-04-25T09:36:06.992Z</time></trkpt><trkpt lat="45.49843826994419" lon="11.223146569174999"><ele>416.3333333333333</ele><time>2026-04-25T09:36:07.992Z</time></trkpt><trkpt lat="45.498351729624375" lon="11.223166281383117"><ele>416.0</ele><time>2026-04-25T09:36:08.992Z</time></trkpt><trkpt lat="45.49827805562511" lon="11.223187978161036"><ele>415.99999999999994</ele><time>2026-04-25T09:36:09.992Z</time></trkpt><trkpt lat="45.49821087209612" lon="11.223187680029437"><ele>416.0</ele><time>2026-04-25T09:36:11.992Z</time></trkpt><trkpt lat="45.49813864120097" lon="11.22321221383507"><ele>416.0</ele><time>2026-04-25T09:36:13.992Z</time></trkpt><trkpt lat="45.49809754924479" lon="11.223280408286659"><ele>416.0</ele><time>2026-04-25T09:36:15.992Z</time></trkpt><trkpt lat="45.49816360884788" lon="11.223234924862801"><ele>415.99999999999994</ele><time>2026-04-25T09:36:17.992Z</time></trkpt><trkpt lat="45.49822517085421" lon="11.223160640999671"><ele>416.0</ele><time>2026-04-25T09:36:19.992Z</time></trkpt><trkpt lat="45.49837585288156" lon="11.223174110696625"><ele>415.99999999999994</ele><time>2026-04-25T09:36:25.992Z</time></trkpt><trkpt lat="45.49838520410815" lon="11.223272969606615"><ele>416.0</ele><time>2026-04-25T09:36:27.991Z</time></trkpt><trkpt lat="45.498368492645746" lon="11.223412662972551"><ele>416.0</ele><time>2026-04-25T09:36:29.991Z</time></trkpt><trkpt lat="45.49842253056938" lon="11.223534802996811"><ele>416.0</ele><time>2026-04-25T09:36:31.991Z</time></trkpt><trkpt lat="45.49845860367281" lon="11.223631805042631"><ele>415.99999999999994</ele><time>2026-04-25T09:36:33.991Z</time></trkpt><trkpt lat="45.49850499768157" lon="11.223718404209713"><ele>416.0</ele><time>2026-04-25T09:36:35.991Z</time></trkpt><trkpt lat="45.49855618294798" lon="11.223787416128204"><ele>416.0</ele><time>2026-04-25T09:36:38.991Z</time></trkpt><trkpt lat="45.4986806300384" lon="11.223817545831281"><ele>416.0</ele><time>2026-04-25T09:36:41.991Z</time></trkpt><trkpt lat="45.498751771998" lon="11.223843291435543"><ele>416.0</ele><time>2026-04-25T09:36:43.991Z</time></trkpt><trkpt lat="45.4988451062755" lon="11.223869914813214"><ele>416.0</ele><time>2026-04-25T09:36:45.991Z</time></trkpt><trkpt lat="45.49894693049003" lon="11.223875305288727"><ele>416.0</ele><time>2026-04-25T09:36:47.991Z</time></trkpt><trkpt lat="45.49901419198297" lon="11.22387652184635"><ele>416.3333333333333</ele><time>2026-04-25T09:36:49.991Z</time></trkpt><trkpt lat="45.49906748132962" lon="11.223933546183646"><ele>416.66666666666663</ele><time>2026-04-25T09:36:52.991Z</time></trkpt><trkpt lat="45.49906142436347" lon="11.224046009063656"><ele>417.0</ele><time>2026-04-25T09:36:54.991Z</time></trkpt><trkpt lat="45.49906122908992" lon="11.224208616139634"><ele>417.33333333333337</ele><time>2026-04-25T09:36:56.991Z</time></trkpt><trkpt lat="45.4989916520459" lon="11.224280531682192"><ele>417.6666666666667</ele><time>2026-04-25T09:37:01.991Z</time></trkpt><trkpt lat="45.49892540260873" lon="11.224281205256183"><ele>418.0</ele><time>2026-04-25T09:37:04.991Z</time></trkpt><trkpt lat="45.49894519123896" lon="11.224393202502064"><ele>414.50000000000006</ele><time>2026-04-25T09:37:08.991Z</time></trkpt><trkpt lat="45.49901449642189" lon="11.224463792909038"><ele>411.0</ele><time>2026-04-25T09:37:10.991Z</time></trkpt><trkpt lat="45.49901537617811" lon="11.224574074117458"><ele>407.5</ele><time>2026-04-25T09:37:14.993Z</time></trkpt><trkpt lat="45.49897213555076" lon="11.224688407282493"><ele>404.0</ele><time>2026-04-25T09:37:18.992Z</time></trkpt><trkpt lat="45.498934342298966" lon="11.224768591838176"><ele>400.50000000000006</ele><time>2026-04-25T09:37:21.993Z</time></trkpt><trkpt lat="45.49886836472879" lon="11.224755603897535"><ele>397.0</ele><time>2026-04-25T09:37:23.992Z</time></trkpt><trkpt lat="45.498809550076864" lon="11.224684307528504"><ele>397.00000000000006</ele><time>2026-04-25T09:37:26.992Z</time></trkpt><trkpt lat="45.49875072513677" lon="11.224651149264627"><ele>397.0</ele><time>2026-04-25T09:37:29.992Z</time></trkpt><trkpt lat="45.498686626108146" lon="11.224579338189326"><ele>397.0</ele><time>2026-04-25T09:37:32.992Z</time></trkpt><trkpt lat="45.498630354406096" lon="11.22453391530075"><ele>397.0</ele><time>2026-04-25T09:37:34.992Z</time></trkpt><trkpt lat="45.49857916367546" lon="11.22443951007621"><ele>397.00000000000006</ele><time>2026-04-25T09:37:38.992Z</time></trkpt><trkpt lat="45.498505105858065" lon="11.224371865420592"><ele>397.0</ele><time>2026-04-25T09:37:41.992Z</time></trkpt><trkpt lat="45.498425518296045" lon="11.22435691678162"><ele>397.0</ele><time>2026-04-25T09:37:43.992Z</time></trkpt><trkpt lat="45.49835659529804" lon="11.224385485400187"><ele>397.0</ele><time>2026-04-25T09:37:45.992Z</time></trkpt><trkpt lat="45.49827781415856" lon="11.224394671624331"><ele>397.0</ele><time>2026-04-25T09:37:47.992Z</time></trkpt><trkpt lat="45.49819547162583" lon="11.224451858639371"><ele>397.0</ele><time>2026-04-25T09:37:49.992Z</time></trkpt><trkpt lat="45.49812606606191" lon="11.224557709871656"><ele>397.0</ele><time>2026-04-25T09:37:51.992Z</time></trkpt><trkpt lat="45.49805742226502" lon="11.224675519483485"><ele>397.00000000000006</ele><time>2026-04-25T09:37:53.992Z</time></trkpt><trkpt lat="45.49800163421399" lon="11.224755503673174"><ele>397.0</ele><time>2026-04-25T09:37:56.992Z</time></trkpt><trkpt lat="45.49797330955824" lon="11.224877494537292"><ele>397.0</ele><time>2026-04-25T09:37:58.992Z</time></trkpt><trkpt lat="45.497983058241324" lon="11.224990112079062"><ele>397.0</ele><time>2026-04-25T09:38:00.992Z</time></trkpt><trkpt lat="45.49797867618149" lon="11.225108089918795"><ele>397.00000000000006</ele><time>2026-04-25T09:38:02.992Z</time></trkpt><trkpt lat="45.49793300778096" lon="11.225197504967579"><ele>397.0</ele><time>2026-04-25T09:38:04.992Z</time></trkpt><trkpt lat="45.49792632191291" lon="11.225304535338456"><ele>392.0</ele><time>2026-04-25T09:38:06.992Z</time></trkpt><trkpt lat="45.497945956337816" lon="11.225481575263613"><ele>387.0</ele><time>2026-04-25T09:38:08.992Z</time></trkpt><trkpt lat="45.49798661536012" lon="11.225591877607055"><ele>382.0</ele><time>2026-04-25T09:38:12.992Z</time></trkpt><trkpt lat="45.497953223107565" lon="11.225701732565314"><ele>377.0</ele><time>2026-04-25T09:38:14.992Z</time></trkpt><trkpt lat="45.497922964002925" lon="11.225808924698583"><ele>372.0</ele><time>2026-04-25T09:38:16.992Z</time></trkpt><trkpt lat="45.49786996180503" lon="11.225904982130526"><ele>371.3333333333333</ele><time>2026-04-25T09:38:19.992Z</time></trkpt><trkpt lat="45.49781774360556" lon="11.226008761204424"><ele>370.6666666666667</ele><time>2026-04-25T09:38:22.992Z</time></trkpt><trkpt lat="45.49785949432279" lon="11.226132858292276"><ele>370.0</ele><time>2026-04-25T09:38:24.992Z</time></trkpt><trkpt lat="45.49792546126334" lon="11.22620030960329"><ele>369.33333333333337</ele><time>2026-04-25T09:38:25.992Z</time></trkpt><trkpt lat="45.49799173700937" lon="11.226195752421665"><ele>368.6666666666667</ele><time>2026-04-25T09:38:26.992Z</time></trkpt><trkpt lat="45.49810722622117" lon="11.22618931880149"><ele>368.0</ele><time>2026-04-25T09:38:28.992Z</time></trkpt><trkpt lat="45.49817419699178" lon="11.226181113517212"><ele>363.2</ele><time>2026-04-25T09:38:29.992Z</time></trkpt><trkpt lat="45.498287126836054" lon="11.226221201363298"><ele>358.4</ele><time>2026-04-25T09:38:31.992Z</time></trkpt><trkpt lat="45.49836243161787" lon="11.22630772043874"><ele>353.59999999999997</ele><time>2026-04-25T09:38:32.992Z</time></trkpt><trkpt lat="45.49840888743922" lon="11.226382841190341"><ele>348.79999999999995</ele><time>2026-04-25T09:38:33.992Z</time></trkpt><trkpt lat="45.49845709044265" lon="11.226520409089309"><ele>344.0</ele><time>2026-04-25T09:38:34.992Z</time></trkpt><trkpt lat="45.498509941190086" lon="11.226622666065389"><ele>340.0</ele><time>2026-04-25T09:38:35.992Z</time></trkpt><trkpt lat="45.49856035161598" lon="11.226716513922437"><ele>336.0</ele><time>2026-04-25T09:38:36.992Z</time></trkpt><trkpt lat="45.498611064483114" lon="11.226786229126633"><ele>332.0</ele><time>2026-04-25T09:38:37.992Z</time></trkpt><trkpt lat="45.498656764232855" lon="11.22685882973806"><ele>328.0</ele><time>2026-04-25T09:38:38.992Z</time></trkpt><trkpt lat="45.498724107736244" lon="11.226894519652364"><ele>324.0</ele><time>2026-04-25T09:38:39.992Z</time></trkpt><trkpt lat="45.49881335051671" lon="11.226910816323413"><ele>320.0</ele><time>2026-04-25T09:38:40.992Z</time></trkpt><trkpt lat="45.498894473533525" lon="11.226903143692777"><ele>318.0</ele><time>2026-04-25T09:38:41.992Z</time></trkpt><trkpt lat="45.49897083097878" lon="11.226908046319759"><ele>316.0</ele><time>2026-04-25T09:38:42.992Z</time></trkpt><trkpt lat="45.499041987946256" lon="11.226915196678961"><ele>314.0</ele><time>2026-04-25T09:38:43.992Z</time></trkpt><trkpt lat="45.49912364858603" lon="11.226948651911625"><ele>312.0</ele><time>2026-04-25T09:38:44.992Z</time></trkpt><trkpt lat="45.49919957792419" lon="11.227021250290834"><ele>310.0</ele><time>2026-04-25T09:38:45.992Z</time></trkpt><trkpt lat="45.499259127390424" lon="11.22709448965909"><ele>308.0</ele><time>2026-04-25T09:38:46.992Z</time></trkpt><trkpt lat="45.4993081799328" lon="11.227187916417533"><ele>304.6</ele><time>2026-04-25T09:38:47.992Z</time></trkpt><trkpt lat="45.499356866748336" lon="11.22731598050703"><ele>301.20000000000005</ele><time>2026-04-25T09:38:48.992Z</time></trkpt><trkpt lat="45.4994161128409" lon="11.227452106794813"><ele>297.8</ele><time>2026-04-25T09:38:49.992Z</time></trkpt><trkpt lat="45.499473481019955" lon="11.227549219943091"><ele>294.40000000000003</ele><time>2026-04-25T09:38:50.992Z</time></trkpt><trkpt lat="45.49953653031345" lon="11.227637372291849"><ele>291.0</ele><time>2026-04-25T09:38:51.992Z</time></trkpt><trkpt lat="45.49960916815399" lon="11.227732352151783"><ele>290.3333333333333</ele><time>2026-04-25T09:38:52.992Z</time></trkpt><trkpt lat="45.49968458497922" lon="11.227813092993445"><ele>289.6666666666667</ele><time>2026-04-25T09:38:53.992Z</time></trkpt><trkpt lat="45.49976179216644" lon="11.227908324603805"><ele>289.0</ele><time>2026-04-25T09:38:54.992Z</time></trkpt><trkpt lat="45.49982921799017" lon="11.227966463939667"><ele>288.33333333333337</ele><time>2026-04-25T09:38:55.992Z</time></trkpt><trkpt lat="45.49988237069192" lon="11.228019669104864"><ele>287.6666666666667</ele><time>2026-04-25T09:38:56.992Z</time></trkpt><trkpt lat="45.4999321820542" lon="11.22808236602557"><ele>287.0</ele><time>2026-04-25T09:38:57.992Z</time></trkpt><trkpt lat="45.49998431656496" lon="11.22818687237914"><ele>283.83333333333337</ele><time>2026-04-25T09:38:58.991Z</time></trkpt><trkpt lat="45.50004177902941" lon="11.228278572152357"><ele>280.6666666666667</ele><time>2026-04-25T09:38:59.991Z</time></trkpt><trkpt lat="45.500079644909384" lon="11.228380271117782"><ele>277.5</ele><time>2026-04-25T09:39:00.991Z</time></trkpt><trkpt lat="45.500109304385916" lon="11.228481856108884"><ele>274.3333333333333</ele><time>2026-04-25T09:39:01.991Z</time></trkpt><trkpt lat="45.500131952414336" lon="11.228621620872072"><ele>271.16666666666663</ele><time>2026-04-25T09:39:02.991Z</time></trkpt><trkpt lat="45.50014190802575" lon="11.228738706470237"><ele>268.0</ele><time>2026-04-25T09:39:03.991Z</time></trkpt><trkpt lat="45.50015222181836" lon="11.228850216976822"><ele>266.66666666666663</ele><time>2026-04-25T09:39:04.991Z</time></trkpt><trkpt lat="45.5001884587377" lon="11.228988445666285"><ele>265.3333333333333</ele><time>2026-04-25T09:39:05.991Z</time></trkpt><trkpt lat="45.50020904742898" lon="11.229110735707318"><ele>264.0</ele><time>2026-04-25T09:39:06.991Z</time></trkpt><trkpt lat="45.50023779488817" lon="11.22921273779096"><ele>262.6666666666667</ele><time>2026-04-25T09:39:07.991Z</time></trkpt><trkpt lat="45.50026791688713" lon="11.229293919007043"><ele>261.33333333333337</ele><time>2026-04-25T09:39:08.991Z</time></trkpt><trkpt lat="45.50029596075335" lon="11.229382684269408"><ele>260.0</ele><time>2026-04-25T09:39:09.991Z</time></trkpt><trkpt lat="45.500301260664926" lon="11.229489416414449"><ele>260.0</ele><time>2026-04-25T09:39:10.991Z</time></trkpt><trkpt lat="45.50030809950178" lon="11.22962370558249"><ele>260.0</ele><time>2026-04-25T09:39:11.991Z</time></trkpt><trkpt lat="45.50029399512557" lon="11.22975973395171"><ele>260.0</ele><time>2026-04-25T09:39:12.991Z</time></trkpt><trkpt lat="45.500257827009044" lon="11.229880107199172"><ele>260.0</ele><time>2026-04-25T09:39:13.991Z</time></trkpt><trkpt lat="45.50021333595397" lon="11.230030116345363"><ele>260.0</ele><time>2026-04-25T09:39:14.991Z</time></trkpt><trkpt lat="45.50017777414354" lon="11.230150088242606"><ele>259.33333333333337</ele><time>2026-04-25T09:39:15.991Z</time></trkpt><trkpt lat="45.50015103214096" lon="11.230249103499025"><ele>258.6666666666667</ele><time>2026-04-25T09:39:16.991Z</time></trkpt><trkpt lat="45.50016396854939" lon="11.230359409516064"><ele>258.0</ele><time>2026-04-25T09:39:17.992Z</time></trkpt><trkpt lat="45.500193803582405" lon="11.230462321719244"><ele>257.3333333333333</ele><time>2026-04-25T09:39:18.992Z</time></trkpt><trkpt lat="45.50023654681282" lon="11.230573411915115"><ele>256.66666666666663</ele><time>2026-04-25T09:39:19.992Z</time></trkpt><trkpt lat="45.50028199096577" lon="11.230680051367369"><ele>256.0</ele><time>2026-04-25T09:39:20.992Z</time></trkpt><trkpt lat="45.500339215878824" lon="11.230787826684756"><ele>253.4</ele><time>2026-04-25T09:39:21.992Z</time></trkpt><trkpt lat="45.50037677549636" lon="11.230887826763999"><ele>250.8</ele><time>2026-04-25T09:39:22.992Z</time></trkpt><trkpt lat="45.5004240890223" lon="11.231026787752795"><ele>248.20000000000002</ele><time>2026-04-25T09:39:24.992Z</time></trkpt><trkpt lat="45.500532764359896" lon="11.231137409344166"><ele>245.60000000000002</ele><time>2026-04-25T09:39:26.992Z</time></trkpt><trkpt lat="45.50061101820106" lon="11.231186635427562"><ele>243.0</ele><time>2026-04-25T09:39:27.991Z</time></trkpt><trkpt lat="45.50068005639741" lon="11.231243137431596"><ele>242.83333333333334</ele><time>2026-04-25T09:39:28.991Z</time></trkpt><trkpt lat="45.500734018426" lon="11.231297925330919"><ele>242.66666666666669</ele><time>2026-04-25T09:39:29.992Z</time></trkpt><trkpt lat="45.50077347995107" lon="11.23138556641295"><ele>242.5</ele><time>2026-04-25T09:39:30.991Z</time></trkpt><trkpt lat="45.500794821331034" lon="11.231477610646303"><ele>242.33333333333334</ele><time>2026-04-25T09:39:31.991Z</time></trkpt><trkpt lat="45.5007874094293" lon="11.231600536844862"><ele>242.16666666666669</ele><time>2026-04-25T09:39:32.991Z</time></trkpt><trkpt lat="45.50079956120526" lon="11.231728603120652"><ele>242.0</ele><time>2026-04-25T09:39:33.991Z</time></trkpt><trkpt lat="45.50080378486817" lon="11.231851335405752"><ele>239.50000000000003</ele><time>2026-04-25T09:39:34.991Z</time></trkpt><trkpt lat="45.50080160186164" lon="11.23196765875487"><ele>237.0</ele><time>2026-04-25T09:39:35.991Z</time></trkpt><trkpt lat="45.500793176589035" lon="11.232084607828595"><ele>234.5</ele><time>2026-04-25T09:39:36.991Z</time></trkpt><trkpt lat="45.500773942116346" lon="11.232214152154107"><ele>232.0</ele><time>2026-04-25T09:39:37.991Z</time></trkpt><trkpt lat="45.50078581296086" lon="11.23234789798519"><ele>229.50000000000003</ele><time>2026-04-25T09:39:38.991Z</time></trkpt><trkpt lat="45.50082266055167" lon="11.232469088053714"><ele>227.0</ele><time>2026-04-25T09:39:39.991Z</time></trkpt><trkpt lat="45.50087279562916" lon="11.232569825970579"><ele>225.16666666666669</ele><time>2026-04-25T09:39:40.991Z</time></trkpt><trkpt lat="45.50091815782413" lon="11.232647165076827"><ele>223.33333333333334</ele><time>2026-04-25T09:39:41.991Z</time></trkpt><trkpt lat="45.500979814781815" lon="11.23269434383084"><ele>221.5</ele><time>2026-04-25T09:39:42.991Z</time></trkpt><trkpt lat="45.501054858888196" lon="11.232732679761606"><ele>219.66666666666669</ele><time>2026-04-25T09:39:43.991Z</time></trkpt><trkpt lat="45.50112902782817" lon="11.23278436919234"><ele>217.83333333333334</ele><time>2026-04-25T09:39:44.991Z</time></trkpt><trkpt lat="45.50119945136336" lon="11.232864826984114"><ele>216.0</ele><time>2026-04-25T09:39:45.991Z</time></trkpt><trkpt lat="45.50124702441726" lon="11.233001285861928"><ele>218.60000000000002</ele><time>2026-04-25T09:39:46.991Z</time></trkpt><trkpt lat="45.50128752614311" lon="11.233108575090082"><ele>221.20000000000002</ele><time>2026-04-25T09:39:47.991Z</time></trkpt><trkpt lat="45.501368609745946" lon="11.233223305069817"><ele>223.79999999999998</ele><time>2026-04-25T09:39:48.991Z</time></trkpt><trkpt lat="45.501464133473064" lon="11.233289939271174"><ele>226.39999999999998</ele><time>2026-04-25T09:39:49.991Z</time></trkpt><trkpt lat="45.50158393494744" lon="11.233336568466505"><ele>229.0</ele><time>2026-04-25T09:39:50.991Z</time></trkpt><trkpt lat="45.50171107694685" lon="11.233352580599174"><ele>229.0</ele><time>2026-04-25T09:39:51.991Z</time></trkpt><trkpt lat="45.50183121393009" lon="11.233345325314357"><ele>229.0</ele><time>2026-04-25T09:39:52.991Z</time></trkpt><trkpt lat="45.50194429719121" lon="11.233343486999823"><ele>229.0</ele><time>2026-04-25T09:39:53.991Z</time></trkpt><trkpt lat="45.50205760660729" lon="11.233348528028161"><ele>229.0</ele><time>2026-04-25T09:39:54.991Z</time></trkpt><trkpt lat="45.50217822118136" lon="11.23335717543425"><ele>231.25</ele><time>2026-04-25T09:39:55.991Z</time></trkpt><trkpt lat="45.502297424480616" lon="11.233371246604676"><ele>233.5</ele><time>2026-04-25T09:39:56.991Z</time></trkpt><trkpt lat="45.50242867120009" lon="11.233384456566501"><ele>235.75</ele><time>2026-04-25T09:39:57.991Z</time></trkpt><trkpt lat="45.50254898960075" lon="11.233424837770126"><ele>238.0</ele><time>2026-04-25T09:39:58.991Z</time></trkpt><trkpt lat="45.502677534146855" lon="11.233452679056462"><ele>238.0</ele><time>2026-04-25T09:39:59.991Z</time></trkpt><trkpt lat="45.502795226597954" lon="11.23349835510845"><ele>238.0</ele><time>2026-04-25T09:40:00.991Z</time></trkpt><trkpt lat="45.50291277722097" lon="11.233551190722338"><ele>238.0</ele><time>2026-04-25T09:40:01.991Z</time></trkpt><trkpt lat="45.50303516428063" lon="11.23359559585927"><ele>238.0</ele><time>2026-04-25T09:40:02.991Z</time></trkpt><trkpt lat="45.50315802806907" lon="11.23360207099265"><ele>241.75</ele><time>2026-04-25T09:40:03.991Z</time></trkpt><trkpt lat="45.5032856850517" lon="11.23362729034912"><ele>245.5</ele><time>2026-04-25T09:40:04.991Z</time></trkpt><trkpt lat="45.503417721547684" lon="11.233682722563898"><ele>249.25</ele><time>2026-04-25T09:40:05.991Z</time></trkpt><trkpt lat="45.5035436244677" lon="11.233794309182281"><ele>253.0</ele><time>2026-04-25T09:40:06.991Z</time></trkpt><trkpt lat="45.50367135747009" lon="11.233908020381461"><ele>250.25</ele><time>2026-04-25T09:40:07.991Z</time></trkpt><trkpt lat="45.503810491448434" lon="11.233987967534668"><ele>247.5</ele><time>2026-04-25T09:40:08.991Z</time></trkpt><trkpt lat="45.50395227638454" lon="11.234046589818073"><ele>244.75</ele><time>2026-04-25T09:40:09.991Z</time></trkpt><trkpt lat="45.50410211626292" lon="11.234074745351112"><ele>242.0</ele><time>2026-04-25T09:40:10.991Z</time></trkpt><trkpt lat="45.50423472385562" lon="11.234135095281156"><ele>242.0</ele><time>2026-04-25T09:40:11.991Z</time></trkpt><trkpt lat="45.504356292806214" lon="11.23421347425584"><ele>242.0</ele><time>2026-04-25T09:40:12.991Z</time></trkpt><trkpt lat="45.50445841150304" lon="11.234330865672389"><ele>242.0</ele><time>2026-04-25T09:40:13.991Z</time></trkpt><trkpt lat="45.50455766836361" lon="11.234420761548197"><ele>242.0</ele><time>2026-04-25T09:40:14.991Z</time></trkpt><trkpt lat="45.50462673567206" lon="11.234545906128101"><ele>244.0</ele><time>2026-04-25T09:40:15.991Z</time></trkpt><trkpt lat="45.50469168837913" lon="11.234698881953447"><ele>246.0</ele><time>2026-04-25T09:40:16.991Z</time></trkpt><trkpt lat="45.5047383248463" lon="11.234880683487184"><ele>248.0</ele><time>2026-04-25T09:40:17.991Z</time></trkpt><trkpt lat="45.5047717192642" lon="11.235052251412245"><ele>250.0</ele><time>2026-04-25T09:40:18.991Z</time></trkpt><trkpt lat="45.504822708459336" lon="11.235214173828432"><ele>250.0</ele><time>2026-04-25T09:40:19.991Z</time></trkpt><trkpt lat="45.5049024232047" lon="11.2353268220099"><ele>250.0</ele><time>2026-04-25T09:40:20.991Z</time></trkpt><trkpt lat="45.50501481093322" lon="11.235422748461396"><ele>250.0</ele><time>2026-04-25T09:40:21.991Z</time></trkpt><trkpt lat="45.50511954642539" lon="11.235505005242082"><ele>250.0</ele><time>2026-04-25T09:40:22.991Z</time></trkpt><trkpt lat="45.5052262125202" lon="11.235598213166135"><ele>249.8</ele><time>2026-04-25T09:40:23.991Z</time></trkpt><trkpt lat="45.505339150793" lon="11.2356699903669"><ele>249.6</ele><time>2026-04-25T09:40:24.991Z</time></trkpt><trkpt lat="45.50543844557827" lon="11.23568594971248"><ele>249.39999999999998</ele><time>2026-04-25T09:40:25.991Z</time></trkpt><trkpt lat="45.50554184323595" lon="11.235633472083869"><ele>249.2</ele><time>2026-04-25T09:40:26.991Z</time></trkpt><trkpt lat="45.505619568543715" lon="11.235540689630325"><ele>249.0</ele><time>2026-04-25T09:40:27.991Z</time></trkpt><trkpt lat="45.50567575385522" lon="11.235422426569304"><ele>249.0</ele><time>2026-04-25T09:40:28.991Z</time></trkpt><trkpt lat="45.50574799818194" lon="11.23535251379283"><ele>248.99999999999997</ele><time>2026-04-25T09:40:29.991Z</time></trkpt><trkpt lat="45.50580676680855" lon="11.235280784517434"><ele>248.99999999999997</ele><time>2026-04-25T09:40:31.99Z</time></trkpt><trkpt lat="45.50575697678708" lon="11.235339586677634"><ele>249.0</ele><time>2026-04-25T09:40:40.99Z</time></trkpt><trkpt lat="45.50572237835904" lon="11.235433989045875"><ele>249.0</ele><time>2026-04-25T09:40:42.99Z</time></trkpt><trkpt lat="45.50568709406676" lon="11.235673958098399"><ele>244.39999999999998</ele><time>2026-04-25T09:40:45.99Z</time></trkpt><trkpt lat="45.50566176599139" lon="11.235865053025565"><ele>239.79999999999998</ele><time>2026-04-25T09:40:47.99Z</time></trkpt><trkpt lat="45.505653080422256" lon="11.235963635790847"><ele>235.20000000000002</ele><time>2026-04-25T09:40:48.99Z</time></trkpt><trkpt lat="45.50563578369517" lon="11.236057948370064"><ele>230.60000000000002</ele><time>2026-04-25T09:40:49.99Z</time></trkpt><trkpt lat="45.50562108936592" lon="11.236187514044966"><ele>226.0</ele><time>2026-04-25T09:40:51.99Z</time></trkpt><trkpt lat="45.50558057643878" lon="11.236301553240633"><ele>226.0</ele><time>2026-04-25T09:40:53.99Z</time></trkpt><trkpt lat="45.50548952470072" lon="11.23637223848708"><ele>226.00000000000003</ele><time>2026-04-25T09:40:55.99Z</time></trkpt><trkpt lat="45.50540921211221" lon="11.236415388184184"><ele>226.00000000000003</ele><time>2026-04-25T09:40:58.99Z</time></trkpt><trkpt lat="45.50537207064553" lon="11.236540534126503"><ele>226.0</ele><time>2026-04-25T09:41:01.99Z</time></trkpt><trkpt lat="45.5054749679334" lon="11.23668606308128"><ele>226.0</ele><time>2026-04-25T09:41:03.99Z</time></trkpt><trkpt lat="45.505559626869264" lon="11.23672350298435"><ele>225.99999999999997</ele><time>2026-04-25T09:41:04.99Z</time></trkpt><trkpt lat="45.505624582037775" lon="11.236744096947207"><ele>226.0</ele><time>2026-04-25T09:41:05.99Z</time></trkpt><trkpt lat="45.50572260905981" lon="11.236755232399576"><ele>226.0</ele><time>2026-04-25T09:41:07.99Z</time></trkpt><trkpt lat="45.50579058158296" lon="11.236710605999729"><ele>226.0</ele><time>2026-04-25T09:41:09.99Z</time></trkpt><trkpt lat="45.50581324199432" lon="11.236608186149374"><ele>225.99999999999997</ele><time>2026-04-25T09:41:11.99Z</time></trkpt><trkpt lat="45.505831638613024" lon="11.236509974874924"><ele>226.0</ele><time>2026-04-25T09:41:13.99Z</time></trkpt><trkpt lat="45.50585965531542" lon="11.236381572827586"><ele>225.99999999999997</ele><time>2026-04-25T09:41:15.99Z</time></trkpt><trkpt lat="45.50589829324645" lon="11.23630369896675"><ele>226.0</ele><time>2026-04-25T09:41:17.99Z</time></trkpt><trkpt lat="45.50598283228177" lon="11.236388480661908"><ele>226.0</ele><time>2026-04-25T09:41:20.99Z</time></trkpt><trkpt lat="45.50601637496221" lon="11.236502541731564"><ele>226.0</ele><time>2026-04-25T09:41:22.99Z</time></trkpt><trkpt lat="45.50602816150619" lon="11.236655378299547"><ele>225.99999999999997</ele><time>2026-04-25T09:41:25.992Z</time></trkpt><trkpt lat="45.50605647147137" lon="11.236738477179966"><ele>226.0</ele><time>2026-04-25T09:41:27.991Z</time></trkpt><trkpt lat="45.50615114070283" lon="11.236818576373077"><ele>222.20000000000002</ele><time>2026-04-25T09:41:29.992Z</time></trkpt><trkpt lat="45.50623760692144" lon="11.236808166340431"><ele>218.40000000000003</ele><time>2026-04-25T09:41:30.991Z</time></trkpt><trkpt lat="45.50631274267123" lon="11.236768035302507"><ele>214.6</ele><time>2026-04-25T09:41:31.991Z</time></trkpt><trkpt lat="45.50639851901987" lon="11.23661774230722"><ele>210.8</ele><time>2026-04-25T09:41:33.991Z</time></trkpt><trkpt lat="45.50644608323811" lon="11.236524005205972"><ele>207.0</ele><time>2026-04-25T09:41:34.991Z</time></trkpt><trkpt lat="45.50648304676412" lon="11.236425154611103"><ele>206.33333333333334</ele><time>2026-04-25T09:41:35.991Z</time></trkpt><trkpt lat="45.50657727941932" lon="11.236328872296019"><ele>205.66666666666669</ele><time>2026-04-25T09:41:37.992Z</time></trkpt><trkpt lat="45.50662575032883" lon="11.236266670359567"><ele>205.0</ele><time>2026-04-25T09:41:38.992Z</time></trkpt><trkpt lat="45.50666868751133" lon="11.236191863734916"><ele>204.33333333333334</ele><time>2026-04-25T09:41:39.992Z</time></trkpt><trkpt lat="45.50675479321212" lon="11.236139657445776"><ele>203.66666666666669</ele><time>2026-04-25T09:41:41.992Z</time></trkpt><trkpt lat="45.506818587589905" lon="11.236231512111514"><ele>203.0</ele><time>2026-04-25T09:41:43.992Z</time></trkpt><trkpt lat="45.50683773730276" lon="11.23632067475257"><ele>203.00000000000003</ele><time>2026-04-25T09:41:44.992Z</time></trkpt><trkpt lat="45.506871346213266" lon="11.23642178131256"><ele>203.0</ele><time>2026-04-25T09:41:45.992Z</time></trkpt><trkpt lat="45.50693074154115" lon="11.236523318305847"><ele>203.0</ele><time>2026-04-25T09:41:46.992Z</time></trkpt><trkpt lat="45.506990590540944" lon="11.236602636897704"><ele>203.0</ele><time>2026-04-25T09:41:47.992Z</time></trkpt><trkpt lat="45.507058280432894" lon="11.236693382724388"><ele>203.00000000000003</ele><time>2026-04-25T09:41:48.992Z</time></trkpt><trkpt lat="45.50713050164352" lon="11.236777625560498"><ele>203.0</ele><time>2026-04-25T09:41:49.992Z</time></trkpt><trkpt lat="45.507192697262184" lon="11.236865139537976"><ele>199.0</ele><time>2026-04-25T09:41:50.992Z</time></trkpt><trkpt lat="45.507245960493414" lon="11.236987841925203"><ele>195.0</ele><time>2026-04-25T09:41:51.992Z</time></trkpt><trkpt lat="45.50730378819119" lon="11.237076354720811"><ele>191.0</ele><time>2026-04-25T09:41:52.992Z</time></trkpt><trkpt lat="45.50739875697124" lon="11.237124012020814"><ele>187.0</ele><time>2026-04-25T09:41:53.992Z</time></trkpt><trkpt lat="45.50749132874575" lon="11.237130621731533"><ele>183.0</ele><time>2026-04-25T09:41:54.992Z</time></trkpt><trkpt lat="45.50759025759964" lon="11.237106308670597"><ele>183.0</ele><time>2026-04-25T09:41:55.992Z</time></trkpt><trkpt lat="45.507681878770185" lon="11.237058161343812"><ele>183.0</ele><time>2026-04-25T09:41:56.992Z</time></trkpt><trkpt lat="45.50776523420494" lon="11.23698053202439"><ele>183.0</ele><time>2026-04-25T09:41:57.992Z</time></trkpt><trkpt lat="45.50783957112146" lon="11.236873321142777"><ele>183.0</ele><time>2026-04-25T09:41:58.992Z</time></trkpt><trkpt lat="45.50791124738058" lon="11.236747285725606"><ele>183.0</ele><time>2026-04-25T09:41:59.992Z</time></trkpt><trkpt lat="45.50798843730295" lon="11.236619669694607"><ele>182.2</ele><time>2026-04-25T09:42:00.992Z</time></trkpt><trkpt lat="45.5080712047865" lon="11.236490328792282"><ele>181.4</ele><time>2026-04-25T09:42:01.992Z</time></trkpt><trkpt lat="45.50817083951576" lon="11.236388989744988"><ele>180.6</ele><time>2026-04-25T09:42:02.992Z</time></trkpt><trkpt lat="45.508266999459046" lon="11.236338280937074"><ele>179.79999999999998</ele><time>2026-04-25T09:42:03.992Z</time></trkpt><trkpt lat="45.508353744328915" lon="11.236354164467155"><ele>179.0</ele><time>2026-04-25T09:42:04.992Z</time></trkpt><trkpt lat="45.50843819124839" lon="11.236394587454038"><ele>179.0</ele><time>2026-04-25T09:42:05.992Z</time></trkpt><trkpt lat="45.508500109664695" lon="11.236449302080135"><ele>179.0</ele><time>2026-04-25T09:42:06.992Z</time></trkpt><trkpt lat="45.5085581863103" lon="11.236546286431711"><ele>179.0</ele><time>2026-04-25T09:42:07.992Z</time></trkpt><trkpt lat="45.50857475687421" lon="11.236686723130052"><ele>179.0</ele><time>2026-04-25T09:42:08.992Z</time></trkpt><trkpt lat="45.50862720643301" lon="11.23684087286688"><ele>179.0</ele><time>2026-04-25T09:42:09.992Z</time></trkpt><trkpt lat="45.50868558944671" lon="11.236961727485903"><ele>179.0</ele><time>2026-04-25T09:42:10.992Z</time></trkpt><trkpt lat="45.508740684341646" lon="11.237095304363883"><ele>179.0</ele><time>2026-04-25T09:42:11.992Z</time></trkpt><trkpt lat="45.508797872801196" lon="11.237216253901142"><ele>179.0</ele><time>2026-04-25T09:42:12.992Z</time></trkpt><trkpt lat="45.50887978601955" lon="11.237323241781445"><ele>179.0</ele><time>2026-04-25T09:42:13.992Z</time></trkpt><trkpt lat="45.508971498803284" lon="11.237415599063164"><ele>179.0</ele><time>2026-04-25T09:42:14.992Z</time></trkpt><trkpt lat="45.509074531836035" lon="11.237463852983499"><ele>176.0</ele><time>2026-04-25T09:42:15.991Z</time></trkpt><trkpt lat="45.50918171701708" lon="11.237494514549315"><ele>173.0</ele><time>2026-04-25T09:42:16.991Z</time></trkpt><trkpt lat="45.50929375220104" lon="11.23749146294954"><ele>170.0</ele><time>2026-04-25T09:42:17.991Z</time></trkpt><trkpt lat="45.5094039135787" lon="11.237486250712957"><ele>167.0</ele><time>2026-04-25T09:42:18.991Z</time></trkpt><trkpt lat="45.50952231742441" lon="11.23753782500332"><ele>166.0</ele><time>2026-04-25T09:42:19.991Z</time></trkpt><trkpt lat="45.50964090855899" lon="11.237597818530386"><ele>165.0</ele><time>2026-04-25T09:42:20.991Z</time></trkpt><trkpt lat="45.50976370855397" lon="11.237657034607109"><ele>164.0</ele><time>2026-04-25T09:42:21.991Z</time></trkpt><trkpt lat="45.509881528426924" lon="11.237699314077874"><ele>163.0</ele><time>2026-04-25T09:42:22.991Z</time></trkpt><trkpt lat="45.50999245358413" lon="11.237709431866179"><ele>163.0</ele><time>2026-04-25T09:42:23.991Z</time></trkpt><trkpt lat="45.51008219346645" lon="11.237706418093307"><ele>163.0</ele><time>2026-04-25T09:42:24.991Z</time></trkpt><trkpt lat="45.510144681433005" lon="11.23767522344161"><ele>163.0</ele><time>2026-04-25T09:42:25.991Z</time></trkpt><trkpt lat="45.51019945798577" lon="11.237748790396935"><ele>163.0</ele><time>2026-04-25T09:42:27.991Z</time></trkpt><trkpt lat="45.51017780804909" lon="11.237839342387241"><ele>163.0</ele><time>2026-04-25T09:42:28.991Z</time></trkpt><trkpt lat="45.51011540950316" lon="11.237923763979758"><ele>163.0</ele><time>2026-04-25T09:42:29.991Z</time></trkpt><trkpt lat="45.510061399156164" lon="11.237998253001791"><ele>163.0</ele><time>2026-04-25T09:42:30.991Z</time></trkpt><trkpt lat="45.5100059251167" lon="11.238069726770668"><ele>163.0</ele><time>2026-04-25T09:42:31.991Z</time></trkpt><trkpt lat="45.510003533880344" lon="11.238169266218394"><ele>163.0</ele><time>2026-04-25T09:42:32.991Z</time></trkpt><trkpt lat="45.51003968232548" lon="11.238270526225897"><ele>163.0</ele><time>2026-04-25T09:42:33.991Z</time></trkpt><trkpt lat="45.51017336772312" lon="11.2383336833611"><ele>163.0</ele><time>2026-04-25T09:42:35.991Z</time></trkpt><trkpt lat="45.51027444150843" lon="11.23831134081387"><ele>159.6</ele><time>2026-04-25T09:42:36.991Z</time></trkpt><trkpt lat="45.51036870909325" lon="11.238298408985008"><ele>156.20000000000002</ele><time>2026-04-25T09:42:37.991Z</time></trkpt><trkpt lat="45.510463510544135" lon="11.238294465110373"><ele>152.8</ele><time>2026-04-25T09:42:38.991Z</time></trkpt><trkpt lat="45.51054321470158" lon="11.23830503367936"><ele>149.4</ele><time>2026-04-25T09:42:39.991Z</time></trkpt><trkpt lat="45.510613275743836" lon="11.238389487279825"><ele>146.0</ele><time>2026-04-25T09:42:40.991Z</time></trkpt><trkpt lat="45.51067385900014" lon="11.238526204169588"><ele>146.0</ele><time>2026-04-25T09:42:41.991Z</time></trkpt><trkpt lat="45.51069971511181" lon="11.23869290944171"><ele>146.0</ele><time>2026-04-25T09:42:42.991Z</time></trkpt><trkpt lat="45.510710432107516" lon="11.23887596078869"><ele>146.0</ele><time>2026-04-25T09:42:43.991Z</time></trkpt><trkpt lat="45.51071498531356" lon="11.23907818632163"><ele>146.0</ele><time>2026-04-25T09:42:44.991Z</time></trkpt><trkpt lat="45.51072513998065" lon="11.239250004611968"><ele>145.5</ele><time>2026-04-25T09:42:45.991Z</time></trkpt><trkpt lat="45.51076264475338" lon="11.239419330216803"><ele>145.0</ele><time>2026-04-25T09:42:46.991Z</time></trkpt><trkpt lat="45.51078414732363" lon="11.239573139353261"><ele>144.5</ele><time>2026-04-25T09:42:47.991Z</time></trkpt><trkpt lat="45.510827482969205" lon="11.239728384608838"><ele>144.0</ele><time>2026-04-25T09:42:48.991Z</time></trkpt><trkpt lat="45.51088220918247" lon="11.239878051721975"><ele>143.5</ele><time>2026-04-25T09:42:49.991Z</time></trkpt><trkpt lat="45.510933574233206" lon="11.240040806084625"><ele>143.0</ele><time>2026-04-25T09:42:50.991Z</time></trkpt><trkpt lat="45.51098284783678" lon="11.240214742561548"><ele>142.5</ele><time>2026-04-25T09:42:51.991Z</time></trkpt><trkpt lat="45.51103602002323" lon="11.240384400982668"><ele>142.0</ele><time>2026-04-25T09:42:52.991Z</time></trkpt><trkpt lat="45.51107604568128" lon="11.240551005505447"><ele>142.0</ele><time>2026-04-25T09:42:53.991Z</time></trkpt><trkpt lat="45.51113719337145" lon="11.240732552415786"><ele>142.0</ele><time>2026-04-25T09:42:54.991Z</time></trkpt><trkpt lat="45.511192657824395" lon="11.240918077089324"><ele>142.0</ele><time>2026-04-25T09:42:55.991Z</time></trkpt><trkpt lat="45.511239713185354" lon="11.241097680527103"><ele>142.0</ele><time>2026-04-25T09:42:56.991Z</time></trkpt><trkpt lat="45.51130392817431" lon="11.241262367396036"><ele>142.5</ele><time>2026-04-25T09:42:57.991Z</time></trkpt><trkpt lat="45.5113572999097" lon="11.241428400047868"><ele>143.0</ele><time>2026-04-25T09:42:58.991Z</time></trkpt><trkpt lat="45.51141415663224" lon="11.241595012923495"><ele>143.5</ele><time>2026-04-25T09:42:59.991Z</time></trkpt><trkpt lat="45.51146877609914" lon="11.241750327465965"><ele>144.0</ele><time>2026-04-25T09:43:00.991Z</time></trkpt><trkpt lat="45.5115185902387" lon="11.241899748831381"><ele>144.2</ele><time>2026-04-25T09:43:01.991Z</time></trkpt><trkpt lat="45.51154976819386" lon="11.242026122785303"><ele>144.4</ele><time>2026-04-25T09:43:02.991Z</time></trkpt><trkpt lat="45.51159347384531" lon="11.242138501812402"><ele>144.6</ele><time>2026-04-25T09:43:03.991Z</time></trkpt><trkpt lat="45.51161926314116" lon="11.242241298495133"><ele>144.8</ele><time>2026-04-25T09:43:04.991Z</time></trkpt><trkpt lat="45.511606057534095" lon="11.242415858583138"><ele>145.0</ele><time>2026-04-25T09:43:06.991Z</time></trkpt><trkpt lat="45.511466758430515" lon="11.242537275240371"><ele>144.25</ele><time>2026-04-25T09:43:08.991Z</time></trkpt><trkpt lat="45.511364724610154" lon="11.242617022670128"><ele>143.5</ele><time>2026-04-25T09:43:09.991Z</time></trkpt><trkpt lat="45.51126709318144" lon="11.242711287332785"><ele>142.75</ele><time>2026-04-25T09:43:10.991Z</time></trkpt><trkpt lat="45.511173162277444" lon="11.242834135815476"><ele>142.0</ele><time>2026-04-25T09:43:11.991Z</time></trkpt><trkpt lat="45.51107002239499" lon="11.242946310973776"><ele>142.0</ele><time>2026-04-25T09:43:12.991Z</time></trkpt><trkpt lat="45.51096009579851" lon="11.243073576052295"><ele>142.0</ele><time>2026-04-25T09:43:13.991Z</time></trkpt><trkpt lat="45.51085836958157" lon="11.24318552868059"><ele>142.0</ele><time>2026-04-25T09:43:14.991Z</time></trkpt><trkpt lat="45.510736633089465" lon="11.243306903381521"><ele>142.0</ele><time>2026-04-25T09:43:15.991Z</time></trkpt><trkpt lat="45.51061091623843" lon="11.243441049521834"><ele>141.0</ele><time>2026-04-25T09:43:16.991Z</time></trkpt><trkpt lat="45.510483180960904" lon="11.243563215161476"><ele>140.0</ele><time>2026-04-25T09:43:17.991Z</time></trkpt><trkpt lat="45.51035002407611" lon="11.243685223054806"><ele>139.0</ele><time>2026-04-25T09:43:18.991Z</time></trkpt><trkpt lat="45.51021224039291" lon="11.243789515080143"><ele>139.0</ele><time>2026-04-25T09:43:19.991Z</time></trkpt><trkpt lat="45.510078014987904" lon="11.24389720208474"><ele>139.0</ele><time>2026-04-25T09:43:20.991Z</time></trkpt><trkpt lat="45.509918633306846" lon="11.243986647135234"><ele>139.0</ele><time>2026-04-25T09:43:21.991Z</time></trkpt><trkpt lat="45.509760261146695" lon="11.244061014424307"><ele>139.66666666666669</ele><time>2026-04-25T09:43:22.991Z</time></trkpt><trkpt lat="45.50960005472812" lon="11.244128006203324"><ele>140.33333333333334</ele><time>2026-04-25T09:43:23.991Z</time></trkpt><trkpt lat="45.509440843240405" lon="11.244191397156287"><ele>141.0</ele><time>2026-04-25T09:43:24.991Z</time></trkpt><trkpt lat="45.50928090539254" lon="11.244242605251157"><ele>139.33333333333334</ele><time>2026-04-25T09:43:25.991Z</time></trkpt><trkpt lat="45.50912456351484" lon="11.244292222048097"><ele>137.66666666666669</ele><time>2026-04-25T09:43:26.991Z</time></trkpt><trkpt lat="45.50897234564739" lon="11.244350334760666"><ele>136.0</ele><time>2026-04-25T09:43:27.991Z</time></trkpt><trkpt lat="45.508821526182864" lon="11.244413600902849"><ele>135.75</ele><time>2026-04-25T09:43:28.991Z</time></trkpt><trkpt lat="45.5086824882521" lon="11.24446638859513"><ele>135.5</ele><time>2026-04-25T09:43:29.991Z</time></trkpt><trkpt lat="45.50855966051981" lon="11.244518487966971"><ele>135.25</ele><time>2026-04-25T09:43:30.991Z</time></trkpt><trkpt lat="45.50843758613594" lon="11.24456206757282"><ele>135.0</ele><time>2026-04-25T09:43:31.991Z</time></trkpt><trkpt lat="45.508340595208416" lon="11.24459668827515"><ele>135.0</ele><time>2026-04-25T09:43:32.991Z</time></trkpt><trkpt lat="45.5082513234284" lon="11.244625443684107"><ele>135.0</ele><time>2026-04-25T09:43:33.991Z</time></trkpt><trkpt lat="45.50817406900518" lon="11.244653207931458"><ele>135.0</ele><time>2026-04-25T09:43:34.991Z</time></trkpt><trkpt lat="45.5081022300326" lon="11.24466109795705"><ele>135.0</ele><time>2026-04-25T09:43:35.991Z</time></trkpt><trkpt lat="45.50803863143546" lon="11.244674575568897"><ele>135.0</ele><time>2026-04-25T09:43:36.99Z</time></trkpt><trkpt lat="45.5079457028626" lon="11.244597792633682"><ele>135.0</ele><time>2026-04-25T09:43:38.99Z</time></trkpt><trkpt lat="45.5078808534845" lon="11.244533522240424"><ele>134.28571428571428</ele><time>2026-04-25T09:43:40.991Z</time></trkpt><trkpt lat="45.50781125774933" lon="11.244557686630287"><ele>133.57142857142856</ele><time>2026-04-25T09:43:43.991Z</time></trkpt><trkpt lat="45.507733626601414" lon="11.2445959567443"><ele>132.85714285714286</ele><time>2026-04-25T09:43:47.991Z</time></trkpt><trkpt lat="45.50774218400548" lon="11.244698626659808"><ele>132.14285714285714</ele><time>2026-04-25T09:45:57.99Z</time></trkpt><trkpt lat="45.50767737640021" lon="11.244738568983147"><ele>131.42857142857144</ele><time>2026-04-25T09:49:46.989Z</time></trkpt><trkpt lat="45.50761798600056" lon="11.244772986969696"><ele>130.71428571428572</ele><time>2026-04-25T09:49:52.989Z</time></trkpt><trkpt lat="45.507579141652776" lon="11.244872010048894"><ele>130.0</ele><time>2026-04-25T09:49:54.989Z</time></trkpt><trkpt lat="45.50759092732487" lon="11.245050222200206"><ele>130.0</ele><time>2026-04-25T09:49:56.99Z</time></trkpt><trkpt lat="45.50763189114119" lon="11.245206313180134"><ele>130.0</ele><time>2026-04-25T09:49:58.989Z</time></trkpt><trkpt lat="45.5076390148421" lon="11.245317623164226"><ele>130.0</ele><time>2026-04-25T09:50:00.989Z</time></trkpt><trkpt lat="45.50763849029774" lon="11.245412254730178"><ele>130.0</ele><time>2026-04-25T09:50:04.989Z</time></trkpt><trkpt lat="45.50764286164012" lon="11.245521964821872"><ele>130.0</ele><time>2026-04-25T09:50:08.989Z</time></trkpt><trkpt lat="45.50767327213429" lon="11.245403486265149"><ele>130.0</ele><time>2026-04-25T09:50:12.989Z</time></trkpt><trkpt lat="45.50765675169546" lon="11.245266522596365"><ele>130.0</ele><time>2026-04-25T09:50:14.989Z</time></trkpt><trkpt lat="45.50762812508446" lon="11.245138600561393"><ele>130.0</ele><time>2026-04-25T09:50:16.989Z</time></trkpt><trkpt lat="45.50760489360275" lon="11.245028118983374"><ele>130.0</ele><time>2026-04-25T09:50:18.989Z</time></trkpt><trkpt lat="45.507700261332175" lon="11.244942679753187"><ele>130.0</ele><time>2026-04-25T09:50:21.989Z</time></trkpt><trkpt lat="45.507780633481644" lon="11.244937573754571"><ele>130.0</ele><time>2026-04-25T09:50:22.989Z</time></trkpt><trkpt lat="45.507867770949574" lon="11.244911995117715"><ele>131.0</ele><time>2026-04-25T09:50:23.989Z</time></trkpt><trkpt lat="45.50795931536802" lon="11.24486824774892"><ele>132.0</ele><time>2026-04-25T09:50:24.989Z</time></trkpt><trkpt lat="45.508052895076965" lon="11.24482288442371"><ele>133.0</ele><time>2026-04-25T09:50:25.989Z</time></trkpt><trkpt lat="45.508147693622924" lon="11.244782359719071"><ele>134.0</ele><time>2026-04-25T09:50:26.989Z</time></trkpt><trkpt lat="45.50823152224722" lon="11.244751464528216"><ele>135.0</ele><time>2026-04-25T09:50:27.989Z</time></trkpt><trkpt lat="45.50830539825039" lon="11.244731068807237"><ele>135.0</ele><time>2026-04-25T09:50:28.989Z</time></trkpt><trkpt lat="45.50837642440005" lon="11.24478161947972"><ele>135.0</ele><time>2026-04-25T09:50:30.989Z</time></trkpt><trkpt lat="45.50840592782949" lon="11.24497847139893"><ele>135.0</ele><time>2026-04-25T09:50:32.989Z</time></trkpt><trkpt lat="45.50844916814469" lon="11.245096156315956"><ele>135.0</ele><time>2026-04-25T09:50:33.989Z</time></trkpt><trkpt lat="45.5085002840836" lon="11.24523065620989"><ele>135.0</ele><time>2026-04-25T09:50:34.989Z</time></trkpt><trkpt lat="45.508562817178515" lon="11.245373391513613"><ele>135.0</ele><time>2026-04-25T09:50:35.989Z</time></trkpt><trkpt lat="45.50863158873131" lon="11.24549635034017"><ele>135.0</ele><time>2026-04-25T09:50:36.989Z</time></trkpt><trkpt lat="45.508672941338226" lon="11.245597656763717"><ele>135.0</ele><time>2026-04-25T09:50:37.989Z</time></trkpt><trkpt lat="45.50869333599416" lon="11.24568296983869"><ele>135.0</ele><time>2026-04-25T09:50:38.989Z</time></trkpt><trkpt lat="45.508760588778344" lon="11.245791258196606"><ele>135.0</ele><time>2026-04-25T09:50:40.989Z</time></trkpt><trkpt lat="45.50882748966789" lon="11.245854549639638"><ele>135.0</ele><time>2026-04-25T09:50:42.989Z</time></trkpt><trkpt lat="45.508874598282205" lon="11.245941784569638"><ele>137.33333333333334</ele><time>2026-04-25T09:50:46.989Z</time></trkpt><trkpt lat="45.50879858512254" lon="11.245971864721502"><ele>139.66666666666666</ele><time>2026-04-25T09:50:50.989Z</time></trkpt><trkpt lat="45.50872509229583" lon="11.245987069277867"><ele>142.0</ele><time>2026-04-25T09:50:53.989Z</time></trkpt><trkpt lat="45.5086525326664" lon="11.245989533600067"><ele>144.33333333333331</ele><time>2026-04-25T09:50:55.989Z</time></trkpt><trkpt lat="45.508567630151084" lon="11.246030974586475"><ele>146.66666666666666</ele><time>2026-04-25T09:50:57.989Z</time></trkpt><trkpt lat="45.5085321882352" lon="11.246106243705288"><ele>149.0</ele><time>2026-04-25T09:50:59.989Z</time></trkpt><trkpt lat="45.50859913260858" lon="11.246194774006925"><ele>149.0</ele><time>2026-04-25T09:51:01.989Z</time></trkpt><trkpt lat="45.50869664282931" lon="11.24622850241248"><ele>149.0</ele><time>2026-04-25T09:51:03.989Z</time></trkpt><trkpt lat="45.50877403206086" lon="11.246286562399188"><ele>149.0</ele><time>2026-04-25T09:51:04.989Z</time></trkpt><trkpt lat="45.50886444958179" lon="11.246323817232426"><ele>149.0</ele><time>2026-04-25T09:51:05.989Z</time></trkpt><trkpt lat="45.50893651250552" lon="11.246415217407758"><ele>149.0</ele><time>2026-04-25T09:51:06.989Z</time></trkpt><trkpt lat="45.50901093127142" lon="11.246445166627277"><ele>149.2</ele><time>2026-04-25T09:51:07.989Z</time></trkpt><trkpt lat="45.50911124113751" lon="11.246441264332612"><ele>149.4</ele><time>2026-04-25T09:51:08.989Z</time></trkpt><trkpt lat="45.509190703176245" lon="11.246469590091468"><ele>149.6</ele><time>2026-04-25T09:51:09.989Z</time></trkpt><trkpt lat="45.509275712130346" lon="11.246572268870192"><ele>149.8</ele><time>2026-04-25T09:51:11.989Z</time></trkpt><trkpt lat="45.50931830106632" lon="11.246663958680719"><ele>150.0</ele><time>2026-04-25T09:51:12.989Z</time></trkpt><trkpt lat="45.509387339399275" lon="11.246733906720916"><ele>154.6</ele><time>2026-04-25T09:51:13.989Z</time></trkpt><trkpt lat="45.509407844959874" lon="11.246821954061653"><ele>159.2</ele><time>2026-04-25T09:51:17.989Z</time></trkpt><trkpt lat="45.5092908855714" lon="11.246853930381135"><ele>163.8</ele><time>2026-04-25T09:51:19.989Z</time></trkpt><trkpt lat="45.50920598538875" lon="11.246901166449804"><ele>168.4</ele><time>2026-04-25T09:51:20.989Z</time></trkpt><trkpt lat="45.509108501702876" lon="11.246981561951527"><ele>173.0</ele><time>2026-04-25T09:51:21.989Z</time></trkpt><trkpt lat="45.50902224207082" lon="11.247095523430291"><ele>173.0</ele><time>2026-04-25T09:51:22.989Z</time></trkpt><trkpt lat="45.5089542274919" lon="11.24722883469595"><ele>173.0</ele><time>2026-04-25T09:51:23.989Z</time></trkpt><trkpt lat="45.50888936808267" lon="11.247368183200352"><ele>173.0</ele><time>2026-04-25T09:51:24.988Z</time></trkpt><trkpt lat="45.508809772842774" lon="11.24750789307814"><ele>173.0</ele><time>2026-04-25T09:51:25.988Z</time></trkpt><trkpt lat="45.50873108540257" lon="11.247664388097691"><ele>174.25</ele><time>2026-04-25T09:51:26.988Z</time></trkpt><trkpt lat="45.50866128174328" lon="11.24783807525111"><ele>175.5</ele><time>2026-04-25T09:51:27.988Z</time></trkpt><trkpt lat="45.50860494272655" lon="11.248011750498284"><ele>176.75</ele><time>2026-04-25T09:51:28.988Z</time></trkpt><trkpt lat="45.508550466225444" lon="11.24820685946059"><ele>178.0</ele><time>2026-04-25T09:51:29.988Z</time></trkpt><trkpt lat="45.5084905771222" lon="11.248400846020559"><ele>180.0</ele><time>2026-04-25T09:51:30.988Z</time></trkpt><trkpt lat="45.50844091837934" lon="11.248602839191596"><ele>182.0</ele><time>2026-04-25T09:51:31.988Z</time></trkpt><trkpt lat="45.508376115911524" lon="11.24879417295236"><ele>184.0</ele><time>2026-04-25T09:51:32.988Z</time></trkpt><trkpt lat="45.50829764296967" lon="11.248969070683206"><ele>186.0</ele><time>2026-04-25T09:51:33.988Z</time></trkpt><trkpt lat="45.50821081017309" lon="11.249131856452724"><ele>187.0</ele><time>2026-04-25T09:51:34.988Z</time></trkpt><trkpt lat="45.50811685058471" lon="11.249275962723997"><ele>188.0</ele><time>2026-04-25T09:51:35.988Z</time></trkpt><trkpt lat="45.50802189706785" lon="11.24940644211176"><ele>189.0</ele><time>2026-04-25T09:51:36.988Z</time></trkpt><trkpt lat="45.50793627069191" lon="11.249528028463256"><ele>190.0</ele><time>2026-04-25T09:51:37.988Z</time></trkpt><trkpt lat="45.50787009545721" lon="11.249644440378454"><ele>190.0</ele><time>2026-04-25T09:51:38.988Z</time></trkpt><trkpt lat="45.50783786167959" lon="11.249766949773315"><ele>190.0</ele><time>2026-04-25T09:51:39.988Z</time></trkpt><trkpt lat="45.50786439598192" lon="11.249913681545245"><ele>190.0</ele><time>2026-04-25T09:51:40.988Z</time></trkpt><trkpt lat="45.50792438420367" lon="11.250048742178441"><ele>190.0</ele><time>2026-04-25T09:51:41.988Z</time></trkpt><trkpt lat="45.50798572142599" lon="11.250174875375453"><ele>190.0</ele><time>2026-04-25T09:51:42.988Z</time></trkpt><trkpt lat="45.508069731643644" lon="11.25029275913569"><ele>193.25</ele><time>2026-04-25T09:51:43.988Z</time></trkpt><trkpt lat="45.50816471027925" lon="11.250389617656515"><ele>196.5</ele><time>2026-04-25T09:51:44.988Z</time></trkpt><trkpt lat="45.50824913277383" lon="11.250509661414057"><ele>199.75</ele><time>2026-04-25T09:51:45.988Z</time></trkpt><trkpt lat="45.50831829629359" lon="11.25063733184741"><ele>203.0</ele><time>2026-04-25T09:51:46.988Z</time></trkpt><trkpt lat="45.50836778449922" lon="11.250781417524575"><ele>205.0</ele><time>2026-04-25T09:51:47.988Z</time></trkpt><trkpt lat="45.508376518717355" lon="11.250956327296935"><ele>207.0</ele><time>2026-04-25T09:51:48.988Z</time></trkpt><trkpt lat="45.50837840236945" lon="11.251133952895836"><ele>209.0</ele><time>2026-04-25T09:51:49.988Z</time></trkpt><trkpt lat="45.50835370385053" lon="11.251310202053018"><ele>211.0</ele><time>2026-04-25T09:51:50.988Z</time></trkpt><trkpt lat="45.50833382446372" lon="11.251466705668843"><ele>213.4</ele><time>2026-04-25T09:51:51.988Z</time></trkpt><trkpt lat="45.50834132881919" lon="11.251638750996795"><ele>215.8</ele><time>2026-04-25T09:51:52.988Z</time></trkpt><trkpt lat="45.50837465015639" lon="11.25178845578012"><ele>218.20000000000002</ele><time>2026-04-25T09:51:53.989Z</time></trkpt><trkpt lat="45.50840766136968" lon="11.251926284053797"><ele>220.60000000000002</ele><time>2026-04-25T09:51:54.989Z</time></trkpt><trkpt lat="45.50847398081879" lon="11.252028838877703"><ele>223.0</ele><time>2026-04-25T09:51:55.989Z</time></trkpt><trkpt lat="45.50857924401215" lon="11.252080664818479"><ele>223.0</ele><time>2026-04-25T09:51:56.989Z</time></trkpt><trkpt lat="45.5086892044611" lon="11.252061665926101"><ele>223.0</ele><time>2026-04-25T09:51:57.989Z</time></trkpt><trkpt lat="45.50880107687739" lon="11.252066147023422"><ele>223.0</ele><time>2026-04-25T09:51:58.989Z</time></trkpt><trkpt lat="45.50893644671751" lon="11.252055983273074"><ele>223.0</ele><time>2026-04-25T09:51:59.989Z</time></trkpt><trkpt lat="45.50906145608148" lon="11.25208989042026"><ele>222.75</ele><time>2026-04-25T09:52:00.988Z</time></trkpt><trkpt lat="45.50920171888858" lon="11.252079850411729"><ele>222.5</ele><time>2026-04-25T09:52:01.988Z</time></trkpt><trkpt lat="45.50934187471086" lon="11.252078200359954"><ele>222.25</ele><time>2026-04-25T09:52:02.989Z</time></trkpt><trkpt lat="45.50948965205413" lon="11.252070764463454"><ele>222.0</ele><time>2026-04-25T09:52:03.988Z</time></trkpt><trkpt lat="45.50963676173615" lon="11.252080312894401"><ele>222.5</ele><time>2026-04-25T09:52:04.988Z</time></trkpt><trkpt lat="45.509784594800166" lon="11.252074767064684"><ele>223.0</ele><time>2026-04-25T09:52:05.989Z</time></trkpt><trkpt lat="45.509925774047275" lon="11.25206763057451"><ele>223.5</ele><time>2026-04-25T09:52:06.989Z</time></trkpt><trkpt lat="45.51005964683425" lon="11.252111155716468"><ele>224.0</ele><time>2026-04-25T09:52:07.989Z</time></trkpt><trkpt lat="45.51017892246255" lon="11.252193253708894"><ele>226.0</ele><time>2026-04-25T09:52:08.989Z</time></trkpt><trkpt lat="45.510289842515355" lon="11.252323218614134"><ele>228.0</ele><time>2026-04-25T09:52:09.989Z</time></trkpt><trkpt lat="45.51038264132777" lon="11.252472011102347"><ele>230.0</ele><time>2026-04-25T09:52:10.989Z</time></trkpt><trkpt lat="45.51048069370463" lon="11.252621647196362"><ele>232.0</ele><time>2026-04-25T09:52:11.989Z</time></trkpt><trkpt lat="45.51057696569327" lon="11.252775358985271"><ele>234.25</ele><time>2026-04-25T09:52:12.989Z</time></trkpt><trkpt lat="45.51067638275258" lon="11.25290459464056"><ele>236.5</ele><time>2026-04-25T09:52:13.989Z</time></trkpt><trkpt lat="45.51077933457038" lon="11.253036560339488"><ele>238.75</ele><time>2026-04-25T09:52:14.989Z</time></trkpt><trkpt lat="45.510871283766065" lon="11.25316029355115"><ele>241.0</ele><time>2026-04-25T09:52:15.989Z</time></trkpt><trkpt lat="45.510946232005985" lon="11.253281708860554"><ele>242.5</ele><time>2026-04-25T09:52:16.989Z</time></trkpt><trkpt lat="45.51099615897382" lon="11.253418313938468"><ele>244.0</ele><time>2026-04-25T09:52:17.989Z</time></trkpt><trkpt lat="45.511015025362646" lon="11.253577161584133"><ele>245.5</ele><time>2026-04-25T09:52:18.989Z</time></trkpt><trkpt lat="45.51102177188196" lon="11.253740203599277"><ele>247.0</ele><time>2026-04-25T09:52:19.989Z</time></trkpt><trkpt lat="45.511033047102046" lon="11.253922937466733"><ele>248.75</ele><time>2026-04-25T09:52:20.989Z</time></trkpt><trkpt lat="45.511063109958656" lon="11.254106975810469"><ele>250.5</ele><time>2026-04-25T09:52:21.989Z</time></trkpt><trkpt lat="45.51108716161004" lon="11.254284266938283"><ele>252.25</ele><time>2026-04-25T09:52:22.989Z</time></trkpt><trkpt lat="45.51110731663598" lon="11.254462216900645"><ele>254.0</ele><time>2026-04-25T09:52:23.989Z</time></trkpt><trkpt lat="45.51112348919791" lon="11.25464569033469"><ele>256.25</ele><time>2026-04-25T09:52:24.989Z</time></trkpt><trkpt lat="45.511110002984445" lon="11.254813950787975"><ele>258.5</ele><time>2026-04-25T09:52:25.989Z</time></trkpt><trkpt lat="45.51108022610705" lon="11.254995315078103"><ele>260.75</ele><time>2026-04-25T09:52:26.989Z</time></trkpt><trkpt lat="45.51102332349456" lon="11.255126501874491"><ele>263.0</ele><time>2026-04-25T09:52:27.989Z</time></trkpt><trkpt lat="45.51095905110895" lon="11.255262192928484"><ele>263.0</ele><time>2026-04-25T09:52:28.989Z</time></trkpt><trkpt lat="45.51088000256946" lon="11.255362268523632"><ele>263.0</ele><time>2026-04-25T09:52:29.989Z</time></trkpt><trkpt lat="45.51078988063756" lon="11.25545666899823"><ele>263.0</ele><time>2026-04-25T09:52:30.989Z</time></trkpt><trkpt lat="45.51069333226952" lon="11.255540155810795"><ele>263.0</ele><time>2026-04-25T09:52:31.989Z</time></trkpt><trkpt lat="45.51059307707593" lon="11.25562124781659"><ele>263.0</ele><time>2026-04-25T09:52:32.989Z</time></trkpt><trkpt lat="45.51049524248546" lon="11.255711908084033"><ele>263.4</ele><time>2026-04-25T09:52:33.989Z</time></trkpt><trkpt lat="45.51039876198165" lon="11.255791102776948"><ele>263.8</ele><time>2026-04-25T09:52:34.989Z</time></trkpt><trkpt lat="45.510319108957134" lon="11.255881950411322"><ele>264.2</ele><time>2026-04-25T09:52:35.989Z</time></trkpt><trkpt lat="45.51027082573343" lon="11.255977201810447"><ele>264.6</ele><time>2026-04-25T09:52:36.989Z</time></trkpt><trkpt lat="45.510255158013244" lon="11.2560997095599"><ele>265.0</ele><time>2026-04-25T09:52:37.989Z</time></trkpt><trkpt lat="45.51028165991954" lon="11.256233578884842"><ele>265.0</ele><time>2026-04-25T09:52:38.989Z</time></trkpt><trkpt lat="45.51034122938868" lon="11.256358409454487"><ele>265.0</ele><time>2026-04-25T09:52:39.989Z</time></trkpt><trkpt lat="45.51041745842525" lon="11.256458286596176"><ele>265.0</ele><time>2026-04-25T09:52:40.988Z</time></trkpt><trkpt lat="45.510491475922336" lon="11.2565673502894"><ele>265.0</ele><time>2026-04-25T09:52:41.988Z</time></trkpt><trkpt lat="45.51056653050814" lon="11.25665428198765"><ele>265.0</ele><time>2026-04-25T09:52:42.988Z</time></trkpt><trkpt lat="45.51063703613342" lon="11.256731143727889"><ele>270.4</ele><time>2026-04-25T09:52:43.988Z</time></trkpt><trkpt lat="45.51073154499246" lon="11.256768907183313"><ele>275.8</ele><time>2026-04-25T09:52:44.988Z</time></trkpt><trkpt lat="45.51083263964511" lon="11.256733429094831"><ele>281.2</ele><time>2026-04-25T09:52:45.988Z</time></trkpt><trkpt lat="45.51091818069805" lon="11.25663883539346"><ele>286.6</ele><time>2026-04-25T09:52:46.988Z</time></trkpt><trkpt lat="45.510999307112925" lon="11.256545683656421"><ele>292.0</ele><time>2026-04-25T09:52:47.988Z</time></trkpt><trkpt lat="45.51109679163587" lon="11.256508132937856"><ele>292.0</ele><time>2026-04-25T09:52:48.988Z</time></trkpt><trkpt lat="45.51120031008791" lon="11.256480508638838"><ele>292.0</ele><time>2026-04-25T09:52:49.988Z</time></trkpt><trkpt lat="45.5113231661398" lon="11.25647188691386"><ele>292.0</ele><time>2026-04-25T09:52:50.988Z</time></trkpt><trkpt lat="45.51144966260949" lon="11.256460929427973"><ele>292.0</ele><time>2026-04-25T09:52:51.988Z</time></trkpt><trkpt lat="45.5115741509529" lon="11.256448351400632"><ele>292.0</ele><time>2026-04-25T09:52:52.988Z</time></trkpt><trkpt lat="45.51170354702462" lon="11.256433088216607"><ele>292.0</ele><time>2026-04-25T09:52:53.988Z</time></trkpt><trkpt lat="45.511833315514515" lon="11.256418563226267"><ele>292.0</ele><time>2026-04-25T09:52:54.988Z</time></trkpt><trkpt lat="45.51196608790842" lon="11.25638944822928"><ele>292.0</ele><time>2026-04-25T09:52:55.988Z</time></trkpt><trkpt lat="45.51209976927933" lon="11.256348231448044"><ele>294.5</ele><time>2026-04-25T09:52:56.988Z</time></trkpt><trkpt lat="45.512227274605806" lon="11.256300884492683"><ele>297.0</ele><time>2026-04-25T09:52:57.988Z</time></trkpt><trkpt lat="45.51236887355692" lon="11.256254801961457"><ele>299.5</ele><time>2026-04-25T09:52:58.988Z</time></trkpt><trkpt lat="45.51249965382032" lon="11.256218667832881"><ele>302.0</ele><time>2026-04-25T09:52:59.988Z</time></trkpt><trkpt lat="45.512635463287104" lon="11.256179199001584"><ele>302.0</ele><time>2026-04-25T09:53:00.988Z</time></trkpt><trkpt lat="45.51276395276743" lon="11.256137763205594"><ele>302.0</ele><time>2026-04-25T09:53:01.988Z</time></trkpt><trkpt lat="45.51288908451025" lon="11.256109948064832"><ele>302.0</ele><time>2026-04-25T09:53:02.988Z</time></trkpt><trkpt lat="45.51300479542876" lon="11.25612255374704"><ele>302.0</ele><time>2026-04-25T09:53:03.988Z</time></trkpt><trkpt lat="45.51310203982873" lon="11.256183649906022"><ele>302.4</ele><time>2026-04-25T09:53:04.988Z</time></trkpt><trkpt lat="45.51316462613335" lon="11.2562406620039"><ele>302.79999999999995</ele><time>2026-04-25T09:53:05.988Z</time></trkpt><trkpt lat="45.51326512858958" lon="11.256288108563712"><ele>303.2</ele><time>2026-04-25T09:53:07.988Z</time></trkpt><trkpt lat="45.51334891541372" lon="11.256369785620597"><ele>303.59999999999997</ele><time>2026-04-25T09:53:09.988Z</time></trkpt><trkpt lat="45.51328123231028" lon="11.256296932067613"><ele>304.0</ele><time>2026-04-25T09:53:13.988Z</time></trkpt><trkpt lat="45.5131398880835" lon="11.256413532423444"><ele>304.0</ele><time>2026-04-25T09:53:14.988Z</time></trkpt><trkpt lat="45.513067106481614" lon="11.25642375397941"><ele>304.0</ele><time>2026-04-25T09:53:15.988Z</time></trkpt><trkpt lat="45.51298897556176" lon="11.256454519047288"><ele>304.0</ele><time>2026-04-25T09:53:16.988Z</time></trkpt><trkpt lat="45.51291255719813" lon="11.25651738794621"><ele>304.0</ele><time>2026-04-25T09:53:17.988Z</time></trkpt><trkpt lat="45.512850722957566" lon="11.256590829612035"><ele>304.0</ele><time>2026-04-25T09:53:18.988Z</time></trkpt><trkpt lat="45.51277934613316" lon="11.256707125182725"><ele>304.0</ele><time>2026-04-25T09:53:20.988Z</time></trkpt><trkpt lat="45.512812894703984" lon="11.25680281464093"><ele>307.0</ele><time>2026-04-25T09:53:22.988Z</time></trkpt><trkpt lat="45.51292351212342" lon="11.256789063273288"><ele>310.0</ele><time>2026-04-25T09:53:24.988Z</time></trkpt><trkpt lat="45.51296678344318" lon="11.256901714022518"><ele>313.0</ele><time>2026-04-25T09:53:26.988Z</time></trkpt><trkpt lat="45.51292618084222" lon="11.257046104700036"><ele>316.0</ele><time>2026-04-25T09:53:28.988Z</time></trkpt><trkpt lat="45.51291148907421" lon="11.257215169759082"><ele>319.0</ele><time>2026-04-25T09:53:30.988Z</time></trkpt><trkpt lat="45.51292763218013" lon="11.257318847233158"><ele>322.4</ele><time>2026-04-25T09:53:31.988Z</time></trkpt><trkpt lat="45.51295731565068" lon="11.257420554145247"><ele>325.79999999999995</ele><time>2026-04-25T09:53:32.988Z</time></trkpt><trkpt lat="45.513007822902345" lon="11.25754232211832"><ele>329.20000000000005</ele><time>2026-04-25T09:53:33.988Z</time></trkpt><trkpt lat="45.51304698592165" lon="11.257670149069263"><ele>332.6</ele><time>2026-04-25T09:53:34.988Z</time></trkpt><trkpt lat="45.513088906894026" lon="11.25782901725954"><ele>336.0</ele><time>2026-04-25T09:53:35.988Z</time></trkpt><trkpt lat="45.51312386302529" lon="11.257978400298105"><ele>336.0</ele><time>2026-04-25T09:53:36.988Z</time></trkpt><trkpt lat="45.5131543085618" lon="11.258089437747971"><ele>336.0</ele><time>2026-04-25T09:53:37.988Z</time></trkpt><trkpt lat="45.51313900078993" lon="11.258222360479555"><ele>336.0</ele><time>2026-04-25T09:53:39.988Z</time></trkpt><trkpt lat="45.51303360900456" lon="11.258305629903962"><ele>336.0</ele><time>2026-04-25T09:53:41.988Z</time></trkpt><trkpt lat="45.512976780590655" lon="11.25834929449868"><ele>336.0</ele><time>2026-04-25T09:53:42.988Z</time></trkpt><trkpt lat="45.512945704143064" lon="11.25843197238584"><ele>336.0</ele><time>2026-04-25T09:53:43.988Z</time></trkpt><trkpt lat="45.512928807480264" lon="11.258549328128328"><ele>337.0</ele><time>2026-04-25T09:53:44.988Z</time></trkpt><trkpt lat="45.512957650036704" lon="11.258741176350176"><ele>338.0</ele><time>2026-04-25T09:53:45.988Z</time></trkpt><trkpt lat="45.51296809312473" lon="11.258888221150816"><ele>339.0</ele><time>2026-04-25T09:53:46.988Z</time></trkpt><trkpt lat="45.5129805736095" lon="11.259059605829824"><ele>340.0</ele><time>2026-04-25T09:53:47.988Z</time></trkpt><trkpt lat="45.512991461857666" lon="11.259225103430536"><ele>341.0</ele><time>2026-04-25T09:53:48.988Z</time></trkpt><trkpt lat="45.51300430870514" lon="11.25941329773053"><ele>342.0</ele><time>2026-04-25T09:53:49.988Z</time></trkpt><trkpt lat="45.51302218909377" lon="11.259611923213223"><ele>343.0</ele><time>2026-04-25T09:53:50.988Z</time></trkpt><trkpt lat="45.513027033753716" lon="11.259782551187765"><ele>344.0</ele><time>2026-04-25T09:53:51.988Z</time></trkpt><trkpt lat="45.51304213170663" lon="11.259921428420713"><ele>345.0</ele><time>2026-04-25T09:53:52.988Z</time></trkpt><trkpt lat="45.51303105593866" lon="11.260019187560014"><ele>346.0</ele><time>2026-04-25T09:53:53.988Z</time></trkpt><trkpt lat="45.513002947502166" lon="11.2601072963063"><ele>347.0</ele><time>2026-04-25T09:53:56.988Z</time></trkpt><trkpt lat="45.51289177499889" lon="11.260132556943294"><ele>348.0</ele><time>2026-04-25T09:53:58.988Z</time></trkpt><trkpt lat="45.51280959534194" lon="11.260141818525279"><ele>349.0</ele><time>2026-04-25T09:53:59.988Z</time></trkpt><trkpt lat="45.5127310740439" lon="11.260171600716738"><ele>350.0</ele><time>2026-04-25T09:54:00.988Z</time></trkpt><trkpt lat="45.51267004970194" lon="11.260294268731649"><ele>351.33333333333337</ele><time>2026-04-25T09:54:02.988Z</time></trkpt><trkpt lat="45.51263659319271" lon="11.260401900941464"><ele>352.6666666666667</ele><time>2026-04-25T09:54:03.988Z</time></trkpt><trkpt lat="45.51258766649809" lon="11.260496862047033"><ele>354.0</ele><time>2026-04-25T09:54:04.988Z</time></trkpt><trkpt lat="45.51252489211062" lon="11.26057474429166"><ele>355.3333333333333</ele><time>2026-04-25T09:54:06.988Z</time></trkpt><trkpt lat="45.51244977312421" lon="11.260561872365587"><ele>356.66666666666663</ele><time>2026-04-25T09:54:08.988Z</time></trkpt><trkpt lat="45.51236899597202" lon="11.260523945997098"><ele>358.0</ele><time>2026-04-25T09:54:09.988Z</time></trkpt><trkpt lat="45.512247534600114" lon="11.260514228946047"><ele>358.0</ele><time>2026-04-25T09:54:10.988Z</time></trkpt><trkpt lat="45.51211139622388" lon="11.260511442061581"><ele>358.0</ele><time>2026-04-25T09:54:11.988Z</time></trkpt><trkpt lat="45.512009480709416" lon="11.260518447051629"><ele>358.0</ele><time>2026-04-25T09:54:12.988Z</time></trkpt><trkpt lat="45.5119257345863" lon="11.260525914152632"><ele>358.0</ele><time>2026-04-25T09:54:13.988Z</time></trkpt><trkpt lat="45.51186241215219" lon="11.260528965528694"><ele>358.0</ele><time>2026-04-25T09:54:14.988Z</time></trkpt><trkpt lat="45.51179914210556" lon="11.26054291770381"><ele>358.0</ele><time>2026-04-25T09:54:15.987Z</time></trkpt><trkpt lat="45.51172699659846" lon="11.260577603273102"><ele>363.4</ele><time>2026-04-25T09:54:16.987Z</time></trkpt><trkpt lat="45.5116473282191" lon="11.260652927291183"><ele>368.79999999999995</ele><time>2026-04-25T09:54:18.987Z</time></trkpt><trkpt lat="45.51160883237271" lon="11.260733738862225"><ele>374.2</ele><time>2026-04-25T09:54:19.987Z</time></trkpt><trkpt lat="45.51161319778372" lon="11.260897469972852"><ele>379.6</ele><time>2026-04-25T09:54:21.987Z</time></trkpt><trkpt lat="45.51160757322384" lon="11.261009706714697"><ele>385.0</ele><time>2026-04-25T09:54:23.987Z</time></trkpt><trkpt lat="45.51148636817077" lon="11.261044831791667"><ele>385.00000000000006</ele><time>2026-04-25T09:54:25.987Z</time></trkpt><trkpt lat="45.511388837729235" lon="11.261011696236576"><ele>385.0</ele><time>2026-04-25T09:54:27.987Z</time></trkpt><trkpt lat="45.511321967445426" lon="11.260946368856544"><ele>385.0</ele><time>2026-04-25T09:54:28.987Z</time></trkpt><trkpt lat="45.51124411030902" lon="11.260867836736505"><ele>385.0</ele><time>2026-04-25T09:54:29.987Z</time></trkpt><trkpt lat="45.51119097097815" lon="11.26091697244584"><ele>385.00000000000006</ele><time>2026-04-25T09:54:32.987Z</time></trkpt><trkpt lat="45.51120409837237" lon="11.261046351784069"><ele>385.0</ele><time>2026-04-25T09:54:34.987Z</time></trkpt><trkpt lat="45.51121018774665" lon="11.261159322599172"><ele>385.8</ele><time>2026-04-25T09:54:36.987Z</time></trkpt><trkpt lat="45.511171705060896" lon="11.261368104723873"><ele>386.6</ele><time>2026-04-25T09:54:38.987Z</time></trkpt><trkpt lat="45.511175002543666" lon="11.26149538018385"><ele>387.4</ele><time>2026-04-25T09:54:39.987Z</time></trkpt><trkpt lat="45.511187902955335" lon="11.26160145591577"><ele>388.2</ele><time>2026-04-25T09:54:40.987Z</time></trkpt><trkpt lat="45.51117433833867" lon="11.261728299537225"><ele>389.0</ele><time>2026-04-25T09:54:42.987Z</time></trkpt><trkpt lat="45.51113719182881" lon="11.261833268604628"><ele>389.79999999999995</ele><time>2026-04-25T09:54:43.987Z</time></trkpt><trkpt lat="45.511111169401346" lon="11.261945951441252"><ele>390.59999999999997</ele><time>2026-04-25T09:54:44.987Z</time></trkpt><trkpt lat="45.5110773637753" lon="11.262050504198013"><ele>391.4</ele><time>2026-04-25T09:54:45.987Z</time></trkpt><trkpt lat="45.51105729829989" lon="11.26217260179475"><ele>392.2</ele><time>2026-04-25T09:54:46.987Z</time></trkpt><trkpt lat="45.510972764179314" lon="11.262255506066769"><ele>393.0</ele><time>2026-04-25T09:54:48.987Z</time></trkpt><trkpt lat="45.510933685957426" lon="11.262429559388709"><ele>394.2</ele><time>2026-04-25T09:54:50.987Z</time></trkpt><trkpt lat="45.51092333248323" lon="11.262552287106352"><ele>395.4</ele><time>2026-04-25T09:54:51.987Z</time></trkpt><trkpt lat="45.510914507892835" lon="11.26268095522602"><ele>396.59999999999997</ele><time>2026-04-25T09:54:52.987Z</time></trkpt><trkpt lat="45.510894915939744" lon="11.262845825863188"><ele>397.79999999999995</ele><time>2026-04-25T09:54:53.987Z</time></trkpt><trkpt lat="45.51086758482761" lon="11.262981901721943"><ele>399.0</ele><time>2026-04-25T09:54:54.987Z</time></trkpt><trkpt lat="45.51085326291369" lon="11.263112098176666"><ele>400.14285714285717</ele><time>2026-04-25T09:54:55.987Z</time></trkpt><trkpt lat="45.51081528135436" lon="11.263208920816487"><ele>401.2857142857143</ele><time>2026-04-25T09:54:56.987Z</time></trkpt><trkpt lat="45.51080984292849" lon="11.263312923676873"><ele>402.42857142857144</ele><time>2026-04-25T09:54:57.987Z</time></trkpt><trkpt lat="45.510789858715206" lon="11.263402801907963"><ele>403.57142857142856</ele><time>2026-04-25T09:54:58.987Z</time></trkpt><trkpt lat="45.5107664968245" lon="11.263491350792885"><ele>404.7142857142857</ele><time>2026-04-25T09:54:59.987Z</time></trkpt><trkpt lat="45.51072873475566" lon="11.263607706809637"><ele>405.8571428571429</ele><time>2026-04-25T09:55:00.987Z</time></trkpt><trkpt lat="45.51070884479053" lon="11.263708373848484"><ele>407.0</ele><time>2026-04-25T09:55:01.987Z</time></trkpt><trkpt lat="45.51064838855293" lon="11.263799841660667"><ele>406.99999999999994</ele><time>2026-04-25T09:55:03.987Z</time></trkpt><trkpt lat="45.510566246496204" lon="11.263735879568008"><ele>407.0</ele><time>2026-04-25T09:55:05.987Z</time></trkpt><trkpt lat="45.510500279327715" lon="11.263752460421976"><ele>407.0</ele><time>2026-04-25T09:55:06.987Z</time></trkpt><trkpt lat="45.51040683065792" lon="11.263850132024341"><ele>407.0</ele><time>2026-04-25T09:55:07.987Z</time></trkpt><trkpt lat="45.51034935839905" lon="11.263919422283704"><ele>406.99999999999994</ele><time>2026-04-25T09:55:08.987Z</time></trkpt><trkpt lat="45.510294829015216" lon="11.264025943296566"><ele>407.0</ele><time>2026-04-25T09:55:10.987Z</time></trkpt><trkpt lat="45.510191725930454" lon="11.264028040669917"><ele>408.0</ele><time>2026-04-25T09:55:12.987Z</time></trkpt><trkpt lat="45.51013257880388" lon="11.263964156791452"><ele>409.0</ele><time>2026-04-25T09:55:13.987Z</time></trkpt><trkpt lat="45.51005221118198" lon="11.26395007374305"><ele>410.0</ele><time>2026-04-25T09:55:14.987Z</time></trkpt><trkpt lat="45.50993046537966" lon="11.263959142775196"><ele>411.0</ele><time>2026-04-25T09:55:15.987Z</time></trkpt><trkpt lat="45.50983671096338" lon="11.26395680907132"><ele>412.0</ele><time>2026-04-25T09:55:16.987Z</time></trkpt><trkpt lat="45.50974617337832" lon="11.264006242130812"><ele>412.0</ele><time>2026-04-25T09:55:17.987Z</time></trkpt><trkpt lat="45.509655928861754" lon="11.26407870176098"><ele>412.0</ele><time>2026-04-25T09:55:18.987Z</time></trkpt><trkpt lat="45.50957521102495" lon="11.264123092383395"><ele>412.0</ele><time>2026-04-25T09:55:19.987Z</time></trkpt><trkpt lat="45.509495973150216" lon="11.26421987136897"><ele>412.0</ele><time>2026-04-25T09:55:20.987Z</time></trkpt><trkpt lat="45.50940792675741" lon="11.264322218177087"><ele>412.0</ele><time>2026-04-25T09:55:21.987Z</time></trkpt><trkpt lat="45.50932133845697" lon="11.264434079515887"><ele>411.6666666666667</ele><time>2026-04-25T09:55:22.987Z</time></trkpt><trkpt lat="45.509263991588995" lon="11.264539283628213"><ele>411.33333333333337</ele><time>2026-04-25T09:55:23.987Z</time></trkpt><trkpt lat="45.50921505287424" lon="11.264602293048709"><ele>411.0</ele><time>2026-04-25T09:55:24.987Z</time></trkpt><trkpt lat="45.50916985973237" lon="11.264687876657808"><ele>410.66666666666663</ele><time>2026-04-25T09:55:25.987Z</time></trkpt><trkpt lat="45.50911104264556" lon="11.264861908351842"><ele>410.3333333333333</ele><time>2026-04-25T09:55:27.987Z</time></trkpt><trkpt lat="45.50909852725956" lon="11.264971819611473"><ele>410.0</ele><time>2026-04-25T09:55:28.987Z</time></trkpt><trkpt lat="45.509099908083485" lon="11.265084579946945"><ele>410.6</ele><time>2026-04-25T09:55:29.987Z</time></trkpt><trkpt lat="45.509140954102946" lon="11.26524496695544"><ele>411.2</ele><time>2026-04-25T09:55:30.987Z</time></trkpt><trkpt lat="45.509198136820096" lon="11.265390315536942"><ele>411.79999999999995</ele><time>2026-04-25T09:55:31.987Z</time></trkpt><trkpt lat="45.509246057100064" lon="11.265520290806233"><ele>412.4</ele><time>2026-04-25T09:55:32.987Z</time></trkpt><trkpt lat="45.50929132368146" lon="11.26563495880278"><ele>413.0</ele><time>2026-04-25T09:55:33.987Z</time></trkpt><trkpt lat="45.50934758298308" lon="11.26572523466147"><ele>413.0</ele><time>2026-04-25T09:55:34.987Z</time></trkpt><trkpt lat="45.509399170083206" lon="11.265825893372629"><ele>413.0</ele><time>2026-04-25T09:55:35.987Z</time></trkpt><trkpt lat="45.509421935562784" lon="11.265935617574511"><ele>413.0</ele><time>2026-04-25T09:55:36.987Z</time></trkpt><trkpt lat="45.50941417503864" lon="11.266096292827202"><ele>413.0</ele><time>2026-04-25T09:55:37.987Z</time></trkpt><trkpt lat="45.50941485883425" lon="11.266262171484104"><ele>413.0</ele><time>2026-04-25T09:55:38.987Z</time></trkpt><trkpt lat="45.50942054880686" lon="11.266390293857894"><ele>412.59999999999997</ele><time>2026-04-25T09:55:39.987Z</time></trkpt><trkpt lat="45.50943005983879" lon="11.266524300832328"><ele>412.2</ele><time>2026-04-25T09:55:40.987Z</time></trkpt><trkpt lat="45.50942157821775" lon="11.266664855268404"><ele>411.8</ele><time>2026-04-25T09:55:41.987Z</time></trkpt><trkpt lat="45.509439257515226" lon="11.266839700798657"><ele>411.4</ele><time>2026-04-25T09:55:42.987Z</time></trkpt><trkpt lat="45.50944274176261" lon="11.267002859993122"><ele>411.0</ele><time>2026-04-25T09:55:43.987Z</time></trkpt><trkpt lat="45.50945567069571" lon="11.26719562423606"><ele>412.25</ele><time>2026-04-25T09:55:44.987Z</time></trkpt><trkpt lat="45.50942358725879" lon="11.26736974320717"><ele>413.5</ele><time>2026-04-25T09:55:45.987Z</time></trkpt><trkpt lat="45.50937424124984" lon="11.267534515575116"><ele>414.75</ele><time>2026-04-25T09:55:46.987Z</time></trkpt><trkpt lat="45.50933523565755" lon="11.267724307969146"><ele>416.0</ele><time>2026-04-25T09:55:47.987Z</time></trkpt><trkpt lat="45.509302829797505" lon="11.267886006702264"><ele>416.0</ele><time>2026-04-25T09:55:48.987Z</time></trkpt><trkpt lat="45.50926113314924" lon="11.268069151248758"><ele>416.0</ele><time>2026-04-25T09:55:49.987Z</time></trkpt><trkpt lat="45.50919011510359" lon="11.268223819439589"><ele>416.0</ele><time>2026-04-25T09:55:50.987Z</time></trkpt><trkpt lat="45.509117251046526" lon="11.268378310238706"><ele>416.0</ele><time>2026-04-25T09:55:51.987Z</time></trkpt><trkpt lat="45.5090413112163" lon="11.268517986094306"><ele>420.0</ele><time>2026-04-25T09:55:52.987Z</time></trkpt><trkpt lat="45.508991222597615" lon="11.268673917446668"><ele>424.0</ele><time>2026-04-25T09:55:53.987Z</time></trkpt><trkpt lat="45.50894009564095" lon="11.268863544419178"><ele>428.0</ele><time>2026-04-25T09:55:54.987Z</time></trkpt><trkpt lat="45.50887484347496" lon="11.269016298511437"><ele>432.0</ele><time>2026-04-25T09:55:55.987Z</time></trkpt><trkpt lat="45.50880813097752" lon="11.26917953040994"><ele>431.25</ele><time>2026-04-25T09:55:56.987Z</time></trkpt><trkpt lat="45.50875821260207" lon="11.26936364690219"><ele>430.5</ele><time>2026-04-25T09:55:57.987Z</time></trkpt><trkpt lat="45.508690821977765" lon="11.269532564785317"><ele>429.75</ele><time>2026-04-25T09:55:58.987Z</time></trkpt><trkpt lat="45.508649036627425" lon="11.269720974165745"><ele>429.0</ele><time>2026-04-25T09:55:59.987Z</time></trkpt><trkpt lat="45.508602210553626" lon="11.269904132012101"><ele>429.0</ele><time>2026-04-25T09:56:00.986Z</time></trkpt><trkpt lat="45.50856413216732" lon="11.2700836550394"><ele>429.0</ele><time>2026-04-25T09:56:01.986Z</time></trkpt><trkpt lat="45.5085289486367" lon="11.270247153066645"><ele>429.0</ele><time>2026-04-25T09:56:02.986Z</time></trkpt><trkpt lat="45.5084923706028" lon="11.27037536935693"><ele>429.0</ele><time>2026-04-25T09:56:03.986Z</time></trkpt><trkpt lat="45.508475688894166" lon="11.270487484067912"><ele>429.0</ele><time>2026-04-25T09:56:04.986Z</time></trkpt><trkpt lat="45.50844423689674" lon="11.270569346118572"><ele>429.0</ele><time>2026-04-25T09:56:05.988Z</time></trkpt><trkpt lat="45.508384312437315" lon="11.270600797893236"><ele>429.0</ele><time>2026-04-25T09:56:06.987Z</time></trkpt><trkpt lat="45.508291676711636" lon="11.270466835158667"><ele>429.0</ele><time>2026-04-25T09:56:08.988Z</time></trkpt><trkpt lat="45.50824801721094" lon="11.270394423441061"><ele>429.0</ele><time>2026-04-25T09:56:09.988Z</time></trkpt><trkpt lat="45.50819867763884" lon="11.27029715197677"><ele>429.0</ele><time>2026-04-25T09:56:10.988Z</time></trkpt><trkpt lat="45.508100957386375" lon="11.27024965335018"><ele>429.0</ele><time>2026-04-25T09:56:11.987Z</time></trkpt><trkpt lat="45.508004774136644" lon="11.270244424710947"><ele>429.0</ele><time>2026-04-25T09:56:12.987Z</time></trkpt><trkpt lat="45.5078861263162" lon="11.270288227837566"><ele>429.0</ele><time>2026-04-25T09:56:13.987Z</time></trkpt><trkpt lat="45.50777165853043" lon="11.270333915987486"><ele>429.0</ele><time>2026-04-25T09:56:14.987Z</time></trkpt><trkpt lat="45.50765687823519" lon="11.270358316817752"><ele>428.3333333333333</ele><time>2026-04-25T09:56:15.987Z</time></trkpt><trkpt lat="45.50755779856801" lon="11.270369696150473"><ele>427.66666666666663</ele><time>2026-04-25T09:56:16.987Z</time></trkpt><trkpt lat="45.5074772447676" lon="11.270347810743138"><ele>427.0</ele><time>2026-04-25T09:56:17.987Z</time></trkpt><trkpt lat="45.50740996412508" lon="11.270374229604318"><ele>426.3333333333333</ele><time>2026-04-25T09:56:18.987Z</time></trkpt><trkpt lat="45.50733428501424" lon="11.270411275048444"><ele>425.66666666666663</ele><time>2026-04-25T09:56:21.987Z</time></trkpt><trkpt lat="45.50727059312709" lon="11.270397220637244"><ele>425.0</ele><time>2026-04-25T09:56:28.987Z</time></trkpt><trkpt lat="45.507170613569826" lon="11.270377028485862"><ele>423.16666666666663</ele><time>2026-04-25T09:56:30.987Z</time></trkpt><trkpt lat="45.50706035725318" lon="11.2703859552748"><ele>421.3333333333333</ele><time>2026-04-25T09:56:32.987Z</time></trkpt><trkpt lat="45.50699835471586" lon="11.270411490528268"><ele>419.5</ele><time>2026-04-25T09:56:33.987Z</time></trkpt><trkpt lat="45.50692172053242" lon="11.27043430400887"><ele>417.66666666666663</ele><time>2026-04-25T09:56:34.987Z</time></trkpt><trkpt lat="45.50684828182945" lon="11.270524003862961"><ele>415.8333333333333</ele><time>2026-04-25T09:56:35.987Z</time></trkpt><trkpt lat="45.50678275174488" lon="11.270584868252273"><ele>414.0</ele><time>2026-04-25T09:56:36.987Z</time></trkpt><trkpt lat="45.506714908877065" lon="11.270645666350688"><ele>417.7142857142857</ele><time>2026-04-25T09:56:37.987Z</time></trkpt><trkpt lat="45.506661014625095" lon="11.270695161813546"><ele>421.42857142857144</ele><time>2026-04-25T09:56:38.987Z</time></trkpt><trkpt lat="45.506604593988406" lon="11.270755571382542"><ele>425.1428571428571</ele><time>2026-04-25T09:56:39.987Z</time></trkpt><trkpt lat="45.506548095368515" lon="11.270799761608734"><ele>428.8571428571429</ele><time>2026-04-25T09:56:40.987Z</time></trkpt><trkpt lat="45.50648478124741" lon="11.270855329879906"><ele>432.57142857142856</ele><time>2026-04-25T09:56:41.987Z</time></trkpt><trkpt lat="45.506422391527515" lon="11.270940282332113"><ele>436.2857142857143</ele><time>2026-04-25T09:56:42.987Z</time></trkpt><trkpt lat="45.506363207018396" lon="11.271018796282727"><ele>440.0</ele><time>2026-04-25T09:56:43.987Z</time></trkpt><trkpt lat="45.50632286907686" lon="11.271159707654771"><ele>439.99999999999994</ele><time>2026-04-25T09:56:44.987Z</time></trkpt><trkpt lat="45.50628629525876" lon="11.271259399455"><ele>440.0</ele><time>2026-04-25T09:56:45.987Z</time></trkpt><trkpt lat="45.50627699376744" lon="11.271376667703374"><ele>440.0</ele><time>2026-04-25T09:56:46.987Z</time></trkpt><trkpt lat="45.50626508864766" lon="11.271478715443408"><ele>440.0</ele><time>2026-04-25T09:56:47.987Z</time></trkpt><trkpt lat="45.50624050605775" lon="11.271567577670412"><ele>439.99999999999994</ele><time>2026-04-25T09:56:48.987Z</time></trkpt><trkpt lat="45.506199327064515" lon="11.271650037689678"><ele>440.0</ele><time>2026-04-25T09:56:49.987Z</time></trkpt><trkpt lat="45.50612925657358" lon="11.271700008204421"><ele>439.99999999999994</ele><time>2026-04-25T09:56:50.987Z</time></trkpt><trkpt lat="45.50605851661649" lon="11.271791760052796"><ele>440.0</ele><time>2026-04-25T09:56:51.987Z</time></trkpt><trkpt lat="45.50602535861198" lon="11.27188208557805"><ele>440.0</ele><time>2026-04-25T09:56:52.987Z</time></trkpt><trkpt lat="45.50600628543786" lon="11.271984621806013"><ele>440.0</ele><time>2026-04-25T09:56:53.987Z</time></trkpt><trkpt lat="45.50598885135235" lon="11.272092967734869"><ele>439.99999999999994</ele><time>2026-04-25T09:56:55.987Z</time></trkpt><trkpt lat="45.50588268625321" lon="11.272142361570511"><ele>440.0</ele><time>2026-04-25T09:56:57.987Z</time></trkpt><trkpt lat="45.50580142256935" lon="11.272132505345407"><ele>440.0</ele><time>2026-04-25T09:56:58.987Z</time></trkpt><trkpt lat="45.50565056567166" lon="11.272176753878819"><ele>440.0</ele><time>2026-04-25T09:57:00.987Z</time></trkpt><trkpt lat="45.505578148237745" lon="11.272214230596711"><ele>440.0</ele><time>2026-04-25T09:57:01.987Z</time></trkpt><trkpt lat="45.50550680450853" lon="11.272222552933536"><ele>440.0</ele><time>2026-04-25T09:57:02.987Z</time></trkpt><trkpt lat="45.505417087097115" lon="11.27219797024802"><ele>440.0</ele><time>2026-04-25T09:57:03.987Z</time></trkpt><trkpt lat="45.50534166976936" lon="11.272149005290661"><ele>438.75</ele><time>2026-04-25T09:57:04.987Z</time></trkpt><trkpt lat="45.50525093635058" lon="11.272170074871692"><ele>437.5</ele><time>2026-04-25T09:57:06.987Z</time></trkpt><trkpt lat="45.50510185628298" lon="11.272220411437099"><ele>436.25</ele><time>2026-04-25T09:57:08.987Z</time></trkpt><trkpt lat="45.50500714834005" lon="11.272271492420032"><ele>435.0</ele><time>2026-04-25T09:57:09.987Z</time></trkpt><trkpt lat="45.50490837671286" lon="11.272317189484093"><ele>440.2</ele><time>2026-04-25T09:57:10.987Z</time></trkpt><trkpt lat="45.504817182174925" lon="11.272323681019506"><ele>445.4</ele><time>2026-04-25T09:57:11.987Z</time></trkpt><trkpt lat="45.50471456496315" lon="11.272310543384323"><ele>450.6</ele><time>2026-04-25T09:57:12.987Z</time></trkpt><trkpt lat="45.50461313783082" lon="11.27230165359887"><ele>455.8</ele><time>2026-04-25T09:57:13.987Z</time></trkpt><trkpt lat="45.50451590582949" lon="11.272323418721534"><ele>461.0</ele><time>2026-04-25T09:57:14.987Z</time></trkpt><trkpt lat="45.50443493464002" lon="11.27234595931324"><ele>461.0</ele><time>2026-04-25T09:57:15.987Z</time></trkpt><trkpt lat="45.504365727756756" lon="11.272373808500882"><ele>461.0</ele><time>2026-04-25T09:57:16.987Z</time></trkpt><trkpt lat="45.5042732619847" lon="11.272412174979497"><ele>461.0</ele><time>2026-04-25T09:57:18.987Z</time></trkpt><trkpt lat="45.50424358914259" lon="11.272504749667801"><ele>461.0</ele><time>2026-04-25T09:57:20.987Z</time></trkpt><trkpt lat="45.50422532858164" lon="11.27259277240324"><ele>461.0</ele><time>2026-04-25T09:57:22.987Z</time></trkpt><trkpt lat="45.50418266252837" lon="11.272912425924165"><ele>461.0</ele><time>2026-04-25T09:57:29.987Z</time></trkpt><trkpt lat="45.504224023071835" lon="11.27310436411576"><ele>461.0</ele><time>2026-04-25T09:57:31.987Z</time></trkpt><trkpt lat="45.50421186396935" lon="11.273247759931893"><ele>461.0</ele><time>2026-04-25T09:57:32.987Z</time></trkpt><trkpt lat="45.504219078270005" lon="11.273431613390546"><ele>461.0</ele><time>2026-04-25T09:57:33.987Z</time></trkpt><trkpt lat="45.50420211062882" lon="11.273567522723992"><ele>461.8333333333333</ele><time>2026-04-25T09:57:34.987Z</time></trkpt><trkpt lat="45.50419849491218" lon="11.273718954333967"><ele>462.66666666666663</ele><time>2026-04-25T09:57:35.987Z</time></trkpt><trkpt lat="45.50416336937123" lon="11.273828594482785"><ele>463.5</ele><time>2026-04-25T09:57:36.987Z</time></trkpt><trkpt lat="45.504122608646824" lon="11.27391890611978"><ele>464.33333333333337</ele><time>2026-04-25T09:57:37.987Z</time></trkpt><trkpt lat="45.5041143485357" lon="11.27403028127451"><ele>465.1666666666667</ele><time>2026-04-25T09:57:38.987Z</time></trkpt><trkpt lat="45.50409990318564" lon="11.2741366334282"><ele>466.0</ele><time>2026-04-25T09:57:39.987Z</time></trkpt><trkpt lat="45.504102920081856" lon="11.274272206466897"><ele>466.4</ele><time>2026-04-25T09:57:40.987Z</time></trkpt><trkpt lat="45.504113269353624" lon="11.274405356139518"><ele>466.8</ele><time>2026-04-25T09:57:41.987Z</time></trkpt><trkpt lat="45.5041388677104" lon="11.274507048155353"><ele>467.19999999999993</ele><time>2026-04-25T09:57:42.987Z</time></trkpt><trkpt lat="45.50416304624832" lon="11.274626138932984"><ele>467.59999999999997</ele><time>2026-04-25T09:57:43.987Z</time></trkpt><trkpt lat="45.50419174894875" lon="11.274765522289037"><ele>468.0</ele><time>2026-04-25T09:57:44.987Z</time></trkpt><trkpt lat="45.50423238968955" lon="11.274919441810377"><ele>468.3333333333333</ele><time>2026-04-25T09:57:45.987Z</time></trkpt><trkpt lat="45.504239647684436" lon="11.27506100462553"><ele>468.66666666666663</ele><time>2026-04-25T09:57:46.987Z</time></trkpt><trkpt lat="45.504253290965835" lon="11.275192035034904"><ele>469.0</ele><time>2026-04-25T09:57:47.987Z</time></trkpt><trkpt lat="45.50429367546087" lon="11.275280597470928"><ele>469.3333333333333</ele><time>2026-04-25T09:57:48.987Z</time></trkpt><trkpt lat="45.50434892604064" lon="11.275339917744702"><ele>469.66666666666663</ele><time>2026-04-25T09:57:49.987Z</time></trkpt><trkpt lat="45.50432134852084" lon="11.275425848374006"><ele>470.0</ele><time>2026-04-25T09:57:52.987Z</time></trkpt><trkpt lat="45.504198933486904" lon="11.275378537745757"><ele>470.0</ele><time>2026-04-25T09:57:54.987Z</time></trkpt><trkpt lat="45.504107470915265" lon="11.275337587391869"><ele>470.0</ele><time>2026-04-25T09:57:55.987Z</time></trkpt><trkpt lat="45.50403467994895" lon="11.275278451000304"><ele>470.0</ele><time>2026-04-25T09:57:56.987Z</time></trkpt><trkpt lat="45.50396702442071" lon="11.275206699964857"><ele>470.0</ele><time>2026-04-25T09:57:57.986Z</time></trkpt><trkpt lat="45.50387935172129" lon="11.275165945232187"><ele>470.0</ele><time>2026-04-25T09:57:58.986Z</time></trkpt><trkpt lat="45.50376706003947" lon="11.27512659457915"><ele>466.8</ele><time>2026-04-25T09:57:59.986Z</time></trkpt><trkpt lat="45.50367629295036" lon="11.275092078858485"><ele>463.6</ele><time>2026-04-25T09:58:00.986Z</time></trkpt><trkpt lat="45.50361212322368" lon="11.275067868279816"><ele>460.4</ele><time>2026-04-25T09:58:01.986Z</time></trkpt><trkpt lat="45.503529032686814" lon="11.2751049497387"><ele>457.2</ele><time>2026-04-25T09:58:03.986Z</time></trkpt><trkpt lat="45.503511293218864" lon="11.27529302365268"><ele>454.0</ele><time>2026-04-25T09:58:05.986Z</time></trkpt><trkpt lat="45.50351815257368" lon="11.275404661768773"><ele>454.0</ele><time>2026-04-25T09:58:06.986Z</time></trkpt><trkpt lat="45.50357111137158" lon="11.275566055662875"><ele>454.0</ele><time>2026-04-25T09:58:08.986Z</time></trkpt><trkpt lat="45.50361010035892" lon="11.27567622976878"><ele>454.0</ele><time>2026-04-25T09:58:09.986Z</time></trkpt><trkpt lat="45.50366560532287" lon="11.275775362208565"><ele>454.0</ele><time>2026-04-25T09:58:10.986Z</time></trkpt><trkpt lat="45.50372808170466" lon="11.275881046085695"><ele>454.0</ele><time>2026-04-25T09:58:11.987Z</time></trkpt><trkpt lat="45.50378028768343" lon="11.27595490196684"><ele>459.0</ele><time>2026-04-25T09:58:12.988Z</time></trkpt><trkpt lat="45.50379773039689" lon="11.276113917367507"><ele>464.0</ele><time>2026-04-25T09:58:14.987Z</time></trkpt><trkpt lat="45.50378460602779" lon="11.276231784370822"><ele>469.0</ele><time>2026-04-25T09:58:15.986Z</time></trkpt><trkpt lat="45.50378219041309" lon="11.276433772433583"><ele>474.0</ele><time>2026-04-25T09:58:17.987Z</time></trkpt><trkpt lat="45.50378464624411" lon="11.276529056964414"><ele>479.0</ele><time>2026-04-25T09:58:18.987Z</time></trkpt><trkpt lat="45.503791730145494" lon="11.27665378567134"><ele>479.6</ele><time>2026-04-25T09:58:19.987Z</time></trkpt><trkpt lat="45.50381001874249" lon="11.276741955325159"><ele>480.2</ele><time>2026-04-25T09:58:20.987Z</time></trkpt><trkpt lat="45.50389307651766" lon="11.27689177913807"><ele>480.80000000000007</ele><time>2026-04-25T09:58:22.987Z</time></trkpt><trkpt lat="45.50395459966199" lon="11.276989759367332"><ele>481.40000000000003</ele><time>2026-04-25T09:58:23.987Z</time></trkpt><trkpt lat="45.50400002923227" lon="11.277098996598678"><ele>482.0</ele><time>2026-04-25T09:58:24.987Z</time></trkpt><trkpt lat="45.50404792745976" lon="11.277221316555226"><ele>479.16666666666663</ele><time>2026-04-25T09:58:25.987Z</time></trkpt><trkpt lat="45.50408541965152" lon="11.277335810489566"><ele>476.3333333333333</ele><time>2026-04-25T09:58:26.987Z</time></trkpt><trkpt lat="45.50411960258836" lon="11.277438346037194"><ele>473.5</ele><time>2026-04-25T09:58:27.987Z</time></trkpt><trkpt lat="45.50410173304634" lon="11.277567949742613"><ele>470.66666666666663</ele><time>2026-04-25T09:58:28.987Z</time></trkpt><trkpt lat="45.50410862851111" lon="11.277686889982443"><ele>467.8333333333333</ele><time>2026-04-25T09:58:29.987Z</time></trkpt><trkpt lat="45.504105269950145" lon="11.277796970070268"><ele>465.0</ele><time>2026-04-25T09:58:30.987Z</time></trkpt><trkpt lat="45.50411399878761" lon="11.277933467219846"><ele>465.0</ele><time>2026-04-25T09:58:31.987Z</time></trkpt><trkpt lat="45.504119032066306" lon="11.278036721730492"><ele>465.0</ele><time>2026-04-25T09:58:32.987Z</time></trkpt><trkpt lat="45.504137181027474" lon="11.278158408598685"><ele>465.0</ele><time>2026-04-25T09:58:33.987Z</time></trkpt><trkpt lat="45.50417035130917" lon="11.278249541627217"><ele>465.0</ele><time>2026-04-25T09:58:34.987Z</time></trkpt><trkpt lat="45.50425888242605" lon="11.278380419394987"><ele>465.0</ele><time>2026-04-25T09:58:36.987Z</time></trkpt><trkpt lat="45.504272708833675" lon="11.278483970632074"><ele>465.0</ele><time>2026-04-25T09:58:38.987Z</time></trkpt><trkpt lat="45.50424286270399" lon="11.278566612416302"><ele>460.5</ele><time>2026-04-25T09:58:40.987Z</time></trkpt><trkpt lat="45.50415085071194" lon="11.278965535380076"><ele>456.0</ele><time>2026-04-25T09:58:44.987Z</time></trkpt><trkpt lat="45.504142264787966" lon="11.279069681637058"><ele>451.5</ele><time>2026-04-25T09:58:45.987Z</time></trkpt><trkpt lat="45.504137467512805" lon="11.279184958625065"><ele>447.0</ele><time>2026-04-25T09:58:46.987Z</time></trkpt><trkpt lat="45.50414279746617" lon="11.279295223896062"><ele>447.0</ele><time>2026-04-25T09:58:47.987Z</time></trkpt><trkpt lat="45.50415254549202" lon="11.279422315927748"><ele>447.0</ele><time>2026-04-25T09:58:49.987Z</time></trkpt><trkpt lat="45.5041477209579" lon="11.279523110686707"><ele>447.0</ele><time>2026-04-25T09:59:03.987Z</time></trkpt><trkpt lat="45.504139460582266" lon="11.279612325289083"><ele>447.0</ele><time>2026-04-25T09:59:07.986Z</time></trkpt><trkpt lat="45.504143906968665" lon="11.27978031639723"><ele>447.0</ele><time>2026-04-25T09:59:09.986Z</time></trkpt><trkpt lat="45.50417177436717" lon="11.279877661537867"><ele>447.0</ele><time>2026-04-25T09:59:10.986Z</time></trkpt><trkpt lat="45.504201788374075" lon="11.279961290751016"><ele>447.8</ele><time>2026-04-25T09:59:11.986Z</time></trkpt><trkpt lat="45.5041751274934" lon="11.280095603240474"><ele>448.6</ele><time>2026-04-25T09:59:13.986Z</time></trkpt><trkpt lat="45.50410235222061" lon="11.280146296496245"><ele>449.40000000000003</ele><time>2026-04-25T09:59:14.986Z</time></trkpt><trkpt lat="45.504022960763024" lon="11.28019827781143"><ele>450.20000000000005</ele><time>2026-04-25T09:59:15.986Z</time></trkpt><trkpt lat="45.503944433986206" lon="11.280320826074695"><ele>451.0</ele><time>2026-04-25T09:59:17.986Z</time></trkpt><trkpt lat="45.50391197870427" lon="11.280420297005769"><ele>451.0</ele><time>2026-04-25T09:59:18.986Z</time></trkpt><trkpt lat="45.50391701702022" lon="11.28055353617361"><ele>451.0</ele><time>2026-04-25T09:59:19.986Z</time></trkpt><trkpt lat="45.503945147251656" lon="11.280694722204183"><ele>451.0</ele><time>2026-04-25T09:59:20.986Z</time></trkpt><trkpt lat="45.503943114454664" lon="11.280825147396646"><ele>451.0</ele><time>2026-04-25T09:59:21.986Z</time></trkpt><trkpt lat="45.50392460142957" lon="11.280959617867193"><ele>451.0</ele><time>2026-04-25T09:59:22.986Z</time></trkpt><trkpt lat="45.503894180195836" lon="11.281090903803312"><ele>451.33333333333337</ele><time>2026-04-25T09:59:23.986Z</time></trkpt><trkpt lat="45.503895139216816" lon="11.281213867493035"><ele>451.6666666666667</ele><time>2026-04-25T09:59:24.986Z</time></trkpt><trkpt lat="45.50389918606704" lon="11.281334843747883"><ele>452.0</ele><time>2026-04-25T09:59:25.986Z</time></trkpt><trkpt lat="45.503891836700625" lon="11.281438347354472"><ele>452.33333333333337</ele><time>2026-04-25T09:59:26.986Z</time></trkpt><trkpt lat="45.50389585016954" lon="11.281582577230749"><ele>452.6666666666667</ele><time>2026-04-25T09:59:27.986Z</time></trkpt><trkpt lat="45.503901722129996" lon="11.281710455290526"><ele>453.0</ele><time>2026-04-25T09:59:28.986Z</time></trkpt><trkpt lat="45.50390804301495" lon="11.28184818458944"><ele>453.59999999999997</ele><time>2026-04-25T09:59:29.986Z</time></trkpt><trkpt lat="45.503939694720955" lon="11.28196778910318"><ele>454.19999999999993</ele><time>2026-04-25T09:59:30.986Z</time></trkpt><trkpt lat="45.50396655324183" lon="11.282086804275181"><ele>454.8</ele><time>2026-04-25T09:59:31.986Z</time></trkpt><trkpt lat="45.50398253404359" lon="11.282233213274292"><ele>455.4</ele><time>2026-04-25T09:59:32.986Z</time></trkpt><trkpt lat="45.503988017902635" lon="11.282366378331632"><ele>456.0</ele><time>2026-04-25T09:59:33.986Z</time></trkpt><trkpt lat="45.504005550518656" lon="11.28250687004156"><ele>456.0</ele><time>2026-04-25T09:59:34.986Z</time></trkpt><trkpt lat="45.504034745396154" lon="11.282596777892007"><ele>456.0</ele><time>2026-04-25T09:59:35.986Z</time></trkpt><trkpt lat="45.50408533504704" lon="11.282664791612845"><ele>456.0</ele><time>2026-04-25T09:59:37.986Z</time></trkpt><trkpt lat="45.504201180020374" lon="11.282710823728488"><ele>456.0</ele><time>2026-04-25T09:59:39.986Z</time></trkpt><trkpt lat="45.50429510177029" lon="11.282711213046962"><ele>456.0</ele><time>2026-04-25T09:59:40.986Z</time></trkpt><trkpt lat="45.504389853700594" lon="11.282715588379762"><ele>456.0</ele><time>2026-04-25T09:59:41.986Z</time></trkpt><trkpt lat="45.50449824948262" lon="11.28272987263399"><ele>457.8</ele><time>2026-04-25T09:59:42.986Z</time></trkpt><trkpt lat="45.504582345519616" lon="11.28280598648296"><ele>459.6</ele><time>2026-04-25T09:59:43.986Z</time></trkpt><trkpt lat="45.504634743109804" lon="11.282920084817059"><ele>461.4</ele><time>2026-04-25T09:59:44.986Z</time></trkpt><trkpt lat="45.50464281168083" lon="11.283070280577471"><ele>463.2</ele><time>2026-04-25T09:59:45.986Z</time></trkpt><trkpt lat="45.50466015807202" lon="11.283241597669594"><ele>465.0</ele><time>2026-04-25T09:59:46.986Z</time></trkpt><trkpt lat="45.50472524035785" lon="11.2834090379313"><ele>465.0</ele><time>2026-04-25T09:59:47.986Z</time></trkpt><trkpt lat="45.50481767524353" lon="11.28353865345145"><ele>465.0</ele><time>2026-04-25T09:59:48.986Z</time></trkpt><trkpt lat="45.50492694107877" lon="11.283657621805618"><ele>465.0</ele><time>2026-04-25T09:59:49.986Z</time></trkpt><trkpt lat="45.50503795249466" lon="11.283781579435816"><ele>465.0</ele><time>2026-04-25T09:59:50.986Z</time></trkpt><trkpt lat="45.50511586196954" lon="11.28392654102412"><ele>464.0</ele><time>2026-04-25T09:59:51.986Z</time></trkpt><trkpt lat="45.50517685277272" lon="11.284086219295476"><ele>463.0</ele><time>2026-04-25T09:59:52.986Z</time></trkpt><trkpt lat="45.505213268965534" lon="11.284244430067405"><ele>462.0</ele><time>2026-04-25T09:59:53.986Z</time></trkpt><trkpt lat="45.505235840046474" lon="11.284361424144869"><ele>461.0</ele><time>2026-04-25T09:59:54.986Z</time></trkpt><trkpt lat="45.505212773129614" lon="11.28447658448592"><ele>460.0</ele><time>2026-04-25T09:59:55.986Z</time></trkpt><trkpt lat="45.505130060626286" lon="11.284545738360727"><ele>460.00000000000006</ele><time>2026-04-25T09:59:56.986Z</time></trkpt><trkpt lat="45.5050418887239" lon="11.284606428678329"><ele>460.0</ele><time>2026-04-25T09:59:57.986Z</time></trkpt><trkpt lat="45.50497410970214" lon="11.284669080669746"><ele>460.0</ele><time>2026-04-25T09:59:58.986Z</time></trkpt><trkpt lat="45.50493914290842" lon="11.284772131824997"><ele>460.0</ele><time>2026-04-25T09:59:59.986Z</time></trkpt><trkpt lat="45.50492111906933" lon="11.284887839915925"><ele>460.00000000000006</ele><time>2026-04-25T10:00:00.986Z</time></trkpt><trkpt lat="45.504902877022374" lon="11.285003329311115"><ele>460.0</ele><time>2026-04-25T10:00:01.986Z</time></trkpt><trkpt lat="45.504881235061255" lon="11.28511780326738"><ele>460.83333333333337</ele><time>2026-04-25T10:00:02.986Z</time></trkpt><trkpt lat="45.504861847236" lon="11.285238222847083"><ele>461.6666666666667</ele><time>2026-04-25T10:00:03.986Z</time></trkpt><trkpt lat="45.50484842492626" lon="11.285366391076835"><ele>462.5</ele><time>2026-04-25T10:00:04.986Z</time></trkpt><trkpt lat="45.50483414552829" lon="11.285476773690215"><ele>463.33333333333337</ele><time>2026-04-25T10:00:05.986Z</time></trkpt><trkpt lat="45.504835935747685" lon="11.28558347026631"><ele>464.1666666666667</ele><time>2026-04-25T10:00:06.986Z</time></trkpt><trkpt lat="45.504826405635164" lon="11.285702319158087"><ele>465.0</ele><time>2026-04-25T10:00:07.986Z</time></trkpt><trkpt lat="45.504814385291525" lon="11.285817347461858"><ele>465.6666666666667</ele><time>2026-04-25T10:00:08.986Z</time></trkpt><trkpt lat="45.50480688543007" lon="11.28595380465599"><ele>466.33333333333337</ele><time>2026-04-25T10:00:09.986Z</time></trkpt><trkpt lat="45.504815665692284" lon="11.286087591044039"><ele>467.0</ele><time>2026-04-25T10:00:10.986Z</time></trkpt><trkpt lat="45.5048320358972" lon="11.286206658186615"><ele>467.6666666666667</ele><time>2026-04-25T10:00:11.986Z</time></trkpt><trkpt lat="45.50483190161402" lon="11.286323195250576"><ele>468.33333333333337</ele><time>2026-04-25T10:00:12.986Z</time></trkpt><trkpt lat="45.50483209694637" lon="11.286428325795757"><ele>469.0</ele><time>2026-04-25T10:00:13.986Z</time></trkpt><trkpt lat="45.50482481879396" lon="11.286559334942485"><ele>469.6</ele><time>2026-04-25T10:00:14.986Z</time></trkpt><trkpt lat="45.50480234574641" lon="11.286709576392703"><ele>470.2</ele><time>2026-04-25T10:00:15.986Z</time></trkpt><trkpt lat="45.504787388252836" lon="11.286829229395567"><ele>470.80000000000007</ele><time>2026-04-25T10:00:16.986Z</time></trkpt><trkpt lat="45.5047589567797" lon="11.286963486071759"><ele>471.40000000000003</ele><time>2026-04-25T10:00:17.986Z</time></trkpt><trkpt lat="45.50474134745816" lon="11.287103059455365"><ele>472.0</ele><time>2026-04-25T10:00:18.986Z</time></trkpt><trkpt lat="45.504731471600365" lon="11.287229413641262"><ele>472.6666666666667</ele><time>2026-04-25T10:00:19.986Z</time></trkpt><trkpt lat="45.50473874249942" lon="11.28735392212474"><ele>473.33333333333337</ele><time>2026-04-25T10:00:20.987Z</time></trkpt><trkpt lat="45.504714449866775" lon="11.287450871119292"><ele>474.0</ele><time>2026-04-25T10:00:21.987Z</time></trkpt><trkpt lat="45.50465721384858" lon="11.287525156205644"><ele>474.66666666666663</ele><time>2026-04-25T10:00:22.987Z</time></trkpt><trkpt lat="45.50457430434152" lon="11.287556636225533"><ele>475.3333333333333</ele><time>2026-04-25T10:00:23.986Z</time></trkpt><trkpt lat="45.50448276087988" lon="11.287608176848659"><ele>476.0</ele><time>2026-04-25T10:00:24.987Z</time></trkpt><trkpt lat="45.50441021867769" lon="11.287695290543237"><ele>475.8</ele><time>2026-04-25T10:00:25.986Z</time></trkpt><trkpt lat="45.50434778992551" lon="11.287804383456836"><ele>475.6</ele><time>2026-04-25T10:00:26.987Z</time></trkpt><trkpt lat="45.504285229162704" lon="11.287930576963737"><ele>475.4</ele><time>2026-04-25T10:00:27.986Z</time></trkpt><trkpt lat="45.50422061608118" lon="11.288062560288175"><ele>475.2</ele><time>2026-04-25T10:00:28.986Z</time></trkpt><trkpt lat="45.50416272284294" lon="11.288201664141244"><ele>475.0</ele><time>2026-04-25T10:00:29.986Z</time></trkpt><trkpt lat="45.50409577494009" lon="11.288351778977454"><ele>475.0</ele><time>2026-04-25T10:00:30.987Z</time></trkpt><trkpt lat="45.50402704760159" lon="11.288505582836384"><ele>475.0</ele><time>2026-04-25T10:00:31.987Z</time></trkpt><trkpt lat="45.5039572039135" lon="11.288665736730282"><ele>475.0</ele><time>2026-04-25T10:00:32.987Z</time></trkpt><trkpt lat="45.50388058037644" lon="11.288826009815551"><ele>475.0</ele><time>2026-04-25T10:00:33.987Z</time></trkpt><trkpt lat="45.50379268836769" lon="11.288985564218496"><ele>473.6666666666667</ele><time>2026-04-25T10:00:34.987Z</time></trkpt><trkpt lat="45.50369570309908" lon="11.289125923989564"><ele>472.33333333333337</ele><time>2026-04-25T10:00:35.987Z</time></trkpt><trkpt lat="45.50357237013927" lon="11.289253903401658"><ele>471.0</ele><time>2026-04-25T10:00:36.987Z</time></trkpt><trkpt lat="45.50345315534017" lon="11.289405086914767"><ele>471.0</ele><time>2026-04-25T10:00:37.987Z</time></trkpt><trkpt lat="45.50333507926377" lon="11.28955590112549"><ele>471.0</ele><time>2026-04-25T10:00:38.987Z</time></trkpt><trkpt lat="45.50323237113169" lon="11.289726622312413"><ele>471.0</ele><time>2026-04-25T10:00:39.987Z</time></trkpt><trkpt lat="45.50313984806055" lon="11.289877755477002"><ele>472.0</ele><time>2026-04-25T10:00:40.987Z</time></trkpt><trkpt lat="45.50304634310002" lon="11.290025070042848"><ele>473.0</ele><time>2026-04-25T10:00:41.987Z</time></trkpt><trkpt lat="45.50294259893552" lon="11.290118968023942"><ele>474.0</ele><time>2026-04-25T10:00:42.987Z</time></trkpt><trkpt lat="45.50283693858499" lon="11.290206843936172"><ele>475.0</ele><time>2026-04-25T10:00:43.987Z</time></trkpt><trkpt lat="45.50275199168597" lon="11.290332822556943"><ele>475.0</ele><time>2026-04-25T10:00:44.987Z</time></trkpt><trkpt lat="45.50268908069518" lon="11.290478866043099"><ele>475.0</ele><time>2026-04-25T10:00:45.987Z</time></trkpt><trkpt lat="45.502659480484056" lon="11.290631738095493"><ele>475.0</ele><time>2026-04-25T10:00:46.987Z</time></trkpt><trkpt lat="45.50267189395037" lon="11.29077587378149"><ele>475.0</ele><time>2026-04-25T10:00:47.987Z</time></trkpt><trkpt lat="45.502717809626084" lon="11.290898482865265"><ele>475.0</ele><time>2026-04-25T10:00:48.987Z</time></trkpt><trkpt lat="45.50278959222769" lon="11.291023264241348"><ele>479.0</ele><time>2026-04-25T10:00:49.987Z</time></trkpt><trkpt lat="45.50285193057736" lon="11.291172046519861"><ele>483.0</ele><time>2026-04-25T10:00:50.987Z</time></trkpt><trkpt lat="45.50289001366612" lon="11.29134257935003"><ele>487.0</ele><time>2026-04-25T10:00:51.987Z</time></trkpt><trkpt lat="45.50290933075808" lon="11.291527273226531"><ele>491.0</ele><time>2026-04-25T10:00:52.987Z</time></trkpt><trkpt lat="45.502937944308016" lon="11.291738138656328"><ele>496.25</ele><time>2026-04-25T10:00:53.987Z</time></trkpt><trkpt lat="45.5029836374928" lon="11.291914579191623"><ele>501.5</ele><time>2026-04-25T10:00:54.987Z</time></trkpt><trkpt lat="45.50304362352354" lon="11.292080189821343"><ele>506.75</ele><time>2026-04-25T10:00:55.987Z</time></trkpt><trkpt lat="45.50309817842647" lon="11.29225849217669"><ele>512.0</ele><time>2026-04-25T10:00:56.987Z</time></trkpt><trkpt lat="45.50314895731005" lon="11.29243606256875"><ele>512.0</ele><time>2026-04-25T10:00:57.987Z</time></trkpt><trkpt lat="45.50320864688236" lon="11.292596048427043"><ele>512.0</ele><time>2026-04-25T10:00:58.987Z</time></trkpt><trkpt lat="45.50329424148633" lon="11.292734712844807"><ele>512.0</ele><time>2026-04-25T10:00:59.987Z</time></trkpt><trkpt lat="45.503401046927245" lon="11.292853260249146"><ele>512.0</ele><time>2026-04-25T10:01:00.987Z</time></trkpt><trkpt lat="45.50350290161594" lon="11.292926591820386"><ele>512.0</ele><time>2026-04-25T10:01:01.987Z</time></trkpt><trkpt lat="45.503577523630625" lon="11.293012520160138"><ele>512.0</ele><time>2026-04-25T10:01:02.987Z</time></trkpt><trkpt lat="45.50361879681337" lon="11.29313545876234"><ele>512.0</ele><time>2026-04-25T10:01:03.987Z</time></trkpt><trkpt lat="45.50363633701521" lon="11.293265543410758"><ele>512.0</ele><time>2026-04-25T10:01:04.987Z</time></trkpt><trkpt lat="45.503657873951205" lon="11.29341082601658"><ele>512.0</ele><time>2026-04-25T10:01:05.987Z</time></trkpt><trkpt lat="45.503704491648925" lon="11.293545960567645"><ele>516.4</ele><time>2026-04-25T10:01:06.987Z</time></trkpt><trkpt lat="45.50376776599368" lon="11.293669858254564"><ele>520.8000000000001</ele><time>2026-04-25T10:01:07.987Z</time></trkpt><trkpt lat="45.50384126247589" lon="11.293792455786747"><ele>525.2</ele><time>2026-04-25T10:01:08.987Z</time></trkpt><trkpt lat="45.50391555132824" lon="11.293916408876706"><ele>529.6</ele><time>2026-04-25T10:01:09.987Z</time></trkpt><trkpt lat="45.5040024196324" lon="11.294017960032209"><ele>534.0</ele><time>2026-04-25T10:01:10.987Z</time></trkpt><trkpt lat="45.50410976037184" lon="11.294075747389106"><ele>534.0</ele><time>2026-04-25T10:01:11.987Z</time></trkpt><trkpt lat="45.50421837441096" lon="11.294101692259582"><ele>534.0</ele><time>2026-04-25T10:01:12.987Z</time></trkpt><trkpt lat="45.50433452751376" lon="11.294113789959665"><ele>534.0</ele><time>2026-04-25T10:01:13.987Z</time></trkpt><trkpt lat="45.50445159118157" lon="11.294114831035804"><ele>534.0</ele><time>2026-04-25T10:01:14.987Z</time></trkpt><trkpt lat="45.50457117309743" lon="11.294113941099562"><ele>537.5</ele><time>2026-04-25T10:01:15.987Z</time></trkpt><trkpt lat="45.50468552983925" lon="11.29414574922684"><ele>541.0</ele><time>2026-04-25T10:01:16.987Z</time></trkpt><trkpt lat="45.504792258860505" lon="11.294220491262651"><ele>544.5</ele><time>2026-04-25T10:01:17.987Z</time></trkpt><trkpt lat="45.50487666874865" lon="11.294320848107748"><ele>548.0</ele><time>2026-04-25T10:01:18.987Z</time></trkpt><trkpt lat="45.50497534738398" lon="11.294398916981802"><ele>548.0</ele><time>2026-04-25T10:01:19.987Z</time></trkpt><trkpt lat="45.50507857474826" lon="11.29442647456546"><ele>548.0</ele><time>2026-04-25T10:01:20.987Z</time></trkpt><trkpt lat="45.50519349142909" lon="11.294369871419043"><ele>548.0</ele><time>2026-04-25T10:01:21.987Z</time></trkpt><trkpt lat="45.50531019240563" lon="11.29428339743896"><ele>548.0</ele><time>2026-04-25T10:01:22.987Z</time></trkpt><trkpt lat="45.505416838744324" lon="11.294189522410983"><ele>549.75</ele><time>2026-04-25T10:01:23.987Z</time></trkpt><trkpt lat="45.50551972319417" lon="11.294080506582397"><ele>551.5</ele><time>2026-04-25T10:01:24.987Z</time></trkpt><trkpt lat="45.50562003735219" lon="11.293957356038517"><ele>553.25</ele><time>2026-04-25T10:01:25.987Z</time></trkpt><trkpt lat="45.50573034940357" lon="11.293831242265362"><ele>555.0</ele><time>2026-04-25T10:01:26.987Z</time></trkpt><trkpt lat="45.50584577053071" lon="11.293724473174937"><ele>556.0</ele><time>2026-04-25T10:01:27.987Z</time></trkpt><trkpt lat="45.505962365543745" lon="11.29361585461347"><ele>557.0</ele><time>2026-04-25T10:01:28.987Z</time></trkpt><trkpt lat="45.50608068479911" lon="11.293524131014335"><ele>558.0</ele><time>2026-04-25T10:01:29.987Z</time></trkpt><trkpt lat="45.50618981434094" lon="11.293440260576629"><ele>559.0</ele><time>2026-04-25T10:01:30.987Z</time></trkpt><trkpt lat="45.50630279847203" lon="11.29335665757096"><ele>561.0</ele><time>2026-04-25T10:01:31.987Z</time></trkpt><trkpt lat="45.50641295942775" lon="11.293279427828757"><ele>563.0</ele><time>2026-04-25T10:01:32.986Z</time></trkpt><trkpt lat="45.50651901450075" lon="11.293207889017461"><ele>565.0</ele><time>2026-04-25T10:01:33.986Z</time></trkpt><trkpt lat="45.50662213385827" lon="11.293146160688787"><ele>567.0</ele><time>2026-04-25T10:01:34.986Z</time></trkpt><trkpt lat="45.50672451329727" lon="11.293086980931651"><ele>567.6</ele><time>2026-04-25T10:01:35.986Z</time></trkpt><trkpt lat="45.50682413895965" lon="11.293021229374329"><ele>568.2</ele><time>2026-04-25T10:01:36.986Z</time></trkpt><trkpt lat="45.50692156096364" lon="11.292952465146842"><ele>568.8</ele><time>2026-04-25T10:01:37.986Z</time></trkpt><trkpt lat="45.50701848813048" lon="11.29288001566233"><ele>569.4</ele><time>2026-04-25T10:01:38.986Z</time></trkpt><trkpt lat="45.50711112107344" lon="11.2928227314133"><ele>570.0</ele><time>2026-04-25T10:01:39.986Z</time></trkpt><trkpt lat="45.50719313825886" lon="11.292765638567902"><ele>572.0</ele><time>2026-04-25T10:01:40.986Z</time></trkpt><trkpt lat="45.5072695222758" lon="11.292731263510829"><ele>574.0</ele><time>2026-04-25T10:01:41.986Z</time></trkpt><trkpt lat="45.50736118083846" lon="11.292737280266202"><ele>576.0</ele><time>2026-04-25T10:01:42.986Z</time></trkpt><trkpt lat="45.507451728536886" lon="11.292762158681967"><ele>578.0</ele><time>2026-04-25T10:01:43.986Z</time></trkpt><trkpt lat="45.50754464965203" lon="11.29275777203865"><ele>580.0</ele><time>2026-04-25T10:01:44.986Z</time></trkpt><trkpt lat="45.50760165635473" lon="11.292712752705752"><ele>582.0</ele><time>2026-04-25T10:01:45.986Z</time></trkpt><trkpt lat="45.5076213391143" lon="11.29262672421673"><ele>582.0</ele><time>2026-04-25T10:01:46.986Z</time></trkpt><trkpt lat="45.50764676188543" lon="11.29251476696652"><ele>582.0</ele><time>2026-04-25T10:01:47.986Z</time></trkpt><trkpt lat="45.50768332393794" lon="11.292402151172954"><ele>582.0</ele><time>2026-04-25T10:01:48.986Z</time></trkpt><trkpt lat="45.50772546257719" lon="11.292272287823879"><ele>582.0</ele><time>2026-04-25T10:01:49.986Z</time></trkpt><trkpt lat="45.5077722135869" lon="11.29212948701113"><ele>582.0</ele><time>2026-04-25T10:01:50.986Z</time></trkpt><trkpt lat="45.50782342926217" lon="11.291991329350381"><ele>581.8333333333334</ele><time>2026-04-25T10:01:51.986Z</time></trkpt><trkpt lat="45.50786533937326" lon="11.291875550336247"><ele>581.6666666666666</ele><time>2026-04-25T10:01:52.986Z</time></trkpt><trkpt lat="45.5079031866555" lon="11.291771285880536"><ele>581.5</ele><time>2026-04-25T10:01:53.986Z</time></trkpt><trkpt lat="45.50793348053067" lon="11.291679410913522"><ele>581.3333333333333</ele><time>2026-04-25T10:01:54.986Z</time></trkpt><trkpt lat="45.50796233086505" lon="11.291594806134015"><ele>581.1666666666666</ele><time>2026-04-25T10:01:55.986Z</time></trkpt><trkpt lat="45.50799076139608" lon="11.291500113479028"><ele>581.0</ele><time>2026-04-25T10:01:56.986Z</time></trkpt><trkpt lat="45.50801435245016" lon="11.291393965305634"><ele>581.0</ele><time>2026-04-25T10:01:57.986Z</time></trkpt><trkpt lat="45.508025365057605" lon="11.29127884576776"><ele>581.0</ele><time>2026-04-25T10:01:58.986Z</time></trkpt><trkpt lat="45.50803034952847" lon="11.291163395854436"><ele>581.0</ele><time>2026-04-25T10:01:59.986Z</time></trkpt><trkpt lat="45.50802751465472" lon="11.291057593343215"><ele>581.0</ele><time>2026-04-25T10:02:00.986Z</time></trkpt><trkpt lat="45.50802102941557" lon="11.290943036157053"><ele>581.0</ele><time>2026-04-25T10:02:01.986Z</time></trkpt><trkpt lat="45.508012855227356" lon="11.290822230803522"><ele>581.0</ele><time>2026-04-25T10:02:02.986Z</time></trkpt><trkpt lat="45.50801041102317" lon="11.290716025146898"><ele>581.0</ele><time>2026-04-25T10:02:03.986Z</time></trkpt><trkpt lat="45.50801434349489" lon="11.290622898071932"><ele>581.0</ele><time>2026-04-25T10:02:04.986Z</time></trkpt><trkpt lat="45.508015506068396" lon="11.290528814542547"><ele>581.0</ele><time>2026-04-25T10:02:05.986Z</time></trkpt><trkpt lat="45.50802726113135" lon="11.290423103235941"><ele>581.0</ele><time>2026-04-25T10:02:06.986Z</time></trkpt><trkpt lat="45.50804939973743" lon="11.2903152956594"><ele>581.0</ele><time>2026-04-25T10:02:07.986Z</time></trkpt><trkpt lat="45.508075233209105" lon="11.29020514161553"><ele>581.0</ele><time>2026-04-25T10:02:08.986Z</time></trkpt><trkpt lat="45.50810595224416" lon="11.290082581233428"><ele>582.2</ele><time>2026-04-25T10:02:09.986Z</time></trkpt><trkpt lat="45.50814152063475" lon="11.289958007869958"><ele>583.4000000000001</ele><time>2026-04-25T10:02:10.986Z</time></trkpt><trkpt lat="45.508180882348455" lon="11.289825280003418"><ele>584.6</ele><time>2026-04-25T10:02:11.986Z</time></trkpt><trkpt lat="45.50821141082559" lon="11.289698144368172"><ele>585.8000000000001</ele><time>2026-04-25T10:02:12.986Z</time></trkpt><trkpt lat="45.50823372882015" lon="11.289587011163938"><ele>587.0</ele><time>2026-04-25T10:02:13.986Z</time></trkpt><trkpt lat="45.50832546122031" lon="11.289508297287016"><ele>588.0</ele><time>2026-04-25T10:02:14.986Z</time></trkpt><trkpt lat="45.508338055469345" lon="11.289419711232833"><ele>589.0</ele><time>2026-04-25T10:02:15.986Z</time></trkpt><trkpt lat="45.508358415913214" lon="11.289324525854965"><ele>590.0</ele><time>2026-04-25T10:02:16.986Z</time></trkpt><trkpt lat="45.508387235475" lon="11.289227954050205"><ele>591.0</ele><time>2026-04-25T10:02:17.986Z</time></trkpt><trkpt lat="45.508424684132" lon="11.289132206370981"><ele>592.0</ele><time>2026-04-25T10:02:18.986Z</time></trkpt><trkpt lat="45.508472046283515" lon="11.289032710794283"><ele>593.0</ele><time>2026-04-25T10:02:19.986Z</time></trkpt><trkpt lat="45.50851832624837" lon="11.288942517300969"><ele>594.0</ele><time>2026-04-25T10:02:20.986Z</time></trkpt><trkpt lat="45.50856650661574" lon="11.288854278409469"><ele>594.6666666666666</ele><time>2026-04-25T10:02:21.986Z</time></trkpt><trkpt lat="45.50861285546375" lon="11.288768746416618"><ele>595.3333333333334</ele><time>2026-04-25T10:02:22.986Z</time></trkpt><trkpt lat="45.508656788407706" lon="11.288674471914394"><ele>596.0</ele><time>2026-04-25T10:02:23.986Z</time></trkpt><trkpt lat="45.50868931504983" lon="11.288540833230513"><ele>596.6666666666667</ele><time>2026-04-25T10:02:25.986Z</time></trkpt><trkpt lat="45.50869542059624" lon="11.28842618632016"><ele>597.3333333333334</ele><time>2026-04-25T10:02:29.986Z</time></trkpt><trkpt lat="45.50869894689686" lon="11.288322703586205"><ele>598.0</ele><time>2026-04-25T10:02:31.986Z</time></trkpt><trkpt lat="45.50868779760021" lon="11.288201271241777"><ele>600.5</ele><time>2026-04-25T10:02:33.986Z</time></trkpt><trkpt lat="45.50866965269888" lon="11.288079881249486"><ele>603.0</ele><time>2026-04-25T10:02:37.986Z</time></trkpt><trkpt lat="45.50873640327451" lon="11.287489685848008"><ele>604.1666666666666</ele><time>2026-04-25T10:02:38.986Z</time></trkpt><trkpt lat="45.508825338873756" lon="11.287406392600566"><ele>605.3333333333334</ele><time>2026-04-25T10:02:39.986Z</time></trkpt><trkpt lat="45.508892367227475" lon="11.287347689692869"><ele>606.5</ele><time>2026-04-25T10:02:40.986Z</time></trkpt><trkpt lat="45.50896036029887" lon="11.287283049472096"><ele>607.6666666666667</ele><time>2026-04-25T10:02:41.986Z</time></trkpt><trkpt lat="45.50901269468543" lon="11.28722674855784"><ele>608.8333333333334</ele><time>2026-04-25T10:02:42.986Z</time></trkpt><trkpt lat="45.50912227988647" lon="11.28724951275969"><ele>610.0</ele><time>2026-04-25T10:02:43.986Z</time></trkpt><trkpt lat="45.509173148370984" lon="11.287144915426849"><ele>612.6</ele><time>2026-04-25T10:02:44.986Z</time></trkpt><trkpt lat="45.509231706855324" lon="11.28705237526008"><ele>615.2</ele><time>2026-04-25T10:02:45.985Z</time></trkpt><trkpt lat="45.50930495608713" lon="11.286955091902602"><ele>617.8</ele><time>2026-04-25T10:02:46.985Z</time></trkpt><trkpt lat="45.509375135066726" lon="11.28685572485471"><ele>620.4</ele><time>2026-04-25T10:02:47.985Z</time></trkpt><trkpt lat="45.50945460252712" lon="11.286753936897664"><ele>623.0</ele><time>2026-04-25T10:02:48.985Z</time></trkpt><trkpt lat="45.50953999944087" lon="11.286670602326186"><ele>622.8</ele><time>2026-04-25T10:02:49.985Z</time></trkpt><trkpt lat="45.509630268477764" lon="11.286599062140043"><ele>622.5999999999999</ele><time>2026-04-25T10:02:50.985Z</time></trkpt><trkpt lat="45.509749791620884" lon="11.286528895337796"><ele>622.4000000000001</ele><time>2026-04-25T10:02:51.985Z</time></trkpt><trkpt lat="45.50986003959389" lon="11.286472635817201"><ele>622.2</ele><time>2026-04-25T10:02:52.985Z</time></trkpt><trkpt lat="45.50995623639503" lon="11.2864495653913"><ele>622.0</ele><time>2026-04-25T10:02:53.985Z</time></trkpt><trkpt lat="45.510032850068555" lon="11.286421189750518"><ele>624.0</ele><time>2026-04-25T10:02:54.985Z</time></trkpt><trkpt lat="45.51010241945673" lon="11.286396028764788"><ele>626.0</ele><time>2026-04-25T10:02:55.985Z</time></trkpt><trkpt lat="45.510170495052215" lon="11.286351504656071"><ele>628.0</ele><time>2026-04-25T10:02:56.985Z</time></trkpt><trkpt lat="45.51023837634861" lon="11.286279342416545"><ele>630.0</ele><time>2026-04-25T10:02:57.985Z</time></trkpt><trkpt lat="45.510265943651646" lon="11.286191886743905"><ele>632.0</ele><time>2026-04-25T10:02:58.985Z</time></trkpt><trkpt lat="45.51027237181988" lon="11.286091635110926"><ele>634.0</ele><time>2026-04-25T10:03:01.985Z</time></trkpt><trkpt lat="45.51032298267718" lon="11.286028370102095"><ele>636.0</ele><time>2026-04-25T10:03:04.985Z</time></trkpt><trkpt lat="45.51046285012915" lon="11.286022598151613"><ele>636.0</ele><time>2026-04-25T10:03:07.985Z</time></trkpt><trkpt lat="45.51053523018757" lon="11.285982930197997"><ele>636.0</ele><time>2026-04-25T10:03:08.985Z</time></trkpt><trkpt lat="45.51061216218139" lon="11.285920285269508"><ele>636.0</ele><time>2026-04-25T10:03:09.985Z</time></trkpt><trkpt lat="45.510688962231484" lon="11.285873090744307"><ele>636.0</ele><time>2026-04-25T10:03:10.985Z</time></trkpt><trkpt lat="45.51075249172939" lon="11.285861192921978"><ele>636.0</ele><time>2026-04-25T10:03:12.985Z</time></trkpt><trkpt lat="45.51082657497561" lon="11.285776677316138"><ele>636.0</ele><time>2026-04-25T10:03:14.985Z</time></trkpt><trkpt lat="45.51087242629099" lon="11.28569066785308"><ele>636.8</ele><time>2026-04-25T10:03:15.985Z</time></trkpt><trkpt lat="45.510886291258366" lon="11.2855320668665"><ele>637.6</ele><time>2026-04-25T10:03:17.985Z</time></trkpt><trkpt lat="45.51085941702225" lon="11.285437776434613"><ele>638.4</ele><time>2026-04-25T10:03:19.985Z</time></trkpt><trkpt lat="45.51077293576278" lon="11.285329615281398"><ele>639.2</ele><time>2026-04-25T10:03:21.985Z</time></trkpt><trkpt lat="45.51078764538292" lon="11.285190513199947"><ele>640.0</ele><time>2026-04-25T10:03:23.985Z</time></trkpt><trkpt lat="45.51077160242212" lon="11.28507489457644"><ele>640.0</ele><time>2026-04-25T10:03:24.985Z</time></trkpt><trkpt lat="45.51075627401107" lon="11.284985259738045"><ele>640.0</ele><time>2026-04-25T10:03:25.985Z</time></trkpt><trkpt lat="45.510728368907394" lon="11.284894585756145"><ele>640.0</ele><time>2026-04-25T10:03:26.985Z</time></trkpt><trkpt lat="45.51070859612358" lon="11.284774270469292"><ele>640.0</ele><time>2026-04-25T10:03:27.985Z</time></trkpt><trkpt lat="45.51066913579956" lon="11.284635568100256"><ele>640.0</ele><time>2026-04-25T10:03:28.985Z</time></trkpt><trkpt lat="45.5106139344577" lon="11.284449664671035"><ele>638.2</ele><time>2026-04-25T10:03:29.985Z</time></trkpt><trkpt lat="45.51053129509394" lon="11.28431453825634"><ele>636.4</ele><time>2026-04-25T10:03:30.985Z</time></trkpt><trkpt lat="45.51043755614784" lon="11.284199848524453"><ele>634.6</ele><time>2026-04-25T10:03:31.985Z</time></trkpt><trkpt lat="45.51036433022533" lon="11.284098554987647"><ele>632.8</ele><time>2026-04-25T10:03:32.985Z</time></trkpt><trkpt lat="45.51030160168044" lon="11.283994925744807"><ele>631.0</ele><time>2026-04-25T10:03:33.985Z</time></trkpt><trkpt lat="45.51027821741205" lon="11.283875105232346"><ele>630.8333333333334</ele><time>2026-04-25T10:03:34.985Z</time></trkpt><trkpt lat="45.51028024008174" lon="11.28374155989646"><ele>630.6666666666667</ele><time>2026-04-25T10:03:35.985Z</time></trkpt><trkpt lat="45.51030092900091" lon="11.283623058431287"><ele>630.5</ele><time>2026-04-25T10:03:36.985Z</time></trkpt><trkpt lat="45.51035920661776" lon="11.283520156874483"><ele>630.3333333333334</ele><time>2026-04-25T10:03:37.985Z</time></trkpt><trkpt lat="45.51043037099418" lon="11.283454889185354"><ele>630.1666666666666</ele><time>2026-04-25T10:03:38.985Z</time></trkpt><trkpt lat="45.51049502848449" lon="11.283406528050106"><ele>630.0</ele><time>2026-04-25T10:03:39.985Z</time></trkpt><trkpt lat="45.51054345577333" lon="11.283336656027867"><ele>630.0</ele><time>2026-04-25T10:03:40.985Z</time></trkpt><trkpt lat="45.51057113487003" lon="11.283241104680506"><ele>630.0</ele><time>2026-04-25T10:03:41.985Z</time></trkpt><trkpt lat="45.51058011276468" lon="11.283124187184347"><ele>630.0</ele><time>2026-04-25T10:03:42.985Z</time></trkpt><trkpt lat="45.510559641777334" lon="11.282984712236743"><ele>630.0</ele><time>2026-04-25T10:03:43.985Z</time></trkpt><trkpt lat="45.51051256928835" lon="11.282857940176559"><ele>630.0</ele><time>2026-04-25T10:03:44.985Z</time></trkpt><trkpt lat="45.51046891309172" lon="11.282734509431862"><ele>629.6666666666666</ele><time>2026-04-25T10:03:45.985Z</time></trkpt><trkpt lat="45.51042812485178" lon="11.282616379836206"><ele>629.3333333333334</ele><time>2026-04-25T10:03:46.985Z</time></trkpt><trkpt lat="45.51039022455031" lon="11.282484773590193"><ele>629.0</ele><time>2026-04-25T10:03:47.985Z</time></trkpt><trkpt lat="45.510376925850736" lon="11.28235906504449"><ele>628.6666666666667</ele><time>2026-04-25T10:03:48.985Z</time></trkpt><trkpt lat="45.5103818132021" lon="11.282246348819122"><ele>628.3333333333334</ele><time>2026-04-25T10:03:49.985Z</time></trkpt><trkpt lat="45.51042060415482" lon="11.2821355445468"><ele>628.0</ele><time>2026-04-25T10:03:50.985Z</time></trkpt><trkpt lat="45.51049804982919" lon="11.282033507803702"><ele>629.0</ele><time>2026-04-25T10:03:51.985Z</time></trkpt><trkpt lat="45.510570857039184" lon="11.281922999025873"><ele>630.0</ele><time>2026-04-25T10:03:52.985Z</time></trkpt><trkpt lat="45.510638177950995" lon="11.28181984715785"><ele>631.0</ele><time>2026-04-25T10:03:53.985Z</time></trkpt><trkpt lat="45.510688837203205" lon="11.281718047502011"><ele>632.0</ele><time>2026-04-25T10:03:54.985Z</time></trkpt><trkpt lat="45.51071807472268" lon="11.281588661053306"><ele>633.0</ele><time>2026-04-25T10:03:55.985Z</time></trkpt><trkpt lat="45.51075471870935" lon="11.281486607300389"><ele>635.2</ele><time>2026-04-25T10:03:56.985Z</time></trkpt><trkpt lat="45.510789071966094" lon="11.281392881284564"><ele>637.4</ele><time>2026-04-25T10:03:57.985Z</time></trkpt><trkpt lat="45.510846452425135" lon="11.281256138775666"><ele>639.6</ele><time>2026-04-25T10:03:58.985Z</time></trkpt><trkpt lat="45.51092002397588" lon="11.281133456773036"><ele>641.8000000000001</ele><time>2026-04-25T10:03:59.985Z</time></trkpt><trkpt lat="45.51098354196306" lon="11.281063196016532"><ele>644.0</ele><time>2026-04-25T10:04:00.985Z</time></trkpt><trkpt lat="45.511066632061265" lon="11.280999772898259"><ele>644.0</ele><time>2026-04-25T10:04:01.985Z</time></trkpt><trkpt lat="45.511184573394864" lon="11.280915532639755"><ele>644.0</ele><time>2026-04-25T10:04:02.985Z</time></trkpt><trkpt lat="45.51129800815644" lon="11.28084933615089"><ele>644.0</ele><time>2026-04-25T10:04:03.985Z</time></trkpt><trkpt lat="45.51140933402026" lon="11.280780727887883"><ele>644.0</ele><time>2026-04-25T10:04:04.985Z</time></trkpt><trkpt lat="45.511526203289186" lon="11.280728762802585"><ele>640.75</ele><time>2026-04-25T10:04:05.985Z</time></trkpt><trkpt lat="45.5116449384258" lon="11.280722844975491"><ele>637.5</ele><time>2026-04-25T10:04:06.985Z</time></trkpt><trkpt lat="45.51175404832349" lon="11.280762034064463"><ele>634.25</ele><time>2026-04-25T10:04:07.985Z</time></trkpt><trkpt lat="45.51187976723947" lon="11.280800473461753"><ele>631.0</ele><time>2026-04-25T10:04:08.985Z</time></trkpt><trkpt lat="45.51198100233142" lon="11.280857435520781"><ele>631.0</ele><time>2026-04-25T10:04:09.985Z</time></trkpt><trkpt lat="45.51206847204198" lon="11.280915095303278"><ele>631.0</ele><time>2026-04-25T10:04:10.985Z</time></trkpt><trkpt lat="45.512167260139" lon="11.28094740740485"><ele>631.0</ele><time>2026-04-25T10:04:11.985Z</time></trkpt><trkpt lat="45.51227389440646" lon="11.280954959231225"><ele>631.0</ele><time>2026-04-25T10:04:12.985Z</time></trkpt><trkpt lat="45.512386837537974" lon="11.280952306916392"><ele>631.0</ele><time>2026-04-25T10:04:13.985Z</time></trkpt><trkpt lat="45.512501467992465" lon="11.280942290566223"><ele>630.8</ele><time>2026-04-25T10:04:14.985Z</time></trkpt><trkpt lat="45.51261154191448" lon="11.280928157365834"><ele>630.6</ele><time>2026-04-25T10:04:15.985Z</time></trkpt><trkpt lat="45.512720982568545" lon="11.28089984856913"><ele>630.4</ele><time>2026-04-25T10:04:16.985Z</time></trkpt><trkpt lat="45.512825401695736" lon="11.280865846734658"><ele>630.2</ele><time>2026-04-25T10:04:17.985Z</time></trkpt><trkpt lat="45.51293523619421" lon="11.280850644310883"><ele>630.0</ele><time>2026-04-25T10:04:18.985Z</time></trkpt><trkpt lat="45.51304200266484" lon="11.280801875402796"><ele>630.0</ele><time>2026-04-25T10:04:19.985Z</time></trkpt><trkpt lat="45.51314074268973" lon="11.280734936026526"><ele>630.0</ele><time>2026-04-25T10:04:20.985Z</time></trkpt><trkpt lat="45.5132259808824" lon="11.280646373373115"><ele>630.0</ele><time>2026-04-25T10:04:21.985Z</time></trkpt><trkpt lat="45.51331367037741" lon="11.280555922509764"><ele>630.0</ele><time>2026-04-25T10:04:22.985Z</time></trkpt><trkpt lat="45.51341591563679" lon="11.280490320334835"><ele>630.0</ele><time>2026-04-25T10:04:23.985Z</time></trkpt><trkpt lat="45.513534491673866" lon="11.280471883095963"><ele>630.0</ele><time>2026-04-25T10:04:24.985Z</time></trkpt><trkpt lat="45.513676918314516" lon="11.280489360476842"><ele>630.0</ele><time>2026-04-25T10:04:25.985Z</time></trkpt><trkpt lat="45.51382805024718" lon="11.280476418522458"><ele>630.0</ele><time>2026-04-25T10:04:26.985Z</time></trkpt><trkpt lat="45.513955394167205" lon="11.28046916251903"><ele>630.0</ele><time>2026-04-25T10:04:27.985Z</time></trkpt><trkpt lat="45.51406731353347" lon="11.280433259576643"><ele>630.0</ele><time>2026-04-25T10:04:28.985Z</time></trkpt><trkpt lat="45.514168396001544" lon="11.280378234569923"><ele>630.0</ele><time>2026-04-25T10:04:29.986Z</time></trkpt><trkpt lat="45.51426729715084" lon="11.28030917634662"><ele>630.0</ele><time>2026-04-25T10:04:30.985Z</time></trkpt><trkpt lat="45.514368120841645" lon="11.280228204883196"><ele>630.0</ele><time>2026-04-25T10:04:31.985Z</time></trkpt><trkpt lat="45.51445397124732" lon="11.280160875003995"><ele>630.0</ele><time>2026-04-25T10:04:32.986Z</time></trkpt><trkpt lat="45.51451856866301" lon="11.280132565999542"><ele>629.4</ele><time>2026-04-25T10:04:33.985Z</time></trkpt><trkpt lat="45.51458796946005" lon="11.280133270150044"><ele>628.8</ele><time>2026-04-25T10:04:34.985Z</time></trkpt><trkpt lat="45.514668830357216" lon="11.280200982427209"><ele>628.2</ele><time>2026-04-25T10:04:35.985Z</time></trkpt><trkpt lat="45.51478417061811" lon="11.280279913063447"><ele>627.6</ele><time>2026-04-25T10:04:36.985Z</time></trkpt><trkpt lat="45.51491184284182" lon="11.280366615941826"><ele>627.0</ele><time>2026-04-25T10:04:37.985Z</time></trkpt><trkpt lat="45.51501688369904" lon="11.280434336465197"><ele>627.0</ele><time>2026-04-25T10:04:38.985Z</time></trkpt><trkpt lat="45.51508718450684" lon="11.280479063312635"><ele>627.0</ele><time>2026-04-25T10:04:39.985Z</time></trkpt><trkpt lat="45.515154826568654" lon="11.280503086732342"><ele>627.0</ele><time>2026-04-25T10:04:40.985Z</time></trkpt><trkpt lat="45.515234604201304" lon="11.280530114893617"><ele>627.0</ele><time>2026-04-25T10:04:41.986Z</time></trkpt><trkpt lat="45.51532648189919" lon="11.280561618107152"><ele>627.0</ele><time>2026-04-25T10:04:42.985Z</time></trkpt><trkpt lat="45.5154151830631" lon="11.28057470529612"><ele>627.0</ele><time>2026-04-25T10:04:43.985Z</time></trkpt><trkpt lat="45.51548845315272" lon="11.28060065101976"><ele>624.5</ele><time>2026-04-25T10:04:44.985Z</time></trkpt><trkpt lat="45.51558952448742" lon="11.280586086314683"><ele>622.0</ele><time>2026-04-25T10:04:45.985Z</time></trkpt><trkpt lat="45.51571299537643" lon="11.280547943695739"><ele>619.5</ele><time>2026-04-25T10:04:46.985Z</time></trkpt><trkpt lat="45.515837744781216" lon="11.28050286093383"><ele>617.0</ele><time>2026-04-25T10:04:47.985Z</time></trkpt><trkpt lat="45.51599469430942" lon="11.28043673564047"><ele>617.0</ele><time>2026-04-25T10:04:48.985Z</time></trkpt><trkpt lat="45.516105401159635" lon="11.28038385540164"><ele>617.0</ele><time>2026-04-25T10:04:49.985Z</time></trkpt><trkpt lat="45.516183148791384" lon="11.28035130961007"><ele>617.0</ele><time>2026-04-25T10:04:50.985Z</time></trkpt><trkpt lat="45.5162982049535" lon="11.280352709907103"><ele>617.0</ele><time>2026-04-25T10:04:52.985Z</time></trkpt><trkpt lat="45.51642065257496" lon="11.280324189069454"><ele>617.0</ele><time>2026-04-25T10:04:54.985Z</time></trkpt><trkpt lat="45.51649222002431" lon="11.280316328890123"><ele>615.4</ele><time>2026-04-25T10:04:55.985Z</time></trkpt><trkpt lat="45.516567602631326" lon="11.280302671499692"><ele>613.8000000000001</ele><time>2026-04-25T10:04:56.985Z</time></trkpt><trkpt lat="45.51666783773027" lon="11.280306017116962"><ele>612.2</ele><time>2026-04-25T10:04:57.985Z</time></trkpt><trkpt lat="45.51677394558356" lon="11.280289892443768"><ele>610.6</ele><time>2026-04-25T10:04:58.985Z</time></trkpt><trkpt lat="45.51686268621054" lon="11.280308909333343"><ele>609.0</ele><time>2026-04-25T10:04:59.985Z</time></trkpt><trkpt lat="45.51702334443441" lon="11.28030766084998"><ele>605.3333333333334</ele><time>2026-04-25T10:05:00.985Z</time></trkpt><trkpt lat="45.517168939474686" lon="11.280296355815226"><ele>601.6666666666667</ele><time>2026-04-25T10:05:01.985Z</time></trkpt><trkpt lat="45.517328362308554" lon="11.280277256737651"><ele>598.0</ele><time>2026-04-25T10:05:02.985Z</time></trkpt><trkpt lat="45.517491753129775" lon="11.280219309684348"><ele>598.0</ele><time>2026-04-25T10:05:03.985Z</time></trkpt><trkpt lat="45.51763221484145" lon="11.28012466183378"><ele>598.0</ele><time>2026-04-25T10:05:04.985Z</time></trkpt><trkpt lat="45.51773907216818" lon="11.280037005466237"><ele>598.0</ele><time>2026-04-25T10:05:05.985Z</time></trkpt><trkpt lat="45.51786025596213" lon="11.27997267880022"><ele>598.0</ele><time>2026-04-25T10:05:06.985Z</time></trkpt><trkpt lat="45.51797915605353" lon="11.279898257393542"><ele>596.25</ele><time>2026-04-25T10:05:07.985Z</time></trkpt><trkpt lat="45.518097710910254" lon="11.279875409976793"><ele>594.5</ele><time>2026-04-25T10:05:08.985Z</time></trkpt><trkpt lat="45.51823215228659" lon="11.279881576488556"><ele>592.75</ele><time>2026-04-25T10:05:09.985Z</time></trkpt><trkpt lat="45.51835589302015" lon="11.27989507893522"><ele>591.0</ele><time>2026-04-25T10:05:10.985Z</time></trkpt><trkpt lat="45.51848778499774" lon="11.279909277481382"><ele>591.0</ele><time>2026-04-25T10:05:11.985Z</time></trkpt><trkpt lat="45.5185932907562" lon="11.27992506251945"><ele>591.0</ele><time>2026-04-25T10:05:12.985Z</time></trkpt><trkpt lat="45.51869244339392" lon="11.279964929093875"><ele>591.0</ele><time>2026-04-25T10:05:13.985Z</time></trkpt><trkpt lat="45.51878530829153" lon="11.280017936738737"><ele>591.0</ele><time>2026-04-25T10:05:14.985Z</time></trkpt><trkpt lat="45.518883272013646" lon="11.280077237858182"><ele>591.0</ele><time>2026-04-25T10:05:15.985Z</time></trkpt><trkpt lat="45.518957902752035" lon="11.280154281426672"><ele>590.6</ele><time>2026-04-25T10:05:16.985Z</time></trkpt><trkpt lat="45.51904175217661" lon="11.280238450169584"><ele>590.2</ele><time>2026-04-25T10:05:17.985Z</time></trkpt><trkpt lat="45.51913694698826" lon="11.280328362214888"><ele>589.8</ele><time>2026-04-25T10:05:18.985Z</time></trkpt><trkpt lat="45.51923295969357" lon="11.280349546124668"><ele>589.4</ele><time>2026-04-25T10:05:19.985Z</time></trkpt><trkpt lat="45.51932490348767" lon="11.280357495548245"><ele>589.0</ele><time>2026-04-25T10:05:20.985Z</time></trkpt><trkpt lat="45.51941911542068" lon="11.280353692165711"><ele>589.0</ele><time>2026-04-25T10:05:21.985Z</time></trkpt><trkpt lat="45.519519258074595" lon="11.280339737281711"><ele>589.0</ele><time>2026-04-25T10:05:22.985Z</time></trkpt><trkpt lat="45.5196087859655" lon="11.280324656783792"><ele>589.0</ele><time>2026-04-25T10:05:23.985Z</time></trkpt><trkpt lat="45.51970162450716" lon="11.280323164519212"><ele>589.0</ele><time>2026-04-25T10:05:24.985Z</time></trkpt><trkpt lat="45.51977679762134" lon="11.280341511437475"><ele>589.0</ele><time>2026-04-25T10:05:25.985Z</time></trkpt><trkpt lat="45.51990185144085" lon="11.280431037489437"><ele>587.6</ele><time>2026-04-25T10:05:27.985Z</time></trkpt><trkpt lat="45.51998304419231" lon="11.280428080019366"><ele>586.2</ele><time>2026-04-25T10:05:28.985Z</time></trkpt><trkpt lat="45.520050128723234" lon="11.280389864349845"><ele>584.8000000000001</ele><time>2026-04-25T10:05:29.985Z</time></trkpt><trkpt lat="45.52010884366209" lon="11.280312699142627"><ele>583.4</ele><time>2026-04-25T10:05:30.985Z</time></trkpt><trkpt lat="45.52017875980875" lon="11.28012434667526"><ele>582.0</ele><time>2026-04-25T10:05:32.985Z</time></trkpt><trkpt lat="45.52020980855732" lon="11.280035355957212"><ele>582.0</ele><time>2026-04-25T10:05:33.985Z</time></trkpt><trkpt lat="45.52024348957552" lon="11.279951646808025"><ele>582.0</ele><time>2026-04-25T10:05:34.985Z</time></trkpt><trkpt lat="45.520323044665325" lon="11.279903820580662"><ele>582.0</ele><time>2026-04-25T10:05:36.985Z</time></trkpt><trkpt lat="45.52043926340431" lon="11.2798998478999"><ele>582.0</ele><time>2026-04-25T10:05:38.985Z</time></trkpt><trkpt lat="45.520493764432146" lon="11.279845838738739"><ele>582.0</ele><time>2026-04-25T10:05:39.985Z</time></trkpt><trkpt lat="45.520623528803824" lon="11.27985835273334"><ele>579.6</ele><time>2026-04-25T10:05:41.985Z</time></trkpt><trkpt lat="45.520695659703115" lon="11.279846325382684"><ele>577.2</ele><time>2026-04-25T10:05:42.985Z</time></trkpt><trkpt lat="45.520789310518836" lon="11.279844343279946"><ele>574.8</ele><time>2026-04-25T10:05:43.985Z</time></trkpt><trkpt lat="45.520890106951455" lon="11.279803146358546"><ele>572.4</ele><time>2026-04-25T10:05:44.985Z</time></trkpt><trkpt lat="45.52097870807029" lon="11.279784935701102"><ele>570.0</ele><time>2026-04-25T10:05:45.985Z</time></trkpt><trkpt lat="45.521081096665235" lon="11.279765539411173"><ele>568.0</ele><time>2026-04-25T10:05:46.985Z</time></trkpt><trkpt lat="45.521187620421564" lon="11.279748752948661"><ele>566.0</ele><time>2026-04-25T10:05:47.985Z</time></trkpt><trkpt lat="45.5212759211864" lon="11.279733769374975"><ele>564.0</ele><time>2026-04-25T10:05:48.985Z</time></trkpt><trkpt lat="45.52135333745293" lon="11.27976638353027"><ele>562.0</ele><time>2026-04-25T10:05:49.985Z</time></trkpt><trkpt lat="45.52142588771398" lon="11.279842898225008"><ele>560.0</ele><time>2026-04-25T10:05:50.985Z</time></trkpt><trkpt lat="45.52153443238646" lon="11.27991000581403"><ele>559.3333333333333</ele><time>2026-04-25T10:05:52.985Z</time></trkpt><trkpt lat="45.521646317509074" lon="11.279884681346784"><ele>558.6666666666666</ele><time>2026-04-25T10:05:54.985Z</time></trkpt><trkpt lat="45.52174159856057" lon="11.279768076153452"><ele>558.0</ele><time>2026-04-25T10:05:56.985Z</time></trkpt><trkpt lat="45.52177424145213" lon="11.279682396765795"><ele>557.3333333333334</ele><time>2026-04-25T10:05:57.985Z</time></trkpt><trkpt lat="45.5217973756533" lon="11.279595608094432"><ele>556.6666666666667</ele><time>2026-04-25T10:05:58.985Z</time></trkpt><trkpt lat="45.52183251486268" lon="11.279508570671059"><ele>556.0</ele><time>2026-04-25T10:05:59.985Z</time></trkpt><trkpt lat="45.521884418268776" lon="11.279428193612674"><ele>555.8</ele><time>2026-04-25T10:06:00.985Z</time></trkpt><trkpt lat="45.52197384412797" lon="11.279376885648118"><ele>555.6</ele><time>2026-04-25T10:06:01.985Z</time></trkpt><trkpt lat="45.522085317461496" lon="11.279330732336813"><ele>555.4</ele><time>2026-04-25T10:06:02.985Z</time></trkpt><trkpt lat="45.52216481014279" lon="11.27927719924604"><ele>555.2</ele><time>2026-04-25T10:06:03.985Z</time></trkpt><trkpt lat="45.52222361217214" lon="11.279199519465342"><ele>555.0</ele><time>2026-04-25T10:06:04.985Z</time></trkpt><trkpt lat="45.52226630295984" lon="11.279111613424694"><ele>553.0</ele><time>2026-04-25T10:06:05.985Z</time></trkpt><trkpt lat="45.52229610361414" lon="11.278994587407706"><ele>551.0</ele><time>2026-04-25T10:06:06.985Z</time></trkpt><trkpt lat="45.52231446471696" lon="11.278846400112204"><ele>549.0</ele><time>2026-04-25T10:06:07.985Z</time></trkpt><trkpt lat="45.522335019260645" lon="11.278667708770277"><ele>547.0</ele><time>2026-04-25T10:06:08.985Z</time></trkpt><trkpt lat="45.52238365413671" lon="11.278488819296681"><ele>547.0</ele><time>2026-04-25T10:06:09.985Z</time></trkpt><trkpt lat="45.52243377308428" lon="11.278319521672092"><ele>547.0</ele><time>2026-04-25T10:06:10.985Z</time></trkpt><trkpt lat="45.52248083721617" lon="11.278171359069283"><ele>547.0</ele><time>2026-04-25T10:06:11.985Z</time></trkpt><trkpt lat="45.52250276710988" lon="11.277999352681933"><ele>547.0</ele><time>2026-04-25T10:06:12.985Z</time></trkpt><trkpt lat="45.5225107339056" lon="11.277797058507403"><ele>546.25</ele><time>2026-04-25T10:06:13.985Z</time></trkpt><trkpt lat="45.52251474717827" lon="11.27757813663852"><ele>545.5</ele><time>2026-04-25T10:06:14.985Z</time></trkpt><trkpt lat="45.52251258945157" lon="11.277372318801135"><ele>544.75</ele><time>2026-04-25T10:06:15.985Z</time></trkpt><trkpt lat="45.52249957240361" lon="11.277175961217349"><ele>544.0</ele><time>2026-04-25T10:06:16.985Z</time></trkpt><trkpt lat="45.522487015164515" lon="11.276992920474482"><ele>544.0</ele><time>2026-04-25T10:06:17.984Z</time></trkpt><trkpt lat="45.52246739496384" lon="11.2768207644453"><ele>544.0</ele><time>2026-04-25T10:06:18.984Z</time></trkpt><trkpt lat="45.52244987674998" lon="11.276661156339328"><ele>544.0</ele><time>2026-04-25T10:06:19.984Z</time></trkpt><trkpt lat="45.52246672340459" lon="11.276518315106543"><ele>544.0</ele><time>2026-04-25T10:06:20.984Z</time></trkpt><trkpt lat="45.522522994743746" lon="11.276364562034564"><ele>542.5</ele><time>2026-04-25T10:06:21.984Z</time></trkpt><trkpt lat="45.522600788877575" lon="11.276184554731813"><ele>541.0</ele><time>2026-04-25T10:06:22.984Z</time></trkpt><trkpt lat="45.52267156124203" lon="11.276016931687455"><ele>539.5</ele><time>2026-04-25T10:06:23.984Z</time></trkpt><trkpt lat="45.52272216505773" lon="11.275882525650214"><ele>538.0</ele><time>2026-04-25T10:06:24.984Z</time></trkpt><trkpt lat="45.52275220419749" lon="11.275789515646071"><ele>538.0</ele><time>2026-04-25T10:06:25.984Z</time></trkpt><trkpt lat="45.52274632515737" lon="11.275661777920103"><ele>538.0</ele><time>2026-04-25T10:06:27.984Z</time></trkpt><trkpt lat="45.52265115915325" lon="11.275534897238273"><ele>538.0</ele><time>2026-04-25T10:06:29.984Z</time></trkpt><trkpt lat="45.5225754823313" lon="11.27549408995695"><ele>538.0</ele><time>2026-04-25T10:06:30.984Z</time></trkpt><trkpt lat="45.52251351569468" lon="11.2754519606436"><ele>538.0</ele><time>2026-04-25T10:06:31.984Z</time></trkpt><trkpt lat="45.522471046571496" lon="11.275365321292256"><ele>538.0</ele><time>2026-04-25T10:06:33.984Z</time></trkpt><trkpt lat="45.52252273215026" lon="11.275303463912905"><ele>534.75</ele><time>2026-04-25T10:06:35.985Z</time></trkpt><trkpt lat="45.52265189771045" lon="11.275298032614057"><ele>531.5</ele><time>2026-04-25T10:06:37.984Z</time></trkpt><trkpt lat="45.52274731525757" lon="11.275341539908815"><ele>528.25</ele><time>2026-04-25T10:06:38.985Z</time></trkpt><trkpt lat="45.522859700378916" lon="11.275392894848354"><ele>525.0</ele><time>2026-04-25T10:06:39.985Z</time></trkpt><trkpt lat="45.52296743269756" lon="11.27544505989454"><ele>524.2</ele><time>2026-04-25T10:06:40.985Z</time></trkpt><trkpt lat="45.52307148305733" lon="11.275443016094483"><ele>523.4</ele><time>2026-04-25T10:06:41.985Z</time></trkpt><trkpt lat="45.523160700735566" lon="11.275412655754117"><ele>522.6</ele><time>2026-04-25T10:06:42.984Z</time></trkpt><trkpt lat="45.523269289437636" lon="11.275341474234203"><ele>521.8</ele><time>2026-04-25T10:06:43.984Z</time></trkpt><trkpt lat="45.52337687680996" lon="11.27526919597226"><ele>521.0</ele><time>2026-04-25T10:06:44.985Z</time></trkpt><trkpt lat="45.52347502567953" lon="11.275209667893337"><ele>521.0</ele><time>2026-04-25T10:06:45.985Z</time></trkpt><trkpt lat="45.52356378278145" lon="11.275148084437923"><ele>521.0</ele><time>2026-04-25T10:06:46.985Z</time></trkpt><trkpt lat="45.52364630170482" lon="11.275079309009124"><ele>521.0</ele><time>2026-04-25T10:06:47.985Z</time></trkpt><trkpt lat="45.523720072091166" lon="11.27498838549272"><ele>521.0</ele><time>2026-04-25T10:06:48.985Z</time></trkpt><trkpt lat="45.523801700109324" lon="11.274881823232414"><ele>521.0</ele><time>2026-04-25T10:06:49.985Z</time></trkpt><trkpt lat="45.523886590058915" lon="11.274746375450091"><ele>517.5</ele><time>2026-04-25T10:06:50.985Z</time></trkpt><trkpt lat="45.52396824028934" lon="11.274604637888055"><ele>514.0</ele><time>2026-04-25T10:06:51.985Z</time></trkpt><trkpt lat="45.52405039797251" lon="11.274449953684147"><ele>510.5</ele><time>2026-04-25T10:06:52.985Z</time></trkpt><trkpt lat="45.524126338014774" lon="11.274306086879847"><ele>507.0</ele><time>2026-04-25T10:06:53.985Z</time></trkpt><trkpt lat="45.5241948737386" lon="11.274188694853256"><ele>507.0</ele><time>2026-04-25T10:06:54.985Z</time></trkpt><trkpt lat="45.52426867135753" lon="11.274057963654608"><ele>507.00000000000006</ele><time>2026-04-25T10:06:55.985Z</time></trkpt><trkpt lat="45.524352765508304" lon="11.27396837749946"><ele>507.00000000000006</ele><time>2026-04-25T10:06:56.985Z</time></trkpt><trkpt lat="45.52442900700869" lon="11.273868040487532"><ele>507.0</ele><time>2026-04-25T10:06:57.985Z</time></trkpt><trkpt lat="45.52452729154997" lon="11.273792183151805"><ele>507.0</ele><time>2026-04-25T10:06:58.985Z</time></trkpt><trkpt lat="45.52460556165958" lon="11.273734996498025"><ele>505.6666666666667</ele><time>2026-04-25T10:06:59.985Z</time></trkpt><trkpt lat="45.52468633463902" lon="11.273666281289461"><ele>504.33333333333337</ele><time>2026-04-25T10:07:00.985Z</time></trkpt><trkpt lat="45.52476475144692" lon="11.273593038508604"><ele>503.0</ele><time>2026-04-25T10:07:01.985Z</time></trkpt><trkpt lat="45.52482614615438" lon="11.273526974116928"><ele>501.6666666666667</ele><time>2026-04-25T10:07:02.985Z</time></trkpt><trkpt lat="45.524916459539" lon="11.273433659357538"><ele>500.33333333333337</ele><time>2026-04-25T10:07:04.985Z</time></trkpt><trkpt lat="45.52496766940309" lon="11.273378246451559"><ele>499.0</ele><time>2026-04-25T10:07:07.985Z</time></trkpt><trkpt lat="45.52506881456691" lon="11.273341274988162"><ele>499.00000000000006</ele><time>2026-04-25T10:07:10.985Z</time></trkpt><trkpt lat="45.52515202963263" lon="11.273241554197277"><ele>499.0</ele><time>2026-04-25T10:07:12.985Z</time></trkpt><trkpt lat="45.52520695939029" lon="11.273161220141455"><ele>499.0</ele><time>2026-04-25T10:07:14.985Z</time></trkpt><trkpt lat="45.52521208895801" lon="11.273070404265589"><ele>499.0</ele><time>2026-04-25T10:07:16.985Z</time></trkpt><trkpt lat="45.52519124098597" lon="11.27297864614389"><ele>499.00000000000006</ele><time>2026-04-25T10:07:18.985Z</time></trkpt><trkpt lat="45.52518955180625" lon="11.272872001607196"><ele>499.0</ele><time>2026-04-25T10:07:19.985Z</time></trkpt><trkpt lat="45.525219698270625" lon="11.272746225717338"><ele>497.2</ele><time>2026-04-25T10:07:20.985Z</time></trkpt><trkpt lat="45.52524845093476" lon="11.272614253155751"><ele>495.4</ele><time>2026-04-25T10:07:21.985Z</time></trkpt><trkpt lat="45.52527725955848" lon="11.272472644818508"><ele>493.6</ele><time>2026-04-25T10:07:22.985Z</time></trkpt><trkpt lat="45.52530380227972" lon="11.272321027631165"><ele>491.8</ele><time>2026-04-25T10:07:23.985Z</time></trkpt><trkpt lat="45.52531384166224" lon="11.272161096474813"><ele>490.0</ele><time>2026-04-25T10:07:24.985Z</time></trkpt><trkpt lat="45.5253394220197" lon="11.27204160457413"><ele>490.33333333333337</ele><time>2026-04-25T10:07:25.985Z</time></trkpt><trkpt lat="45.52535165902979" lon="11.271931112302143"><ele>490.6666666666667</ele><time>2026-04-25T10:07:26.985Z</time></trkpt><trkpt lat="45.525377574410356" lon="11.27183577539145"><ele>491.0</ele><time>2026-04-25T10:07:27.985Z</time></trkpt><trkpt lat="45.52540917987007" lon="11.271719792559516"><ele>491.33333333333337</ele><time>2026-04-25T10:07:29.985Z</time></trkpt><trkpt lat="45.5254570427313" lon="11.271606205548824"><ele>491.6666666666667</ele><time>2026-04-25T10:07:36.985Z</time></trkpt><trkpt lat="45.52552557639845" lon="11.271470921267312"><ele>492.0</ele><time>2026-04-25T10:07:38.985Z</time></trkpt><trkpt lat="45.52557547647612" lon="11.271369977762184"><ele>489.0</ele><time>2026-04-25T10:07:39.985Z</time></trkpt><trkpt lat="45.525620083821686" lon="11.27125323013458"><ele>486.00000000000006</ele><time>2026-04-25T10:07:40.985Z</time></trkpt><trkpt lat="45.5256694203752" lon="11.271126026049954"><ele>483.00000000000006</ele><time>2026-04-25T10:07:41.984Z</time></trkpt><trkpt lat="45.52572416312062" lon="11.270981972238843"><ele>480.0</ele><time>2026-04-25T10:07:42.984Z</time></trkpt><trkpt lat="45.52577398585851" lon="11.270832512898624"><ele>477.0</ele><time>2026-04-25T10:07:43.984Z</time></trkpt><trkpt lat="45.52581649265741" lon="11.270652365904821"><ele>473.75</ele><time>2026-04-25T10:07:44.984Z</time></trkpt><trkpt lat="45.52586226915028" lon="11.270486357576289"><ele>470.5</ele><time>2026-04-25T10:07:45.984Z</time></trkpt><trkpt lat="45.52590667980222" lon="11.270292629668269"><ele>467.25</ele><time>2026-04-25T10:07:46.984Z</time></trkpt><trkpt lat="45.52595964950229" lon="11.270105706204204"><ele>464.0</ele><time>2026-04-25T10:07:47.984Z</time></trkpt><trkpt lat="45.52599539940479" lon="11.269923900838764"><ele>461.75</ele><time>2026-04-25T10:07:48.984Z</time></trkpt><trkpt lat="45.52603636230635" lon="11.269757210411013"><ele>459.5</ele><time>2026-04-25T10:07:49.984Z</time></trkpt><trkpt lat="45.526070033535696" lon="11.269553326641345"><ele>457.25</ele><time>2026-04-25T10:07:50.984Z</time></trkpt><trkpt lat="45.52608989165466" lon="11.269366634478878"><ele>455.0</ele><time>2026-04-25T10:07:51.984Z</time></trkpt><trkpt lat="45.52608239270654" lon="11.269178888467867"><ele>455.0</ele><time>2026-04-25T10:07:52.984Z</time></trkpt><trkpt lat="45.52608229890326" lon="11.268994451143243"><ele>455.0</ele><time>2026-04-25T10:07:53.984Z</time></trkpt><trkpt lat="45.52609344815887" lon="11.268833548300165"><ele>455.0</ele><time>2026-04-25T10:07:54.984Z</time></trkpt><trkpt lat="45.52612465882459" lon="11.268663538281407"><ele>455.0</ele><time>2026-04-25T10:07:55.984Z</time></trkpt><trkpt lat="45.526154868061504" lon="11.268491102900894"><ele>455.6</ele><time>2026-04-25T10:07:56.984Z</time></trkpt><trkpt lat="45.52617982397869" lon="11.268319769687537"><ele>456.2</ele><time>2026-04-25T10:07:57.984Z</time></trkpt><trkpt lat="45.526207729263895" lon="11.268201719026427"><ele>456.79999999999995</ele><time>2026-04-25T10:07:58.984Z</time></trkpt><trkpt lat="45.52621574638576" lon="11.268081509800759"><ele>457.4</ele><time>2026-04-25T10:07:59.984Z</time></trkpt><trkpt lat="45.52622423633509" lon="11.267967041450468"><ele>458.0</ele><time>2026-04-25T10:08:00.984Z</time></trkpt><trkpt lat="45.526233069817614" lon="11.267843132191805"><ele>458.0</ele><time>2026-04-25T10:08:01.984Z</time></trkpt><trkpt lat="45.52625771621758" lon="11.267734764491513"><ele>457.99999999999994</ele><time>2026-04-25T10:08:02.984Z</time></trkpt><trkpt lat="45.526283238639806" lon="11.267613786654875"><ele>457.99999999999994</ele><time>2026-04-25T10:08:03.984Z</time></trkpt><trkpt lat="45.52633379636097" lon="11.267458127930793"><ele>458.0</ele><time>2026-04-25T10:08:04.984Z</time></trkpt><trkpt lat="45.5263954559961" lon="11.267306430837763"><ele>458.0</ele><time>2026-04-25T10:08:05.984Z</time></trkpt><trkpt lat="45.526450225533495" lon="11.267165477309748"><ele>457.2</ele><time>2026-04-25T10:08:06.984Z</time></trkpt><trkpt lat="45.52651415915421" lon="11.267048087321914"><ele>456.4</ele><time>2026-04-25T10:08:07.984Z</time></trkpt><trkpt lat="45.52660619307136" lon="11.266974199165274"><ele>455.59999999999997</ele><time>2026-04-25T10:08:08.984Z</time></trkpt><trkpt lat="45.52670337554164" lon="11.266911405269767"><ele>454.79999999999995</ele><time>2026-04-25T10:08:09.984Z</time></trkpt><trkpt lat="45.52680368091292" lon="11.266862582922887"><ele>454.0</ele><time>2026-04-25T10:08:10.984Z</time></trkpt><trkpt lat="45.526899793156765" lon="11.266838272040701"><ele>454.00000000000006</ele><time>2026-04-25T10:08:11.984Z</time></trkpt><trkpt lat="45.52700308758482" lon="11.266835330855342"><ele>454.0</ele><time>2026-04-25T10:08:12.984Z</time></trkpt><trkpt lat="45.52709626186383" lon="11.26681383610351"><ele>454.0</ele><time>2026-04-25T10:08:13.984Z</time></trkpt><trkpt lat="45.52718148754339" lon="11.266781919996024"><ele>454.0</ele><time>2026-04-25T10:08:14.984Z</time></trkpt><trkpt lat="45.52726480729296" lon="11.266783214142217"><ele>454.00000000000006</ele><time>2026-04-25T10:08:15.984Z</time></trkpt><trkpt lat="45.52734008049801" lon="11.266792008610523"><ele>454.0</ele><time>2026-04-25T10:08:16.984Z</time></trkpt><trkpt lat="45.52742113609542" lon="11.266828432808753"><ele>455.1666666666667</ele><time>2026-04-25T10:08:17.984Z</time></trkpt><trkpt lat="45.52748404130667" lon="11.266910985482712"><ele>456.33333333333337</ele><time>2026-04-25T10:08:18.984Z</time></trkpt><trkpt lat="45.52753431352898" lon="11.267005232944479"><ele>457.5</ele><time>2026-04-25T10:08:19.984Z</time></trkpt><trkpt lat="45.52757351592351" lon="11.267088307386784"><ele>458.66666666666663</ele><time>2026-04-25T10:08:20.984Z</time></trkpt><trkpt lat="45.52763354873798" lon="11.267156984159415"><ele>459.8333333333333</ele><time>2026-04-25T10:08:21.984Z</time></trkpt><trkpt lat="45.5277038082231" lon="11.267202808948314"><ele>461.0</ele><time>2026-04-25T10:08:22.984Z</time></trkpt><trkpt lat="45.52777400868867" lon="11.267227183553006"><ele>461.0</ele><time>2026-04-25T10:08:23.984Z</time></trkpt><trkpt lat="45.527839247137265" lon="11.267220159007353"><ele>461.0</ele><time>2026-04-25T10:08:24.984Z</time></trkpt><trkpt lat="45.52794580137551" lon="11.267169444303676"><ele>461.0</ele><time>2026-04-25T10:08:26.984Z</time></trkpt><trkpt lat="45.52804718795557" lon="11.267084023423982"><ele>461.0</ele><time>2026-04-25T10:08:28.984Z</time></trkpt><trkpt lat="45.52815337235997" lon="11.267001731643509"><ele>461.0</ele><time>2026-04-25T10:08:30.984Z</time></trkpt><trkpt lat="45.52826175681856" lon="11.26693666372108"><ele>462.16666666666663</ele><time>2026-04-25T10:08:32.984Z</time></trkpt><trkpt lat="45.52831642381977" lon="11.266889448716052"><ele>463.3333333333333</ele><time>2026-04-25T10:08:33.984Z</time></trkpt><trkpt lat="45.52838276694757" lon="11.266814855051642"><ele>464.5</ele><time>2026-04-25T10:08:35.984Z</time></trkpt><trkpt lat="45.52846463723915" lon="11.266717662059039"><ele>465.66666666666663</ele><time>2026-04-25T10:08:37.984Z</time></trkpt><trkpt lat="45.52854241458764" lon="11.266657688346731"><ele>466.8333333333333</ele><time>2026-04-25T10:08:39.984Z</time></trkpt><trkpt lat="45.52862169625383" lon="11.266742971606053"><ele>468.0</ele><time>2026-04-25T10:08:43.985Z</time></trkpt><trkpt lat="45.52875506031306" lon="11.266736322632593"><ele>469.0</ele><time>2026-04-25T10:08:45.984Z</time></trkpt><trkpt lat="45.528831976477385" lon="11.266693745540167"><ele>469.99999999999994</ele><time>2026-04-25T10:08:46.984Z</time></trkpt><trkpt lat="45.52891491836623" lon="11.2666592398463"><ele>470.99999999999994</ele><time>2026-04-25T10:08:47.985Z</time></trkpt><trkpt lat="45.52899684052149" lon="11.2666315223158"><ele>472.0</ele><time>2026-04-25T10:08:48.984Z</time></trkpt><trkpt lat="45.52908890223322" lon="11.266596833613178"><ele>473.0</ele><time>2026-04-25T10:08:49.984Z</time></trkpt><trkpt lat="45.52919041919554" lon="11.266573600965646"><ele>472.99999999999994</ele><time>2026-04-25T10:08:50.984Z</time></trkpt><trkpt lat="45.52928817992356" lon="11.2665382763909"><ele>473.0</ele><time>2026-04-25T10:08:51.985Z</time></trkpt><trkpt lat="45.52938137094835" lon="11.266518387066505"><ele>473.0</ele><time>2026-04-25T10:08:52.985Z</time></trkpt><trkpt lat="45.52946437790752" lon="11.266519322858525"><ele>473.0</ele><time>2026-04-25T10:08:53.985Z</time></trkpt><trkpt lat="45.529537619974064" lon="11.266538711262108"><ele>472.99999999999994</ele><time>2026-04-25T10:08:54.985Z</time></trkpt><trkpt lat="45.52960480206924" lon="11.266581699152848"><ele>473.0</ele><time>2026-04-25T10:08:55.985Z</time></trkpt><trkpt lat="45.52965053564794" lon="11.266644905764052"><ele>474.0</ele><time>2026-04-25T10:08:56.985Z</time></trkpt><trkpt lat="45.52968864547508" lon="11.266726945755341"><ele>474.99999999999994</ele><time>2026-04-25T10:08:57.985Z</time></trkpt><trkpt lat="45.52972457225256" lon="11.266823473621821"><ele>475.99999999999994</ele><time>2026-04-25T10:08:58.985Z</time></trkpt><trkpt lat="45.52975884539603" lon="11.266949537032675"><ele>477.0</ele><time>2026-04-25T10:08:59.985Z</time></trkpt><trkpt lat="45.52979305117615" lon="11.267112831725688"><ele>478.0</ele><time>2026-04-25T10:09:00.985Z</time></trkpt><trkpt lat="45.52983264154943" lon="11.267255890714253"><ele>479.83333333333337</ele><time>2026-04-25T10:09:01.985Z</time></trkpt><trkpt lat="45.52987732841862" lon="11.267351274283522"><ele>481.6666666666667</ele><time>2026-04-25T10:09:02.985Z</time></trkpt><trkpt lat="45.52992916947733" lon="11.267419888283216"><ele>483.5</ele><time>2026-04-25T10:09:03.985Z</time></trkpt><trkpt lat="45.530034164769305" lon="11.267423319436102"><ele>485.33333333333337</ele><time>2026-04-25T10:09:05.985Z</time></trkpt><trkpt lat="45.530101827567094" lon="11.267404438122238"><ele>487.1666666666667</ele><time>2026-04-25T10:09:06.985Z</time></trkpt><trkpt lat="45.530205983930024" lon="11.267375494559829"><ele>489.0</ele><time>2026-04-25T10:09:07.985Z</time></trkpt><trkpt lat="45.530319485478756" lon="11.267351510533732"><ele>489.3333333333333</ele><time>2026-04-25T10:09:08.985Z</time></trkpt><trkpt lat="45.530403632905816" lon="11.267285923824414"><ele>489.66666666666663</ele><time>2026-04-25T10:09:09.985Z</time></trkpt><trkpt lat="45.53048268861331" lon="11.267242016841003"><ele>490.0</ele><time>2026-04-25T10:09:10.985Z</time></trkpt><trkpt lat="45.530559484821836" lon="11.267201095974226"><ele>490.3333333333333</ele><time>2026-04-25T10:09:11.985Z</time></trkpt><trkpt lat="45.53063365922858" lon="11.267172448468294"><ele>490.66666666666663</ele><time>2026-04-25T10:09:12.985Z</time></trkpt><trkpt lat="45.53071157456365" lon="11.267119423436208"><ele>491.0</ele><time>2026-04-25T10:09:13.985Z</time></trkpt><trkpt lat="45.530799666664535" lon="11.26707671881951"><ele>490.99999999999994</ele><time>2026-04-25T10:09:14.985Z</time></trkpt><trkpt lat="45.53088908861191" lon="11.267041358468173"><ele>491.0</ele><time>2026-04-25T10:09:15.985Z</time></trkpt><trkpt lat="45.53095624029724" lon="11.267029642841516"><ele>491.0</ele><time>2026-04-25T10:09:16.985Z</time></trkpt><trkpt lat="45.53103638028439" lon="11.267007114589813"><ele>491.0</ele><time>2026-04-25T10:09:17.985Z</time></trkpt><trkpt lat="45.531117610726234" lon="11.267007985528222"><ele>490.99999999999994</ele><time>2026-04-25T10:09:18.985Z</time></trkpt><trkpt lat="45.531202572477675" lon="11.267013468580842"><ele>491.0</ele><time>2026-04-25T10:09:19.985Z</time></trkpt><trkpt lat="45.53128330018075" lon="11.267014603201781"><ele>492.99999999999994</ele><time>2026-04-25T10:09:20.985Z</time></trkpt><trkpt lat="45.53134846323979" lon="11.266985916382179"><ele>495.0</ele><time>2026-04-25T10:09:21.985Z</time></trkpt><trkpt lat="45.53140582977598" lon="11.266927803533466"><ele>497.0</ele><time>2026-04-25T10:09:22.985Z</time></trkpt><trkpt lat="45.531465463159854" lon="11.266835971206243"><ele>499.0</ele><time>2026-04-25T10:09:24.985Z</time></trkpt><trkpt lat="45.531532159502504" lon="11.266763339991174"><ele>500.99999999999994</ele><time>2026-04-25T10:09:25.985Z</time></trkpt><trkpt lat="45.53163300115856" lon="11.266663608375287"><ele>503.0</ele><time>2026-04-25T10:09:26.985Z</time></trkpt><trkpt lat="45.531743789427594" lon="11.266538625748941"><ele>502.2</ele><time>2026-04-25T10:09:27.985Z</time></trkpt><trkpt lat="45.53184257899709" lon="11.266435181088582"><ele>501.4</ele><time>2026-04-25T10:09:28.985Z</time></trkpt><trkpt lat="45.531932307414166" lon="11.266345276940495"><ele>500.59999999999997</ele><time>2026-04-25T10:09:29.985Z</time></trkpt><trkpt lat="45.53201669877221" lon="11.266240357569943"><ele>499.79999999999995</ele><time>2026-04-25T10:09:30.985Z</time></trkpt><trkpt lat="45.53209337208159" lon="11.266157913090389"><ele>499.0</ele><time>2026-04-25T10:09:31.985Z</time></trkpt><trkpt lat="45.532181298723785" lon="11.266101668704712"><ele>499.0</ele><time>2026-04-25T10:09:32.985Z</time></trkpt><trkpt lat="45.53225966720098" lon="11.266012261532351"><ele>499.0</ele><time>2026-04-25T10:09:33.985Z</time></trkpt><trkpt lat="45.53234191793226" lon="11.265921409192947"><ele>499.0</ele><time>2026-04-25T10:09:34.985Z</time></trkpt><trkpt lat="45.53244483352276" lon="11.265801242821725"><ele>499.0</ele><time>2026-04-25T10:09:35.985Z</time></trkpt><trkpt lat="45.53252374702999" lon="11.265701243845276"><ele>499.0</ele><time>2026-04-25T10:09:36.985Z</time></trkpt><trkpt lat="45.532611077966" lon="11.265600065517193"><ele>498.0</ele><time>2026-04-25T10:09:37.985Z</time></trkpt><trkpt lat="45.53268871284933" lon="11.265510082444377"><ele>497.0</ele><time>2026-04-25T10:09:38.985Z</time></trkpt><trkpt lat="45.532776235817785" lon="11.26541390139411"><ele>496.0</ele><time>2026-04-25T10:09:39.985Z</time></trkpt><trkpt lat="45.53286815134752" lon="11.265321834611782"><ele>495.0</ele><time>2026-04-25T10:09:40.985Z</time></trkpt><trkpt lat="45.53293750598316" lon="11.26523439350107"><ele>494.0</ele><time>2026-04-25T10:09:41.985Z</time></trkpt><trkpt lat="45.53299846645162" lon="11.265154629645652"><ele>493.79999999999995</ele><time>2026-04-25T10:09:42.985Z</time></trkpt><trkpt lat="45.53305088566383" lon="11.265064172151469"><ele>493.59999999999997</ele><time>2026-04-25T10:09:43.985Z</time></trkpt><trkpt lat="45.533095433461526" lon="11.264954661708014"><ele>493.4</ele><time>2026-04-25T10:09:44.984Z</time></trkpt><trkpt lat="45.53314968863122" lon="11.264837660028295"><ele>493.2</ele><time>2026-04-25T10:09:45.984Z</time></trkpt><trkpt lat="45.533206097114224" lon="11.2647196781806"><ele>493.0</ele><time>2026-04-25T10:09:46.984Z</time></trkpt><trkpt lat="45.53325257656702" lon="11.264618104193042"><ele>493.79999999999995</ele><time>2026-04-25T10:09:47.984Z</time></trkpt><trkpt lat="45.53327123545349" lon="11.26451779613869"><ele>494.59999999999997</ele><time>2026-04-25T10:09:48.984Z</time></trkpt><trkpt lat="45.533296248753395" lon="11.26436849149367"><ele>495.40000000000003</ele><time>2026-04-25T10:09:49.984Z</time></trkpt><trkpt lat="45.533323404171206" lon="11.264228641968227"><ele>496.20000000000005</ele><time>2026-04-25T10:09:50.984Z</time></trkpt><trkpt lat="45.53333576307794" lon="11.2640792805484"><ele>497.0</ele><time>2026-04-25T10:09:51.984Z</time></trkpt><trkpt lat="45.533349416558735" lon="11.263963255040537"><ele>498.20000000000005</ele><time>2026-04-25T10:09:52.984Z</time></trkpt><trkpt lat="45.53337295138381" lon="11.263877343815226"><ele>499.40000000000003</ele><time>2026-04-25T10:09:54.984Z</time></trkpt><trkpt lat="45.533365997171785" lon="11.263757352766374"><ele>500.59999999999997</ele><time>2026-04-25T10:09:56.984Z</time></trkpt><trkpt lat="45.533418774606645" lon="11.26355839128558"><ele>501.79999999999995</ele><time>2026-04-25T10:09:58.984Z</time></trkpt><trkpt lat="45.53347405491277" lon="11.263429590124803"><ele>503.0</ele><time>2026-04-25T10:09:59.984Z</time></trkpt><trkpt lat="45.533541003151484" lon="11.263293363747767"><ele>503.0</ele><time>2026-04-25T10:10:00.984Z</time></trkpt><trkpt lat="45.53361830691457" lon="11.263175570949162"><ele>502.99999999999994</ele><time>2026-04-25T10:10:01.984Z</time></trkpt><trkpt lat="45.53368153002277" lon="11.26306244931891"><ele>502.99999999999994</ele><time>2026-04-25T10:10:02.984Z</time></trkpt><trkpt lat="45.533736624856175" lon="11.262964614648277"><ele>503.0</ele><time>2026-04-25T10:10:03.984Z</time></trkpt><trkpt lat="45.53379946462167" lon="11.262849711434502"><ele>503.0</ele><time>2026-04-25T10:10:04.984Z</time></trkpt><trkpt lat="45.53386603933665" lon="11.262745413505323"><ele>502.4</ele><time>2026-04-25T10:10:05.984Z</time></trkpt><trkpt lat="45.53394209839837" lon="11.26265622998788"><ele>501.79999999999995</ele><time>2026-04-25T10:10:06.984Z</time></trkpt><trkpt lat="45.53398768055048" lon="11.262506367038087"><ele>501.2</ele><time>2026-04-25T10:10:07.984Z</time></trkpt><trkpt lat="45.53404414991101" lon="11.262426518212589"><ele>500.6</ele><time>2026-04-25T10:10:08.983Z</time></trkpt><trkpt lat="45.534080650801755" lon="11.262324892539004"><ele>500.0</ele><time>2026-04-25T10:10:10.983Z</time></trkpt><trkpt lat="45.534109417642455" lon="11.262216890202184"><ele>499.8333333333333</ele><time>2026-04-25T10:10:13.983Z</time></trkpt><trkpt lat="45.53412490563293" lon="11.26210415081843"><ele>499.66666666666663</ele><time>2026-04-25T10:10:16.983Z</time></trkpt><trkpt lat="45.53404328701483" lon="11.262098842371653"><ele>499.5</ele><time>2026-04-25T10:10:19.982Z</time></trkpt><trkpt lat="45.53397421000713" lon="11.262122532590004"><ele>499.33333333333337</ele><time>2026-04-25T10:11:28.981Z</time></trkpt><trkpt lat="45.53409807043207" lon="11.262115322871521"><ele>499.1666666666667</ele><time>2026-04-25T10:11:53.98Z</time></trkpt><trkpt lat="45.53416388126616" lon="11.262066360440619"><ele>499.0</ele><time>2026-04-25T10:11:54.98Z</time></trkpt><trkpt lat="45.53422153799869" lon="11.26202065606216"><ele>499.00000000000006</ele><time>2026-04-25T10:11:55.98Z</time></trkpt><trkpt lat="45.53429656935422" lon="11.261945528670298"><ele>499.0</ele><time>2026-04-25T10:11:57.98Z</time></trkpt><trkpt lat="45.534351190397025" lon="11.26186706389521"><ele>499.0</ele><time>2026-04-25T10:12:00.98Z</time></trkpt><trkpt lat="45.534407299425844" lon="11.261793583025014"><ele>499.0</ele><time>2026-04-25T10:12:03.98Z</time></trkpt><trkpt lat="45.53447647306413" lon="11.261668164997298"><ele>499.00000000000006</ele><time>2026-04-25T10:12:34.98Z</time></trkpt><trkpt lat="45.53452976648881" lon="11.261589605177196"><ele>499.0</ele><time>2026-04-25T10:12:40.98Z</time></trkpt><trkpt lat="45.53458280396733" lon="11.261520922177844"><ele>495.79999999999995</ele><time>2026-04-25T10:12:42.98Z</time></trkpt><trkpt lat="45.53458860589874" lon="11.261422675631525"><ele>492.59999999999997</ele><time>2026-04-25T10:12:44.98Z</time></trkpt><trkpt lat="45.53448378095116" lon="11.261353376652405"><ele>489.4</ele><time>2026-04-25T10:12:46.98Z</time></trkpt><trkpt lat="45.53440546351671" lon="11.26134326069187"><ele>486.2</ele><time>2026-04-25T10:12:47.98Z</time></trkpt><trkpt lat="45.53432098024793" lon="11.261336088609562"><ele>483.0</ele><time>2026-04-25T10:12:48.98Z</time></trkpt><trkpt lat="45.53419405012907" lon="11.261307037804086"><ele>483.0</ele><time>2026-04-25T10:12:50.98Z</time></trkpt><trkpt lat="45.53413317193172" lon="11.261279749334141"><ele>483.0</ele><time>2026-04-25T10:12:51.98Z</time></trkpt><trkpt lat="45.534048543826316" lon="11.26121395090553"><ele>483.0</ele><time>2026-04-25T10:12:52.98Z</time></trkpt><trkpt lat="45.53397127693221" lon="11.261139771513353"><ele>483.0</ele><time>2026-04-25T10:12:54.981Z</time></trkpt><trkpt lat="45.53405639740239" lon="11.261091066554753"><ele>483.0</ele><time>2026-04-25T10:12:57.981Z</time></trkpt><trkpt lat="45.53413863672069" lon="11.261078725319399"><ele>483.0</ele><time>2026-04-25T10:13:02.982Z</time></trkpt><trkpt lat="45.534202909814155" lon="11.261067982622476"><ele>483.0</ele><time>2026-04-25T10:13:03.981Z</time></trkpt><trkpt lat="45.53426690132624" lon="11.261017206327736"><ele>483.0</ele><time>2026-04-25T10:13:04.981Z</time></trkpt><trkpt lat="45.53433734921758" lon="11.261009268704857"><ele>483.0</ele><time>2026-04-25T10:13:05.981Z</time></trkpt><trkpt lat="45.53445235907826" lon="11.261027962431495"><ele>483.0</ele><time>2026-04-25T10:13:07.981Z</time></trkpt><trkpt lat="45.53452726911182" lon="11.261025050076446"><ele>483.0</ele><time>2026-04-25T10:13:08.981Z</time></trkpt><trkpt lat="45.53462974119395" lon="11.261036778992661"><ele>483.0</ele><time>2026-04-25T10:13:10.981Z</time></trkpt><trkpt lat="45.534714870028516" lon="11.261048041592826"><ele>481.2</ele><time>2026-04-25T10:13:14.981Z</time></trkpt><trkpt lat="45.5347753322088" lon="11.261013370056933"><ele>479.4</ele><time>2026-04-25T10:13:25.981Z</time></trkpt><trkpt lat="45.534888614460755" lon="11.260855276705428"><ele>477.59999999999997</ele><time>2026-04-25T10:14:34.98Z</time></trkpt><trkpt lat="45.53491808371375" lon="11.260734574147328"><ele>475.79999999999995</ele><time>2026-04-25T10:14:35.98Z</time></trkpt><trkpt lat="45.534946218231354" lon="11.260621112206042"><ele>474.0</ele><time>2026-04-25T10:14:36.98Z</time></trkpt><trkpt lat="45.53498114461755" lon="11.26053072106977"><ele>473.0</ele><time>2026-04-25T10:14:37.98Z</time></trkpt><trkpt lat="45.535009643851346" lon="11.260441660005824"><ele>472.0</ele><time>2026-04-25T10:14:38.98Z</time></trkpt><trkpt lat="45.53505680917133" lon="11.260339407158716"><ele>471.0</ele><time>2026-04-25T10:14:40.98Z</time></trkpt><trkpt lat="45.535132303979466" lon="11.260276511050963"><ele>470.0</ele><time>2026-04-25T10:14:43.98Z</time></trkpt><trkpt lat="45.535236783595096" lon="11.26029767453783"><ele>469.0</ele><time>2026-04-25T10:14:45.98Z</time></trkpt><trkpt lat="45.535370188775914" lon="11.260286229091287"><ele>468.33333333333337</ele><time>2026-04-25T10:14:47.98Z</time></trkpt><trkpt lat="45.53543543002543" lon="11.260282928562454"><ele>467.6666666666667</ele><time>2026-04-25T10:14:48.98Z</time></trkpt><trkpt lat="45.53551305986665" lon="11.260280796678314"><ele>467.0</ele><time>2026-04-25T10:14:49.98Z</time></trkpt><trkpt lat="45.53558630483203" lon="11.260286399756845"><ele>466.33333333333337</ele><time>2026-04-25T10:14:50.98Z</time></trkpt><trkpt lat="45.53567017990338" lon="11.260293867798058"><ele>465.6666666666667</ele><time>2026-04-25T10:14:51.98Z</time></trkpt><trkpt lat="45.53576738381588" lon="11.260307632927214"><ele>465.0</ele><time>2026-04-25T10:14:52.98Z</time></trkpt><trkpt lat="45.535837663182456" lon="11.260331295317876"><ele>465.0</ele><time>2026-04-25T10:14:53.98Z</time></trkpt><trkpt lat="45.53590646510252" lon="11.260361144997557"><ele>465.0</ele><time>2026-04-25T10:14:54.98Z</time></trkpt><trkpt lat="45.53602197329132" lon="11.260414827602741"><ele>465.0</ele><time>2026-04-25T10:14:55.98Z</time></trkpt><trkpt lat="45.536328894881734" lon="11.260388054830205"><ele>465.1666666666667</ele><time>2026-04-25T10:14:57.98Z</time></trkpt><trkpt lat="45.536454837130925" lon="11.260367869224957"><ele>465.33333333333337</ele><time>2026-04-25T10:14:58.98Z</time></trkpt><trkpt lat="45.536545806550464" lon="11.260353636486878"><ele>465.5</ele><time>2026-04-25T10:14:59.981Z</time></trkpt><trkpt lat="45.536619665177234" lon="11.260355735168783"><ele>465.6666666666667</ele><time>2026-04-25T10:15:00.981Z</time></trkpt><trkpt lat="45.53668606222535" lon="11.2603249908789"><ele>465.83333333333337</ele><time>2026-04-25T10:15:01.981Z</time></trkpt><trkpt lat="45.536741494529664" lon="11.260245071915909"><ele>466.0</ele><time>2026-04-25T10:15:02.981Z</time></trkpt><trkpt lat="45.53678634971744" lon="11.260148906124572"><ele>466.0</ele><time>2026-04-25T10:15:03.981Z</time></trkpt><trkpt lat="45.536821284211015" lon="11.260046695808121"><ele>466.0</ele><time>2026-04-25T10:15:04.981Z</time></trkpt><trkpt lat="45.53686436949918" lon="11.259971721323469"><ele>466.0</ele><time>2026-04-25T10:15:05.981Z</time></trkpt><trkpt lat="45.53697453569705" lon="11.259855170482094"><ele>466.0</ele><time>2026-04-25T10:15:07.981Z</time></trkpt><trkpt lat="45.53708650185849" lon="11.259771553894605"><ele>466.0</ele><time>2026-04-25T10:15:08.981Z</time></trkpt><trkpt lat="45.53719761087327" lon="11.259719652730878"><ele>463.6</ele><time>2026-04-25T10:15:09.981Z</time></trkpt><trkpt lat="45.53728695825439" lon="11.259655763514742"><ele>461.20000000000005</ele><time>2026-04-25T10:15:10.981Z</time></trkpt><trkpt lat="45.537363631648525" lon="11.25961169045036"><ele>458.79999999999995</ele><time>2026-04-25T10:15:11.981Z</time></trkpt><trkpt lat="45.537453019667815" lon="11.25955504305633"><ele>456.4</ele><time>2026-04-25T10:15:13.981Z</time></trkpt><trkpt lat="45.53749239841171" lon="11.259455235747208"><ele>454.0</ele><time>2026-04-25T10:15:14.981Z</time></trkpt><trkpt lat="45.537525664134684" lon="11.25928850697072"><ele>454.0</ele><time>2026-04-25T10:15:15.981Z</time></trkpt><trkpt lat="45.53755435994192" lon="11.259092485695511"><ele>454.0</ele><time>2026-04-25T10:15:16.981Z</time></trkpt><trkpt lat="45.53759637729331" lon="11.258932096254767"><ele>454.0</ele><time>2026-04-25T10:15:17.981Z</time></trkpt><trkpt lat="45.53763381981951" lon="11.258784333265055"><ele>454.0</ele><time>2026-04-25T10:15:18.981Z</time></trkpt><trkpt lat="45.537694551722204" lon="11.258662872834662"><ele>453.79999999999995</ele><time>2026-04-25T10:15:19.981Z</time></trkpt><trkpt lat="45.53777584274647" lon="11.258600554105643"><ele>453.59999999999997</ele><time>2026-04-25T10:15:20.981Z</time></trkpt><trkpt lat="45.53787156105973" lon="11.258565546433642"><ele>453.4</ele><time>2026-04-25T10:15:21.981Z</time></trkpt><trkpt lat="45.53798279447758" lon="11.258510783429942"><ele>453.2</ele><time>2026-04-25T10:15:22.981Z</time></trkpt><trkpt lat="45.5380973503597" lon="11.258464216613506"><ele>453.0</ele><time>2026-04-25T10:15:23.981Z</time></trkpt><trkpt lat="45.538183459889474" lon="11.258384568913982"><ele>453.79999999999995</ele><time>2026-04-25T10:15:24.981Z</time></trkpt><trkpt lat="45.53826083726859" lon="11.25828300875566"><ele>454.59999999999997</ele><time>2026-04-25T10:15:25.981Z</time></trkpt><trkpt lat="45.53833504398506" lon="11.258185946064332"><ele>455.40000000000003</ele><time>2026-04-25T10:15:26.981Z</time></trkpt><trkpt lat="45.53839967880452" lon="11.258091011661106"><ele>456.20000000000005</ele><time>2026-04-25T10:15:27.981Z</time></trkpt><trkpt lat="45.53845747545321" lon="11.25799961638087"><ele>457.0</ele><time>2026-04-25T10:15:28.981Z</time></trkpt><trkpt lat="45.538512747142" lon="11.2579024432374"><ele>457.40000000000003</ele><time>2026-04-25T10:15:29.981Z</time></trkpt><trkpt lat="45.53855384309561" lon="11.25779750653418"><ele>457.80000000000007</ele><time>2026-04-25T10:15:30.981Z</time></trkpt><trkpt lat="45.538603083487544" lon="11.257682632312303"><ele>458.2</ele><time>2026-04-25T10:15:31.981Z</time></trkpt><trkpt lat="45.538670415464246" lon="11.257613670804524"><ele>458.6</ele><time>2026-04-25T10:15:32.981Z</time></trkpt><trkpt lat="45.538745875653824" lon="11.257529578151507"><ele>459.0</ele><time>2026-04-25T10:15:33.981Z</time></trkpt><trkpt lat="45.53883073924204" lon="11.257461294102038"><ele>459.0</ele><time>2026-04-25T10:15:34.981Z</time></trkpt><trkpt lat="45.538903947245316" lon="11.25740699856021"><ele>459.0</ele><time>2026-04-25T10:15:35.981Z</time></trkpt><trkpt lat="45.538970253954226" lon="11.257356135042821"><ele>459.0</ele><time>2026-04-25T10:15:36.981Z</time></trkpt><trkpt lat="45.53905272334138" lon="11.257324046716038"><ele>459.0</ele><time>2026-04-25T10:15:37.981Z</time></trkpt><trkpt lat="45.539123944370644" lon="11.257333477079525"><ele>459.0</ele><time>2026-04-25T10:15:38.981Z</time></trkpt><trkpt lat="45.53919897503571" lon="11.257415389731895"><ele>459.0</ele><time>2026-04-25T10:15:39.981Z</time></trkpt><trkpt lat="45.539298048444515" lon="11.257462567503538"><ele>459.0</ele><time>2026-04-25T10:15:40.981Z</time></trkpt><trkpt lat="45.539409900099116" lon="11.257500814469985"><ele>459.0</ele><time>2026-04-25T10:15:41.981Z</time></trkpt><trkpt lat="45.539533847006446" lon="11.257529348576576"><ele>459.0</ele><time>2026-04-25T10:15:42.981Z</time></trkpt><trkpt lat="45.53964663444225" lon="11.257556346672068"><ele>459.0</ele><time>2026-04-25T10:15:43.981Z</time></trkpt><trkpt lat="45.53975911270461" lon="11.257594367844286"><ele>459.4</ele><time>2026-04-25T10:15:44.981Z</time></trkpt><trkpt lat="45.5398636520921" lon="11.257631629871586"><ele>459.79999999999995</ele><time>2026-04-25T10:15:45.981Z</time></trkpt><trkpt lat="45.53996716395534" lon="11.257659839594272"><ele>460.20000000000005</ele><time>2026-04-25T10:15:46.981Z</time></trkpt><trkpt lat="45.540066121120965" lon="11.257699091516335"><ele>460.6</ele><time>2026-04-25T10:15:47.981Z</time></trkpt><trkpt lat="45.5401649314117" lon="11.257748418290307"><ele>461.0</ele><time>2026-04-25T10:15:48.981Z</time></trkpt><trkpt lat="45.54026041169585" lon="11.257791988070473"><ele>461.0</ele><time>2026-04-25T10:15:49.981Z</time></trkpt><trkpt lat="45.54036031443307" lon="11.25782023846036"><ele>461.0</ele><time>2026-04-25T10:15:50.981Z</time></trkpt><trkpt lat="45.54046350442556" lon="11.257834672004524"><ele>461.0</ele><time>2026-04-25T10:15:51.981Z</time></trkpt><trkpt lat="45.5405615575751" lon="11.257801891368846"><ele>461.0</ele><time>2026-04-25T10:15:52.981Z</time></trkpt><trkpt lat="45.540653542830135" lon="11.257739484742402"><ele>461.0</ele><time>2026-04-25T10:15:53.981Z</time></trkpt><trkpt lat="45.5407315244284" lon="11.257635696659666"><ele>462.20000000000005</ele><time>2026-04-25T10:15:54.981Z</time></trkpt><trkpt lat="45.54078510840397" lon="11.257521801979912"><ele>463.40000000000003</ele><time>2026-04-25T10:15:55.981Z</time></trkpt><trkpt lat="45.54084137211656" lon="11.25740379207955"><ele>464.6</ele><time>2026-04-25T10:15:56.981Z</time></trkpt><trkpt lat="45.54087114604256" lon="11.257269098254453"><ele>465.8</ele><time>2026-04-25T10:15:57.981Z</time></trkpt><trkpt lat="45.54085189220824" lon="11.25711916499397"><ele>467.0</ele><time>2026-04-25T10:15:58.981Z</time></trkpt><trkpt lat="45.540864325367224" lon="11.257001337107356"><ele>466.99999999999994</ele><time>2026-04-25T10:15:59.981Z</time></trkpt><trkpt lat="45.540893015525775" lon="11.256886040639635"><ele>467.0</ele><time>2026-04-25T10:16:00.981Z</time></trkpt><trkpt lat="45.54094014099953" lon="11.256774190410512"><ele>467.0</ele><time>2026-04-25T10:16:01.981Z</time></trkpt><trkpt lat="45.54099923937557" lon="11.256683128645241"><ele>467.0</ele><time>2026-04-25T10:16:02.981Z</time></trkpt><trkpt lat="45.54106571260803" lon="11.256610029790204"><ele>466.99999999999994</ele><time>2026-04-25T10:16:03.981Z</time></trkpt><trkpt lat="45.5411363668888" lon="11.256560017765553"><ele>467.0</ele><time>2026-04-25T10:16:04.981Z</time></trkpt><trkpt lat="45.54121563906796" lon="11.25653644848633"><ele>464.40000000000003</ele><time>2026-04-25T10:16:05.981Z</time></trkpt><trkpt lat="45.54129667394255" lon="11.256524385689282"><ele>461.80000000000007</ele><time>2026-04-25T10:16:06.981Z</time></trkpt><trkpt lat="45.54139080545279" lon="11.256551534685045"><ele>459.2</ele><time>2026-04-25T10:16:07.981Z</time></trkpt><trkpt lat="45.5414810926033" lon="11.256578516129784"><ele>456.6</ele><time>2026-04-25T10:16:08.981Z</time></trkpt><trkpt lat="45.541578171072466" lon="11.256589690906653"><ele>454.0</ele><time>2026-04-25T10:16:09.981Z</time></trkpt><trkpt lat="45.54169055565262" lon="11.256592477811433"><ele>454.0</ele><time>2026-04-25T10:16:10.981Z</time></trkpt><trkpt lat="45.541806005155486" lon="11.256579084688362"><ele>454.0</ele><time>2026-04-25T10:16:11.981Z</time></trkpt><trkpt lat="45.54192590608979" lon="11.256548734430346"><ele>454.0</ele><time>2026-04-25T10:16:12.981Z</time></trkpt><trkpt lat="45.542036168278706" lon="11.256514235184696"><ele>454.0</ele><time>2026-04-25T10:16:13.981Z</time></trkpt><trkpt lat="45.542135157102706" lon="11.25645804792679"><ele>455.6</ele><time>2026-04-25T10:16:14.981Z</time></trkpt><trkpt lat="45.542219007145185" lon="11.256364981568026"><ele>457.2</ele><time>2026-04-25T10:16:15.981Z</time></trkpt><trkpt lat="45.54229156609284" lon="11.25627226389559"><ele>458.80000000000007</ele><time>2026-04-25T10:16:16.981Z</time></trkpt><trkpt lat="45.54235947220059" lon="11.256187664885141"><ele>460.40000000000003</ele><time>2026-04-25T10:16:17.981Z</time></trkpt><trkpt lat="45.54242269896468" lon="11.256093770393552"><ele>462.0</ele><time>2026-04-25T10:16:18.981Z</time></trkpt><trkpt lat="45.542470553950686" lon="11.255982184109724"><ele>462.0</ele><time>2026-04-25T10:16:19.98Z</time></trkpt><trkpt lat="45.54250022829743" lon="11.25585034222761"><ele>462.00000000000006</ele><time>2026-04-25T10:16:20.98Z</time></trkpt><trkpt lat="45.54252380743287" lon="11.255722746020737"><ele>462.00000000000006</ele><time>2026-04-25T10:16:21.98Z</time></trkpt><trkpt lat="45.54254587221218" lon="11.255586983258944"><ele>462.0</ele><time>2026-04-25T10:16:22.98Z</time></trkpt><trkpt lat="45.54256416800908" lon="11.255452085082167"><ele>462.0</ele><time>2026-04-25T10:16:23.98Z</time></trkpt><trkpt lat="45.542582007584905" lon="11.25532585254106"><ele>464.3333333333333</ele><time>2026-04-25T10:16:24.98Z</time></trkpt><trkpt lat="45.542607324863596" lon="11.255203107122554"><ele>466.66666666666663</ele><time>2026-04-25T10:16:25.98Z</time></trkpt><trkpt lat="45.54264360546262" lon="11.255093789224775"><ele>469.0</ele><time>2026-04-25T10:16:26.98Z</time></trkpt><trkpt lat="45.54269911099859" lon="11.255019094767448"><ele>471.3333333333333</ele><time>2026-04-25T10:16:27.98Z</time></trkpt><trkpt lat="45.54276960775617" lon="11.254970256171076"><ele>473.66666666666663</ele><time>2026-04-25T10:16:28.98Z</time></trkpt><trkpt lat="45.54285621077638" lon="11.254936384539258"><ele>476.0</ele><time>2026-04-25T10:16:29.98Z</time></trkpt><trkpt lat="45.54294095048727" lon="11.25490135486316"><ele>475.99999999999994</ele><time>2026-04-25T10:16:30.98Z</time></trkpt><trkpt lat="45.54302110590697" lon="11.254854424664401"><ele>476.0</ele><time>2026-04-25T10:16:31.98Z</time></trkpt><trkpt lat="45.543095715110326" lon="11.254800249333467"><ele>476.0</ele><time>2026-04-25T10:16:32.98Z</time></trkpt><trkpt lat="45.543174396238186" lon="11.2547610642874"><ele>476.0</ele><time>2026-04-25T10:16:33.98Z</time></trkpt><trkpt lat="45.54325652670776" lon="11.254705572561498"><ele>475.99999999999994</ele><time>2026-04-25T10:16:34.98Z</time></trkpt><trkpt lat="45.543334020736964" lon="11.254640793567367"><ele>476.0</ele><time>2026-04-25T10:16:35.98Z</time></trkpt><trkpt lat="45.54340906510945" lon="11.25454593581047"><ele>479.6</ele><time>2026-04-25T10:16:36.98Z</time></trkpt><trkpt lat="45.543491146254254" lon="11.254443277799245"><ele>483.20000000000005</ele><time>2026-04-25T10:16:37.98Z</time></trkpt><trkpt lat="45.54357691805447" lon="11.254329737184346"><ele>486.79999999999995</ele><time>2026-04-25T10:16:38.98Z</time></trkpt><trkpt lat="45.54366362247142" lon="11.254242472130288"><ele>490.4</ele><time>2026-04-25T10:16:39.98Z</time></trkpt><trkpt lat="45.54375359785605" lon="11.254172958472688"><ele>494.0</ele><time>2026-04-25T10:16:40.98Z</time></trkpt><trkpt lat="45.543836176106545" lon="11.254142593262625"><ele>493.99999999999994</ele><time>2026-04-25T10:16:41.98Z</time></trkpt><trkpt lat="45.543927298976904" lon="11.254125273121014"><ele>494.0</ele><time>2026-04-25T10:16:42.98Z</time></trkpt><trkpt lat="45.54401360505043" lon="11.25410440937453"><ele>494.0</ele><time>2026-04-25T10:16:43.98Z</time></trkpt><trkpt lat="45.54410052236579" lon="11.254073102367476"><ele>494.0</ele><time>2026-04-25T10:16:44.98Z</time></trkpt><trkpt lat="45.544167495911005" lon="11.254052017060772"><ele>493.99999999999994</ele><time>2026-04-25T10:16:45.98Z</time></trkpt><trkpt lat="45.54426223615415" lon="11.254000441974066"><ele>494.0</ele><time>2026-04-25T10:16:47.98Z</time></trkpt><trkpt lat="45.544297275847626" lon="11.253873912732562"><ele>500.4</ele><time>2026-04-25T10:16:49.98Z</time></trkpt><trkpt lat="45.54422010824612" lon="11.253813141168425"><ele>506.79999999999995</ele><time>2026-04-25T10:16:51.98Z</time></trkpt><trkpt lat="45.544112842564275" lon="11.253808165129316"><ele>513.2</ele><time>2026-04-25T10:16:53.98Z</time></trkpt><trkpt lat="45.544032604885516" lon="11.253808975879934"><ele>519.6</ele><time>2026-04-25T10:16:54.98Z</time></trkpt><trkpt lat="45.5439540798844" lon="11.253759888988194"><ele>526.0</ele><time>2026-04-25T10:16:55.98Z</time></trkpt><trkpt lat="45.54386948465385" lon="11.253719288379394"><ele>526.0</ele><time>2026-04-25T10:16:56.98Z</time></trkpt><trkpt lat="45.5437965816276" lon="11.253660795502205"><ele>526.0</ele><time>2026-04-25T10:16:57.98Z</time></trkpt><trkpt lat="45.543717582174665" lon="11.253588635958664"><ele>526.0</ele><time>2026-04-25T10:16:58.98Z</time></trkpt><trkpt lat="45.54364678802077" lon="11.253529866492192"><ele>526.0</ele><time>2026-04-25T10:16:59.98Z</time></trkpt><trkpt lat="45.54355064684504" lon="11.253495324808052"><ele>526.0</ele><time>2026-04-25T10:17:00.98Z</time></trkpt><trkpt lat="45.54344128149387" lon="11.253491719242874"><ele>525.4</ele><time>2026-04-25T10:17:01.98Z</time></trkpt><trkpt lat="45.5433469790924" lon="11.253462190855032"><ele>524.8</ele><time>2026-04-25T10:17:02.98Z</time></trkpt><trkpt lat="45.54326450790838" lon="11.253442725171078"><ele>524.1999999999999</ele><time>2026-04-25T10:17:03.98Z</time></trkpt><trkpt lat="45.543145880090506" lon="11.253404482173176"><ele>523.6</ele><time>2026-04-25T10:17:05.981Z</time></trkpt><trkpt lat="45.54308436543233" lon="11.253368811189725"><ele>523.0</ele><time>2026-04-25T10:17:06.981Z</time></trkpt><trkpt lat="45.543010168521725" lon="11.25331993136945"><ele>523.0</ele><time>2026-04-25T10:17:07.981Z</time></trkpt><trkpt lat="45.54296399754825" lon="11.253213122156732"><ele>523.0</ele><time>2026-04-25T10:17:10.98Z</time></trkpt><trkpt lat="45.54294740054657" lon="11.25311076020161"><ele>523.0</ele><time>2026-04-25T10:17:12.98Z</time></trkpt><trkpt lat="45.54291463485889" lon="11.252973269919895"><ele>523.0</ele><time>2026-04-25T10:17:14.981Z</time></trkpt><trkpt lat="45.54287906187112" lon="11.252883077774943"><ele>523.0</ele><time>2026-04-25T10:17:17.981Z</time></trkpt><trkpt lat="45.54283656637878" lon="11.252772335207661"><ele>523.0</ele><time>2026-04-25T10:17:19.981Z</time></trkpt><trkpt lat="45.542994220497064" lon="11.25269626199601"><ele>527.5</ele><time>2026-04-25T10:17:33.981Z</time></trkpt><trkpt lat="45.54310952438593" lon="11.252677816651083"><ele>532.0</ele><time>2026-04-25T10:17:35.981Z</time></trkpt><trkpt lat="45.543238847737086" lon="11.252624169633155"><ele>536.5</ele><time>2026-04-25T10:17:37.981Z</time></trkpt><trkpt lat="45.543333478604666" lon="11.25253046568559"><ele>541.0</ele><time>2026-04-25T10:17:39.981Z</time></trkpt><trkpt lat="45.543409319796076" lon="11.252476794923567"><ele>541.0</ele><time>2026-04-25T10:17:40.981Z</time></trkpt><trkpt lat="45.54351220710317" lon="11.252527936648006"><ele>541.0</ele><time>2026-04-25T10:17:42.981Z</time></trkpt><trkpt lat="45.54359091103041" lon="11.252560917567614"><ele>541.0</ele><time>2026-04-25T10:17:43.981Z</time></trkpt><trkpt lat="45.54366067655061" lon="11.252583319980644"><ele>541.0</ele><time>2026-04-25T10:17:44.981Z</time></trkpt><trkpt lat="45.54372542300194" lon="11.25259922287582"><ele>541.0</ele><time>2026-04-25T10:17:45.981Z</time></trkpt><trkpt lat="45.543848576132056" lon="11.252617903392176"><ele>542.8333333333334</ele><time>2026-04-25T10:17:47.981Z</time></trkpt><trkpt lat="45.543936908478294" lon="11.252626987301705"><ele>544.6666666666667</ele><time>2026-04-25T10:17:48.981Z</time></trkpt><trkpt lat="45.54402542007029" lon="11.252646528913383"><ele>546.5</ele><time>2026-04-25T10:17:49.981Z</time></trkpt><trkpt lat="45.54408604075595" lon="11.252701646890886"><ele>548.3333333333334</ele><time>2026-04-25T10:17:50.981Z</time></trkpt><trkpt lat="45.544137914187054" lon="11.252797659205813"><ele>550.1666666666666</ele><time>2026-04-25T10:17:51.981Z</time></trkpt><trkpt lat="45.5441802974175" lon="11.252886139572396"><ele>552.0</ele><time>2026-04-25T10:17:52.981Z</time></trkpt><trkpt lat="45.54425682424343" lon="11.25295856730526"><ele>552.0</ele><time>2026-04-25T10:17:53.981Z</time></trkpt><trkpt lat="45.54432910340965" lon="11.253038451872456"><ele>552.0</ele><time>2026-04-25T10:17:54.981Z</time></trkpt><trkpt lat="45.54438017438854" lon="11.253094359156528"><ele>552.0</ele><time>2026-04-25T10:17:55.981Z</time></trkpt><trkpt lat="45.54442928334163" lon="11.25315342371784"><ele>552.0</ele><time>2026-04-25T10:17:56.981Z</time></trkpt><trkpt lat="45.54452665398586" lon="11.25320198752256"><ele>552.0</ele><time>2026-04-25T10:17:58.981Z</time></trkpt><trkpt lat="45.544610118358456" lon="11.253201354642904"><ele>552.0</ele><time>2026-04-25T10:17:59.981Z</time></trkpt><trkpt lat="45.54471805657772" lon="11.253211831940902"><ele>553.8333333333334</ele><time>2026-04-25T10:18:00.981Z</time></trkpt><trkpt lat="45.544788023427714" lon="11.253212750187876"><ele>555.6666666666666</ele><time>2026-04-25T10:18:01.981Z</time></trkpt><trkpt lat="45.54488482970044" lon="11.253167947922718"><ele>557.5</ele><time>2026-04-25T10:18:03.981Z</time></trkpt><trkpt lat="45.54492922879772" lon="11.253101108805991"><ele>559.3333333333333</ele><time>2026-04-25T10:18:04.981Z</time></trkpt><trkpt lat="45.544981702216035" lon="11.253026430985908"><ele>561.1666666666666</ele><time>2026-04-25T10:18:05.981Z</time></trkpt><trkpt lat="45.54502615861643" lon="11.252945750357783"><ele>563.0</ele><time>2026-04-25T10:18:06.98Z</time></trkpt><trkpt lat="45.54506681593382" lon="11.252846898216847"><ele>563.0</ele><time>2026-04-25T10:18:07.98Z</time></trkpt><trkpt lat="45.54511326350021" lon="11.252735446709224"><ele>563.0</ele><time>2026-04-25T10:18:08.98Z</time></trkpt><trkpt lat="45.54515554240824" lon="11.252633278637632"><ele>563.0</ele><time>2026-04-25T10:18:09.98Z</time></trkpt><trkpt lat="45.54522742117856" lon="11.252612060885673"><ele>563.0</ele><time>2026-04-25T10:18:10.98Z</time></trkpt><trkpt lat="45.54530831836515" lon="11.252566800340217"><ele>563.0</ele><time>2026-04-25T10:18:11.98Z</time></trkpt><trkpt lat="45.54539041939983" lon="11.252489942040564"><ele>563.0</ele><time>2026-04-25T10:18:12.98Z</time></trkpt><trkpt lat="45.545495808958805" lon="11.252416912503882"><ele>561.4</ele><time>2026-04-25T10:18:13.98Z</time></trkpt><trkpt lat="45.54560956499211" lon="11.252360022322485"><ele>559.8</ele><time>2026-04-25T10:18:14.98Z</time></trkpt><trkpt lat="45.54571497523627" lon="11.252334856503257"><ele>558.2</ele><time>2026-04-25T10:18:15.98Z</time></trkpt><trkpt lat="45.54581006425784" lon="11.252323997216246"><ele>556.6</ele><time>2026-04-25T10:18:16.98Z</time></trkpt><trkpt lat="45.54589001778601" lon="11.252261791263821"><ele>555.0</ele><time>2026-04-25T10:18:17.98Z</time></trkpt><trkpt lat="45.54595096566394" lon="11.252174517971751"><ele>558.4</ele><time>2026-04-25T10:18:18.98Z</time></trkpt><trkpt lat="45.546017967063705" lon="11.252111095338908"><ele>561.8</ele><time>2026-04-25T10:18:19.98Z</time></trkpt><trkpt lat="45.546074379093085" lon="11.252006362422257"><ele>565.2</ele><time>2026-04-25T10:18:20.98Z</time></trkpt><trkpt lat="45.54612569039601" lon="11.251856836124494"><ele>568.6</ele><time>2026-04-25T10:18:21.98Z</time></trkpt><trkpt lat="45.54618067439635" lon="11.251774053725008"><ele>572.0</ele><time>2026-04-25T10:18:22.98Z</time></trkpt><trkpt lat="45.546238683823226" lon="11.251659216569735"><ele>572.0</ele><time>2026-04-25T10:18:23.98Z</time></trkpt><trkpt lat="45.546307274640654" lon="11.25161353557036"><ele>572.0</ele><time>2026-04-25T10:18:24.98Z</time></trkpt><trkpt lat="45.54641021590097" lon="11.251553341437315"><ele>572.0</ele><time>2026-04-25T10:18:25.98Z</time></trkpt><trkpt lat="45.546487890055175" lon="11.25153071766937"><ele>572.0</ele><time>2026-04-25T10:18:26.98Z</time></trkpt><trkpt lat="45.54656087158692" lon="11.251523884112979"><ele>572.0</ele><time>2026-04-25T10:18:27.98Z</time></trkpt><trkpt lat="45.54662675810982" lon="11.251442787616572"><ele>572.0</ele><time>2026-04-25T10:18:28.98Z</time></trkpt><trkpt lat="45.546732288797934" lon="11.251391885159594"><ele>576.0</ele><time>2026-04-25T10:18:30.98Z</time></trkpt><trkpt lat="45.54686546365595" lon="11.251404207394938"><ele>580.0</ele><time>2026-04-25T10:18:32.98Z</time></trkpt><trkpt lat="45.546942284258115" lon="11.251399245742123"><ele>584.0</ele><time>2026-04-25T10:18:33.98Z</time></trkpt><trkpt lat="45.547013664657875" lon="11.25137354779777"><ele>588.0</ele><time>2026-04-25T10:18:34.98Z</time></trkpt><trkpt lat="45.54709616574108" lon="11.251343939008358"><ele>592.0</ele><time>2026-04-25T10:18:35.98Z</time></trkpt><trkpt lat="45.54720799496664" lon="11.251321586197118"><ele>592.0</ele><time>2026-04-25T10:18:36.98Z</time></trkpt><trkpt lat="45.547326139852004" lon="11.251295587905163"><ele>592.0</ele><time>2026-04-25T10:18:37.98Z</time></trkpt><trkpt lat="45.54743396863598" lon="11.251287408112804"><ele>592.0</ele><time>2026-04-25T10:18:38.98Z</time></trkpt><trkpt lat="45.547556360175946" lon="11.251276392733006"><ele>592.0</ele><time>2026-04-25T10:18:39.98Z</time></trkpt><trkpt lat="45.54766616350078" lon="11.251279983018073"><ele>592.0</ele><time>2026-04-25T10:18:40.98Z</time></trkpt><trkpt lat="45.54775280144884" lon="11.251293062299514"><ele>592.0</ele><time>2026-04-25T10:18:41.98Z</time></trkpt><trkpt lat="45.54782625999968" lon="11.251354912104581"><ele>592.0</ele><time>2026-04-25T10:18:42.98Z</time></trkpt><trkpt lat="45.54793024390627" lon="11.25143079750976"><ele>592.0</ele><time>2026-04-25T10:18:43.98Z</time></trkpt><trkpt lat="45.54804692386507" lon="11.25147048952071"><ele>592.0</ele><time>2026-04-25T10:18:44.98Z</time></trkpt><trkpt lat="45.54814328888295" lon="11.251528085820778"><ele>591.2</ele><time>2026-04-25T10:18:45.98Z</time></trkpt><trkpt lat="45.54822702233641" lon="11.251601548623956"><ele>590.4000000000001</ele><time>2026-04-25T10:18:46.98Z</time></trkpt><trkpt lat="45.54828193145202" lon="11.25165826357413"><ele>589.5999999999999</ele><time>2026-04-25T10:18:47.98Z</time></trkpt><trkpt lat="45.54828550028443" lon="11.251800680520411"><ele>588.8</ele><time>2026-04-25T10:18:49.98Z</time></trkpt><trkpt lat="45.5483008833365" lon="11.251962213497466"><ele>588.0</ele><time>2026-04-25T10:18:51.98Z</time></trkpt><trkpt lat="45.54836534670741" lon="11.25202956641072"><ele>588.0</ele><time>2026-04-25T10:18:53.98Z</time></trkpt><trkpt lat="45.54845211980516" lon="11.252070660601635"><ele>588.0</ele><time>2026-04-25T10:18:58.98Z</time></trkpt><trkpt lat="45.54854461353276" lon="11.252100039851094"><ele>588.0</ele><time>2026-04-25T10:19:00.98Z</time></trkpt><trkpt lat="45.548641003096876" lon="11.252053884481793"><ele>588.0</ele><time>2026-04-25T10:19:02.98Z</time></trkpt><trkpt lat="45.548718563533974" lon="11.251994975003639"><ele>588.0</ele><time>2026-04-25T10:19:04.98Z</time></trkpt><trkpt lat="45.54881270639439" lon="11.251906992828792"><ele>589.0</ele><time>2026-04-25T10:19:06.98Z</time></trkpt><trkpt lat="45.54889918497363" lon="11.251792136651131"><ele>590.0</ele><time>2026-04-25T10:19:08.98Z</time></trkpt><trkpt lat="45.54894017667635" lon="11.251722341622049"><ele>591.0</ele><time>2026-04-25T10:19:09.98Z</time></trkpt><trkpt lat="45.54901481576351" lon="11.25163349294949"><ele>592.0</ele><time>2026-04-25T10:19:11.98Z</time></trkpt><trkpt lat="45.5491020212496" lon="11.251554561053421"><ele>593.0</ele><time>2026-04-25T10:19:13.98Z</time></trkpt><trkpt lat="45.549172802461285" lon="11.25158002858459"><ele>593.0</ele><time>2026-04-25T10:19:14.979Z</time></trkpt><trkpt lat="45.54927408925711" lon="11.251645917829546"><ele>593.0</ele><time>2026-04-25T10:19:16.98Z</time></trkpt><trkpt lat="45.54937682879353" lon="11.251628543760793"><ele>593.0</ele><time>2026-04-25T10:19:18.979Z</time></trkpt><trkpt lat="45.549446771635665" lon="11.251638139986126"><ele>593.0</ele><time>2026-04-25T10:19:19.98Z</time></trkpt><trkpt lat="45.54951903309071" lon="11.25162585407488"><ele>593.0</ele><time>2026-04-25T10:19:20.98Z</time></trkpt><trkpt lat="45.54960824770236" lon="11.251624943157122"><ele>593.0</ele><time>2026-04-25T10:19:21.98Z</time></trkpt><trkpt lat="45.54969336463638" lon="11.25162207186805"><ele>590.8</ele><time>2026-04-25T10:19:23.98Z</time></trkpt><trkpt lat="45.54985377492048" lon="11.251619907028957"><ele>588.5999999999999</ele><time>2026-04-25T10:19:27.98Z</time></trkpt><trkpt lat="45.549967776624975" lon="11.251571635813264"><ele>586.4000000000001</ele><time>2026-04-25T10:19:29.98Z</time></trkpt><trkpt lat="45.55003573165244" lon="11.25155139644862"><ele>584.2</ele><time>2026-04-25T10:19:30.98Z</time></trkpt><trkpt lat="45.550105367125454" lon="11.251533816630026"><ele>582.0</ele><time>2026-04-25T10:19:31.98Z</time></trkpt><trkpt lat="45.55017405065769" lon="11.251543770403513"><ele>582.0</ele><time>2026-04-25T10:19:32.98Z</time></trkpt><trkpt lat="45.55024059218938" lon="11.251492045338585"><ele>582.0</ele><time>2026-04-25T10:19:33.98Z</time></trkpt><trkpt lat="45.55032135975722" lon="11.251435123192774"><ele>582.0</ele><time>2026-04-25T10:19:34.98Z</time></trkpt><trkpt lat="45.55044286151701" lon="11.251406803497243"><ele>582.0</ele><time>2026-04-25T10:19:36.979Z</time></trkpt><trkpt lat="45.55050477554728" lon="11.251424658937783"><ele>582.0</ele><time>2026-04-25T10:19:37.979Z</time></trkpt><trkpt lat="45.55057750993528" lon="11.251405326991723"><ele>582.0</ele><time>2026-04-25T10:19:38.979Z</time></trkpt><trkpt lat="45.55063929705447" lon="11.251382533032213"><ele>584.2</ele><time>2026-04-25T10:19:39.979Z</time></trkpt><trkpt lat="45.55066488652317" lon="11.251281695390361"><ele>586.4000000000001</ele><time>2026-04-25T10:19:40.979Z</time></trkpt><trkpt lat="45.55069889990696" lon="11.251163199578288"><ele>588.5999999999999</ele><time>2026-04-25T10:19:42.979Z</time></trkpt><trkpt lat="45.55079462363598" lon="11.251103915409569"><ele>590.8</ele><time>2026-04-25T10:19:44.979Z</time></trkpt><trkpt lat="45.55085053931161" lon="11.250985907545871"><ele>593.0</ele><time>2026-04-25T10:19:46.979Z</time></trkpt><trkpt lat="45.55086888983603" lon="11.250872966832286"><ele>593.0</ele><time>2026-04-25T10:19:47.979Z</time></trkpt><trkpt lat="45.550872324074675" lon="11.250777299641925"><ele>593.0</ele><time>2026-04-25T10:19:48.979Z</time></trkpt><trkpt lat="45.55091403222533" lon="11.250693929916238"><ele>593.0</ele><time>2026-04-25T10:19:49.979Z</time></trkpt><trkpt lat="45.550996465891934" lon="11.25065162733873"><ele>593.0</ele><time>2026-04-25T10:19:51.979Z</time></trkpt><trkpt lat="45.55111922329915" lon="11.250575922817804"><ele>593.0</ele><time>2026-04-25T10:19:53.979Z</time></trkpt><trkpt lat="45.55116771777084" lon="11.250518440175853"><ele>593.0</ele><time>2026-04-25T10:19:54.979Z</time></trkpt><trkpt lat="45.5512566995861" lon="11.250440955019883"><ele>591.1999999999999</ele><time>2026-04-25T10:19:55.979Z</time></trkpt><trkpt lat="45.55133681282958" lon="11.25035413995267"><ele>589.4</ele><time>2026-04-25T10:19:56.979Z</time></trkpt><trkpt lat="45.55142763380805" lon="11.250259458518766"><ele>587.5999999999999</ele><time>2026-04-25T10:19:57.979Z</time></trkpt><trkpt lat="45.551527261435794" lon="11.250199941402512"><ele>585.8</ele><time>2026-04-25T10:19:58.979Z</time></trkpt><trkpt lat="45.55161324060821" lon="11.250124968558291"><ele>584.0</ele><time>2026-04-25T10:19:59.979Z</time></trkpt><trkpt lat="45.551695737742776" lon="11.250082079087484"><ele>584.0</ele><time>2026-04-25T10:20:00.979Z</time></trkpt><trkpt lat="45.55180244193652" lon="11.250044404079597"><ele>584.0</ele><time>2026-04-25T10:20:01.979Z</time></trkpt><trkpt lat="45.55189971902474" lon="11.250014071129845"><ele>584.0</ele><time>2026-04-25T10:20:02.979Z</time></trkpt><trkpt lat="45.55200358166639" lon="11.249964259510225"><ele>584.0</ele><time>2026-04-25T10:20:03.979Z</time></trkpt><trkpt lat="45.55209577340954" lon="11.249944505909603"><ele>584.0</ele><time>2026-04-25T10:20:04.979Z</time></trkpt><trkpt lat="45.55218263580396" lon="11.249916443818552"><ele>580.75</ele><time>2026-04-25T10:20:05.979Z</time></trkpt><trkpt lat="45.552261302593045" lon="11.249891256852285"><ele>577.5</ele><time>2026-04-25T10:20:06.979Z</time></trkpt><trkpt lat="45.5524689423049" lon="11.249872881062544"><ele>574.25</ele><time>2026-04-25T10:20:12.979Z</time></trkpt><trkpt lat="45.552520511961944" lon="11.249782806309348"><ele>571.0</ele><time>2026-04-25T10:20:13.979Z</time></trkpt><trkpt lat="45.552586769475674" lon="11.249709318524197"><ele>571.75</ele><time>2026-04-25T10:20:14.979Z</time></trkpt><trkpt lat="45.55269549773265" lon="11.249601632234459"><ele>572.5</ele><time>2026-04-25T10:20:15.979Z</time></trkpt><trkpt lat="45.5528201452606" lon="11.24949243718894"><ele>573.25</ele><time>2026-04-25T10:20:16.979Z</time></trkpt><trkpt lat="45.552923078653656" lon="11.24937937460894"><ele>574.0</ele><time>2026-04-25T10:20:17.979Z</time></trkpt><trkpt lat="45.55300267344145" lon="11.249260359937615"><ele>574.0</ele><time>2026-04-25T10:20:18.979Z</time></trkpt><trkpt lat="45.55308737746891" lon="11.249165654502372"><ele>574.0</ele><time>2026-04-25T10:20:19.979Z</time></trkpt><trkpt lat="45.55315752026627" lon="11.249041288434432"><ele>574.0</ele><time>2026-04-25T10:20:20.979Z</time></trkpt><trkpt lat="45.55324340899569" lon="11.248938873874062"><ele>574.0</ele><time>2026-04-25T10:20:21.979Z</time></trkpt><trkpt lat="45.55333455392651" lon="11.248819697752182"><ele>573.25</ele><time>2026-04-25T10:20:22.979Z</time></trkpt><trkpt lat="45.55344611656096" lon="11.248728732009692"><ele>572.5</ele><time>2026-04-25T10:20:23.979Z</time></trkpt><trkpt lat="45.55353505156668" lon="11.24862828090889"><ele>571.75</ele><time>2026-04-25T10:20:24.979Z</time></trkpt><trkpt lat="45.55362720967278" lon="11.248505230562937"><ele>571.0</ele><time>2026-04-25T10:20:25.979Z</time></trkpt><trkpt lat="45.55371005862333" lon="11.248395357003158"><ele>571.0</ele><time>2026-04-25T10:20:26.979Z</time></trkpt><trkpt lat="45.55379392095295" lon="11.24829382122893"><ele>571.0</ele><time>2026-04-25T10:20:27.979Z</time></trkpt><trkpt lat="45.553879322193296" lon="11.248222779820443"><ele>571.0</ele><time>2026-04-25T10:20:28.979Z</time></trkpt><trkpt lat="45.553998432300446" lon="11.24816034061119"><ele>571.0</ele><time>2026-04-25T10:20:29.979Z</time></trkpt><trkpt lat="45.554094412209224" lon="11.248100721900798"><ele>571.0</ele><time>2026-04-25T10:20:30.979Z</time></trkpt><trkpt lat="45.55419930789271" lon="11.248040984802596"><ele>571.5</ele><time>2026-04-25T10:20:31.979Z</time></trkpt><trkpt lat="45.55428655696821" lon="11.247999026450898"><ele>572.0</ele><time>2026-04-25T10:20:32.979Z</time></trkpt><trkpt lat="45.55436426538827" lon="11.247995323252564"><ele>572.5</ele><time>2026-04-25T10:20:33.979Z</time></trkpt><trkpt lat="45.55443911073959" lon="11.247953537388215"><ele>573.0</ele><time>2026-04-25T10:20:34.979Z</time></trkpt><trkpt lat="45.554500263211594" lon="11.247925901034638"><ele>573.5</ele><time>2026-04-25T10:20:35.979Z</time></trkpt><trkpt lat="45.55456507440244" lon="11.247862224832785"><ele>574.0</ele><time>2026-04-25T10:20:36.979Z</time></trkpt><trkpt lat="45.55462882333626" lon="11.247790179848007"><ele>574.0</ele><time>2026-04-25T10:20:37.979Z</time></trkpt><trkpt lat="45.55468951448041" lon="11.247739635793033"><ele>574.0</ele><time>2026-04-25T10:20:38.979Z</time></trkpt><trkpt lat="45.55481165385635" lon="11.247651873245065"><ele>574.0</ele><time>2026-04-25T10:20:40.979Z</time></trkpt><trkpt lat="45.55487525705991" lon="11.247668185579583"><ele>574.0</ele><time>2026-04-25T10:20:41.979Z</time></trkpt><trkpt lat="45.55493827774266" lon="11.24766007013149"><ele>574.0</ele><time>2026-04-25T10:20:42.979Z</time></trkpt><trkpt lat="45.55501580335834" lon="11.247597290452438"><ele>574.0</ele><time>2026-04-25T10:20:43.979Z</time></trkpt><trkpt lat="45.55509037112928" lon="11.247498851732798"><ele>574.0</ele><time>2026-04-25T10:20:44.979Z</time></trkpt><trkpt lat="45.55514614239395" lon="11.247385816125028"><ele>574.0</ele><time>2026-04-25T10:20:45.979Z</time></trkpt><trkpt lat="45.55518776514645" lon="11.24729840998772"><ele>574.0</ele><time>2026-04-25T10:20:46.979Z</time></trkpt><trkpt lat="45.55524928556654" lon="11.247195306229628"><ele>574.0</ele><time>2026-04-25T10:20:47.979Z</time></trkpt><trkpt lat="45.55530964467459" lon="11.24711992534532"><ele>574.0</ele><time>2026-04-25T10:20:48.979Z</time></trkpt><trkpt lat="45.555432107991855" lon="11.24702129467675"><ele>577.2</ele><time>2026-04-25T10:20:50.979Z</time></trkpt><trkpt lat="45.55556476115045" lon="11.246956226661176"><ele>580.4</ele><time>2026-04-25T10:20:51.979Z</time></trkpt><trkpt lat="45.55565860726025" lon="11.246902248725334"><ele>583.6</ele><time>2026-04-25T10:20:52.979Z</time></trkpt><trkpt lat="45.555733694682544" lon="11.246836831268562"><ele>586.8</ele><time>2026-04-25T10:20:53.979Z</time></trkpt><trkpt lat="45.555798689860595" lon="11.24676578903105"><ele>590.0</ele><time>2026-04-25T10:20:54.979Z</time></trkpt><trkpt lat="45.5558591654395" lon="11.246691127110722"><ele>590.0</ele><time>2026-04-25T10:20:55.979Z</time></trkpt><trkpt lat="45.555925219403555" lon="11.246601969254389"><ele>590.0</ele><time>2026-04-25T10:20:56.979Z</time></trkpt><trkpt lat="45.555977573859835" lon="11.24653882722276"><ele>590.0</ele><time>2026-04-25T10:20:57.979Z</time></trkpt><trkpt lat="45.55603306084541" lon="11.246487644076627"><ele>590.0</ele><time>2026-04-25T10:20:58.979Z</time></trkpt><trkpt lat="45.55611167659911" lon="11.246405697238025"><ele>590.0</ele><time>2026-04-25T10:20:59.979Z</time></trkpt><trkpt lat="45.55620331480669" lon="11.246291020371388"><ele>590.0</ele><time>2026-04-25T10:21:01.979Z</time></trkpt><trkpt lat="45.55624898759132" lon="11.246168492575281"><ele>589.5</ele><time>2026-04-25T10:21:03.979Z</time></trkpt><trkpt lat="45.55628708573151" lon="11.24606323242764"><ele>589.0</ele><time>2026-04-25T10:21:04.979Z</time></trkpt><trkpt lat="45.5563257224858" lon="11.245982596309243"><ele>588.5</ele><time>2026-04-25T10:21:05.979Z</time></trkpt><trkpt lat="45.55642223756931" lon="11.245893953800426"><ele>588.0</ele><time>2026-04-25T10:21:07.979Z</time></trkpt><trkpt lat="45.556486222553914" lon="11.245850848258716"><ele>587.5</ele><time>2026-04-25T10:21:08.979Z</time></trkpt><trkpt lat="45.556557996735926" lon="11.245793957277462"><ele>587.0</ele><time>2026-04-25T10:21:09.979Z</time></trkpt><trkpt lat="45.55662522899476" lon="11.245726124447687"><ele>587.0</ele><time>2026-04-25T10:21:10.979Z</time></trkpt><trkpt lat="45.55668554437758" lon="11.245650756343528"><ele>587.0</ele><time>2026-04-25T10:21:11.979Z</time></trkpt><trkpt lat="45.556769513583646" lon="11.245585510089226"><ele>587.0</ele><time>2026-04-25T10:21:13.979Z</time></trkpt><trkpt lat="45.55686814155915" lon="11.245508833484475"><ele>587.0</ele><time>2026-04-25T10:21:15.979Z</time></trkpt><trkpt lat="45.55691682832871" lon="11.245362976792105"><ele>587.0</ele><time>2026-04-25T10:21:17.98Z</time></trkpt><trkpt lat="45.55692320357253" lon="11.245213470670217"><ele>587.2</ele><time>2026-04-25T10:21:19.98Z</time></trkpt><trkpt lat="45.556997957809614" lon="11.245123245743036"><ele>587.4000000000001</ele><time>2026-04-25T10:21:21.979Z</time></trkpt><trkpt lat="45.55706130584783" lon="11.245097241874209"><ele>587.5999999999999</ele><time>2026-04-25T10:21:22.98Z</time></trkpt><trkpt lat="45.5571431293905" lon="11.245055913513566"><ele>587.8</ele><time>2026-04-25T10:21:23.979Z</time></trkpt><trkpt lat="45.557239751814095" lon="11.245037893055697"><ele>588.0</ele><time>2026-04-25T10:21:24.979Z</time></trkpt><trkpt lat="45.55733854671694" lon="11.244991741465526"><ele>588.0</ele><time>2026-04-25T10:21:25.979Z</time></trkpt><trkpt lat="45.55742922285155" lon="11.244967289076222"><ele>588.0</ele><time>2026-04-25T10:21:26.979Z</time></trkpt><trkpt lat="45.55749678437308" lon="11.244966170623256"><ele>588.0</ele><time>2026-04-25T10:21:27.979Z</time></trkpt><trkpt lat="45.557600411135994" lon="11.244922448909609"><ele>588.0</ele><time>2026-04-25T10:21:29.979Z</time></trkpt><trkpt lat="45.55770015034553" lon="11.244927359713847"><ele>588.0</ele><time>2026-04-25T10:21:31.979Z</time></trkpt><trkpt lat="45.55777064671952" lon="11.244922427903965"><ele>588.0</ele><time>2026-04-25T10:21:32.979Z</time></trkpt><trkpt lat="45.55786834382545" lon="11.244898576315457"><ele>587.8</ele><time>2026-04-25T10:21:33.979Z</time></trkpt><trkpt lat="45.557969692722" lon="11.244838303395062"><ele>587.5999999999999</ele><time>2026-04-25T10:21:34.979Z</time></trkpt><trkpt lat="45.55807664033362" lon="11.244794111608275"><ele>587.4000000000001</ele><time>2026-04-25T10:21:35.979Z</time></trkpt><trkpt lat="45.55818372860714" lon="11.244765496674562"><ele>587.2</ele><time>2026-04-25T10:21:36.979Z</time></trkpt><trkpt lat="45.55828409821184" lon="11.244717392653467"><ele>587.0</ele><time>2026-04-25T10:21:37.979Z</time></trkpt><trkpt lat="45.55837341374664" lon="11.24467635710543"><ele>587.0</ele><time>2026-04-25T10:21:39.979Z</time></trkpt><trkpt lat="45.558493315046576" lon="11.244669343194305"><ele>587.0</ele><time>2026-04-25T10:21:41.979Z</time></trkpt><trkpt lat="45.55855408593775" lon="11.244638961070235"><ele>587.0</ele><time>2026-04-25T10:21:42.979Z</time></trkpt><trkpt lat="45.558630686884875" lon="11.24460273710414"><ele>587.0</ele><time>2026-04-25T10:21:43.979Z</time></trkpt><trkpt lat="45.558703790874475" lon="11.244571665606784"><ele>587.0</ele><time>2026-04-25T10:21:44.979Z</time></trkpt><trkpt lat="45.558761362323516" lon="11.244534422853377"><ele>587.0</ele><time>2026-04-25T10:21:45.979Z</time></trkpt><trkpt lat="45.55887132576542" lon="11.24450554859218"><ele>586.2</ele><time>2026-04-25T10:21:47.979Z</time></trkpt><trkpt lat="45.55894272005837" lon="11.244416527904175"><ele>585.4000000000001</ele><time>2026-04-25T10:21:49.979Z</time></trkpt><trkpt lat="45.558995627863574" lon="11.244339843473862"><ele>584.5999999999999</ele><time>2026-04-25T10:21:51.979Z</time></trkpt><trkpt lat="45.55912869361633" lon="11.244293408712814"><ele>583.8</ele><time>2026-04-25T10:21:55.979Z</time></trkpt><trkpt lat="45.55922759925626" lon="11.244316337244381"><ele>583.0</ele><time>2026-04-25T10:21:57.979Z</time></trkpt><trkpt lat="45.55930022319073" lon="11.244306573260458"><ele>583.0</ele><time>2026-04-25T10:21:59.979Z</time></trkpt><trkpt lat="45.55935153631361" lon="11.244218810835703"><ele>583.0</ele><time>2026-04-25T10:22:01.979Z</time></trkpt><trkpt lat="45.559502016584354" lon="11.244160268630797"><ele>583.0</ele><time>2026-04-25T10:22:03.979Z</time></trkpt><trkpt lat="45.5596250574168" lon="11.244160171246238"><ele>583.0</ele><time>2026-04-25T10:22:04.979Z</time></trkpt><trkpt lat="45.55975352096311" lon="11.244158999831214"><ele>580.25</ele><time>2026-04-25T10:22:05.979Z</time></trkpt><trkpt lat="45.55986639227608" lon="11.244135911847883"><ele>577.5</ele><time>2026-04-25T10:22:06.979Z</time></trkpt><trkpt lat="45.5599711422391" lon="11.244120868922566"><ele>574.75</ele><time>2026-04-25T10:22:07.979Z</time></trkpt><trkpt lat="45.56007974407487" lon="11.2441015627519"><ele>572.0</ele><time>2026-04-25T10:22:08.979Z</time></trkpt><trkpt lat="45.560215421803385" lon="11.244080158721724"><ele>572.0</ele><time>2026-04-25T10:22:09.979Z</time></trkpt><trkpt lat="45.56033547627341" lon="11.243972358727822"><ele>572.0</ele><time>2026-04-25T10:22:10.979Z</time></trkpt><trkpt lat="45.56042900275613" lon="11.243860660827153"><ele>572.0</ele><time>2026-04-25T10:22:11.979Z</time></trkpt><trkpt lat="45.560517230192936" lon="11.243744266577403"><ele>572.0</ele><time>2026-04-25T10:22:12.979Z</time></trkpt><trkpt lat="45.5605867723328" lon="11.24363711281164"><ele>571.6666666666666</ele><time>2026-04-25T10:22:13.979Z</time></trkpt><trkpt lat="45.56066035233049" lon="11.243509732113566"><ele>571.3333333333333</ele><time>2026-04-25T10:22:14.979Z</time></trkpt><trkpt lat="45.56071047200554" lon="11.243413275065421"><ele>571.0</ele><time>2026-04-25T10:22:15.979Z</time></trkpt><trkpt lat="45.56077474767948" lon="11.243332820692784"><ele>570.6666666666666</ele><time>2026-04-25T10:22:16.979Z</time></trkpt><trkpt lat="45.560840396815024" lon="11.243318852438462"><ele>570.3333333333334</ele><time>2026-04-25T10:22:17.979Z</time></trkpt><trkpt lat="45.56090685970409" lon="11.243287205304219"><ele>570.0</ele><time>2026-04-25T10:22:18.979Z</time></trkpt><trkpt lat="45.56101238344121" lon="11.243204183437154"><ele>570.8333333333334</ele><time>2026-04-25T10:22:20.979Z</time></trkpt><trkpt lat="45.56110251868189" lon="11.243098895943092"><ele>571.6666666666666</ele><time>2026-04-25T10:22:22.979Z</time></trkpt><trkpt lat="45.56115527576907" lon="11.243044853005904"><ele>572.5</ele><time>2026-04-25T10:22:25.979Z</time></trkpt><trkpt lat="45.56121752791205" lon="11.243022261894259"><ele>573.3333333333333</ele><time>2026-04-25T10:22:26.979Z</time></trkpt><trkpt lat="45.56128370545345" lon="11.243016771424667"><ele>574.1666666666666</ele><time>2026-04-25T10:22:27.979Z</time></trkpt><trkpt lat="45.56137335237514" lon="11.243018403833224"><ele>575.0</ele><time>2026-04-25T10:22:29.979Z</time></trkpt><trkpt lat="45.561517487722945" lon="11.242976479797404"><ele>572.6666666666666</ele><time>2026-04-25T10:22:34.979Z</time></trkpt><trkpt lat="45.56159459263155" lon="11.243011736045121"><ele>570.3333333333333</ele><time>2026-04-25T10:22:37.979Z</time></trkpt><trkpt lat="45.561651221944864" lon="11.243118731918766"><ele>568.0</ele><time>2026-04-25T10:22:42.979Z</time></trkpt><trkpt lat="45.56168339518473" lon="11.243223101645093"><ele>565.6666666666666</ele><time>2026-04-25T10:22:45.979Z</time></trkpt><trkpt lat="45.5617550945928" lon="11.243326705453896"><ele>563.3333333333334</ele><time>2026-04-25T10:22:47.979Z</time></trkpt><trkpt lat="45.561727374164626" lon="11.243419295280132"><ele>561.0</ele><time>2026-04-25T10:22:49.979Z</time></trkpt><trkpt lat="45.561738025002924" lon="11.243517450479235"><ele>559.75</ele><time>2026-04-25T10:22:52.979Z</time></trkpt><trkpt lat="45.5618635152125" lon="11.243537309784452"><ele>558.5</ele><time>2026-04-25T10:22:54.979Z</time></trkpt><trkpt lat="45.56191488717691" lon="11.243606144090933"><ele>557.25</ele><time>2026-04-25T10:22:55.979Z</time></trkpt><trkpt lat="45.56197720036579" lon="11.243655869004176"><ele>556.0</ele><time>2026-04-25T10:22:56.979Z</time></trkpt><trkpt lat="45.56219846946217" lon="11.243713240305349"><ele>556.0</ele><time>2026-04-25T10:23:01.979Z</time></trkpt><trkpt lat="45.56214183580045" lon="11.243796969162085"><ele>556.0</ele><time>2026-04-25T10:23:03.979Z</time></trkpt><trkpt lat="45.562070570344076" lon="11.243863224146944"><ele>556.0</ele><time>2026-04-25T10:23:05.978Z</time></trkpt><trkpt lat="45.562024269136515" lon="11.243929961301136"><ele>556.0</ele><time>2026-04-25T10:23:06.978Z</time></trkpt><trkpt lat="45.561977194870195" lon="11.244088575050846"><ele>556.0</ele><time>2026-04-25T10:23:08.978Z</time></trkpt><trkpt lat="45.561900872908076" lon="11.244173306459894"><ele>552.8</ele><time>2026-04-25T10:23:10.978Z</time></trkpt><trkpt lat="45.56184583076471" lon="11.244292306614833"><ele>549.6</ele><time>2026-04-25T10:23:12.978Z</time></trkpt><trkpt lat="45.56182052209218" lon="11.244450920773206"><ele>546.4</ele><time>2026-04-25T10:23:14.978Z</time></trkpt><trkpt lat="45.56183067024648" lon="11.244605343887171"><ele>543.2</ele><time>2026-04-25T10:23:15.978Z</time></trkpt><trkpt lat="45.561843359026106" lon="11.244753500227738"><ele>540.0</ele><time>2026-04-25T10:23:16.978Z</time></trkpt><trkpt lat="45.56186320100321" lon="11.244896415974495"><ele>536.8</ele><time>2026-04-25T10:23:17.978Z</time></trkpt><trkpt lat="45.56188033558435" lon="11.245046401501702"><ele>533.6</ele><time>2026-04-25T10:23:18.978Z</time></trkpt><trkpt lat="45.56188682920294" lon="11.245184740529544"><ele>530.4</ele><time>2026-04-25T10:23:19.978Z</time></trkpt><trkpt lat="45.561882026394144" lon="11.24529297024585"><ele>527.2</ele><time>2026-04-25T10:23:20.978Z</time></trkpt><trkpt lat="45.5618805230111" lon="11.245387693427112"><ele>524.0</ele><time>2026-04-25T10:23:21.978Z</time></trkpt><trkpt lat="45.56188257561581" lon="11.245557047754284"><ele>522.8333333333333</ele><time>2026-04-25T10:23:23.978Z</time></trkpt><trkpt lat="45.56189523615468" lon="11.245647032279743"><ele>521.6666666666666</ele><time>2026-04-25T10:23:25.979Z</time></trkpt><trkpt lat="45.56188653954689" lon="11.24575798253212"><ele>520.5</ele><time>2026-04-25T10:23:27.979Z</time></trkpt><trkpt lat="45.561811941471504" lon="11.245863751273946"><ele>519.3333333333334</ele><time>2026-04-25T10:23:29.978Z</time></trkpt><trkpt lat="45.561740443005284" lon="11.245972546150538"><ele>518.1666666666667</ele><time>2026-04-25T10:23:31.979Z</time></trkpt><trkpt lat="45.56170984215405" lon="11.24610183176833"><ele>517.0</ele><time>2026-04-25T10:23:33.978Z</time></trkpt><trkpt lat="45.561655931642946" lon="11.24624738771808"><ele>517.0</ele><time>2026-04-25T10:23:35.978Z</time></trkpt><trkpt lat="45.56163791333334" lon="11.246404720174244"><ele>517.0</ele><time>2026-04-25T10:23:37.978Z</time></trkpt><trkpt lat="45.561690823895226" lon="11.24648172666081"><ele>517.0</ele><time>2026-04-25T10:23:38.978Z</time></trkpt><trkpt lat="45.56176301413645" lon="11.246535413237854"><ele>517.0</ele><time>2026-04-25T10:23:39.978Z</time></trkpt><trkpt lat="45.56183855448623" lon="11.246555819471837"><ele>517.0</ele><time>2026-04-25T10:23:40.978Z</time></trkpt><trkpt lat="45.56192486158722" lon="11.246548156996347"><ele>517.0</ele><time>2026-04-25T10:23:41.978Z</time></trkpt><trkpt lat="45.56202792397893" lon="11.246528803456673"><ele>515.3333333333334</ele><time>2026-04-25T10:23:42.978Z</time></trkpt><trkpt lat="45.56212982149265" lon="11.246505581552169"><ele>513.6666666666667</ele><time>2026-04-25T10:23:43.978Z</time></trkpt><trkpt lat="45.56220225028912" lon="11.246476901634702"><ele>512.0</ele><time>2026-04-25T10:23:44.978Z</time></trkpt><trkpt lat="45.562257943175275" lon="11.246406615085393"><ele>510.33333333333337</ele><time>2026-04-25T10:23:46.978Z</time></trkpt><trkpt lat="45.56221593829731" lon="11.246248686040472"><ele>508.6666666666667</ele><time>2026-04-25T10:23:48.978Z</time></trkpt><trkpt lat="45.56225646681246" lon="11.246161479788343"><ele>507.0</ele><time>2026-04-25T10:23:50.978Z</time></trkpt><trkpt lat="45.56232226373875" lon="11.246158543561583"><ele>507.0</ele><time>2026-04-25T10:23:51.978Z</time></trkpt><trkpt lat="45.56239824178891" lon="11.246200957195105"><ele>507.00000000000006</ele><time>2026-04-25T10:23:52.978Z</time></trkpt><trkpt lat="45.56248780512888" lon="11.24628910431652"><ele>507.00000000000006</ele><time>2026-04-25T10:23:53.978Z</time></trkpt><trkpt lat="45.56259932025254" lon="11.246320795289328"><ele>507.0</ele><time>2026-04-25T10:23:54.978Z</time></trkpt><trkpt lat="45.562689958923485" lon="11.246390752380163"><ele>507.0</ele><time>2026-04-25T10:23:55.978Z</time></trkpt><trkpt lat="45.562762990833924" lon="11.246448101145273"><ele>506.8333333333333</ele><time>2026-04-25T10:23:56.978Z</time></trkpt><trkpt lat="45.562829540524156" lon="11.246467809806024"><ele>506.66666666666663</ele><time>2026-04-25T10:23:57.978Z</time></trkpt><trkpt lat="45.56289586830573" lon="11.246482652342666"><ele>506.5</ele><time>2026-04-25T10:23:58.978Z</time></trkpt><trkpt lat="45.56298897116752" lon="11.246522728257519"><ele>506.3333333333333</ele><time>2026-04-25T10:24:00.978Z</time></trkpt><trkpt lat="45.56308759967891" lon="11.246560144385466"><ele>506.16666666666663</ele><time>2026-04-25T10:24:02.978Z</time></trkpt><trkpt lat="45.563165934527596" lon="11.246570869929839"><ele>506.0</ele><time>2026-04-25T10:24:03.978Z</time></trkpt><trkpt lat="45.563255581767" lon="11.246528408820824"><ele>507.75</ele><time>2026-04-25T10:24:04.978Z</time></trkpt><trkpt lat="45.5633215650636" lon="11.246440692327589"><ele>509.5</ele><time>2026-04-25T10:24:05.978Z</time></trkpt><trkpt lat="45.56335660922153" lon="11.246298077426042"><ele>511.25</ele><time>2026-04-25T10:24:07.978Z</time></trkpt><trkpt lat="45.56339808499515" lon="11.246224290198795"><ele>513.0</ele><time>2026-04-25T10:24:09.978Z</time></trkpt><trkpt lat="45.56368432965091" lon="11.246227654888918"><ele>511.0</ele><time>2026-04-25T10:24:13.978Z</time></trkpt><trkpt lat="45.563761476935035" lon="11.246161476446185"><ele>508.99999999999994</ele><time>2026-04-25T10:24:14.978Z</time></trkpt><trkpt lat="45.5638559362538" lon="11.246118245647466"><ele>506.99999999999994</ele><time>2026-04-25T10:24:15.978Z</time></trkpt><trkpt lat="45.56394840959322" lon="11.246102224427847"><ele>505.0</ele><time>2026-04-25T10:24:16.978Z</time></trkpt><trkpt lat="45.564042997956115" lon="11.246108414326503"><ele>503.0</ele><time>2026-04-25T10:24:17.978Z</time></trkpt><trkpt lat="45.56413875489622" lon="11.24612489137585"><ele>503.0</ele><time>2026-04-25T10:24:18.978Z</time></trkpt><trkpt lat="45.56421338930077" lon="11.246144732913779"><ele>503.0</ele><time>2026-04-25T10:24:19.978Z</time></trkpt><trkpt lat="45.5643003766219" lon="11.246146723391577"><ele>503.0</ele><time>2026-04-25T10:24:20.978Z</time></trkpt><trkpt lat="45.56441404913812" lon="11.246134659094418"><ele>503.0</ele><time>2026-04-25T10:24:21.978Z</time></trkpt><trkpt lat="45.56464696603603" lon="11.246102484678854"><ele>502.59999999999997</ele><time>2026-04-25T10:24:23.978Z</time></trkpt><trkpt lat="45.56474752551044" lon="11.246091452542107"><ele>502.19999999999993</ele><time>2026-04-25T10:24:24.978Z</time></trkpt><trkpt lat="45.56483185628645" lon="11.246055499338631"><ele>501.8</ele><time>2026-04-25T10:24:25.978Z</time></trkpt><trkpt lat="45.56491599147545" lon="11.246048418237159"><ele>501.4</ele><time>2026-04-25T10:24:26.978Z</time></trkpt><trkpt lat="45.56503759100932" lon="11.246098603314742"><ele>501.0</ele><time>2026-04-25T10:24:28.978Z</time></trkpt><trkpt lat="45.56510263521171" lon="11.246112513568777"><ele>501.0</ele><time>2026-04-25T10:24:29.978Z</time></trkpt><trkpt lat="45.565153349602305" lon="11.246169250126997"><ele>501.0</ele><time>2026-04-25T10:24:30.978Z</time></trkpt><trkpt lat="45.565220954365905" lon="11.246272424200184"><ele>501.0</ele><time>2026-04-25T10:24:31.978Z</time></trkpt><trkpt lat="45.56531423320055" lon="11.246358443624842"><ele>501.0</ele><time>2026-04-25T10:24:32.978Z</time></trkpt><trkpt lat="45.56539572976762" lon="11.24638915127183"><ele>501.0</ele><time>2026-04-25T10:24:33.978Z</time></trkpt><trkpt lat="45.56546393381055" lon="11.246420096359806"><ele>501.0</ele><time>2026-04-25T10:24:34.978Z</time></trkpt><trkpt lat="45.565536885136" lon="11.24643992234334"><ele>498.0</ele><time>2026-04-25T10:24:35.978Z</time></trkpt><trkpt lat="45.56561693070251" lon="11.2465033428953"><ele>495.0</ele><time>2026-04-25T10:24:36.978Z</time></trkpt><trkpt lat="45.56568699855972" lon="11.24659704877862"><ele>492.0</ele><time>2026-04-25T10:24:37.978Z</time></trkpt><trkpt lat="45.565752919476886" lon="11.246753598869544"><ele>489.0</ele><time>2026-04-25T10:24:39.978Z</time></trkpt><trkpt lat="45.56585317504341" lon="11.246840577676796"><ele>486.0</ele><time>2026-04-25T10:24:40.978Z</time></trkpt><trkpt lat="45.56595421105674" lon="11.246949545933095"><ele>486.0</ele><time>2026-04-25T10:24:41.978Z</time></trkpt><trkpt lat="45.56602674141933" lon="11.247063788234833"><ele>486.0</ele><time>2026-04-25T10:24:42.977Z</time></trkpt><trkpt lat="45.566095425189786" lon="11.2471600586202"><ele>486.0</ele><time>2026-04-25T10:24:43.977Z</time></trkpt><trkpt lat="45.56616921506746" lon="11.247252975080727"><ele>486.0</ele><time>2026-04-25T10:24:44.977Z</time></trkpt><trkpt lat="45.56624750435437" lon="11.247338357016998"><ele>486.0</ele><time>2026-04-25T10:24:45.977Z</time></trkpt><trkpt lat="45.566317891343225" lon="11.247405431781177"><ele>484.20000000000005</ele><time>2026-04-25T10:24:46.977Z</time></trkpt><trkpt lat="45.56641340061287" lon="11.247460191627177"><ele>482.40000000000003</ele><time>2026-04-25T10:24:47.977Z</time></trkpt><trkpt lat="45.56649594286898" lon="11.247537473559774"><ele>480.6</ele><time>2026-04-25T10:24:48.977Z</time></trkpt><trkpt lat="45.56658297576835" lon="11.24758682516927"><ele>478.8</ele><time>2026-04-25T10:24:49.977Z</time></trkpt><trkpt lat="45.566669687294976" lon="11.24762364821243"><ele>477.0</ele><time>2026-04-25T10:24:50.977Z</time></trkpt><trkpt lat="45.566751066084564" lon="11.247650138839935"><ele>477.0</ele><time>2026-04-25T10:24:51.977Z</time></trkpt><trkpt lat="45.566814106669256" lon="11.247648832275459"><ele>477.0</ele><time>2026-04-25T10:24:52.977Z</time></trkpt><trkpt lat="45.56687434351954" lon="11.247603290383294"><ele>477.0</ele><time>2026-04-25T10:24:53.977Z</time></trkpt><trkpt lat="45.56698606204384" lon="11.2475170903224"><ele>477.0</ele><time>2026-04-25T10:24:55.977Z</time></trkpt><trkpt lat="45.567059625743774" lon="11.247483836674089"><ele>477.0</ele><time>2026-04-25T10:24:56.977Z</time></trkpt><trkpt lat="45.56715009291706" lon="11.247483658064239"><ele>477.0</ele><time>2026-04-25T10:24:57.977Z</time></trkpt><trkpt lat="45.567251844539" lon="11.247441792184976"><ele>478.40000000000003</ele><time>2026-04-25T10:24:58.977Z</time></trkpt><trkpt lat="45.56734049669563" lon="11.24732645374239"><ele>479.80000000000007</ele><time>2026-04-25T10:24:59.977Z</time></trkpt><trkpt lat="45.56742390957753" lon="11.247248242942975"><ele>481.2</ele><time>2026-04-25T10:25:00.977Z</time></trkpt><trkpt lat="45.567490294758" lon="11.247197083479133"><ele>482.6</ele><time>2026-04-25T10:25:01.977Z</time></trkpt><trkpt lat="45.567537293714764" lon="11.247100575352752"><ele>484.0</ele><time>2026-04-25T10:25:02.977Z</time></trkpt><trkpt lat="45.56758267974008" lon="11.246979028134126"><ele>484.0</ele><time>2026-04-25T10:25:03.977Z</time></trkpt><trkpt lat="45.56764801505058" lon="11.246821643929408"><ele>484.0</ele><time>2026-04-25T10:25:04.977Z</time></trkpt><trkpt lat="45.567734134769246" lon="11.246680248334366"><ele>484.0</ele><time>2026-04-25T10:25:05.977Z</time></trkpt><trkpt lat="45.56784129028848" lon="11.24654485876571"><ele>484.0</ele><time>2026-04-25T10:25:06.977Z</time></trkpt><trkpt lat="45.56790450122964" lon="11.24644575828603"><ele>482.2</ele><time>2026-04-25T10:25:07.977Z</time></trkpt><trkpt lat="45.56796525592201" lon="11.246400264645857"><ele>480.4</ele><time>2026-04-25T10:25:09.977Z</time></trkpt><trkpt lat="45.56803235747025" lon="11.246470806762153"><ele>478.6</ele><time>2026-04-25T10:25:11.977Z</time></trkpt><trkpt lat="45.56811943275909" lon="11.246606008564537"><ele>476.8</ele><time>2026-04-25T10:25:13.977Z</time></trkpt><trkpt lat="45.56820973037656" lon="11.246689998868185"><ele>475.0</ele><time>2026-04-25T10:25:14.977Z</time></trkpt><trkpt lat="45.568306437133955" lon="11.246750035845677"><ele>473.75</ele><time>2026-04-25T10:25:15.977Z</time></trkpt><trkpt lat="45.56840919394092" lon="11.246812499375688"><ele>472.5</ele><time>2026-04-25T10:25:16.977Z</time></trkpt><trkpt lat="45.56854867239259" lon="11.2468874136115"><ele>471.25</ele><time>2026-04-25T10:25:17.977Z</time></trkpt><trkpt lat="45.56867994863658" lon="11.24695526639825"><ele>470.0</ele><time>2026-04-25T10:25:18.977Z</time></trkpt><trkpt lat="45.56878943513845" lon="11.247012678546453"><ele>470.0</ele><time>2026-04-25T10:25:19.977Z</time></trkpt><trkpt lat="45.56889190291006" lon="11.247093032485715"><ele>470.0</ele><time>2026-04-25T10:25:20.977Z</time></trkpt><trkpt lat="45.56896179686036" lon="11.247210629681328"><ele>470.0</ele><time>2026-04-25T10:25:21.977Z</time></trkpt><trkpt lat="45.56904768660612" lon="11.247334031088036"><ele>470.0</ele><time>2026-04-25T10:25:22.977Z</time></trkpt><trkpt lat="45.56913687820185" lon="11.247461269143392"><ele>467.8</ele><time>2026-04-25T10:25:23.977Z</time></trkpt><trkpt lat="45.56921362704665" lon="11.247550318495671"><ele>465.6</ele><time>2026-04-25T10:25:24.977Z</time></trkpt><trkpt lat="45.56927668027263" lon="11.247600591363582"><ele>463.4</ele><time>2026-04-25T10:25:25.977Z</time></trkpt><trkpt lat="45.56935922127599" lon="11.247674729743778"><ele>461.2</ele><time>2026-04-25T10:25:26.977Z</time></trkpt><trkpt lat="45.56944006401383" lon="11.247786482887673"><ele>459.0</ele><time>2026-04-25T10:25:27.977Z</time></trkpt><trkpt lat="45.56952387427066" lon="11.247829117379773"><ele>461.2</ele><time>2026-04-25T10:25:28.978Z</time></trkpt><trkpt lat="45.569591944658676" lon="11.247849461094823"><ele>463.4</ele><time>2026-04-25T10:25:29.979Z</time></trkpt><trkpt lat="45.569676449042895" lon="11.247833657657026"><ele>465.6</ele><time>2026-04-25T10:25:31.979Z</time></trkpt><trkpt lat="45.56978461349025" lon="11.247824223073819"><ele>467.8</ele><time>2026-04-25T10:25:33.978Z</time></trkpt><trkpt lat="45.56991038970504" lon="11.24785329645201"><ele>470.0</ele><time>2026-04-25T10:25:35.978Z</time></trkpt><trkpt lat="45.56997615585967" lon="11.24789006674727"><ele>469.99999999999994</ele><time>2026-04-25T10:25:36.978Z</time></trkpt><trkpt lat="45.57003151425297" lon="11.247958149732991"><ele>470.0</ele><time>2026-04-25T10:25:37.979Z</time></trkpt><trkpt lat="45.57010442305005" lon="11.247990721333444"><ele>470.0</ele><time>2026-04-25T10:25:38.978Z</time></trkpt><trkpt lat="45.57017709213469" lon="11.24804291262609"><ele>470.0</ele><time>2026-04-25T10:25:39.978Z</time></trkpt><trkpt lat="45.57023949017544" lon="11.248109568007273"><ele>469.99999999999994</ele><time>2026-04-25T10:25:40.979Z</time></trkpt><trkpt lat="45.5702967587252" lon="11.248201985984666"><ele>470.0</ele><time>2026-04-25T10:25:41.978Z</time></trkpt><trkpt lat="45.57032348556976" lon="11.248314179491176"><ele>468.6</ele><time>2026-04-25T10:25:42.978Z</time></trkpt><trkpt lat="45.570355636281946" lon="11.248426178427714"><ele>467.2</ele><time>2026-04-25T10:25:43.978Z</time></trkpt><trkpt lat="45.57038261660485" lon="11.24851708431218"><ele>465.79999999999995</ele><time>2026-04-25T10:25:44.978Z</time></trkpt><trkpt lat="45.5704194671102" lon="11.248660141422185"><ele>464.4</ele><time>2026-04-25T10:25:45.978Z</time></trkpt><trkpt lat="45.57044387456307" lon="11.248800570269598"><ele>463.0</ele><time>2026-04-25T10:25:46.978Z</time></trkpt><trkpt lat="45.57046249870263" lon="11.248931266396445"><ele>463.0</ele><time>2026-04-25T10:25:47.978Z</time></trkpt><trkpt lat="45.570491862039894" lon="11.249041722845018"><ele>462.99999999999994</ele><time>2026-04-25T10:25:48.978Z</time></trkpt><trkpt lat="45.57052309133839" lon="11.249124040577948"><ele>462.99999999999994</ele><time>2026-04-25T10:25:49.978Z</time></trkpt><trkpt lat="45.570693214777556" lon="11.24906005784383"><ele>463.0</ele><time>2026-04-25T10:25:53.978Z</time></trkpt><trkpt lat="45.570736027866104" lon="11.248989981464144"><ele>463.0</ele><time>2026-04-25T10:25:54.978Z</time></trkpt><trkpt lat="45.57082411046778" lon="11.248922737731599"><ele>463.0</ele><time>2026-04-25T10:25:55.978Z</time></trkpt><trkpt lat="45.570877785900564" lon="11.24885558783868"><ele>462.99999999999994</ele><time>2026-04-25T10:25:56.978Z</time></trkpt><trkpt lat="45.570952624111484" lon="11.248765177157228"><ele>462.99999999999994</ele><time>2026-04-25T10:25:57.978Z</time></trkpt><trkpt lat="45.5710276330237" lon="11.248669242910225"><ele>463.0</ele><time>2026-04-25T10:25:58.978Z</time></trkpt><trkpt lat="45.571092517343345" lon="11.248581136692488"><ele>463.0</ele><time>2026-04-25T10:25:59.978Z</time></trkpt><trkpt lat="45.57116353492304" lon="11.248493533175898"><ele>464.0</ele><time>2026-04-25T10:26:00.978Z</time></trkpt><trkpt lat="45.57123941558285" lon="11.248374404453559"><ele>465.0</ele><time>2026-04-25T10:26:01.978Z</time></trkpt><trkpt lat="45.57132421983562" lon="11.248237528691678"><ele>466.0</ele><time>2026-04-25T10:26:02.978Z</time></trkpt><trkpt lat="45.57141167891952" lon="11.248113468389345"><ele>467.0</ele><time>2026-04-25T10:26:03.978Z</time></trkpt><trkpt lat="45.57149327605964" lon="11.247970753635158"><ele>468.75</ele><time>2026-04-25T10:26:04.978Z</time></trkpt><trkpt lat="45.571599714193496" lon="11.24782740030764"><ele>470.5</ele><time>2026-04-25T10:26:05.978Z</time></trkpt><trkpt lat="45.57170781538936" lon="11.247689734322956"><ele>472.25</ele><time>2026-04-25T10:26:06.978Z</time></trkpt><trkpt lat="45.57182610137173" lon="11.247563300087242"><ele>474.0</ele><time>2026-04-25T10:26:07.978Z</time></trkpt><trkpt lat="45.57194193265747" lon="11.24744893099197"><ele>474.33333333333337</ele><time>2026-04-25T10:26:08.978Z</time></trkpt><trkpt lat="45.57207805600989" lon="11.247355985153852"><ele>474.6666666666667</ele><time>2026-04-25T10:26:09.978Z</time></trkpt><trkpt lat="45.57221050903995" lon="11.247254195460728"><ele>475.0</ele><time>2026-04-25T10:26:10.978Z</time></trkpt><trkpt lat="45.57233752753381" lon="11.24712964875358"><ele>477.25</ele><time>2026-04-25T10:26:11.978Z</time></trkpt><trkpt lat="45.57245948688761" lon="11.247008775410347"><ele>479.5</ele><time>2026-04-25T10:26:12.978Z</time></trkpt><trkpt lat="45.5725526163425" lon="11.246882135924972"><ele>481.75</ele><time>2026-04-25T10:26:13.978Z</time></trkpt><trkpt lat="45.57266771640108" lon="11.246743605447357"><ele>484.0</ele><time>2026-04-25T10:26:14.978Z</time></trkpt><trkpt lat="45.57276843119893" lon="11.2466155791919"><ele>485.0</ele><time>2026-04-25T10:26:15.978Z</time></trkpt><trkpt lat="45.57287075232293" lon="11.246488626426633"><ele>486.0</ele><time>2026-04-25T10:26:16.978Z</time></trkpt><trkpt lat="45.57297768477792" lon="11.246381554273954"><ele>487.0</ele><time>2026-04-25T10:26:17.978Z</time></trkpt><trkpt lat="45.5730692363507" lon="11.24622803581718"><ele>488.0</ele><time>2026-04-25T10:26:18.978Z</time></trkpt><trkpt lat="45.57315394579345" lon="11.246087399945896"><ele>490.0</ele><time>2026-04-25T10:26:19.978Z</time></trkpt><trkpt lat="45.573212993583155" lon="11.245915888161928"><ele>492.0</ele><time>2026-04-25T10:26:20.978Z</time></trkpt><trkpt lat="45.5732615877331" lon="11.245734171634632"><ele>494.0</ele><time>2026-04-25T10:26:21.978Z</time></trkpt><trkpt lat="45.57330920449402" lon="11.245578500577912"><ele>496.0</ele><time>2026-04-25T10:26:22.978Z</time></trkpt><trkpt lat="45.57336185544393" lon="11.24548725673712"><ele>496.00000000000006</ele><time>2026-04-25T10:26:23.978Z</time></trkpt><trkpt lat="45.573432299731074" lon="11.245450351456197"><ele>496.0</ele><time>2026-04-25T10:26:24.978Z</time></trkpt><trkpt lat="45.57351790027963" lon="11.245494166547905"><ele>496.0</ele><time>2026-04-25T10:26:25.978Z</time></trkpt><trkpt lat="45.57359583126192" lon="11.245583661693306"><ele>496.0</ele><time>2026-04-25T10:26:26.978Z</time></trkpt><trkpt lat="45.57363282190262" lon="11.245675134220235"><ele>496.00000000000006</ele><time>2026-04-25T10:26:27.978Z</time></trkpt><trkpt lat="45.5736334332673" lon="11.245785346192548"><ele>496.0</ele><time>2026-04-25T10:26:28.978Z</time></trkpt><trkpt lat="45.57364284396701" lon="11.245910502602303"><ele>496.00000000000006</ele><time>2026-04-25T10:26:29.978Z</time></trkpt><trkpt lat="45.57368372563526" lon="11.246031352831768"><ele>496.0</ele><time>2026-04-25T10:26:30.978Z</time></trkpt><trkpt lat="45.57374427583562" lon="11.246132086259275"><ele>496.0</ele><time>2026-04-25T10:26:31.978Z</time></trkpt><trkpt lat="45.57380899705546" lon="11.24619875157465"><ele>496.0</ele><time>2026-04-25T10:26:32.978Z</time></trkpt><trkpt lat="45.57390082409167" lon="11.246237628082795"><ele>496.00000000000006</ele><time>2026-04-25T10:26:33.978Z</time></trkpt><trkpt lat="45.57398699929156" lon="11.246244054665665"><ele>496.0</ele><time>2026-04-25T10:26:34.978Z</time></trkpt><trkpt lat="45.57409228402639" lon="11.246227174528803"><ele>498.00000000000006</ele><time>2026-04-25T10:26:36.978Z</time></trkpt><trkpt lat="45.5741358623191" lon="11.246089345372551"><ele>500.0</ele><time>2026-04-25T10:26:38.978Z</time></trkpt><trkpt lat="45.57410789484477" lon="11.245993589916218"><ele>502.0</ele><time>2026-04-25T10:26:39.978Z</time></trkpt><trkpt lat="45.574078166042526" lon="11.245885453197866"><ele>504.0</ele><time>2026-04-25T10:26:40.978Z</time></trkpt><trkpt lat="45.574047062759185" lon="11.245802270124157"><ele>506.00000000000006</ele><time>2026-04-25T10:26:41.978Z</time></trkpt><trkpt lat="45.574009504050295" lon="11.245696659960352"><ele>508.0</ele><time>2026-04-25T10:26:42.977Z</time></trkpt><trkpt lat="45.57398808183127" lon="11.245605541703673"><ele>509.2</ele><time>2026-04-25T10:26:43.977Z</time></trkpt><trkpt lat="45.57396964571208" lon="11.24551804438056"><ele>510.4</ele><time>2026-04-25T10:26:44.977Z</time></trkpt><trkpt lat="45.57397807293489" lon="11.245400013492246"><ele>511.59999999999997</ele><time>2026-04-25T10:26:46.977Z</time></trkpt><trkpt lat="45.57409586047053" lon="11.245344220976298"><ele>512.8</ele><time>2026-04-25T10:26:48.976Z</time></trkpt><trkpt lat="45.5742367331154" lon="11.24539685927856"><ele>514.0</ele><time>2026-04-25T10:26:50.976Z</time></trkpt><trkpt lat="45.57430570218731" lon="11.24543129164673"><ele>514.0</ele><time>2026-04-25T10:26:51.976Z</time></trkpt><trkpt lat="45.57437206658258" lon="11.245462732961109"><ele>514.0</ele><time>2026-04-25T10:26:53.976Z</time></trkpt><trkpt lat="45.574434424299106" lon="11.245509610026689"><ele>514.0</ele><time>2026-04-25T10:26:55.976Z</time></trkpt><trkpt lat="45.574504103577894" lon="11.245556392881284"><ele>514.0</ele><time>2026-04-25T10:26:58.975Z</time></trkpt><trkpt lat="45.574648609936446" lon="11.245556406718018"><ele>514.0</ele><time>2026-04-25T10:27:00.975Z</time></trkpt><trkpt lat="45.5747429621278" lon="11.245505522940734"><ele>516.5</ele><time>2026-04-25T10:27:01.975Z</time></trkpt><trkpt lat="45.57480346235777" lon="11.245424402494516"><ele>519.0</ele><time>2026-04-25T10:27:02.975Z</time></trkpt><trkpt lat="45.574834064821076" lon="11.245344767011662"><ele>521.5</ele><time>2026-04-25T10:27:03.975Z</time></trkpt><trkpt lat="45.57480027618982" lon="11.245248021407438"><ele>524.0</ele><time>2026-04-25T10:27:05.975Z</time></trkpt><trkpt lat="45.57479620698288" lon="11.24515383513311"><ele>526.5</ele><time>2026-04-25T10:27:07.975Z</time></trkpt><trkpt lat="45.57483942576367" lon="11.245021848259544"><ele>529.0</ele><time>2026-04-25T10:27:10.975Z</time></trkpt><trkpt lat="45.574881196095056" lon="11.244953651698047"><ele>529.0</ele><time>2026-04-25T10:27:11.975Z</time></trkpt><trkpt lat="45.57490145818727" lon="11.244854006431774"><ele>529.0</ele><time>2026-04-25T10:27:12.975Z</time></trkpt><trkpt lat="45.57493127825007" lon="11.244766062339473"><ele>529.0</ele><time>2026-04-25T10:27:13.975Z</time></trkpt><trkpt lat="45.57501690644042" lon="11.24473148723717"><ele>529.0</ele><time>2026-04-25T10:27:15.974Z</time></trkpt><trkpt lat="45.5750648219986" lon="11.244657952178967"><ele>529.0</ele><time>2026-04-25T10:27:16.974Z</time></trkpt><trkpt lat="45.57510172939822" lon="11.244521259865826"><ele>529.0</ele><time>2026-04-25T10:27:18.974Z</time></trkpt><trkpt lat="45.57517349142146" lon="11.244487775221435"><ele>530.8571428571429</ele><time>2026-04-25T10:27:19.974Z</time></trkpt><trkpt lat="45.57527683999151" lon="11.244465064775621"><ele>532.7142857142857</ele><time>2026-04-25T10:27:21.974Z</time></trkpt><trkpt lat="45.575323399583795" lon="11.244399412034808"><ele>534.5714285714286</ele><time>2026-04-25T10:27:22.974Z</time></trkpt><trkpt lat="45.57537220868861" lon="11.244339474261894"><ele>536.4285714285714</ele><time>2026-04-25T10:27:23.974Z</time></trkpt><trkpt lat="45.57542501167773" lon="11.244288650057582"><ele>538.2857142857143</ele><time>2026-04-25T10:27:24.974Z</time></trkpt><trkpt lat="45.575482805591065" lon="11.244238264139744"><ele>540.1428571428571</ele><time>2026-04-25T10:27:25.974Z</time></trkpt><trkpt lat="45.57554710335704" lon="11.24419973291766"><ele>542.0</ele><time>2026-04-25T10:27:26.974Z</time></trkpt><trkpt lat="45.57566184448745" lon="11.244136414651637"><ele>543.4</ele><time>2026-04-25T10:27:28.974Z</time></trkpt><trkpt lat="45.575718113694045" lon="11.244092842555528"><ele>544.8000000000001</ele><time>2026-04-25T10:27:29.974Z</time></trkpt><trkpt lat="45.57584463696303" lon="11.243998563673838"><ele>546.2</ele><time>2026-04-25T10:27:31.974Z</time></trkpt><trkpt lat="45.57590916617516" lon="11.243937300036668"><ele>547.6</ele><time>2026-04-25T10:27:32.974Z</time></trkpt><trkpt lat="45.57598021717869" lon="11.24388549518646"><ele>549.0</ele><time>2026-04-25T10:27:33.974Z</time></trkpt><trkpt lat="45.576092715164066" lon="11.243820205023216"><ele>554.5</ele><time>2026-04-25T10:27:35.975Z</time></trkpt><trkpt lat="45.5761831766187" lon="11.243806639331298"><ele>560.0</ele><time>2026-04-25T10:27:36.975Z</time></trkpt><trkpt lat="45.57632562150613" lon="11.243753140728568"><ele>565.5</ele><time>2026-04-25T10:27:37.975Z</time></trkpt><trkpt lat="45.57640425960297" lon="11.24369456171075"><ele>571.0</ele><time>2026-04-25T10:27:38.975Z</time></trkpt><trkpt lat="45.57645900783128" lon="11.24352331202391"><ele>571.1666666666667</ele><time>2026-04-25T10:27:41.975Z</time></trkpt><trkpt lat="45.5765617086942" lon="11.24345247121376"><ele>571.3333333333334</ele><time>2026-04-25T10:27:43.975Z</time></trkpt><trkpt lat="45.57660047085267" lon="11.243339237939436"><ele>571.5</ele><time>2026-04-25T10:27:44.975Z</time></trkpt><trkpt lat="45.57663228098764" lon="11.243234846183883"><ele>571.6666666666666</ele><time>2026-04-25T10:27:45.975Z</time></trkpt><trkpt lat="45.57666438454699" lon="11.243131907391062"><ele>571.8333333333333</ele><time>2026-04-25T10:27:46.975Z</time></trkpt><trkpt lat="45.57669286405268" lon="11.243012257139258"><ele>572.0</ele><time>2026-04-25T10:27:47.974Z</time></trkpt><trkpt lat="45.57672280487844" lon="11.242818194292903"><ele>571.1666666666666</ele><time>2026-04-25T10:27:48.974Z</time></trkpt><trkpt lat="45.57672330117308" lon="11.24271749615561"><ele>570.3333333333333</ele><time>2026-04-25T10:27:49.974Z</time></trkpt><trkpt lat="45.57671376395441" lon="11.242603958740913"><ele>569.5</ele><time>2026-04-25T10:27:51.974Z</time></trkpt><trkpt lat="45.57678594135951" lon="11.242539236601152"><ele>568.6666666666666</ele><time>2026-04-25T10:27:53.974Z</time></trkpt><trkpt lat="45.57687224605304" lon="11.242516471713934"><ele>567.8333333333334</ele><time>2026-04-25T10:27:55.974Z</time></trkpt><trkpt lat="45.57694410245711" lon="11.242526032896594"><ele>567.0</ele><time>2026-04-25T10:27:57.974Z</time></trkpt><trkpt lat="45.57703611069933" lon="11.24251947287691"><ele>567.0</ele><time>2026-04-25T10:27:59.974Z</time></trkpt><trkpt lat="45.57710680714454" lon="11.242462129329596"><ele>567.0</ele><time>2026-04-25T10:28:01.974Z</time></trkpt><trkpt lat="45.57714584255097" lon="11.24232997388101"><ele>567.0</ele><time>2026-04-25T10:28:03.974Z</time></trkpt><trkpt lat="45.57715565591692" lon="11.242231154331979"><ele>567.0</ele><time>2026-04-25T10:28:04.974Z</time></trkpt><trkpt lat="45.577172385732645" lon="11.24212494387342"><ele>567.0</ele><time>2026-04-25T10:28:05.974Z</time></trkpt><trkpt lat="45.57722383158938" lon="11.241994633218907"><ele>567.0</ele><time>2026-04-25T10:28:07.974Z</time></trkpt><trkpt lat="45.57725166194568" lon="11.241837193187305"><ele>571.75</ele><time>2026-04-25T10:28:09.974Z</time></trkpt><trkpt lat="45.577346048804635" lon="11.241714692597688"><ele>576.5</ele><time>2026-04-25T10:28:11.974Z</time></trkpt><trkpt lat="45.57743239816832" lon="11.241608477917978"><ele>581.25</ele><time>2026-04-25T10:28:13.974Z</time></trkpt><trkpt lat="45.57750664082826" lon="11.241448908595265"><ele>586.0</ele><time>2026-04-25T10:28:15.974Z</time></trkpt><trkpt lat="45.577533078429184" lon="11.241285757799222"><ele>591.5</ele><time>2026-04-25T10:28:16.974Z</time></trkpt><trkpt lat="45.57757544245268" lon="11.241116372519098"><ele>597.0</ele><time>2026-04-25T10:28:17.974Z</time></trkpt><trkpt lat="45.57763693802102" lon="11.240944607559346"><ele>602.5</ele><time>2026-04-25T10:28:18.974Z</time></trkpt><trkpt lat="45.57772144656454" lon="11.240778933418694"><ele>608.0</ele><time>2026-04-25T10:28:19.974Z</time></trkpt><trkpt lat="45.57778667155307" lon="11.24061107541381"><ele>609.0</ele><time>2026-04-25T10:28:20.974Z</time></trkpt><trkpt lat="45.577837013312156" lon="11.24042904793162"><ele>610.0</ele><time>2026-04-25T10:28:21.974Z</time></trkpt><trkpt lat="45.57787462724021" lon="11.240216799263333"><ele>611.0</ele><time>2026-04-25T10:28:22.974Z</time></trkpt><trkpt lat="45.577915870832385" lon="11.240034683931011"><ele>612.0</ele><time>2026-04-25T10:28:23.974Z</time></trkpt><trkpt lat="45.57795816752554" lon="11.23985780270608"><ele>613.75</ele><time>2026-04-25T10:28:24.974Z</time></trkpt><trkpt lat="45.57799344879794" lon="11.239694831703474"><ele>615.5</ele><time>2026-04-25T10:28:25.974Z</time></trkpt><trkpt lat="45.57802718725773" lon="11.239542560667838"><ele>617.25</ele><time>2026-04-25T10:28:26.974Z</time></trkpt><trkpt lat="45.578065974636154" lon="11.239393107218536"><ele>619.0</ele><time>2026-04-25T10:28:27.974Z</time></trkpt><trkpt lat="45.57812045091178" lon="11.239253049778481"><ele>619.0</ele><time>2026-04-25T10:28:28.974Z</time></trkpt><trkpt lat="45.57817107273064" lon="11.239128396556621"><ele>619.0</ele><time>2026-04-25T10:28:29.974Z</time></trkpt><trkpt lat="45.57821019877644" lon="11.239017672193878"><ele>619.0</ele><time>2026-04-25T10:28:30.974Z</time></trkpt><trkpt lat="45.578229547231416" lon="11.23889939139683"><ele>619.0</ele><time>2026-04-25T10:28:31.974Z</time></trkpt><trkpt lat="45.578250927679356" lon="11.238790667048113"><ele>619.0</ele><time>2026-04-25T10:28:32.974Z</time></trkpt><trkpt lat="45.57827073690378" lon="11.238696303522847"><ele>619.0</ele><time>2026-04-25T10:28:33.974Z</time></trkpt><trkpt lat="45.57828960717817" lon="11.238601378402963"><ele>618.2</ele><time>2026-04-25T10:28:34.974Z</time></trkpt><trkpt lat="45.57832033178166" lon="11.238478800036352"><ele>617.4</ele><time>2026-04-25T10:28:35.974Z</time></trkpt><trkpt lat="45.578345322787854" lon="11.238338144555792"><ele>616.6</ele><time>2026-04-25T10:28:36.974Z</time></trkpt><trkpt lat="45.57837338915982" lon="11.238206326716293"><ele>615.8</ele><time>2026-04-25T10:28:37.974Z</time></trkpt><trkpt lat="45.578422725410924" lon="11.238047142017326"><ele>615.0</ele><time>2026-04-25T10:28:38.974Z</time></trkpt><trkpt lat="45.5784757304142" lon="11.237902867753236"><ele>615.1666666666666</ele><time>2026-04-25T10:28:39.974Z</time></trkpt><trkpt lat="45.57852002231699" lon="11.237789024077788"><ele>615.3333333333334</ele><time>2026-04-25T10:28:40.974Z</time></trkpt><trkpt lat="45.57857595373228" lon="11.237674947217117"><ele>615.5</ele><time>2026-04-25T10:28:41.974Z</time></trkpt><trkpt lat="45.57864076973392" lon="11.237604375424587"><ele>615.6666666666667</ele><time>2026-04-25T10:28:42.974Z</time></trkpt><trkpt lat="45.57869690228762" lon="11.23754172747629"><ele>615.8333333333334</ele><time>2026-04-25T10:28:43.974Z</time></trkpt><trkpt lat="45.57877379301566" lon="11.23748080392887"><ele>616.0</ele><time>2026-04-25T10:28:44.974Z</time></trkpt><trkpt lat="45.578833126102516" lon="11.237415092265346"><ele>616.0</ele><time>2026-04-25T10:28:45.974Z</time></trkpt><trkpt lat="45.57893251046824" lon="11.23733968929871"><ele>616.0</ele><time>2026-04-25T10:28:46.974Z</time></trkpt><trkpt lat="45.579013125761364" lon="11.237249821392284"><ele>616.0</ele><time>2026-04-25T10:28:47.973Z</time></trkpt><trkpt lat="45.579109527538726" lon="11.237157976323466"><ele>616.0</ele><time>2026-04-25T10:28:48.973Z</time></trkpt><trkpt lat="45.579191262446166" lon="11.237030016627491"><ele>616.0</ele><time>2026-04-25T10:28:49.973Z</time></trkpt><trkpt lat="45.579278242486694" lon="11.236873415096355"><ele>616.0</ele><time>2026-04-25T10:28:50.973Z</time></trkpt><trkpt lat="45.579357666279755" lon="11.236720657950283"><ele>616.0</ele><time>2026-04-25T10:28:51.973Z</time></trkpt><trkpt lat="45.57946457803893" lon="11.236577748966933"><ele>616.0</ele><time>2026-04-25T10:28:52.973Z</time></trkpt><trkpt lat="45.57958186948686" lon="11.236419370214422"><ele>616.0</ele><time>2026-04-25T10:28:53.973Z</time></trkpt><trkpt lat="45.5797117245911" lon="11.236273986028566"><ele>616.0</ele><time>2026-04-25T10:28:54.973Z</time></trkpt><trkpt lat="45.579813003809214" lon="11.236093580622878"><ele>616.0</ele><time>2026-04-25T10:28:55.973Z</time></trkpt><trkpt lat="45.5799262940849" lon="11.235891407555526"><ele>616.0</ele><time>2026-04-25T10:28:56.973Z</time></trkpt><trkpt lat="45.58001516969751" lon="11.235711824491041"><ele>616.0</ele><time>2026-04-25T10:28:57.973Z</time></trkpt><trkpt lat="45.58011359591182" lon="11.23556686756326"><ele>616.0</ele><time>2026-04-25T10:28:58.973Z</time></trkpt><trkpt lat="45.58021714802788" lon="11.23544039853833"><ele>616.0</ele><time>2026-04-25T10:28:59.973Z</time></trkpt><trkpt lat="45.5803377401007" lon="11.235317172311857"><ele>617.5</ele><time>2026-04-25T10:29:00.973Z</time></trkpt><trkpt lat="45.58047876877979" lon="11.235211801752294"><ele>619.0</ele><time>2026-04-25T10:29:01.973Z</time></trkpt><trkpt lat="45.580607075330065" lon="11.23510646133073"><ele>620.5</ele><time>2026-04-25T10:29:02.973Z</time></trkpt><trkpt lat="45.58073008743149" lon="11.235011048385305"><ele>622.0</ele><time>2026-04-25T10:29:03.973Z</time></trkpt><trkpt lat="45.580845673076354" lon="11.234965763104736"><ele>622.0</ele><time>2026-04-25T10:29:04.973Z</time></trkpt><trkpt lat="45.5809666390054" lon="11.23496571971162"><ele>622.0</ele><time>2026-04-25T10:29:05.973Z</time></trkpt><trkpt lat="45.581071471142714" lon="11.234915323907872"><ele>622.0</ele><time>2026-04-25T10:29:06.973Z</time></trkpt><trkpt lat="45.581162416767924" lon="11.234854964356705"><ele>622.0</ele><time>2026-04-25T10:29:07.973Z</time></trkpt><trkpt lat="45.58124340138783" lon="11.234794110951409"><ele>622.0</ele><time>2026-04-25T10:29:08.973Z</time></trkpt><trkpt lat="45.581306496212044" lon="11.234704041219597"><ele>623.4</ele><time>2026-04-25T10:29:09.973Z</time></trkpt><trkpt lat="45.58138032652466" lon="11.234578601720013"><ele>624.8000000000001</ele><time>2026-04-25T10:29:10.973Z</time></trkpt><trkpt lat="45.581454684829666" lon="11.234489593057457"><ele>626.2</ele><time>2026-04-25T10:29:11.973Z</time></trkpt><trkpt lat="45.58155679786545" lon="11.234421362478288"><ele>627.6</ele><time>2026-04-25T10:29:12.973Z</time></trkpt><trkpt lat="45.58162324277463" lon="11.234381592880702"><ele>629.0</ele><time>2026-04-25T10:29:13.973Z</time></trkpt><trkpt lat="45.58164434275604" lon="11.234262041626042"><ele>629.0</ele><time>2026-04-25T10:29:14.973Z</time></trkpt><trkpt lat="45.581661469834806" lon="11.234148805166376"><ele>629.0</ele><time>2026-04-25T10:29:15.973Z</time></trkpt><trkpt lat="45.581847162138125" lon="11.234184109052872"><ele>629.0</ele><time>2026-04-25T10:29:20.973Z</time></trkpt><trkpt lat="45.58195117749349" lon="11.234150187219665"><ele>629.0</ele><time>2026-04-25T10:29:22.973Z</time></trkpt><trkpt lat="45.582015284544994" lon="11.23406226871354"><ele>630.4</ele><time>2026-04-25T10:29:23.973Z</time></trkpt><trkpt lat="45.582076185577755" lon="11.233981220499441"><ele>631.8</ele><time>2026-04-25T10:29:24.973Z</time></trkpt><trkpt lat="45.58218540328016" lon="11.233879687248706"><ele>633.2</ele><time>2026-04-25T10:29:26.973Z</time></trkpt><trkpt lat="45.58225853535375" lon="11.23380041358816"><ele>634.6</ele><time>2026-04-25T10:29:28.973Z</time></trkpt><trkpt lat="45.582325186016924" lon="11.233779102387311"><ele>636.0</ele><time>2026-04-25T10:29:29.973Z</time></trkpt><trkpt lat="45.58241870528415" lon="11.233750253327317"><ele>636.0</ele><time>2026-04-25T10:29:30.973Z</time></trkpt><trkpt lat="45.582496350431725" lon="11.233734926179949"><ele>636.0</ele><time>2026-04-25T10:29:31.973Z</time></trkpt><trkpt lat="45.58260323146353" lon="11.233716256234677"><ele>636.0</ele><time>2026-04-25T10:29:32.973Z</time></trkpt><trkpt lat="45.5827091285564" lon="11.23366992198737"><ele>636.0</ele><time>2026-04-25T10:29:33.973Z</time></trkpt><trkpt lat="45.58280085896752" lon="11.233611225138402"><ele>636.0</ele><time>2026-04-25T10:29:34.973Z</time></trkpt><trkpt lat="45.582889549215196" lon="11.233563868688403"><ele>634.0</ele><time>2026-04-25T10:29:35.973Z</time></trkpt><trkpt lat="45.582991671924916" lon="11.233465545927997"><ele>632.0</ele><time>2026-04-25T10:29:36.973Z</time></trkpt><trkpt lat="45.5830716859535" lon="11.233373563139564"><ele>630.0</ele><time>2026-04-25T10:29:37.973Z</time></trkpt><trkpt lat="45.5831676693436" lon="11.233299813033579"><ele>628.0</ele><time>2026-04-25T10:29:38.973Z</time></trkpt><trkpt lat="45.58325562477617" lon="11.23324850868292"><ele>626.0</ele><time>2026-04-25T10:29:39.973Z</time></trkpt><trkpt lat="45.58334184427577" lon="11.233220959537732"><ele>626.0</ele><time>2026-04-25T10:29:40.974Z</time></trkpt><trkpt lat="45.58342092538719" lon="11.233191899327672"><ele>626.0</ele><time>2026-04-25T10:29:41.974Z</time></trkpt><trkpt lat="45.58349765550709" lon="11.23322775957843"><ele>626.0</ele><time>2026-04-25T10:29:42.974Z</time></trkpt><trkpt lat="45.583573042676264" lon="11.23329363095753"><ele>626.0</ele><time>2026-04-25T10:29:43.974Z</time></trkpt><trkpt lat="45.58363398635869" lon="11.23336837532299"><ele>626.0</ele><time>2026-04-25T10:29:44.974Z</time></trkpt><trkpt lat="45.58368696624562" lon="11.233444175582742"><ele>626.0</ele><time>2026-04-25T10:29:45.974Z</time></trkpt><trkpt lat="45.58376469380128" lon="11.233499498082068"><ele>626.5</ele><time>2026-04-25T10:29:46.974Z</time></trkpt><trkpt lat="45.58383453393909" lon="11.233553785577964"><ele>627.0</ele><time>2026-04-25T10:29:47.974Z</time></trkpt><trkpt lat="45.583904497061916" lon="11.233589110647845"><ele>627.5</ele><time>2026-04-25T10:29:48.974Z</time></trkpt><trkpt lat="45.58398372309185" lon="11.23360763469125"><ele>628.0</ele><time>2026-04-25T10:29:49.975Z</time></trkpt><trkpt lat="45.58406974492498" lon="11.233604761775817"><ele>628.5</ele><time>2026-04-25T10:29:50.974Z</time></trkpt><trkpt lat="45.58413684438427" lon="11.233603896672742"><ele>629.0</ele><time>2026-04-25T10:29:51.974Z</time></trkpt><trkpt lat="45.58420672924998" lon="11.233628194154283"><ele>629.0</ele><time>2026-04-25T10:29:52.975Z</time></trkpt><trkpt lat="45.58426791514608" lon="11.233664317399786"><ele>629.0</ele><time>2026-04-25T10:29:53.974Z</time></trkpt><trkpt lat="45.58434044197653" lon="11.233676960283278"><ele>629.0</ele><time>2026-04-25T10:29:54.974Z</time></trkpt><trkpt lat="45.58445437131014" lon="11.233724459224105"><ele>629.0</ele><time>2026-04-25T10:29:56.974Z</time></trkpt><trkpt lat="45.584516521225304" lon="11.233741352691375"><ele>629.0</ele><time>2026-04-25T10:29:57.974Z</time></trkpt><trkpt lat="45.58460164583466" lon="11.233731586667105"><ele>629.0</ele><time>2026-04-25T10:29:58.974Z</time></trkpt><trkpt lat="45.584686186593146" lon="11.233745225047103"><ele>630.0</ele><time>2026-04-25T10:29:59.974Z</time></trkpt><trkpt lat="45.58476623548963" lon="11.233743121525167"><ele>631.0</ele><time>2026-04-25T10:30:00.974Z</time></trkpt><trkpt lat="45.584855066988254" lon="11.233704927758339"><ele>632.0</ele><time>2026-04-25T10:30:01.974Z</time></trkpt><trkpt lat="45.58493073334723" lon="11.23367256031566"><ele>633.0</ele><time>2026-04-25T10:30:02.974Z</time></trkpt><trkpt lat="45.585001473893634" lon="11.233616090866754"><ele>634.0</ele><time>2026-04-25T10:30:03.974Z</time></trkpt><trkpt lat="45.58505414454348" lon="11.233557991213488"><ele>635.0</ele><time>2026-04-25T10:30:04.974Z</time></trkpt><trkpt lat="45.58511405364585" lon="11.233526928560241"><ele>634.9999999999999</ele><time>2026-04-25T10:30:05.974Z</time></trkpt><trkpt lat="45.585170273506876" lon="11.233485287679395"><ele>635.0</ele><time>2026-04-25T10:30:06.974Z</time></trkpt><trkpt lat="45.585223645622" lon="11.233428784242562"><ele>635.0</ele><time>2026-04-25T10:30:07.974Z</time></trkpt><trkpt lat="45.585284066897174" lon="11.233385884241438"><ele>635.0</ele><time>2026-04-25T10:30:08.974Z</time></trkpt><trkpt lat="45.58534824907098" lon="11.233323485532031"><ele>635.0</ele><time>2026-04-25T10:30:09.974Z</time></trkpt><trkpt lat="45.585399615783324" lon="11.23324204759957"><ele>634.9999999999999</ele><time>2026-04-25T10:30:10.974Z</time></trkpt><trkpt lat="45.58545425396929" lon="11.233188760181488"><ele>635.0</ele><time>2026-04-25T10:30:11.974Z</time></trkpt><trkpt lat="45.585525815130474" lon="11.233124576886647"><ele>637.2</ele><time>2026-04-25T10:30:12.974Z</time></trkpt><trkpt lat="45.58558997298229" lon="11.233117350568483"><ele>639.4</ele><time>2026-04-25T10:30:13.974Z</time></trkpt><trkpt lat="45.58572964819616" lon="11.23312744825801"><ele>641.5999999999999</ele><time>2026-04-25T10:30:15.974Z</time></trkpt><trkpt lat="45.585813997142616" lon="11.23311503638192"><ele>643.8</ele><time>2026-04-25T10:30:16.974Z</time></trkpt><trkpt lat="45.585908304369205" lon="11.233109951891418"><ele>646.0</ele><time>2026-04-25T10:30:17.974Z</time></trkpt><trkpt lat="45.58600480890662" lon="11.233063334584205"><ele>646.0</ele><time>2026-04-25T10:30:18.974Z</time></trkpt><trkpt lat="45.5861185455352" lon="11.233025282391466"><ele>646.0</ele><time>2026-04-25T10:30:19.974Z</time></trkpt><trkpt lat="45.58622108726523" lon="11.23299667328548"><ele>646.0</ele><time>2026-04-25T10:30:20.974Z</time></trkpt><trkpt lat="45.58630488304861" lon="11.232997314306408"><ele>646.0</ele><time>2026-04-25T10:30:21.974Z</time></trkpt><trkpt lat="45.58640015264463" lon="11.232983090659225"><ele>646.0</ele><time>2026-04-25T10:30:22.974Z</time></trkpt><trkpt lat="45.586485595082" lon="11.233040203249084"><ele>641.6666666666667</ele><time>2026-04-25T10:30:23.974Z</time></trkpt><trkpt lat="45.58658500399533" lon="11.233104882910162"><ele>637.3333333333334</ele><time>2026-04-25T10:30:24.974Z</time></trkpt><trkpt lat="45.586660265796745" lon="11.233172896262793"><ele>633.0</ele><time>2026-04-25T10:30:25.974Z</time></trkpt><trkpt lat="45.586737304042266" lon="11.233217734385184"><ele>628.6666666666666</ele><time>2026-04-25T10:30:26.974Z</time></trkpt><trkpt lat="45.58680896432548" lon="11.233276094789124"><ele>624.3333333333333</ele><time>2026-04-25T10:30:27.974Z</time></trkpt><trkpt lat="45.58687855720793" lon="11.233325532104008"><ele>620.0</ele><time>2026-04-25T10:30:28.974Z</time></trkpt><trkpt lat="45.58695705920407" lon="11.233413037802796"><ele>618.5</ele><time>2026-04-25T10:30:30.974Z</time></trkpt><trkpt lat="45.586986321289125" lon="11.233523564537618"><ele>617.0</ele><time>2026-04-25T10:30:31.974Z</time></trkpt><trkpt lat="45.58703672298521" lon="11.233632994827667"><ele>615.5</ele><time>2026-04-25T10:30:32.974Z</time></trkpt><trkpt lat="45.58707949898286" lon="11.233725367952177"><ele>614.0</ele><time>2026-04-25T10:30:33.974Z</time></trkpt><trkpt lat="45.58711614067814" lon="11.233822257627756"><ele>612.5</ele><time>2026-04-25T10:30:34.974Z</time></trkpt><trkpt lat="45.587170082787075" lon="11.23390165402605"><ele>611.0</ele><time>2026-04-25T10:30:36.974Z</time></trkpt><trkpt lat="45.5872517471834" lon="11.233896003970338"><ele>607.8</ele><time>2026-04-25T10:30:38.974Z</time></trkpt><trkpt lat="45.58734558616169" lon="11.233879769684822"><ele>604.6</ele><time>2026-04-25T10:30:40.974Z</time></trkpt><trkpt lat="45.587412060509635" lon="11.23408679338245"><ele>601.4</ele><time>2026-04-25T10:30:47.974Z</time></trkpt><trkpt lat="45.587406412372424" lon="11.234181876629611"><ele>598.2</ele><time>2026-04-25T10:30:48.974Z</time></trkpt><trkpt lat="45.58746523166263" lon="11.234258427164695"><ele>595.0</ele><time>2026-04-25T10:30:50.974Z</time></trkpt><trkpt lat="45.58755374240468" lon="11.234292647664352"><ele>594.8333333333334</ele><time>2026-04-25T10:30:51.974Z</time></trkpt><trkpt lat="45.587623485582824" lon="11.234309969195225"><ele>594.6666666666667</ele><time>2026-04-25T10:30:52.974Z</time></trkpt><trkpt lat="45.58770278150276" lon="11.23429814729433"><ele>594.5</ele><time>2026-04-25T10:30:53.974Z</time></trkpt><trkpt lat="45.58780720850722" lon="11.234283188059225"><ele>594.3333333333334</ele><time>2026-04-25T10:30:54.974Z</time></trkpt><trkpt lat="45.58789962827487" lon="11.234260153870778"><ele>594.1666666666666</ele><time>2026-04-25T10:30:55.974Z</time></trkpt><trkpt lat="45.587997364620016" lon="11.234285775985002"><ele>594.0</ele><time>2026-04-25T10:30:57.974Z</time></trkpt><trkpt lat="45.588155239840596" lon="11.234294617939963"><ele>592.8</ele><time>2026-04-25T10:31:00.974Z</time></trkpt><trkpt lat="45.58828433571758" lon="11.234210816706682"><ele>591.5999999999999</ele><time>2026-04-25T10:31:03.974Z</time></trkpt><trkpt lat="45.58836093303282" lon="11.234109002579054"><ele>590.4</ele><time>2026-04-25T10:31:04.974Z</time></trkpt><trkpt lat="45.58845626618677" lon="11.234046954900206"><ele>589.1999999999999</ele><time>2026-04-25T10:31:05.974Z</time></trkpt><trkpt lat="45.58854156069202" lon="11.234029027675795"><ele>588.0</ele><time>2026-04-25T10:31:06.974Z</time></trkpt><trkpt lat="45.588614369399714" lon="11.234019166086318"><ele>586.6666666666666</ele><time>2026-04-25T10:31:07.974Z</time></trkpt><trkpt lat="45.58870647809394" lon="11.23403938768755"><ele>585.3333333333334</ele><time>2026-04-25T10:31:09.974Z</time></trkpt><trkpt lat="45.588783861573994" lon="11.234066840113703"><ele>584.0</ele><time>2026-04-25T10:31:10.974Z</time></trkpt><trkpt lat="45.58886512192358" lon="11.234114959424705"><ele>582.6666666666667</ele><time>2026-04-25T10:31:11.974Z</time></trkpt><trkpt lat="45.58894718399834" lon="11.234149873997147"><ele>581.3333333333334</ele><time>2026-04-25T10:31:12.974Z</time></trkpt><trkpt lat="45.58902256517217" lon="11.234201715762135"><ele>580.0</ele><time>2026-04-25T10:31:13.974Z</time></trkpt><trkpt lat="45.58912702238728" lon="11.234284798917637"><ele>580.0</ele><time>2026-04-25T10:31:15.974Z</time></trkpt><trkpt lat="45.58921613406889" lon="11.23433202686624"><ele>580.0</ele><time>2026-04-25T10:31:16.974Z</time></trkpt><trkpt lat="45.58933422402277" lon="11.234350627684236"><ele>580.0</ele><time>2026-04-25T10:31:17.974Z</time></trkpt><trkpt lat="45.58953840173136" lon="11.234325597113699"><ele>580.0</ele><time>2026-04-25T10:31:19.974Z</time></trkpt><trkpt lat="45.58962062974412" lon="11.234287138505527"><ele>575.2</ele><time>2026-04-25T10:31:20.974Z</time></trkpt><trkpt lat="45.58968352375263" lon="11.234246374761572"><ele>570.4</ele><time>2026-04-25T10:31:23.973Z</time></trkpt><trkpt lat="45.58964735983039" lon="11.234107555357285"><ele>565.6</ele><time>2026-04-25T10:31:26.973Z</time></trkpt><trkpt lat="45.58960599132635" lon="11.234027823422307"><ele>560.8</ele><time>2026-04-25T10:31:28.973Z</time></trkpt><trkpt lat="45.58960434478076" lon="11.23381097951004"><ele>556.0</ele><time>2026-04-25T10:31:30.973Z</time></trkpt><trkpt lat="45.58960268805632" lon="11.233717096638685"><ele>557.3333333333334</ele><time>2026-04-25T10:31:31.973Z</time></trkpt><trkpt lat="45.58959884699242" lon="11.23361328259756"><ele>558.6666666666667</ele><time>2026-04-25T10:31:33.973Z</time></trkpt><trkpt lat="45.58956644903005" lon="11.233520380842874"><ele>560.0</ele><time>2026-04-25T10:31:34.973Z</time></trkpt><trkpt lat="45.589547493852564" lon="11.23342366156923"><ele>561.3333333333334</ele><time>2026-04-25T10:31:35.973Z</time></trkpt><trkpt lat="45.5895114060626" lon="11.23333392720321"><ele>562.6666666666666</ele><time>2026-04-25T10:31:36.973Z</time></trkpt><trkpt lat="45.58942726749148" lon="11.233278348416809"><ele>564.0</ele><time>2026-04-25T10:31:37.973Z</time></trkpt><trkpt lat="45.589278802375944" lon="11.233267800434286"><ele>564.0</ele><time>2026-04-25T10:31:39.973Z</time></trkpt><trkpt lat="45.58920463566151" lon="11.233265924527162"><ele>564.0</ele><time>2026-04-25T10:31:40.973Z</time></trkpt><trkpt lat="45.589103081556786" lon="11.233242787789733"><ele>564.0</ele><time>2026-04-25T10:31:42.973Z</time></trkpt><trkpt lat="45.58897907058252" lon="11.23318792142236"><ele>564.0</ele><time>2026-04-25T10:31:44.973Z</time></trkpt><trkpt lat="45.58889489382108" lon="11.233148113366136"><ele>564.0</ele><time>2026-04-25T10:31:45.973Z</time></trkpt><trkpt lat="45.58882478088966" lon="11.233146113076707"><ele>562.5</ele><time>2026-04-25T10:31:46.974Z</time></trkpt><trkpt lat="45.58874164557829" lon="11.233129726348995"><ele>561.0</ele><time>2026-04-25T10:31:47.974Z</time></trkpt><trkpt lat="45.58863548460074" lon="11.233089841898044"><ele>559.5</ele><time>2026-04-25T10:31:49.974Z</time></trkpt><trkpt lat="45.5885278487977" lon="11.233102033011908"><ele>558.0</ele><time>2026-04-25T10:31:51.974Z</time></trkpt><trkpt lat="45.58846056858467" lon="11.233069854806104"><ele>556.5</ele><time>2026-04-25T10:31:53.974Z</time></trkpt><trkpt lat="45.58847379386826" lon="11.232970291577239"><ele>555.0</ele><time>2026-04-25T10:31:56.974Z</time></trkpt><trkpt lat="45.58843124966988" lon="11.232775116092306"><ele>555.0</ele><time>2026-04-25T10:32:00.974Z</time></trkpt><trkpt lat="45.588420071135396" lon="11.232673508273152"><ele>555.0</ele><time>2026-04-25T10:32:01.974Z</time></trkpt><trkpt lat="45.5884005080785" lon="11.232577439410033"><ele>555.0</ele><time>2026-04-25T10:32:02.974Z</time></trkpt><trkpt lat="45.58835875538824" lon="11.23247024149986"><ele>555.0</ele><time>2026-04-25T10:32:03.974Z</time></trkpt><trkpt lat="45.58828461105496" lon="11.23239840265341"><ele>555.0</ele><time>2026-04-25T10:32:04.974Z</time></trkpt><trkpt lat="45.58819392407817" lon="11.232319589656132"><ele>555.0</ele><time>2026-04-25T10:32:06.974Z</time></trkpt><trkpt lat="45.588038670599644" lon="11.232257366915752"><ele>554.3333333333334</ele><time>2026-04-25T10:32:08.974Z</time></trkpt><trkpt lat="45.58797258547128" lon="11.232201744438818"><ele>553.6666666666666</ele><time>2026-04-25T10:32:09.974Z</time></trkpt><trkpt lat="45.58799297862781" lon="11.232107217753882"><ele>553.0</ele><time>2026-04-25T10:32:13.974Z</time></trkpt><trkpt lat="45.587991447938364" lon="11.2319547848275"><ele>552.3333333333333</ele><time>2026-04-25T10:32:16.974Z</time></trkpt><trkpt lat="45.587981643418914" lon="11.231800017942541"><ele>551.6666666666666</ele><time>2026-04-25T10:32:18.974Z</time></trkpt><trkpt lat="45.58795426128052" lon="11.231698280960892"><ele>551.0</ele><time>2026-04-25T10:32:19.974Z</time></trkpt><trkpt lat="45.58792194867322" lon="11.231618948069917"><ele>554.4</ele><time>2026-04-25T10:32:20.974Z</time></trkpt><trkpt lat="45.587866810121376" lon="11.231450943743322"><ele>557.8</ele><time>2026-04-25T10:32:22.974Z</time></trkpt><trkpt lat="45.58785092838592" lon="11.231335340239262"><ele>561.1999999999999</ele><time>2026-04-25T10:32:24.974Z</time></trkpt><trkpt lat="45.587809703905855" lon="11.231236728749003"><ele>564.6</ele><time>2026-04-25T10:32:29.973Z</time></trkpt><trkpt lat="45.58776479478114" lon="11.231163669220194"><ele>568.0</ele><time>2026-04-25T10:32:31.973Z</time></trkpt><trkpt lat="45.587674186670526" lon="11.231102526687206"><ele>569.6666666666667</ele><time>2026-04-25T10:32:33.973Z</time></trkpt><trkpt lat="45.58765452181457" lon="11.230990105124874"><ele>571.3333333333334</ele><time>2026-04-25T10:32:36.973Z</time></trkpt><trkpt lat="45.58765705372915" lon="11.230899251224233"><ele>573.0</ele><time>2026-04-25T10:32:39.973Z</time></trkpt><trkpt lat="45.587702238785006" lon="11.23076698982343"><ele>574.6666666666666</ele><time>2026-04-25T10:32:41.973Z</time></trkpt><trkpt lat="45.58774541443209" lon="11.230676370685751"><ele>576.3333333333333</ele><time>2026-04-25T10:32:43.973Z</time></trkpt><trkpt lat="45.5878078231356" lon="11.230693259138807"><ele>578.0</ele><time>2026-04-25T10:32:46.973Z</time></trkpt><trkpt lat="45.58776596603693" lon="11.230854315193415"><ele>578.0</ele><time>2026-04-25T10:32:51.973Z</time></trkpt><trkpt lat="45.58780926783619" lon="11.230925705285024"><ele>578.0</ele><time>2026-04-25T10:32:53.973Z</time></trkpt><trkpt lat="45.58788510995121" lon="11.230959535085232"><ele>578.0</ele><time>2026-04-25T10:32:55.973Z</time></trkpt><trkpt lat="45.587954341759286" lon="11.230966216186388"><ele>578.0</ele><time>2026-04-25T10:32:56.973Z</time></trkpt><trkpt lat="45.58803015459935" lon="11.230930372651182"><ele>578.0</ele><time>2026-04-25T10:32:57.973Z</time></trkpt><trkpt lat="45.588124660229845" lon="11.230880599692922"><ele>578.0</ele><time>2026-04-25T10:32:58.973Z</time></trkpt><trkpt lat="45.58820198734298" lon="11.230814943085909"><ele>580.0</ele><time>2026-04-25T10:33:00.973Z</time></trkpt><trkpt lat="45.588252754883506" lon="11.230626453605709"><ele>582.0</ele><time>2026-04-25T10:33:02.973Z</time></trkpt><trkpt lat="45.58826954632584" lon="11.230508123105695"><ele>584.0</ele><time>2026-04-25T10:33:05.973Z</time></trkpt><trkpt lat="45.588185373577915" lon="11.230214689714341"><ele>586.0</ele><time>2026-04-25T10:33:17.973Z</time></trkpt><trkpt lat="45.58816244438288" lon="11.23003894026932"><ele>586.0</ele><time>2026-04-25T10:33:18.973Z</time></trkpt><trkpt lat="45.58811301202356" lon="11.229884401872958"><ele>586.0</ele><time>2026-04-25T10:33:19.973Z</time></trkpt><trkpt lat="45.58809384741932" lon="11.229771467206668"><ele>586.0</ele><time>2026-04-25T10:33:20.973Z</time></trkpt><trkpt lat="45.58810157244586" lon="11.229648616646452"><ele>586.0</ele><time>2026-04-25T10:33:21.973Z</time></trkpt><trkpt lat="45.5880999967532" lon="11.22949740047375"><ele>586.0</ele><time>2026-04-25T10:33:22.973Z</time></trkpt><trkpt lat="45.58813619250416" lon="11.229343624924958"><ele>590.0</ele><time>2026-04-25T10:33:23.973Z</time></trkpt><trkpt lat="45.58816907360235" lon="11.229186209739362"><ele>594.0</ele><time>2026-04-25T10:33:24.973Z</time></trkpt><trkpt lat="45.588178661082694" lon="11.229024594322983"><ele>598.0</ele><time>2026-04-25T10:33:25.973Z</time></trkpt><trkpt lat="45.58820189363951" lon="11.228903072373324"><ele>602.0</ele><time>2026-04-25T10:33:26.973Z</time></trkpt><trkpt lat="45.58822021385657" lon="11.228781552835526"><ele>606.0</ele><time>2026-04-25T10:33:27.973Z</time></trkpt><trkpt lat="45.58824689831892" lon="11.228666029383673"><ele>611.0</ele><time>2026-04-25T10:33:28.973Z</time></trkpt><trkpt lat="45.58825008213201" lon="11.22855281916566"><ele>616.0</ele><time>2026-04-25T10:33:29.973Z</time></trkpt><trkpt lat="45.58811436302925" lon="11.228711468278773"><ele>621.0</ele><time>2026-04-25T10:33:36.973Z</time></trkpt><trkpt lat="45.58802002973008" lon="11.228776174024393"><ele>626.0</ele><time>2026-04-25T10:33:37.973Z</time></trkpt><trkpt lat="45.58792534883701" lon="11.228789251075328"><ele>628.4</ele><time>2026-04-25T10:33:39.973Z</time></trkpt><trkpt lat="45.587788737808175" lon="11.228696573566664"><ele>630.8</ele><time>2026-04-25T10:33:41.973Z</time></trkpt><trkpt lat="45.58767879735659" lon="11.228664899693172"><ele>633.1999999999999</ele><time>2026-04-25T10:33:42.973Z</time></trkpt><trkpt lat="45.58758272141619" lon="11.228660857376529"><ele>635.6</ele><time>2026-04-25T10:33:43.973Z</time></trkpt><trkpt lat="45.58751480102435" lon="11.228696949037733"><ele>638.0</ele><time>2026-04-25T10:33:44.973Z</time></trkpt><trkpt lat="45.587567641762305" lon="11.228612874931432"><ele>638.0</ele><time>2026-04-25T10:33:48.973Z</time></trkpt><trkpt lat="45.587712904134996" lon="11.228582228123466"><ele>638.0</ele><time>2026-04-25T10:33:50.973Z</time></trkpt><trkpt lat="45.58772502137498" lon="11.228480061812643"><ele>638.0</ele><time>2026-04-25T10:33:53.973Z</time></trkpt><trkpt lat="45.58763930019973" lon="11.228449786212696"><ele>638.0</ele><time>2026-04-25T10:33:54.973Z</time></trkpt><trkpt lat="45.5875211039156" lon="11.228451240324004"><ele>638.0</ele><time>2026-04-25T10:33:55.974Z</time></trkpt><trkpt lat="45.58739524411441" lon="11.228493513974845"><ele>638.0</ele><time>2026-04-25T10:33:56.973Z</time></trkpt><trkpt lat="45.58729048722233" lon="11.228593401986133"><ele>638.0</ele><time>2026-04-25T10:33:57.973Z</time></trkpt><trkpt lat="45.58720071649859" lon="11.228731676954029"><ele>638.0</ele><time>2026-04-25T10:33:58.973Z</time></trkpt><trkpt lat="45.58711269919903" lon="11.228849532876657"><ele>638.0</ele><time>2026-04-25T10:33:59.973Z</time></trkpt><trkpt lat="45.58704387080562" lon="11.228939988850595"><ele>638.0</ele><time>2026-04-25T10:34:00.973Z</time></trkpt><trkpt lat="45.586984746414274" lon="11.228993257287646"><ele>638.0</ele><time>2026-04-25T10:34:01.974Z</time></trkpt><trkpt lat="45.58690057124735" lon="11.228987079690842"><ele>638.0</ele><time>2026-04-25T10:34:03.973Z</time></trkpt><trkpt lat="45.586913554108065" lon="11.228886949377493"><ele>638.0</ele><time>2026-04-25T10:34:05.974Z</time></trkpt><trkpt lat="45.58700391882328" lon="11.22880507175193"><ele>638.0</ele><time>2026-04-25T10:34:07.974Z</time></trkpt><trkpt lat="45.58707920693961" lon="11.228730111117603"><ele>638.0</ele><time>2026-04-25T10:34:08.974Z</time></trkpt><trkpt lat="45.58714416667826" lon="11.228627435004483"><ele>638.0</ele><time>2026-04-25T10:34:09.974Z</time></trkpt><trkpt lat="45.58720940902881" lon="11.228516976438721"><ele>638.0</ele><time>2026-04-25T10:34:10.974Z</time></trkpt><trkpt lat="45.58726470782132" lon="11.228418598899475"><ele>638.0</ele><time>2026-04-25T10:34:11.974Z</time></trkpt><trkpt lat="45.587325561877854" lon="11.228328621683971"><ele>638.0</ele><time>2026-04-25T10:34:12.974Z</time></trkpt><trkpt lat="45.58738715079031" lon="11.228235154438588"><ele>638.0</ele><time>2026-04-25T10:34:13.974Z</time></trkpt><trkpt lat="45.58746283835831" lon="11.228157934683699"><ele>640.5999999999999</ele><time>2026-04-25T10:34:14.974Z</time></trkpt><trkpt lat="45.58755225403898" lon="11.228058518772091"><ele>643.1999999999999</ele><time>2026-04-25T10:34:15.974Z</time></trkpt><trkpt lat="45.587627581533816" lon="11.22796200608206"><ele>645.8</ele><time>2026-04-25T10:34:16.973Z</time></trkpt><trkpt lat="45.58770668122658" lon="11.22789788541927"><ele>648.4</ele><time>2026-04-25T10:34:17.973Z</time></trkpt><trkpt lat="45.587780723823606" lon="11.227815164280129"><ele>651.0</ele><time>2026-04-25T10:34:18.973Z</time></trkpt><trkpt lat="45.587826583118236" lon="11.227683594762658"><ele>648.8333333333334</ele><time>2026-04-25T10:34:19.973Z</time></trkpt><trkpt lat="45.58786159884541" lon="11.227552307626855"><ele>646.6666666666666</ele><time>2026-04-25T10:34:20.973Z</time></trkpt><trkpt lat="45.587908122685235" lon="11.227460565249757"><ele>644.5</ele><time>2026-04-25T10:34:21.973Z</time></trkpt><trkpt lat="45.58796382128745" lon="11.227389047804778"><ele>642.3333333333333</ele><time>2026-04-25T10:34:22.973Z</time></trkpt><trkpt lat="45.58802980097182" lon="11.227352875439692"><ele>640.1666666666666</ele><time>2026-04-25T10:34:23.973Z</time></trkpt><trkpt lat="45.58813145291488" lon="11.227353502348892"><ele>638.0</ele><time>2026-04-25T10:34:24.973Z</time></trkpt><trkpt lat="45.5882427540889" lon="11.227377436549045"><ele>638.0</ele><time>2026-04-25T10:34:25.973Z</time></trkpt><trkpt lat="45.58834582884145" lon="11.227369023620774"><ele>638.0</ele><time>2026-04-25T10:34:26.973Z</time></trkpt><trkpt lat="45.588450535129354" lon="11.227362623266101"><ele>638.0</ele><time>2026-04-25T10:34:27.973Z</time></trkpt><trkpt lat="45.58855834618623" lon="11.227341723820121"><ele>638.0</ele><time>2026-04-25T10:34:28.973Z</time></trkpt><trkpt lat="45.588658302950506" lon="11.227319337263467"><ele>638.0</ele><time>2026-04-25T10:34:29.973Z</time></trkpt><trkpt lat="45.5887393483271" lon="11.227327240967464"><ele>638.3333333333333</ele><time>2026-04-25T10:34:30.973Z</time></trkpt><trkpt lat="45.58883766699877" lon="11.227339300069293"><ele>638.6666666666666</ele><time>2026-04-25T10:34:31.973Z</time></trkpt><trkpt lat="45.588931946783475" lon="11.227356532369752"><ele>639.0</ele><time>2026-04-25T10:34:32.973Z</time></trkpt><trkpt lat="45.58901718726526" lon="11.227371559112457"><ele>639.3333333333334</ele><time>2026-04-25T10:34:33.973Z</time></trkpt><trkpt lat="45.589103574586204" lon="11.227351801423273"><ele>639.6666666666667</ele><time>2026-04-25T10:34:34.973Z</time></trkpt><trkpt lat="45.589176508781485" lon="11.227333574978692"><ele>640.0</ele><time>2026-04-25T10:34:35.973Z</time></trkpt><trkpt lat="45.5892367017789" lon="11.227285872737912"><ele>641.5714285714286</ele><time>2026-04-25T10:34:36.973Z</time></trkpt><trkpt lat="45.58929075658186" lon="11.227219556420838"><ele>643.1428571428571</ele><time>2026-04-25T10:34:37.973Z</time></trkpt><trkpt lat="45.58934141179801" lon="11.227161539648995"><ele>644.7142857142858</ele><time>2026-04-25T10:34:38.973Z</time></trkpt><trkpt lat="45.5894065381258" lon="11.227141232273109"><ele>646.2857142857142</ele><time>2026-04-25T10:34:40.973Z</time></trkpt><trkpt lat="45.5894865468765" lon="11.22720491185075"><ele>647.8571428571429</ele><time>2026-04-25T10:34:43.973Z</time></trkpt><trkpt lat="45.58953797774804" lon="11.227291934944994"><ele>649.4285714285714</ele><time>2026-04-25T10:34:45.973Z</time></trkpt><trkpt lat="45.58960818975939" lon="11.227296833002248"><ele>651.0</ele><time>2026-04-25T10:34:46.973Z</time></trkpt><trkpt lat="45.589725829884834" lon="11.22733592393478"><ele>645.8</ele><time>2026-04-25T10:34:48.973Z</time></trkpt><trkpt lat="45.58979999666167" lon="11.22734565268093"><ele>640.5999999999999</ele><time>2026-04-25T10:34:49.973Z</time></trkpt><trkpt lat="45.58987468424801" lon="11.227350800413268"><ele>635.4</ele><time>2026-04-25T10:34:50.973Z</time></trkpt><trkpt lat="45.58994654564967" lon="11.227358269655504"><ele>630.2</ele><time>2026-04-25T10:34:51.973Z</time></trkpt><trkpt lat="45.59006986793242" lon="11.22736008215233"><ele>625.0</ele><time>2026-04-25T10:34:53.973Z</time></trkpt><trkpt lat="45.590178249112626" lon="11.227333614837425"><ele>625.0</ele><time>2026-04-25T10:34:54.973Z</time></trkpt><trkpt lat="45.5902506898986" lon="11.227315323351505"><ele>625.0</ele><time>2026-04-25T10:34:55.973Z</time></trkpt><trkpt lat="45.590342838091935" lon="11.227275968777231"><ele>625.0</ele><time>2026-04-25T10:34:56.973Z</time></trkpt><trkpt lat="45.59045648891546" lon="11.227201174936496"><ele>625.0</ele><time>2026-04-25T10:34:57.973Z</time></trkpt><trkpt lat="45.59053128980423" lon="11.227171048457445"><ele>625.0</ele><time>2026-04-25T10:34:58.973Z</time></trkpt><trkpt lat="45.590596083393606" lon="11.22717587808963"><ele>625.0</ele><time>2026-04-25T10:34:59.973Z</time></trkpt><trkpt lat="45.59069958042618" lon="11.22725796706569"><ele>626.2</ele><time>2026-04-25T10:35:01.973Z</time></trkpt><trkpt lat="45.59078421370695" lon="11.227331605233413"><ele>627.4</ele><time>2026-04-25T10:35:02.973Z</time></trkpt><trkpt lat="45.59086097924279" lon="11.227372080692218"><ele>628.6</ele><time>2026-04-25T10:35:03.973Z</time></trkpt><trkpt lat="45.590886878454356" lon="11.227505358556632"><ele>629.8</ele><time>2026-04-25T10:35:05.973Z</time></trkpt><trkpt lat="45.59087453430425" lon="11.227660746231336"><ele>631.0</ele><time>2026-04-25T10:35:07.973Z</time></trkpt><trkpt lat="45.590971392193744" lon="11.227718809615782"><ele>631.0</ele><time>2026-04-25T10:35:09.973Z</time></trkpt><trkpt lat="45.591040367893434" lon="11.227730815587195"><ele>631.0</ele><time>2026-04-25T10:35:10.973Z</time></trkpt><trkpt lat="45.591138365665316" lon="11.227761329795127"><ele>631.0</ele><time>2026-04-25T10:35:11.973Z</time></trkpt><trkpt lat="45.5912237424583" lon="11.227791817250532"><ele>631.0</ele><time>2026-04-25T10:35:12.973Z</time></trkpt><trkpt lat="45.59129113372725" lon="11.227840670686462"><ele>631.0</ele><time>2026-04-25T10:35:13.973Z</time></trkpt><trkpt lat="45.59140828592771" lon="11.2278993087571"><ele>631.0</ele><time>2026-04-25T10:35:15.973Z</time></trkpt><trkpt lat="45.59149939940148" lon="11.227951901849904"><ele>631.0</ele><time>2026-04-25T10:35:16.973Z</time></trkpt><trkpt lat="45.59169658271645" lon="11.227962216934321"><ele>631.0</ele><time>2026-04-25T10:35:18.973Z</time></trkpt><trkpt lat="45.591797622939396" lon="11.22796401040702"><ele>631.0</ele><time>2026-04-25T10:35:19.973Z</time></trkpt><trkpt lat="45.591885875460875" lon="11.227962960099882"><ele>626.6</ele><time>2026-04-25T10:35:20.973Z</time></trkpt><trkpt lat="45.592098998031176" lon="11.227955011741178"><ele>622.2</ele><time>2026-04-25T10:35:23.973Z</time></trkpt><trkpt lat="45.5921728477961" lon="11.227950721177638"><ele>617.8</ele><time>2026-04-25T10:35:24.973Z</time></trkpt><trkpt lat="45.59223834279878" lon="11.227925093744643"><ele>613.4</ele><time>2026-04-25T10:35:25.973Z</time></trkpt><trkpt lat="45.592322295174164" lon="11.227893178347214"><ele>609.0</ele><time>2026-04-25T10:35:26.973Z</time></trkpt><trkpt lat="45.592417793573546" lon="11.2278063040273"><ele>609.0</ele><time>2026-04-25T10:35:28.973Z</time></trkpt><trkpt lat="45.592502924356864" lon="11.227791664426393"><ele>609.0</ele><time>2026-04-25T10:35:30.973Z</time></trkpt><trkpt lat="45.5925407357553" lon="11.227874910044001"><ele>609.0</ele><time>2026-04-25T10:35:33.973Z</time></trkpt><trkpt lat="45.59248840870578" lon="11.22797401256126"><ele>609.0</ele><time>2026-04-25T10:35:35.973Z</time></trkpt><trkpt lat="45.59245739080243" lon="11.228066008040628"><ele>609.0</ele><time>2026-04-25T10:35:36.973Z</time></trkpt><trkpt lat="45.592442990286806" lon="11.228185576779111"><ele>609.0</ele><time>2026-04-25T10:35:38.973Z</time></trkpt><trkpt lat="45.59250033752402" lon="11.228289356810539"><ele>607.4</ele><time>2026-04-25T10:35:40.973Z</time></trkpt><trkpt lat="45.592537301709804" lon="11.228405019836968"><ele>605.8</ele><time>2026-04-25T10:35:42.973Z</time></trkpt><trkpt lat="45.592586696839476" lon="11.228489374681567"><ele>604.2</ele><time>2026-04-25T10:35:43.973Z</time></trkpt><trkpt lat="45.59265224679975" lon="11.228574611597047"><ele>602.6</ele><time>2026-04-25T10:35:44.973Z</time></trkpt><trkpt lat="45.592708184110926" lon="11.228622665944968"><ele>601.0</ele><time>2026-04-25T10:35:45.973Z</time></trkpt><trkpt lat="45.59284078558731" lon="11.228689065302566"><ele>598.0</ele><time>2026-04-25T10:35:47.973Z</time></trkpt><trkpt lat="45.59291004125012" lon="11.228740383166503"><ele>595.0</ele><time>2026-04-25T10:35:48.973Z</time></trkpt><trkpt lat="45.592972834178475" lon="11.228787162422023"><ele>592.0</ele><time>2026-04-25T10:35:49.973Z</time></trkpt><trkpt lat="45.59302960484872" lon="11.228842453750174"><ele>589.0</ele><time>2026-04-25T10:35:50.973Z</time></trkpt><trkpt lat="45.59308799515456" lon="11.2288802963675"><ele>586.0</ele><time>2026-04-25T10:35:51.973Z</time></trkpt><trkpt lat="45.593149556538265" lon="11.22892677036224"><ele>583.0</ele><time>2026-04-25T10:35:53.973Z</time></trkpt><trkpt lat="45.593234116236694" lon="11.228933076068216"><ele>580.0</ele><time>2026-04-25T10:35:55.972Z</time></trkpt><trkpt lat="45.593335339669984" lon="11.228853377146125"><ele>580.0</ele><time>2026-04-25T10:35:57.972Z</time></trkpt><trkpt lat="45.593421220407734" lon="11.228726731958435"><ele>580.0</ele><time>2026-04-25T10:35:59.972Z</time></trkpt><trkpt lat="45.59347926539852" lon="11.228596211890459"><ele>580.0</ele><time>2026-04-25T10:36:01.973Z</time></trkpt><trkpt lat="45.59348642896559" lon="11.228466855770286"><ele>580.0</ele><time>2026-04-25T10:36:03.973Z</time></trkpt><trkpt lat="45.59347793624744" lon="11.228312964139093"><ele>580.0</ele><time>2026-04-25T10:36:05.973Z</time></trkpt><trkpt lat="45.59347132404626" lon="11.228220051687172"><ele>580.5</ele><time>2026-04-25T10:36:06.973Z</time></trkpt><trkpt lat="45.59344851838105" lon="11.228103847221975"><ele>581.0</ele><time>2026-04-25T10:36:08.973Z</time></trkpt><trkpt lat="45.59346474615841" lon="11.228006595398902"><ele>581.5</ele><time>2026-04-25T10:36:10.973Z</time></trkpt><trkpt lat="45.593452325293484" lon="11.227850956456459"><ele>582.0</ele><time>2026-04-25T10:36:12.973Z</time></trkpt><trkpt lat="45.59350673368149" lon="11.227792072010823"><ele>582.5</ele><time>2026-04-25T10:36:25.973Z</time></trkpt><trkpt lat="45.59356052272018" lon="11.22785856878775"><ele>583.0</ele><time>2026-04-25T10:36:29.973Z</time></trkpt><trkpt lat="45.59363486004329" lon="11.22789565549093"><ele>581.4</ele><time>2026-04-25T10:36:36.972Z</time></trkpt><trkpt lat="45.5938100986382" lon="11.227898540867471"><ele>579.8</ele><time>2026-04-25T10:36:44.972Z</time></trkpt><trkpt lat="45.59389202836763" lon="11.227889961149895"><ele>578.2</ele><time>2026-04-25T10:36:46.972Z</time></trkpt><trkpt lat="45.594009453502636" lon="11.22793328836767"><ele>576.6</ele><time>2026-04-25T10:36:49.972Z</time></trkpt><trkpt lat="45.59407151949987" lon="11.227948705302461"><ele>575.0</ele><time>2026-04-25T10:36:50.972Z</time></trkpt><trkpt lat="45.59413884108344" lon="11.22795196359041"><ele>575.0</ele><time>2026-04-25T10:36:51.972Z</time></trkpt><trkpt lat="45.59428735150549" lon="11.227989738495127"><ele>575.0</ele><time>2026-04-25T10:36:53.972Z</time></trkpt><trkpt lat="45.59440391237543" lon="11.228063303373471"><ele>575.0</ele><time>2026-04-25T10:36:55.972Z</time></trkpt><trkpt lat="45.59447006407473" lon="11.228118853474095"><ele>575.0</ele><time>2026-04-25T10:36:56.972Z</time></trkpt><trkpt lat="45.594529680564186" lon="11.228175058836205"><ele>575.0</ele><time>2026-04-25T10:36:57.972Z</time></trkpt><trkpt lat="45.594591237596745" lon="11.228217533352842"><ele>571.0</ele><time>2026-04-25T10:36:58.972Z</time></trkpt><trkpt lat="45.59465673553184" lon="11.228263638808887"><ele>567.0</ele><time>2026-04-25T10:36:59.972Z</time></trkpt><trkpt lat="45.59472509820316" lon="11.228319978491992"><ele>563.0</ele><time>2026-04-25T10:37:01.972Z</time></trkpt><trkpt lat="45.59482130891786" lon="11.228362859474112"><ele>559.0</ele><time>2026-04-25T10:37:03.972Z</time></trkpt><trkpt lat="45.59489761649316" lon="11.22834426017783"><ele>555.0</ele><time>2026-04-25T10:37:04.972Z</time></trkpt><trkpt lat="45.595000243640655" lon="11.228296679405506"><ele>551.0</ele><time>2026-04-25T10:37:06.972Z</time></trkpt><trkpt lat="45.59506453709907" lon="11.22827152515733"><ele>550.9999999999999</ele><time>2026-04-25T10:37:10.972Z</time></trkpt><trkpt lat="45.595046143086925" lon="11.2281578894663"><ele>551.0</ele><time>2026-04-25T10:37:22.972Z</time></trkpt><trkpt lat="45.59501284023341" lon="11.22806966758484"><ele>551.0</ele><time>2026-04-25T10:37:24.972Z</time></trkpt><trkpt lat="45.594996760724136" lon="11.2279739647024"><ele>551.0</ele><time>2026-04-25T10:37:26.972Z</time></trkpt><trkpt lat="45.59498608234485" lon="11.227878748759304"><ele>551.0</ele><time>2026-04-25T10:37:28.972Z</time></trkpt><trkpt lat="45.59493247948882" lon="11.227802240833444"><ele>550.9999999999999</ele><time>2026-04-25T10:37:31.972Z</time></trkpt><trkpt lat="45.59486710086215" lon="11.22772584265645"><ele>551.0</ele><time>2026-04-25T10:37:34.972Z</time></trkpt><trkpt lat="45.59482178917328" lon="11.22755335527342"><ele>550.8333333333333</ele><time>2026-04-25T10:37:36.972Z</time></trkpt><trkpt lat="45.59480144629888" lon="11.227455970970178"><ele>550.6666666666666</ele><time>2026-04-25T10:37:37.972Z</time></trkpt><trkpt lat="45.59476247553801" lon="11.22734161525668"><ele>550.5</ele><time>2026-04-25T10:37:39.972Z</time></trkpt><trkpt lat="45.594684059692234" lon="11.227269362809391"><ele>550.3333333333334</ele><time>2026-04-25T10:37:42.972Z</time></trkpt><trkpt lat="45.5946121338496" lon="11.227228896400437"><ele>550.1666666666667</ele><time>2026-04-25T10:37:45.972Z</time></trkpt><trkpt lat="45.59453530361609" lon="11.227176237405535"><ele>550.0</ele><time>2026-04-25T10:37:47.972Z</time></trkpt><trkpt lat="45.594449079431214" lon="11.227158461232666"><ele>557.2</ele><time>2026-04-25T10:37:49.972Z</time></trkpt><trkpt lat="45.59440291260807" lon="11.22708545854652"><ele>564.4</ele><time>2026-04-25T10:37:51.972Z</time></trkpt><trkpt lat="45.59433124200764" lon="11.226969473448994"><ele>571.6</ele><time>2026-04-25T10:37:53.972Z</time></trkpt><trkpt lat="45.594251521795066" lon="11.226951557059644"><ele>578.8</ele><time>2026-04-25T10:37:55.972Z</time></trkpt><trkpt lat="45.59414340131727" lon="11.226957642992852"><ele>586.0</ele><time>2026-04-25T10:37:57.972Z</time></trkpt><trkpt lat="45.59403572318966" lon="11.226870268937432"><ele>586.0</ele><time>2026-04-25T10:37:59.972Z</time></trkpt><trkpt lat="45.593959486938296" lon="11.226801085607422"><ele>586.0</ele><time>2026-04-25T10:38:00.972Z</time></trkpt><trkpt lat="45.59389313710999" lon="11.226733906059692"><ele>586.0</ele><time>2026-04-25T10:38:01.972Z</time></trkpt><trkpt lat="45.59384559869006" lon="11.226669147407572"><ele>586.0</ele><time>2026-04-25T10:38:02.972Z</time></trkpt><trkpt lat="45.59376953127232" lon="11.226518743132397"><ele>586.0</ele><time>2026-04-25T10:38:04.972Z</time></trkpt><trkpt lat="45.593684634767676" lon="11.22637201649701"><ele>591.0</ele><time>2026-04-25T10:38:05.972Z</time></trkpt><trkpt lat="45.59359453244133" lon="11.226225446668789"><ele>596.0</ele><time>2026-04-25T10:38:06.972Z</time></trkpt><trkpt lat="45.59352582097618" lon="11.226089764387362"><ele>601.0</ele><time>2026-04-25T10:38:07.972Z</time></trkpt><trkpt lat="45.59345902401852" lon="11.225957865452555"><ele>606.0</ele><time>2026-04-25T10:38:08.973Z</time></trkpt><trkpt lat="45.59340920524227" lon="11.225864520797888"><ele>606.0</ele><time>2026-04-25T10:38:09.973Z</time></trkpt><trkpt lat="45.59334926058238" lon="11.225771949097627"><ele>606.0</ele><time>2026-04-25T10:38:10.973Z</time></trkpt><trkpt lat="45.593280654779335" lon="11.225696149698136"><ele>606.0</ele><time>2026-04-25T10:38:11.972Z</time></trkpt><trkpt lat="45.593216554007746" lon="11.225641788926602"><ele>606.0</ele><time>2026-04-25T10:38:12.972Z</time></trkpt><trkpt lat="45.59310709379314" lon="11.225651879949233"><ele>606.0</ele><time>2026-04-25T10:38:14.972Z</time></trkpt><trkpt lat="45.59300297310715" lon="11.225685224114825"><ele>606.0</ele><time>2026-04-25T10:38:15.972Z</time></trkpt><trkpt lat="45.592930310953356" lon="11.225734062816423"><ele>606.0</ele><time>2026-04-25T10:38:16.972Z</time></trkpt><trkpt lat="45.592868275506305" lon="11.225774845901766"><ele>606.0</ele><time>2026-04-25T10:38:17.972Z</time></trkpt><trkpt lat="45.592760322733085" lon="11.225783708908509"><ele>606.0</ele><time>2026-04-25T10:38:19.972Z</time></trkpt><trkpt lat="45.59269635079445" lon="11.225785022271891"><ele>606.0</ele><time>2026-04-25T10:38:20.972Z</time></trkpt><trkpt lat="45.592597238407" lon="11.225788701491528"><ele>606.0</ele><time>2026-04-25T10:38:22.972Z</time></trkpt><trkpt lat="45.59252803601638" lon="11.225778199399407"><ele>609.3333333333334</ele><time>2026-04-25T10:38:24.972Z</time></trkpt><trkpt lat="45.592516970630804" lon="11.225683190669145"><ele>612.6666666666666</ele><time>2026-04-25T10:38:26.972Z</time></trkpt><trkpt lat="45.59246293917402" lon="11.225619729477557"><ele>616.0</ele><time>2026-04-25T10:38:28.972Z</time></trkpt><trkpt lat="45.592440231776315" lon="11.225498292126437"><ele>619.3333333333333</ele><time>2026-04-25T10:38:29.972Z</time></trkpt><trkpt lat="45.59239995843834" lon="11.225399907320503"><ele>622.6666666666666</ele><time>2026-04-25T10:38:30.972Z</time></trkpt><trkpt lat="45.592322991403094" lon="11.225325417778421"><ele>626.0</ele><time>2026-04-25T10:38:32.972Z</time></trkpt><trkpt lat="45.59228115461763" lon="11.225189974336672"><ele>627.6666666666666</ele><time>2026-04-25T10:38:34.972Z</time></trkpt><trkpt lat="45.59226042356284" lon="11.225100701792723"><ele>629.3333333333333</ele><time>2026-04-25T10:38:35.972Z</time></trkpt><trkpt lat="45.59223057208713" lon="11.225005351114078"><ele>631.0</ele><time>2026-04-25T10:38:36.972Z</time></trkpt><trkpt lat="45.592182171895764" lon="11.224927004220497"><ele>632.6666666666666</ele><time>2026-04-25T10:38:37.972Z</time></trkpt><trkpt lat="45.592146630857684" lon="11.2248366166755"><ele>634.3333333333334</ele><time>2026-04-25T10:38:38.972Z</time></trkpt><trkpt lat="45.59208453330212" lon="11.224714123249367"><ele>636.0</ele><time>2026-04-25T10:38:40.972Z</time></trkpt><trkpt lat="45.59207283111873" lon="11.224614197916763"><ele>637.2</ele><time>2026-04-25T10:38:41.972Z</time></trkpt><trkpt lat="45.59203244616059" lon="11.224433991763998"><ele>638.4000000000001</ele><time>2026-04-25T10:38:43.972Z</time></trkpt><trkpt lat="45.59199155416305" lon="11.22430093094939"><ele>639.6</ele><time>2026-04-25T10:38:44.972Z</time></trkpt><trkpt lat="45.591937205790785" lon="11.224203389766782"><ele>640.8000000000001</ele><time>2026-04-25T10:38:45.972Z</time></trkpt><trkpt lat="45.59188511514614" lon="11.224106532637423"><ele>642.0</ele><time>2026-04-25T10:38:46.972Z</time></trkpt><trkpt lat="45.5918746628172" lon="11.224011347658047"><ele>647.8</ele><time>2026-04-25T10:38:47.972Z</time></trkpt><trkpt lat="45.59189303938788" lon="11.223885604276298"><ele>653.6</ele><time>2026-04-25T10:38:49.972Z</time></trkpt><trkpt lat="45.59190286927505" lon="11.223726504516069"><ele>659.4</ele><time>2026-04-25T10:38:50.972Z</time></trkpt><trkpt lat="45.59188486857386" lon="11.223637594135297"><ele>665.1999999999999</ele><time>2026-04-25T10:38:51.972Z</time></trkpt><trkpt lat="45.59186571930481" lon="11.223546977401648"><ele>671.0</ele><time>2026-04-25T10:38:52.972Z</time></trkpt><trkpt lat="45.59180335584571" lon="11.223392521533642"><ele>671.0</ele><time>2026-04-25T10:38:54.972Z</time></trkpt><trkpt lat="45.59177119094598" lon="11.223287937086928"><ele>671.0</ele><time>2026-04-25T10:38:55.972Z</time></trkpt><trkpt lat="45.59172905015797" lon="11.223204260644744"><ele>671.0</ele><time>2026-04-25T10:38:56.972Z</time></trkpt><trkpt lat="45.591712098804" lon="11.22309050445444"><ele>671.0</ele><time>2026-04-25T10:38:58.972Z</time></trkpt><trkpt lat="45.59163743172285" lon="11.223035876035784"><ele>671.0</ele><time>2026-04-25T10:39:00.972Z</time></trkpt><trkpt lat="45.5915454428436" lon="11.223007567885672"><ele>671.0</ele><time>2026-04-25T10:39:03.972Z</time></trkpt><trkpt lat="45.59144490528277" lon="11.222887429270141"><ele>673.5</ele><time>2026-04-25T10:39:05.972Z</time></trkpt><trkpt lat="45.59138970016017" lon="11.222797901875595"><ele>676.0</ele><time>2026-04-25T10:39:06.972Z</time></trkpt><trkpt lat="45.59132998117324" lon="11.22267680069226"><ele>678.5</ele><time>2026-04-25T10:39:07.972Z</time></trkpt><trkpt lat="45.59128348960648" lon="11.22259259216122"><ele>681.0</ele><time>2026-04-25T10:39:08.972Z</time></trkpt><trkpt lat="45.59124644987586" lon="11.222505908939878"><ele>683.5</ele><time>2026-04-25T10:39:09.972Z</time></trkpt><trkpt lat="45.59121630494623" lon="11.22241703522097"><ele>686.0</ele><time>2026-04-25T10:39:10.972Z</time></trkpt><trkpt lat="45.59130386524232" lon="11.222247693422249"><ele>688.8333333333333</ele><time>2026-04-25T10:39:12.972Z</time></trkpt><trkpt lat="45.59136149881578" lon="11.222140617764895"><ele>691.6666666666666</ele><time>2026-04-25T10:39:13.972Z</time></trkpt><trkpt lat="45.591408275671824" lon="11.222025872326872"><ele>694.5</ele><time>2026-04-25T10:39:14.972Z</time></trkpt><trkpt lat="45.59147169549652" lon="11.22194538626003"><ele>697.3333333333334</ele><time>2026-04-25T10:39:15.972Z</time></trkpt><trkpt lat="45.59154761692775" lon="11.221887891003542"><ele>700.1666666666667</ele><time>2026-04-25T10:39:16.972Z</time></trkpt><trkpt lat="45.59162511502805" lon="11.221847441039166"><ele>703.0</ele><time>2026-04-25T10:39:17.972Z</time></trkpt><trkpt lat="45.591701905903065" lon="11.221798089516374"><ele>703.0</ele><time>2026-04-25T10:39:18.972Z</time></trkpt><trkpt lat="45.591764313235664" lon="11.221737367085751"><ele>703.0</ele><time>2026-04-25T10:39:19.972Z</time></trkpt><trkpt lat="45.591800759131324" lon="11.221646706015202"><ele>703.0</ele><time>2026-04-25T10:39:20.972Z</time></trkpt><trkpt lat="45.591826423558054" lon="11.221525092116558"><ele>703.0</ele><time>2026-04-25T10:39:21.972Z</time></trkpt><trkpt lat="45.59180666473144" lon="11.221419663194101"><ele>703.0</ele><time>2026-04-25T10:39:22.972Z</time></trkpt><trkpt lat="45.59175496400306" lon="11.2213014064695"><ele>703.0</ele><time>2026-04-25T10:39:23.972Z</time></trkpt><trkpt lat="45.591693594088284" lon="11.221184855427376"><ele>704.3333333333334</ele><time>2026-04-25T10:39:24.972Z</time></trkpt><trkpt lat="45.591628951027396" lon="11.221091885678172"><ele>705.6666666666667</ele><time>2026-04-25T10:39:25.972Z</time></trkpt><trkpt lat="45.59157868615607" lon="11.220980938852405"><ele>707.0</ele><time>2026-04-25T10:39:26.972Z</time></trkpt><trkpt lat="45.591551832384496" lon="11.220869793477815"><ele>708.3333333333334</ele><time>2026-04-25T10:39:27.972Z</time></trkpt><trkpt lat="45.59152134062325" lon="11.220778625166497"><ele>709.6666666666666</ele><time>2026-04-25T10:39:28.972Z</time></trkpt><trkpt lat="45.591525593136886" lon="11.220636628672274"><ele>711.0</ele><time>2026-04-25T10:39:30.972Z</time></trkpt><trkpt lat="45.59156004715997" lon="11.220530636915063"><ele>712.6666666666666</ele><time>2026-04-25T10:39:32.972Z</time></trkpt><trkpt lat="45.59163132805211" lon="11.220512031649823"><ele>714.3333333333334</ele><time>2026-04-25T10:39:35.972Z</time></trkpt><trkpt lat="45.59173219209476" lon="11.220558404836284"><ele>716.0</ele><time>2026-04-25T10:39:37.971Z</time></trkpt><trkpt lat="45.591816428963725" lon="11.220576735000652"><ele>717.6666666666667</ele><time>2026-04-25T10:39:39.971Z</time></trkpt><trkpt lat="45.59181494854385" lon="11.220428633312885"><ele>719.3333333333334</ele><time>2026-04-25T10:39:41.971Z</time></trkpt><trkpt lat="45.59177020807498" lon="11.220353899506055"><ele>721.0</ele><time>2026-04-25T10:39:42.971Z</time></trkpt><trkpt lat="45.59170670320474" lon="11.220267348197872"><ele>721.0</ele><time>2026-04-25T10:39:43.971Z</time></trkpt><trkpt lat="45.59163098392786" lon="11.220181852938808"><ele>721.0</ele><time>2026-04-25T10:39:44.971Z</time></trkpt><trkpt lat="45.59154504987466" lon="11.220061380472533"><ele>721.0</ele><time>2026-04-25T10:39:45.971Z</time></trkpt><trkpt lat="45.59148433712316" lon="11.21992725808385"><ele>721.0</ele><time>2026-04-25T10:39:46.971Z</time></trkpt><trkpt lat="45.5914576369272" lon="11.21979010200791"><ele>721.0</ele><time>2026-04-25T10:39:47.971Z</time></trkpt><trkpt lat="45.59144354249017" lon="11.219673866895247"><ele>721.5</ele><time>2026-04-25T10:39:48.971Z</time></trkpt><trkpt lat="45.59147736252629" lon="11.219559518331785"><ele>722.0</ele><time>2026-04-25T10:39:49.971Z</time></trkpt><trkpt lat="45.591526782017326" lon="11.219452995084108"><ele>722.5</ele><time>2026-04-25T10:39:50.971Z</time></trkpt><trkpt lat="45.591589705951336" lon="11.21934565279803"><ele>723.0</ele><time>2026-04-25T10:39:51.971Z</time></trkpt><trkpt lat="45.59165112768115" lon="11.219245783621357"><ele>723.5</ele><time>2026-04-25T10:39:52.971Z</time></trkpt><trkpt lat="45.59170209444215" lon="11.219185607677286"><ele>724.0</ele><time>2026-04-25T10:39:53.971Z</time></trkpt><trkpt lat="45.59187317595647" lon="11.219250190632692"><ele>724.0</ele><time>2026-04-25T10:40:01.971Z</time></trkpt><trkpt lat="45.591956582649146" lon="11.219306755196495"><ele>724.0</ele><time>2026-04-25T10:40:03.971Z</time></trkpt><trkpt lat="45.59203469443068" lon="11.219254344863197"><ele>724.0</ele><time>2026-04-25T10:40:05.971Z</time></trkpt><trkpt lat="45.59209152220092" lon="11.219186577485043"><ele>724.0</ele><time>2026-04-25T10:40:06.971Z</time></trkpt><trkpt lat="45.59215364904981" lon="11.21913323989756"><ele>724.0</ele><time>2026-04-25T10:40:07.971Z</time></trkpt><trkpt lat="45.59221967143461" lon="11.219070917332235"><ele>724.0</ele><time>2026-04-25T10:40:08.971Z</time></trkpt><trkpt lat="45.59228059395912" lon="11.21898305338731"><ele>727.4000000000001</ele><time>2026-04-25T10:40:09.971Z</time></trkpt><trkpt lat="45.59235227457036" lon="11.218854109905868"><ele>730.8</ele><time>2026-04-25T10:40:10.972Z</time></trkpt><trkpt lat="45.59242610437391" lon="11.218744757704043"><ele>734.2</ele><time>2026-04-25T10:40:11.972Z</time></trkpt><trkpt lat="45.59248450327009" lon="11.218637720137046"><ele>737.5999999999999</ele><time>2026-04-25T10:40:12.972Z</time></trkpt><trkpt lat="45.592542870277995" lon="11.218540802332924"><ele>741.0</ele><time>2026-04-25T10:40:13.972Z</time></trkpt><trkpt lat="45.59264549293734" lon="11.218453531900355"><ele>741.0</ele><time>2026-04-25T10:40:14.972Z</time></trkpt><trkpt lat="45.59274729766748" lon="11.218392020917868"><ele>741.0</ele><time>2026-04-25T10:40:15.972Z</time></trkpt><trkpt lat="45.59284760311513" lon="11.218304210196521"><ele>741.0</ele><time>2026-04-25T10:40:16.972Z</time></trkpt><trkpt lat="45.592927437782635" lon="11.218224029612317"><ele>741.0</ele><time>2026-04-25T10:40:17.972Z</time></trkpt><trkpt lat="45.59299140570475" lon="11.21818300223549"><ele>741.0</ele><time>2026-04-25T10:40:18.972Z</time></trkpt><trkpt lat="45.593035589483954" lon="11.218098971705162"><ele>741.5</ele><time>2026-04-25T10:40:19.972Z</time></trkpt><trkpt lat="45.593083505871654" lon="11.217969790705235"><ele>742.0</ele><time>2026-04-25T10:40:20.972Z</time></trkpt><trkpt lat="45.59311391690622" lon="11.217800490075204"><ele>742.5</ele><time>2026-04-25T10:40:21.972Z</time></trkpt><trkpt lat="45.593120049543025" lon="11.217617954251985"><ele>743.0</ele><time>2026-04-25T10:40:22.972Z</time></trkpt><trkpt lat="45.5931176359962" lon="11.217437962715797"><ele>744.8</ele><time>2026-04-25T10:40:23.971Z</time></trkpt><trkpt lat="45.593097651583456" lon="11.217277537114937"><ele>746.5999999999999</ele><time>2026-04-25T10:40:24.971Z</time></trkpt><trkpt lat="45.59309340404528" lon="11.217124067389877"><ele>748.4000000000001</ele><time>2026-04-25T10:40:25.971Z</time></trkpt><trkpt lat="45.59311261827078" lon="11.216982326608264"><ele>750.2</ele><time>2026-04-25T10:40:26.971Z</time></trkpt><trkpt lat="45.59314817238253" lon="11.21682718630303"><ele>752.0</ele><time>2026-04-25T10:40:27.971Z</time></trkpt><trkpt lat="45.59315592282769" lon="11.216663759359221"><ele>752.0</ele><time>2026-04-25T10:40:28.971Z</time></trkpt><trkpt lat="45.593167862873656" lon="11.216512100528583"><ele>752.0</ele><time>2026-04-25T10:40:29.971Z</time></trkpt><trkpt lat="45.59319026278597" lon="11.216356542446947"><ele>752.0</ele><time>2026-04-25T10:40:30.971Z</time></trkpt><trkpt lat="45.59322607687734" lon="11.216199608656847"><ele>752.0</ele><time>2026-04-25T10:40:31.971Z</time></trkpt><trkpt lat="45.593274766505616" lon="11.216015491891051"><ele>753.0</ele><time>2026-04-25T10:40:32.971Z</time></trkpt><trkpt lat="45.59331605463368" lon="11.21586888699932"><ele>754.0</ele><time>2026-04-25T10:40:33.971Z</time></trkpt><trkpt lat="45.5933928053451" lon="11.21573404176206"><ele>755.0</ele><time>2026-04-25T10:40:34.971Z</time></trkpt><trkpt lat="45.593483146321766" lon="11.215604756234843"><ele>756.0</ele><time>2026-04-25T10:40:35.971Z</time></trkpt><trkpt lat="45.59357086481332" lon="11.215507408664426"><ele>756.0</ele><time>2026-04-25T10:40:36.971Z</time></trkpt><trkpt lat="45.59364086268929" lon="11.215422899064945"><ele>756.0</ele><time>2026-04-25T10:40:37.971Z</time></trkpt><trkpt lat="45.59369588018245" lon="11.215307499018081"><ele>756.0</ele><time>2026-04-25T10:40:38.971Z</time></trkpt><trkpt lat="45.59370631392128" lon="11.215202851763653"><ele>756.0</ele><time>2026-04-25T10:40:39.971Z</time></trkpt><trkpt lat="45.593722389772665" lon="11.215037275101176"><ele>756.0</ele><time>2026-04-25T10:40:41.971Z</time></trkpt><trkpt lat="45.59374272158438" lon="11.214887807069138"><ele>760.0</ele><time>2026-04-25T10:40:42.971Z</time></trkpt><trkpt lat="45.59375662332953" lon="11.214720167026334"><ele>764.0</ele><time>2026-04-25T10:40:43.971Z</time></trkpt><trkpt lat="45.59376967131682" lon="11.214541112398077"><ele>768.0</ele><time>2026-04-25T10:40:44.971Z</time></trkpt><trkpt lat="45.593789714418776" lon="11.214381033063821"><ele>772.0</ele><time>2026-04-25T10:40:45.971Z</time></trkpt><trkpt lat="45.593798304601954" lon="11.214223638560973"><ele>772.0</ele><time>2026-04-25T10:40:46.971Z</time></trkpt><trkpt lat="45.59380911148388" lon="11.214063160928033"><ele>772.0</ele><time>2026-04-25T10:40:47.971Z</time></trkpt><trkpt lat="45.593815467707806" lon="11.213889230756322"><ele>772.0</ele><time>2026-04-25T10:40:48.971Z</time></trkpt><trkpt lat="45.593806779682026" lon="11.213705170273608"><ele>772.0</ele><time>2026-04-25T10:40:49.971Z</time></trkpt><trkpt lat="45.59380126010174" lon="11.21352978479734"><ele>775.5</ele><time>2026-04-25T10:40:50.971Z</time></trkpt><trkpt lat="45.59379328510379" lon="11.213339562269988"><ele>779.0</ele><time>2026-04-25T10:40:51.971Z</time></trkpt><trkpt lat="45.59378754821103" lon="11.213141682240703"><ele>782.5</ele><time>2026-04-25T10:40:52.971Z</time></trkpt><trkpt lat="45.59377035485643" lon="11.2129293178419"><ele>786.0</ele><time>2026-04-25T10:40:53.971Z</time></trkpt><trkpt lat="45.59375431611661" lon="11.212724253493338"><ele>787.0</ele><time>2026-04-25T10:40:54.971Z</time></trkpt><trkpt lat="45.593758539147174" lon="11.212499981927616"><ele>788.0</ele><time>2026-04-25T10:40:55.971Z</time></trkpt><trkpt lat="45.59377951084911" lon="11.212272112171101"><ele>789.0</ele><time>2026-04-25T10:40:56.971Z</time></trkpt><trkpt lat="45.59378271076364" lon="11.212062335852707"><ele>789.5</ele><time>2026-04-25T10:40:57.971Z</time></trkpt><trkpt lat="45.59375207617349" lon="11.21182839087695"><ele>790.0</ele><time>2026-04-25T10:40:58.971Z</time></trkpt><trkpt lat="45.593700882190234" lon="11.21163912386566"><ele>790.5</ele><time>2026-04-25T10:40:59.971Z</time></trkpt><trkpt lat="45.59366261224976" lon="11.211451989911717"><ele>791.0</ele><time>2026-04-25T10:41:00.971Z</time></trkpt><trkpt lat="45.59363809596605" lon="11.211218904200077"><ele>792.5</ele><time>2026-04-25T10:41:01.971Z</time></trkpt><trkpt lat="45.593649872628845" lon="11.21101857804696"><ele>794.0</ele><time>2026-04-25T10:41:02.971Z</time></trkpt><trkpt lat="45.59367283496649" lon="11.210809018603697"><ele>795.5</ele><time>2026-04-25T10:41:03.971Z</time></trkpt><trkpt lat="45.593702284071625" lon="11.21065343495135"><ele>797.0</ele><time>2026-04-25T10:41:04.971Z</time></trkpt><trkpt lat="45.593718753629304" lon="11.210480389192588"><ele>798.25</ele><time>2026-04-25T10:41:05.971Z</time></trkpt><trkpt lat="45.593747571374834" lon="11.210304814189916"><ele>799.5</ele><time>2026-04-25T10:41:06.971Z</time></trkpt><trkpt lat="45.593777162159626" lon="11.21011662171576"><ele>800.75</ele><time>2026-04-25T10:41:07.971Z</time></trkpt><trkpt lat="45.593814825102896" lon="11.209949465207192"><ele>802.0</ele><time>2026-04-25T10:41:08.971Z</time></trkpt><trkpt lat="45.59383002749176" lon="11.209806978219662"><ele>802.0</ele><time>2026-04-25T10:41:09.971Z</time></trkpt><trkpt lat="45.59384535869711" lon="11.209690682807112"><ele>802.0</ele><time>2026-04-25T10:41:10.971Z</time></trkpt><trkpt lat="45.593887323611504" lon="11.209592705794641"><ele>802.0</ele><time>2026-04-25T10:41:11.971Z</time></trkpt><trkpt lat="45.59395298462362" lon="11.209474873424085"><ele>802.0</ele><time>2026-04-25T10:41:12.971Z</time></trkpt><trkpt lat="45.59400569990526" lon="11.209368734806818"><ele>802.0</ele><time>2026-04-25T10:41:13.971Z</time></trkpt><trkpt lat="45.594030896506666" lon="11.20923964805143"><ele>802.0</ele><time>2026-04-25T10:41:14.971Z</time></trkpt><trkpt lat="45.59404059016756" lon="11.209078490089317"><ele>802.0</ele><time>2026-04-25T10:41:15.971Z</time></trkpt><trkpt lat="45.594037664411424" lon="11.208949890857346"><ele>802.0</ele><time>2026-04-25T10:41:16.971Z</time></trkpt><trkpt lat="45.59402938682156" lon="11.208811224054871"><ele>802.0</ele><time>2026-04-25T10:41:17.971Z</time></trkpt><trkpt lat="45.594055932587956" lon="11.208677134379366"><ele>802.0</ele><time>2026-04-25T10:41:18.971Z</time></trkpt><trkpt lat="45.59409540638063" lon="11.20853979703485"><ele>801.9999999999999</ele><time>2026-04-25T10:41:19.971Z</time></trkpt><trkpt lat="45.5941308784483" lon="11.208410561741317"><ele>802.0</ele><time>2026-04-25T10:41:20.971Z</time></trkpt><trkpt lat="45.59417053205713" lon="11.208285437973105"><ele>802.0</ele><time>2026-04-25T10:41:21.971Z</time></trkpt><trkpt lat="45.59420119966542" lon="11.208195820121968"><ele>802.0</ele><time>2026-04-25T10:41:22.971Z</time></trkpt><trkpt lat="45.59429190814494" lon="11.208121883335204"><ele>801.9999999999999</ele><time>2026-04-25T10:41:23.971Z</time></trkpt><trkpt lat="45.59433865054478" lon="11.208047886040337"><ele>802.0</ele><time>2026-04-25T10:41:24.971Z</time></trkpt><trkpt lat="45.59441456693544" lon="11.207960166092954"><ele>802.0</ele><time>2026-04-25T10:41:26.971Z</time></trkpt><trkpt lat="45.594504595611724" lon="11.207793414578658"><ele>802.0</ele><time>2026-04-25T10:41:28.971Z</time></trkpt><trkpt lat="45.59451717259519" lon="11.2076663788754"><ele>802.0</ele><time>2026-04-25T10:41:29.971Z</time></trkpt><trkpt lat="45.59451670992006" lon="11.207530137591885"><ele>802.0</ele><time>2026-04-25T10:41:30.971Z</time></trkpt><trkpt lat="45.59453474111083" lon="11.207401308253328"><ele>802.0</ele><time>2026-04-25T10:41:31.971Z</time></trkpt><trkpt lat="45.594559614724716" lon="11.207293489181742"><ele>803.5</ele><time>2026-04-25T10:41:32.971Z</time></trkpt><trkpt lat="45.594578293739794" lon="11.207204064103031"><ele>805.0</ele><time>2026-04-25T10:41:33.971Z</time></trkpt><trkpt lat="45.594634885569285" lon="11.207092344924792"><ele>806.5</ele><time>2026-04-25T10:41:35.971Z</time></trkpt><trkpt lat="45.5946804703557" lon="11.207016704464955"><ele>808.0</ele><time>2026-04-25T10:41:39.971Z</time></trkpt><trkpt lat="45.594724901386634" lon="11.206690706688855"><ele>808.0</ele><time>2026-04-25T10:41:58.97Z</time></trkpt><trkpt lat="45.59476043972374" lon="11.20654464184249"><ele>808.0</ele><time>2026-04-25T10:41:59.97Z</time></trkpt><trkpt lat="45.594795121534034" lon="11.206381593269061"><ele>808.0</ele><time>2026-04-25T10:42:00.97Z</time></trkpt><trkpt lat="45.594825099706604" lon="11.20621322745632"><ele>808.0</ele><time>2026-04-25T10:42:01.97Z</time></trkpt><trkpt lat="45.59487424460322" lon="11.206075991419038"><ele>807.9999999999999</ele><time>2026-04-25T10:42:02.97Z</time></trkpt><trkpt lat="45.59488299968483" lon="11.20593907183195"><ele>808.0</ele><time>2026-04-25T10:42:03.97Z</time></trkpt><trkpt lat="45.594882898795625" lon="11.205831813109064"><ele>808.0</ele><time>2026-04-25T10:42:04.97Z</time></trkpt><trkpt lat="45.59488036067036" lon="11.205728563320855"><ele>808.0</ele><time>2026-04-25T10:42:05.97Z</time></trkpt><trkpt lat="45.5948666248374" lon="11.205589528235919"><ele>807.9999999999999</ele><time>2026-04-25T10:42:07.97Z</time></trkpt><trkpt lat="45.594831634785294" lon="11.205486569876804"><ele>808.0</ele><time>2026-04-25T10:42:44.971Z</time></trkpt><trkpt lat="45.59481236868945" lon="11.20540051811545"><ele>808.4285714285714</ele><time>2026-04-25T10:43:38.97Z</time></trkpt><trkpt lat="45.59478633219943" lon="11.205305404477254"><ele>808.8571428571429</ele><time>2026-04-25T10:43:44.97Z</time></trkpt><trkpt lat="45.59475652276466" lon="11.205206451671641"><ele>809.2857142857142</ele><time>2026-04-25T10:43:50.97Z</time></trkpt><trkpt lat="45.594740449548084" lon="11.205111784911553"><ele>809.7142857142858</ele><time>2026-04-25T10:43:58.97Z</time></trkpt><trkpt lat="45.59468900669479" lon="11.205028964503551"><ele>810.1428571428572</ele><time>2026-04-25T10:44:36.972Z</time></trkpt><trkpt lat="45.594683389685514" lon="11.20511904644572"><ele>810.5714285714286</ele><time>2026-04-25T10:45:09.971Z</time></trkpt><trkpt lat="45.59470663173708" lon="11.205203276479807"><ele>811.0</ele><time>2026-04-25T10:45:41.971Z</time></trkpt><trkpt lat="45.594734391930146" lon="11.205295417742278"><ele>810.9999999999999</ele><time>2026-04-25T10:45:46.971Z</time></trkpt><trkpt lat="45.59478321929178" lon="11.205360006959001"><ele>811.0</ele><time>2026-04-25T10:45:52.971Z</time></trkpt><trkpt lat="45.59480652714638" lon="11.205444489521394"><ele>811.0</ele><time>2026-04-25T10:46:07.971Z</time></trkpt><trkpt lat="45.59478045683386" lon="11.20533700910779"><ele>811.0</ele><time>2026-04-25T10:47:46.97Z</time></trkpt><trkpt lat="45.59474117104939" lon="11.205154585162077"><ele>810.9999999999999</ele><time>2026-04-25T10:47:48.97Z</time></trkpt><trkpt lat="45.594729728221914" lon="11.205018702860638"><ele>811.0</ele><time>2026-04-25T10:47:49.97Z</time></trkpt><trkpt lat="45.59470023889072" lon="11.204885657997952"><ele>811.8</ele><time>2026-04-25T10:47:50.97Z</time></trkpt><trkpt lat="45.59465111431632" lon="11.204761739751588"><ele>812.5999999999999</ele><time>2026-04-25T10:47:51.97Z</time></trkpt><trkpt lat="45.594608464500915" lon="11.204641664507108"><ele>813.4</ele><time>2026-04-25T10:47:52.97Z</time></trkpt><trkpt lat="45.594566774631495" lon="11.204535186072688"><ele>814.2</ele><time>2026-04-25T10:47:53.97Z</time></trkpt><trkpt lat="45.5945451678704" lon="11.204427912820664"><ele>815.0</ele><time>2026-04-25T10:47:54.97Z</time></trkpt><trkpt lat="45.59468205007397" lon="11.204303730634688"><ele>815.0</ele><time>2026-04-25T10:47:55.97Z</time></trkpt><trkpt lat="45.59467775282966" lon="11.204189804516412"><ele>815.0</ele><time>2026-04-25T10:47:56.97Z</time></trkpt><trkpt lat="45.59449979053511" lon="11.204115732221647"><ele>815.0</ele><time>2026-04-25T10:47:57.97Z</time></trkpt><trkpt lat="45.594467277582275" lon="11.20400938792561"><ele>815.0</ele><time>2026-04-25T10:47:59.97Z</time></trkpt><trkpt lat="45.594456869735524" lon="11.203856766116575"><ele>811.7142857142857</ele><time>2026-04-25T10:48:01.97Z</time></trkpt><trkpt lat="45.59446322558001" lon="11.203760540782339"><ele>808.4285714285713</ele><time>2026-04-25T10:48:02.97Z</time></trkpt><trkpt lat="45.594465767517256" lon="11.203664754395524"><ele>805.1428571428571</ele><time>2026-04-25T10:48:03.97Z</time></trkpt><trkpt lat="45.594455779722765" lon="11.203541973351934"><ele>801.8571428571429</ele><time>2026-04-25T10:48:05.97Z</time></trkpt><trkpt lat="45.594379147663396" lon="11.203476230406045"><ele>798.5714285714286</ele><time>2026-04-25T10:48:08.97Z</time></trkpt><trkpt lat="45.59432472924491" lon="11.203424448379048"><ele>795.2857142857143</ele><time>2026-04-25T10:48:09.97Z</time></trkpt><trkpt lat="45.59427012107003" lon="11.203378991998383"><ele>792.0</ele><time>2026-04-25T10:48:10.97Z</time></trkpt><trkpt lat="45.59422481764531" lon="11.203312745954513"><ele>792.0</ele><time>2026-04-25T10:48:11.97Z</time></trkpt><trkpt lat="45.5941579270537" lon="11.203255831403965"><ele>792.0</ele><time>2026-04-25T10:48:13.97Z</time></trkpt><trkpt lat="45.59409068196554" lon="11.203262040144631"><ele>792.0</ele><time>2026-04-25T10:48:16.97Z</time></trkpt><trkpt lat="45.59404436437985" lon="11.203171982661367"><ele>792.0</ele><time>2026-04-25T10:48:18.97Z</time></trkpt><trkpt lat="45.593980549362534" lon="11.203086019451343"><ele>792.0</ele><time>2026-04-25T10:48:21.97Z</time></trkpt><trkpt lat="45.59394750028804" lon="11.202988864497671"><ele>792.0</ele><time>2026-04-25T10:48:23.97Z</time></trkpt><trkpt lat="45.59388487853394" lon="11.202930547415173"><ele>792.0</ele><time>2026-04-25T10:48:26.97Z</time></trkpt><trkpt lat="45.5937575167649" lon="11.202838355440464"><ele>792.0</ele><time>2026-04-25T10:48:28.97Z</time></trkpt><trkpt lat="45.593703389927356" lon="11.20278212791873"><ele>792.0</ele><time>2026-04-25T10:48:29.97Z</time></trkpt><trkpt lat="45.59362345586101" lon="11.202730718336795"><ele>792.0</ele><time>2026-04-25T10:48:30.97Z</time></trkpt><trkpt lat="45.59355071768257" lon="11.202668244801375"><ele>792.0</ele><time>2026-04-25T10:48:31.97Z</time></trkpt><trkpt lat="45.593480627357195" lon="11.202616560919695"><ele>792.0</ele><time>2026-04-25T10:48:32.97Z</time></trkpt><trkpt lat="45.59341326806874" lon="11.20255108415306"><ele>792.0</ele><time>2026-04-25T10:48:33.97Z</time></trkpt><trkpt lat="45.59333557357122" lon="11.202496292185694"><ele>792.0</ele><time>2026-04-25T10:48:34.97Z</time></trkpt><trkpt lat="45.5932576902018" lon="11.202428388126958"><ele>792.0</ele><time>2026-04-25T10:48:35.97Z</time></trkpt><trkpt lat="45.593187836565576" lon="11.202366793691382"><ele>792.0</ele><time>2026-04-25T10:48:36.97Z</time></trkpt><trkpt lat="45.59311652173558" lon="11.20233586557298"><ele>792.0</ele><time>2026-04-25T10:48:37.97Z</time></trkpt><trkpt lat="45.593037046708474" lon="11.20237658320427"><ele>792.0</ele><time>2026-04-25T10:48:38.97Z</time></trkpt><trkpt lat="45.59296840288604" lon="11.202418683631679"><ele>792.0</ele><time>2026-04-25T10:48:39.97Z</time></trkpt><trkpt lat="45.592905511784735" lon="11.202447489392817"><ele>792.0</ele><time>2026-04-25T10:48:40.97Z</time></trkpt><trkpt lat="45.5927900905329" lon="11.202427672085765"><ele>792.0</ele><time>2026-04-25T10:48:42.97Z</time></trkpt><trkpt lat="45.592693203868144" lon="11.202396287977589"><ele>792.0</ele><time>2026-04-25T10:48:43.97Z</time></trkpt><trkpt lat="45.5925850127878" lon="11.202388766815506"><ele>792.0</ele><time>2026-04-25T10:48:44.971Z</time></trkpt><trkpt lat="45.59248553985534" lon="11.202433852061228"><ele>792.0</ele><time>2026-04-25T10:48:45.971Z</time></trkpt><trkpt lat="45.59239320848708" lon="11.202463261515238"><ele>792.0</ele><time>2026-04-25T10:48:46.97Z</time></trkpt><trkpt lat="45.59229644126068" lon="11.202476134999833"><ele>792.0</ele><time>2026-04-25T10:48:47.97Z</time></trkpt><trkpt lat="45.59221186403215" lon="11.202468041364067"><ele>792.0</ele><time>2026-04-25T10:48:48.97Z</time></trkpt><trkpt lat="45.59210353164094" lon="11.20243081738462"><ele>793.2</ele><time>2026-04-25T10:48:49.97Z</time></trkpt><trkpt lat="45.59199122558043" lon="11.202359680490268"><ele>794.4000000000001</ele><time>2026-04-25T10:48:50.97Z</time></trkpt><trkpt lat="45.59186959521032" lon="11.202270549670494"><ele>795.5999999999999</ele><time>2026-04-25T10:48:51.97Z</time></trkpt><trkpt lat="45.591778809595766" lon="11.202235007481363"><ele>796.8</ele><time>2026-04-25T10:48:52.97Z</time></trkpt><trkpt lat="45.59169740659945" lon="11.20220778611599"><ele>798.0</ele><time>2026-04-25T10:48:53.97Z</time></trkpt><trkpt lat="45.59162509171042" lon="11.202202386087407"><ele>798.5</ele><time>2026-04-25T10:48:54.97Z</time></trkpt><trkpt lat="45.591552741044644" lon="11.202226478584697"><ele>799.0</ele><time>2026-04-25T10:48:56.97Z</time></trkpt><trkpt lat="45.59145797545259" lon="11.202212535350169"><ele>799.5</ele><time>2026-04-25T10:48:58.97Z</time></trkpt><trkpt lat="45.591395413521106" lon="11.2021614626252"><ele>800.0</ele><time>2026-04-25T10:48:59.97Z</time></trkpt><trkpt lat="45.59129920037068" lon="11.202123681215278"><ele>800.5</ele><time>2026-04-25T10:49:00.97Z</time></trkpt><trkpt lat="45.5911933119973" lon="11.202093957602571"><ele>801.0</ele><time>2026-04-25T10:49:01.97Z</time></trkpt><trkpt lat="45.59108449702732" lon="11.20204536106763"><ele>801.0</ele><time>2026-04-25T10:49:02.97Z</time></trkpt><trkpt lat="45.59100601752705" lon="11.202007291178095"><ele>801.0</ele><time>2026-04-25T10:49:03.97Z</time></trkpt><trkpt lat="45.590947200959896" lon="11.201945723300925"><ele>801.0</ele><time>2026-04-25T10:49:04.97Z</time></trkpt><trkpt lat="45.59092141518165" lon="11.201862961802965"><ele>801.0</ele><time>2026-04-25T10:49:05.97Z</time></trkpt><trkpt lat="45.59089787656121" lon="11.201755276137565"><ele>801.0</ele><time>2026-04-25T10:49:06.97Z</time></trkpt><trkpt lat="45.59087345576466" lon="11.201614302511397"><ele>801.0</ele><time>2026-04-25T10:49:07.97Z</time></trkpt><trkpt lat="45.59084602197265" lon="11.201479987526419"><ele>801.4</ele><time>2026-04-25T10:49:08.97Z</time></trkpt><trkpt lat="45.590820074086835" lon="11.201369211159479"><ele>801.8</ele><time>2026-04-25T10:49:09.97Z</time></trkpt><trkpt lat="45.5908016779902" lon="11.201261849045014"><ele>802.1999999999999</ele><time>2026-04-25T10:49:10.97Z</time></trkpt><trkpt lat="45.59076394890674" lon="11.201149795458868"><ele>802.5999999999999</ele><time>2026-04-25T10:49:12.97Z</time></trkpt><trkpt lat="45.59066737182185" lon="11.20116531452758"><ele>803.0</ele><time>2026-04-25T10:49:14.97Z</time></trkpt><trkpt lat="45.59056615011877" lon="11.201225182108708"><ele>803.0</ele><time>2026-04-25T10:49:16.97Z</time></trkpt><trkpt lat="45.590449888747074" lon="11.201292812220036"><ele>803.0</ele><time>2026-04-25T10:49:18.97Z</time></trkpt><trkpt lat="45.590352305962504" lon="11.201333025863491"><ele>803.0</ele><time>2026-04-25T10:49:19.97Z</time></trkpt><trkpt lat="45.590270677265025" lon="11.20137433156634"><ele>803.0</ele><time>2026-04-25T10:49:20.97Z</time></trkpt><trkpt lat="45.59017172306095" lon="11.201421373445772"><ele>803.0</ele><time>2026-04-25T10:49:21.97Z</time></trkpt><trkpt lat="45.59008083210309" lon="11.201473528654112"><ele>801.8333333333334</ele><time>2026-04-25T10:49:22.97Z</time></trkpt><trkpt lat="45.59000293723617" lon="11.201527577563606"><ele>800.6666666666667</ele><time>2026-04-25T10:49:23.97Z</time></trkpt><trkpt lat="45.589925196701465" lon="11.201563591949183"><ele>799.5</ele><time>2026-04-25T10:49:24.97Z</time></trkpt><trkpt lat="45.589839246088964" lon="11.201570592154093"><ele>798.3333333333333</ele><time>2026-04-25T10:49:25.97Z</time></trkpt><trkpt lat="45.58976024582093" lon="11.201548557687499"><ele>797.1666666666666</ele><time>2026-04-25T10:49:26.97Z</time></trkpt><trkpt lat="45.58969251775483" lon="11.20155005981941"><ele>796.0</ele><time>2026-04-25T10:49:27.97Z</time></trkpt><trkpt lat="45.58961570002007" lon="11.201518140680827"><ele>796.4999999999999</ele><time>2026-04-25T10:49:28.97Z</time></trkpt><trkpt lat="45.589530461601264" lon="11.201488523746992"><ele>797.0</ele><time>2026-04-25T10:49:29.97Z</time></trkpt><trkpt lat="45.58945892890878" lon="11.201486287521146"><ele>797.5</ele><time>2026-04-25T10:49:30.97Z</time></trkpt><trkpt lat="45.58938790652805" lon="11.201498810273229"><ele>798.0</ele><time>2026-04-25T10:49:31.97Z</time></trkpt><trkpt lat="45.58932510637434" lon="11.201532727623444"><ele>798.4999999999999</ele><time>2026-04-25T10:49:32.97Z</time></trkpt><trkpt lat="45.58918953488698" lon="11.201564192726021"><ele>799.0</ele><time>2026-04-25T10:49:34.97Z</time></trkpt><trkpt lat="45.58911096960347" lon="11.201571341010148"><ele>799.0</ele><time>2026-04-25T10:49:35.97Z</time></trkpt><trkpt lat="45.589024176973126" lon="11.201578754528759"><ele>799.0</ele><time>2026-04-25T10:49:36.97Z</time></trkpt><trkpt lat="45.58894036524697" lon="11.201586864558772"><ele>799.0</ele><time>2026-04-25T10:49:37.97Z</time></trkpt><trkpt lat="45.5888502796921" lon="11.201560718925828"><ele>799.0</ele><time>2026-04-25T10:49:38.97Z</time></trkpt><trkpt lat="45.588781403455776" lon="11.201519205257624"><ele>799.0</ele><time>2026-04-25T10:49:39.97Z</time></trkpt><trkpt lat="45.58868625781102" lon="11.201429351916765"><ele>798.6</ele><time>2026-04-25T10:49:41.97Z</time></trkpt><trkpt lat="45.5885980562995" lon="11.2012942646116"><ele>798.2</ele><time>2026-04-25T10:49:43.97Z</time></trkpt><trkpt lat="45.58853519818413" lon="11.20122117374387"><ele>797.8000000000001</ele><time>2026-04-25T10:49:44.97Z</time></trkpt><trkpt lat="45.5884701475987" lon="11.201150692596858"><ele>797.4000000000001</ele><time>2026-04-25T10:49:45.97Z</time></trkpt><trkpt lat="45.588392715687434" lon="11.201095139729649"><ele>797.0</ele><time>2026-04-25T10:49:46.97Z</time></trkpt><trkpt lat="45.58831347521457" lon="11.201046628332373"><ele>797.0000000000001</ele><time>2026-04-25T10:49:47.97Z</time></trkpt><trkpt lat="45.58822621993486" lon="11.201001379587584"><ele>797.0</ele><time>2026-04-25T10:49:48.97Z</time></trkpt><trkpt lat="45.58813571958204" lon="11.200988254418956"><ele>797.0</ele><time>2026-04-25T10:49:49.97Z</time></trkpt><trkpt lat="45.588059639416684" lon="11.200947390021279"><ele>797.0</ele><time>2026-04-25T10:49:50.97Z</time></trkpt><trkpt lat="45.58798303602002" lon="11.200909670350999"><ele>797.0000000000001</ele><time>2026-04-25T10:49:51.97Z</time></trkpt><trkpt lat="45.587894613726796" lon="11.20087083729486"><ele>797.0</ele><time>2026-04-25T10:49:52.97Z</time></trkpt><trkpt lat="45.587791203968" lon="11.20084521694219"><ele>795.1666666666667</ele><time>2026-04-25T10:49:53.97Z</time></trkpt><trkpt lat="45.5877037503553" lon="11.200822112246012"><ele>793.3333333333334</ele><time>2026-04-25T10:49:54.97Z</time></trkpt><trkpt lat="45.5876069121213" lon="11.200795180045946"><ele>791.5</ele><time>2026-04-25T10:49:55.97Z</time></trkpt><trkpt lat="45.587516738837856" lon="11.200762916133385"><ele>789.6666666666667</ele><time>2026-04-25T10:49:56.97Z</time></trkpt><trkpt lat="45.58743030871047" lon="11.200755505377732"><ele>787.8333333333334</ele><time>2026-04-25T10:49:57.97Z</time></trkpt><trkpt lat="45.58735583228145" lon="11.200777370188304"><ele>786.0</ele><time>2026-04-25T10:49:58.97Z</time></trkpt><trkpt lat="45.58725804880515" lon="11.200804192520666"><ele>786.0</ele><time>2026-04-25T10:50:00.97Z</time></trkpt><trkpt lat="45.587178017535656" lon="11.200820562459622"><ele>786.0</ele><time>2026-04-25T10:50:02.97Z</time></trkpt><trkpt lat="45.587114716797046" lon="11.200884858184057"><ele>786.0</ele><time>2026-04-25T10:50:04.97Z</time></trkpt><trkpt lat="45.587024373095566" lon="11.200940097378254"><ele>786.0</ele><time>2026-04-25T10:50:07.97Z</time></trkpt><trkpt lat="45.58706691028394" lon="11.20104444493239"><ele>786.0</ele><time>2026-04-25T10:50:09.97Z</time></trkpt><trkpt lat="45.58706792729767" lon="11.201153363707892"><ele>786.0</ele><time>2026-04-25T10:50:11.97Z</time></trkpt><trkpt lat="45.58714932274241" lon="11.201271464288162"><ele>786.0</ele><time>2026-04-25T10:50:13.97Z</time></trkpt><trkpt lat="45.58716666726865" lon="11.201383162627454"><ele>786.0</ele><time>2026-04-25T10:50:15.969Z</time></trkpt><trkpt lat="45.58714348334357" lon="11.201489764944217"><ele>786.0</ele><time>2026-04-25T10:50:17.969Z</time></trkpt><trkpt lat="45.587195464603" lon="11.201550731841683"><ele>786.0</ele><time>2026-04-25T10:50:19.969Z</time></trkpt><trkpt lat="45.58727299235749" lon="11.201580300631255"><ele>786.0</ele><time>2026-04-25T10:50:20.969Z</time></trkpt><trkpt lat="45.58736397746935" lon="11.201634606051005"><ele>786.0</ele><time>2026-04-25T10:50:21.969Z</time></trkpt><trkpt lat="45.58744221472762" lon="11.20170009358536"><ele>784.1999999999999</ele><time>2026-04-25T10:50:22.969Z</time></trkpt><trkpt lat="45.58747874307712" lon="11.201816430886451"><ele>782.4</ele><time>2026-04-25T10:50:24.969Z</time></trkpt><trkpt lat="45.58746571231917" lon="11.201936367635003"><ele>780.6</ele><time>2026-04-25T10:50:25.969Z</time></trkpt><trkpt lat="45.58743908503579" lon="11.202084286858579"><ele>778.8</ele><time>2026-04-25T10:50:28.969Z</time></trkpt><trkpt lat="45.58737886529378" lon="11.202196709815306"><ele>777.0</ele><time>2026-04-25T10:50:30.969Z</time></trkpt><trkpt lat="45.587332406374315" lon="11.202291425186086"><ele>776.3333333333334</ele><time>2026-04-25T10:50:31.969Z</time></trkpt><trkpt lat="45.5872770254848" lon="11.20236649227874"><ele>775.6666666666667</ele><time>2026-04-25T10:50:32.969Z</time></trkpt><trkpt lat="45.58721020693898" lon="11.202432865294865"><ele>775.0</ele><time>2026-04-25T10:50:33.969Z</time></trkpt><trkpt lat="45.58714596329808" lon="11.202483336330708"><ele>774.3333333333334</ele><time>2026-04-25T10:50:34.969Z</time></trkpt><trkpt lat="45.58708177581293" lon="11.202545275429383"><ele>773.6666666666667</ele><time>2026-04-25T10:50:35.969Z</time></trkpt><trkpt lat="45.587007850842554" lon="11.202598835597342"><ele>773.0</ele><time>2026-04-25T10:50:36.969Z</time></trkpt><trkpt lat="45.58697063660599" lon="11.202671980675909"><ele>773.0000000000001</ele><time>2026-04-25T10:50:37.969Z</time></trkpt><trkpt lat="45.5869186773752" lon="11.202750407474532"><ele>773.0</ele><time>2026-04-25T10:50:38.969Z</time></trkpt><trkpt lat="45.586876554987484" lon="11.202836361788489"><ele>773.0</ele><time>2026-04-25T10:50:40.969Z</time></trkpt><trkpt lat="45.58691276636454" lon="11.202950456614474"><ele>773.0</ele><time>2026-04-25T10:50:42.969Z</time></trkpt><trkpt lat="45.587013022718395" lon="11.203033396023113"><ele>773.0000000000001</ele><time>2026-04-25T10:50:44.97Z</time></trkpt><trkpt lat="45.58709023754403" lon="11.203089950480317"><ele>773.0</ele><time>2026-04-25T10:50:45.97Z</time></trkpt><trkpt lat="45.587177483916996" lon="11.203126378707283"><ele>773.0</ele><time>2026-04-25T10:50:46.969Z</time></trkpt><trkpt lat="45.58727337241766" lon="11.203142644181185"><ele>773.0</ele><time>2026-04-25T10:50:47.97Z</time></trkpt><trkpt lat="45.58731849599703" lon="11.203237944488317"><ele>773.0</ele><time>2026-04-25T10:50:49.97Z</time></trkpt><trkpt lat="45.58731217523896" lon="11.203330949299358"><ele>773.0</ele><time>2026-04-25T10:50:50.97Z</time></trkpt><trkpt lat="45.587290286071386" lon="11.20347346813442"><ele>773.0</ele><time>2026-04-25T10:50:51.97Z</time></trkpt><trkpt lat="45.587304370763064" lon="11.203643145415253"><ele>771.1666666666667</ele><time>2026-04-25T10:50:52.97Z</time></trkpt><trkpt lat="45.58731992851062" lon="11.203806641021671"><ele>769.3333333333334</ele><time>2026-04-25T10:50:53.97Z</time></trkpt><trkpt lat="45.5873168266289" lon="11.203940432866736"><ele>767.5</ele><time>2026-04-25T10:50:54.969Z</time></trkpt><trkpt lat="45.58731364861065" lon="11.204066594966964"><ele>765.6666666666667</ele><time>2026-04-25T10:50:55.969Z</time></trkpt><trkpt lat="45.587297656938276" lon="11.204168173372315"><ele>763.8333333333334</ele><time>2026-04-25T10:50:56.969Z</time></trkpt><trkpt lat="45.58729339281377" lon="11.204258306221663"><ele>762.0</ele><time>2026-04-25T10:50:57.969Z</time></trkpt><trkpt lat="45.5873004285444" lon="11.204355508010359"><ele>759.8571428571428</ele><time>2026-04-25T10:50:58.969Z</time></trkpt><trkpt lat="45.587295712898694" lon="11.204465310433326"><ele>757.7142857142858</ele><time>2026-04-25T10:50:59.969Z</time></trkpt><trkpt lat="45.58731225867755" lon="11.204582929123411"><ele>755.5714285714286</ele><time>2026-04-25T10:51:00.969Z</time></trkpt><trkpt lat="45.58731703697502" lon="11.204704927751822"><ele>753.4285714285713</ele><time>2026-04-25T10:51:01.969Z</time></trkpt><trkpt lat="45.58732523080065" lon="11.204795384231593"><ele>751.2857142857142</ele><time>2026-04-25T10:51:02.969Z</time></trkpt><trkpt lat="45.5873211825109" lon="11.204886282311065"><ele>749.1428571428571</ele><time>2026-04-25T10:51:03.969Z</time></trkpt><trkpt lat="45.58732624420343" lon="11.20498963124841"><ele>747.0</ele><time>2026-04-25T10:51:04.969Z</time></trkpt><trkpt lat="45.587346210521986" lon="11.205100563847429"><ele>744.6666666666666</ele><time>2026-04-25T10:51:05.969Z</time></trkpt><trkpt lat="45.587358306212494" lon="11.205192748508503"><ele>742.3333333333334</ele><time>2026-04-25T10:51:06.969Z</time></trkpt><trkpt lat="45.58733363980826" lon="11.205275655860962"><ele>740.0</ele><time>2026-04-25T10:51:07.969Z</time></trkpt><trkpt lat="45.587297062690304" lon="11.205439953943854"><ele>737.6666666666667</ele><time>2026-04-25T10:51:09.969Z</time></trkpt><trkpt lat="45.5873318471887" lon="11.205540732481435"><ele>735.3333333333334</ele><time>2026-04-25T10:51:11.969Z</time></trkpt><trkpt lat="45.587357908722" lon="11.205655125974372"><ele>733.0</ele><time>2026-04-25T10:51:13.969Z</time></trkpt><trkpt lat="45.58741931554364" lon="11.205738819896668"><ele>730.2</ele><time>2026-04-25T10:51:15.969Z</time></trkpt><trkpt lat="45.58752825750656" lon="11.205813872743532"><ele>727.4</ele><time>2026-04-25T10:51:17.969Z</time></trkpt><trkpt lat="45.587608208274425" lon="11.205842978069027"><ele>724.6</ele><time>2026-04-25T10:51:18.969Z</time></trkpt><trkpt lat="45.587734288505864" lon="11.20585743048703"><ele>721.8000000000001</ele><time>2026-04-25T10:51:20.969Z</time></trkpt><trkpt lat="45.5878392733545" lon="11.205820764586775"><ele>719.0</ele><time>2026-04-25T10:51:22.969Z</time></trkpt><trkpt lat="45.587909737357236" lon="11.205764487881156"><ele>719.0</ele><time>2026-04-25T10:51:24.969Z</time></trkpt><trkpt lat="45.5879738073154" lon="11.205758285385116"><ele>719.0</ele><time>2026-04-25T10:51:26.969Z</time></trkpt><trkpt lat="45.5878598620894" lon="11.205987357793827"><ele>719.0</ele><time>2026-04-25T10:51:43.969Z</time></trkpt><trkpt lat="45.58778276622394" lon="11.206021845089404"><ele>719.0</ele><time>2026-04-25T10:51:45.969Z</time></trkpt><trkpt lat="45.58773586278556" lon="11.206093483511244"><ele>719.0</ele><time>2026-04-25T10:51:46.969Z</time></trkpt><trkpt lat="45.587648251872345" lon="11.206101032730361"><ele>718.0</ele><time>2026-04-25T10:51:47.969Z</time></trkpt><trkpt lat="45.587585956107205" lon="11.206196052125314"><ele>717.0</ele><time>2026-04-25T10:51:48.969Z</time></trkpt><trkpt lat="45.58748511542292" lon="11.206245073972147"><ele>716.0</ele><time>2026-04-25T10:51:50.969Z</time></trkpt><trkpt lat="45.587383233433926" lon="11.206294013990044"><ele>715.0</ele><time>2026-04-25T10:51:51.969Z</time></trkpt><trkpt lat="45.58729260516271" lon="11.206334127681984"><ele>714.0</ele><time>2026-04-25T10:51:52.969Z</time></trkpt><trkpt lat="45.58720942417571" lon="11.206356589619201"><ele>714.0</ele><time>2026-04-25T10:51:53.969Z</time></trkpt><trkpt lat="45.587142670366866" lon="11.206376153639576"><ele>714.0</ele><time>2026-04-25T10:51:54.969Z</time></trkpt><trkpt lat="45.58703847668162" lon="11.20640115197952"><ele>714.0</ele><time>2026-04-25T10:51:56.969Z</time></trkpt><trkpt lat="45.58693207158455" lon="11.206442692710727"><ele>714.0</ele><time>2026-04-25T10:51:58.969Z</time></trkpt><trkpt lat="45.586819819746175" lon="11.20639162947672"><ele>714.0</ele><time>2026-04-25T10:52:00.969Z</time></trkpt><trkpt lat="45.586727149104654" lon="11.206341945827175"><ele>710.0</ele><time>2026-04-25T10:52:02.969Z</time></trkpt><trkpt lat="45.5866662310327" lon="11.206317355362193"><ele>706.0</ele><time>2026-04-25T10:52:03.969Z</time></trkpt><trkpt lat="45.58658283958047" lon="11.206332706711933"><ele>702.0</ele><time>2026-04-25T10:52:05.969Z</time></trkpt><trkpt lat="45.58651743277717" lon="11.20641840372091"><ele>698.0</ele><time>2026-04-25T10:52:07.969Z</time></trkpt><trkpt lat="45.586505720093356" lon="11.206538872927126"><ele>694.0</ele><time>2026-04-25T10:52:08.969Z</time></trkpt><trkpt lat="45.586499757356464" lon="11.206629759978957"><ele>690.0</ele><time>2026-04-25T10:52:09.969Z</time></trkpt><trkpt lat="45.58638695897095" lon="11.206672832396332"><ele>688.4</ele><time>2026-04-25T10:52:11.969Z</time></trkpt><trkpt lat="45.58630791073155" lon="11.20661746184622"><ele>686.8</ele><time>2026-04-25T10:52:12.969Z</time></trkpt><trkpt lat="45.58623599432092" lon="11.2065511691127"><ele>685.2</ele><time>2026-04-25T10:52:13.969Z</time></trkpt><trkpt lat="45.586160309458855" lon="11.206487502927622"><ele>683.6</ele><time>2026-04-25T10:52:14.969Z</time></trkpt><trkpt lat="45.58609502230829" lon="11.206389412561666"><ele>682.0</ele><time>2026-04-25T10:52:15.969Z</time></trkpt><trkpt lat="45.58605330617604" lon="11.20626668386578"><ele>680.8333333333334</ele><time>2026-04-25T10:52:16.969Z</time></trkpt><trkpt lat="45.586021140693816" lon="11.206125858434207"><ele>679.6666666666667</ele><time>2026-04-25T10:52:17.969Z</time></trkpt><trkpt lat="45.5859840837032" lon="11.206021241816183"><ele>678.5</ele><time>2026-04-25T10:52:18.969Z</time></trkpt><trkpt lat="45.58595511617624" lon="11.205940732445159"><ele>677.3333333333334</ele><time>2026-04-25T10:52:19.969Z</time></trkpt><trkpt lat="45.585959717257765" lon="11.205771453971542"><ele>676.1666666666666</ele><time>2026-04-25T10:52:21.969Z</time></trkpt><trkpt lat="45.586008631468154" lon="11.205696696873513"><ele>675.0</ele><time>2026-04-25T10:52:22.969Z</time></trkpt><trkpt lat="45.58605445001499" lon="11.20555979472723"><ele>675.0</ele><time>2026-04-25T10:52:24.969Z</time></trkpt><trkpt lat="45.58600789664462" lon="11.205482842628621"><ele>675.0</ele><time>2026-04-25T10:52:26.969Z</time></trkpt><trkpt lat="45.585919824047046" lon="11.20540832228294"><ele>675.0</ele><time>2026-04-25T10:52:28.969Z</time></trkpt><trkpt lat="45.5858236156903" lon="11.205335294027936"><ele>675.0</ele><time>2026-04-25T10:52:29.969Z</time></trkpt><trkpt lat="45.58575446376293" lon="11.205276012857725"><ele>675.0</ele><time>2026-04-25T10:52:30.969Z</time></trkpt><trkpt lat="45.585722176356" lon="11.20519590302877"><ele>675.0</ele><time>2026-04-25T10:52:31.969Z</time></trkpt><trkpt lat="45.5857174879873" lon="11.205100551287277"><ele>675.0</ele><time>2026-04-25T10:52:32.968Z</time></trkpt><trkpt lat="45.58572788159527" lon="11.204985494739901"><ele>675.0</ele><time>2026-04-25T10:52:33.968Z</time></trkpt><trkpt lat="45.585696904681235" lon="11.204876696504655"><ele>675.0</ele><time>2026-04-25T10:52:34.968Z</time></trkpt><trkpt lat="45.58567800605948" lon="11.204774991556842"><ele>675.0</ele><time>2026-04-25T10:52:35.968Z</time></trkpt><trkpt lat="45.58560764599022" lon="11.204651319845224"><ele>675.0</ele><time>2026-04-25T10:52:36.968Z</time></trkpt><trkpt lat="45.58552331764472" lon="11.204566630509444"><ele>676.5</ele><time>2026-04-25T10:52:37.968Z</time></trkpt><trkpt lat="45.58546709857511" lon="11.204491682721025"><ele>678.0</ele><time>2026-04-25T10:52:38.968Z</time></trkpt><trkpt lat="45.585433515703855" lon="11.204362094363207"><ele>679.5</ele><time>2026-04-25T10:52:40.968Z</time></trkpt><trkpt lat="45.58539436385251" lon="11.204264305091089"><ele>681.0</ele><time>2026-04-25T10:52:42.968Z</time></trkpt><trkpt lat="45.58531578283226" lon="11.20426043134849"><ele>682.5</ele><time>2026-04-25T10:52:44.968Z</time></trkpt><trkpt lat="45.5852021149899" lon="11.204282769647168"><ele>684.0</ele><time>2026-04-25T10:52:46.969Z</time></trkpt><trkpt lat="45.58509052787302" lon="11.204346755521495"><ele>684.0</ele><time>2026-04-25T10:52:48.969Z</time></trkpt><trkpt lat="45.58498821583352" lon="11.20441143588691"><ele>684.0</ele><time>2026-04-25T10:52:49.97Z</time></trkpt><trkpt lat="45.584929344596155" lon="11.204462583410526"><ele>684.0</ele><time>2026-04-25T10:52:50.969Z</time></trkpt><trkpt lat="45.58486445242192" lon="11.204515483892013"><ele>684.0</ele><time>2026-04-25T10:52:51.969Z</time></trkpt><trkpt lat="45.58476159244862" lon="11.204617452474048"><ele>684.0</ele><time>2026-04-25T10:52:53.969Z</time></trkpt><trkpt lat="45.58469262744414" lon="11.204686445868742"><ele>684.0</ele><time>2026-04-25T10:52:54.969Z</time></trkpt><trkpt lat="45.584590655694825" lon="11.204764635010465"><ele>684.0</ele><time>2026-04-25T10:52:56.969Z</time></trkpt><trkpt lat="45.584469639533154" lon="11.204770680583751"><ele>684.0</ele><time>2026-04-25T10:52:58.97Z</time></trkpt><trkpt lat="45.58440074575889" lon="11.204827560923045"><ele>684.0</ele><time>2026-04-25T10:52:59.968Z</time></trkpt><trkpt lat="45.58431958874071" lon="11.20488751735427"><ele>684.0</ele><time>2026-04-25T10:53:00.968Z</time></trkpt><trkpt lat="45.58423192016419" lon="11.204942829690856"><ele>688.5</ele><time>2026-04-25T10:53:02.968Z</time></trkpt><trkpt lat="45.58419940672613" lon="11.204823931880888"><ele>693.0</ele><time>2026-04-25T10:53:07.968Z</time></trkpt><trkpt lat="45.58419567534136" lon="11.204679956763234"><ele>697.5</ele><time>2026-04-25T10:53:09.968Z</time></trkpt><trkpt lat="45.58419101776675" lon="11.204580661080946"><ele>702.0</ele><time>2026-04-25T10:53:10.968Z</time></trkpt><trkpt lat="45.5841616704341" lon="11.204495942544437"><ele>706.5</ele><time>2026-04-25T10:53:11.968Z</time></trkpt><trkpt lat="45.58413000398894" lon="11.204407010608216"><ele>711.0</ele><time>2026-04-25T10:53:12.968Z</time></trkpt><trkpt lat="45.58408296017674" lon="11.204285899328063"><ele>711.0</ele><time>2026-04-25T10:53:14.968Z</time></trkpt><trkpt lat="45.584014711250134" lon="11.204147690158399"><ele>711.0</ele><time>2026-04-25T10:53:16.968Z</time></trkpt><trkpt lat="45.583940024782606" lon="11.204131881459677"><ele>711.0</ele><time>2026-04-25T10:53:19.968Z</time></trkpt><trkpt lat="45.58386039281666" lon="11.204247946763799"><ele>711.0</ele><time>2026-04-25T10:53:21.968Z</time></trkpt><trkpt lat="45.583745803578545" lon="11.204346105366392"><ele>711.0</ele><time>2026-04-25T10:53:23.968Z</time></trkpt><trkpt lat="45.58368719022708" lon="11.204409381710674"><ele>715.1999999999999</ele><time>2026-04-25T10:53:24.968Z</time></trkpt><trkpt lat="45.58355852669637" lon="11.204489518161331"><ele>719.4</ele><time>2026-04-25T10:53:26.968Z</time></trkpt><trkpt lat="45.58349438409174" lon="11.204504984938445"><ele>723.6</ele><time>2026-04-25T10:53:27.968Z</time></trkpt><trkpt lat="45.58339062671649" lon="11.204495836045005"><ele>727.8</ele><time>2026-04-25T10:53:29.968Z</time></trkpt><trkpt lat="45.583283093653826" lon="11.20450731339618"><ele>732.0</ele><time>2026-04-25T10:53:31.968Z</time></trkpt><trkpt lat="45.5831768447394" lon="11.204393716460691"><ele>732.0</ele><time>2026-04-25T10:53:33.968Z</time></trkpt><trkpt lat="45.583058002587045" lon="11.204339447098466"><ele>732.0</ele><time>2026-04-25T10:53:35.968Z</time></trkpt><trkpt lat="45.582932220107296" lon="11.204318657296543"><ele>732.0</ele><time>2026-04-25T10:53:37.968Z</time></trkpt><trkpt lat="45.58281966826627" lon="11.204284899547831"><ele>732.0</ele><time>2026-04-25T10:53:39.968Z</time></trkpt><trkpt lat="45.582758405420314" lon="11.204241387031749"><ele>732.0</ele><time>2026-04-25T10:53:40.968Z</time></trkpt><trkpt lat="45.58269634153333" lon="11.20418544695711"><ele>735.1666666666666</ele><time>2026-04-25T10:53:41.968Z</time></trkpt><trkpt lat="45.58262512739468" lon="11.20406975820247"><ele>738.3333333333334</ele><time>2026-04-25T10:53:43.968Z</time></trkpt><trkpt lat="45.58254191044442" lon="11.204076210685686"><ele>741.5</ele><time>2026-04-25T10:53:48.968Z</time></trkpt><trkpt lat="45.58247896377231" lon="11.203984543423587"><ele>744.6666666666667</ele><time>2026-04-25T10:53:53.968Z</time></trkpt><trkpt lat="45.58243178074101" lon="11.203868825670758"><ele>747.8333333333334</ele><time>2026-04-25T10:53:55.968Z</time></trkpt><trkpt lat="45.582415793579" lon="11.203779342076654"><ele>751.0</ele><time>2026-04-25T10:53:57.968Z</time></trkpt><trkpt lat="45.58239356243619" lon="11.203688956911137"><ele>752.4285714285714</ele><time>2026-04-25T10:53:59.968Z</time></trkpt><trkpt lat="45.582402240666916" lon="11.203593003635971"><ele>753.8571428571429</ele><time>2026-04-25T10:54:11.968Z</time></trkpt><trkpt lat="45.58243856112163" lon="11.203492207059215"><ele>755.2857142857142</ele><time>2026-04-25T10:54:14.968Z</time></trkpt><trkpt lat="45.58240926832849" lon="11.203412380989047"><ele>756.7142857142858</ele><time>2026-04-25T10:54:16.968Z</time></trkpt><trkpt lat="45.58233699418336" lon="11.203400548486782"><ele>758.1428571428571</ele><time>2026-04-25T10:54:18.968Z</time></trkpt><trkpt lat="45.582253494198085" lon="11.203407041968694"><ele>759.5714285714286</ele><time>2026-04-25T10:54:20.968Z</time></trkpt><trkpt lat="45.582177154902" lon="11.20342527331725"><ele>761.0</ele><time>2026-04-25T10:54:22.968Z</time></trkpt><trkpt lat="45.582096156628324" lon="11.203421048083511"><ele>765.0</ele><time>2026-04-25T10:54:24.967Z</time></trkpt><trkpt lat="45.58198620944765" lon="11.203454745996892"><ele>769.0</ele><time>2026-04-25T10:54:26.967Z</time></trkpt><trkpt lat="45.58191199859149" lon="11.203475733613168"><ele>773.0</ele><time>2026-04-25T10:54:27.967Z</time></trkpt><trkpt lat="45.58184661746104" lon="11.203492458385185"><ele>777.0</ele><time>2026-04-25T10:54:28.967Z</time></trkpt><trkpt lat="45.58178104813785" lon="11.203483914792852"><ele>781.0000000000001</ele><time>2026-04-25T10:54:30.967Z</time></trkpt><trkpt lat="45.581761192098604" lon="11.203356612124514"><ele>785.0</ele><time>2026-04-25T10:54:33.967Z</time></trkpt><trkpt lat="45.58178438092667" lon="11.203271468591206"><ele>785.0</ele><time>2026-04-25T10:54:34.967Z</time></trkpt><trkpt lat="45.58180951372404" lon="11.203175779330344"><ele>785.0</ele><time>2026-04-25T10:54:35.967Z</time></trkpt><trkpt lat="45.581842807818155" lon="11.203071385830881"><ele>785.0</ele><time>2026-04-25T10:54:36.967Z</time></trkpt><trkpt lat="45.58184021840887" lon="11.202930094415613"><ele>785.0</ele><time>2026-04-25T10:54:37.967Z</time></trkpt><trkpt lat="45.581866634944525" lon="11.20278157775983"><ele>785.0</ele><time>2026-04-25T10:54:38.967Z</time></trkpt><trkpt lat="45.5818881309058" lon="11.202636574091244"><ele>786.0</ele><time>2026-04-25T10:54:39.967Z</time></trkpt><trkpt lat="45.5819256605114" lon="11.20250049192196"><ele>787.0</ele><time>2026-04-25T10:54:40.967Z</time></trkpt><trkpt lat="45.58193827629929" lon="11.20234604480204"><ele>788.0</ele><time>2026-04-25T10:54:41.967Z</time></trkpt><trkpt lat="45.58197126401206" lon="11.2021939978014"><ele>789.0</ele><time>2026-04-25T10:54:42.967Z</time></trkpt><trkpt lat="45.5820055521557" lon="11.202027840065936"><ele>790.0</ele><time>2026-04-25T10:54:43.967Z</time></trkpt><trkpt lat="45.58206386442474" lon="11.201894453454544"><ele>790.25</ele><time>2026-04-25T10:54:44.967Z</time></trkpt><trkpt lat="45.58212050286666" lon="11.201743651783369"><ele>790.5</ele><time>2026-04-25T10:54:45.967Z</time></trkpt><trkpt lat="45.58221339267672" lon="11.201635397377643"><ele>790.75</ele><time>2026-04-25T10:54:46.967Z</time></trkpt><trkpt lat="45.582312554109784" lon="11.2015232075666"><ele>791.0</ele><time>2026-04-25T10:54:47.967Z</time></trkpt><trkpt lat="45.58240420208258" lon="11.201432762435461"><ele>794.0</ele><time>2026-04-25T10:54:48.967Z</time></trkpt><trkpt lat="45.582504125105665" lon="11.201324269137062"><ele>797.0</ele><time>2026-04-25T10:54:49.967Z</time></trkpt><trkpt lat="45.58258856399558" lon="11.20123105532281"><ele>800.0</ele><time>2026-04-25T10:54:50.967Z</time></trkpt><trkpt lat="45.58267384381353" lon="11.201112462974882"><ele>803.0</ele><time>2026-04-25T10:54:51.969Z</time></trkpt><trkpt lat="45.58275670783544" lon="11.20102057895401"><ele>803.0000000000001</ele><time>2026-04-25T10:54:52.969Z</time></trkpt><trkpt lat="45.58283526505459" lon="11.200926654825828"><ele>803.0</ele><time>2026-04-25T10:54:53.969Z</time></trkpt><trkpt lat="45.582902276676606" lon="11.200844477748202"><ele>803.0</ele><time>2026-04-25T10:54:54.969Z</time></trkpt><trkpt lat="45.58294824923536" lon="11.200763759040404"><ele>803.0</ele><time>2026-04-25T10:54:55.968Z</time></trkpt><trkpt lat="45.58295629249956" lon="11.200658001808378"><ele>803.0000000000001</ele><time>2026-04-25T10:54:57.969Z</time></trkpt><trkpt lat="45.582919523924936" lon="11.200547024639578"><ele>803.0</ele><time>2026-04-25T10:55:00.969Z</time></trkpt><trkpt lat="45.582833360566774" lon="11.200388842684363"><ele>803.8</ele><time>2026-04-25T10:55:02.969Z</time></trkpt><trkpt lat="45.58279387116986" lon="11.200241422632063"><ele>804.5999999999999</ele><time>2026-04-25T10:55:03.968Z</time></trkpt><trkpt lat="45.58278980184628" lon="11.20008806632295"><ele>805.4000000000001</ele><time>2026-04-25T10:55:04.969Z</time></trkpt><trkpt lat="45.58278642014847" lon="11.199934920317064"><ele>806.2</ele><time>2026-04-25T10:55:05.969Z</time></trkpt><trkpt lat="45.582782354311426" lon="11.199788254027247"><ele>807.0</ele><time>2026-04-25T10:55:06.969Z</time></trkpt><trkpt lat="45.582777867103765" lon="11.199641025852449"><ele>811.25</ele><time>2026-04-25T10:55:07.969Z</time></trkpt><trkpt lat="45.58276881876222" lon="11.19949355931869"><ele>815.5</ele><time>2026-04-25T10:55:08.969Z</time></trkpt><trkpt lat="45.582731634270075" lon="11.199331631393925"><ele>819.75</ele><time>2026-04-25T10:55:09.969Z</time></trkpt><trkpt lat="45.58268174576848" lon="11.199175934485348"><ele>824.0</ele><time>2026-04-25T10:55:10.969Z</time></trkpt><trkpt lat="45.58260214760488" lon="11.199045194876847"><ele>828.4000000000001</ele><time>2026-04-25T10:55:11.969Z</time></trkpt><trkpt lat="45.582534974925" lon="11.198922912947822"><ele>832.8</ele><time>2026-04-25T10:55:12.969Z</time></trkpt><trkpt lat="45.58246120378702" lon="11.198814011900499"><ele>837.2</ele><time>2026-04-25T10:55:13.969Z</time></trkpt><trkpt lat="45.58241018133019" lon="11.198717334014283"><ele>841.5999999999999</ele><time>2026-04-25T10:55:14.969Z</time></trkpt><trkpt lat="45.58236297305459" lon="11.19858628788544"><ele>846.0</ele><time>2026-04-25T10:55:15.969Z</time></trkpt><trkpt lat="45.58234719703182" lon="11.198460447139597"><ele>846.0</ele><time>2026-04-25T10:55:16.969Z</time></trkpt><trkpt lat="45.582339076815224" lon="11.198323860014286"><ele>846.0</ele><time>2026-04-25T10:55:17.969Z</time></trkpt><trkpt lat="45.58231798641358" lon="11.19817085747276"><ele>846.0</ele><time>2026-04-25T10:55:18.969Z</time></trkpt><trkpt lat="45.58226482073846" lon="11.198051422061805"><ele>846.0</ele><time>2026-04-25T10:55:19.969Z</time></trkpt><trkpt lat="45.58219479801833" lon="11.197963943410839"><ele>846.0</ele><time>2026-04-25T10:55:20.969Z</time></trkpt><trkpt lat="45.582113321037355" lon="11.19791382628521"><ele>844.4</ele><time>2026-04-25T10:55:21.969Z</time></trkpt><trkpt lat="45.582009932665144" lon="11.197912952534113"><ele>842.8</ele><time>2026-04-25T10:55:22.969Z</time></trkpt><trkpt lat="45.58191360770995" lon="11.197903981550164"><ele>841.1999999999999</ele><time>2026-04-25T10:55:23.969Z</time></trkpt><trkpt lat="45.581827516724914" lon="11.197861277877704"><ele>839.5999999999999</ele><time>2026-04-25T10:55:24.969Z</time></trkpt><trkpt lat="45.58175723340944" lon="11.197787028514105"><ele>838.0</ele><time>2026-04-25T10:55:25.969Z</time></trkpt><trkpt lat="45.58168197330314" lon="11.197672043519173"><ele>838.0</ele><time>2026-04-25T10:55:26.969Z</time></trkpt><trkpt lat="45.58162784290687" lon="11.197542149615034"><ele>838.0</ele><time>2026-04-25T10:55:27.969Z</time></trkpt><trkpt lat="45.581574476070266" lon="11.197410573440688"><ele>838.0</ele><time>2026-04-25T10:55:28.969Z</time></trkpt><trkpt lat="45.58154666941642" lon="11.19729762801543"><ele>838.0</ele><time>2026-04-25T10:55:29.969Z</time></trkpt><trkpt lat="45.58149315751933" lon="11.197183193964879"><ele>838.0</ele><time>2026-04-25T10:55:30.969Z</time></trkpt><trkpt lat="45.58141102964334" lon="11.197092813599241"><ele>837.75</ele><time>2026-04-25T10:55:31.969Z</time></trkpt><trkpt lat="45.581322313377264" lon="11.19703460076966"><ele>837.5</ele><time>2026-04-25T10:55:32.969Z</time></trkpt><trkpt lat="45.58120430843831" lon="11.196977977394017"><ele>837.25</ele><time>2026-04-25T10:55:33.969Z</time></trkpt><trkpt lat="45.581103068043085" lon="11.196922456295786"><ele>837.0</ele><time>2026-04-25T10:55:34.969Z</time></trkpt><trkpt lat="45.58099127856485" lon="11.196852198486923"><ele>837.0</ele><time>2026-04-25T10:55:35.969Z</time></trkpt><trkpt lat="45.5808656270439" lon="11.196806154517496"><ele>837.0</ele><time>2026-04-25T10:55:36.969Z</time></trkpt><trkpt lat="45.5807332253141" lon="11.196793005838426"><ele>837.0</ele><time>2026-04-25T10:55:37.969Z</time></trkpt><trkpt lat="45.5806019645006" lon="11.196787487336957"><ele>837.0</ele><time>2026-04-25T10:55:38.969Z</time></trkpt><trkpt lat="45.58048077232677" lon="11.19677089396193"><ele>837.0</ele><time>2026-04-25T10:55:39.969Z</time></trkpt><trkpt lat="45.58037264153922" lon="11.196772514620198"><ele>837.0</ele><time>2026-04-25T10:55:40.969Z</time></trkpt><trkpt lat="45.5802871073179" lon="11.196747341696815"><ele>837.0</ele><time>2026-04-25T10:55:41.969Z</time></trkpt><trkpt lat="45.580209933615315" lon="11.19672941905437"><ele>837.0</ele><time>2026-04-25T10:55:43.969Z</time></trkpt><trkpt lat="45.58019133031676" lon="11.19661622976645"><ele>837.0</ele><time>2026-04-25T10:55:45.969Z</time></trkpt><trkpt lat="45.58020694670327" lon="11.196513837097946"><ele>837.0</ele><time>2026-04-25T10:55:47.969Z</time></trkpt><trkpt lat="45.58020134989879" lon="11.196414019690051"><ele>838.3333333333334</ele><time>2026-04-25T10:55:48.969Z</time></trkpt><trkpt lat="45.580196808032696" lon="11.19627697193488"><ele>839.6666666666667</ele><time>2026-04-25T10:55:50.969Z</time></trkpt><trkpt lat="45.580266202025655" lon="11.196189668280313"><ele>841.0</ele><time>2026-04-25T10:55:53.969Z</time></trkpt><trkpt lat="45.580336986582495" lon="11.196165887716715"><ele>842.3333333333334</ele><time>2026-04-25T10:55:55.969Z</time></trkpt><trkpt lat="45.58041340398646" lon="11.196133482468435"><ele>843.6666666666667</ele><time>2026-04-25T10:55:56.969Z</time></trkpt><trkpt lat="45.58049735193059" lon="11.196122859058601"><ele>845.0</ele><time>2026-04-25T10:55:57.969Z</time></trkpt><trkpt lat="45.580570364684746" lon="11.19612573623482"><ele>845.0</ele><time>2026-04-25T10:55:58.969Z</time></trkpt><trkpt lat="45.580695018465306" lon="11.196104407438346"><ele>845.0</ele><time>2026-04-25T10:56:00.969Z</time></trkpt><trkpt lat="45.58079585708115" lon="11.196115637910603"><ele>845.0</ele><time>2026-04-25T10:56:01.969Z</time></trkpt><trkpt lat="45.580918479038495" lon="11.196105637467165"><ele>845.0</ele><time>2026-04-25T10:56:02.969Z</time></trkpt><trkpt lat="45.58103904653492" lon="11.196111852921746"><ele>845.0</ele><time>2026-04-25T10:56:03.969Z</time></trkpt><trkpt lat="45.58116044644158" lon="11.196111255282045"><ele>845.0</ele><time>2026-04-25T10:56:04.969Z</time></trkpt><trkpt lat="45.58129134457398" lon="11.19611398217323"><ele>845.0</ele><time>2026-04-25T10:56:05.969Z</time></trkpt><trkpt lat="45.58138519886692" lon="11.19610507094456"><ele>845.0</ele><time>2026-04-25T10:56:06.969Z</time></trkpt><trkpt lat="45.58147255415061" lon="11.196071809195859"><ele>845.0</ele><time>2026-04-25T10:56:07.969Z</time></trkpt><trkpt lat="45.581553338796795" lon="11.19599771890573"><ele>849.6666666666667</ele><time>2026-04-25T10:56:08.969Z</time></trkpt><trkpt lat="45.58163736176373" lon="11.19589343575928"><ele>854.3333333333334</ele><time>2026-04-25T10:56:09.969Z</time></trkpt><trkpt lat="45.58171198627465" lon="11.195834345977177"><ele>859.0</ele><time>2026-04-25T10:56:10.969Z</time></trkpt><trkpt lat="45.58177393879369" lon="11.19581131413279"><ele>863.6666666666667</ele><time>2026-04-25T10:56:11.969Z</time></trkpt><trkpt lat="45.58187711387325" lon="11.195862182768147"><ele>868.3333333333334</ele><time>2026-04-25T10:56:14.968Z</time></trkpt><trkpt lat="45.581942596626725" lon="11.195878096855667"><ele>873.0</ele><time>2026-04-25T10:56:16.968Z</time></trkpt><trkpt lat="45.58203909449527" lon="11.195880573389106"><ele>878.5</ele><time>2026-04-25T10:56:19.968Z</time></trkpt><trkpt lat="45.58241300297304" lon="11.196010768385023"><ele>884.0</ele><time>2026-04-25T10:56:22.968Z</time></trkpt><trkpt lat="45.58258051543859" lon="11.19604008205372"><ele>884.0</ele><time>2026-04-25T10:56:23.968Z</time></trkpt><trkpt lat="45.58276599491356" lon="11.196061158371649"><ele>884.0</ele><time>2026-04-25T10:56:24.968Z</time></trkpt><trkpt lat="45.58292735654836" lon="11.196061466018872"><ele>884.0</ele><time>2026-04-25T10:56:25.968Z</time></trkpt><trkpt lat="45.58311620588109" lon="11.19606284365276"><ele>885.25</ele><time>2026-04-25T10:56:26.968Z</time></trkpt><trkpt lat="45.583275086954885" lon="11.196074390257104"><ele>886.5</ele><time>2026-04-25T10:56:27.968Z</time></trkpt><trkpt lat="45.583407364839516" lon="11.196082706634344"><ele>887.75</ele><time>2026-04-25T10:56:28.968Z</time></trkpt><trkpt lat="45.583512176292714" lon="11.19608425013823"><ele>889.0</ele><time>2026-04-25T10:56:29.968Z</time></trkpt><trkpt lat="45.58361884280327" lon="11.196066867230618"><ele>889.6</ele><time>2026-04-25T10:56:30.968Z</time></trkpt><trkpt lat="45.583728077721005" lon="11.196048859079184"><ele>890.2</ele><time>2026-04-25T10:56:31.968Z</time></trkpt><trkpt lat="45.583835599334435" lon="11.196003356739093"><ele>890.8000000000001</ele><time>2026-04-25T10:56:32.968Z</time></trkpt><trkpt lat="45.58393994571313" lon="11.195976013554397"><ele>891.4000000000001</ele><time>2026-04-25T10:56:33.968Z</time></trkpt><trkpt lat="45.58404361366853" lon="11.19591718921127"><ele>892.0</ele><time>2026-04-25T10:56:34.968Z</time></trkpt><trkpt lat="45.584137342838716" lon="11.195871777526898"><ele>892.0</ele><time>2026-04-25T10:56:35.968Z</time></trkpt><trkpt lat="45.584224192892236" lon="11.19578722637582"><ele>892.0</ele><time>2026-04-25T10:56:36.968Z</time></trkpt><trkpt lat="45.58431484269631" lon="11.195713147351755"><ele>892.0</ele><time>2026-04-25T10:56:37.968Z</time></trkpt><trkpt lat="45.5844088357477" lon="11.195639187567389"><ele>892.0</ele><time>2026-04-25T10:56:38.968Z</time></trkpt><trkpt lat="45.58449877938277" lon="11.195577453885534"><ele>892.0</ele><time>2026-04-25T10:56:39.968Z</time></trkpt><trkpt lat="45.58458382092588" lon="11.195512365224648"><ele>890.25</ele><time>2026-04-25T10:56:40.968Z</time></trkpt><trkpt lat="45.5846766933074" lon="11.19545082421324"><ele>888.5</ele><time>2026-04-25T10:56:41.968Z</time></trkpt><trkpt lat="45.58479140114745" lon="11.195404496402025"><ele>886.75</ele><time>2026-04-25T10:56:42.968Z</time></trkpt><trkpt lat="45.584920863779516" lon="11.195382966477698"><ele>885.0</ele><time>2026-04-25T10:56:43.968Z</time></trkpt><trkpt lat="45.58503510750084" lon="11.195353778063666"><ele>885.0</ele><time>2026-04-25T10:56:44.968Z</time></trkpt><trkpt lat="45.58514004694663" lon="11.195332489859904"><ele>885.0</ele><time>2026-04-25T10:56:45.968Z</time></trkpt><trkpt lat="45.585246361400436" lon="11.195298498537674"><ele>885.0</ele><time>2026-04-25T10:56:46.968Z</time></trkpt><trkpt lat="45.585335382942965" lon="11.19526543095203"><ele>885.0</ele><time>2026-04-25T10:56:47.968Z</time></trkpt><trkpt lat="45.585442769220755" lon="11.195200842241956"><ele>885.0</ele><time>2026-04-25T10:56:48.968Z</time></trkpt><trkpt lat="45.58554212954373" lon="11.195133731070008"><ele>884.8333333333334</ele><time>2026-04-25T10:56:49.968Z</time></trkpt><trkpt lat="45.58563773517463" lon="11.195070505953774"><ele>884.6666666666667</ele><time>2026-04-25T10:56:50.968Z</time></trkpt><trkpt lat="45.58571661135613" lon="11.195010582754177"><ele>884.5</ele><time>2026-04-25T10:56:51.968Z</time></trkpt><trkpt lat="45.58579628165218" lon="11.194957292778335"><ele>884.3333333333334</ele><time>2026-04-25T10:56:52.968Z</time></trkpt><trkpt lat="45.585860137928286" lon="11.194917541239667"><ele>884.1666666666667</ele><time>2026-04-25T10:56:53.968Z</time></trkpt><trkpt lat="45.585919922954005" lon="11.194869578149119"><ele>884.0</ele><time>2026-04-25T10:56:54.968Z</time></trkpt><trkpt lat="45.58600581661537" lon="11.194817122195271"><ele>882.5000000000001</ele><time>2026-04-25T10:56:55.968Z</time></trkpt><trkpt lat="45.58608093454561" lon="11.19478494441825"><ele>881.0</ele><time>2026-04-25T10:56:56.968Z</time></trkpt><trkpt lat="45.58616620665543" lon="11.194732016533099"><ele>879.5</ele><time>2026-04-25T10:56:57.968Z</time></trkpt><trkpt lat="45.58624387105591" lon="11.194662200039279"><ele>878.0</ele><time>2026-04-25T10:56:58.968Z</time></trkpt><trkpt lat="45.5863165320718" lon="11.194569427621119"><ele>876.5000000000001</ele><time>2026-04-25T10:56:59.968Z</time></trkpt><trkpt lat="45.58638136994604" lon="11.19448590560272"><ele>875.0</ele><time>2026-04-25T10:57:00.969Z</time></trkpt><trkpt lat="45.58646967467653" lon="11.194415918836144"><ele>875.0000000000001</ele><time>2026-04-25T10:57:02.968Z</time></trkpt><trkpt lat="45.586501413214464" lon="11.194331554802506"><ele>875.0</ele><time>2026-04-25T10:57:12.968Z</time></trkpt><trkpt lat="45.586529269661376" lon="11.194219938190505"><ele>875.0</ele><time>2026-04-25T10:57:15.968Z</time></trkpt><trkpt lat="45.58654838264946" lon="11.194127179804426"><ele>875.0</ele><time>2026-04-25T10:57:17.967Z</time></trkpt><trkpt lat="45.586583471161916" lon="11.194005245704762"><ele>875.0000000000001</ele><time>2026-04-25T10:57:19.967Z</time></trkpt><trkpt lat="45.58659246152519" lon="11.193893510815913"><ele>875.0</ele><time>2026-04-25T10:57:21.967Z</time></trkpt><trkpt lat="45.586614058075924" lon="11.19379013604313"><ele>873.0000000000001</ele><time>2026-04-25T10:57:23.967Z</time></trkpt><trkpt lat="45.58662155337999" lon="11.193672426438479"><ele>871.0</ele><time>2026-04-25T10:57:25.967Z</time></trkpt><trkpt lat="45.586651726793356" lon="11.193566371644014"><ele>869.0</ele><time>2026-04-25T10:57:27.967Z</time></trkpt><trkpt lat="45.58668854565279" lon="11.19347172432191"><ele>867.0</ele><time>2026-04-25T10:57:30.967Z</time></trkpt><trkpt lat="45.586730086697244" lon="11.193399310750472"><ele>865.0000000000001</ele><time>2026-04-25T10:57:33.967Z</time></trkpt><trkpt lat="45.586702276736055" lon="11.193311177708866"><ele>863.0</ele><time>2026-04-25T10:57:35.967Z</time></trkpt><trkpt lat="45.58665203016136" lon="11.193205113642529"><ele>858.2</ele><time>2026-04-25T10:57:37.967Z</time></trkpt><trkpt lat="45.586628495936246" lon="11.193113098035402"><ele>853.4</ele><time>2026-04-25T10:57:38.967Z</time></trkpt><trkpt lat="45.58661850652711" lon="11.192982753048685"><ele>848.6</ele><time>2026-04-25T10:57:39.967Z</time></trkpt><trkpt lat="45.58659572348156" lon="11.192868013586619"><ele>843.8000000000001</ele><time>2026-04-25T10:57:40.967Z</time></trkpt><trkpt lat="45.586527811467015" lon="11.192718852763129"><ele>839.0</ele><time>2026-04-25T10:57:42.967Z</time></trkpt><trkpt lat="45.58650209485028" lon="11.192596911864715"><ele>839.0000000000001</ele><time>2026-04-25T10:57:44.967Z</time></trkpt><trkpt lat="45.586511357306414" lon="11.192497280359035"><ele>839.0</ele><time>2026-04-25T10:57:45.967Z</time></trkpt><trkpt lat="45.586506197178444" lon="11.192394408978117"><ele>839.0</ele><time>2026-04-25T10:57:46.967Z</time></trkpt><trkpt lat="45.58647028385733" lon="11.192273721756543"><ele>839.0</ele><time>2026-04-25T10:57:47.967Z</time></trkpt><trkpt lat="45.586449229455695" lon="11.192174521040835"><ele>839.0000000000001</ele><time>2026-04-25T10:57:48.967Z</time></trkpt><trkpt lat="45.58640562792279" lon="11.192024958944616"><ele>839.0</ele><time>2026-04-25T10:57:50.967Z</time></trkpt><trkpt lat="45.58634125509058" lon="11.19201363643965"><ele>836.6666666666667</ele><time>2026-04-25T10:57:52.967Z</time></trkpt><trkpt lat="45.58627736447382" lon="11.192033025220573"><ele>834.3333333333334</ele><time>2026-04-25T10:57:53.967Z</time></trkpt><trkpt lat="45.58617838509184" lon="11.19210849077145"><ele>832.0</ele><time>2026-04-25T10:57:55.967Z</time></trkpt><trkpt lat="45.58608738068866" lon="11.192228336997252"><ele>829.6666666666667</ele><time>2026-04-25T10:57:57.967Z</time></trkpt><trkpt lat="45.58604235365017" lon="11.19231594027135"><ele>827.3333333333334</ele><time>2026-04-25T10:57:58.967Z</time></trkpt><trkpt lat="45.58601631280314" lon="11.19239833775537"><ele>825.0</ele><time>2026-04-25T10:57:59.967Z</time></trkpt><trkpt lat="45.585990716111226" lon="11.192497651801245"><ele>823.0</ele><time>2026-04-25T10:58:00.967Z</time></trkpt><trkpt lat="45.585944676526566" lon="11.192581446935382"><ele>821.0</ele><time>2026-04-25T10:58:02.967Z</time></trkpt><trkpt lat="45.58593528810852" lon="11.192733315888145"><ele>819.0</ele><time>2026-04-25T10:58:04.967Z</time></trkpt><trkpt lat="45.585880062766584" lon="11.192866815143638"><ele>817.0</ele><time>2026-04-25T10:58:06.967Z</time></trkpt><trkpt lat="45.585813274720984" lon="11.192927872377215"><ele>815.0</ele><time>2026-04-25T10:58:08.967Z</time></trkpt><trkpt lat="45.58571261169217" lon="11.192896413309997"><ele>815.0000000000001</ele><time>2026-04-25T10:58:10.967Z</time></trkpt><trkpt lat="45.585600196726396" lon="11.192882995392631"><ele>815.0</ele><time>2026-04-25T10:58:12.967Z</time></trkpt><trkpt lat="45.58553512540281" lon="11.19282800423389"><ele>815.0</ele><time>2026-04-25T10:58:13.967Z</time></trkpt><trkpt lat="45.58547860423448" lon="11.192764556093119"><ele>815.0</ele><time>2026-04-25T10:58:14.967Z</time></trkpt><trkpt lat="45.58542813078924" lon="11.192657783072459"><ele>815.0000000000001</ele><time>2026-04-25T10:58:16.967Z</time></trkpt><trkpt lat="45.58537706630668" lon="11.192563152495772"><ele>815.0</ele><time>2026-04-25T10:58:18.967Z</time></trkpt><trkpt lat="45.58532073649857" lon="11.19251260982301"><ele>811.5000000000001</ele><time>2026-04-25T10:58:20.967Z</time></trkpt><trkpt lat="45.58524383908443" lon="11.192563313521758"><ele>808.0</ele><time>2026-04-25T10:58:22.967Z</time></trkpt><trkpt lat="45.58517010021708" lon="11.192677872449863"><ele>804.5</ele><time>2026-04-25T10:58:24.967Z</time></trkpt><trkpt lat="45.58513231298394" lon="11.192754582043902"><ele>801.0</ele><time>2026-04-25T10:58:25.967Z</time></trkpt><trkpt lat="45.58507087942165" lon="11.19279780478647"><ele>797.5000000000001</ele><time>2026-04-25T10:58:26.967Z</time></trkpt><trkpt lat="45.58495466236661" lon="11.192770495925762"><ele>794.0</ele><time>2026-04-25T10:58:28.967Z</time></trkpt><trkpt lat="45.584869624707046" lon="11.192752312133166"><ele>794.0</ele><time>2026-04-25T10:58:29.967Z</time></trkpt><trkpt lat="45.58479852709378" lon="11.192698579374419"><ele>794.0</ele><time>2026-04-25T10:58:31.967Z</time></trkpt><trkpt lat="45.584813203793146" lon="11.19259294614985"><ele>794.0</ele><time>2026-04-25T10:58:32.967Z</time></trkpt><trkpt lat="45.584762470284296" lon="11.192503847253958"><ele>794.0</ele><time>2026-04-25T10:58:34.967Z</time></trkpt><trkpt lat="45.58467682759083" lon="11.192450989826254"><ele>794.0</ele><time>2026-04-25T10:58:35.967Z</time></trkpt><trkpt lat="45.58455075769382" lon="11.192468986011338"><ele>795.2</ele><time>2026-04-25T10:58:37.967Z</time></trkpt><trkpt lat="45.584446471418254" lon="11.192513075722493"><ele>796.4000000000001</ele><time>2026-04-25T10:58:38.967Z</time></trkpt><trkpt lat="45.58433357832656" lon="11.192560723867656"><ele>797.6</ele><time>2026-04-25T10:58:39.967Z</time></trkpt><trkpt lat="45.584232514057156" lon="11.192583699054525"><ele>798.8</ele><time>2026-04-25T10:58:40.967Z</time></trkpt><trkpt lat="45.58416149429428" lon="11.192579931846492"><ele>800.0</ele><time>2026-04-25T10:58:41.967Z</time></trkpt><trkpt lat="45.58409513709821" lon="11.192620849006413"><ele>800.0</ele><time>2026-04-25T10:58:43.967Z</time></trkpt><trkpt lat="45.58416214358432" lon="11.192601731922336"><ele>800.0</ele><time>2026-04-25T10:59:24.968Z</time></trkpt><trkpt lat="45.584267576557735" lon="11.192594047519506"><ele>800.0</ele><time>2026-04-25T10:59:26.968Z</time></trkpt><trkpt lat="45.584337225821486" lon="11.192573385036377"><ele>800.0</ele><time>2026-04-25T10:59:28.968Z</time></trkpt><trkpt lat="45.58449654160088" lon="11.192620004327773"><ele>800.0</ele><time>2026-04-25T10:59:32.968Z</time></trkpt><trkpt lat="45.58457655851716" lon="11.192689349720066"><ele>798.8</ele><time>2026-04-25T10:59:34.968Z</time></trkpt><trkpt lat="45.584626765475306" lon="11.192776265404088"><ele>797.6</ele><time>2026-04-25T10:59:36.968Z</time></trkpt><trkpt lat="45.58471279928451" lon="11.192806737173115"><ele>796.4000000000001</ele><time>2026-04-25T10:59:38.968Z</time></trkpt><trkpt lat="45.584819867010665" lon="11.192847753558025"><ele>795.2</ele><time>2026-04-25T10:59:40.968Z</time></trkpt><trkpt lat="45.58492617423347" lon="11.192863888635868"><ele>794.0</ele><time>2026-04-25T10:59:42.968Z</time></trkpt><trkpt lat="45.58502645172896" lon="11.19278609335803"><ele>794.0</ele><time>2026-04-25T10:59:57.968Z</time></trkpt><trkpt lat="45.58507530999157" lon="11.19266811220145"><ele>794.0</ele><time>2026-04-25T11:00:00.968Z</time></trkpt><trkpt lat="45.585154603132324" lon="11.192593243133683"><ele>794.0</ele><time>2026-04-25T11:00:04.968Z</time></trkpt><trkpt lat="45.585230768580885" lon="11.192547723952645"><ele>794.0</ele><time>2026-04-25T11:00:06.968Z</time></trkpt><trkpt lat="45.58534590627928" lon="11.192550914166073"><ele>794.0</ele><time>2026-04-25T11:00:08.967Z</time></trkpt><trkpt lat="45.58540816939209" lon="11.192569081633243"><ele>797.0</ele><time>2026-04-25T11:00:09.967Z</time></trkpt><trkpt lat="45.585475574952284" lon="11.192549205168573"><ele>800.0</ele><time>2026-04-25T11:00:10.967Z</time></trkpt><trkpt lat="45.58552502218042" lon="11.19244603488035"><ele>803.0</ele><time>2026-04-25T11:00:13.967Z</time></trkpt><trkpt lat="45.58555912966897" lon="11.192335045283409"><ele>806.0</ele><time>2026-04-25T11:00:15.967Z</time></trkpt><trkpt lat="45.58560056383087" lon="11.19216532085674"><ele>809.0</ele><time>2026-04-25T11:00:17.967Z</time></trkpt><trkpt lat="45.58564563000605" lon="11.192055645889061"><ele>809.0</ele><time>2026-04-25T11:00:18.967Z</time></trkpt><trkpt lat="45.58563546187461" lon="11.191934310596045"><ele>809.0</ele><time>2026-04-25T11:00:20.967Z</time></trkpt><trkpt lat="45.58565944005752" lon="11.191806350959384"><ele>809.0</ele><time>2026-04-25T11:00:22.967Z</time></trkpt><trkpt lat="45.58568270849585" lon="11.19166558756701"><ele>809.0</ele><time>2026-04-25T11:00:24.967Z</time></trkpt><trkpt lat="45.58571210765966" lon="11.191519800241277"><ele>809.0</ele><time>2026-04-25T11:00:26.967Z</time></trkpt><trkpt lat="45.58572553886521" lon="11.191430438125893"><ele>806.8000000000001</ele><time>2026-04-25T11:00:27.967Z</time></trkpt><trkpt lat="45.58578822073" lon="11.191259935403442"><ele>804.6</ele><time>2026-04-25T11:00:29.967Z</time></trkpt><trkpt lat="45.58581237362446" lon="11.191159428118192"><ele>802.4</ele><time>2026-04-25T11:00:31.967Z</time></trkpt><trkpt lat="45.58590075288439" lon="11.191073496092285"><ele>800.2</ele><time>2026-04-25T11:00:33.967Z</time></trkpt><trkpt lat="45.58598191124377" lon="11.19103404001666"><ele>798.0</ele><time>2026-04-25T11:00:35.967Z</time></trkpt><trkpt lat="45.58608712581396" lon="11.190995063814269"><ele>799.5999999999999</ele><time>2026-04-25T11:00:37.967Z</time></trkpt><trkpt lat="45.58620485882132" lon="11.19096103212569"><ele>801.1999999999999</ele><time>2026-04-25T11:00:39.967Z</time></trkpt><trkpt lat="45.58630667157255" lon="11.190920531272601"><ele>802.8</ele><time>2026-04-25T11:00:41.967Z</time></trkpt><trkpt lat="45.58640109034372" lon="11.190906342924283"><ele>804.4</ele><time>2026-04-25T11:00:44.967Z</time></trkpt><trkpt lat="45.58645566443323" lon="11.19097727003166"><ele>806.0</ele><time>2026-04-25T11:00:46.967Z</time></trkpt><trkpt lat="45.58654511583037" lon="11.191060011627433"><ele>806.0000000000001</ele><time>2026-04-25T11:00:48.967Z</time></trkpt><trkpt lat="45.586623386235104" lon="11.19109321971464"><ele>806.0</ele><time>2026-04-25T11:00:50.967Z</time></trkpt><trkpt lat="45.586693109936306" lon="11.191110192833278"><ele>806.0</ele><time>2026-04-25T11:00:51.967Z</time></trkpt><trkpt lat="45.58679456740367" lon="11.191171872465466"><ele>806.0</ele><time>2026-04-25T11:00:53.967Z</time></trkpt><trkpt lat="45.586872196272786" lon="11.191190037254044"><ele>806.0000000000001</ele><time>2026-04-25T11:00:54.967Z</time></trkpt><trkpt lat="45.58693077286143" lon="11.191061592194048"><ele>806.0</ele><time>2026-04-25T11:00:56.967Z</time></trkpt><trkpt lat="45.586982975503595" lon="11.190963218671035"><ele>805.1999999999999</ele><time>2026-04-25T11:00:58.967Z</time></trkpt><trkpt lat="45.58705891028277" lon="11.190915313896404"><ele>804.4</ele><time>2026-04-25T11:01:01.967Z</time></trkpt><trkpt lat="45.58714455630951" lon="11.1909465737273"><ele>803.6</ele><time>2026-04-25T11:01:03.967Z</time></trkpt><trkpt lat="45.587233468985545" lon="11.191043494210794"><ele>802.8</ele><time>2026-04-25T11:01:05.967Z</time></trkpt><trkpt lat="45.587307465601334" lon="11.19110050364745"><ele>802.0</ele><time>2026-04-25T11:01:06.967Z</time></trkpt><trkpt lat="45.587384383921076" lon="11.191151733826514"><ele>802.0</ele><time>2026-04-25T11:01:07.967Z</time></trkpt><trkpt lat="45.58748608932876" lon="11.191220860690612"><ele>802.0</ele><time>2026-04-25T11:01:08.967Z</time></trkpt><trkpt lat="45.58759044222082" lon="11.191296364434786"><ele>802.0</ele><time>2026-04-25T11:01:09.967Z</time></trkpt><trkpt lat="45.587677779514735" lon="11.191333224406547"><ele>802.0</ele><time>2026-04-25T11:01:10.967Z</time></trkpt><trkpt lat="45.587755018320124" lon="11.19136735086047"><ele>802.0</ele><time>2026-04-25T11:01:11.966Z</time></trkpt><trkpt lat="45.58784040124554" lon="11.191427979307818"><ele>804.6666666666666</ele><time>2026-04-25T11:01:12.968Z</time></trkpt><trkpt lat="45.58791792465806" lon="11.191381538686024"><ele>807.3333333333333</ele><time>2026-04-25T11:01:15.967Z</time></trkpt><trkpt lat="45.587996125070156" lon="11.19132482364694"><ele>810.0</ele><time>2026-04-25T11:01:18.968Z</time></trkpt><trkpt lat="45.58801446662669" lon="11.191231491921904"><ele>812.6666666666667</ele><time>2026-04-25T11:01:20.967Z</time></trkpt><trkpt lat="45.588069998671386" lon="11.191083271732413"><ele>815.3333333333334</ele><time>2026-04-25T11:01:22.967Z</time></trkpt><trkpt lat="45.588113431608534" lon="11.191017698697854"><ele>818.0</ele><time>2026-04-25T11:01:24.967Z</time></trkpt><trkpt lat="45.58824515288228" lon="11.191053508200486"><ele>818.0</ele><time>2026-04-25T11:01:33.966Z</time></trkpt><trkpt lat="45.58830502252462" lon="11.191096336244318"><ele>818.0</ele><time>2026-04-25T11:01:35.966Z</time></trkpt><trkpt lat="45.58842710840161" lon="11.19117810564598"><ele>818.0</ele><time>2026-04-25T11:01:37.966Z</time></trkpt><trkpt lat="45.58851210637645" lon="11.191202274605736"><ele>818.0</ele><time>2026-04-25T11:01:38.966Z</time></trkpt><trkpt lat="45.58861319296315" lon="11.191238399009043"><ele>818.0</ele><time>2026-04-25T11:01:39.966Z</time></trkpt><trkpt lat="45.58869820048344" lon="11.191208390978582"><ele>820.1666666666667</ele><time>2026-04-25T11:01:40.966Z</time></trkpt><trkpt lat="45.588762556671576" lon="11.191152269271909"><ele>822.3333333333334</ele><time>2026-04-25T11:01:41.966Z</time></trkpt><trkpt lat="45.58882291567581" lon="11.191125478964116"><ele>824.5</ele><time>2026-04-25T11:01:42.966Z</time></trkpt><trkpt lat="45.58889000446203" lon="11.191127116437356"><ele>826.6666666666667</ele><time>2026-04-25T11:01:43.966Z</time></trkpt><trkpt lat="45.58895071178257" lon="11.19115305210817"><ele>828.8333333333334</ele><time>2026-04-25T11:01:44.966Z</time></trkpt><trkpt lat="45.5890921859568" lon="11.19126060819738"><ele>831.0</ele><time>2026-04-25T11:01:46.966Z</time></trkpt><trkpt lat="45.58918470632795" lon="11.19133772804116"><ele>831.0</ele><time>2026-04-25T11:01:47.966Z</time></trkpt><trkpt lat="45.58928824003911" lon="11.191410924064444"><ele>831.0</ele><time>2026-04-25T11:01:48.966Z</time></trkpt><trkpt lat="45.58937785612201" lon="11.191472835243047"><ele>831.0</ele><time>2026-04-25T11:01:49.966Z</time></trkpt><trkpt lat="45.58946193958718" lon="11.19152456098875"><ele>831.0</ele><time>2026-04-25T11:01:50.966Z</time></trkpt><trkpt lat="45.58953678913625" lon="11.191526397482853"><ele>831.0</ele><time>2026-04-25T11:01:51.966Z</time></trkpt><trkpt lat="45.58961909498801" lon="11.191515170034185"><ele>834.8333333333334</ele><time>2026-04-25T11:01:52.966Z</time></trkpt><trkpt lat="45.58968802400506" lon="11.19153421259333"><ele>838.6666666666667</ele><time>2026-04-25T11:01:53.966Z</time></trkpt><trkpt lat="45.58980506267886" lon="11.191569108321387"><ele>842.5</ele><time>2026-04-25T11:01:55.966Z</time></trkpt><trkpt lat="45.5898887170446" lon="11.191603255927872"><ele>846.3333333333334</ele><time>2026-04-25T11:01:56.966Z</time></trkpt><trkpt lat="45.58996962228635" lon="11.191636962614467"><ele>850.1666666666667</ele><time>2026-04-25T11:01:57.966Z</time></trkpt><trkpt lat="45.59003584798566" lon="11.191669391613706"><ele>854.0</ele><time>2026-04-25T11:01:58.966Z</time></trkpt><trkpt lat="45.59010543387393" lon="11.191719483099588"><ele>854.0</ele><time>2026-04-25T11:01:59.966Z</time></trkpt><trkpt lat="45.59017708779193" lon="11.191794926685196"><ele>854.0000000000001</ele><time>2026-04-25T11:02:00.966Z</time></trkpt><trkpt lat="45.590253329804895" lon="11.191896350326894"><ele>854.0000000000001</ele><time>2026-04-25T11:02:01.966Z</time></trkpt><trkpt lat="45.59035502484897" lon="11.192000923115017"><ele>854.0</ele><time>2026-04-25T11:02:02.966Z</time></trkpt><trkpt lat="45.590462152990796" lon="11.192087043271485"><ele>854.0</ele><time>2026-04-25T11:02:03.966Z</time></trkpt><trkpt lat="45.59056730351958" lon="11.192202607831424"><ele>853.0</ele><time>2026-04-25T11:02:04.966Z</time></trkpt><trkpt lat="45.590649562177475" lon="11.192303944772894"><ele>852.0000000000001</ele><time>2026-04-25T11:02:05.966Z</time></trkpt><trkpt lat="45.59072468797022" lon="11.192404325823405"><ele>851.0</ele><time>2026-04-25T11:02:06.966Z</time></trkpt><trkpt lat="45.590787326005945" lon="11.192522869538456"><ele>850.0</ele><time>2026-04-25T11:02:07.966Z</time></trkpt><trkpt lat="45.59087112091684" lon="11.192604964493647"><ele>849.0</ele><time>2026-04-25T11:02:08.966Z</time></trkpt><trkpt lat="45.59093515626059" lon="11.192648150462214"><ele>853.0</ele><time>2026-04-25T11:02:09.966Z</time></trkpt><trkpt lat="45.590998893592776" lon="11.192672386929578"><ele>857.0</ele><time>2026-04-25T11:02:10.966Z</time></trkpt><trkpt lat="45.591107310302064" lon="11.192809452496805"><ele>861.0000000000001</ele><time>2026-04-25T11:02:12.966Z</time></trkpt><trkpt lat="45.591185524705494" lon="11.192888679699653"><ele>865.0</ele><time>2026-04-25T11:02:13.966Z</time></trkpt><trkpt lat="45.59128896480116" lon="11.192992503707888"><ele>869.0</ele><time>2026-04-25T11:02:14.966Z</time></trkpt><trkpt lat="45.591397232107084" lon="11.193130864283622"><ele>875.0</ele><time>2026-04-25T11:02:15.966Z</time></trkpt><trkpt lat="45.59150556240561" lon="11.193278525104418"><ele>881.0</ele><time>2026-04-25T11:02:16.966Z</time></trkpt><trkpt lat="45.59161084572937" lon="11.19340999115501"><ele>887.0</ele><time>2026-04-25T11:02:17.966Z</time></trkpt><trkpt lat="45.59174852547535" lon="11.193506044478907"><ele>893.0</ele><time>2026-04-25T11:02:18.966Z</time></trkpt><trkpt lat="45.59189603298083" lon="11.193584093840082"><ele>894.75</ele><time>2026-04-25T11:02:19.966Z</time></trkpt><trkpt lat="45.59206931707428" lon="11.193687549870742"><ele>896.5</ele><time>2026-04-25T11:02:20.966Z</time></trkpt><trkpt lat="45.59218832850958" lon="11.193696605090153"><ele>898.25</ele><time>2026-04-25T11:02:21.966Z</time></trkpt><trkpt lat="45.59232346359115" lon="11.193658094441732"><ele>900.0</ele><time>2026-04-25T11:02:22.966Z</time></trkpt><trkpt lat="45.59242752013517" lon="11.19359567128189"><ele>900.0</ele><time>2026-04-25T11:02:23.966Z</time></trkpt><trkpt lat="45.592516548527485" lon="11.193549249891962"><ele>900.0</ele><time>2026-04-25T11:02:24.966Z</time></trkpt><trkpt lat="45.59263512621071" lon="11.193540051206881"><ele>900.0</ele><time>2026-04-25T11:02:26.966Z</time></trkpt><trkpt lat="45.59275534292728" lon="11.193544560773379"><ele>900.0</ele><time>2026-04-25T11:02:28.966Z</time></trkpt><trkpt lat="45.59282710656574" lon="11.19356989660527"><ele>900.0</ele><time>2026-04-25T11:02:29.966Z</time></trkpt><trkpt lat="45.59291796851682" lon="11.193612183415732"><ele>898.3333333333334</ele><time>2026-04-25T11:02:31.966Z</time></trkpt><trkpt lat="45.5929830305643" lon="11.19362932483698"><ele>896.6666666666667</ele><time>2026-04-25T11:02:34.966Z</time></trkpt><trkpt lat="45.593037326969004" lon="11.193551613234103"><ele>895.0</ele><time>2026-04-25T11:02:37.966Z</time></trkpt><trkpt lat="45.5930143018736" lon="11.193434605476773"><ele>893.3333333333334</ele><time>2026-04-25T11:02:38.966Z</time></trkpt><trkpt lat="45.592974245522036" lon="11.193331052037326"><ele>891.6666666666667</ele><time>2026-04-25T11:02:39.966Z</time></trkpt><trkpt lat="45.592933736232595" lon="11.19321810673518"><ele>890.0</ele><time>2026-04-25T11:02:40.966Z</time></trkpt><trkpt lat="45.592892648718454" lon="11.193092556227803"><ele>890.0</ele><time>2026-04-25T11:02:41.966Z</time></trkpt><trkpt lat="45.592859207365315" lon="11.192954609204243"><ele>890.0</ele><time>2026-04-25T11:02:42.966Z</time></trkpt><trkpt lat="45.59282145845764" lon="11.192825286383691"><ele>890.0</ele><time>2026-04-25T11:02:43.966Z</time></trkpt><trkpt lat="45.592783466005294" lon="11.192702227069294"><ele>890.0</ele><time>2026-04-25T11:02:44.966Z</time></trkpt><trkpt lat="45.59275025587663" lon="11.192570951486111"><ele>890.0</ele><time>2026-04-25T11:02:45.966Z</time></trkpt><trkpt lat="45.5927176504345" lon="11.192427148610012"><ele>891.0</ele><time>2026-04-25T11:02:46.966Z</time></trkpt><trkpt lat="45.592696952537274" lon="11.192281245054355"><ele>892.0</ele><time>2026-04-25T11:02:47.966Z</time></trkpt><trkpt lat="45.592701961515424" lon="11.19213606316918"><ele>893.0</ele><time>2026-04-25T11:02:48.966Z</time></trkpt><trkpt lat="45.59273185713208" lon="11.191963408524206"><ele>894.0</ele><time>2026-04-25T11:02:49.966Z</time></trkpt><trkpt lat="45.59279768932201" lon="11.19178430644731"><ele>893.25</ele><time>2026-04-25T11:02:50.966Z</time></trkpt><trkpt lat="45.59286022098272" lon="11.191604906108505"><ele>892.5</ele><time>2026-04-25T11:02:51.966Z</time></trkpt><trkpt lat="45.59290193506912" lon="11.191411944989236"><ele>891.75</ele><time>2026-04-25T11:02:52.966Z</time></trkpt><trkpt lat="45.592930674546345" lon="11.191207411420452"><ele>891.0</ele><time>2026-04-25T11:02:53.966Z</time></trkpt><trkpt lat="45.59295260062638" lon="11.190997386644788"><ele>891.0</ele><time>2026-04-25T11:02:54.966Z</time></trkpt><trkpt lat="45.59296780791063" lon="11.190799995535563"><ele>891.0</ele><time>2026-04-25T11:02:55.966Z</time></trkpt><trkpt lat="45.592970993909304" lon="11.19062652131573"><ele>891.0</ele><time>2026-04-25T11:02:56.966Z</time></trkpt><trkpt lat="45.592959582317484" lon="11.190444272583415"><ele>891.0</ele><time>2026-04-25T11:02:57.966Z</time></trkpt><trkpt lat="45.59295577314217" lon="11.190266937055393"><ele>890.75</ele><time>2026-04-25T11:02:58.966Z</time></trkpt><trkpt lat="45.592930783015966" lon="11.190108452938132"><ele>890.5</ele><time>2026-04-25T11:02:59.966Z</time></trkpt><trkpt lat="45.592887321734594" lon="11.189943054836514"><ele>890.25</ele><time>2026-04-25T11:03:00.966Z</time></trkpt><trkpt lat="45.592838643071616" lon="11.189767579143167"><ele>890.0</ele><time>2026-04-25T11:03:01.966Z</time></trkpt><trkpt lat="45.59277085107733" lon="11.189591967202928"><ele>891.0</ele><time>2026-04-25T11:03:02.966Z</time></trkpt><trkpt lat="45.592688975549954" lon="11.189416124110874"><ele>892.0</ele><time>2026-04-25T11:03:03.966Z</time></trkpt><trkpt lat="45.5926164394116" lon="11.189238139417377"><ele>893.0</ele><time>2026-04-25T11:03:04.966Z</time></trkpt><trkpt lat="45.59252526795882" lon="11.189058053982087"><ele>894.0</ele><time>2026-04-25T11:03:05.966Z</time></trkpt><trkpt lat="45.5924337149912" lon="11.188885758319422"><ele>894.0</ele><time>2026-04-25T11:03:06.966Z</time></trkpt><trkpt lat="45.592349836942965" lon="11.188692166697296"><ele>894.0</ele><time>2026-04-25T11:03:07.965Z</time></trkpt><trkpt lat="45.59228223855607" lon="11.188466517205923"><ele>894.0</ele><time>2026-04-25T11:03:08.965Z</time></trkpt><trkpt lat="45.592204328161806" lon="11.188248004228516"><ele>894.6666666666667</ele><time>2026-04-25T11:03:09.965Z</time></trkpt><trkpt lat="45.592114570599485" lon="11.188054278832842"><ele>895.3333333333334</ele><time>2026-04-25T11:03:10.965Z</time></trkpt><trkpt lat="45.59201866164146" lon="11.187867677919648"><ele>896.0</ele><time>2026-04-25T11:03:11.965Z</time></trkpt><trkpt lat="45.591911771593786" lon="11.187693546649735"><ele>896.0</ele><time>2026-04-25T11:03:12.965Z</time></trkpt><trkpt lat="45.59180541066585" lon="11.187522886485398"><ele>896.0</ele><time>2026-04-25T11:03:13.965Z</time></trkpt><trkpt lat="45.59168211772477" lon="11.187345466182494"><ele>896.0</ele><time>2026-04-25T11:03:14.965Z</time></trkpt><trkpt lat="45.59156112702817" lon="11.187165539687006"><ele>897.6666666666667</ele><time>2026-04-25T11:03:15.967Z</time></trkpt><trkpt lat="45.59145175574701" lon="11.187006819913307"><ele>899.3333333333333</ele><time>2026-04-25T11:03:16.967Z</time></trkpt><trkpt lat="45.5913451082631" lon="11.186848728663842"><ele>901.0</ele><time>2026-04-25T11:03:17.967Z</time></trkpt><trkpt lat="45.591240761172976" lon="11.186686779719176"><ele>902.6666666666666</ele><time>2026-04-25T11:03:18.967Z</time></trkpt><trkpt lat="45.59113110092228" lon="11.186528763294639"><ele>904.3333333333333</ele><time>2026-04-25T11:03:19.967Z</time></trkpt><trkpt lat="45.59102903326483" lon="11.186355993669691"><ele>906.0</ele><time>2026-04-25T11:03:20.967Z</time></trkpt><trkpt lat="45.59092217236632" lon="11.186189243871345"><ele>906.0</ele><time>2026-04-25T11:03:21.967Z</time></trkpt><trkpt lat="45.59081342309221" lon="11.186034310222475"><ele>906.0</ele><time>2026-04-25T11:03:22.967Z</time></trkpt><trkpt lat="45.590693329104525" lon="11.185876780426756"><ele>906.0</ele><time>2026-04-25T11:03:23.967Z</time></trkpt><trkpt lat="45.59056890692993" lon="11.185727237903995"><ele>907.3333333333333</ele><time>2026-04-25T11:03:24.966Z</time></trkpt><trkpt lat="45.59045477776525" lon="11.185573875365256"><ele>908.6666666666666</ele><time>2026-04-25T11:03:25.967Z</time></trkpt><trkpt lat="45.59034146180887" lon="11.185421521437826"><ele>910.0</ele><time>2026-04-25T11:03:26.967Z</time></trkpt><trkpt lat="45.59023475426253" lon="11.185263512279901"><ele>902.3333333333333</ele><time>2026-04-25T11:03:27.967Z</time></trkpt><trkpt lat="45.59013570711988" lon="11.185090756916056"><ele>894.6666666666667</ele><time>2026-04-25T11:03:28.966Z</time></trkpt><trkpt lat="45.590035950325436" lon="11.184908358487059"><ele>887.0</ele><time>2026-04-25T11:03:29.966Z</time></trkpt><trkpt lat="45.58993533030781" lon="11.184722642599546"><ele>885.6666666666667</ele><time>2026-04-25T11:03:30.966Z</time></trkpt><trkpt lat="45.589804583108815" lon="11.184546857630933"><ele>884.3333333333333</ele><time>2026-04-25T11:03:31.966Z</time></trkpt><trkpt lat="45.58969299581383" lon="11.18437232568377"><ele>883.0</ele><time>2026-04-25T11:03:32.966Z</time></trkpt><trkpt lat="45.589580217555046" lon="11.184204621914198"><ele>880.3333333333333</ele><time>2026-04-25T11:03:33.966Z</time></trkpt><trkpt lat="45.589472960800194" lon="11.184043244851598"><ele>877.6666666666667</ele><time>2026-04-25T11:03:34.966Z</time></trkpt><trkpt lat="45.589363556595806" lon="11.183894720991814"><ele>875.0</ele><time>2026-04-25T11:03:35.966Z</time></trkpt><trkpt lat="45.58925234996169" lon="11.18376645231572"><ele>874.2</ele><time>2026-04-25T11:03:36.966Z</time></trkpt><trkpt lat="45.5891569255525" lon="11.183637225024013"><ele>873.4</ele><time>2026-04-25T11:03:37.966Z</time></trkpt><trkpt lat="45.58909498264468" lon="11.183513480788793"><ele>872.5999999999999</ele><time>2026-04-25T11:03:38.966Z</time></trkpt><trkpt lat="45.58904950242124" lon="11.1834241141137"><ele>871.8</ele><time>2026-04-25T11:03:39.966Z</time></trkpt><trkpt lat="45.58900992320472" lon="11.183310637621545"><ele>871.0</ele><time>2026-04-25T11:03:41.966Z</time></trkpt><trkpt lat="45.58884892510639" lon="11.18339788167588"><ele>871.0</ele><time>2026-04-25T11:03:43.966Z</time></trkpt><trkpt lat="45.58878361011393" lon="11.183481885956231"><ele>871.0</ele><time>2026-04-25T11:03:44.966Z</time></trkpt><trkpt lat="45.58869259817004" lon="11.183587044630698"><ele>871.0</ele><time>2026-04-25T11:03:45.966Z</time></trkpt><trkpt lat="45.588601480997525" lon="11.183714964364377"><ele>871.0</ele><time>2026-04-25T11:03:46.966Z</time></trkpt><trkpt lat="45.58853179251795" lon="11.183872223111706"><ele>869.5</ele><time>2026-04-25T11:03:47.966Z</time></trkpt><trkpt lat="45.58843140757686" lon="11.183986649022803"><ele>868.0</ele><time>2026-04-25T11:03:48.966Z</time></trkpt><trkpt lat="45.588307204988446" lon="11.184082089121128"><ele>866.5</ele><time>2026-04-25T11:03:49.966Z</time></trkpt><trkpt lat="45.58818211782584" lon="11.184155197163884"><ele>865.0</ele><time>2026-04-25T11:03:50.966Z</time></trkpt><trkpt lat="45.58803869746058" lon="11.184251757213865"><ele>865.0</ele><time>2026-04-25T11:03:51.966Z</time></trkpt><trkpt lat="45.58791011005052" lon="11.184347940159036"><ele>865.0</ele><time>2026-04-25T11:03:52.966Z</time></trkpt><trkpt lat="45.587810860747844" lon="11.184453337824806"><ele>865.0</ele><time>2026-04-25T11:03:53.966Z</time></trkpt><trkpt lat="45.58772329920368" lon="11.18453634435449"><ele>865.0</ele><time>2026-04-25T11:03:54.966Z</time></trkpt><trkpt lat="45.58765049255211" lon="11.18460299182813"><ele>863.8333333333333</ele><time>2026-04-25T11:03:55.966Z</time></trkpt><trkpt lat="45.5875941018297" lon="11.184648911967976"><ele>862.6666666666666</ele><time>2026-04-25T11:03:56.966Z</time></trkpt><trkpt lat="45.58752273953476" lon="11.184695731374944"><ele>861.5</ele><time>2026-04-25T11:03:58.966Z</time></trkpt><trkpt lat="45.58745671368579" lon="11.184726264638856"><ele>860.3333333333333</ele><time>2026-04-25T11:04:01.966Z</time></trkpt><trkpt lat="45.58740521798125" lon="11.184792842960746"><ele>859.1666666666666</ele><time>2026-04-25T11:04:03.966Z</time></trkpt><trkpt lat="45.58735098533486" lon="11.184734922060791"><ele>858.0</ele><time>2026-04-25T11:04:05.966Z</time></trkpt><trkpt lat="45.58734380546447" lon="11.185356076682684"><ele>857.1666666666666</ele><time>2026-04-25T11:04:10.966Z</time></trkpt><trkpt lat="45.58739692753731" lon="11.185475874217762"><ele>856.3333333333333</ele><time>2026-04-25T11:04:12.966Z</time></trkpt><trkpt lat="45.58742641042486" lon="11.185586878905626"><ele>855.5</ele><time>2026-04-25T11:04:14.966Z</time></trkpt><trkpt lat="45.58743717605732" lon="11.185730836868839"><ele>854.6666666666666</ele><time>2026-04-25T11:04:16.966Z</time></trkpt><trkpt lat="45.58743767790564" lon="11.18584289209326"><ele>853.8333333333333</ele><time>2026-04-25T11:04:18.966Z</time></trkpt><trkpt lat="45.58744046375288" lon="11.185958364279188"><ele>853.0</ele><time>2026-04-25T11:04:21.966Z</time></trkpt><trkpt lat="45.58741393506667" lon="11.186052443436212"><ele>849.8</ele><time>2026-04-25T11:04:23.966Z</time></trkpt><trkpt lat="45.587391896158074" lon="11.18616386068263"><ele>846.5999999999999</ele><time>2026-04-25T11:04:25.966Z</time></trkpt><trkpt lat="45.587461502645446" lon="11.186281503079483"><ele>843.4000000000001</ele><time>2026-04-25T11:04:27.966Z</time></trkpt><trkpt lat="45.58754518730025" lon="11.18638096969547"><ele>840.2</ele><time>2026-04-25T11:04:29.966Z</time></trkpt><trkpt lat="45.587528978221364" lon="11.186562474251755"><ele>837.0</ele><time>2026-04-25T11:04:31.966Z</time></trkpt><trkpt lat="45.58747730986321" lon="11.186710092055328"><ele>834.5</ele><time>2026-04-25T11:04:33.966Z</time></trkpt><trkpt lat="45.58746105212242" lon="11.186850413332508"><ele>832.0</ele><time>2026-04-25T11:04:35.966Z</time></trkpt><trkpt lat="45.58742569936611" lon="11.186968040158174"><ele>829.5</ele><time>2026-04-25T11:04:37.966Z</time></trkpt><trkpt lat="45.58735949716447" lon="11.187068645578051"><ele>827.0</ele><time>2026-04-25T11:04:39.966Z</time></trkpt><trkpt lat="45.58729187559863" lon="11.18713373773524"><ele>824.5</ele><time>2026-04-25T11:04:41.966Z</time></trkpt><trkpt lat="45.58725292445184" lon="11.187216089539108"><ele>822.0</ele><time>2026-04-25T11:04:43.966Z</time></trkpt><trkpt lat="45.587246368600184" lon="11.18737714435353"><ele>822.0</ele><time>2026-04-25T11:04:46.966Z</time></trkpt><trkpt lat="45.58723270170016" lon="11.187501392460714"><ele>822.0</ele><time>2026-04-25T11:04:48.966Z</time></trkpt><trkpt lat="45.58715512624647" lon="11.187532064383367"><ele>822.0</ele><time>2026-04-25T11:04:50.966Z</time></trkpt><trkpt lat="45.58709880609805" lon="11.187490336332203"><ele>822.0</ele><time>2026-04-25T11:04:52.966Z</time></trkpt><trkpt lat="45.58704294585291" lon="11.187416864781449"><ele>822.0</ele><time>2026-04-25T11:04:55.966Z</time></trkpt><trkpt lat="45.58701932161392" lon="11.187288043850293"><ele>822.0</ele><time>2026-04-25T11:04:58.965Z</time></trkpt><trkpt lat="45.586963552791396" lon="11.187188979035438"><ele>820.0</ele><time>2026-04-25T11:05:06.965Z</time></trkpt><trkpt lat="45.58691256624458" lon="11.18710220314357"><ele>818.0</ele><time>2026-04-25T11:05:10.965Z</time></trkpt><trkpt lat="45.586843110230745" lon="11.18708105939811"><ele>816.0</ele><time>2026-04-25T11:06:44.966Z</time></trkpt><trkpt lat="45.58678640486911" lon="11.187035502469993"><ele>814.0</ele><time>2026-04-25T11:06:54.966Z</time></trkpt><trkpt lat="45.586740120889694" lon="11.186973473737705"><ele>812.0</ele><time>2026-04-25T11:07:12.965Z</time></trkpt><trkpt lat="45.58667297160454" lon="11.186952060129517"><ele>810.0</ele><time>2026-04-25T11:07:17.965Z</time></trkpt><trkpt lat="45.5865617510846" lon="11.186975111778441"><ele>810.0</ele><time>2026-04-25T11:07:33.966Z</time></trkpt><trkpt lat="45.586516327568084" lon="11.18704951119854"><ele>810.0</ele><time>2026-04-25T11:07:37.966Z</time></trkpt><trkpt lat="45.586455186090376" lon="11.187131777694816"><ele>810.0</ele><time>2026-04-25T11:07:41.965Z</time></trkpt><trkpt lat="45.58641433095887" lon="11.187217407628422"><ele>810.0</ele><time>2026-04-25T11:07:43.965Z</time></trkpt><trkpt lat="45.58636067039264" lon="11.187275948213404"><ele>810.0</ele><time>2026-04-25T11:07:45.965Z</time></trkpt><trkpt lat="45.586300297281305" lon="11.187415569878802"><ele>810.0</ele><time>2026-04-25T11:07:48.965Z</time></trkpt><trkpt lat="45.58627169035753" lon="11.187522310472545"><ele>806.6666666666666</ele><time>2026-04-25T11:07:50.965Z</time></trkpt><trkpt lat="45.586253388613706" lon="11.187642918571772"><ele>803.3333333333333</ele><time>2026-04-25T11:07:54.965Z</time></trkpt><trkpt lat="45.586221334545925" lon="11.187730036278069"><ele>800.0</ele><time>2026-04-25T11:08:02.965Z</time></trkpt><trkpt lat="45.5862029075096" lon="11.18784254254364"><ele>796.6666666666666</ele><time>2026-04-25T11:08:06.965Z</time></trkpt><trkpt lat="45.5861982306979" lon="11.187933422719496"><ele>793.3333333333333</ele><time>2026-04-25T11:08:09.965Z</time></trkpt><trkpt lat="45.58619284657377" lon="11.188040608949331"><ele>790.0</ele><time>2026-04-25T11:08:11.965Z</time></trkpt><trkpt lat="45.58623367103727" lon="11.188138316372408"><ele>787.4999999999999</ele><time>2026-04-25T11:08:13.965Z</time></trkpt><trkpt lat="45.586280995684064" lon="11.188233380449361"><ele>785.0</ele><time>2026-04-25T11:08:15.965Z</time></trkpt><trkpt lat="45.586318701929216" lon="11.18830853020382"><ele>782.5</ele><time>2026-04-25T11:08:17.965Z</time></trkpt><trkpt lat="45.58639111386072" lon="11.188393425361639"><ele>780.0</ele><time>2026-04-25T11:08:19.965Z</time></trkpt><trkpt lat="45.586441440800776" lon="11.188454137785717"><ele>777.4999999999999</ele><time>2026-04-25T11:08:21.965Z</time></trkpt><trkpt lat="45.58649269129108" lon="11.188531361549705"><ele>775.0</ele><time>2026-04-25T11:08:26.965Z</time></trkpt><trkpt lat="45.58652975005748" lon="11.188701728474442"><ele>774.9999999999999</ele><time>2026-04-25T11:08:41.965Z</time></trkpt><trkpt lat="45.586539810813875" lon="11.188819470067441"><ele>775.0</ele><time>2026-04-25T11:09:02.964Z</time></trkpt><trkpt lat="45.58661423539612" lon="11.188850339533781"><ele>775.0</ele><time>2026-04-25T11:09:06.964Z</time></trkpt><trkpt lat="45.58667691324372" lon="11.188898944948397"><ele>775.0</ele><time>2026-04-25T11:09:10.964Z</time></trkpt><trkpt lat="45.58674208531707" lon="11.18893399269822"><ele>775.0</ele><time>2026-04-25T11:09:15.964Z</time></trkpt><trkpt lat="45.58680266825406" lon="11.188987012566507"><ele>774.9999999999999</ele><time>2026-04-25T11:09:21.964Z</time></trkpt><trkpt lat="45.58673223887483" lon="11.188961290715403"><ele>775.0</ele><time>2026-04-25T11:09:40.966Z</time></trkpt><trkpt lat="45.58667247430631" lon="11.188909906569288"><ele>774.9999999999999</ele><time>2026-04-25T11:09:50.966Z</time></trkpt><trkpt lat="45.586616628463474" lon="11.188965662733658"><ele>775.0</ele><time>2026-04-25T11:09:59.966Z</time></trkpt><trkpt lat="45.586552439795085" lon="11.188914240679166"><ele>775.0</ele><time>2026-04-25T11:10:05.965Z</time></trkpt><trkpt lat="45.586461475260485" lon="11.188946748344785"><ele>775.0</ele><time>2026-04-25T11:10:07.965Z</time></trkpt><trkpt lat="45.5863804493604" lon="11.188956539825982"><ele>774.9999999999999</ele><time>2026-04-25T11:10:09.965Z</time></trkpt><trkpt lat="45.586263990348826" lon="11.189004601583363"><ele>775.0</ele><time>2026-04-25T11:10:12.965Z</time></trkpt><trkpt lat="45.586198170050054" lon="11.189014287032629"><ele>773.4285714285713</ele><time>2026-04-25T11:10:14.965Z</time></trkpt><trkpt lat="45.586114097966586" lon="11.189037073420637"><ele>771.8571428571429</ele><time>2026-04-25T11:10:18.965Z</time></trkpt><trkpt lat="45.586053602704354" lon="11.189073853335849"><ele>770.2857142857142</ele><time>2026-04-25T11:10:20.965Z</time></trkpt><trkpt lat="45.585979852859026" lon="11.189080014600762"><ele>768.7142857142857</ele><time>2026-04-25T11:10:25.965Z</time></trkpt><trkpt lat="45.5859159308415" lon="11.189060639358312"><ele>767.1428571428571</ele><time>2026-04-25T11:10:29.965Z</time></trkpt><trkpt lat="45.58585960924761" lon="11.189013535864124"><ele>765.5714285714286</ele><time>2026-04-25T11:10:32.965Z</time></trkpt><trkpt lat="45.58578755888426" lon="11.188967910499711"><ele>764.0</ele><time>2026-04-25T11:10:35.965Z</time></trkpt><trkpt lat="45.585710564759346" lon="11.1889697194934"><ele>764.0</ele><time>2026-04-25T11:10:38.965Z</time></trkpt><trkpt lat="45.58564528470429" lon="11.188932129465654"><ele>764.0</ele><time>2026-04-25T11:10:42.965Z</time></trkpt><trkpt lat="45.58558308682902" lon="11.18895818226036"><ele>764.0</ele><time>2026-04-25T11:10:50.965Z</time></trkpt><trkpt lat="45.58552117324994" lon="11.188935148923363"><ele>764.0</ele><time>2026-04-25T11:10:56.965Z</time></trkpt><trkpt lat="45.58543925176179" lon="11.18884631528041"><ele>764.0</ele><time>2026-04-25T11:11:05.965Z</time></trkpt><trkpt lat="45.58536185035762" lon="11.188788626804525"><ele>764.0</ele><time>2026-04-25T11:11:07.965Z</time></trkpt><trkpt lat="45.58529881114144" lon="11.188796001935035"><ele>761.5</ele><time>2026-04-25T11:11:09.965Z</time></trkpt><trkpt lat="45.5852102803701" lon="11.188757773818239"><ele>759.0</ele><time>2026-04-25T11:11:12.965Z</time></trkpt><trkpt lat="45.58515023324937" lon="11.188697943733072"><ele>756.5</ele><time>2026-04-25T11:11:14.965Z</time></trkpt><trkpt lat="45.58509299365367" lon="11.188621691873283"><ele>754.0</ele><time>2026-04-25T11:11:16.965Z</time></trkpt><trkpt lat="45.585057139525844" lon="11.188517031952516"><ele>751.5</ele><time>2026-04-25T11:11:18.965Z</time></trkpt><trkpt lat="45.58499859955296" lon="11.188436192651746"><ele>749.0</ele><time>2026-04-25T11:11:20.965Z</time></trkpt><trkpt lat="45.58497496568977" lon="11.18834685390993"><ele>749.0</ele><time>2026-04-25T11:11:22.965Z</time></trkpt><trkpt lat="45.584940116141325" lon="11.188253772505083"><ele>749.0</ele><time>2026-04-25T11:11:25.965Z</time></trkpt><trkpt lat="45.584953051477" lon="11.188140851089186"><ele>749.0</ele><time>2026-04-25T11:11:29.965Z</time></trkpt><trkpt lat="45.58496356607295" lon="11.188048108459228"><ele>749.0</ele><time>2026-04-25T11:11:31.965Z</time></trkpt><trkpt lat="45.5849667071162" lon="11.18794198306813"><ele>749.0</ele><time>2026-04-25T11:11:32.965Z</time></trkpt><trkpt lat="45.584941441772806" lon="11.187840789254784"><ele>749.0</ele><time>2026-04-25T11:11:35.965Z</time></trkpt><trkpt lat="45.58491532850869" lon="11.187721303977767"><ele>751.0</ele><time>2026-04-25T11:11:38.965Z</time></trkpt><trkpt lat="45.58488283773798" lon="11.187627978645747"><ele>753.0</ele><time>2026-04-25T11:11:40.966Z</time></trkpt><trkpt lat="45.584863055562174" lon="11.187537307488961"><ele>755.0</ele><time>2026-04-25T11:11:42.965Z</time></trkpt><trkpt lat="45.58483377389372" lon="11.187448219481226"><ele>757.0</ele><time>2026-04-25T11:11:47.965Z</time></trkpt><trkpt lat="45.58481406072399" lon="11.187347493446318"><ele>759.0</ele><time>2026-04-25T11:11:50.966Z</time></trkpt><trkpt lat="45.58482239762449" lon="11.18723873520825"><ele>761.0</ele><time>2026-04-25T11:11:52.965Z</time></trkpt><trkpt lat="45.58484324730513" lon="11.187046268135003"><ele>763.0</ele><time>2026-04-25T11:11:54.965Z</time></trkpt><trkpt lat="45.58485889168438" lon="11.186929380233563"><ele>765.0</ele><time>2026-04-25T11:11:55.965Z</time></trkpt><trkpt lat="45.58488077612323" lon="11.186840848227417"><ele>767.0</ele><time>2026-04-25T11:11:56.965Z</time></trkpt><trkpt lat="45.58489428751469" lon="11.186752338474946"><ele>769.0</ele><time>2026-04-25T11:11:58.965Z</time></trkpt><trkpt lat="45.58483917847158" lon="11.186693984904352"><ele>771.0000000000001</ele><time>2026-04-25T11:12:02.965Z</time></trkpt><trkpt lat="45.58475067378248" lon="11.186605069782596"><ele>773.0</ele><time>2026-04-25T11:12:04.965Z</time></trkpt><trkpt lat="45.58462850758942" lon="11.186599046499916"><ele>773.0000000000001</ele><time>2026-04-25T11:12:06.965Z</time></trkpt><trkpt lat="45.58455670112493" lon="11.186599486776954"><ele>773.0</ele><time>2026-04-25T11:12:08.965Z</time></trkpt><trkpt lat="45.58447625482056" lon="11.186590849459543"><ele>773.0</ele><time>2026-04-25T11:12:10.965Z</time></trkpt><trkpt lat="45.58443076453009" lon="11.186523220920472"><ele>773.0</ele><time>2026-04-25T11:12:12.965Z</time></trkpt><trkpt lat="45.58432551923036" lon="11.186501069808633"><ele>773.0000000000001</ele><time>2026-04-25T11:12:15.965Z</time></trkpt><trkpt lat="45.58428050573693" lon="11.186610088496586"><ele>773.0</ele><time>2026-04-25T11:12:16.965Z</time></trkpt><trkpt lat="45.584231393295404" lon="11.186718764782473"><ele>773.1666666666667</ele><time>2026-04-25T11:12:17.965Z</time></trkpt><trkpt lat="45.58418790923862" lon="11.18684717792818"><ele>773.3333333333334</ele><time>2026-04-25T11:12:18.965Z</time></trkpt><trkpt lat="45.584133779157845" lon="11.186932668913315"><ele>773.5</ele><time>2026-04-25T11:12:19.965Z</time></trkpt><trkpt lat="45.58408741647059" lon="11.18701900308539"><ele>773.6666666666667</ele><time>2026-04-25T11:12:20.965Z</time></trkpt><trkpt lat="45.58403340024004" lon="11.187140589372847"><ele>773.8333333333334</ele><time>2026-04-25T11:12:22.965Z</time></trkpt><trkpt lat="45.58399855968227" lon="11.18724962210605"><ele>774.0</ele><time>2026-04-25T11:12:25.965Z</time></trkpt><trkpt lat="45.58392053059489" lon="11.187392382830108"><ele>774.0</ele><time>2026-04-25T11:12:27.965Z</time></trkpt><trkpt lat="45.58387123139651" lon="11.187497989582175"><ele>774.0</ele><time>2026-04-25T11:12:29.965Z</time></trkpt><trkpt lat="45.58387158895041" lon="11.187380860142234"><ele>774.0</ele><time>2026-04-25T11:12:34.965Z</time></trkpt><trkpt lat="45.58388687059605" lon="11.187257698670503"><ele>774.0</ele><time>2026-04-25T11:12:36.965Z</time></trkpt><trkpt lat="45.58387066268338" lon="11.187148459100133"><ele>774.0</ele><time>2026-04-25T11:12:37.965Z</time></trkpt><trkpt lat="45.58384831390291" lon="11.187025827787432"><ele>774.0</ele><time>2026-04-25T11:12:38.965Z</time></trkpt><trkpt lat="45.583840025799496" lon="11.18686962133561"><ele>774.0</ele><time>2026-04-25T11:12:39.965Z</time></trkpt><trkpt lat="45.58384019535459" lon="11.186748675554613"><ele>774.0</ele><time>2026-04-25T11:12:40.965Z</time></trkpt><trkpt lat="45.583816267566284" lon="11.18662272270045"><ele>774.0</ele><time>2026-04-25T11:12:41.965Z</time></trkpt><trkpt lat="45.58378237620775" lon="11.186525601567856"><ele>774.0</ele><time>2026-04-25T11:12:42.965Z</time></trkpt><trkpt lat="45.583727634406515" lon="11.186446488435735"><ele>774.0</ele><time>2026-04-25T11:12:43.965Z</time></trkpt><trkpt lat="45.583679898558195" lon="11.186371255424783"><ele>774.0</ele><time>2026-04-25T11:12:44.965Z</time></trkpt><trkpt lat="45.58362151703676" lon="11.186268618895284"><ele>778.3333333333334</ele><time>2026-04-25T11:12:45.965Z</time></trkpt><trkpt lat="45.583584105349004" lon="11.18617614992567"><ele>782.6666666666667</ele><time>2026-04-25T11:12:46.965Z</time></trkpt><trkpt lat="45.58359284292293" lon="11.186073887292078"><ele>787.0</ele><time>2026-04-25T11:12:49.965Z</time></trkpt><trkpt lat="45.583567875274454" lon="11.185986131792903"><ele>791.3333333333334</ele><time>2026-04-25T11:12:51.965Z</time></trkpt><trkpt lat="45.58350008411914" lon="11.185889788616487"><ele>795.6666666666667</ele><time>2026-04-25T11:12:53.965Z</time></trkpt><trkpt lat="45.58342207809048" lon="11.185917453179032"><ele>800.0</ele><time>2026-04-25T11:12:56.965Z</time></trkpt><trkpt lat="45.5833550928084" lon="11.185855924918428"><ele>800.0</ele><time>2026-04-25T11:12:58.965Z</time></trkpt><trkpt lat="45.58337794514562" lon="11.185753097877434"><ele>800.0</ele><time>2026-04-25T11:13:01.964Z</time></trkpt><trkpt lat="45.583385322736106" lon="11.18557044935048"><ele>800.0</ele><time>2026-04-25T11:13:03.964Z</time></trkpt><trkpt lat="45.5834001258102" lon="11.185361137281781"><ele>800.0</ele><time>2026-04-25T11:13:05.964Z</time></trkpt><trkpt lat="45.5834076452368" lon="11.185239749396548"><ele>800.0</ele><time>2026-04-25T11:13:06.964Z</time></trkpt><trkpt lat="45.5834192861816" lon="11.185095480275345"><ele>802.8333333333334</ele><time>2026-04-25T11:13:07.964Z</time></trkpt><trkpt lat="45.583440096974414" lon="11.184972904074051"><ele>805.6666666666667</ele><time>2026-04-25T11:13:08.964Z</time></trkpt><trkpt lat="45.583459674416396" lon="11.184863441718703"><ele>808.5</ele><time>2026-04-25T11:13:09.964Z</time></trkpt><trkpt lat="45.58349036530358" lon="11.184708818252584"><ele>811.3333333333333</ele><time>2026-04-25T11:13:11.964Z</time></trkpt><trkpt lat="45.58348776970754" lon="11.18458950044432"><ele>814.1666666666666</ele><time>2026-04-25T11:13:14.964Z</time></trkpt><trkpt lat="45.58343144603575" lon="11.184539587011358"><ele>817.0</ele><time>2026-04-25T11:13:17.964Z</time></trkpt><trkpt lat="45.5833988021902" lon="11.184440514632623"><ele>817.9999999999999</ele><time>2026-04-25T11:13:26.964Z</time></trkpt><trkpt lat="45.58336034436188" lon="11.184343189434122"><ele>819.0</ele><time>2026-04-25T11:13:30.964Z</time></trkpt><trkpt lat="45.58336244365828" lon="11.184205271483176"><ele>820.0</ele><time>2026-04-25T11:13:32.964Z</time></trkpt><trkpt lat="45.583378724337976" lon="11.184109465453602"><ele>821.0</ele><time>2026-04-25T11:13:34.964Z</time></trkpt><trkpt lat="45.58339010784715" lon="11.1840073213078"><ele>821.9999999999999</ele><time>2026-04-25T11:13:36.964Z</time></trkpt><trkpt lat="45.5833907195783" lon="11.183910902128854"><ele>823.0</ele><time>2026-04-25T11:13:37.964Z</time></trkpt><trkpt lat="45.58330609519148" lon="11.183861215007532"><ele>824.8</ele><time>2026-04-25T11:13:40.964Z</time></trkpt><trkpt lat="45.58323972655913" lon="11.183805874935468"><ele>826.5999999999999</ele><time>2026-04-25T11:13:42.964Z</time></trkpt><trkpt lat="45.5831787930492" lon="11.183720271913254"><ele>828.4000000000001</ele><time>2026-04-25T11:13:44.964Z</time></trkpt><trkpt lat="45.58314969141341" lon="11.18357758833141"><ele>830.2</ele><time>2026-04-25T11:13:46.965Z</time></trkpt><trkpt lat="45.583090140273235" lon="11.183457162360764"><ele>832.0</ele><time>2026-04-25T11:13:47.965Z</time></trkpt><trkpt lat="45.58298528922579" lon="11.183359269183411"><ele>832.0</ele><time>2026-04-25T11:13:48.965Z</time></trkpt><trkpt lat="45.582887036085964" lon="11.183276550287427"><ele>832.0</ele><time>2026-04-25T11:13:49.965Z</time></trkpt><trkpt lat="45.58283641895917" lon="11.183203587029897"><ele>832.0</ele><time>2026-04-25T11:13:50.965Z</time></trkpt><trkpt lat="45.58278352645551" lon="11.183118397257063"><ele>832.0</ele><time>2026-04-25T11:13:51.964Z</time></trkpt><trkpt lat="45.58271412182487" lon="11.183002682195005"><ele>832.0</ele><time>2026-04-25T11:13:52.964Z</time></trkpt><trkpt lat="45.582637256119135" lon="11.182932255971185"><ele>832.0</ele><time>2026-04-25T11:13:53.965Z</time></trkpt><trkpt lat="45.5825485658831" lon="11.182902121749898"><ele>832.0</ele><time>2026-04-25T11:13:54.964Z</time></trkpt><trkpt lat="45.582463914320755" lon="11.182876513312243"><ele>832.0</ele><time>2026-04-25T11:13:55.964Z</time></trkpt><trkpt lat="45.58239005416467" lon="11.18285751680959"><ele>832.0</ele><time>2026-04-25T11:13:56.965Z</time></trkpt><trkpt lat="45.582298605740846" lon="11.18276150294657"><ele>832.0</ele><time>2026-04-25T11:13:58.965Z</time></trkpt><trkpt lat="45.582214821854144" lon="11.182681265237218"><ele>831.9999999999999</ele><time>2026-04-25T11:13:59.965Z</time></trkpt><trkpt lat="45.58214332508648" lon="11.182588536910265"><ele>832.0</ele><time>2026-04-25T11:14:00.965Z</time></trkpt><trkpt lat="45.582087913865905" lon="11.182493411278845"><ele>832.0</ele><time>2026-04-25T11:14:01.965Z</time></trkpt><trkpt lat="45.582057656830344" lon="11.182382352384693"><ele>832.0</ele><time>2026-04-25T11:14:02.965Z</time></trkpt><trkpt lat="45.582022202626675" lon="11.182274183923004"><ele>831.9999999999999</ele><time>2026-04-25T11:14:03.965Z</time></trkpt><trkpt lat="45.581996173230024" lon="11.182177258739154"><ele>832.0</ele><time>2026-04-25T11:14:04.965Z</time></trkpt><trkpt lat="45.581962711506" lon="11.182001119716423"><ele>830.8</ele><time>2026-04-25T11:14:06.965Z</time></trkpt><trkpt lat="45.581918905324365" lon="11.181885711272443"><ele>829.6</ele><time>2026-04-25T11:14:09.965Z</time></trkpt><trkpt lat="45.58181799997804" lon="11.18172911483513"><ele>828.4</ele><time>2026-04-25T11:14:11.965Z</time></trkpt><trkpt lat="45.58171933940377" lon="11.181676203723963"><ele>827.1999999999999</ele><time>2026-04-25T11:14:12.965Z</time></trkpt><trkpt lat="45.58163209920735" lon="11.181618113960575"><ele>826.0</ele><time>2026-04-25T11:14:13.965Z</time></trkpt><trkpt lat="45.581551744634524" lon="11.181565734509185"><ele>825.9999999999999</ele><time>2026-04-25T11:14:14.965Z</time></trkpt><trkpt lat="45.58147592643615" lon="11.181524141537462"><ele>826.0</ele><time>2026-04-25T11:14:15.965Z</time></trkpt><trkpt lat="45.5813970016407" lon="11.181484544846828"><ele>826.0</ele><time>2026-04-25T11:14:16.964Z</time></trkpt><trkpt lat="45.5813216902497" lon="11.181433733996665"><ele>826.0</ele><time>2026-04-25T11:14:17.964Z</time></trkpt><trkpt lat="45.58124862741697" lon="11.18136997620607"><ele>825.9999999999999</ele><time>2026-04-25T11:14:18.964Z</time></trkpt><trkpt lat="45.581173483474785" lon="11.181311741848921"><ele>826.0</ele><time>2026-04-25T11:14:19.964Z</time></trkpt><trkpt lat="45.58110477881898" lon="11.181265708271901"><ele>825.1999999999999</ele><time>2026-04-25T11:14:20.964Z</time></trkpt><trkpt lat="45.58104409471661" lon="11.18124076837764"><ele>824.4</ele><time>2026-04-25T11:14:21.964Z</time></trkpt><trkpt lat="45.58098221625231" lon="11.181178841510459"><ele>823.6</ele><time>2026-04-25T11:14:22.964Z</time></trkpt><trkpt lat="45.58091774298357" lon="11.18107636117734"><ele>822.8</ele><time>2026-04-25T11:14:23.964Z</time></trkpt><trkpt lat="45.58082995255891" lon="11.180956061512761"><ele>822.0</ele><time>2026-04-25T11:14:24.964Z</time></trkpt><trkpt lat="45.580760883404416" lon="11.180857247715618"><ele>822.0</ele><time>2026-04-25T11:14:25.964Z</time></trkpt><trkpt lat="45.58069437641432" lon="11.180779443327301"><ele>822.0</ele><time>2026-04-25T11:14:26.964Z</time></trkpt><trkpt lat="45.58064579587683" lon="11.180678770473387"><ele>822.0</ele><time>2026-04-25T11:14:29.964Z</time></trkpt><trkpt lat="45.580600567817775" lon="11.180590059959675"><ele>822.0</ele><time>2026-04-25T11:14:31.964Z</time></trkpt><trkpt lat="45.58055512405869" lon="11.180520381328536"><ele>822.0</ele><time>2026-04-25T11:14:32.964Z</time></trkpt><trkpt lat="45.580462959903215" lon="11.180439127409864"><ele>822.0</ele><time>2026-04-25T11:14:33.964Z</time></trkpt><trkpt lat="45.58040234562151" lon="11.180361120584166"><ele>821.2</ele><time>2026-04-25T11:14:34.964Z</time></trkpt><trkpt lat="45.580336512428985" lon="11.180251152336242"><ele>820.4000000000001</ele><time>2026-04-25T11:14:35.964Z</time></trkpt><trkpt lat="45.58029155837378" lon="11.180125227614049"><ele>819.5999999999999</ele><time>2026-04-25T11:14:36.964Z</time></trkpt><trkpt lat="45.580228205987936" lon="11.180021253571997"><ele>818.8</ele><time>2026-04-25T11:14:37.964Z</time></trkpt><trkpt lat="45.58016724340605" lon="11.179949659735584"><ele>818.0</ele><time>2026-04-25T11:14:38.964Z</time></trkpt><trkpt lat="45.58009273905956" lon="11.179876083864855"><ele>814.0</ele><time>2026-04-25T11:14:39.964Z</time></trkpt><trkpt lat="45.580012709651456" lon="11.179749200520408"><ele>810.0</ele><time>2026-04-25T11:14:40.964Z</time></trkpt><trkpt lat="45.57998933457489" lon="11.179602813828579"><ele>806.0</ele><time>2026-04-25T11:14:41.964Z</time></trkpt><trkpt lat="45.579959022815444" lon="11.179392010923895"><ele>802.0</ele><time>2026-04-25T11:14:42.964Z</time></trkpt><trkpt lat="45.579906063115416" lon="11.179181924078351"><ele>800.75</ele><time>2026-04-25T11:14:43.964Z</time></trkpt><trkpt lat="45.5799028813616" lon="11.179005996429776"><ele>799.5</ele><time>2026-04-25T11:14:44.964Z</time></trkpt><trkpt lat="45.57989978910262" lon="11.178809247264939"><ele>798.25</ele><time>2026-04-25T11:14:45.964Z</time></trkpt><trkpt lat="45.579888827627094" lon="11.178599141368375"><ele>797.0</ele><time>2026-04-25T11:14:46.964Z</time></trkpt><trkpt lat="45.579868900326915" lon="11.17835479101186"><ele>797.0</ele><time>2026-04-25T11:14:47.964Z</time></trkpt><trkpt lat="45.57986171907462" lon="11.178141774196385"><ele>797.0</ele><time>2026-04-25T11:14:48.964Z</time></trkpt><trkpt lat="45.57984068967415" lon="11.177956160752041"><ele>797.0</ele><time>2026-04-25T11:14:49.964Z</time></trkpt><trkpt lat="45.579812166868" lon="11.177799076519442"><ele>797.0</ele><time>2026-04-25T11:14:50.964Z</time></trkpt><trkpt lat="45.579779749900226" lon="11.177645538934762"><ele>797.0</ele><time>2026-04-25T11:14:51.964Z</time></trkpt><trkpt lat="45.579741301489626" lon="11.177503491214502"><ele>797.0</ele><time>2026-04-25T11:14:52.964Z</time></trkpt><trkpt lat="45.57969005842347" lon="11.177368374786758"><ele>797.0</ele><time>2026-04-25T11:14:53.964Z</time></trkpt><trkpt lat="45.579630474673074" lon="11.17725482198007"><ele>797.0</ele><time>2026-04-25T11:14:54.964Z</time></trkpt><trkpt lat="45.57957687148733" lon="11.17714944534447"><ele>797.0</ele><time>2026-04-25T11:14:55.964Z</time></trkpt><trkpt lat="45.579523116150604" lon="11.177061105290347"><ele>800.0</ele><time>2026-04-25T11:14:56.964Z</time></trkpt><trkpt lat="45.57945968572125" lon="11.176967437420984"><ele>803.0</ele><time>2026-04-25T11:14:57.964Z</time></trkpt><trkpt lat="45.57938044503305" lon="11.176890339843547"><ele>806.0</ele><time>2026-04-25T11:14:58.964Z</time></trkpt><trkpt lat="45.5792781838957" lon="11.176831025333678"><ele>809.0</ele><time>2026-04-25T11:14:59.964Z</time></trkpt><trkpt lat="45.579203232431595" lon="11.176752766239803"><ele>812.0</ele><time>2026-04-25T11:15:00.964Z</time></trkpt><trkpt lat="45.57913269394626" lon="11.176650739878077"><ele>812.0</ele><time>2026-04-25T11:15:01.964Z</time></trkpt><trkpt lat="45.57905704691393" lon="11.176524613784302"><ele>812.0</ele><time>2026-04-25T11:15:02.964Z</time></trkpt><trkpt lat="45.578992781824695" lon="11.176370870874896"><ele>812.0</ele><time>2026-04-25T11:15:03.964Z</time></trkpt><trkpt lat="45.57894350336495" lon="11.176238164846138"><ele>812.0</ele><time>2026-04-25T11:15:04.964Z</time></trkpt><trkpt lat="45.57888949855416" lon="11.176123500067106"><ele>812.0</ele><time>2026-04-25T11:15:05.964Z</time></trkpt><trkpt lat="45.57885759688344" lon="11.176032635634801"><ele>810.4000000000001</ele><time>2026-04-25T11:15:06.964Z</time></trkpt><trkpt lat="45.57877013489113" lon="11.17599653873145"><ele>808.8000000000001</ele><time>2026-04-25T11:15:09.964Z</time></trkpt><trkpt lat="45.5786896119458" lon="11.176031245971963"><ele>807.2</ele><time>2026-04-25T11:15:11.964Z</time></trkpt><trkpt lat="45.57863175779615" lon="11.176117404185835"><ele>805.6</ele><time>2026-04-25T11:15:18.964Z</time></trkpt><trkpt lat="45.57857796933253" lon="11.176183191171294"><ele>804.0</ele><time>2026-04-25T11:15:19.964Z</time></trkpt><trkpt lat="45.57847324281515" lon="11.176330172024397"><ele>804.0</ele><time>2026-04-25T11:15:21.964Z</time></trkpt><trkpt lat="45.57843368871676" lon="11.176409197738934"><ele>804.0</ele><time>2026-04-25T11:15:22.964Z</time></trkpt><trkpt lat="45.578417536679176" lon="11.176521849760665"><ele>804.0</ele><time>2026-04-25T11:15:23.964Z</time></trkpt><trkpt lat="45.57841837025838" lon="11.17667312426736"><ele>804.0</ele><time>2026-04-25T11:15:24.964Z</time></trkpt><trkpt lat="45.578444644559816" lon="11.1768464552034"><ele>804.0</ele><time>2026-04-25T11:15:25.964Z</time></trkpt><trkpt lat="45.57846351384339" lon="11.177008481660794"><ele>805.0</ele><time>2026-04-25T11:15:26.964Z</time></trkpt><trkpt lat="45.578450485847846" lon="11.177141418438433"><ele>806.0</ele><time>2026-04-25T11:15:27.964Z</time></trkpt><trkpt lat="45.578432627181094" lon="11.177279085024765"><ele>807.0</ele><time>2026-04-25T11:15:28.964Z</time></trkpt><trkpt lat="45.57840076055264" lon="11.177422105918867"><ele>808.0</ele><time>2026-04-25T11:15:29.964Z</time></trkpt><trkpt lat="45.578361254705634" lon="11.177600760303028"><ele>809.0</ele><time>2026-04-25T11:15:30.964Z</time></trkpt><trkpt lat="45.57831926193231" lon="11.17779335147728"><ele>809.0</ele><time>2026-04-25T11:15:31.964Z</time></trkpt><trkpt lat="45.578289537731145" lon="11.177966595527515"><ele>809.0</ele><time>2026-04-25T11:15:32.964Z</time></trkpt><trkpt lat="45.578263628135545" lon="11.178101768830347"><ele>809.0</ele><time>2026-04-25T11:15:33.964Z</time></trkpt><trkpt lat="45.57820532130046" lon="11.178201492076667"><ele>809.0</ele><time>2026-04-25T11:15:34.964Z</time></trkpt><trkpt lat="45.578147322096264" lon="11.178313341010112"><ele>809.0</ele><time>2026-04-25T11:15:35.964Z</time></trkpt><trkpt lat="45.57810139727099" lon="11.178421938110121"><ele>810.6</ele><time>2026-04-25T11:15:36.964Z</time></trkpt><trkpt lat="45.57809652304597" lon="11.178594599276476"><ele>812.2</ele><time>2026-04-25T11:15:37.964Z</time></trkpt><trkpt lat="45.578075663770726" lon="11.17877247300145"><ele>813.8000000000001</ele><time>2026-04-25T11:15:38.964Z</time></trkpt><trkpt lat="45.57803798640666" lon="11.178912443766649"><ele>815.4000000000001</ele><time>2026-04-25T11:15:39.964Z</time></trkpt><trkpt lat="45.577991822582874" lon="11.178980419106905"><ele>817.0</ele><time>2026-04-25T11:15:40.964Z</time></trkpt><trkpt lat="45.57791107755313" lon="11.178966628648396"><ele>814.8</ele><time>2026-04-25T11:15:41.964Z</time></trkpt><trkpt lat="45.57784203184936" lon="11.178968067995124"><ele>812.6</ele><time>2026-04-25T11:15:42.964Z</time></trkpt><trkpt lat="45.57774546243935" lon="11.178982543231923"><ele>810.4</ele><time>2026-04-25T11:15:43.964Z</time></trkpt><trkpt lat="45.57764336885233" lon="11.178978891708478"><ele>808.1999999999999</ele><time>2026-04-25T11:15:44.964Z</time></trkpt><trkpt lat="45.577522833931816" lon="11.179018250169968"><ele>806.0</ele><time>2026-04-25T11:15:45.964Z</time></trkpt><trkpt lat="45.577412940086816" lon="11.179066145232646"><ele>806.0</ele><time>2026-04-25T11:15:46.964Z</time></trkpt><trkpt lat="45.57728125402093" lon="11.179161966827353"><ele>806.0</ele><time>2026-04-25T11:15:47.964Z</time></trkpt><trkpt lat="45.57713693842154" lon="11.179269402032467"><ele>806.0</ele><time>2026-04-25T11:15:48.964Z</time></trkpt><trkpt lat="45.57701047365607" lon="11.179356700212335"><ele>807.1999999999999</ele><time>2026-04-25T11:15:49.964Z</time></trkpt><trkpt lat="45.57690639238666" lon="11.179419948539321"><ele>808.4</ele><time>2026-04-25T11:15:50.965Z</time></trkpt><trkpt lat="45.57682118284258" lon="11.17942683992243"><ele>809.6</ele><time>2026-04-25T11:15:51.964Z</time></trkpt><trkpt lat="45.57673556716708" lon="11.179529175450796"><ele>810.8</ele><time>2026-04-25T11:15:53.964Z</time></trkpt><trkpt lat="45.57671121521295" lon="11.179682519648791"><ele>812.0</ele><time>2026-04-25T11:15:54.964Z</time></trkpt><trkpt lat="45.576691970826225" lon="11.17987275136649"><ele>812.0</ele><time>2026-04-25T11:15:55.964Z</time></trkpt><trkpt lat="45.57667052939065" lon="11.180042326928394"><ele>812.0</ele><time>2026-04-25T11:15:56.965Z</time></trkpt><trkpt lat="45.57661486248042" lon="11.180188813533299"><ele>812.0</ele><time>2026-04-25T11:15:57.964Z</time></trkpt><trkpt lat="45.576557219781456" lon="11.180288603164406"><ele>812.0</ele><time>2026-04-25T11:15:59.965Z</time></trkpt><trkpt lat="45.576505594223065" lon="11.180232143792521"><ele>812.0</ele><time>2026-04-25T11:16:00.965Z</time></trkpt><trkpt lat="45.57643395140324" lon="11.180182789322942"><ele>812.0</ele><time>2026-04-25T11:16:02.964Z</time></trkpt><trkpt lat="45.57635060308596" lon="11.180219656682194"><ele>812.0</ele><time>2026-04-25T11:16:03.964Z</time></trkpt><trkpt lat="45.57625248709277" lon="11.180274219705819"><ele>812.0</ele><time>2026-04-25T11:16:04.964Z</time></trkpt><trkpt lat="45.57612783261349" lon="11.180326894254272"><ele>812.0</ele><time>2026-04-25T11:16:05.964Z</time></trkpt><trkpt lat="45.57602370573727" lon="11.180365636023382"><ele>812.0</ele><time>2026-04-25T11:16:06.964Z</time></trkpt><trkpt lat="45.575930831708625" lon="11.180402988068291"><ele>811.2</ele><time>2026-04-25T11:16:07.964Z</time></trkpt><trkpt lat="45.57586757155771" lon="11.180417244276326"><ele>810.4000000000001</ele><time>2026-04-25T11:16:08.964Z</time></trkpt><trkpt lat="45.57575525460333" lon="11.180526848108942"><ele>809.5999999999999</ele><time>2026-04-25T11:16:10.964Z</time></trkpt><trkpt lat="45.57573126603532" lon="11.18062922991637"><ele>808.8</ele><time>2026-04-25T11:16:11.964Z</time></trkpt><trkpt lat="45.57573429756552" lon="11.180756409441265"><ele>808.0</ele><time>2026-04-25T11:16:12.964Z</time></trkpt><trkpt lat="45.57575244328559" lon="11.180875471956009"><ele>807.9999999999999</ele><time>2026-04-25T11:16:13.964Z</time></trkpt><trkpt lat="45.57576021638601" lon="11.18100949015219"><ele>808.0</ele><time>2026-04-25T11:16:14.964Z</time></trkpt><trkpt lat="45.57575735724022" lon="11.181129916607071"><ele>808.0</ele><time>2026-04-25T11:16:15.964Z</time></trkpt><trkpt lat="45.57572379320786" lon="11.181237342998573"><ele>808.0</ele><time>2026-04-25T11:16:16.964Z</time></trkpt><trkpt lat="45.57568027996694" lon="11.181336015972711"><ele>807.9999999999999</ele><time>2026-04-25T11:16:17.964Z</time></trkpt><trkpt lat="45.575627416648075" lon="11.18142355681484"><ele>808.0</ele><time>2026-04-25T11:16:18.964Z</time></trkpt><trkpt lat="45.57558439738932" lon="11.18152150717073"><ele>808.2</ele><time>2026-04-25T11:16:19.964Z</time></trkpt><trkpt lat="45.57555366567327" lon="11.181638635791662"><ele>808.4</ele><time>2026-04-25T11:16:20.964Z</time></trkpt><trkpt lat="45.57549157153257" lon="11.181730530580701"><ele>808.6</ele><time>2026-04-25T11:16:21.964Z</time></trkpt><trkpt lat="45.57541321244371" lon="11.181826585865007"><ele>808.8000000000001</ele><time>2026-04-25T11:16:22.964Z</time></trkpt><trkpt lat="45.57533771910799" lon="11.181939240083146"><ele>809.0</ele><time>2026-04-25T11:16:23.964Z</time></trkpt><trkpt lat="45.57523327308857" lon="11.182055426309931"><ele>806.25</ele><time>2026-04-25T11:16:24.964Z</time></trkpt><trkpt lat="45.575133644699704" lon="11.182163109680804"><ele>803.5</ele><time>2026-04-25T11:16:25.964Z</time></trkpt><trkpt lat="45.575037667289266" lon="11.182253576455869"><ele>800.75</ele><time>2026-04-25T11:16:26.964Z</time></trkpt><trkpt lat="45.574939248101735" lon="11.182338722339457"><ele>798.0</ele><time>2026-04-25T11:16:27.964Z</time></trkpt><trkpt lat="45.57482480323443" lon="11.18240827289627"><ele>798.0</ele><time>2026-04-25T11:16:28.964Z</time></trkpt><trkpt lat="45.57469250740399" lon="11.182439812881848"><ele>798.0</ele><time>2026-04-25T11:16:29.964Z</time></trkpt><trkpt lat="45.574559511173554" lon="11.182446665269985"><ele>798.0</ele><time>2026-04-25T11:16:30.964Z</time></trkpt><trkpt lat="45.57440020849672" lon="11.182440129845917"><ele>798.0</ele><time>2026-04-25T11:16:31.964Z</time></trkpt><trkpt lat="45.57424525815033" lon="11.182434228407205"><ele>797.6666666666667</ele><time>2026-04-25T11:16:32.964Z</time></trkpt><trkpt lat="45.574076869309195" lon="11.182430175871026"><ele>797.3333333333334</ele><time>2026-04-25T11:16:33.964Z</time></trkpt><trkpt lat="45.573919869750235" lon="11.182425543042399"><ele>797.0</ele><time>2026-04-25T11:16:34.964Z</time></trkpt><trkpt lat="45.57377034998947" lon="11.182404896903467"><ele>797.25</ele><time>2026-04-25T11:16:35.964Z</time></trkpt><trkpt lat="45.573638448571494" lon="11.182372100377597"><ele>797.5</ele><time>2026-04-25T11:16:36.964Z</time></trkpt><trkpt lat="45.57350779659668" lon="11.182348599901628"><ele>797.75</ele><time>2026-04-25T11:16:37.963Z</time></trkpt><trkpt lat="45.57337121738402" lon="11.182289900825545"><ele>798.0</ele><time>2026-04-25T11:16:38.963Z</time></trkpt><trkpt lat="45.573241084466446" lon="11.182243246712986"><ele>799.0</ele><time>2026-04-25T11:16:39.963Z</time></trkpt><trkpt lat="45.57311579774673" lon="11.182223711150142"><ele>800.0</ele><time>2026-04-25T11:16:40.963Z</time></trkpt><trkpt lat="45.57298757947354" lon="11.182214225558536"><ele>801.0</ele><time>2026-04-25T11:16:41.963Z</time></trkpt><trkpt lat="45.57286364142891" lon="11.182225723720357"><ele>802.0</ele><time>2026-04-25T11:16:42.963Z</time></trkpt><trkpt lat="45.57274488148914" lon="11.182256337241643"><ele>802.0</ele><time>2026-04-25T11:16:43.963Z</time></trkpt><trkpt lat="45.57262073466747" lon="11.18227844817235"><ele>802.0</ele><time>2026-04-25T11:16:44.963Z</time></trkpt><trkpt lat="45.57249290415497" lon="11.18232226045708"><ele>802.0</ele><time>2026-04-25T11:16:45.963Z</time></trkpt><trkpt lat="45.572379372533106" lon="11.182341280862444"><ele>802.0</ele><time>2026-04-25T11:16:46.963Z</time></trkpt><trkpt lat="45.572285001747815" lon="11.182364375014906"><ele>802.0</ele><time>2026-04-25T11:16:47.963Z</time></trkpt><trkpt lat="45.57221205467041" lon="11.18239768489388"><ele>802.0</ele><time>2026-04-25T11:16:48.963Z</time></trkpt><trkpt lat="45.57213381053245" lon="11.182542096243392"><ele>802.0</ele><time>2026-04-25T11:16:50.963Z</time></trkpt><trkpt lat="45.572101926053044" lon="11.18265380274488"><ele>802.0</ele><time>2026-04-25T11:16:51.963Z</time></trkpt><trkpt lat="45.57208538185997" lon="11.182797834422283"><ele>802.0</ele><time>2026-04-25T11:16:52.963Z</time></trkpt><trkpt lat="45.57207994980829" lon="11.182959698144005"><ele>802.0</ele><time>2026-04-25T11:16:53.963Z</time></trkpt><trkpt lat="45.57207629861604" lon="11.183134303447172"><ele>802.0</ele><time>2026-04-25T11:16:54.963Z</time></trkpt><trkpt lat="45.57206205935056" lon="11.183289926044703"><ele>802.0</ele><time>2026-04-25T11:16:55.963Z</time></trkpt><trkpt lat="45.57203884056352" lon="11.183430110758282"><ele>802.0</ele><time>2026-04-25T11:16:56.963Z</time></trkpt><trkpt lat="45.571999517177595" lon="11.183566876839702"><ele>802.0</ele><time>2026-04-25T11:16:57.963Z</time></trkpt><trkpt lat="45.57192965291898" lon="11.183684626059161"><ele>804.2</ele><time>2026-04-25T11:16:58.963Z</time></trkpt><trkpt lat="45.57186263844497" lon="11.183815750091801"><ele>806.4000000000001</ele><time>2026-04-25T11:16:59.963Z</time></trkpt><trkpt lat="45.571816002629056" lon="11.183933212997166"><ele>808.5999999999999</ele><time>2026-04-25T11:17:00.963Z</time></trkpt><trkpt lat="45.57180377466989" lon="11.18406744856277"><ele>810.8</ele><time>2026-04-25T11:17:01.963Z</time></trkpt><trkpt lat="45.57182545561411" lon="11.184237799467535"><ele>813.0</ele><time>2026-04-25T11:17:02.963Z</time></trkpt><trkpt lat="45.5718560618701" lon="11.184394706900074"><ele>813.5999999999999</ele><time>2026-04-25T11:17:03.963Z</time></trkpt><trkpt lat="45.5718783746528" lon="11.18454739128269"><ele>814.1999999999999</ele><time>2026-04-25T11:17:04.963Z</time></trkpt><trkpt lat="45.57187510554604" lon="11.184689030787888"><ele>814.8</ele><time>2026-04-25T11:17:05.963Z</time></trkpt><trkpt lat="45.57184512082578" lon="11.18481722646548"><ele>815.4</ele><time>2026-04-25T11:17:06.963Z</time></trkpt><trkpt lat="45.57179461123341" lon="11.184943928349588"><ele>816.0</ele><time>2026-04-25T11:17:07.963Z</time></trkpt><trkpt lat="45.571730507682645" lon="11.185044485832757"><ele>814.5999999999999</ele><time>2026-04-25T11:17:08.963Z</time></trkpt><trkpt lat="45.57165164648644" lon="11.185133610846224"><ele>813.2</ele><time>2026-04-25T11:17:09.963Z</time></trkpt><trkpt lat="45.57156595730998" lon="11.185213739460044"><ele>811.8</ele><time>2026-04-25T11:17:10.963Z</time></trkpt><trkpt lat="45.571496243105095" lon="11.185292436750702"><ele>810.4000000000001</ele><time>2026-04-25T11:17:11.963Z</time></trkpt><trkpt lat="45.571442134821915" lon="11.18535759126549"><ele>809.0</ele><time>2026-04-25T11:17:12.963Z</time></trkpt><trkpt lat="45.57135820882094" lon="11.18544021792999"><ele>809.0000000000001</ele><time>2026-04-25T11:17:14.963Z</time></trkpt><trkpt lat="45.57126570280905" lon="11.185445916406442"><ele>809.0</ele><time>2026-04-25T11:17:16.963Z</time></trkpt><trkpt lat="45.57119992067417" lon="11.185416330399372"><ele>809.0</ele><time>2026-04-25T11:17:17.963Z</time></trkpt><trkpt lat="45.57112820655511" lon="11.185384377478432"><ele>809.0</ele><time>2026-04-25T11:17:18.963Z</time></trkpt><trkpt lat="45.57105087508271" lon="11.18535806049249"><ele>809.0000000000001</ele><time>2026-04-25T11:17:19.963Z</time></trkpt><trkpt lat="45.570971816771966" lon="11.185358555625456"><ele>809.0</ele><time>2026-04-25T11:17:20.963Z</time></trkpt><trkpt lat="45.57089188866228" lon="11.185374051889116"><ele>809.6666666666667</ele><time>2026-04-25T11:17:21.963Z</time></trkpt><trkpt lat="45.57081742867013" lon="11.185379822362153"><ele>810.3333333333334</ele><time>2026-04-25T11:17:22.963Z</time></trkpt><trkpt lat="45.57075593201377" lon="11.18535453596539"><ele>811.0</ele><time>2026-04-25T11:17:23.963Z</time></trkpt><trkpt lat="45.57069608194062" lon="11.185306215266111"><ele>811.6666666666667</ele><time>2026-04-25T11:17:24.963Z</time></trkpt><trkpt lat="45.570624530646754" lon="11.185250103968924"><ele>812.3333333333334</ele><time>2026-04-25T11:17:25.963Z</time></trkpt><trkpt lat="45.570539910328534" lon="11.185225568592665"><ele>813.0</ele><time>2026-04-25T11:17:26.963Z</time></trkpt><trkpt lat="45.570444659167734" lon="11.185221523384318"><ele>814.2</ele><time>2026-04-25T11:17:27.963Z</time></trkpt><trkpt lat="45.570355317077784" lon="11.185228957832463"><ele>815.4</ele><time>2026-04-25T11:17:28.963Z</time></trkpt><trkpt lat="45.57026312982145" lon="11.185259739356018"><ele>816.6</ele><time>2026-04-25T11:17:29.963Z</time></trkpt><trkpt lat="45.57015955732457" lon="11.18530459607317"><ele>817.8000000000001</ele><time>2026-04-25T11:17:30.963Z</time></trkpt><trkpt lat="45.570065495457854" lon="11.1853477636855"><ele>819.0</ele><time>2026-04-25T11:17:31.963Z</time></trkpt><trkpt lat="45.56996710926755" lon="11.185396429408428"><ele>819.0</ele><time>2026-04-25T11:17:32.963Z</time></trkpt><trkpt lat="45.569874657851194" lon="11.185435072015846"><ele>819.0</ele><time>2026-04-25T11:17:33.963Z</time></trkpt><trkpt lat="45.56979566152457" lon="11.185475849349583"><ele>819.0</ele><time>2026-04-25T11:17:34.963Z</time></trkpt><trkpt lat="45.569720735503836" lon="11.18551668613344"><ele>819.0</ele><time>2026-04-25T11:17:36.963Z</time></trkpt><trkpt lat="45.56965911042039" lon="11.185628802641792"><ele>819.0</ele><time>2026-04-25T11:17:41.963Z</time></trkpt><trkpt lat="45.569560677936174" lon="11.185727251291173"><ele>817.5</ele><time>2026-04-25T11:17:43.963Z</time></trkpt><trkpt lat="45.569502393452844" lon="11.185781708511085"><ele>816.0</ele><time>2026-04-25T11:17:44.963Z</time></trkpt><trkpt lat="45.569433779048" lon="11.185791730169745"><ele>814.5</ele><time>2026-04-25T11:17:45.963Z</time></trkpt><trkpt lat="45.56935821134135" lon="11.185797442799817"><ele>813.0</ele><time>2026-04-25T11:17:46.963Z</time></trkpt><trkpt lat="45.569267258946454" lon="11.18579653821172"><ele>811.5</ele><time>2026-04-25T11:17:47.963Z</time></trkpt><trkpt lat="45.56917278815555" lon="11.185813932252914"><ele>810.0</ele><time>2026-04-25T11:17:48.963Z</time></trkpt><trkpt lat="45.56909211987606" lon="11.185832550450053"><ele>810.0</ele><time>2026-04-25T11:17:49.963Z</time></trkpt><trkpt lat="45.569013157714025" lon="11.185853081970839"><ele>810.0</ele><time>2026-04-25T11:17:50.963Z</time></trkpt><trkpt lat="45.56890762307334" lon="11.185887772522412"><ele>810.0</ele><time>2026-04-25T11:17:52.963Z</time></trkpt><trkpt lat="45.568831438979046" lon="11.185990052556685"><ele>810.0</ele><time>2026-04-25T11:17:54.963Z</time></trkpt><trkpt lat="45.5687369006411" lon="11.186125629227648"><ele>810.0</ele><time>2026-04-25T11:17:56.964Z</time></trkpt><trkpt lat="45.5686844913886" lon="11.186190136676267"><ele>808.6</ele><time>2026-04-25T11:17:57.964Z</time></trkpt><trkpt lat="45.56861850848078" lon="11.186316513115026"><ele>807.2</ele><time>2026-04-25T11:18:00.963Z</time></trkpt><trkpt lat="45.5685517618648" lon="11.186409961600464"><ele>805.8</ele><time>2026-04-25T11:18:01.963Z</time></trkpt><trkpt lat="45.56849210648017" lon="11.186524333785469"><ele>804.4</ele><time>2026-04-25T11:18:03.964Z</time></trkpt><trkpt lat="45.56842395282034" lon="11.186621601186685"><ele>803.0</ele><time>2026-04-25T11:18:05.964Z</time></trkpt><trkpt lat="45.568370951631685" lon="11.18669285056137"><ele>803.0</ele><time>2026-04-25T11:18:06.964Z</time></trkpt><trkpt lat="45.56829334388101" lon="11.186760463046312"><ele>803.0</ele><time>2026-04-25T11:18:07.964Z</time></trkpt><trkpt lat="45.56820514086586" lon="11.186827517368435"><ele>803.0</ele><time>2026-04-25T11:18:08.964Z</time></trkpt><trkpt lat="45.5681122796909" lon="11.186887151943408"><ele>803.0</ele><time>2026-04-25T11:18:09.964Z</time></trkpt><trkpt lat="45.568021418685106" lon="11.186974068353978"><ele>803.0</ele><time>2026-04-25T11:18:10.964Z</time></trkpt><trkpt lat="45.56792036550999" lon="11.187055736631033"><ele>804.4</ele><time>2026-04-25T11:18:11.964Z</time></trkpt><trkpt lat="45.56780134491329" lon="11.187115975447206"><ele>805.8</ele><time>2026-04-25T11:18:12.964Z</time></trkpt><trkpt lat="45.56769506637136" lon="11.187168388705752"><ele>807.2</ele><time>2026-04-25T11:18:13.964Z</time></trkpt><trkpt lat="45.567595198729336" lon="11.187202090367453"><ele>808.6</ele><time>2026-04-25T11:18:14.964Z</time></trkpt><trkpt lat="45.56750422751658" lon="11.187202588243908"><ele>810.0</ele><time>2026-04-25T11:18:15.964Z</time></trkpt><trkpt lat="45.56742034386245" lon="11.187201160598539"><ele>810.0</ele><time>2026-04-25T11:18:16.964Z</time></trkpt><trkpt lat="45.56733631353113" lon="11.187144757947356"><ele>810.0</ele><time>2026-04-25T11:18:18.964Z</time></trkpt><trkpt lat="45.56721282653461" lon="11.187238965607033"><ele>810.0</ele><time>2026-04-25T11:18:20.964Z</time></trkpt><trkpt lat="45.56715825555744" lon="11.187334114202795"><ele>810.0</ele><time>2026-04-25T11:18:21.964Z</time></trkpt><trkpt lat="45.567113279112455" lon="11.187424566563408"><ele>810.0</ele><time>2026-04-25T11:18:22.964Z</time></trkpt><trkpt lat="45.56706039011791" lon="11.187518458021827"><ele>808.4</ele><time>2026-04-25T11:18:23.964Z</time></trkpt><trkpt lat="45.56700225906352" lon="11.187592512503972"><ele>806.8</ele><time>2026-04-25T11:18:24.964Z</time></trkpt><trkpt lat="45.566920344239634" lon="11.18770293734472"><ele>805.2</ele><time>2026-04-25T11:18:25.964Z</time></trkpt><trkpt lat="45.56687201201501" lon="11.187817029708745"><ele>803.6</ele><time>2026-04-25T11:18:26.964Z</time></trkpt><trkpt lat="45.56683075471955" lon="11.187939194677249"><ele>802.0</ele><time>2026-04-25T11:18:27.964Z</time></trkpt><trkpt lat="45.5668247423482" lon="11.188070974151293"><ele>799.2</ele><time>2026-04-25T11:18:28.964Z</time></trkpt><trkpt lat="45.56680334772154" lon="11.188194081470538"><ele>796.4000000000001</ele><time>2026-04-25T11:18:30.964Z</time></trkpt><trkpt lat="45.5667669168267" lon="11.188298298644348"><ele>793.5999999999999</ele><time>2026-04-25T11:18:31.964Z</time></trkpt><trkpt lat="45.56671068743975" lon="11.188395913099276"><ele>790.8</ele><time>2026-04-25T11:18:32.964Z</time></trkpt><trkpt lat="45.56665233650217" lon="11.188508804265838"><ele>788.0</ele><time>2026-04-25T11:18:33.964Z</time></trkpt><trkpt lat="45.56660233621906" lon="11.188704428030134"><ele>788.0</ele><time>2026-04-25T11:18:34.964Z</time></trkpt><trkpt lat="45.566566492965364" lon="11.18886993738918"><ele>788.0</ele><time>2026-04-25T11:18:35.964Z</time></trkpt><trkpt lat="45.56656547002535" lon="11.189074886297941"><ele>788.0</ele><time>2026-04-25T11:18:36.964Z</time></trkpt><trkpt lat="45.56656066896553" lon="11.189229693159296"><ele>788.0</ele><time>2026-04-25T11:18:37.964Z</time></trkpt><trkpt lat="45.56654687938355" lon="11.189332131249554"><ele>788.0</ele><time>2026-04-25T11:18:38.964Z</time></trkpt><trkpt lat="45.56650076787255" lon="11.189428827057204"><ele>786.3333333333334</ele><time>2026-04-25T11:18:39.964Z</time></trkpt><trkpt lat="45.56645035572844" lon="11.189537084482733"><ele>784.6666666666667</ele><time>2026-04-25T11:18:40.964Z</time></trkpt><trkpt lat="45.56639723620841" lon="11.189631505426771"><ele>783.0</ele><time>2026-04-25T11:18:41.964Z</time></trkpt><trkpt lat="45.56633898946182" lon="11.18974474928398"><ele>781.3333333333333</ele><time>2026-04-25T11:18:42.964Z</time></trkpt><trkpt lat="45.56629418903736" lon="11.189847229927372"><ele>779.6666666666666</ele><time>2026-04-25T11:18:43.964Z</time></trkpt><trkpt lat="45.5662452175359" lon="11.189932278646058"><ele>778.0</ele><time>2026-04-25T11:18:44.964Z</time></trkpt><trkpt lat="45.566205275204524" lon="11.190007346413203"><ele>777.4999999999999</ele><time>2026-04-25T11:18:45.964Z</time></trkpt><trkpt lat="45.56615250064166" lon="11.190064155026247"><ele>777.0</ele><time>2026-04-25T11:18:48.964Z</time></trkpt><trkpt lat="45.566129074556684" lon="11.18996232118374"><ele>776.5</ele><time>2026-04-25T11:18:50.964Z</time></trkpt><trkpt lat="45.56608509007991" lon="11.18986447998818"><ele>776.0</ele><time>2026-04-25T11:18:51.964Z</time></trkpt><trkpt lat="45.56601726355288" lon="11.189735850708674"><ele>775.4999999999999</ele><time>2026-04-25T11:18:52.964Z</time></trkpt><trkpt lat="45.565939965981904" lon="11.189625425549222"><ele>775.0</ele><time>2026-04-25T11:18:53.964Z</time></trkpt><trkpt lat="45.56586411643039" lon="11.189522144108864"><ele>778.5</ele><time>2026-04-25T11:18:54.964Z</time></trkpt><trkpt lat="45.56577331039864" lon="11.18941911204648"><ele>782.0</ele><time>2026-04-25T11:18:55.964Z</time></trkpt><trkpt lat="45.56568367737473" lon="11.189297354513258"><ele>785.5</ele><time>2026-04-25T11:18:56.964Z</time></trkpt><trkpt lat="45.5655920681605" lon="11.189177625299457"><ele>789.0</ele><time>2026-04-25T11:18:57.964Z</time></trkpt><trkpt lat="45.56551747425077" lon="11.189078120538472"><ele>789.25</ele><time>2026-04-25T11:18:58.964Z</time></trkpt><trkpt lat="45.56542296311488" lon="11.188977830958066"><ele>789.5</ele><time>2026-04-25T11:18:59.964Z</time></trkpt><trkpt lat="45.565332375493824" lon="11.188861675392625"><ele>789.75</ele><time>2026-04-25T11:19:00.964Z</time></trkpt><trkpt lat="45.56524665402788" lon="11.18874578603147"><ele>790.0</ele><time>2026-04-25T11:19:01.964Z</time></trkpt><trkpt lat="45.56515818063862" lon="11.188622807214472"><ele>790.0</ele><time>2026-04-25T11:19:02.964Z</time></trkpt><trkpt lat="45.56507345995579" lon="11.18850336477153"><ele>790.0</ele><time>2026-04-25T11:19:03.964Z</time></trkpt><trkpt lat="45.56497935178666" lon="11.188364103045298"><ele>790.0</ele><time>2026-04-25T11:19:04.964Z</time></trkpt><trkpt lat="45.56489459655341" lon="11.188253930975206"><ele>790.0</ele><time>2026-04-25T11:19:05.964Z</time></trkpt><trkpt lat="45.564816752753444" lon="11.188150877031937"><ele>788.4</ele><time>2026-04-25T11:19:06.964Z</time></trkpt><trkpt lat="45.56473891241869" lon="11.188068974161247"><ele>786.8</ele><time>2026-04-25T11:19:07.964Z</time></trkpt><trkpt lat="45.564646249160916" lon="11.188011691169843"><ele>785.2</ele><time>2026-04-25T11:19:08.964Z</time></trkpt><trkpt lat="45.564547145156936" lon="11.18799516733453"><ele>783.6</ele><time>2026-04-25T11:19:09.964Z</time></trkpt><trkpt lat="45.56446812278748" lon="11.187944160001056"><ele>782.0</ele><time>2026-04-25T11:19:10.964Z</time></trkpt><trkpt lat="45.56440718616801" lon="11.187866002136364"><ele>782.0</ele><time>2026-04-25T11:19:11.964Z</time></trkpt><trkpt lat="45.564352202239675" lon="11.187762520046956"><ele>782.0</ele><time>2026-04-25T11:19:12.964Z</time></trkpt><trkpt lat="45.56429985920946" lon="11.187649134601092"><ele>782.0</ele><time>2026-04-25T11:19:13.964Z</time></trkpt><trkpt lat="45.564223539853565" lon="11.187509898379359"><ele>782.0</ele><time>2026-04-25T11:19:14.963Z</time></trkpt><trkpt lat="45.56413465208273" lon="11.187390354674324"><ele>782.0</ele><time>2026-04-25T11:19:15.963Z</time></trkpt><trkpt lat="45.56406620505389" lon="11.187245497263346"><ele>784.75</ele><time>2026-04-25T11:19:16.963Z</time></trkpt><trkpt lat="45.563987709673185" lon="11.187099870804467"><ele>787.5</ele><time>2026-04-25T11:19:17.963Z</time></trkpt><trkpt lat="45.56390102602072" lon="11.186985766076045"><ele>790.25</ele><time>2026-04-25T11:19:18.963Z</time></trkpt><trkpt lat="45.563796813269185" lon="11.186903635821345"><ele>793.0</ele><time>2026-04-25T11:19:19.963Z</time></trkpt><trkpt lat="45.56369961358063" lon="11.18683333349088"><ele>791.0</ele><time>2026-04-25T11:19:20.963Z</time></trkpt><trkpt lat="45.56359995217549" lon="11.186782153953722"><ele>789.0</ele><time>2026-04-25T11:19:21.963Z</time></trkpt><trkpt lat="45.56353398387028" lon="11.186698349449777"><ele>787.0</ele><time>2026-04-25T11:19:22.963Z</time></trkpt><trkpt lat="45.5634831935611" lon="11.186581051721042"><ele>785.0</ele><time>2026-04-25T11:19:23.963Z</time></trkpt><trkpt lat="45.56342255427748" lon="11.186458923639682"><ele>783.0</ele><time>2026-04-25T11:19:24.963Z</time></trkpt><trkpt lat="45.563339435468144" lon="11.186330480034695"><ele>783.0</ele><time>2026-04-25T11:19:25.963Z</time></trkpt><trkpt lat="45.563245412339796" lon="11.186224241384812"><ele>783.0</ele><time>2026-04-25T11:19:26.963Z</time></trkpt><trkpt lat="45.563161117283386" lon="11.186098425948794"><ele>783.0</ele><time>2026-04-25T11:19:27.963Z</time></trkpt><trkpt lat="45.56308522198742" lon="11.185982628949823"><ele>783.0</ele><time>2026-04-25T11:19:28.963Z</time></trkpt><trkpt lat="45.563017447411646" lon="11.185863032878599"><ele>783.0</ele><time>2026-04-25T11:19:29.963Z</time></trkpt><trkpt lat="45.56294730409377" lon="11.185747995947898"><ele>783.0</ele><time>2026-04-25T11:19:30.963Z</time></trkpt><trkpt lat="45.56288182792646" lon="11.185644928367477"><ele>783.0</ele><time>2026-04-25T11:19:31.963Z</time></trkpt><trkpt lat="45.5628240819602" lon="11.185552367720774"><ele>783.0</ele><time>2026-04-25T11:19:32.963Z</time></trkpt><trkpt lat="45.562776863962796" lon="11.185459725574335"><ele>783.0</ele><time>2026-04-25T11:19:33.963Z</time></trkpt><trkpt lat="45.56274838097918" lon="11.185350449430475"><ele>781.1666666666666</ele><time>2026-04-25T11:19:34.963Z</time></trkpt><trkpt lat="45.56273988884422" lon="11.185234785073224"><ele>779.3333333333333</ele><time>2026-04-25T11:19:35.963Z</time></trkpt><trkpt lat="45.562752197847544" lon="11.185115992930657"><ele>777.5</ele><time>2026-04-25T11:19:36.963Z</time></trkpt><trkpt lat="45.562782981156815" lon="11.185001107856001"><ele>775.6666666666666</ele><time>2026-04-25T11:19:37.963Z</time></trkpt><trkpt lat="45.56283218757076" lon="11.184888708674684"><ele>773.8333333333333</ele><time>2026-04-25T11:19:38.963Z</time></trkpt><trkpt lat="45.56289251008172" lon="11.18478106912552"><ele>772.0</ele><time>2026-04-25T11:19:39.963Z</time></trkpt><trkpt lat="45.56293743053327" lon="11.184660280884394"><ele>772.0</ele><time>2026-04-25T11:19:40.963Z</time></trkpt><trkpt lat="45.562970281229525" lon="11.18454848926914"><ele>772.0</ele><time>2026-04-25T11:19:41.963Z</time></trkpt><trkpt lat="45.56299585000088" lon="11.184426337987688"><ele>772.0</ele><time>2026-04-25T11:19:42.963Z</time></trkpt><trkpt lat="45.56299849254668" lon="11.184294504837018"><ele>772.0</ele><time>2026-04-25T11:19:43.963Z</time></trkpt><trkpt lat="45.56296624108195" lon="11.184167306992915"><ele>772.0</ele><time>2026-04-25T11:19:44.963Z</time></trkpt><trkpt lat="45.56293833184888" lon="11.184037633514121"><ele>773.4000000000001</ele><time>2026-04-25T11:19:45.963Z</time></trkpt><trkpt lat="45.56287574229525" lon="11.183931817562073"><ele>774.8000000000001</ele><time>2026-04-25T11:19:46.963Z</time></trkpt><trkpt lat="45.56279537942408" lon="11.18384452200939"><ele>776.2</ele><time>2026-04-25T11:19:47.963Z</time></trkpt><trkpt lat="45.56272205649366" lon="11.183756073340811"><ele>777.6</ele><time>2026-04-25T11:19:48.963Z</time></trkpt><trkpt lat="45.562658424058114" lon="11.183645817687323"><ele>779.0</ele><time>2026-04-25T11:19:49.963Z</time></trkpt><trkpt lat="45.562599941521576" lon="11.183541920054845"><ele>774.4000000000001</ele><time>2026-04-25T11:19:50.963Z</time></trkpt><trkpt lat="45.562514388583416" lon="11.183474377730484"><ele>769.8</ele><time>2026-04-25T11:19:51.963Z</time></trkpt><trkpt lat="45.56240310384707" lon="11.183447861144966"><ele>765.2</ele><time>2026-04-25T11:19:52.963Z</time></trkpt><trkpt lat="45.56230127681773" lon="11.183438496324237"><ele>760.5999999999999</ele><time>2026-04-25T11:19:53.963Z</time></trkpt><trkpt lat="45.56218887969795" lon="11.183408918623389"><ele>756.0</ele><time>2026-04-25T11:19:54.963Z</time></trkpt><trkpt lat="45.5620783421038" lon="11.183358895371963"><ele>752.0</ele><time>2026-04-25T11:19:55.963Z</time></trkpt><trkpt lat="45.56196642678372" lon="11.183308078072804"><ele>748.0</ele><time>2026-04-25T11:19:56.963Z</time></trkpt><trkpt lat="45.561851910621606" lon="11.183245349621028"><ele>744.0</ele><time>2026-04-25T11:19:57.963Z</time></trkpt><trkpt lat="45.5617394662508" lon="11.18320289454334"><ele>740.0</ele><time>2026-04-25T11:19:58.963Z</time></trkpt><trkpt lat="45.56162365825112" lon="11.183167559025586"><ele>740.0</ele><time>2026-04-25T11:19:59.963Z</time></trkpt><trkpt lat="45.56151744199876" lon="11.183144233044498"><ele>740.0</ele><time>2026-04-25T11:20:00.963Z</time></trkpt><trkpt lat="45.56140754270121" lon="11.183119684640129"><ele>740.0</ele><time>2026-04-25T11:20:01.963Z</time></trkpt><trkpt lat="45.56129495769297" lon="11.183108099824665"><ele>740.0</ele><time>2026-04-25T11:20:02.964Z</time></trkpt><trkpt lat="45.5611831287982" lon="11.183111746957193"><ele>740.0</ele><time>2026-04-25T11:20:03.964Z</time></trkpt><trkpt lat="45.56108060070746" lon="11.183097866495986"><ele>738.9999999999999</ele><time>2026-04-25T11:20:04.964Z</time></trkpt><trkpt lat="45.56098783958124" lon="11.183105826770392"><ele>738.0</ele><time>2026-04-25T11:20:05.963Z</time></trkpt><trkpt lat="45.56092406484086" lon="11.183110613510355"><ele>737.0</ele><time>2026-04-25T11:20:06.964Z</time></trkpt><trkpt lat="45.56086040287877" lon="11.183102617911002"><ele>736.0</ele><time>2026-04-25T11:20:10.964Z</time></trkpt><trkpt lat="45.56079619476996" lon="11.183041157444332"><ele>735.0</ele><time>2026-04-25T11:21:05.962Z</time></trkpt><trkpt lat="45.5607409469751" lon="11.183105796692416"><ele>733.9999999999999</ele><time>2026-04-25T11:21:34.958Z</time></trkpt><trkpt lat="45.56079606344199" lon="11.183178320022703"><ele>733.0</ele><time>2026-04-25T11:21:48.957Z</time></trkpt><trkpt lat="45.56087107749946" lon="11.183200038890906"><ele>733.0</ele><time>2026-04-25T11:24:48.957Z</time></trkpt><trkpt lat="45.56084798730874" lon="11.183285298027256"><ele>733.0</ele><time>2026-04-25T11:27:09.956Z</time></trkpt><trkpt lat="45.560791026317105" lon="11.183331571793865"><ele>733.0</ele><time>2026-04-25T11:27:21.955Z</time></trkpt><trkpt lat="45.56084714103856" lon="11.183398927549389"><ele>733.0</ele><time>2026-04-25T11:27:41.955Z</time></trkpt><trkpt lat="45.560893190504814" lon="11.183325175558373"><ele>733.0</ele><time>2026-04-25T11:29:11.955Z</time></trkpt><trkpt lat="45.56081834409732" lon="11.183330315171586"><ele>733.0</ele><time>2026-04-25T11:29:18.955Z</time></trkpt><trkpt lat="45.56074890667206" lon="11.183257713409619"><ele>733.0</ele><time>2026-04-25T11:29:53.955Z</time></trkpt></trkseg><trkseg><trkpt lat="45.560827512431615" lon="11.183262637058393"><ele>732.9999999999999</ele><time>2026-04-25T12:26:17Z</time></trkpt><trkpt lat="45.56080990346461" lon="11.183160585709738"><ele>733.0</ele><time>2026-04-25T12:27:44.999Z</time></trkpt><trkpt lat="45.56075345741514" lon="11.18311240149405"><ele>733.0</ele><time>2026-04-25T12:27:55.999Z</time></trkpt><trkpt lat="45.56068053248562" lon="11.183136880738253"><ele>733.0</ele><time>2026-04-25T12:28:06.999Z</time></trkpt><trkpt lat="45.56061569576054" lon="11.183132789208978"><ele>733.0</ele><time>2026-04-25T12:28:13.999Z</time></trkpt><trkpt lat="45.560635301561625" lon="11.183237434308591"><ele>732.9999999999999</ele><time>2026-04-25T12:28:37.999Z</time></trkpt><trkpt lat="45.560712467990776" lon="11.183206082978707"><ele>733.0</ele><time>2026-04-25T12:29:08.999Z</time></trkpt><trkpt lat="45.560785872784045" lon="11.183196332451784"><ele>732.3333333333334</ele><time>2026-04-25T12:31:36.998Z</time></trkpt><trkpt lat="45.56079687148698" lon="11.183093689162009"><ele>731.6666666666667</ele><time>2026-04-25T12:31:46.998Z</time></trkpt><trkpt lat="45.560732667496445" lon="11.183085972292654"><ele>731.0</ele><time>2026-04-25T12:33:18.998Z</time></trkpt><trkpt lat="45.560652944030586" lon="11.18311078984363"><ele>730.3333333333334</ele><time>2026-04-25T12:33:22.998Z</time></trkpt><trkpt lat="45.56070970693775" lon="11.183162423439336"><ele>729.6666666666666</ele><time>2026-04-25T12:35:44.997Z</time></trkpt><trkpt lat="45.56083916080144" lon="11.18318029865401"><ele>729.0</ele><time>2026-04-25T12:35:46.997Z</time></trkpt><trkpt lat="45.56091444989747" lon="11.183170875120224"><ele>729.0</ele><time>2026-04-25T12:35:47.997Z</time></trkpt><trkpt lat="45.56100267481817" lon="11.183169320398195"><ele>729.0</ele><time>2026-04-25T12:35:48.997Z</time></trkpt><trkpt lat="45.561095491537834" lon="11.183186908452893"><ele>729.0</ele><time>2026-04-25T12:35:49.997Z</time></trkpt><trkpt lat="45.561196822459884" lon="11.183198673998023"><ele>729.0</ele><time>2026-04-25T12:35:50.997Z</time></trkpt><trkpt lat="45.561312627755086" lon="11.183195448810462"><ele>729.0</ele><time>2026-04-25T12:35:51.997Z</time></trkpt><trkpt lat="45.5614040772324" lon="11.183197395938551"><ele>730.8000000000001</ele><time>2026-04-25T12:35:52.997Z</time></trkpt><trkpt lat="45.561496250728844" lon="11.183206424152033"><ele>732.6</ele><time>2026-04-25T12:35:53.997Z</time></trkpt><trkpt lat="45.561576500958324" lon="11.183211087532122"><ele>734.4</ele><time>2026-04-25T12:35:54.997Z</time></trkpt><trkpt lat="45.56166270117627" lon="11.183226327050296"><ele>736.2</ele><time>2026-04-25T12:35:55.997Z</time></trkpt><trkpt lat="45.56174700447149" lon="11.183265686942608"><ele>738.0</ele><time>2026-04-25T12:35:56.997Z</time></trkpt><trkpt lat="45.561848526188626" lon="11.183288849136147"><ele>738.0</ele><time>2026-04-25T12:35:57.997Z</time></trkpt><trkpt lat="45.56196056088805" lon="11.18335482170677"><ele>738.0</ele><time>2026-04-25T12:35:58.997Z</time></trkpt><trkpt lat="45.56207871069486" lon="11.183416778505082"><ele>738.0</ele><time>2026-04-25T12:35:59.997Z</time></trkpt><trkpt lat="45.56220971783877" lon="11.183470268707696"><ele>738.0</ele><time>2026-04-25T12:36:00.997Z</time></trkpt><trkpt lat="45.56234044788479" lon="11.183513848311673"><ele>741.5999999999999</ele><time>2026-04-25T12:36:01.997Z</time></trkpt><trkpt lat="45.562449941360846" lon="11.183540743092722"><ele>745.1999999999999</ele><time>2026-04-25T12:36:02.997Z</time></trkpt><trkpt lat="45.56253335294992" lon="11.183595976173256"><ele>748.8</ele><time>2026-04-25T12:36:03.997Z</time></trkpt><trkpt lat="45.56259986558643" lon="11.183677176785675"><ele>752.4</ele><time>2026-04-25T12:36:04.997Z</time></trkpt><trkpt lat="45.56266043993848" lon="11.183800941194756"><ele>756.0</ele><time>2026-04-25T12:36:05.997Z</time></trkpt><trkpt lat="45.562723410177284" lon="11.183906974750295"><ele>756.0</ele><time>2026-04-25T12:36:06.997Z</time></trkpt><trkpt lat="45.56278362274389" lon="11.184008483188647"><ele>756.0</ele><time>2026-04-25T12:36:07.997Z</time></trkpt><trkpt lat="45.562839728644555" lon="11.18411478975529"><ele>756.0</ele><time>2026-04-25T12:36:08.997Z</time></trkpt><trkpt lat="45.56287568175576" lon="11.18423722623056"><ele>756.0</ele><time>2026-04-25T12:36:09.997Z</time></trkpt><trkpt lat="45.562889385913294" lon="11.184377442480743"><ele>756.0</ele><time>2026-04-25T12:36:10.997Z</time></trkpt><trkpt lat="45.56290245525249" lon="11.184501952128437"><ele>755.0</ele><time>2026-04-25T12:36:11.997Z</time></trkpt><trkpt lat="45.56288643956205" lon="11.184605861288928"><ele>754.0</ele><time>2026-04-25T12:36:12.997Z</time></trkpt><trkpt lat="45.562847005593646" lon="11.18470650736563"><ele>753.0</ele><time>2026-04-25T12:36:13.997Z</time></trkpt><trkpt lat="45.56277709592895" lon="11.184850206702393"><ele>752.0</ele><time>2026-04-25T12:36:14.997Z</time></trkpt><trkpt lat="45.56273420786732" lon="11.185012031685293"><ele>751.0</ele><time>2026-04-25T12:36:15.997Z</time></trkpt><trkpt lat="45.56265691920917" lon="11.185090597007637"><ele>753.0</ele><time>2026-04-25T12:36:16.997Z</time></trkpt><trkpt lat="45.56265595565057" lon="11.185292998423177"><ele>755.0</ele><time>2026-04-25T12:36:18.997Z</time></trkpt><trkpt lat="45.56270003524507" lon="11.185400550640278"><ele>757.0</ele><time>2026-04-25T12:36:19.997Z</time></trkpt><trkpt lat="45.56274545465719" lon="11.185498130861761"><ele>759.0</ele><time>2026-04-25T12:36:20.997Z</time></trkpt><trkpt lat="45.56279621366801" lon="11.185566047473094"><ele>761.0</ele><time>2026-04-25T12:36:21.997Z</time></trkpt><trkpt lat="45.5628624612689" lon="11.185682682004007"><ele>766.5</ele><time>2026-04-25T12:36:22.997Z</time></trkpt><trkpt lat="45.56296343192767" lon="11.185850488676476"><ele>772.0</ele><time>2026-04-25T12:36:23.997Z</time></trkpt><trkpt lat="45.56303979013263" lon="11.185997201177864"><ele>777.5</ele><time>2026-04-25T12:36:24.997Z</time></trkpt><trkpt lat="45.56312962931318" lon="11.186147288553846"><ele>783.0</ele><time>2026-04-25T12:36:25.997Z</time></trkpt><trkpt lat="45.56321846937412" lon="11.186297911556586"><ele>783.0</ele><time>2026-04-25T12:36:26.997Z</time></trkpt><trkpt lat="45.563318463479526" lon="11.1864392845863"><ele>783.0</ele><time>2026-04-25T12:36:27.997Z</time></trkpt><trkpt lat="45.56340344881376" lon="11.186577138478883"><ele>783.0</ele><time>2026-04-25T12:36:28.997Z</time></trkpt><trkpt lat="45.56346602768559" lon="11.186692068234318"><ele>783.0</ele><time>2026-04-25T12:36:29.997Z</time></trkpt><trkpt lat="45.56351433032405" lon="11.186785685788744"><ele>782.0</ele><time>2026-04-25T12:36:30.997Z</time></trkpt><trkpt lat="45.563565153474464" lon="11.186848722702406"><ele>781.0</ele><time>2026-04-25T12:36:31.997Z</time></trkpt><trkpt lat="45.56364467894788" lon="11.186905480707185"><ele>780.0</ele><time>2026-04-25T12:36:32.997Z</time></trkpt><trkpt lat="45.563748625173474" lon="11.186977724901245"><ele>779.0</ele><time>2026-04-25T12:36:33.997Z</time></trkpt><trkpt lat="45.56385501408363" lon="11.187066182733709"><ele>778.0</ele><time>2026-04-25T12:36:34.997Z</time></trkpt><trkpt lat="45.56394629763694" lon="11.187200459913075"><ele>779.3333333333333</ele><time>2026-04-25T12:36:35.997Z</time></trkpt><trkpt lat="45.56404323279173" lon="11.18738565437254"><ele>780.6666666666667</ele><time>2026-04-25T12:36:36.997Z</time></trkpt><trkpt lat="45.56413655374279" lon="11.187580675955516"><ele>782.0</ele><time>2026-04-25T12:36:37.997Z</time></trkpt><trkpt lat="45.56422651744986" lon="11.187745255558399"><ele>782.0</ele><time>2026-04-25T12:36:38.997Z</time></trkpt><trkpt lat="45.56430901748832" lon="11.187884977678943"><ele>782.0</ele><time>2026-04-25T12:36:39.997Z</time></trkpt><trkpt lat="45.56437597617546" lon="11.187986511305617"><ele>782.0</ele><time>2026-04-25T12:36:40.997Z</time></trkpt><trkpt lat="45.56444897746705" lon="11.188068149033004"><ele>782.0</ele><time>2026-04-25T12:36:41.997Z</time></trkpt><trkpt lat="45.56453395325429" lon="11.188123309014191"><ele>782.0</ele><time>2026-04-25T12:36:42.997Z</time></trkpt><trkpt lat="45.564638313481105" lon="11.188138615953601"><ele>784.0</ele><time>2026-04-25T12:36:43.997Z</time></trkpt><trkpt lat="45.56472651414355" lon="11.188186969739766"><ele>786.0</ele><time>2026-04-25T12:36:44.997Z</time></trkpt><trkpt lat="45.56480339507468" lon="11.188286614667964"><ele>788.0</ele><time>2026-04-25T12:36:45.997Z</time></trkpt><trkpt lat="45.56488485213709" lon="11.188456306825401"><ele>790.0</ele><time>2026-04-25T12:36:46.997Z</time></trkpt><trkpt lat="45.56499614187226" lon="11.188608172607747"><ele>790.0</ele><time>2026-04-25T12:36:47.997Z</time></trkpt><trkpt lat="45.565097650506324" lon="11.188753449913309"><ele>790.0</ele><time>2026-04-25T12:36:48.997Z</time></trkpt><trkpt lat="45.56520187514001" lon="11.188901846043965"><ele>790.0</ele><time>2026-04-25T12:36:49.997Z</time></trkpt><trkpt lat="45.56530797282935" lon="11.189049106810755"><ele>790.0</ele><time>2026-04-25T12:36:50.997Z</time></trkpt><trkpt lat="45.565417030012135" lon="11.189182479745492"><ele>789.75</ele><time>2026-04-25T12:36:51.997Z</time></trkpt><trkpt lat="45.56551295012027" lon="11.18932452331492"><ele>789.5</ele><time>2026-04-25T12:36:52.997Z</time></trkpt><trkpt lat="45.56560178327878" lon="11.189445076303016"><ele>789.25</ele><time>2026-04-25T12:36:53.997Z</time></trkpt><trkpt lat="45.56568739764202" lon="11.189565385775712"><ele>789.0</ele><time>2026-04-25T12:36:54.997Z</time></trkpt><trkpt lat="45.565759093386035" lon="11.189686706864789"><ele>789.0</ele><time>2026-04-25T12:36:55.997Z</time></trkpt><trkpt lat="45.56584419441527" lon="11.18979172519421"><ele>789.0</ele><time>2026-04-25T12:36:56.997Z</time></trkpt><trkpt lat="45.56589579292046" lon="11.189864685446768"><ele>789.0</ele><time>2026-04-25T12:36:57.997Z</time></trkpt><trkpt lat="45.56594579507523" lon="11.189961374982808"><ele>789.0</ele><time>2026-04-25T12:36:58.997Z</time></trkpt><trkpt lat="45.56599046776819" lon="11.190063006810975"><ele>789.0</ele><time>2026-04-25T12:36:59.997Z</time></trkpt><trkpt lat="45.566058881109896" lon="11.19019118060026"><ele>786.2</ele><time>2026-04-25T12:37:01.997Z</time></trkpt><trkpt lat="45.566084429028955" lon="11.190306710218115"><ele>783.4000000000001</ele><time>2026-04-25T12:37:04.997Z</time></trkpt><trkpt lat="45.56608904679649" lon="11.190523186146464"><ele>780.6</ele><time>2026-04-25T12:37:09.997Z</time></trkpt><trkpt lat="45.56613669956379" lon="11.190632301607538"><ele>777.8</ele><time>2026-04-25T12:37:11.997Z</time></trkpt><trkpt lat="45.566223571251584" lon="11.190666362564903"><ele>775.0</ele><time>2026-04-25T12:37:13.997Z</time></trkpt><trkpt lat="45.56630033975592" lon="11.190593686932361"><ele>774.2</ele><time>2026-04-25T12:37:15.997Z</time></trkpt><trkpt lat="45.56637454617806" lon="11.190524202172597"><ele>773.4</ele><time>2026-04-25T12:37:19.997Z</time></trkpt><trkpt lat="45.566467413350686" lon="11.190433203940879"><ele>772.5999999999999</ele><time>2026-04-25T12:37:21.997Z</time></trkpt><trkpt lat="45.5665667597868" lon="11.190391188190492"><ele>771.8</ele><time>2026-04-25T12:37:23.997Z</time></trkpt><trkpt lat="45.56664448848742" lon="11.190373236046062"><ele>771.0</ele><time>2026-04-25T12:37:25.997Z</time></trkpt><trkpt lat="45.56688816282595" lon="11.190377399920486"><ele>771.0</ele><time>2026-04-25T12:37:31.997Z</time></trkpt><trkpt lat="45.566981132001" lon="11.190345802070947"><ele>771.0</ele><time>2026-04-25T12:37:33.997Z</time></trkpt><trkpt lat="45.56704797382601" lon="11.190245319873606"><ele>771.0</ele><time>2026-04-25T12:37:35.997Z</time></trkpt><trkpt lat="45.56707477549017" lon="11.190140128019122"><ele>771.0</ele><time>2026-04-25T12:37:37.997Z</time></trkpt><trkpt lat="45.567099213566976" lon="11.190008665859516"><ele>771.0</ele><time>2026-04-25T12:37:39.997Z</time></trkpt><trkpt lat="45.56715932212096" lon="11.189879007066974"><ele>767.1666666666666</ele><time>2026-04-25T12:37:41.997Z</time></trkpt><trkpt lat="45.56717860423497" lon="11.189778429417684"><ele>763.3333333333334</ele><time>2026-04-25T12:37:42.997Z</time></trkpt><trkpt lat="45.567208487345816" lon="11.189694860198385"><ele>759.5</ele><time>2026-04-25T12:37:43.997Z</time></trkpt><trkpt lat="45.56721767377161" lon="11.18957082673479"><ele>755.6666666666667</ele><time>2026-04-25T12:37:45.997Z</time></trkpt><trkpt lat="45.56728237787594" lon="11.189463265531883"><ele>751.8333333333334</ele><time>2026-04-25T12:37:47.997Z</time></trkpt><trkpt lat="45.56734850101825" lon="11.189359788278368"><ele>748.0</ele><time>2026-04-25T12:37:49.997Z</time></trkpt><trkpt lat="45.56741759998746" lon="11.189278428687048"><ele>748.0</ele><time>2026-04-25T12:37:51.997Z</time></trkpt><trkpt lat="45.567469409216336" lon="11.189114163550137"><ele>748.0</ele><time>2026-04-25T12:37:53.997Z</time></trkpt><trkpt lat="45.56749259256984" lon="11.18901480350217"><ele>748.0</ele><time>2026-04-25T12:37:54.997Z</time></trkpt><trkpt lat="45.56762434833611" lon="11.189057464872418"><ele>748.0</ele><time>2026-04-25T12:37:58.997Z</time></trkpt><trkpt lat="45.5677283751555" lon="11.189078637980401"><ele>748.0</ele><time>2026-04-25T12:37:59.997Z</time></trkpt><trkpt lat="45.567820706889" lon="11.189055849499074"><ele>749.75</ele><time>2026-04-25T12:38:00.997Z</time></trkpt><trkpt lat="45.56790950016957" lon="11.188999316095666"><ele>751.5</ele><time>2026-04-25T12:38:01.997Z</time></trkpt><trkpt lat="45.56797718195764" lon="11.188922972187413"><ele>753.25</ele><time>2026-04-25T12:38:02.997Z</time></trkpt><trkpt lat="45.5680947284049" lon="11.188780613368646"><ele>755.0</ele><time>2026-04-25T12:38:03.997Z</time></trkpt><trkpt lat="45.568196273214014" lon="11.188710841924287"><ele>755.0</ele><time>2026-04-25T12:38:04.997Z</time></trkpt><trkpt lat="45.5683126090988" lon="11.188647787668193"><ele>755.0</ele><time>2026-04-25T12:38:05.997Z</time></trkpt><trkpt lat="45.568421219974724" lon="11.18855680869092"><ele>755.0</ele><time>2026-04-25T12:38:06.997Z</time></trkpt><trkpt lat="45.56851725070824" lon="11.188494793898263"><ele>755.0</ele><time>2026-04-25T12:38:07.997Z</time></trkpt><trkpt lat="45.568579842324056" lon="11.1885056000201"><ele>755.0</ele><time>2026-04-25T12:38:08.997Z</time></trkpt><trkpt lat="45.56856648669129" lon="11.18860688359826"><ele>753.25</ele><time>2026-04-25T12:38:15.997Z</time></trkpt><trkpt lat="45.56876073417076" lon="11.18872745396459"><ele>751.5</ele><time>2026-04-25T12:38:19.997Z</time></trkpt><trkpt lat="45.568811543956365" lon="11.188637047965626"><ele>749.75</ele><time>2026-04-25T12:38:20.997Z</time></trkpt><trkpt lat="45.568846500344655" lon="11.188521511030677"><ele>748.0</ele><time>2026-04-25T12:38:21.997Z</time></trkpt><trkpt lat="45.56886683916236" lon="11.188381913552863"><ele>748.0</ele><time>2026-04-25T12:38:22.997Z</time></trkpt><trkpt lat="45.568904825948046" lon="11.188286758072307"><ele>748.0</ele><time>2026-04-25T12:38:23.997Z</time></trkpt><trkpt lat="45.568960089386344" lon="11.188232273533155"><ele>748.0</ele><time>2026-04-25T12:38:24.997Z</time></trkpt><trkpt lat="45.56920244412965" lon="11.188218224551953"><ele>748.0</ele><time>2026-04-25T12:38:29.997Z</time></trkpt><trkpt lat="45.56930351371887" lon="11.18818836602657"><ele>749.8333333333334</ele><time>2026-04-25T12:38:31.997Z</time></trkpt><trkpt lat="45.56934886626587" lon="11.188123758595168"><ele>751.6666666666667</ele><time>2026-04-25T12:38:32.997Z</time></trkpt><trkpt lat="45.5694291513265" lon="11.188060525151522"><ele>753.5</ele><time>2026-04-25T12:38:33.997Z</time></trkpt><trkpt lat="45.56949239396866" lon="11.187963583139897"><ele>755.3333333333334</ele><time>2026-04-25T12:38:34.997Z</time></trkpt><trkpt lat="45.569549315838174" lon="11.187900832258142"><ele>757.1666666666666</ele><time>2026-04-25T12:38:35.997Z</time></trkpt><trkpt lat="45.56961830487176" lon="11.18787039834334"><ele>759.0</ele><time>2026-04-25T12:38:36.997Z</time></trkpt><trkpt lat="45.56969584733131" lon="11.18781576835728"><ele>759.0</ele><time>2026-04-25T12:38:38.997Z</time></trkpt><trkpt lat="45.56983610626233" lon="11.18781221439954"><ele>759.0</ele><time>2026-04-25T12:38:41.997Z</time></trkpt><trkpt lat="45.56993375838623" lon="11.187822397974438"><ele>759.0</ele><time>2026-04-25T12:38:43.997Z</time></trkpt><trkpt lat="45.56999751586675" lon="11.187794752187992"><ele>759.0</ele><time>2026-04-25T12:38:44.997Z</time></trkpt><trkpt lat="45.570081177237455" lon="11.18772412379112"><ele>759.0</ele><time>2026-04-25T12:38:46.997Z</time></trkpt><trkpt lat="45.5699681309573" lon="11.18768543442045"><ele>759.0</ele><time>2026-04-25T12:38:53.997Z</time></trkpt><trkpt lat="45.56985037015521" lon="11.18770577875614"><ele>759.0</ele><time>2026-04-25T12:38:55.997Z</time></trkpt><trkpt lat="45.56975852084704" lon="11.18778207385987"><ele>759.0</ele><time>2026-04-25T12:38:57.997Z</time></trkpt><trkpt lat="45.56970894557873" lon="11.187856616884279"><ele>759.0</ele><time>2026-04-25T12:38:58.997Z</time></trkpt><trkpt lat="45.569769821052425" lon="11.187941976956358"><ele>759.0</ele><time>2026-04-25T12:39:00.997Z</time></trkpt><trkpt lat="45.56981406632793" lon="11.18801342467959"><ele>759.0</ele><time>2026-04-25T12:39:01.997Z</time></trkpt><trkpt lat="45.56991938942273" lon="11.188086812515873"><ele>759.0</ele><time>2026-04-25T12:39:02.997Z</time></trkpt><trkpt lat="45.570021636166835" lon="11.188161749364165"><ele>759.0</ele><time>2026-04-25T12:39:03.997Z</time></trkpt><trkpt lat="45.5701398249254" lon="11.188253632514597"><ele>759.0</ele><time>2026-04-25T12:39:04.997Z</time></trkpt><trkpt lat="45.570248783160054" lon="11.18832087521969"><ele>759.0</ele><time>2026-04-25T12:39:05.997Z</time></trkpt><trkpt lat="45.570344738472535" lon="11.188357551140133"><ele>759.8333333333334</ele><time>2026-04-25T12:39:06.997Z</time></trkpt><trkpt lat="45.57042427518639" lon="11.188380957246562"><ele>760.6666666666666</ele><time>2026-04-25T12:39:07.997Z</time></trkpt><trkpt lat="45.57050228414605" lon="11.18840400129766"><ele>761.5</ele><time>2026-04-25T12:39:08.997Z</time></trkpt><trkpt lat="45.570560595203254" lon="11.188530710989111"><ele>762.3333333333333</ele><time>2026-04-25T12:39:10.997Z</time></trkpt><trkpt lat="45.570547291901086" lon="11.188674741462592"><ele>763.1666666666666</ele><time>2026-04-25T12:39:12.997Z</time></trkpt><trkpt lat="45.57048323888636" lon="11.188716906173186"><ele>764.0</ele><time>2026-04-25T12:39:14.997Z</time></trkpt><trkpt lat="45.57049663332504" lon="11.188820718517242"><ele>764.0</ele><time>2026-04-25T12:39:17.997Z</time></trkpt><trkpt lat="45.570486301922784" lon="11.188963016493394"><ele>764.0</ele><time>2026-04-25T12:39:19.997Z</time></trkpt><trkpt lat="45.57051509129437" lon="11.189047637931527"><ele>764.0</ele><time>2026-04-25T12:39:20.997Z</time></trkpt><trkpt lat="45.5705793820836" lon="11.1890978363864"><ele>764.0</ele><time>2026-04-25T12:39:21.997Z</time></trkpt><trkpt lat="45.57066579995251" lon="11.189152219885054"><ele>764.0</ele><time>2026-04-25T12:39:22.997Z</time></trkpt><trkpt lat="45.57111488239879" lon="11.189229635502759"><ele>764.3333333333333</ele><time>2026-04-25T12:39:29.997Z</time></trkpt><trkpt lat="45.57119710826121" lon="11.18931508168248"><ele>764.6666666666666</ele><time>2026-04-25T12:39:31.997Z</time></trkpt><trkpt lat="45.57119631475465" lon="11.189431240373128"><ele>765.0</ele><time>2026-04-25T12:39:34.997Z</time></trkpt><trkpt lat="45.57123557751611" lon="11.189509146946289"><ele>765.3333333333334</ele><time>2026-04-25T12:39:35.997Z</time></trkpt><trkpt lat="45.57128847546133" lon="11.189558890645104"><ele>765.6666666666667</ele><time>2026-04-25T12:39:36.997Z</time></trkpt><trkpt lat="45.57140671136681" lon="11.18965394981211"><ele>766.0</ele><time>2026-04-25T12:39:38.997Z</time></trkpt><trkpt lat="45.57147361964388" lon="11.189697697366599"><ele>766.0</ele><time>2026-04-25T12:39:39.997Z</time></trkpt><trkpt lat="45.571581457713" lon="11.189767459502118"><ele>766.0</ele><time>2026-04-25T12:39:41.997Z</time></trkpt><trkpt lat="45.57165700570695" lon="11.18980217755333"><ele>766.0</ele><time>2026-04-25T12:39:42.997Z</time></trkpt><trkpt lat="45.57173903825303" lon="11.189808264634271"><ele>766.0</ele><time>2026-04-25T12:39:43.997Z</time></trkpt><trkpt lat="45.57180598228316" lon="11.18986101309073"><ele>766.0</ele><time>2026-04-25T12:39:45.997Z</time></trkpt><trkpt lat="45.57186412502546" lon="11.189925316479338"><ele>766.0</ele><time>2026-04-25T12:39:47.997Z</time></trkpt><trkpt lat="45.57191887590526" lon="11.190004782694379"><ele>763.1999999999999</ele><time>2026-04-25T12:39:51.997Z</time></trkpt><trkpt lat="45.571990268584095" lon="11.189988753358739"><ele>760.4</ele><time>2026-04-25T12:39:54.997Z</time></trkpt><trkpt lat="45.572113227082575" lon="11.189966638301357"><ele>757.6</ele><time>2026-04-25T12:39:57.997Z</time></trkpt><trkpt lat="45.57222175517217" lon="11.189969730918271"><ele>754.8</ele><time>2026-04-25T12:40:00.997Z</time></trkpt><trkpt lat="45.5722859454062" lon="11.189979288232557"><ele>752.0</ele><time>2026-04-25T12:40:02.997Z</time></trkpt><trkpt lat="45.57237879128712" lon="11.190007104251109"><ele>746.75</ele><time>2026-04-25T12:40:04.997Z</time></trkpt><trkpt lat="45.572448549911336" lon="11.19005547243289"><ele>741.5</ele><time>2026-04-25T12:40:06.997Z</time></trkpt><trkpt lat="45.57265376109727" lon="11.190072898976618"><ele>736.25</ele><time>2026-04-25T12:40:10.996Z</time></trkpt><trkpt lat="45.57275736290388" lon="11.190045636736524"><ele>731.0</ele><time>2026-04-25T12:40:11.996Z</time></trkpt><trkpt lat="45.572854895770625" lon="11.190010989047524"><ele>731.8333333333333</ele><time>2026-04-25T12:40:12.996Z</time></trkpt><trkpt lat="45.573015834187316" lon="11.18998476744381"><ele>732.6666666666666</ele><time>2026-04-25T12:40:15.996Z</time></trkpt><trkpt lat="45.57308017240678" lon="11.189955658196775"><ele>733.5</ele><time>2026-04-25T12:40:16.996Z</time></trkpt><trkpt lat="45.57314428051948" lon="11.189925844597013"><ele>734.3333333333334</ele><time>2026-04-25T12:40:17.996Z</time></trkpt><trkpt lat="45.57320983236398" lon="11.189891966297584"><ele>735.1666666666667</ele><time>2026-04-25T12:40:18.996Z</time></trkpt><trkpt lat="45.573262408315045" lon="11.189831196719782"><ele>736.0</ele><time>2026-04-25T12:40:19.996Z</time></trkpt><trkpt lat="45.57330467985244" lon="11.189747300946301"><ele>736.0</ele><time>2026-04-25T12:40:20.996Z</time></trkpt><trkpt lat="45.573392963187366" lon="11.189608862410624"><ele>736.0</ele><time>2026-04-25T12:40:22.996Z</time></trkpt><trkpt lat="45.57344257118712" lon="11.189492658895514"><ele>736.0</ele><time>2026-04-25T12:40:24.996Z</time></trkpt><trkpt lat="45.57354708085193" lon="11.18938139645738"><ele>736.0</ele><time>2026-04-25T12:40:26.996Z</time></trkpt><trkpt lat="45.57358156859942" lon="11.189293762688925"><ele>736.0</ele><time>2026-04-25T12:40:27.996Z</time></trkpt><trkpt lat="45.573596361011795" lon="11.189093352574531"><ele>737.8333333333334</ele><time>2026-04-25T12:40:29.996Z</time></trkpt><trkpt lat="45.57360891717424" lon="11.188957928123285"><ele>739.6666666666667</ele><time>2026-04-25T12:40:30.996Z</time></trkpt><trkpt lat="45.5736111797337" lon="11.188859843200596"><ele>741.5</ele><time>2026-04-25T12:40:31.996Z</time></trkpt><trkpt lat="45.57361363228821" lon="11.188751562779165"><ele>743.3333333333334</ele><time>2026-04-25T12:40:32.996Z</time></trkpt><trkpt lat="45.5735926638192" lon="11.188626430759506"><ele>745.1666666666666</ele><time>2026-04-25T12:40:33.996Z</time></trkpt><trkpt lat="45.57356761553857" lon="11.188514580490727"><ele>747.0</ele><time>2026-04-25T12:40:34.996Z</time></trkpt><trkpt lat="45.57355286800758" lon="11.18841793973057"><ele>747.0</ele><time>2026-04-25T12:40:35.996Z</time></trkpt><trkpt lat="45.57353904941499" lon="11.188306125185106"><ele>747.0</ele><time>2026-04-25T12:40:36.996Z</time></trkpt><trkpt lat="45.573544969346955" lon="11.188136019422677"><ele>747.0</ele><time>2026-04-25T12:40:38.996Z</time></trkpt><trkpt lat="45.57355082905967" lon="11.188041982627999"><ele>747.0</ele><time>2026-04-25T12:40:39.996Z</time></trkpt><trkpt lat="45.573587415801335" lon="11.18793549645035"><ele>747.0</ele><time>2026-04-25T12:40:41.996Z</time></trkpt><trkpt lat="45.57360370480713" lon="11.187815813555284"><ele>747.0</ele><time>2026-04-25T12:40:43.996Z</time></trkpt><trkpt lat="45.57357825213813" lon="11.187699025625221"><ele>744.8</ele><time>2026-04-25T12:40:44.996Z</time></trkpt><trkpt lat="45.57354701542633" lon="11.18759249471613"><ele>742.6</ele><time>2026-04-25T12:40:45.996Z</time></trkpt><trkpt lat="45.573532011991794" lon="11.18750244459329"><ele>740.4</ele><time>2026-04-25T12:40:46.996Z</time></trkpt><trkpt lat="45.57366226674175" lon="11.187567494670917"><ele>738.1999999999999</ele><time>2026-04-25T12:40:51.996Z</time></trkpt><trkpt lat="45.573796823819265" lon="11.18755419741638"><ele>736.0</ele><time>2026-04-25T12:40:53.996Z</time></trkpt><trkpt lat="45.573855360795406" lon="11.187482011101313"><ele>733.5999999999999</ele><time>2026-04-25T12:40:54.996Z</time></trkpt><trkpt lat="45.5739339640923" lon="11.187410520410554"><ele>731.2</ele><time>2026-04-25T12:40:56.996Z</time></trkpt><trkpt lat="45.57401232846422" lon="11.187350442261884"><ele>728.8</ele><time>2026-04-25T12:40:59.996Z</time></trkpt><trkpt lat="45.574040690981434" lon="11.187202883180797"><ele>726.4000000000001</ele><time>2026-04-25T12:41:01.996Z</time></trkpt><trkpt lat="45.57405617938898" lon="11.187015947257498"><ele>724.0</ele><time>2026-04-25T12:41:03.996Z</time></trkpt><trkpt lat="45.57407231194278" lon="11.186893743389858"><ele>724.0</ele><time>2026-04-25T12:41:04.996Z</time></trkpt><trkpt lat="45.57408355535934" lon="11.186781924681107"><ele>724.0</ele><time>2026-04-25T12:41:05.996Z</time></trkpt><trkpt lat="45.57405217583743" lon="11.1866230515029"><ele>724.0</ele><time>2026-04-25T12:41:06.996Z</time></trkpt><trkpt lat="45.574032614360284" lon="11.186518936942443"><ele>724.0</ele><time>2026-04-25T12:41:07.996Z</time></trkpt><trkpt lat="45.574004851825734" lon="11.186426506108534"><ele>724.0</ele><time>2026-04-25T12:41:08.996Z</time></trkpt><trkpt lat="45.574004059870404" lon="11.18629996691008"><ele>724.0</ele><time>2026-04-25T12:41:09.996Z</time></trkpt><trkpt lat="45.57400174322358" lon="11.18614777531879"><ele>724.8333333333334</ele><time>2026-04-25T12:41:10.996Z</time></trkpt><trkpt lat="45.57400610824597" lon="11.186032690635523"><ele>725.6666666666667</ele><time>2026-04-25T12:41:11.996Z</time></trkpt><trkpt lat="45.57399217337652" lon="11.185884540748486"><ele>726.5</ele><time>2026-04-25T12:41:12.996Z</time></trkpt><trkpt lat="45.57399593481032" lon="11.185782787697804"><ele>727.3333333333334</ele><time>2026-04-25T12:41:13.996Z</time></trkpt><trkpt lat="45.57395855197138" lon="11.185660413055956"><ele>728.1666666666666</ele><time>2026-04-25T12:41:15.996Z</time></trkpt><trkpt lat="45.57392158585397" lon="11.185584597734044"><ele>729.0</ele><time>2026-04-25T12:41:16.996Z</time></trkpt><trkpt lat="45.573895292494484" lon="11.185491230387473"><ele>730.5</ele><time>2026-04-25T12:41:17.996Z</time></trkpt><trkpt lat="45.573867238714584" lon="11.185385347370191"><ele>732.0</ele><time>2026-04-25T12:41:18.996Z</time></trkpt><trkpt lat="45.573831403128295" lon="11.18529376503109"><ele>733.5</ele><time>2026-04-25T12:41:19.996Z</time></trkpt><trkpt lat="45.57378626065546" lon="11.185155898856484"><ele>735.0</ele><time>2026-04-25T12:41:21.996Z</time></trkpt><trkpt lat="45.57375417628625" lon="11.185052878101741"><ele>736.5</ele><time>2026-04-25T12:41:23.996Z</time></trkpt><trkpt lat="45.57382632131988" lon="11.185102555960881"><ele>738.0</ele><time>2026-04-25T12:41:26.996Z</time></trkpt><trkpt lat="45.57385519115396" lon="11.185257931182438"><ele>738.0</ele><time>2026-04-25T12:41:28.996Z</time></trkpt><trkpt lat="45.57396732861918" lon="11.185357309517006"><ele>738.0</ele><time>2026-04-25T12:41:29.996Z</time></trkpt><trkpt lat="45.57404124620907" lon="11.185383999603104"><ele>738.0</ele><time>2026-04-25T12:41:30.996Z</time></trkpt><trkpt lat="45.574146889219826" lon="11.185403431319152"><ele>738.0</ele><time>2026-04-25T12:41:31.996Z</time></trkpt><trkpt lat="45.574261452534515" lon="11.185377880767158"><ele>738.0</ele><time>2026-04-25T12:41:32.996Z</time></trkpt><trkpt lat="45.57435170478134" lon="11.185310974153602"><ele>738.0</ele><time>2026-04-25T12:41:33.996Z</time></trkpt><trkpt lat="45.574455834290994" lon="11.185276964516136"><ele>738.0</ele><time>2026-04-25T12:41:35.996Z</time></trkpt><trkpt lat="45.57453115643389" lon="11.185226763995821"><ele>738.0</ele><time>2026-04-25T12:41:37.996Z</time></trkpt><trkpt lat="45.57461261854094" lon="11.185125209654455"><ele>738.0</ele><time>2026-04-25T12:41:38.996Z</time></trkpt><trkpt lat="45.57467906294849" lon="11.185048059423504"><ele>738.0</ele><time>2026-04-25T12:41:39.996Z</time></trkpt><trkpt lat="45.574745926968376" lon="11.184978657946283"><ele>738.8333333333334</ele><time>2026-04-25T12:41:40.996Z</time></trkpt><trkpt lat="45.57480570856015" lon="11.18493155590198"><ele>739.6666666666666</ele><time>2026-04-25T12:41:41.996Z</time></trkpt><trkpt lat="45.57491720378991" lon="11.184956837794449"><ele>740.5</ele><time>2026-04-25T12:41:43.996Z</time></trkpt><trkpt lat="45.57500213221636" lon="11.184993099624728"><ele>741.3333333333333</ele><time>2026-04-25T12:41:44.996Z</time></trkpt><trkpt lat="45.57507948354844" lon="11.185009832180917"><ele>742.1666666666666</ele><time>2026-04-25T12:41:45.996Z</time></trkpt><trkpt lat="45.57512179855627" lon="11.185102091444536"><ele>743.0</ele><time>2026-04-25T12:41:46.996Z</time></trkpt><trkpt lat="45.575160502914194" lon="11.18518809457001"><ele>743.0</ele><time>2026-04-25T12:41:47.996Z</time></trkpt><trkpt lat="45.57522790741628" lon="11.185300501314064"><ele>743.0</ele><time>2026-04-25T12:41:49.996Z</time></trkpt><trkpt lat="45.57543014856242" lon="11.185193790532859"><ele>743.0</ele><time>2026-04-25T12:41:52.996Z</time></trkpt><trkpt lat="45.575525558665824" lon="11.185032363251842"><ele>742.8</ele><time>2026-04-25T12:41:54.996Z</time></trkpt><trkpt lat="45.57557900788501" lon="11.184894223744687"><ele>742.5999999999999</ele><time>2026-04-25T12:41:55.996Z</time></trkpt><trkpt lat="45.5756180575115" lon="11.18476469670425"><ele>742.4000000000001</ele><time>2026-04-25T12:41:56.996Z</time></trkpt><trkpt lat="45.57565138222856" lon="11.184662496580605"><ele>742.2</ele><time>2026-04-25T12:41:57.996Z</time></trkpt><trkpt lat="45.57570273062965" lon="11.184582646924751"><ele>742.0</ele><time>2026-04-25T12:41:58.996Z</time></trkpt><trkpt lat="45.57575791615082" lon="11.184487122546344"><ele>745.4000000000001</ele><time>2026-04-25T12:41:59.996Z</time></trkpt><trkpt lat="45.575817906336425" lon="11.184403872598667"><ele>748.8000000000001</ele><time>2026-04-25T12:42:01.996Z</time></trkpt><trkpt lat="45.575919314782446" lon="11.18447115245443"><ele>752.2</ele><time>2026-04-25T12:42:04.996Z</time></trkpt><trkpt lat="45.575992143756025" lon="11.184517127730128"><ele>755.6</ele><time>2026-04-25T12:42:05.996Z</time></trkpt><trkpt lat="45.57609237430693" lon="11.184578347378753"><ele>759.0</ele><time>2026-04-25T12:42:06.996Z</time></trkpt><trkpt lat="45.57617141119597" lon="11.184626430543771"><ele>759.0</ele><time>2026-04-25T12:42:08.996Z</time></trkpt><trkpt lat="45.576109153330826" lon="11.184671479940327"><ele>759.0</ele><time>2026-04-25T12:42:10.996Z</time></trkpt><trkpt lat="45.576066616390975" lon="11.184817303235004"><ele>759.0</ele><time>2026-04-25T12:42:13.996Z</time></trkpt><trkpt lat="45.576081088470296" lon="11.184925175202485"><ele>759.0</ele><time>2026-04-25T12:42:14.996Z</time></trkpt><trkpt lat="45.576070929944706" lon="11.185110632821933"><ele>759.0</ele><time>2026-04-25T12:42:16.996Z</time></trkpt><trkpt lat="45.576079287573606" lon="11.185231338592589"><ele>757.8333333333334</ele><time>2026-04-25T12:42:17.996Z</time></trkpt><trkpt lat="45.57611860721163" lon="11.185360381786305"><ele>756.6666666666666</ele><time>2026-04-25T12:42:18.996Z</time></trkpt><trkpt lat="45.576158734608065" lon="11.185488219541627"><ele>755.5</ele><time>2026-04-25T12:42:19.996Z</time></trkpt><trkpt lat="45.57618226841114" lon="11.185606203472654"><ele>754.3333333333333</ele><time>2026-04-25T12:42:20.996Z</time></trkpt><trkpt lat="45.576212168668256" lon="11.185705971313912"><ele>753.1666666666666</ele><time>2026-04-25T12:42:21.996Z</time></trkpt><trkpt lat="45.57623925765431" lon="11.18580459638911"><ele>752.0</ele><time>2026-04-25T12:42:22.996Z</time></trkpt><trkpt lat="45.576252938998195" lon="11.185979432045606"><ele>752.0</ele><time>2026-04-25T12:42:24.996Z</time></trkpt><trkpt lat="45.576248912944415" lon="11.186082807911955"><ele>752.0</ele><time>2026-04-25T12:42:25.996Z</time></trkpt><trkpt lat="45.576235368244355" lon="11.186180959310551"><ele>752.0</ele><time>2026-04-25T12:42:26.996Z</time></trkpt><trkpt lat="45.5762297093543" lon="11.186281348045199"><ele>752.0</ele><time>2026-04-25T12:42:27.996Z</time></trkpt><trkpt lat="45.57620114752709" lon="11.186445188285525"><ele>752.0</ele><time>2026-04-25T12:42:29.996Z</time></trkpt><trkpt lat="45.57616700525284" lon="11.186535929897124"><ele>752.0</ele><time>2026-04-25T12:42:32.996Z</time></trkpt><trkpt lat="45.5762276950556" lon="11.18669791673574"><ele>752.0</ele><time>2026-04-25T12:42:34.996Z</time></trkpt><trkpt lat="45.57629161827427" lon="11.18675301541958"><ele>752.0</ele><time>2026-04-25T12:42:35.996Z</time></trkpt><trkpt lat="45.57636548717721" lon="11.186693536343636"><ele>752.0</ele><time>2026-04-25T12:42:37.996Z</time></trkpt><trkpt lat="45.57644945582207" lon="11.186579379356024"><ele>752.0</ele><time>2026-04-25T12:42:40.996Z</time></trkpt><trkpt lat="45.57653835277704" lon="11.186493175178285"><ele>752.0</ele><time>2026-04-25T12:42:42.996Z</time></trkpt><trkpt lat="45.57659238781288" lon="11.18644161345558"><ele>752.0</ele><time>2026-04-25T12:42:43.996Z</time></trkpt><trkpt lat="45.576661724903474" lon="11.186407440029521"><ele>752.0</ele><time>2026-04-25T12:42:44.996Z</time></trkpt><trkpt lat="45.57674248559581" lon="11.18635317827555"><ele>752.0</ele><time>2026-04-25T12:42:45.996Z</time></trkpt><trkpt lat="45.57682018071825" lon="11.18624223279403"><ele>752.0</ele><time>2026-04-25T12:42:46.996Z</time></trkpt><trkpt lat="45.57690380532718" lon="11.186138895010275"><ele>752.0</ele><time>2026-04-25T12:42:47.996Z</time></trkpt><trkpt lat="45.576982544821576" lon="11.186025054858757"><ele>752.0</ele><time>2026-04-25T12:42:48.996Z</time></trkpt><trkpt lat="45.57705929958737" lon="11.185904120244205"><ele>750.0</ele><time>2026-04-25T12:42:49.996Z</time></trkpt><trkpt lat="45.57711873315578" lon="11.185766247650196"><ele>748.0</ele><time>2026-04-25T12:42:50.996Z</time></trkpt><trkpt lat="45.57716938544597" lon="11.185599581399167"><ele>746.0</ele><time>2026-04-25T12:42:51.996Z</time></trkpt><trkpt lat="45.57722777161414" lon="11.185418431249397"><ele>744.0</ele><time>2026-04-25T12:42:52.996Z</time></trkpt><trkpt lat="45.577319051369734" lon="11.185271821767543"><ele>747.4000000000001</ele><time>2026-04-25T12:42:53.996Z</time></trkpt><trkpt lat="45.57740030921236" lon="11.18514420927226"><ele>750.8</ele><time>2026-04-25T12:42:54.996Z</time></trkpt><trkpt lat="45.57746841558834" lon="11.185018189736708"><ele>754.2</ele><time>2026-04-25T12:42:55.996Z</time></trkpt><trkpt lat="45.5775197778698" lon="11.184876602019912"><ele>757.5999999999999</ele><time>2026-04-25T12:42:56.996Z</time></trkpt><trkpt lat="45.57754557139668" lon="11.18476677707873"><ele>761.0</ele><time>2026-04-25T12:42:57.996Z</time></trkpt><trkpt lat="45.57756696109956" lon="11.184678637469327"><ele>761.0</ele><time>2026-04-25T12:42:58.996Z</time></trkpt><trkpt lat="45.577657642587965" lon="11.184860890187956"><ele>761.0</ele><time>2026-04-25T12:43:03.996Z</time></trkpt><trkpt lat="45.57767766074118" lon="11.184955431630778"><ele>761.0</ele><time>2026-04-25T12:43:04.996Z</time></trkpt><trkpt lat="45.57770675388936" lon="11.185039233288306"><ele>761.0</ele><time>2026-04-25T12:43:05.996Z</time></trkpt><trkpt lat="45.577758431054214" lon="11.185154458785592"><ele>761.0</ele><time>2026-04-25T12:43:06.996Z</time></trkpt><trkpt lat="45.57776538159898" lon="11.18524600561154"><ele>761.0</ele><time>2026-04-25T12:43:07.996Z</time></trkpt><trkpt lat="45.577805235801904" lon="11.1853374528026"><ele>761.0</ele><time>2026-04-25T12:43:08.996Z</time></trkpt><trkpt lat="45.57789476661718" lon="11.185446163688342"><ele>761.0</ele><time>2026-04-25T12:43:10.996Z</time></trkpt><trkpt lat="45.57800199198481" lon="11.185412156369967"><ele>761.0</ele><time>2026-04-25T12:43:12.996Z</time></trkpt><trkpt lat="45.5781799666842" lon="11.185443056359258"><ele>760.8</ele><time>2026-04-25T12:43:15.996Z</time></trkpt><trkpt lat="45.57826538598199" lon="11.185459030217439"><ele>760.5999999999999</ele><time>2026-04-25T12:43:16.996Z</time></trkpt><trkpt lat="45.57834140689867" lon="11.185517801953019"><ele>760.4</ele><time>2026-04-25T12:43:17.996Z</time></trkpt><trkpt lat="45.57846167753495" lon="11.18563978287721"><ele>760.2</ele><time>2026-04-25T12:43:19.996Z</time></trkpt><trkpt lat="45.5785190363456" lon="11.185700182612276"><ele>760.0</ele><time>2026-04-25T12:43:20.996Z</time></trkpt><trkpt lat="45.578573144597826" lon="11.18576544770311"><ele>760.0</ele><time>2026-04-25T12:43:22.996Z</time></trkpt><trkpt lat="45.578623798744005" lon="11.18585414770713"><ele>760.0</ele><time>2026-04-25T12:43:24.996Z</time></trkpt><trkpt lat="45.57868993481212" lon="11.185896805831032"><ele>760.0</ele><time>2026-04-25T12:43:26.996Z</time></trkpt><trkpt lat="45.57877234702384" lon="11.18587176442154"><ele>760.0</ele><time>2026-04-25T12:43:28.996Z</time></trkpt><trkpt lat="45.5788804847787" lon="11.185864258844337"><ele>760.0</ele><time>2026-04-25T12:43:31.996Z</time></trkpt><trkpt lat="45.57897582228893" lon="11.18582986848402"><ele>760.0</ele><time>2026-04-25T12:43:33.996Z</time></trkpt><trkpt lat="45.57904364333937" lon="11.185804732699264"><ele>762.3333333333334</ele><time>2026-04-25T12:43:36.996Z</time></trkpt><trkpt lat="45.57905674434745" lon="11.18568506087692"><ele>764.6666666666667</ele><time>2026-04-25T12:43:38.996Z</time></trkpt><trkpt lat="45.579039515685515" lon="11.185593173810231"><ele>767.0</ele><time>2026-04-25T12:43:40.996Z</time></trkpt><trkpt lat="45.57907477175514" lon="11.185508850394"><ele>769.3333333333334</ele><time>2026-04-25T12:43:42.996Z</time></trkpt><trkpt lat="45.57914645461877" lon="11.18548409730525"><ele>771.6666666666666</ele><time>2026-04-25T12:43:43.996Z</time></trkpt><trkpt lat="45.57926959975119" lon="11.185384433018084"><ele>774.0</ele><time>2026-04-25T12:43:45.996Z</time></trkpt><trkpt lat="45.579273806613365" lon="11.185259028719887"><ele>777.6666666666666</ele><time>2026-04-25T12:43:49.996Z</time></trkpt><trkpt lat="45.57922464807917" lon="11.185169598394038"><ele>781.3333333333333</ele><time>2026-04-25T12:43:52.996Z</time></trkpt><trkpt lat="45.57922680870996" lon="11.185073802087048"><ele>785.0</ele><time>2026-04-25T12:43:55.996Z</time></trkpt><trkpt lat="45.579293546926166" lon="11.185012547534443"><ele>788.6666666666666</ele><time>2026-04-25T12:43:57.996Z</time></trkpt><trkpt lat="45.5793580364649" lon="11.184963173490212"><ele>792.3333333333333</ele><time>2026-04-25T12:43:58.996Z</time></trkpt><trkpt lat="45.579433641647746" lon="11.184889755697862"><ele>796.0</ele><time>2026-04-25T12:44:00.996Z</time></trkpt><trkpt lat="45.57942529313247" lon="11.184764059723376"><ele>799.4</ele><time>2026-04-25T12:44:02.996Z</time></trkpt><trkpt lat="45.579419723628874" lon="11.18465378095861"><ele>802.8</ele><time>2026-04-25T12:44:03.996Z</time></trkpt><trkpt lat="45.57941325389966" lon="11.184533957084792"><ele>806.1999999999999</ele><time>2026-04-25T12:44:04.996Z</time></trkpt><trkpt lat="45.57940011862079" lon="11.184358256644733"><ele>809.5999999999999</ele><time>2026-04-25T12:44:05.996Z</time></trkpt><trkpt lat="45.5794042341721" lon="11.184209866897367"><ele>813.0</ele><time>2026-04-25T12:44:06.996Z</time></trkpt><trkpt lat="45.57940667702732" lon="11.184079155747263"><ele>814.2</ele><time>2026-04-25T12:44:07.996Z</time></trkpt><trkpt lat="45.57941328237853" lon="11.183985681051746"><ele>815.4</ele><time>2026-04-25T12:44:08.996Z</time></trkpt><trkpt lat="45.579456253717105" lon="11.183858609399374"><ele>816.6</ele><time>2026-04-25T12:44:10.996Z</time></trkpt><trkpt lat="45.5795016389019" lon="11.183638904913035"><ele>817.8000000000001</ele><time>2026-04-25T12:44:12.996Z</time></trkpt><trkpt lat="45.5795289499768" lon="11.183533185389305"><ele>819.0</ele><time>2026-04-25T12:44:13.996Z</time></trkpt><trkpt lat="45.579552403937214" lon="11.183394181726667"><ele>818.4000000000001</ele><time>2026-04-25T12:44:14.996Z</time></trkpt><trkpt lat="45.57956419627609" lon="11.183289969323074"><ele>817.8</ele><time>2026-04-25T12:44:15.996Z</time></trkpt><trkpt lat="45.57958675964331" lon="11.18316892801035"><ele>817.2</ele><time>2026-04-25T12:44:16.996Z</time></trkpt><trkpt lat="45.579629201524725" lon="11.183021805437463"><ele>816.5999999999999</ele><time>2026-04-25T12:44:17.995Z</time></trkpt><trkpt lat="45.57968919700902" lon="11.182838996396487"><ele>816.0</ele><time>2026-04-25T12:44:18.995Z</time></trkpt><trkpt lat="45.579762726739354" lon="11.182727447158152"><ele>816.0</ele><time>2026-04-25T12:44:19.995Z</time></trkpt><trkpt lat="45.57985211149573" lon="11.182671253356197"><ele>816.0</ele><time>2026-04-25T12:44:20.995Z</time></trkpt><trkpt lat="45.580221854195536" lon="11.182656850321942"><ele>816.0</ele><time>2026-04-25T12:44:24.995Z</time></trkpt><trkpt lat="45.580310890201154" lon="11.182635002370539"><ele>816.0</ele><time>2026-04-25T12:44:25.995Z</time></trkpt><trkpt lat="45.58041020544608" lon="11.182546267766963"><ele>816.0</ele><time>2026-04-25T12:44:26.995Z</time></trkpt><trkpt lat="45.58050724106638" lon="11.182399311203"><ele>816.0</ele><time>2026-04-25T12:44:27.995Z</time></trkpt><trkpt lat="45.58060364159837" lon="11.182249360206432"><ele>817.5</ele><time>2026-04-25T12:44:28.995Z</time></trkpt><trkpt lat="45.58067022182953" lon="11.182072814354521"><ele>819.0</ele><time>2026-04-25T12:44:29.995Z</time></trkpt><trkpt lat="45.58072422998728" lon="11.181922796593145"><ele>820.5</ele><time>2026-04-25T12:44:30.995Z</time></trkpt><trkpt lat="45.58079145400615" lon="11.181772124665882"><ele>822.0</ele><time>2026-04-25T12:44:31.995Z</time></trkpt><trkpt lat="45.58084698509677" lon="11.181623347342427"><ele>822.0</ele><time>2026-04-25T12:44:32.995Z</time></trkpt><trkpt lat="45.58090522849656" lon="11.18148621294656"><ele>822.0</ele><time>2026-04-25T12:44:33.995Z</time></trkpt><trkpt lat="45.58093590374928" lon="11.18134141697652"><ele>822.0</ele><time>2026-04-25T12:44:34.995Z</time></trkpt><trkpt lat="45.58097102164613" lon="11.18122188980566"><ele>822.0</ele><time>2026-04-25T12:44:35.995Z</time></trkpt><trkpt lat="45.58101434418248" lon="11.18110611983898"><ele>822.0</ele><time>2026-04-25T12:44:36.995Z</time></trkpt><trkpt lat="45.581076482403766" lon="11.181049609397828"><ele>822.0</ele><time>2026-04-25T12:44:37.995Z</time></trkpt><trkpt lat="45.58114522938815" lon="11.18099057034393"><ele>822.0</ele><time>2026-04-25T12:44:38.995Z</time></trkpt><trkpt lat="45.581218532137676" lon="11.180935991722867"><ele>822.0</ele><time>2026-04-25T12:44:39.995Z</time></trkpt><trkpt lat="45.58130498515696" lon="11.180854126264324"><ele>822.0</ele><time>2026-04-25T12:44:40.995Z</time></trkpt><trkpt lat="45.581383783217674" lon="11.180791955824017"><ele>822.0</ele><time>2026-04-25T12:44:41.995Z</time></trkpt><trkpt lat="45.581453861871566" lon="11.180727963233643"><ele>822.0</ele><time>2026-04-25T12:44:42.995Z</time></trkpt><trkpt lat="45.581512953000086" lon="11.180670866345896"><ele>818.8</ele><time>2026-04-25T12:44:43.995Z</time></trkpt><trkpt lat="45.58155847777997" lon="11.180563499122261"><ele>815.6</ele><time>2026-04-25T12:44:44.995Z</time></trkpt><trkpt lat="45.58158844739689" lon="11.180432932781448"><ele>812.4</ele><time>2026-04-25T12:44:45.995Z</time></trkpt><trkpt lat="45.58162231721087" lon="11.180334806302907"><ele>809.1999999999999</ele><time>2026-04-25T12:44:46.995Z</time></trkpt><trkpt lat="45.581602886846795" lon="11.180115056677945"><ele>806.0</ele><time>2026-04-25T12:44:48.995Z</time></trkpt><trkpt lat="45.58156863671646" lon="11.180007418937556"><ele>806.0</ele><time>2026-04-25T12:44:49.995Z</time></trkpt><trkpt lat="45.58151576575139" lon="11.179893587027887"><ele>806.0</ele><time>2026-04-25T12:44:50.995Z</time></trkpt><trkpt lat="45.58144994485536" lon="11.179798130030276"><ele>806.0</ele><time>2026-04-25T12:44:51.995Z</time></trkpt><trkpt lat="45.58137120014744" lon="11.179694171130397"><ele>806.0</ele><time>2026-04-25T12:44:52.995Z</time></trkpt><trkpt lat="45.58128913687013" lon="11.179611599371801"><ele>806.0</ele><time>2026-04-25T12:44:53.995Z</time></trkpt><trkpt lat="45.58124337735853" lon="11.179503039793401"><ele>803.1999999999999</ele><time>2026-04-25T12:44:54.995Z</time></trkpt><trkpt lat="45.58121346598925" lon="11.179364257344139"><ele>800.4</ele><time>2026-04-25T12:44:56.995Z</time></trkpt><trkpt lat="45.58120004894651" lon="11.179242102178486"><ele>797.6</ele><time>2026-04-25T12:44:58.995Z</time></trkpt><trkpt lat="45.58132646365269" lon="11.1792606022782"><ele>794.8</ele><time>2026-04-25T12:45:01.995Z</time></trkpt><trkpt lat="45.581401589028054" lon="11.179311587260937"><ele>792.0</ele><time>2026-04-25T12:45:02.995Z</time></trkpt><trkpt lat="45.58148794050237" lon="11.179319827471513"><ele>792.0</ele><time>2026-04-25T12:45:03.995Z</time></trkpt><trkpt lat="45.581572643017196" lon="11.179285358596333"><ele>792.0</ele><time>2026-04-25T12:45:04.995Z</time></trkpt><trkpt lat="45.58165689425357" lon="11.179265150750481"><ele>792.0</ele><time>2026-04-25T12:45:05.995Z</time></trkpt><trkpt lat="45.58172206150119" lon="11.179248145888204"><ele>792.0</ele><time>2026-04-25T12:45:06.995Z</time></trkpt><trkpt lat="45.581825949393114" lon="11.179225206354499"><ele>792.0</ele><time>2026-04-25T12:45:08.995Z</time></trkpt><trkpt lat="45.58188096120267" lon="11.179164230103542"><ele>792.0</ele><time>2026-04-25T12:45:10.995Z</time></trkpt><trkpt lat="45.58194890727994" lon="11.179121871646977"><ele>789.2</ele><time>2026-04-25T12:45:12.995Z</time></trkpt><trkpt lat="45.58204315023061" lon="11.179166514100341"><ele>786.4000000000001</ele><time>2026-04-25T12:45:14.995Z</time></trkpt><trkpt lat="45.58214595291082" lon="11.17924628877714"><ele>783.5999999999999</ele><time>2026-04-25T12:45:16.995Z</time></trkpt><trkpt lat="45.58221846302266" lon="11.17923313650754"><ele>780.8</ele><time>2026-04-25T12:45:20.995Z</time></trkpt><trkpt lat="45.58229470051801" lon="11.179280998179534"><ele>778.0</ele><time>2026-04-25T12:45:23.995Z</time></trkpt><trkpt lat="45.582345635964664" lon="11.179390302299714"><ele>778.0</ele><time>2026-04-25T12:45:27.995Z</time></trkpt><trkpt lat="45.58233749383768" lon="11.179494692003473"><ele>778.0</ele><time>2026-04-25T12:45:29.995Z</time></trkpt><trkpt lat="45.58238697923053" lon="11.179649955959846"><ele>778.0</ele><time>2026-04-25T12:45:31.995Z</time></trkpt><trkpt lat="45.582407986840835" lon="11.179759320097808"><ele>778.0</ele><time>2026-04-25T12:45:36.995Z</time></trkpt><trkpt lat="45.58262161769311" lon="11.179767485667659"><ele>777.9999999999999</ele><time>2026-04-25T12:45:41.995Z</time></trkpt><trkpt lat="45.5826879363075" lon="11.179797217121221"><ele>778.0</ele><time>2026-04-25T12:45:45.995Z</time></trkpt><trkpt lat="45.5827709211872" lon="11.17984225779237"><ele>778.0</ele><time>2026-04-25T12:45:50.995Z</time></trkpt><trkpt lat="45.58284208402888" lon="11.179855799053552"><ele>778.0</ele><time>2026-04-25T12:45:55.995Z</time></trkpt><trkpt lat="45.582918599713004" lon="11.179852216345832"><ele>777.9999999999999</ele><time>2026-04-25T12:46:05.005Z</time></trkpt><trkpt lat="45.58298031683083" lon="11.179781912979346"><ele>778.0</ele><time>2026-04-25T12:46:09.005Z</time></trkpt><trkpt lat="45.582983609253176" lon="11.179675532736143"><ele>777.6666666666666</ele><time>2026-04-25T12:46:13.005Z</time></trkpt><trkpt lat="45.58297041891618" lon="11.179570367932005"><ele>777.3333333333333</ele><time>2026-04-25T12:46:16.005Z</time></trkpt><trkpt lat="45.583012899483506" lon="11.179452375454842"><ele>777.0</ele><time>2026-04-25T12:46:19.005Z</time></trkpt><trkpt lat="45.583016702578526" lon="11.179351861349028"><ele>776.6666666666667</ele><time>2026-04-25T12:46:21.005Z</time></trkpt><trkpt lat="45.583015569653874" lon="11.179247908553457"><ele>776.3333333333334</ele><time>2026-04-25T12:46:23.005Z</time></trkpt><trkpt lat="45.58301782686688" lon="11.179121747865667"><ele>776.0</ele><time>2026-04-25T12:46:28.005Z</time></trkpt><trkpt lat="45.58304925648757" lon="11.179000395564781"><ele>774.1999999999999</ele><time>2026-04-25T12:46:30.005Z</time></trkpt><trkpt lat="45.58303728904869" lon="11.178852233396427"><ele>772.4</ele><time>2026-04-25T12:46:32.005Z</time></trkpt><trkpt lat="45.58303037252063" lon="11.178734729730534"><ele>770.6</ele><time>2026-04-25T12:46:34.005Z</time></trkpt><trkpt lat="45.5829999134326" lon="11.178606660201417"><ele>768.8</ele><time>2026-04-25T12:46:36.005Z</time></trkpt><trkpt lat="45.583007470189045" lon="11.178443934413492"><ele>767.0</ele><time>2026-04-25T12:46:38.005Z</time></trkpt><trkpt lat="45.58303188294505" lon="11.178272721401017"><ele>765.3333333333333</ele><time>2026-04-25T12:46:40.005Z</time></trkpt><trkpt lat="45.583032986110084" lon="11.17818221736955"><ele>763.6666666666666</ele><time>2026-04-25T12:46:41.005Z</time></trkpt><trkpt lat="45.58305299081111" lon="11.178076972571201"><ele>762.0</ele><time>2026-04-25T12:46:42.005Z</time></trkpt><trkpt lat="45.58305961105628" lon="11.177973801414005"><ele>760.3333333333334</ele><time>2026-04-25T12:46:43.005Z</time></trkpt><trkpt lat="45.58304928293599" lon="11.177853117627334"><ele>758.6666666666667</ele><time>2026-04-25T12:46:44.005Z</time></trkpt><trkpt lat="45.58306362232192" lon="11.177741161162409"><ele>757.0</ele><time>2026-04-25T12:46:45.005Z</time></trkpt><trkpt lat="45.58308123141711" lon="11.177615932181848"><ele>757.0</ele><time>2026-04-25T12:46:46.005Z</time></trkpt><trkpt lat="45.58309931770735" lon="11.177506806093122"><ele>757.0</ele><time>2026-04-25T12:46:47.005Z</time></trkpt><trkpt lat="45.58312292493048" lon="11.17737125544848"><ele>757.0</ele><time>2026-04-25T12:46:48.005Z</time></trkpt><trkpt lat="45.58314798525592" lon="11.177193004387746"><ele>757.0</ele><time>2026-04-25T12:46:49.005Z</time></trkpt><trkpt lat="45.5831649312336" lon="11.17703929094075"><ele>757.0</ele><time>2026-04-25T12:46:50.005Z</time></trkpt><trkpt lat="45.58316525903371" lon="11.176903083361086"><ele>756.1666666666667</ele><time>2026-04-25T12:46:51.004Z</time></trkpt><trkpt lat="45.58313469119445" lon="11.176804839633952"><ele>755.3333333333334</ele><time>2026-04-25T12:46:52.004Z</time></trkpt><trkpt lat="45.583130315051214" lon="11.176702957014857"><ele>754.5</ele><time>2026-04-25T12:46:53.005Z</time></trkpt><trkpt lat="45.58313515584264" lon="11.176596011370046"><ele>753.6666666666666</ele><time>2026-04-25T12:46:54.005Z</time></trkpt><trkpt lat="45.583113662223724" lon="11.17646910981079"><ele>752.8333333333333</ele><time>2026-04-25T12:46:55.005Z</time></trkpt><trkpt lat="45.58307260305749" lon="11.176350004451887"><ele>752.0</ele><time>2026-04-25T12:46:56.005Z</time></trkpt><trkpt lat="45.58302674544187" lon="11.176184595178748"><ele>751.1666666666666</ele><time>2026-04-25T12:46:58.005Z</time></trkpt><trkpt lat="45.583011452876235" lon="11.176085501763449"><ele>750.3333333333333</ele><time>2026-04-25T12:46:59.005Z</time></trkpt><trkpt lat="45.582993010846245" lon="11.175953464849131"><ele>749.5</ele><time>2026-04-25T12:47:00.005Z</time></trkpt><trkpt lat="45.58297251690294" lon="11.175835072900352"><ele>748.6666666666666</ele><time>2026-04-25T12:47:01.005Z</time></trkpt><trkpt lat="45.58293826986821" lon="11.175684156022836"><ele>747.8333333333334</ele><time>2026-04-25T12:47:03.005Z</time></trkpt><trkpt lat="45.58294816356179" lon="11.175577358753886"><ele>747.0</ele><time>2026-04-25T12:47:04.005Z</time></trkpt><trkpt lat="45.58296524352141" lon="11.175483233042222"><ele>744.8333333333334</ele><time>2026-04-25T12:47:05.005Z</time></trkpt><trkpt lat="45.582977931453705" lon="11.175374400529238"><ele>742.6666666666666</ele><time>2026-04-25T12:47:06.005Z</time></trkpt><trkpt lat="45.583037396394936" lon="11.175260062352447"><ele>740.5</ele><time>2026-04-25T12:47:07.005Z</time></trkpt><trkpt lat="45.58305977846193" lon="11.175168779879238"><ele>738.3333333333333</ele><time>2026-04-25T12:47:08.005Z</time></trkpt><trkpt lat="45.58310131266908" lon="11.175015564515316"><ele>736.1666666666666</ele><time>2026-04-25T12:47:10.005Z</time></trkpt><trkpt lat="45.583124674442786" lon="11.174928744638473"><ele>734.0</ele><time>2026-04-25T12:47:11.005Z</time></trkpt><trkpt lat="45.58314365292136" lon="11.174755005662592"><ele>728.8000000000001</ele><time>2026-04-25T12:47:13.005Z</time></trkpt><trkpt lat="45.58319080919866" lon="11.17462164622873"><ele>723.6</ele><time>2026-04-25T12:47:15.005Z</time></trkpt><trkpt lat="45.58323947163871" lon="11.174549457791409"><ele>718.4</ele><time>2026-04-25T12:47:17.005Z</time></trkpt><trkpt lat="45.58338003647604" lon="11.174497603962513"><ele>713.2</ele><time>2026-04-25T12:47:21.005Z</time></trkpt><trkpt lat="45.58346464307743" lon="11.174511451639432"><ele>708.0</ele><time>2026-04-25T12:47:22.005Z</time></trkpt><trkpt lat="45.58355887919153" lon="11.1745717253294"><ele>708.0</ele><time>2026-04-25T12:47:24.005Z</time></trkpt><trkpt lat="45.583618483228435" lon="11.174608238972267"><ele>708.0</ele><time>2026-04-25T12:47:26.005Z</time></trkpt><trkpt lat="45.58368764020398" lon="11.174602707659936"><ele>708.0</ele><time>2026-04-25T12:47:29.005Z</time></trkpt><trkpt lat="45.5837030508688" lon="11.174468547633078"><ele>708.0</ele><time>2026-04-25T12:47:31.005Z</time></trkpt><trkpt lat="45.58370132103673" lon="11.174330451787133"><ele>708.0</ele><time>2026-04-25T12:47:32.005Z</time></trkpt><trkpt lat="45.58367408672307" lon="11.174123421681506"><ele>702.5</ele><time>2026-04-25T12:47:33.005Z</time></trkpt><trkpt lat="45.583628895319755" lon="11.173931398821692"><ele>697.0</ele><time>2026-04-25T12:47:34.005Z</time></trkpt><trkpt lat="45.58359239190527" lon="11.173761856850387"><ele>691.5</ele><time>2026-04-25T12:47:35.005Z</time></trkpt><trkpt lat="45.58355891035344" lon="11.1735863337067"><ele>686.0</ele><time>2026-04-25T12:47:36.005Z</time></trkpt><trkpt lat="45.58350393093516" lon="11.173387752455797"><ele>686.0</ele><time>2026-04-25T12:47:37.005Z</time></trkpt><trkpt lat="45.58346766817247" lon="11.173236819790684"><ele>686.0</ele><time>2026-04-25T12:47:38.005Z</time></trkpt><trkpt lat="45.58347316444688" lon="11.173058367046817"><ele>686.0</ele><time>2026-04-25T12:47:39.005Z</time></trkpt><trkpt lat="45.58348463810428" lon="11.172915342971024"><ele>686.0</ele><time>2026-04-25T12:47:40.005Z</time></trkpt><trkpt lat="45.58348143063639" lon="11.17282380533998"><ele>686.0</ele><time>2026-04-25T12:47:41.005Z</time></trkpt><trkpt lat="45.58349464635849" lon="11.17271963608277"><ele>684.5714285714286</ele><time>2026-04-25T12:50:09.005Z</time></trkpt><trkpt lat="45.583527514166946" lon="11.17264248138882"><ele>683.1428571428571</ele><time>2026-04-25T12:50:14.005Z</time></trkpt><trkpt lat="45.5835681759242" lon="11.17254351674904"><ele>681.7142857142858</ele><time>2026-04-25T12:50:18.005Z</time></trkpt><trkpt lat="45.583616739123315" lon="11.17245846588872"><ele>680.2857142857142</ele><time>2026-04-25T12:50:23.005Z</time></trkpt><trkpt lat="45.58365560757497" lon="11.17237844975648"><ele>678.8571428571429</ele><time>2026-04-25T12:50:27.005Z</time></trkpt><trkpt lat="45.58369970152571" lon="11.172287715317475"><ele>677.4285714285714</ele><time>2026-04-25T12:50:30.005Z</time></trkpt><trkpt lat="45.5837445202533" lon="11.172187143426928"><ele>676.0</ele><time>2026-04-25T12:50:34.005Z</time></trkpt><trkpt lat="45.58376837974858" lon="11.172093209806933"><ele>673.0</ele><time>2026-04-25T12:50:37.005Z</time></trkpt><trkpt lat="45.58381357139125" lon="11.172014524934708"><ele>670.0</ele><time>2026-04-25T12:50:40.005Z</time></trkpt><trkpt lat="45.58384375532866" lon="11.171909424035858"><ele>667.0</ele><time>2026-04-25T12:50:44.005Z</time></trkpt><trkpt lat="45.583862525667335" lon="11.17182061938615"><ele>664.0</ele><time>2026-04-25T12:51:10.006Z</time></trkpt><trkpt lat="45.58389617483227" lon="11.171679809742727"><ele>661.0</ele><time>2026-04-25T12:51:11.006Z</time></trkpt><trkpt lat="45.58383288557385" lon="11.171549984746187"><ele>658.0</ele><time>2026-04-25T12:52:23.005Z</time></trkpt><trkpt lat="45.583889494978486" lon="11.171494888758552"><ele>657.6666666666667</ele><time>2026-04-25T12:52:29.005Z</time></trkpt><trkpt lat="45.58397839507828" lon="11.171468476090427"><ele>657.3333333333334</ele><time>2026-04-25T12:52:34.005Z</time></trkpt><trkpt lat="45.58406011360591" lon="11.171401660391803"><ele>657.0</ele><time>2026-04-25T12:52:37.005Z</time></trkpt><trkpt lat="45.58411133977328" lon="11.171319896635648"><ele>656.6666666666666</ele><time>2026-04-25T12:52:40.005Z</time></trkpt><trkpt lat="45.58415032225909" lon="11.171224955788183"><ele>656.3333333333333</ele><time>2026-04-25T12:52:43.005Z</time></trkpt><trkpt lat="45.58416351363807" lon="11.17112463718173"><ele>656.0</ele><time>2026-04-25T12:52:45.005Z</time></trkpt><trkpt lat="45.584185593651334" lon="11.171034041699961"><ele>656.0</ele><time>2026-04-25T12:52:47.005Z</time></trkpt><trkpt lat="45.58423646087664" lon="11.170971897552555"><ele>656.0</ele><time>2026-04-25T12:52:52.005Z</time></trkpt><trkpt lat="45.584261982228846" lon="11.170844426185337"><ele>656.0</ele><time>2026-04-25T12:52:55.005Z</time></trkpt><trkpt lat="45.58429166174182" lon="11.170726403661218"><ele>656.0</ele><time>2026-04-25T12:52:57.005Z</time></trkpt><trkpt lat="45.58431694179285" lon="11.170621142911159"><ele>656.0</ele><time>2026-04-25T12:53:01.005Z</time></trkpt><trkpt lat="45.584337849637855" lon="11.170527400995898"><ele>656.0</ele><time>2026-04-25T12:53:04.007Z</time></trkpt><trkpt lat="45.58440199424406" lon="11.170404255581731"><ele>656.3333333333333</ele><time>2026-04-25T12:53:08.006Z</time></trkpt><trkpt lat="45.58445319249072" lon="11.170319447346163"><ele>656.6666666666666</ele><time>2026-04-25T12:53:12.006Z</time></trkpt><trkpt lat="45.58449299681956" lon="11.170244819997652"><ele>657.0</ele><time>2026-04-25T12:53:14.006Z</time></trkpt><trkpt lat="45.58456470681413" lon="11.17012557895541"><ele>657.3333333333334</ele><time>2026-04-25T12:53:16.007Z</time></trkpt><trkpt lat="45.58462482790981" lon="11.170034372884809"><ele>657.6666666666667</ele><time>2026-04-25T12:53:18.006Z</time></trkpt><trkpt lat="45.584684040543735" lon="11.16995515820142"><ele>658.0</ele><time>2026-04-25T12:53:20.006Z</time></trkpt><trkpt lat="45.584738416529824" lon="11.16987262812149"><ele>654.1666666666667</ele><time>2026-04-25T12:53:22.006Z</time></trkpt><trkpt lat="45.58476984023187" lon="11.169785030426896"><ele>650.3333333333334</ele><time>2026-04-25T12:53:24.006Z</time></trkpt><trkpt lat="45.58483614672981" lon="11.169686636888596"><ele>646.5</ele><time>2026-04-25T12:53:26.006Z</time></trkpt><trkpt lat="45.58485827530206" lon="11.169594985527532"><ele>642.6666666666666</ele><time>2026-04-25T12:53:29.006Z</time></trkpt><trkpt lat="45.58488049186381" lon="11.169491177062694"><ele>638.8333333333333</ele><time>2026-04-25T12:53:31.006Z</time></trkpt><trkpt lat="45.584897295566876" lon="11.169367742761565"><ele>635.0</ele><time>2026-04-25T12:53:34.006Z</time></trkpt><trkpt lat="45.58489657919011" lon="11.169266138169949"><ele>635.0</ele><time>2026-04-25T12:53:36.006Z</time></trkpt><trkpt lat="45.584915105990895" lon="11.169152067134197"><ele>635.0</ele><time>2026-04-25T12:53:38.006Z</time></trkpt><trkpt lat="45.58493548004296" lon="11.169039355014588"><ele>635.0</ele><time>2026-04-25T12:53:40.006Z</time></trkpt><trkpt lat="45.58493447521293" lon="11.168919111650506"><ele>635.0</ele><time>2026-04-25T12:53:43.006Z</time></trkpt><trkpt lat="45.584950668639344" lon="11.168805283696873"><ele>635.0</ele><time>2026-04-25T12:53:46.006Z</time></trkpt><trkpt lat="45.58495468200104" lon="11.168645192100163"><ele>635.0</ele><time>2026-04-25T12:53:48.006Z</time></trkpt><trkpt lat="45.584986442793024" lon="11.168566090921658"><ele>633.6666666666666</ele><time>2026-04-25T12:53:50.006Z</time></trkpt><trkpt lat="45.58498749957576" lon="11.168454236107973"><ele>632.3333333333333</ele><time>2026-04-25T12:53:53.006Z</time></trkpt><trkpt lat="45.584979147105926" lon="11.168354292788155"><ele>631.0</ele><time>2026-04-25T12:53:56.006Z</time></trkpt><trkpt lat="45.58498699369961" lon="11.168209994911095"><ele>629.6666666666666</ele><time>2026-04-25T12:53:59.006Z</time></trkpt><trkpt lat="45.58496971747816" lon="11.168083328259618"><ele>628.3333333333334</ele><time>2026-04-25T12:54:02.006Z</time></trkpt><trkpt lat="45.58495847559581" lon="11.167978225117562"><ele>627.0</ele><time>2026-04-25T12:54:04.006Z</time></trkpt><trkpt lat="45.58494573019968" lon="11.167851401691603"><ele>625.0</ele><time>2026-04-25T12:54:07.006Z</time></trkpt><trkpt lat="45.58493897672033" lon="11.167751825506055"><ele>623.0</ele><time>2026-04-25T12:54:09.006Z</time></trkpt><trkpt lat="45.58496829725549" lon="11.16761468460237"><ele>621.0</ele><time>2026-04-25T12:54:12.006Z</time></trkpt><trkpt lat="45.58491401686527" lon="11.16746957913108"><ele>619.0</ele><time>2026-04-25T12:54:15.006Z</time></trkpt><trkpt lat="45.58488427157615" lon="11.167384388937622"><ele>617.0</ele><time>2026-04-25T12:54:16.006Z</time></trkpt><trkpt lat="45.58487292308494" lon="11.167277872589736"><ele>615.0</ele><time>2026-04-25T12:54:17.006Z</time></trkpt><trkpt lat="45.58487915963214" lon="11.167163585902221"><ele>613.4</ele><time>2026-04-25T12:54:20.006Z</time></trkpt><trkpt lat="45.58481528236835" lon="11.167064488233363"><ele>611.8</ele><time>2026-04-25T12:54:22.006Z</time></trkpt><trkpt lat="45.58483150995829" lon="11.166925383452194"><ele>610.2</ele><time>2026-04-25T12:54:24.006Z</time></trkpt><trkpt lat="45.58480271154245" lon="11.166837875938333"><ele>608.6</ele><time>2026-04-25T12:54:26.006Z</time></trkpt><trkpt lat="45.584758463650566" lon="11.166701660027197"><ele>607.0</ele><time>2026-04-25T12:54:29.006Z</time></trkpt><trkpt lat="45.58472042419868" lon="11.166584258566632"><ele>607.6666666666667</ele><time>2026-04-25T12:54:33.006Z</time></trkpt><trkpt lat="45.58468586062562" lon="11.166478045161453"><ele>608.3333333333334</ele><time>2026-04-25T12:54:35.006Z</time></trkpt><trkpt lat="45.58467254167347" lon="11.16635236057021"><ele>609.0</ele><time>2026-04-25T12:54:38.006Z</time></trkpt><trkpt lat="45.58468371371947" lon="11.16625581520221"><ele>609.6666666666666</ele><time>2026-04-25T12:54:40.006Z</time></trkpt><trkpt lat="45.584672798716106" lon="11.166144544707166"><ele>610.3333333333333</ele><time>2026-04-25T12:54:42.006Z</time></trkpt><trkpt lat="45.58465673168191" lon="11.166044764514686"><ele>611.0</ele><time>2026-04-25T12:54:43.006Z</time></trkpt><trkpt lat="45.58465368993135" lon="11.165907735116244"><ele>611.0</ele><time>2026-04-25T12:54:44.006Z</time></trkpt><trkpt lat="45.58462634578011" lon="11.165790905905599"><ele>611.0</ele><time>2026-04-25T12:54:45.006Z</time></trkpt><trkpt lat="45.58458382333375" lon="11.165686558828682"><ele>611.0</ele><time>2026-04-25T12:54:46.006Z</time></trkpt><trkpt lat="45.584548537719854" lon="11.165587379871086"><ele>611.0</ele><time>2026-04-25T12:54:47.006Z</time></trkpt><trkpt lat="45.5844881788226" lon="11.165471590540587"><ele>611.0</ele><time>2026-04-25T12:54:48.006Z</time></trkpt><trkpt lat="45.5844409225478" lon="11.1653670299078"><ele>611.0</ele><time>2026-04-25T12:54:49.006Z</time></trkpt><trkpt lat="45.58436536679736" lon="11.165276027545383"><ele>603.0</ele><time>2026-04-25T12:54:50.006Z</time></trkpt><trkpt lat="45.584292831857795" lon="11.165184735665589"><ele>595.0</ele><time>2026-04-25T12:54:51.006Z</time></trkpt><trkpt lat="45.58423360747889" lon="11.165094937352078"><ele>587.0</ele><time>2026-04-25T12:54:52.006Z</time></trkpt><trkpt lat="45.5842289507257" lon="11.164985870688517"><ele>579.0</ele><time>2026-04-25T12:54:53.006Z</time></trkpt><trkpt lat="45.5842136604283" lon="11.164802063255348"><ele>571.0</ele><time>2026-04-25T12:54:54.006Z</time></trkpt><trkpt lat="45.58416695576489" lon="11.164623546902703"><ele>568.75</ele><time>2026-04-25T12:54:55.006Z</time></trkpt><trkpt lat="45.584094835344885" lon="11.164475009965171"><ele>566.5</ele><time>2026-04-25T12:54:56.006Z</time></trkpt><trkpt lat="45.584005962817585" lon="11.164325323556458"><ele>564.25</ele><time>2026-04-25T12:54:57.006Z</time></trkpt><trkpt lat="45.58395701236397" lon="11.16417094542387"><ele>562.0</ele><time>2026-04-25T12:54:58.006Z</time></trkpt><trkpt lat="45.58390736104722" lon="11.164028471689097"><ele>561.0</ele><time>2026-04-25T12:54:59.006Z</time></trkpt><trkpt lat="45.58386934837807" lon="11.163920072461872"><ele>560.0</ele><time>2026-04-25T12:55:00.006Z</time></trkpt><trkpt lat="45.58383905892684" lon="11.16381715678592"><ele>559.0</ele><time>2026-04-25T12:55:01.006Z</time></trkpt><trkpt lat="45.58380562170552" lon="11.163737064322916"><ele>558.0</ele><time>2026-04-25T12:55:02.006Z</time></trkpt><trkpt lat="45.58378375514193" lon="11.16358848723804"><ele>557.0</ele><time>2026-04-25T12:55:04.006Z</time></trkpt><trkpt lat="45.58381904537671" lon="11.163469365492752"><ele>556.0</ele><time>2026-04-25T12:55:06.006Z</time></trkpt><trkpt lat="45.583840872805446" lon="11.163367419811916"><ele>556.0</ele><time>2026-04-25T12:55:07.006Z</time></trkpt><trkpt lat="45.583901035646846" lon="11.163299899774776"><ele>556.0</ele><time>2026-04-25T12:55:09.006Z</time></trkpt><trkpt lat="45.58390549675724" lon="11.163203148889025"><ele>556.0</ele><time>2026-04-25T12:55:23.006Z</time></trkpt><trkpt lat="45.583915553478846" lon="11.163083712890845"><ele>556.0</ele><time>2026-04-25T12:55:26.006Z</time></trkpt><trkpt lat="45.58393737538672" lon="11.162960716967035"><ele>556.0</ele><time>2026-04-25T12:55:28.006Z</time></trkpt><trkpt lat="45.58399595300649" lon="11.16288481176756"><ele>556.0</ele><time>2026-04-25T12:55:29.006Z</time></trkpt><trkpt lat="45.58410191978383" lon="11.162791217524784"><ele>554.0</ele><time>2026-04-25T12:55:31.006Z</time></trkpt><trkpt lat="45.584145357902415" lon="11.162678941069391"><ele>552.0</ele><time>2026-04-25T12:55:32.006Z</time></trkpt><trkpt lat="45.584199627006086" lon="11.162569660159512"><ele>550.0</ele><time>2026-04-25T12:55:33.006Z</time></trkpt><trkpt lat="45.58425333828788" lon="11.162427570592612"><ele>548.0</ele><time>2026-04-25T12:55:34.006Z</time></trkpt><trkpt lat="45.58430654489196" lon="11.162255814450619"><ele>546.0</ele><time>2026-04-25T12:55:35.006Z</time></trkpt><trkpt lat="45.584389648994176" lon="11.162093421179256"><ele>545.4</ele><time>2026-04-25T12:55:36.006Z</time></trkpt><trkpt lat="45.584448426676204" lon="11.161917207596426"><ele>544.8</ele><time>2026-04-25T12:55:37.006Z</time></trkpt><trkpt lat="45.58449018042494" lon="11.161765088754263"><ele>544.1999999999999</ele><time>2026-04-25T12:55:38.006Z</time></trkpt><trkpt lat="45.584503930442445" lon="11.161651155132837"><ele>543.6</ele><time>2026-04-25T12:55:39.006Z</time></trkpt><trkpt lat="45.584528839245216" lon="11.161543698364468"><ele>543.0</ele><time>2026-04-25T12:55:40.006Z</time></trkpt><trkpt lat="45.58458963208107" lon="11.16145115152765"><ele>540.8</ele><time>2026-04-25T12:55:41.006Z</time></trkpt><trkpt lat="45.58464981456705" lon="11.161337492741506"><ele>538.5999999999999</ele><time>2026-04-25T12:55:42.006Z</time></trkpt><trkpt lat="45.58470494214427" lon="11.161207460451594"><ele>536.4000000000001</ele><time>2026-04-25T12:55:43.006Z</time></trkpt><trkpt lat="45.584739632236655" lon="11.161075093430131"><ele>534.2</ele><time>2026-04-25T12:55:44.006Z</time></trkpt><trkpt lat="45.584774692733596" lon="11.160910499369072"><ele>532.0</ele><time>2026-04-25T12:55:45.006Z</time></trkpt><trkpt lat="45.58478336768634" lon="11.16072392458065"><ele>531.5</ele><time>2026-04-25T12:55:46.006Z</time></trkpt><trkpt lat="45.58476187168354" lon="11.16054333115546"><ele>531.0</ele><time>2026-04-25T12:55:47.006Z</time></trkpt><trkpt lat="45.58474970686987" lon="11.160365206349413"><ele>530.5</ele><time>2026-04-25T12:55:48.006Z</time></trkpt><trkpt lat="45.584772658662004" lon="11.160228519067687"><ele>530.0</ele><time>2026-04-25T12:55:49.006Z</time></trkpt><trkpt lat="45.5848332073739" lon="11.160113921772359"><ele>530.0</ele><time>2026-04-25T12:55:50.006Z</time></trkpt><trkpt lat="45.584857189723095" lon="11.16001060258208"><ele>530.0</ele><time>2026-04-25T12:55:51.006Z</time></trkpt><trkpt lat="45.58485569269705" lon="11.159794011210828"><ele>530.0</ele><time>2026-04-25T12:55:53.006Z</time></trkpt><trkpt lat="45.584853109785946" lon="11.159608397246442"><ele>530.0</ele><time>2026-04-25T12:55:54.006Z</time></trkpt><trkpt lat="45.58483582877499" lon="11.159425162740524"><ele>529.6</ele><time>2026-04-25T12:55:55.006Z</time></trkpt><trkpt lat="45.58484117578545" lon="11.159278945268726"><ele>529.2</ele><time>2026-04-25T12:55:56.006Z</time></trkpt><trkpt lat="45.58482382934543" lon="11.159131448290077"><ele>528.8</ele><time>2026-04-25T12:55:57.006Z</time></trkpt><trkpt lat="45.58479429209149" lon="11.15899952556663"><ele>528.4</ele><time>2026-04-25T12:55:58.006Z</time></trkpt><trkpt lat="45.58475552095994" lon="11.158872866824144"><ele>528.0</ele><time>2026-04-25T12:55:59.006Z</time></trkpt><trkpt lat="45.58472084993184" lon="11.158717255949655"><ele>527.4</ele><time>2026-04-25T12:56:00.006Z</time></trkpt><trkpt lat="45.58469223659774" lon="11.158574346778789"><ele>526.8</ele><time>2026-04-25T12:56:01.006Z</time></trkpt><trkpt lat="45.5846802713805" lon="11.158422422879651"><ele>526.2</ele><time>2026-04-25T12:56:02.006Z</time></trkpt><trkpt lat="45.584676407158156" lon="11.158297065722632"><ele>525.6</ele><time>2026-04-25T12:56:03.006Z</time></trkpt><trkpt lat="45.584684142981814" lon="11.158181753143799"><ele>525.0</ele><time>2026-04-25T12:56:04.006Z</time></trkpt><trkpt lat="45.58473730511654" lon="11.15808209844529"><ele>525.0</ele><time>2026-04-25T12:56:05.006Z</time></trkpt><trkpt lat="45.5847847554126" lon="11.157964242074831"><ele>525.0</ele><time>2026-04-25T12:56:06.006Z</time></trkpt><trkpt lat="45.58482331666648" lon="11.157807605561011"><ele>525.0</ele><time>2026-04-25T12:56:07.006Z</time></trkpt><trkpt lat="45.58483790661387" lon="11.157618964233377"><ele>525.0</ele><time>2026-04-25T12:56:08.006Z</time></trkpt><trkpt lat="45.584832469350644" lon="11.157439146957657"><ele>524.8</ele><time>2026-04-25T12:56:09.006Z</time></trkpt><trkpt lat="45.58484486681131" lon="11.157276121282422"><ele>524.6</ele><time>2026-04-25T12:56:10.006Z</time></trkpt><trkpt lat="45.58486048088138" lon="11.157120130200479"><ele>524.4</ele><time>2026-04-25T12:56:11.006Z</time></trkpt><trkpt lat="45.58488574785994" lon="11.156976805724174"><ele>524.2</ele><time>2026-04-25T12:56:12.006Z</time></trkpt><trkpt lat="45.58490578444557" lon="11.156813360454244"><ele>524.0</ele><time>2026-04-25T12:56:13.006Z</time></trkpt><trkpt lat="45.58489264028546" lon="11.156671324227391"><ele>524.0</ele><time>2026-04-25T12:56:14.006Z</time></trkpt><trkpt lat="45.58488854998056" lon="11.156553391381482"><ele>524.0</ele><time>2026-04-25T12:56:15.006Z</time></trkpt><trkpt lat="45.58490813737548" lon="11.15641566075257"><ele>524.0</ele><time>2026-04-25T12:56:16.006Z</time></trkpt><trkpt lat="45.58492732602442" lon="11.15626923808356"><ele>524.0</ele><time>2026-04-25T12:56:17.006Z</time></trkpt><trkpt lat="45.58494246599033" lon="11.156102310317696"><ele>524.0</ele><time>2026-04-25T12:56:18.006Z</time></trkpt><trkpt lat="45.58494457504136" lon="11.15591332231592"><ele>523.5</ele><time>2026-04-25T12:56:19.006Z</time></trkpt><trkpt lat="45.58495103846205" lon="11.155736709531991"><ele>523.0</ele><time>2026-04-25T12:56:20.006Z</time></trkpt><trkpt lat="45.58495316490585" lon="11.15553860495775"><ele>522.5</ele><time>2026-04-25T12:56:21.006Z</time></trkpt><trkpt lat="45.584955399981325" lon="11.155355729321244"><ele>522.0</ele><time>2026-04-25T12:56:22.006Z</time></trkpt><trkpt lat="45.58495159639618" lon="11.155177469639675"><ele>520.0</ele><time>2026-04-25T12:56:23.006Z</time></trkpt><trkpt lat="45.58496594086495" lon="11.155010686596142"><ele>518.0</ele><time>2026-04-25T12:56:24.006Z</time></trkpt><trkpt lat="45.58499511179476" lon="11.154864605401194"><ele>516.0</ele><time>2026-04-25T12:56:25.006Z</time></trkpt><trkpt lat="45.585058475537906" lon="11.154740414313592"><ele>514.0</ele><time>2026-04-25T12:56:26.006Z</time></trkpt><trkpt lat="45.5851566881233" lon="11.154671759555923"><ele>512.0</ele><time>2026-04-25T12:56:27.006Z</time></trkpt><trkpt lat="45.58529141493435" lon="11.154679822681606"><ele>510.49999999999994</ele><time>2026-04-25T12:56:28.006Z</time></trkpt><trkpt lat="45.58535802878926" lon="11.154687739025492"><ele>509.0</ele><time>2026-04-25T12:56:29.006Z</time></trkpt><trkpt lat="45.58540667676199" lon="11.154608710907436"><ele>507.5</ele><time>2026-04-25T12:56:30.006Z</time></trkpt><trkpt lat="45.585409151545726" lon="11.154493218450005"><ele>506.0</ele><time>2026-04-25T12:56:31.006Z</time></trkpt><trkpt lat="45.58536715320182" lon="11.154357615493405"><ele>504.49999999999994</ele><time>2026-04-25T12:56:32.006Z</time></trkpt><trkpt lat="45.585306753152956" lon="11.154245222541796"><ele>503.0</ele><time>2026-04-25T12:56:33.006Z</time></trkpt><trkpt lat="45.58523255336663" lon="11.154135799785204"><ele>500.75</ele><time>2026-04-25T12:56:34.006Z</time></trkpt><trkpt lat="45.58517108000039" lon="11.154011617904521"><ele>498.5</ele><time>2026-04-25T12:56:35.006Z</time></trkpt><trkpt lat="45.58509115772788" lon="11.153890624022564"><ele>496.25</ele><time>2026-04-25T12:56:36.006Z</time></trkpt><trkpt lat="45.58499091752294" lon="11.153776759468393"><ele>494.0</ele><time>2026-04-25T12:56:37.006Z</time></trkpt><trkpt lat="45.58490751687364" lon="11.153668321205297"><ele>494.0</ele><time>2026-04-25T12:56:38.006Z</time></trkpt><trkpt lat="45.5847985851174" lon="11.153542162365806"><ele>494.0</ele><time>2026-04-25T12:56:39.006Z</time></trkpt><trkpt lat="45.584705519809354" lon="11.153411615599905"><ele>494.0</ele><time>2026-04-25T12:56:40.006Z</time></trkpt><trkpt lat="45.58463398289067" lon="11.153289419070965"><ele>494.0</ele><time>2026-04-25T12:56:41.006Z</time></trkpt><trkpt lat="45.58455574821841" lon="11.153174952516645"><ele>493.16666666666663</ele><time>2026-04-25T12:56:42.006Z</time></trkpt><trkpt lat="45.58450892636789" lon="11.153076768705347"><ele>492.3333333333333</ele><time>2026-04-25T12:56:43.006Z</time></trkpt><trkpt lat="45.58448749102789" lon="11.152976905876445"><ele>491.5</ele><time>2026-04-25T12:56:44.006Z</time></trkpt><trkpt lat="45.5844691268236" lon="11.15286003772421"><ele>490.66666666666663</ele><time>2026-04-25T12:56:45.006Z</time></trkpt><trkpt lat="45.584458441831984" lon="11.15273811825464"><ele>489.8333333333333</ele><time>2026-04-25T12:56:46.006Z</time></trkpt><trkpt lat="45.584444231115306" lon="11.152613568003707"><ele>489.0</ele><time>2026-04-25T12:56:47.006Z</time></trkpt><trkpt lat="45.584430722805905" lon="11.152485763838287"><ele>489.0</ele><time>2026-04-25T12:56:48.006Z</time></trkpt><trkpt lat="45.58442165890118" lon="11.152376763688933"><ele>489.0</ele><time>2026-04-25T12:56:49.006Z</time></trkpt><trkpt lat="45.5844033751777" lon="11.152280928328453"><ele>489.0</ele><time>2026-04-25T12:56:50.006Z</time></trkpt><trkpt lat="45.58440228025435" lon="11.152190442177808"><ele>489.0</ele><time>2026-04-25T12:56:51.006Z</time></trkpt><trkpt lat="45.5844202114132" lon="11.152099027329136"><ele>489.0</ele><time>2026-04-25T12:56:53.006Z</time></trkpt><trkpt lat="45.58448843561183" lon="11.152059279489459"><ele>489.0</ele><time>2026-04-25T12:56:55.006Z</time></trkpt><trkpt lat="45.58463339346567" lon="11.152045587064306"><ele>488.79999999999995</ele><time>2026-04-25T12:56:57.006Z</time></trkpt><trkpt lat="45.584736910808004" lon="11.152059176621824"><ele>488.59999999999997</ele><time>2026-04-25T12:56:58.006Z</time></trkpt><trkpt lat="45.584820887496335" lon="11.152015346508723"><ele>488.4</ele><time>2026-04-25T12:56:59.006Z</time></trkpt><trkpt lat="45.58488946061696" lon="11.151963806713775"><ele>488.2</ele><time>2026-04-25T12:57:00.006Z</time></trkpt><trkpt lat="45.58499520513311" lon="11.151980358232077"><ele>488.0</ele><time>2026-04-25T12:57:01.006Z</time></trkpt><trkpt lat="45.58510606754041" lon="11.151992415896402"><ele>487.99999999999994</ele><time>2026-04-25T12:57:02.006Z</time></trkpt><trkpt lat="45.585200064671135" lon="11.151983226260409"><ele>488.0</ele><time>2026-04-25T12:57:03.006Z</time></trkpt><trkpt lat="45.585265812774175" lon="11.151987829032699"><ele>488.0</ele><time>2026-04-25T12:57:04.006Z</time></trkpt><trkpt lat="45.585262421391676" lon="11.151815179540836"><ele>488.0</ele><time>2026-04-25T12:57:08.006Z</time></trkpt><trkpt lat="45.58522314586564" lon="11.151726493020583"><ele>487.99999999999994</ele><time>2026-04-25T12:57:09.006Z</time></trkpt><trkpt lat="45.58519009645012" lon="11.151627121967527"><ele>488.0</ele><time>2026-04-25T12:57:10.006Z</time></trkpt><trkpt lat="45.585169210963734" lon="11.151534743965028"><ele>490.2</ele><time>2026-04-25T12:57:11.006Z</time></trkpt><trkpt lat="45.585214810627384" lon="11.151432820054323"><ele>492.4</ele><time>2026-04-25T12:57:13.006Z</time></trkpt><trkpt lat="45.58526321503793" lon="11.151324992510153"><ele>494.59999999999997</ele><time>2026-04-25T12:57:15.006Z</time></trkpt><trkpt lat="45.58534308990013" lon="11.151234873925002"><ele>496.79999999999995</ele><time>2026-04-25T12:57:17.006Z</time></trkpt><trkpt lat="45.58543301337477" lon="11.151260491538181"><ele>499.0</ele><time>2026-04-25T12:57:19.007Z</time></trkpt><trkpt lat="45.58553024345656" lon="11.151304684510986"><ele>501.0</ele><time>2026-04-25T12:57:21.007Z</time></trkpt><trkpt lat="45.58563577788979" lon="11.15129205484979"><ele>503.0</ele><time>2026-04-25T12:57:23.007Z</time></trkpt><trkpt lat="45.58570033582238" lon="11.151327572780826"><ele>505.0</ele><time>2026-04-25T12:57:26.007Z</time></trkpt><trkpt lat="45.58573565280836" lon="11.15125114274907"><ele>507.0</ele><time>2026-04-25T12:57:29.007Z</time></trkpt><trkpt lat="45.58581618167714" lon="11.15118583990353"><ele>509.0</ele><time>2026-04-25T12:57:32.007Z</time></trkpt><trkpt lat="45.585967190106714" lon="11.151186630226656"><ele>509.0</ele><time>2026-04-25T12:57:35.007Z</time></trkpt><trkpt lat="45.58606994240325" lon="11.151178072972876"><ele>509.0</ele><time>2026-04-25T12:57:36.007Z</time></trkpt><trkpt lat="45.58618282425931" lon="11.151166765323467"><ele>509.0</ele><time>2026-04-25T12:57:37.007Z</time></trkpt><trkpt lat="45.58627850746812" lon="11.151178490729537"><ele>509.0</ele><time>2026-04-25T12:57:38.007Z</time></trkpt><trkpt lat="45.58639339273935" lon="11.151205299659324"><ele>509.0</ele><time>2026-04-25T12:57:39.007Z</time></trkpt><trkpt lat="45.586497186663046" lon="11.151230575791478"><ele>510.4</ele><time>2026-04-25T12:57:40.007Z</time></trkpt><trkpt lat="45.586603924835245" lon="11.151227337482384"><ele>511.79999999999995</ele><time>2026-04-25T12:57:41.007Z</time></trkpt><trkpt lat="45.586669898779064" lon="11.15125416430662"><ele>513.2</ele><time>2026-04-25T12:57:42.007Z</time></trkpt><trkpt lat="45.586747903330945" lon="11.15124052358753"><ele>514.6</ele><time>2026-04-25T12:57:43.007Z</time></trkpt><trkpt lat="45.586828943996885" lon="11.151214649573927"><ele>516.0</ele><time>2026-04-25T12:57:44.007Z</time></trkpt><trkpt lat="45.58696839890227" lon="11.151106416577703"><ele>516.6666666666666</ele><time>2026-04-25T12:57:46.007Z</time></trkpt><trkpt lat="45.587041870163475" lon="11.151081635142386"><ele>517.3333333333334</ele><time>2026-04-25T12:57:47.007Z</time></trkpt><trkpt lat="45.58712631334364" lon="11.151054231069422"><ele>518.0</ele><time>2026-04-25T12:57:48.007Z</time></trkpt><trkpt lat="45.58721507072963" lon="11.151016642056211"><ele>518.6666666666667</ele><time>2026-04-25T12:57:49.007Z</time></trkpt><trkpt lat="45.587280173205684" lon="11.150957992654572"><ele>519.3333333333334</ele><time>2026-04-25T12:57:50.007Z</time></trkpt><trkpt lat="45.58735511898625" lon="11.150853738877354"><ele>520.0</ele><time>2026-04-25T12:57:52.007Z</time></trkpt><trkpt lat="45.58741129395417" lon="11.150777286199482"><ele>520.0</ele><time>2026-04-25T12:57:54.007Z</time></trkpt><trkpt lat="45.58748434171128" lon="11.150855475589237"><ele>520.0</ele><time>2026-04-25T12:57:56.007Z</time></trkpt><trkpt lat="45.587537902667385" lon="11.150988027679357"><ele>520.0</ele><time>2026-04-25T12:57:58.007Z</time></trkpt><trkpt lat="45.587631474319615" lon="11.150994739563988"><ele>520.0</ele><time>2026-04-25T12:57:59.007Z</time></trkpt><trkpt lat="45.58771007056671" lon="11.151023407860736"><ele>520.0</ele><time>2026-04-25T12:58:00.006Z</time></trkpt><trkpt lat="45.587786924409464" lon="11.151041694496033"><ele>521.8</ele><time>2026-04-25T12:58:01.006Z</time></trkpt><trkpt lat="45.58788352618678" lon="11.151074348204418"><ele>523.6</ele><time>2026-04-25T12:58:02.006Z</time></trkpt><trkpt lat="45.587974078506164" lon="11.151072328286043"><ele>525.4</ele><time>2026-04-25T12:58:03.006Z</time></trkpt><trkpt lat="45.588086560116565" lon="11.151041356201665"><ele>527.2</ele><time>2026-04-25T12:58:04.006Z</time></trkpt><trkpt lat="45.58819877381451" lon="11.15100517826188"><ele>529.0</ele><time>2026-04-25T12:58:05.006Z</time></trkpt><trkpt lat="45.58832034504615" lon="11.150986266127678"><ele>529.0</ele><time>2026-04-25T12:58:06.006Z</time></trkpt><trkpt lat="45.58841833066174" lon="11.150956339248271"><ele>529.0</ele><time>2026-04-25T12:58:07.006Z</time></trkpt><trkpt lat="45.58851511832566" lon="11.150940495035195"><ele>529.0</ele><time>2026-04-25T12:58:08.006Z</time></trkpt><trkpt lat="45.58860145343527" lon="11.150932512698008"><ele>529.0</ele><time>2026-04-25T12:58:09.006Z</time></trkpt><trkpt lat="45.588692362307285" lon="11.150876289639479"><ele>529.0</ele><time>2026-04-25T12:58:10.006Z</time></trkpt><trkpt lat="45.588800217322486" lon="11.150874083928684"><ele>528.75</ele><time>2026-04-25T12:58:11.006Z</time></trkpt><trkpt lat="45.588901127231196" lon="11.150843276693141"><ele>528.5</ele><time>2026-04-25T12:58:12.006Z</time></trkpt><trkpt lat="45.5890260877831" lon="11.150819406439593"><ele>528.25</ele><time>2026-04-25T12:58:13.006Z</time></trkpt><trkpt lat="45.5891556551241" lon="11.150754232184548"><ele>528.0</ele><time>2026-04-25T12:58:14.006Z</time></trkpt><trkpt lat="45.589277176159854" lon="11.150709681654916"><ele>532.1999999999999</ele><time>2026-04-25T12:58:15.006Z</time></trkpt><trkpt lat="45.58937232368983" lon="11.150653474635162"><ele>536.4</ele><time>2026-04-25T12:58:16.006Z</time></trkpt><trkpt lat="45.58947688791688" lon="11.150642296704703"><ele>540.5999999999999</ele><time>2026-04-25T12:58:17.006Z</time></trkpt><trkpt lat="45.58958290260197" lon="11.15060330228479"><ele>544.8</ele><time>2026-04-25T12:58:18.006Z</time></trkpt><trkpt lat="45.58969417704597" lon="11.150562630899152"><ele>549.0</ele><time>2026-04-25T12:58:19.006Z</time></trkpt><trkpt lat="45.589775180625445" lon="11.150503506186785"><ele>549.4</ele><time>2026-04-25T12:58:20.006Z</time></trkpt><trkpt lat="45.58984494031814" lon="11.15047790386041"><ele>549.8</ele><time>2026-04-25T12:58:21.006Z</time></trkpt><trkpt lat="45.589917012056084" lon="11.150377839124099"><ele>550.2</ele><time>2026-04-25T12:58:23.006Z</time></trkpt><trkpt lat="45.59005269577885" lon="11.15035651312857"><ele>550.6</ele><time>2026-04-25T12:58:25.006Z</time></trkpt><trkpt lat="45.5901523935041" lon="11.150333588415178"><ele>551.0</ele><time>2026-04-25T12:58:26.006Z</time></trkpt><trkpt lat="45.5902484459807" lon="11.15031102993221"><ele>551.0</ele><time>2026-04-25T12:58:27.006Z</time></trkpt><trkpt lat="45.59034083116635" lon="11.15028991585604"><ele>551.0</ele><time>2026-04-25T12:58:28.006Z</time></trkpt><trkpt lat="45.59046205118155" lon="11.150252953505873"><ele>551.0</ele><time>2026-04-25T12:58:29.006Z</time></trkpt><trkpt lat="45.59055620493453" lon="11.150216684081071"><ele>551.0</ele><time>2026-04-25T12:58:30.006Z</time></trkpt><trkpt lat="45.590632334134696" lon="11.150168446832158"><ele>551.0</ele><time>2026-04-25T12:58:31.006Z</time></trkpt><trkpt lat="45.59068811556658" lon="11.150091771065936"><ele>551.0</ele><time>2026-04-25T12:58:33.006Z</time></trkpt><trkpt lat="45.590702753096735" lon="11.149961595856404"><ele>551.0</ele><time>2026-04-25T12:58:35.006Z</time></trkpt><trkpt lat="45.59066433931259" lon="11.149854117298899"><ele>551.0</ele><time>2026-04-25T12:58:36.006Z</time></trkpt><trkpt lat="45.59052222723578" lon="11.149877796484887"><ele>551.0</ele><time>2026-04-25T12:58:38.006Z</time></trkpt><trkpt lat="45.59041074215593" lon="11.149894616559658"><ele>551.0</ele><time>2026-04-25T12:58:39.006Z</time></trkpt><trkpt lat="45.59029260120565" lon="11.149900593089793"><ele>551.0</ele><time>2026-04-25T12:58:40.006Z</time></trkpt><trkpt lat="45.59018244805719" lon="11.149885473935688"><ele>551.0</ele><time>2026-04-25T12:58:41.006Z</time></trkpt><trkpt lat="45.59007963386771" lon="11.149863092965893"><ele>551.0</ele><time>2026-04-25T12:58:42.006Z</time></trkpt><trkpt lat="45.58995710927263" lon="11.149848362490891"><ele>551.0</ele><time>2026-04-25T12:58:43.006Z</time></trkpt><trkpt lat="45.58983700830409" lon="11.149861398045953"><ele>551.0</ele><time>2026-04-25T12:58:44.006Z</time></trkpt><trkpt lat="45.589732793331294" lon="11.149955619504722"><ele>551.0</ele><time>2026-04-25T12:58:45.006Z</time></trkpt><trkpt lat="45.58964829206276" lon="11.150074162456463"><ele>551.0</ele><time>2026-04-25T12:58:46.006Z</time></trkpt><trkpt lat="45.58954552422341" lon="11.15013899063468"><ele>551.0</ele><time>2026-04-25T12:58:47.006Z</time></trkpt><trkpt lat="45.58941677442231" lon="11.150129924777794"><ele>550.5</ele><time>2026-04-25T12:58:48.006Z</time></trkpt><trkpt lat="45.58927709358048" lon="11.150117587528518"><ele>550.0</ele><time>2026-04-25T12:58:49.006Z</time></trkpt><trkpt lat="45.58914569111242" lon="11.150125127188867"><ele>549.5</ele><time>2026-04-25T12:58:50.006Z</time></trkpt><trkpt lat="45.58901407385653" lon="11.150117288183349"><ele>549.0</ele><time>2026-04-25T12:58:51.006Z</time></trkpt><trkpt lat="45.58888939155449" lon="11.150129483703042"><ele>549.0</ele><time>2026-04-25T12:58:52.006Z</time></trkpt><trkpt lat="45.58876636177932" lon="11.150154668940038"><ele>549.0</ele><time>2026-04-25T12:58:53.006Z</time></trkpt><trkpt lat="45.58866813200146" lon="11.150198847239082"><ele>549.0</ele><time>2026-04-25T12:58:54.006Z</time></trkpt><trkpt lat="45.58857279185206" lon="11.150184584202105"><ele>549.0</ele><time>2026-04-25T12:58:55.006Z</time></trkpt><trkpt lat="45.58847978198466" lon="11.150063740324468"><ele>549.0</ele><time>2026-04-25T12:58:57.006Z</time></trkpt><trkpt lat="45.58841059601797" lon="11.149961553091162"><ele>549.0</ele><time>2026-04-25T12:58:58.006Z</time></trkpt><trkpt lat="45.588331241034176" lon="11.149883842284302"><ele>549.0</ele><time>2026-04-25T12:58:59.006Z</time></trkpt><trkpt lat="45.588253422982646" lon="11.149803938102123"><ele>549.0</ele><time>2026-04-25T12:59:00.006Z</time></trkpt><trkpt lat="45.588167119190196" lon="11.149744758846126"><ele>549.0</ele><time>2026-04-25T12:59:01.006Z</time></trkpt><trkpt lat="45.58805526522397" lon="11.14969749411594"><ele>549.0</ele><time>2026-04-25T12:59:02.006Z</time></trkpt><trkpt lat="45.587935254683266" lon="11.149668536904832"><ele>549.8</ele><time>2026-04-25T12:59:03.006Z</time></trkpt><trkpt lat="45.58783492379216" lon="11.149610037149014"><ele>550.5999999999999</ele><time>2026-04-25T12:59:04.006Z</time></trkpt><trkpt lat="45.58772178676476" lon="11.149601704232674"><ele>551.4</ele><time>2026-04-25T12:59:05.006Z</time></trkpt><trkpt lat="45.58761243699136" lon="11.149635458348099"><ele>552.1999999999999</ele><time>2026-04-25T12:59:06.006Z</time></trkpt><trkpt lat="45.587512064875" lon="11.149684036395524"><ele>553.0</ele><time>2026-04-25T12:59:07.006Z</time></trkpt><trkpt lat="45.587422085634195" lon="11.149742348503075"><ele>553.0</ele><time>2026-04-25T12:59:08.006Z</time></trkpt><trkpt lat="45.58735122165463" lon="11.149821207086363"><ele>553.0</ele><time>2026-04-25T12:59:09.006Z</time></trkpt><trkpt lat="45.58729015965742" lon="11.149942387990583"><ele>553.0</ele><time>2026-04-25T12:59:10.006Z</time></trkpt><trkpt lat="45.58721950309816" lon="11.15001985080704"><ele>553.0</ele><time>2026-04-25T12:59:11.006Z</time></trkpt><trkpt lat="45.587117158479614" lon="11.150100838595009"><ele>553.0</ele><time>2026-04-25T12:59:12.006Z</time></trkpt><trkpt lat="45.587009093043285" lon="11.15010888367791"><ele>551.8333333333334</ele><time>2026-04-25T12:59:13.006Z</time></trkpt><trkpt lat="45.586911105673636" lon="11.150121287963612"><ele>550.6666666666667</ele><time>2026-04-25T12:59:14.006Z</time></trkpt><trkpt lat="45.5868099445062" lon="11.150105284124407"><ele>549.5</ele><time>2026-04-25T12:59:15.006Z</time></trkpt><trkpt lat="45.58673098267582" lon="11.150117398649119"><ele>548.3333333333334</ele><time>2026-04-25T12:59:16.006Z</time></trkpt><trkpt lat="45.586651048225036" lon="11.150116906514125"><ele>547.1666666666666</ele><time>2026-04-25T12:59:17.006Z</time></trkpt><trkpt lat="45.586577456287394" lon="11.150114565240818"><ele>546.0</ele><time>2026-04-25T12:59:18.006Z</time></trkpt><trkpt lat="45.586507380603415" lon="11.150109450990733"><ele>546.0</ele><time>2026-04-25T12:59:19.006Z</time></trkpt><trkpt lat="45.58643457266086" lon="11.150119175464587"><ele>546.0</ele><time>2026-04-25T12:59:20.006Z</time></trkpt><trkpt lat="45.58633856507844" lon="11.150064047404271"><ele>546.0</ele><time>2026-04-25T12:59:22.008Z</time></trkpt><trkpt lat="45.58625093731481" lon="11.150044526736504"><ele>546.0</ele><time>2026-04-25T12:59:42.007Z</time></trkpt><trkpt lat="45.58616533091075" lon="11.149995145004558"><ele>546.0</ele><time>2026-04-25T12:59:44.007Z</time></trkpt><trkpt lat="45.58609942118055" lon="11.149968601395775"><ele>546.0</ele><time>2026-04-25T12:59:45.007Z</time></trkpt><trkpt lat="45.585993084747365" lon="11.149944559974443"><ele>545.4</ele><time>2026-04-25T12:59:46.007Z</time></trkpt><trkpt lat="45.585875555899925" lon="11.14991932647182"><ele>544.8</ele><time>2026-04-25T12:59:47.007Z</time></trkpt><trkpt lat="45.58577462930926" lon="11.149908637433986"><ele>544.1999999999999</ele><time>2026-04-25T12:59:48.007Z</time></trkpt><trkpt lat="45.58568432645671" lon="11.14985654801107"><ele>543.6</ele><time>2026-04-25T12:59:49.007Z</time></trkpt><trkpt lat="45.58559504412822" lon="11.14981881921934"><ele>543.0</ele><time>2026-04-25T12:59:50.007Z</time></trkpt><trkpt lat="45.58550818827148" lon="11.149779969940598"><ele>543.0</ele><time>2026-04-25T12:59:51.007Z</time></trkpt><trkpt lat="45.585431164559694" lon="11.149749232592807"><ele>543.0</ele><time>2026-04-25T12:59:52.007Z</time></trkpt><trkpt lat="45.585355441585484" lon="11.149661389036366"><ele>543.0</ele><time>2026-04-25T12:59:54.007Z</time></trkpt><trkpt lat="45.58535714441967" lon="11.149551717174404"><ele>543.0</ele><time>2026-04-25T12:59:55.007Z</time></trkpt><trkpt lat="45.58536129465078" lon="11.149414253909455"><ele>543.0</ele><time>2026-04-25T12:59:56.007Z</time></trkpt><trkpt lat="45.58537288380652" lon="11.149252867856658"><ele>543.0</ele><time>2026-04-25T12:59:57.007Z</time></trkpt><trkpt lat="45.585380516510206" lon="11.149114757447576"><ele>543.0</ele><time>2026-04-25T12:59:58.007Z</time></trkpt><trkpt lat="45.585395461073325" lon="11.149001507783959"><ele>543.0</ele><time>2026-04-25T12:59:59.007Z</time></trkpt><trkpt lat="45.58546425273907" lon="11.148854630626367"><ele>543.0</ele><time>2026-04-25T13:00:01.007Z</time></trkpt><trkpt lat="45.585512965336456" lon="11.14876638429398"><ele>543.0</ele><time>2026-04-25T13:00:02.007Z</time></trkpt><trkpt lat="45.58553104986907" lon="11.148663922518958"><ele>543.3333333333334</ele><time>2026-04-25T13:00:03.007Z</time></trkpt><trkpt lat="45.5855296801847" lon="11.148538401519833"><ele>543.6666666666666</ele><time>2026-04-25T13:00:04.007Z</time></trkpt><trkpt lat="45.58552139128063" lon="11.148444302700437"><ele>544.0</ele><time>2026-04-25T13:00:05.007Z</time></trkpt><trkpt lat="45.58550070827839" lon="11.148349580952939"><ele>544.3333333333333</ele><time>2026-04-25T13:00:06.007Z</time></trkpt><trkpt lat="45.585437824006625" lon="11.148266813686355"><ele>544.6666666666666</ele><time>2026-04-25T13:00:07.007Z</time></trkpt><trkpt lat="45.5853959949747" lon="11.148176681721317"><ele>545.0</ele><time>2026-04-25T13:00:08.007Z</time></trkpt><trkpt lat="45.58530781684241" lon="11.148039844882184"><ele>546.75</ele><time>2026-04-25T13:00:09.007Z</time></trkpt><trkpt lat="45.585242110781174" lon="11.147861196168346"><ele>548.5</ele><time>2026-04-25T13:00:10.007Z</time></trkpt><trkpt lat="45.585166681043205" lon="11.147694877617756"><ele>550.25</ele><time>2026-04-25T13:00:11.007Z</time></trkpt><trkpt lat="45.58512667690111" lon="11.147540338944525"><ele>552.0</ele><time>2026-04-25T13:00:12.007Z</time></trkpt><trkpt lat="45.58508862307441" lon="11.147381058844019"><ele>556.4</ele><time>2026-04-25T13:00:13.007Z</time></trkpt><trkpt lat="45.58508415878654" lon="11.147239627423302"><ele>560.8000000000001</ele><time>2026-04-25T13:00:14.007Z</time></trkpt><trkpt lat="45.58507516354016" lon="11.147105654647666"><ele>565.2</ele><time>2026-04-25T13:00:15.007Z</time></trkpt><trkpt lat="45.58503594408869" lon="11.147002072175537"><ele>569.6</ele><time>2026-04-25T13:00:17.007Z</time></trkpt><trkpt lat="45.58492079935382" lon="11.146994545480467"><ele>574.0</ele><time>2026-04-25T13:00:19.007Z</time></trkpt><trkpt lat="45.5848393109991" lon="11.146956938871782"><ele>574.0</ele><time>2026-04-25T13:00:20.007Z</time></trkpt><trkpt lat="45.58476524891528" lon="11.146906508809733"><ele>574.0</ele><time>2026-04-25T13:00:21.007Z</time></trkpt><trkpt lat="45.58469500686038" lon="11.14681492454707"><ele>574.0</ele><time>2026-04-25T13:00:22.007Z</time></trkpt><trkpt lat="45.58462086692705" lon="11.146685530077786"><ele>574.0</ele><time>2026-04-25T13:00:23.007Z</time></trkpt><trkpt lat="45.584512581302064" lon="11.14659911276053"><ele>574.0</ele><time>2026-04-25T13:00:24.007Z</time></trkpt><trkpt lat="45.58445139667278" lon="11.146544462522677"><ele>572.25</ele><time>2026-04-25T13:00:25.007Z</time></trkpt><trkpt lat="45.58435597721634" lon="11.14655069099909"><ele>570.5</ele><time>2026-04-25T13:00:26.007Z</time></trkpt><trkpt lat="45.58424660543341" lon="11.146549958691002"><ele>568.75</ele><time>2026-04-25T13:00:27.007Z</time></trkpt><trkpt lat="45.58410944561675" lon="11.146581404931224"><ele>567.0</ele><time>2026-04-25T13:00:28.007Z</time></trkpt><trkpt lat="45.583975187962025" lon="11.146590706890906"><ele>567.0</ele><time>2026-04-25T13:00:29.007Z</time></trkpt><trkpt lat="45.58386105129248" lon="11.146597206889354"><ele>567.0</ele><time>2026-04-25T13:00:30.007Z</time></trkpt><trkpt lat="45.58377354805879" lon="11.146621846120171"><ele>567.0</ele><time>2026-04-25T13:00:31.007Z</time></trkpt><trkpt lat="45.58372165144565" lon="11.146761866238352"><ele>567.0</ele><time>2026-04-25T13:00:33.007Z</time></trkpt><trkpt lat="45.583674832431534" lon="11.146873159825057"><ele>567.0</ele><time>2026-04-25T13:00:34.007Z</time></trkpt><trkpt lat="45.58361881552188" lon="11.147010171394669"><ele>567.0</ele><time>2026-04-25T13:00:35.007Z</time></trkpt><trkpt lat="45.58351595244285" lon="11.147164692767898"><ele>567.0</ele><time>2026-04-25T13:00:36.007Z</time></trkpt><trkpt lat="45.58337240055652" lon="11.14731467314999"><ele>567.0</ele><time>2026-04-25T13:00:37.007Z</time></trkpt><trkpt lat="45.58320574250753" lon="11.147433072898227"><ele>558.6666666666666</ele><time>2026-04-25T13:00:38.007Z</time></trkpt><trkpt lat="45.583046734704105" lon="11.1475161461253"><ele>550.3333333333333</ele><time>2026-04-25T13:00:39.007Z</time></trkpt><trkpt lat="45.58288115765751" lon="11.147565621130575"><ele>542.0</ele><time>2026-04-25T13:00:40.007Z</time></trkpt><trkpt lat="45.58269792003538" lon="11.14758792906441"><ele>542.0</ele><time>2026-04-25T13:00:41.007Z</time></trkpt><trkpt lat="45.58252002777049" lon="11.147604105244646"><ele>542.0</ele><time>2026-04-25T13:00:42.007Z</time></trkpt><trkpt lat="45.582331897502755" lon="11.147599489668519"><ele>542.0</ele><time>2026-04-25T13:00:43.007Z</time></trkpt><trkpt lat="45.58216051715632" lon="11.147611869458068"><ele>541.25</ele><time>2026-04-25T13:00:44.007Z</time></trkpt><trkpt lat="45.58199066643908" lon="11.147602141124635"><ele>540.5</ele><time>2026-04-25T13:00:45.007Z</time></trkpt><trkpt lat="45.5818434447113" lon="11.147602409344291"><ele>539.75</ele><time>2026-04-25T13:00:46.007Z</time></trkpt><trkpt lat="45.581714962869704" lon="11.147591170766617"><ele>539.0</ele><time>2026-04-25T13:00:47.007Z</time></trkpt><trkpt lat="45.58157354377417" lon="11.147571971012713"><ele>539.0</ele><time>2026-04-25T13:00:48.007Z</time></trkpt><trkpt lat="45.58142950762042" lon="11.14755880400342"><ele>539.0</ele><time>2026-04-25T13:00:49.007Z</time></trkpt><trkpt lat="45.58129460673746" lon="11.147500501663464"><ele>539.0</ele><time>2026-04-25T13:00:50.007Z</time></trkpt><trkpt lat="45.58117479392028" lon="11.147449664592445"><ele>539.0</ele><time>2026-04-25T13:00:51.007Z</time></trkpt><trkpt lat="45.581041355844306" lon="11.14745578844445"><ele>536.25</ele><time>2026-04-25T13:00:52.007Z</time></trkpt><trkpt lat="45.58090724404786" lon="11.147519799347789"><ele>533.5</ele><time>2026-04-25T13:00:53.007Z</time></trkpt><trkpt lat="45.58079580946337" lon="11.147554362106181"><ele>530.75</ele><time>2026-04-25T13:00:54.007Z</time></trkpt><trkpt lat="45.580717701806435" lon="11.147645841935146"><ele>528.0</ele><time>2026-04-25T13:00:55.007Z</time></trkpt><trkpt lat="45.58063590158364" lon="11.147739276176454"><ele>528.0</ele><time>2026-04-25T13:00:56.007Z</time></trkpt><trkpt lat="45.5805705423132" lon="11.147819125074543"><ele>528.0</ele><time>2026-04-25T13:00:57.007Z</time></trkpt><trkpt lat="45.58046929555316" lon="11.147714437886972"><ele>528.0</ele><time>2026-04-25T13:01:01.007Z</time></trkpt><trkpt lat="45.58038973615089" lon="11.147611469709638"><ele>528.0</ele><time>2026-04-25T13:01:02.007Z</time></trkpt><trkpt lat="45.580297616667295" lon="11.147534038712596"><ele>528.0</ele><time>2026-04-25T13:01:03.007Z</time></trkpt><trkpt lat="45.58018802894437" lon="11.147430445598872"><ele>527.75</ele><time>2026-04-25T13:01:04.007Z</time></trkpt><trkpt lat="45.58008102987108" lon="11.147308843686412"><ele>527.5</ele><time>2026-04-25T13:01:05.007Z</time></trkpt><trkpt lat="45.579949583232505" lon="11.147244506201744"><ele>527.25</ele><time>2026-04-25T13:01:06.007Z</time></trkpt><trkpt lat="45.57987557167135" lon="11.147073770640914"><ele>527.0</ele><time>2026-04-25T13:01:07.007Z</time></trkpt><trkpt lat="45.57976248149236" lon="11.146991645230479"><ele>527.0</ele><time>2026-04-25T13:01:08.007Z</time></trkpt><trkpt lat="45.579629021314354" lon="11.146958497399257"><ele>527.0</ele><time>2026-04-25T13:01:09.007Z</time></trkpt><trkpt lat="45.57948877605782" lon="11.146952730945848"><ele>527.0</ele><time>2026-04-25T13:01:10.007Z</time></trkpt><trkpt lat="45.579354205029574" lon="11.146956315092499"><ele>527.0</ele><time>2026-04-25T13:01:11.007Z</time></trkpt><trkpt lat="45.57924877608781" lon="11.146946816263457"><ele>527.5</ele><time>2026-04-25T13:01:12.007Z</time></trkpt><trkpt lat="45.57915980915608" lon="11.146994115854412"><ele>528.0</ele><time>2026-04-25T13:01:13.007Z</time></trkpt><trkpt lat="45.579027493112676" lon="11.14706595656549"><ele>528.5</ele><time>2026-04-25T13:01:14.007Z</time></trkpt><trkpt lat="45.578880261738725" lon="11.147105500846807"><ele>529.0</ele><time>2026-04-25T13:01:15.007Z</time></trkpt><trkpt lat="45.5787409270882" lon="11.147178208549178"><ele>526.25</ele><time>2026-04-25T13:01:16.007Z</time></trkpt><trkpt lat="45.578621324533884" lon="11.147277835834172"><ele>523.5</ele><time>2026-04-25T13:01:17.007Z</time></trkpt><trkpt lat="45.578529196451534" lon="11.14743486909061"><ele>520.75</ele><time>2026-04-25T13:01:18.007Z</time></trkpt><trkpt lat="45.5784025032791" lon="11.147582402507046"><ele>518.0</ele><time>2026-04-25T13:01:19.007Z</time></trkpt><trkpt lat="45.57831987031841" lon="11.147709122133003"><ele>518.0</ele><time>2026-04-25T13:01:20.007Z</time></trkpt><trkpt lat="45.57824373743163" lon="11.147797755150593"><ele>518.0</ele><time>2026-04-25T13:01:21.007Z</time></trkpt><trkpt lat="45.57817663628216" lon="11.147837042334126"><ele>518.0</ele><time>2026-04-25T13:01:22.007Z</time></trkpt><trkpt lat="45.57806432699212" lon="11.147844760743036"><ele>518.0</ele><time>2026-04-25T13:01:23.007Z</time></trkpt><trkpt lat="45.577935409283086" lon="11.147832415102453"><ele>518.0</ele><time>2026-04-25T13:01:24.007Z</time></trkpt><trkpt lat="45.57776030603452" lon="11.147867703968432"><ele>518.0</ele><time>2026-04-25T13:01:25.007Z</time></trkpt><trkpt lat="45.57760696065301" lon="11.147906251274899"><ele>518.0</ele><time>2026-04-25T13:01:26.007Z</time></trkpt><trkpt lat="45.57744884925805" lon="11.147944479997818"><ele>518.0</ele><time>2026-04-25T13:01:27.007Z</time></trkpt><trkpt lat="45.57730529813083" lon="11.147998082358741"><ele>518.0</ele><time>2026-04-25T13:01:28.008Z</time></trkpt><trkpt lat="45.577176387180224" lon="11.14801136806254"><ele>518.0</ele><time>2026-04-25T13:01:29.008Z</time></trkpt><trkpt lat="45.577046707365426" lon="11.148012684599511"><ele>518.0</ele><time>2026-04-25T13:01:30.008Z</time></trkpt><trkpt lat="45.57692346821953" lon="11.14795974223016"><ele>518.0</ele><time>2026-04-25T13:01:31.008Z</time></trkpt><trkpt lat="45.57680784655336" lon="11.147895034731235"><ele>515.75</ele><time>2026-04-25T13:01:32.008Z</time></trkpt><trkpt lat="45.57669239903667" lon="11.14781854762885"><ele>513.5</ele><time>2026-04-25T13:01:33.008Z</time></trkpt><trkpt lat="45.57659191255153" lon="11.14781297285728"><ele>511.25</ele><time>2026-04-25T13:01:34.008Z</time></trkpt><trkpt lat="45.57646563173575" lon="11.147805979628655"><ele>509.0</ele><time>2026-04-25T13:01:35.008Z</time></trkpt><trkpt lat="45.576331527205824" lon="11.147834695939995"><ele>508.66666666666663</ele><time>2026-04-25T13:01:36.008Z</time></trkpt><trkpt lat="45.576181472634" lon="11.147886086062309"><ele>508.33333333333337</ele><time>2026-04-25T13:01:37.008Z</time></trkpt><trkpt lat="45.57602747601298" lon="11.147941229278382"><ele>508.0</ele><time>2026-04-25T13:01:38.008Z</time></trkpt><trkpt lat="45.57587555087071" lon="11.147967748781683"><ele>508.0</ele><time>2026-04-25T13:01:39.008Z</time></trkpt><trkpt lat="45.57572650005182" lon="11.148029619704873"><ele>508.0</ele><time>2026-04-25T13:01:40.008Z</time></trkpt><trkpt lat="45.57558020420619" lon="11.148086104629465"><ele>508.0</ele><time>2026-04-25T13:01:41.008Z</time></trkpt><trkpt lat="45.575473374483806" lon="11.148177724519192"><ele>508.0</ele><time>2026-04-25T13:01:42.008Z</time></trkpt><trkpt lat="45.575368923352116" lon="11.148248499172409"><ele>507.59999999999997</ele><time>2026-04-25T13:01:43.008Z</time></trkpt><trkpt lat="45.575271009886094" lon="11.148268245518974"><ele>507.19999999999993</ele><time>2026-04-25T13:01:44.008Z</time></trkpt><trkpt lat="45.57517844332953" lon="11.148251799276096"><ele>506.8</ele><time>2026-04-25T13:01:45.008Z</time></trkpt><trkpt lat="45.575049579222046" lon="11.148194719883"><ele>506.4</ele><time>2026-04-25T13:01:46.008Z</time></trkpt><trkpt lat="45.574934898732266" lon="11.148170410596665"><ele>506.0</ele><time>2026-04-25T13:01:47.008Z</time></trkpt><trkpt lat="45.57480861975745" lon="11.14820182679342"><ele>504.5</ele><time>2026-04-25T13:01:48.008Z</time></trkpt><trkpt lat="45.57468735958474" lon="11.148219896490684"><ele>503.0</ele><time>2026-04-25T13:01:49.008Z</time></trkpt><trkpt lat="45.57455366096157" lon="11.148239902599531"><ele>501.5</ele><time>2026-04-25T13:01:50.008Z</time></trkpt><trkpt lat="45.57440774587898" lon="11.148288555184987"><ele>500.0</ele><time>2026-04-25T13:01:51.008Z</time></trkpt><trkpt lat="45.57427351137912" lon="11.148307364756924"><ele>500.0</ele><time>2026-04-25T13:01:52.008Z</time></trkpt><trkpt lat="45.574146320236025" lon="11.148344655514173"><ele>500.0</ele><time>2026-04-25T13:01:53.008Z</time></trkpt><trkpt lat="45.574007227127545" lon="11.148368855272945"><ele>500.0</ele><time>2026-04-25T13:01:54.008Z</time></trkpt><trkpt lat="45.57386090900044" lon="11.148406262399519"><ele>500.0</ele><time>2026-04-25T13:01:55.008Z</time></trkpt><trkpt lat="45.573721655332875" lon="11.148422950159976"><ele>498.4</ele><time>2026-04-25T13:01:56.008Z</time></trkpt><trkpt lat="45.573601186790675" lon="11.148430645108299"><ele>496.8</ele><time>2026-04-25T13:01:57.008Z</time></trkpt><trkpt lat="45.57350824521723" lon="11.148426745353895"><ele>495.20000000000005</ele><time>2026-04-25T13:01:58.008Z</time></trkpt><trkpt lat="45.57342564317014" lon="11.148399440126896"><ele>493.6</ele><time>2026-04-25T13:01:59.008Z</time></trkpt><trkpt lat="45.57335509608693" lon="11.148341196230342"><ele>492.0</ele><time>2026-04-25T13:02:00.008Z</time></trkpt><trkpt lat="45.57328683562213" lon="11.148280320201883"><ele>492.0</ele><time>2026-04-25T13:02:01.008Z</time></trkpt><trkpt lat="45.573200438297704" lon="11.14823334608487"><ele>492.00000000000006</ele><time>2026-04-25T13:02:02.008Z</time></trkpt><trkpt lat="45.57312958230641" lon="11.148165800504529"><ele>492.00000000000006</ele><time>2026-04-25T13:02:03.008Z</time></trkpt><trkpt lat="45.57305450951525" lon="11.148128787789405"><ele>492.0</ele><time>2026-04-25T13:02:04.008Z</time></trkpt><trkpt lat="45.57297064422593" lon="11.148091037247363"><ele>492.0</ele><time>2026-04-25T13:02:05.008Z</time></trkpt><trkpt lat="45.57286009894445" lon="11.148096581790718"><ele>491.25</ele><time>2026-04-25T13:02:06.008Z</time></trkpt><trkpt lat="45.572714259803774" lon="11.148126177759714"><ele>490.5</ele><time>2026-04-25T13:02:07.008Z</time></trkpt><trkpt lat="45.57260239783669" lon="11.148162843793262"><ele>489.75</ele><time>2026-04-25T13:02:08.008Z</time></trkpt><trkpt lat="45.572509204688494" lon="11.14817997178629"><ele>489.0</ele><time>2026-04-25T13:02:09.008Z</time></trkpt><trkpt lat="45.572391671825955" lon="11.148181698107976"><ele>489.0</ele><time>2026-04-25T13:02:11.008Z</time></trkpt><trkpt lat="45.572272640006176" lon="11.148153234913874"><ele>489.0</ele><time>2026-04-25T13:02:13.008Z</time></trkpt><trkpt lat="45.57220302219072" lon="11.148039340571957"><ele>489.0</ele><time>2026-04-25T13:02:15.008Z</time></trkpt><trkpt lat="45.572161802125045" lon="11.147965319614938"><ele>489.0</ele><time>2026-04-25T13:02:16.008Z</time></trkpt><trkpt lat="45.572098844882014" lon="11.14794699201434"><ele>489.0</ele><time>2026-04-25T13:02:17.008Z</time></trkpt><trkpt lat="45.57199019259052" lon="11.147973821895006"><ele>487.5</ele><time>2026-04-25T13:02:18.008Z</time></trkpt><trkpt lat="45.57186489962175" lon="11.148030865524138"><ele>486.0</ele><time>2026-04-25T13:02:19.008Z</time></trkpt><trkpt lat="45.57172871420685" lon="11.1480847049092"><ele>484.5</ele><time>2026-04-25T13:02:20.008Z</time></trkpt><trkpt lat="45.57159815491323" lon="11.148142999534658"><ele>483.0</ele><time>2026-04-25T13:02:21.008Z</time></trkpt><trkpt lat="45.57148700937875" lon="11.148210470505084"><ele>482.0</ele><time>2026-04-25T13:02:22.008Z</time></trkpt><trkpt lat="45.57138176598713" lon="11.148275463292345"><ele>481.0</ele><time>2026-04-25T13:02:23.008Z</time></trkpt><trkpt lat="45.57132751303315" lon="11.148342348851934"><ele>480.0</ele><time>2026-04-25T13:02:24.008Z</time></trkpt><trkpt lat="45.57129555957923" lon="11.14842654887461"><ele>479.0</ele><time>2026-04-25T13:02:25.008Z</time></trkpt><trkpt lat="45.571275080548816" lon="11.1485513737927"><ele>478.0</ele><time>2026-04-25T13:02:26.008Z</time></trkpt><trkpt lat="45.571260845935846" lon="11.148685995816525"><ele>477.0</ele><time>2026-04-25T13:02:27.008Z</time></trkpt><trkpt lat="45.57126231836607" lon="11.148864829205888"><ele>476.5</ele><time>2026-04-25T13:02:28.008Z</time></trkpt><trkpt lat="45.57125722455349" lon="11.149076619235387"><ele>476.0</ele><time>2026-04-25T13:02:29.008Z</time></trkpt><trkpt lat="45.57124171718676" lon="11.149282059141594"><ele>475.5</ele><time>2026-04-25T13:02:30.008Z</time></trkpt><trkpt lat="45.571232262055645" lon="11.149466796838244"><ele>475.0</ele><time>2026-04-25T13:02:31.008Z</time></trkpt><trkpt lat="45.57125312530891" lon="11.149578515606386"><ele>475.00000000000006</ele><time>2026-04-25T13:02:32.008Z</time></trkpt><trkpt lat="45.571282366475145" lon="11.149706489486302"><ele>475.0</ele><time>2026-04-25T13:02:33.007Z</time></trkpt><trkpt lat="45.57131676844926" lon="11.14979951080589"><ele>475.0</ele><time>2026-04-25T13:02:34.007Z</time></trkpt><trkpt lat="45.5713178283115" lon="11.1499138832265"><ele>475.0</ele><time>2026-04-25T13:02:36.007Z</time></trkpt><trkpt lat="45.571236922589414" lon="11.149822919497188"><ele>475.00000000000006</ele><time>2026-04-25T13:02:39.007Z</time></trkpt><trkpt lat="45.57122790144996" lon="11.14972611613699"><ele>475.0</ele><time>2026-04-25T13:02:40.007Z</time></trkpt><trkpt lat="45.57117983568087" lon="11.1496223105158"><ele>474.6666666666667</ele><time>2026-04-25T13:02:42.007Z</time></trkpt><trkpt lat="45.57109487553561" lon="11.149595639964131"><ele>474.33333333333337</ele><time>2026-04-25T13:02:44.007Z</time></trkpt><trkpt lat="45.57111276781973" lon="11.149501468935782"><ele>474.0</ele><time>2026-04-25T13:02:48.007Z</time></trkpt><trkpt lat="45.57114279278599" lon="11.149382491191494"><ele>473.66666666666663</ele><time>2026-04-25T13:02:49.007Z</time></trkpt><trkpt lat="45.57116439722674" lon="11.149232572557617"><ele>473.3333333333333</ele><time>2026-04-25T13:02:50.007Z</time></trkpt><trkpt lat="45.571167498720826" lon="11.14910327404461"><ele>473.0</ele><time>2026-04-25T13:02:51.007Z</time></trkpt><trkpt lat="45.57114513009814" lon="11.148986694416585"><ele>475.16666666666663</ele><time>2026-04-25T13:02:52.007Z</time></trkpt><trkpt lat="45.57114327669664" lon="11.148876088084823"><ele>477.3333333333333</ele><time>2026-04-25T13:02:53.007Z</time></trkpt><trkpt lat="45.57111742102455" lon="11.14874154454222"><ele>479.5</ele><time>2026-04-25T13:02:54.007Z</time></trkpt><trkpt lat="45.57107412209545" lon="11.148650981915644"><ele>481.66666666666663</ele><time>2026-04-25T13:02:55.007Z</time></trkpt><trkpt lat="45.570996904148025" lon="11.148626105287498"><ele>483.8333333333333</ele><time>2026-04-25T13:02:57.007Z</time></trkpt><trkpt lat="45.570928937266956" lon="11.14866927343301"><ele>486.0</ele><time>2026-04-25T13:02:58.007Z</time></trkpt><trkpt lat="45.570979219135324" lon="11.14861380193373"><ele>486.0</ele><time>2026-04-25T13:03:03.007Z</time></trkpt><trkpt lat="45.571057860082185" lon="11.148472667355632"><ele>486.0</ele><time>2026-04-25T13:03:05.007Z</time></trkpt><trkpt lat="45.571064847435885" lon="11.148366799578756"><ele>486.0</ele><time>2026-04-25T13:03:06.007Z</time></trkpt><trkpt lat="45.57107423062156" lon="11.148259701383159"><ele>486.0</ele><time>2026-04-25T13:03:08.007Z</time></trkpt><trkpt lat="45.57101794575783" lon="11.148420122591654"><ele>486.0</ele><time>2026-04-25T13:03:36.008Z</time></trkpt><trkpt lat="45.5709574335905" lon="11.148540661170118"><ele>486.0</ele><time>2026-04-25T13:03:37.009Z</time></trkpt><trkpt lat="45.570830527858234" lon="11.148589242597334"><ele>486.0</ele><time>2026-04-25T13:03:38.008Z</time></trkpt><trkpt lat="45.5707150247049" lon="11.148627816510686"><ele>486.0</ele><time>2026-04-25T13:03:39.008Z</time></trkpt><trkpt lat="45.57061386240896" lon="11.148657984094273"><ele>486.0</ele><time>2026-04-25T13:03:40.008Z</time></trkpt><trkpt lat="45.570473330477" lon="11.148664371702777"><ele>486.25</ele><time>2026-04-25T13:03:41.008Z</time></trkpt><trkpt lat="45.5703222661419" lon="11.148659820024458"><ele>486.5</ele><time>2026-04-25T13:03:42.008Z</time></trkpt><trkpt lat="45.5701811380268" lon="11.148664009292606"><ele>486.75</ele><time>2026-04-25T13:03:43.008Z</time></trkpt><trkpt lat="45.57003055349593" lon="11.148685374426451"><ele>487.0</ele><time>2026-04-25T13:03:44.008Z</time></trkpt><trkpt lat="45.56990319337372" lon="11.148717005914092"><ele>487.0</ele><time>2026-04-25T13:03:45.008Z</time></trkpt><trkpt lat="45.56974638847253" lon="11.148757573840419"><ele>487.0</ele><time>2026-04-25T13:03:46.008Z</time></trkpt><trkpt lat="45.5696142800949" lon="11.148760865421911"><ele>487.0</ele><time>2026-04-25T13:03:47.008Z</time></trkpt><trkpt lat="45.56948363231786" lon="11.148785886051185"><ele>487.0</ele><time>2026-04-25T13:03:48.008Z</time></trkpt><trkpt lat="45.569369710624436" lon="11.1487660538545"><ele>486.25</ele><time>2026-04-25T13:03:49.008Z</time></trkpt><trkpt lat="45.569239999034885" lon="11.148710322406284"><ele>485.5</ele><time>2026-04-25T13:03:50.008Z</time></trkpt><trkpt lat="45.569122854635204" lon="11.148661459660072"><ele>484.75</ele><time>2026-04-25T13:03:51.008Z</time></trkpt><trkpt lat="45.5689800917846" lon="11.14860627069375"><ele>484.0</ele><time>2026-04-25T13:03:52.008Z</time></trkpt><trkpt lat="45.5688344973069" lon="11.148570972563078"><ele>483.0</ele><time>2026-04-25T13:03:53.008Z</time></trkpt><trkpt lat="45.56867814025624" lon="11.148554663803267"><ele>482.0</ele><time>2026-04-25T13:03:54.008Z</time></trkpt><trkpt lat="45.56852906249019" lon="11.148534120362324"><ele>481.0</ele><time>2026-04-25T13:03:55.008Z</time></trkpt><trkpt lat="45.56838044858135" lon="11.148529171000732"><ele>481.0</ele><time>2026-04-25T13:03:56.008Z</time></trkpt><trkpt lat="45.5682347847147" lon="11.148565352937078"><ele>481.0</ele><time>2026-04-25T13:03:57.008Z</time></trkpt><trkpt lat="45.56810499602463" lon="11.14863039271875"><ele>481.0</ele><time>2026-04-25T13:03:58.008Z</time></trkpt><trkpt lat="45.56796377771543" lon="11.148711780542817"><ele>481.0</ele><time>2026-04-25T13:03:59.008Z</time></trkpt><trkpt lat="45.56783401539249" lon="11.1487865629988"><ele>480.25</ele><time>2026-04-25T13:04:00.008Z</time></trkpt><trkpt lat="45.56770212972436" lon="11.148858634603934"><ele>479.5</ele><time>2026-04-25T13:04:01.008Z</time></trkpt><trkpt lat="45.56757399034397" lon="11.14891406089999"><ele>478.75</ele><time>2026-04-25T13:04:02.008Z</time></trkpt><trkpt lat="45.567456233089366" lon="11.148950743244116"><ele>478.0</ele><time>2026-04-25T13:04:03.008Z</time></trkpt><trkpt lat="45.56732685172206" lon="11.148990386444662"><ele>478.0</ele><time>2026-04-25T13:04:04.008Z</time></trkpt><trkpt lat="45.567210124498594" lon="11.149032813028704"><ele>478.0</ele><time>2026-04-25T13:04:05.008Z</time></trkpt><trkpt lat="45.56709127325941" lon="11.149069851913914"><ele>478.0</ele><time>2026-04-25T13:04:06.008Z</time></trkpt><trkpt lat="45.56699664604521" lon="11.149133402223073"><ele>478.0</ele><time>2026-04-25T13:04:07.008Z</time></trkpt><trkpt lat="45.566907584103106" lon="11.149215280576948"><ele>476.25</ele><time>2026-04-25T13:04:08.008Z</time></trkpt><trkpt lat="45.56681964746177" lon="11.14931462209535"><ele>474.5</ele><time>2026-04-25T13:04:09.008Z</time></trkpt><trkpt lat="45.56672809048799" lon="11.14942357940654"><ele>472.75</ele><time>2026-04-25T13:04:10.008Z</time></trkpt><trkpt lat="45.56664632582589" lon="11.149536317982477"><ele>471.0</ele><time>2026-04-25T13:04:11.008Z</time></trkpt><trkpt lat="45.56655259314586" lon="11.149640839868637"><ele>471.0</ele><time>2026-04-25T13:04:12.008Z</time></trkpt><trkpt lat="45.566456398760934" lon="11.14972808936794"><ele>471.0</ele><time>2026-04-25T13:04:13.008Z</time></trkpt><trkpt lat="45.56635870459725" lon="11.149817609224314"><ele>471.0</ele><time>2026-04-25T13:04:14.008Z</time></trkpt><trkpt lat="45.566262117869286" lon="11.14990273467048"><ele>471.0</ele><time>2026-04-25T13:04:15.008Z</time></trkpt><trkpt lat="45.56617181492789" lon="11.149982321956449"><ele>469.6</ele><time>2026-04-25T13:04:16.008Z</time></trkpt><trkpt lat="45.56607849754591" lon="11.150064565971084"><ele>468.20000000000005</ele><time>2026-04-25T13:04:17.008Z</time></trkpt><trkpt lat="45.565989512509724" lon="11.150146368000255"><ele>466.79999999999995</ele><time>2026-04-25T13:04:18.008Z</time></trkpt><trkpt lat="45.565901389817945" lon="11.150231361107254"><ele>465.4</ele><time>2026-04-25T13:04:19.008Z</time></trkpt><trkpt lat="45.56582496998899" lon="11.150340121271666"><ele>464.0</ele><time>2026-04-25T13:04:20.008Z</time></trkpt><trkpt lat="45.56576220615369" lon="11.150465817555284"><ele>464.0</ele><time>2026-04-25T13:04:21.008Z</time></trkpt><trkpt lat="45.56570697784614" lon="11.15057431410338"><ele>464.0</ele><time>2026-04-25T13:04:22.008Z</time></trkpt><trkpt lat="45.56569906221578" lon="11.15075799332176"><ele>464.0</ele><time>2026-04-25T13:04:23.008Z</time></trkpt><trkpt lat="45.56567947637534" lon="11.150930279998907"><ele>464.0</ele><time>2026-04-25T13:04:24.008Z</time></trkpt><trkpt lat="45.56566523315442" lon="11.151109717167783"><ele>462.25</ele><time>2026-04-25T13:04:25.008Z</time></trkpt><trkpt lat="45.565660421398874" lon="11.151284311403346"><ele>460.5</ele><time>2026-04-25T13:04:26.008Z</time></trkpt><trkpt lat="45.56565471288213" lon="11.151455717713896"><ele>458.75</ele><time>2026-04-25T13:04:27.008Z</time></trkpt><trkpt lat="45.565689766870776" lon="11.151617972460606"><ele>457.0</ele><time>2026-04-25T13:04:28.008Z</time></trkpt><trkpt lat="45.565713609259205" lon="11.151780893770361"><ele>456.00000000000006</ele><time>2026-04-25T13:04:29.008Z</time></trkpt><trkpt lat="45.56577245103489" lon="11.151913050312931"><ele>455.0</ele><time>2026-04-25T13:04:30.008Z</time></trkpt><trkpt lat="45.56582001037303" lon="11.152022853958908"><ele>454.0</ele><time>2026-04-25T13:04:31.008Z</time></trkpt><trkpt lat="45.56586122080524" lon="11.15212307468804"><ele>453.0</ele><time>2026-04-25T13:04:32.008Z</time></trkpt><trkpt lat="45.56588301704505" lon="11.152219811894378"><ele>452.00000000000006</ele><time>2026-04-25T13:04:33.008Z</time></trkpt><trkpt lat="45.5659102924341" lon="11.152342774186831"><ele>451.0</ele><time>2026-04-25T13:04:34.008Z</time></trkpt><trkpt lat="45.565970027540594" lon="11.152455557777028"><ele>450.4</ele><time>2026-04-25T13:04:35.008Z</time></trkpt><trkpt lat="45.56598027650381" lon="11.152596230302624"><ele>449.8</ele><time>2026-04-25T13:04:36.008Z</time></trkpt><trkpt lat="45.565986376839916" lon="11.15274256980929"><ele>449.19999999999993</ele><time>2026-04-25T13:04:37.008Z</time></trkpt><trkpt lat="45.56599790456072" lon="11.152884510984888"><ele>448.59999999999997</ele><time>2026-04-25T13:04:38.008Z</time></trkpt><trkpt lat="45.5660194410945" lon="11.153026107359276"><ele>448.0</ele><time>2026-04-25T13:04:39.008Z</time></trkpt><trkpt lat="45.56603394152186" lon="11.153160593679921"><ele>447.83333333333337</ele><time>2026-04-25T13:04:40.008Z</time></trkpt><trkpt lat="45.56604468364306" lon="11.15329080477876"><ele>447.6666666666667</ele><time>2026-04-25T13:04:42.008Z</time></trkpt><trkpt lat="45.566046621464174" lon="11.153442076377663"><ele>447.5</ele><time>2026-04-25T13:05:28.008Z</time></trkpt><trkpt lat="45.56607396603182" lon="11.153552100380091"><ele>447.33333333333337</ele><time>2026-04-25T13:05:30.008Z</time></trkpt><trkpt lat="45.56616278409091" lon="11.153609380549787"><ele>447.1666666666667</ele><time>2026-04-25T13:05:32.008Z</time></trkpt><trkpt lat="45.56623473554162" lon="11.153610474797762"><ele>447.0</ele><time>2026-04-25T13:05:34.008Z</time></trkpt><trkpt lat="45.566298151552516" lon="11.153645597530783"><ele>447.0</ele><time>2026-04-25T13:05:37.008Z</time></trkpt><trkpt lat="45.566355168277184" lon="11.153588428968673"><ele>447.0</ele><time>2026-04-25T13:06:29.008Z</time></trkpt><trkpt lat="45.5662402808111" lon="11.153508873241368"><ele>447.0</ele><time>2026-04-25T13:09:17.008Z</time></trkpt><trkpt lat="45.5661737541902" lon="11.153509166699235"><ele>447.0</ele><time>2026-04-25T13:09:18.008Z</time></trkpt><trkpt lat="45.566121281300816" lon="11.153459435188813"><ele>447.0</ele><time>2026-04-25T13:09:25.008Z</time></trkpt><trkpt lat="45.56613246758505" lon="11.15329873328047"><ele>447.0</ele><time>2026-04-25T13:09:27.008Z</time></trkpt><trkpt lat="45.5661172192279" lon="11.153149897001613"><ele>447.25</ele><time>2026-04-25T13:09:28.008Z</time></trkpt><trkpt lat="45.56608894538582" lon="11.152982999276187"><ele>447.5</ele><time>2026-04-25T13:09:29.008Z</time></trkpt><trkpt lat="45.5660731358709" lon="11.152821977330227"><ele>447.75</ele><time>2026-04-25T13:09:30.008Z</time></trkpt><trkpt lat="45.566064097394715" lon="11.152663381616447"><ele>448.0</ele><time>2026-04-25T13:09:31.008Z</time></trkpt><trkpt lat="45.56603666745528" lon="11.152502740685392"><ele>448.75</ele><time>2026-04-25T13:09:32.008Z</time></trkpt><trkpt lat="45.566009307095825" lon="11.152315259597616"><ele>449.5</ele><time>2026-04-25T13:09:33.008Z</time></trkpt><trkpt lat="45.565948162928834" lon="11.152127874496108"><ele>450.25</ele><time>2026-04-25T13:09:34.008Z</time></trkpt><trkpt lat="45.565841368254404" lon="11.151965582401823"><ele>451.0</ele><time>2026-04-25T13:09:35.008Z</time></trkpt><trkpt lat="45.56574199892239" lon="11.151786422620667"><ele>451.0</ele><time>2026-04-25T13:09:36.008Z</time></trkpt><trkpt lat="45.56568095843055" lon="11.151587545426892"><ele>451.0</ele><time>2026-04-25T13:09:37.008Z</time></trkpt><trkpt lat="45.56565240436415" lon="11.151391349147858"><ele>451.0</ele><time>2026-04-25T13:09:38.008Z</time></trkpt><trkpt lat="45.5656360344283" lon="11.151188111179195"><ele>451.0</ele><time>2026-04-25T13:09:39.008Z</time></trkpt><trkpt lat="45.56565184374166" lon="11.150979204697908"><ele>452.5</ele><time>2026-04-25T13:09:40.008Z</time></trkpt><trkpt lat="45.56568662849405" lon="11.15078047932557"><ele>454.0</ele><time>2026-04-25T13:09:41.008Z</time></trkpt><trkpt lat="45.56571788967056" lon="11.150602545823206"><ele>455.5</ele><time>2026-04-25T13:09:42.008Z</time></trkpt><trkpt lat="45.565762538308455" lon="11.15044295329706"><ele>457.0</ele><time>2026-04-25T13:09:43.008Z</time></trkpt><trkpt lat="45.56582571578405" lon="11.150291480014893"><ele>458.75</ele><time>2026-04-25T13:09:44.008Z</time></trkpt><trkpt lat="45.565930927052044" lon="11.150177687259637"><ele>460.5</ele><time>2026-04-25T13:09:45.008Z</time></trkpt><trkpt lat="45.56604491191982" lon="11.150093950659029"><ele>462.25</ele><time>2026-04-25T13:09:46.008Z</time></trkpt><trkpt lat="45.56619587862015" lon="11.150015410660822"><ele>464.0</ele><time>2026-04-25T13:09:47.008Z</time></trkpt><trkpt lat="45.566342938000034" lon="11.149910068376052"><ele>465.75</ele><time>2026-04-25T13:09:48.008Z</time></trkpt><trkpt lat="45.5664651627843" lon="11.149786463308974"><ele>467.5</ele><time>2026-04-25T13:09:49.008Z</time></trkpt><trkpt lat="45.5665816000254" lon="11.149648352696431"><ele>469.25</ele><time>2026-04-25T13:09:50.008Z</time></trkpt><trkpt lat="45.56668593309808" lon="11.149511178869352"><ele>471.0</ele><time>2026-04-25T13:09:51.008Z</time></trkpt><trkpt lat="45.56679251802293" lon="11.14938347617432"><ele>471.0</ele><time>2026-04-25T13:09:52.008Z</time></trkpt><trkpt lat="45.56689667606843" lon="11.14925900494045"><ele>471.0</ele><time>2026-04-25T13:09:53.009Z</time></trkpt><trkpt lat="45.56700772734625" lon="11.149144507966154"><ele>471.0</ele><time>2026-04-25T13:09:54.009Z</time></trkpt><trkpt lat="45.56713739928174" lon="11.149051089084647"><ele>471.0</ele><time>2026-04-25T13:09:55.009Z</time></trkpt><trkpt lat="45.567288680103154" lon="11.149017209284578"><ele>473.33333333333337</ele><time>2026-04-25T13:09:56.009Z</time></trkpt><trkpt lat="45.56745297866545" lon="11.148986187106122"><ele>475.6666666666667</ele><time>2026-04-25T13:09:57.009Z</time></trkpt><trkpt lat="45.5676023504387" lon="11.148936378608918"><ele>478.0</ele><time>2026-04-25T13:09:58.009Z</time></trkpt><trkpt lat="45.567759408200125" lon="11.148872300642335"><ele>479.0</ele><time>2026-04-25T13:09:59.009Z</time></trkpt><trkpt lat="45.56791076103626" lon="11.148771110018583"><ele>480.0</ele><time>2026-04-25T13:10:00.009Z</time></trkpt><trkpt lat="45.56805720753737" lon="11.1486755508041"><ele>481.0</ele><time>2026-04-25T13:10:01.009Z</time></trkpt><trkpt lat="45.568203109899706" lon="11.148599980127267"><ele>481.0</ele><time>2026-04-25T13:10:02.009Z</time></trkpt><trkpt lat="45.568355131977995" lon="11.148527032001871"><ele>481.0</ele><time>2026-04-25T13:10:03.009Z</time></trkpt><trkpt lat="45.568522452989924" lon="11.148527288478771"><ele>481.0</ele><time>2026-04-25T13:10:04.008Z</time></trkpt><trkpt lat="45.568683815219394" lon="11.148577141267054"><ele>482.0</ele><time>2026-04-25T13:10:05.009Z</time></trkpt><trkpt lat="45.56884200898272" lon="11.148613426616393"><ele>483.0</ele><time>2026-04-25T13:10:06.009Z</time></trkpt><trkpt lat="45.56899616388815" lon="11.148652939391152"><ele>484.0</ele><time>2026-04-25T13:10:07.009Z</time></trkpt><trkpt lat="45.56915848821518" lon="11.148692670480882"><ele>484.0</ele><time>2026-04-25T13:10:08.009Z</time></trkpt><trkpt lat="45.569311548281476" lon="11.148753690143081"><ele>484.0</ele><time>2026-04-25T13:10:09.009Z</time></trkpt><trkpt lat="45.56944940814872" lon="11.148827908612583"><ele>484.0</ele><time>2026-04-25T13:10:10.009Z</time></trkpt><trkpt lat="45.56959258354268" lon="11.148831912274682"><ele>484.0</ele><time>2026-04-25T13:10:11.009Z</time></trkpt><trkpt lat="45.56973741549327" lon="11.148816638126029"><ele>484.75</ele><time>2026-04-25T13:10:12.009Z</time></trkpt><trkpt lat="45.56987223151734" lon="11.148760230744815"><ele>485.5</ele><time>2026-04-25T13:10:13.009Z</time></trkpt><trkpt lat="45.570022035682626" lon="11.148708923166382"><ele>486.25</ele><time>2026-04-25T13:10:14.009Z</time></trkpt><trkpt lat="45.57014845463683" lon="11.148696528013584"><ele>487.0</ele><time>2026-04-25T13:10:15.009Z</time></trkpt><trkpt lat="45.57029634341805" lon="11.148684878217885"><ele>486.75</ele><time>2026-04-25T13:10:16.009Z</time></trkpt><trkpt lat="45.570436229619546" lon="11.148690643792916"><ele>486.5</ele><time>2026-04-25T13:10:17.009Z</time></trkpt><trkpt lat="45.570575575383266" lon="11.148664915111654"><ele>486.25</ele><time>2026-04-25T13:10:18.009Z</time></trkpt><trkpt lat="45.57069977827333" lon="11.148668149094297"><ele>486.0</ele><time>2026-04-25T13:10:19.009Z</time></trkpt><trkpt lat="45.57082595164232" lon="11.148628764240904"><ele>486.0</ele><time>2026-04-25T13:10:20.009Z</time></trkpt><trkpt lat="45.57092463395478" lon="11.148565219346127"><ele>486.0</ele><time>2026-04-25T13:10:21.009Z</time></trkpt><trkpt lat="45.57099165066181" lon="11.148477411173795"><ele>486.0</ele><time>2026-04-25T13:10:22.009Z</time></trkpt><trkpt lat="45.57102309223487" lon="11.148372453101091"><ele>486.0</ele><time>2026-04-25T13:10:23.009Z</time></trkpt><trkpt lat="45.57104045084527" lon="11.148248092718035"><ele>486.0</ele><time>2026-04-25T13:10:24.009Z</time></trkpt><trkpt lat="45.571037518507694" lon="11.14813777686725"><ele>486.0</ele><time>2026-04-25T13:10:25.009Z</time></trkpt><trkpt lat="45.57103530752147" lon="11.148041881225852"><ele>486.8333333333333</ele><time>2026-04-25T13:10:27.009Z</time></trkpt><trkpt lat="45.57106398603799" lon="11.147941740564892"><ele>487.66666666666663</ele><time>2026-04-25T13:10:54.009Z</time></trkpt><trkpt lat="45.571089058842276" lon="11.14782240445363"><ele>488.5</ele><time>2026-04-25T13:10:56.009Z</time></trkpt><trkpt lat="45.57109147422896" lon="11.147710934734752"><ele>489.3333333333333</ele><time>2026-04-25T13:10:57.009Z</time></trkpt><trkpt lat="45.571108005397186" lon="11.147560243823703"><ele>490.16666666666663</ele><time>2026-04-25T13:10:58.009Z</time></trkpt><trkpt lat="45.57112950775758" lon="11.147432617215449"><ele>491.0</ele><time>2026-04-25T13:10:59.009Z</time></trkpt><trkpt lat="45.57117592366672" lon="11.14732955001588"><ele>493.20000000000005</ele><time>2026-04-25T13:11:00.009Z</time></trkpt><trkpt lat="45.571248311561696" lon="11.14725473793555"><ele>495.40000000000003</ele><time>2026-04-25T13:11:01.009Z</time></trkpt><trkpt lat="45.57132715019903" lon="11.14719907198253"><ele>497.6</ele><time>2026-04-25T13:11:02.009Z</time></trkpt><trkpt lat="45.5714215877745" lon="11.147159927241464"><ele>499.8</ele><time>2026-04-25T13:11:03.009Z</time></trkpt><trkpt lat="45.571514777259516" lon="11.147117626122867"><ele>502.0</ele><time>2026-04-25T13:11:04.009Z</time></trkpt><trkpt lat="45.5716000720809" lon="11.147071130971272"><ele>502.0</ele><time>2026-04-25T13:11:05.009Z</time></trkpt><trkpt lat="45.57167853744245" lon="11.147019269512576"><ele>502.00000000000006</ele><time>2026-04-25T13:11:06.009Z</time></trkpt><trkpt lat="45.571746459845556" lon="11.146952065472421"><ele>502.00000000000006</ele><time>2026-04-25T13:11:07.009Z</time></trkpt><trkpt lat="45.571811621899045" lon="11.146880629689974"><ele>502.0</ele><time>2026-04-25T13:11:08.009Z</time></trkpt><trkpt lat="45.57182210855879" lon="11.146719012369354"><ele>502.0</ele><time>2026-04-25T13:11:09.009Z</time></trkpt><trkpt lat="45.57185602679606" lon="11.14660178088484"><ele>501.6</ele><time>2026-04-25T13:11:10.009Z</time></trkpt><trkpt lat="45.57191703448389" lon="11.14649573314047"><ele>501.20000000000005</ele><time>2026-04-25T13:11:11.009Z</time></trkpt><trkpt lat="45.57195445603839" lon="11.146386917794864"><ele>500.8</ele><time>2026-04-25T13:11:12.009Z</time></trkpt><trkpt lat="45.57203254512825" lon="11.146291237689057"><ele>500.4</ele><time>2026-04-25T13:11:13.009Z</time></trkpt><trkpt lat="45.572097322952885" lon="11.14615303494635"><ele>500.0</ele><time>2026-04-25T13:11:14.009Z</time></trkpt><trkpt lat="45.57214925803231" lon="11.146031509934044"><ele>499.99999999999994</ele><time>2026-04-25T13:11:15.009Z</time></trkpt><trkpt lat="45.57219077069659" lon="11.145909071459334"><ele>500.0</ele><time>2026-04-25T13:11:16.009Z</time></trkpt><trkpt lat="45.57221181269418" lon="11.14580180791366"><ele>500.0</ele><time>2026-04-25T13:11:17.009Z</time></trkpt><trkpt lat="45.57223899059296" lon="11.145709403888985"><ele>500.0</ele><time>2026-04-25T13:11:18.009Z</time></trkpt><trkpt lat="45.572281340018286" lon="11.145641113679268"><ele>499.99999999999994</ele><time>2026-04-25T13:11:19.009Z</time></trkpt><trkpt lat="45.572356259492295" lon="11.14556920443715"><ele>500.0</ele><time>2026-04-25T13:11:21.009Z</time></trkpt><trkpt lat="45.57224504688422" lon="11.145239663757248"><ele>500.6</ele><time>2026-04-25T13:11:23.009Z</time></trkpt><trkpt lat="45.57228953578456" lon="11.145097495551816"><ele>501.2</ele><time>2026-04-25T13:11:25.009Z</time></trkpt><trkpt lat="45.57231241153442" lon="11.144928905776949"><ele>501.79999999999995</ele><time>2026-04-25T13:11:26.009Z</time></trkpt><trkpt lat="45.5723360191293" lon="11.144807829855985"><ele>502.4</ele><time>2026-04-25T13:11:27.009Z</time></trkpt><trkpt lat="45.572362864465354" lon="11.144695700090828"><ele>503.0</ele><time>2026-04-25T13:11:28.009Z</time></trkpt><trkpt lat="45.572360965399334" lon="11.144573370660357"><ele>505.4</ele><time>2026-04-25T13:11:29.009Z</time></trkpt><trkpt lat="45.57237443539927" lon="11.144462438578193"><ele>507.79999999999995</ele><time>2026-04-25T13:11:30.009Z</time></trkpt><trkpt lat="45.57239754089583" lon="11.144357072066436"><ele>510.2</ele><time>2026-04-25T13:11:31.009Z</time></trkpt><trkpt lat="45.572487387363815" lon="11.14422147919821"><ele>512.6</ele><time>2026-04-25T13:11:33.009Z</time></trkpt><trkpt lat="45.57256354608566" lon="11.144115048989745"><ele>515.0</ele><time>2026-04-25T13:11:35.009Z</time></trkpt><trkpt lat="45.572621544090374" lon="11.143938452865894"><ele>518.0</ele><time>2026-04-25T13:11:37.009Z</time></trkpt><trkpt lat="45.572625126074726" lon="11.143797547966505"><ele>521.0</ele><time>2026-04-25T13:11:39.009Z</time></trkpt><trkpt lat="45.5726222534031" lon="11.14369907167783"><ele>524.0</ele><time>2026-04-25T13:11:40.009Z</time></trkpt><trkpt lat="45.57258107599802" lon="11.143543413722917"><ele>527.0</ele><time>2026-04-25T13:11:42.009Z</time></trkpt><trkpt lat="45.57258332982222" lon="11.143437965238261"><ele>530.0</ele><time>2026-04-25T13:11:43.009Z</time></trkpt><trkpt lat="45.57260236906316" lon="11.143331677694514"><ele>533.0</ele><time>2026-04-25T13:11:44.009Z</time></trkpt><trkpt lat="45.57263796995252" lon="11.143248093884369"><ele>532.1999999999999</ele><time>2026-04-25T13:11:45.009Z</time></trkpt><trkpt lat="45.57269848906509" lon="11.143140273475685"><ele>531.4</ele><time>2026-04-25T13:11:46.009Z</time></trkpt><trkpt lat="45.57275334046203" lon="11.143019292287724"><ele>530.5999999999999</ele><time>2026-04-25T13:11:47.009Z</time></trkpt><trkpt lat="45.57279101619166" lon="11.142894700615996"><ele>529.8</ele><time>2026-04-25T13:11:48.009Z</time></trkpt><trkpt lat="45.57283196450882" lon="11.142794323954877"><ele>529.0</ele><time>2026-04-25T13:11:49.009Z</time></trkpt><trkpt lat="45.572881221223845" lon="11.142693649121444"><ele>529.0</ele><time>2026-04-25T13:11:50.009Z</time></trkpt><trkpt lat="45.57290513581845" lon="11.142575159501442"><ele>529.0</ele><time>2026-04-25T13:11:51.009Z</time></trkpt><trkpt lat="45.57295429697841" lon="11.142460732515728"><ele>529.0</ele><time>2026-04-25T13:11:53.009Z</time></trkpt><trkpt lat="45.57300462386144" lon="11.142373874939699"><ele>529.0</ele><time>2026-04-25T13:11:54.009Z</time></trkpt><trkpt lat="45.57304479820846" lon="11.142297003175218"><ele>529.0</ele><time>2026-04-25T13:11:55.009Z</time></trkpt><trkpt lat="45.5731000061631" lon="11.142250614733753"><ele>529.0</ele><time>2026-04-25T13:11:56.009Z</time></trkpt><trkpt lat="45.573167117136464" lon="11.142145687258576"><ele>530.3333333333334</ele><time>2026-04-25T13:11:57.009Z</time></trkpt><trkpt lat="45.573227648678056" lon="11.142085546739137"><ele>531.6666666666667</ele><time>2026-04-25T13:11:58.009Z</time></trkpt><trkpt lat="45.57327925489143" lon="11.142007357427083"><ele>533.0</ele><time>2026-04-25T13:11:59.008Z</time></trkpt><trkpt lat="45.57332099273417" lon="11.141916733441107"><ele>534.3333333333334</ele><time>2026-04-25T13:12:00.008Z</time></trkpt><trkpt lat="45.573371751325865" lon="11.141848922428105"><ele>535.6666666666666</ele><time>2026-04-25T13:12:01.008Z</time></trkpt><trkpt lat="45.5734298310531" lon="11.141756958693623"><ele>537.0</ele><time>2026-04-25T13:12:03.009Z</time></trkpt><trkpt lat="45.57344341586435" lon="11.141636597590397"><ele>540.2857142857142</ele><time>2026-04-25T13:12:06.008Z</time></trkpt><trkpt lat="45.573448068963735" lon="11.141539691003466"><ele>543.5714285714286</ele><time>2026-04-25T13:12:09.009Z</time></trkpt><trkpt lat="45.573387512331976" lon="11.141450472087573"><ele>546.8571428571429</ele><time>2026-04-25T13:12:12.008Z</time></trkpt><trkpt lat="45.57331911092318" lon="11.141453933120971"><ele>550.1428571428571</ele><time>2026-04-25T13:12:16.008Z</time></trkpt><trkpt lat="45.57324828026124" lon="11.141435167207346"><ele>553.4285714285714</ele><time>2026-04-25T13:12:21.008Z</time></trkpt><trkpt lat="45.57319599969598" lon="11.141372850348503"><ele>556.7142857142857</ele><time>2026-04-25T13:12:27.008Z</time></trkpt><trkpt lat="45.57320622124636" lon="11.141264623508153"><ele>560.0</ele><time>2026-04-25T13:12:32.008Z</time></trkpt><trkpt lat="45.57316341783046" lon="11.141194060149799"><ele>560.0</ele><time>2026-04-25T13:12:35.008Z</time></trkpt><trkpt lat="45.57310204642626" lon="11.141230688453419"><ele>560.0</ele><time>2026-04-25T13:12:39.008Z</time></trkpt><trkpt lat="45.57308257941919" lon="11.141128317579849"><ele>560.0</ele><time>2026-04-25T13:12:44.008Z</time></trkpt><trkpt lat="45.57306687688858" lon="11.141030896807768"><ele>560.0</ele><time>2026-04-25T13:12:50.008Z</time></trkpt><trkpt lat="45.57298484864354" lon="11.141010799796558"><ele>560.0</ele><time>2026-04-25T13:12:54.008Z</time></trkpt><trkpt lat="45.57290507892996" lon="11.141051736884137"><ele>560.0</ele><time>2026-04-25T13:12:57.008Z</time></trkpt><trkpt lat="45.572834979109494" lon="11.141033025540253"><ele>564.2857142857143</ele><time>2026-04-25T13:13:01.008Z</time></trkpt><trkpt lat="45.57278376504632" lon="11.141087495883115"><ele>568.5714285714286</ele><time>2026-04-25T13:13:04.008Z</time></trkpt><trkpt lat="45.57272017586441" lon="11.141109989800224"><ele>572.8571428571429</ele><time>2026-04-25T13:13:07.008Z</time></trkpt><trkpt lat="45.572645085791315" lon="11.141116730940388"><ele>577.1428571428571</ele><time>2026-04-25T13:13:10.008Z</time></trkpt><trkpt lat="45.57257502315206" lon="11.14113435976028"><ele>581.4285714285714</ele><time>2026-04-25T13:13:14.008Z</time></trkpt><trkpt lat="45.57250633323591" lon="11.141162616366648"><ele>585.7142857142858</ele><time>2026-04-25T13:13:18.008Z</time></trkpt><trkpt lat="45.5724437121059" lon="11.141108145076744"><ele>590.0</ele><time>2026-04-25T13:13:23.008Z</time></trkpt><trkpt lat="45.57237512489304" lon="11.141005269784605"><ele>590.0</ele><time>2026-04-25T13:13:33.008Z</time></trkpt><trkpt lat="45.57237066300296" lon="11.140907995231236"><ele>590.0</ele><time>2026-04-25T13:13:37.008Z</time></trkpt><trkpt lat="45.572378058273365" lon="11.1407952958897"><ele>590.0</ele><time>2026-04-25T13:13:40.008Z</time></trkpt><trkpt lat="45.57240737593918" lon="11.140679309370402"><ele>590.0</ele><time>2026-04-25T13:13:44.008Z</time></trkpt><trkpt lat="45.57242738120596" lon="11.140584926666707"><ele>590.0</ele><time>2026-04-25T13:13:46.008Z</time></trkpt><trkpt lat="45.57247683965285" lon="11.140466376598653"><ele>590.0</ele><time>2026-04-25T13:13:48.008Z</time></trkpt><trkpt lat="45.57251736559275" lon="11.140365769041997"><ele>594.6666666666666</ele><time>2026-04-25T13:13:52.008Z</time></trkpt><trkpt lat="45.572516873082435" lon="11.140225526884876"><ele>599.3333333333333</ele><time>2026-04-25T13:13:55.008Z</time></trkpt><trkpt lat="45.572457917171086" lon="11.140177278291695"><ele>604.0</ele><time>2026-04-25T13:13:58.008Z</time></trkpt><trkpt lat="45.572379703129336" lon="11.140108246338913"><ele>608.6666666666666</ele><time>2026-04-25T13:14:02.008Z</time></trkpt><trkpt lat="45.57231091466243" lon="11.140102148814695"><ele>613.3333333333334</ele><time>2026-04-25T13:14:06.009Z</time></trkpt><trkpt lat="45.57222085812216" lon="11.140094690147617"><ele>618.0</ele><time>2026-04-25T13:14:09.009Z</time></trkpt><trkpt lat="45.572155327181854" lon="11.140091129194282"><ele>618.0000000000001</ele><time>2026-04-25T13:14:11.009Z</time></trkpt><trkpt lat="45.57207268976006" lon="11.140094781814888"><ele>618.0</ele><time>2026-04-25T13:14:14.009Z</time></trkpt><trkpt lat="45.5720113755829" lon="11.140068173509999"><ele>618.0</ele><time>2026-04-25T13:14:17.009Z</time></trkpt><trkpt lat="45.571969993654506" lon="11.139977383390397"><ele>618.0</ele><time>2026-04-25T13:14:19.009Z</time></trkpt><trkpt lat="45.57189938791582" lon="11.139984322391554"><ele>618.0</ele><time>2026-04-25T13:14:20.009Z</time></trkpt><trkpt lat="45.571855779469814" lon="11.139919246624114"><ele>618.0000000000001</ele><time>2026-04-25T13:14:22.009Z</time></trkpt><trkpt lat="45.571873193012216" lon="11.139801968377647"><ele>618.0</ele><time>2026-04-25T13:14:27.009Z</time></trkpt><trkpt lat="45.571886329922904" lon="11.139692269483465"><ele>621.5</ele><time>2026-04-25T13:14:31.009Z</time></trkpt><trkpt lat="45.57193541188385" lon="11.139623881177378"><ele>625.0</ele><time>2026-04-25T13:14:33.009Z</time></trkpt><trkpt lat="45.57193164937634" lon="11.139520156152265"><ele>628.5</ele><time>2026-04-25T13:14:35.009Z</time></trkpt><trkpt lat="45.57191634971013" lon="11.139395057308226"><ele>632.0</ele><time>2026-04-25T13:14:37.009Z</time></trkpt><trkpt lat="45.571917095282984" lon="11.13922408082704"><ele>635.5</ele><time>2026-04-25T13:14:39.009Z</time></trkpt><trkpt lat="45.571928012658546" lon="11.139101877250404"><ele>639.0</ele><time>2026-04-25T13:14:41.009Z</time></trkpt><trkpt lat="45.57193174391933" lon="11.138989899469493"><ele>640.1666666666666</ele><time>2026-04-25T13:14:43.009Z</time></trkpt><trkpt lat="45.57192040221915" lon="11.138854529571654"><ele>641.3333333333334</ele><time>2026-04-25T13:14:45.009Z</time></trkpt><trkpt lat="45.57191541168559" lon="11.138749009654209"><ele>642.5</ele><time>2026-04-25T13:14:47.009Z</time></trkpt><trkpt lat="45.571950707618164" lon="11.138658639006323"><ele>643.6666666666667</ele><time>2026-04-25T13:14:49.009Z</time></trkpt><trkpt lat="45.57192794115948" lon="11.138522814493818"><ele>644.8333333333334</ele><time>2026-04-25T13:14:51.009Z</time></trkpt><trkpt lat="45.57199264912996" lon="11.138396070955483"><ele>646.0</ele><time>2026-04-25T13:14:54.009Z</time></trkpt><trkpt lat="45.57199557487181" lon="11.13828753500296"><ele>648.75</ele><time>2026-04-25T13:14:56.009Z</time></trkpt><trkpt lat="45.572039915875074" lon="11.138188557584812"><ele>651.5</ele><time>2026-04-25T13:15:00.009Z</time></trkpt><trkpt lat="45.571928517372285" lon="11.137941492887043"><ele>654.25</ele><time>2026-04-25T13:15:01.009Z</time></trkpt><trkpt lat="45.57190553906584" lon="11.13779431501553"><ele>657.0</ele><time>2026-04-25T13:15:02.009Z</time></trkpt><trkpt lat="45.57188694044436" lon="11.137643553326201"><ele>657.0</ele><time>2026-04-25T13:15:03.009Z</time></trkpt><trkpt lat="45.571871328607486" lon="11.137454783454245"><ele>657.0</ele><time>2026-04-25T13:15:04.009Z</time></trkpt><trkpt lat="45.57192591468471" lon="11.137278076225039"><ele>657.0</ele><time>2026-04-25T13:15:05.009Z</time></trkpt><trkpt lat="45.57194840543519" lon="11.137130523457346"><ele>657.0</ele><time>2026-04-25T13:15:06.009Z</time></trkpt><trkpt lat="45.57190102090902" lon="11.136720469934822"><ele>687.0</ele><time>2026-04-25T13:15:10.009Z</time></trkpt><trkpt lat="45.5719154513154" lon="11.136052183099176"><ele>687.0</ele><time>2026-04-25T13:15:12.009Z</time></trkpt><trkpt lat="45.57187195193924" lon="11.136119192532005"><ele>687.0</ele><time>2026-04-25T13:15:13.009Z</time></trkpt><trkpt lat="45.57180858265782" lon="11.136203526264627"><ele>687.0</ele><time>2026-04-25T13:15:14.009Z</time></trkpt><trkpt lat="45.5717506236423" lon="11.13625186520108"><ele>687.0</ele><time>2026-04-25T13:15:15.009Z</time></trkpt><trkpt lat="45.571682430111395" lon="11.136292342368096"><ele>687.0</ele><time>2026-04-25T13:15:16.009Z</time></trkpt><trkpt lat="45.571594374468845" lon="11.136342330644498"><ele>687.0</ele><time>2026-04-25T13:15:17.009Z</time></trkpt><trkpt lat="45.57148339357295" lon="11.136384449462634"><ele>687.0</ele><time>2026-04-25T13:15:18.009Z</time></trkpt><trkpt lat="45.57137392863309" lon="11.13639656053103"><ele>687.0</ele><time>2026-04-25T13:15:19.009Z</time></trkpt><trkpt lat="45.571267884625854" lon="11.136391029095968"><ele>687.0</ele><time>2026-04-25T13:15:20.009Z</time></trkpt><trkpt lat="45.57118032265536" lon="11.136387297943699"><ele>687.0</ele><time>2026-04-25T13:15:21.009Z</time></trkpt><trkpt lat="45.571116090000885" lon="11.136331106825548"><ele>687.0</ele><time>2026-04-25T13:15:23.009Z</time></trkpt><trkpt lat="45.571096254185925" lon="11.136159648001144"><ele>685.25</ele><time>2026-04-25T13:15:25.009Z</time></trkpt><trkpt lat="45.571085080181064" lon="11.136048947683605"><ele>683.5</ele><time>2026-04-25T13:15:26.009Z</time></trkpt><trkpt lat="45.57104926933075" lon="11.135877446093623"><ele>681.75</ele><time>2026-04-25T13:15:27.009Z</time></trkpt><trkpt lat="45.57098647304717" lon="11.135693736809865"><ele>680.0</ele><time>2026-04-25T13:15:28.009Z</time></trkpt><trkpt lat="45.570922131693244" lon="11.135512763373493"><ele>684.25</ele><time>2026-04-25T13:15:29.009Z</time></trkpt><trkpt lat="45.57088362796528" lon="11.135347841975129"><ele>688.5</ele><time>2026-04-25T13:15:30.009Z</time></trkpt><trkpt lat="45.57084656262429" lon="11.135191283555788"><ele>692.75</ele><time>2026-04-25T13:15:31.009Z</time></trkpt><trkpt lat="45.57082368158844" lon="11.135051216672029"><ele>697.0</ele><time>2026-04-25T13:15:32.009Z</time></trkpt><trkpt lat="45.5707642642125" lon="11.134896949081053"><ele>699.0</ele><time>2026-04-25T13:15:33.009Z</time></trkpt><trkpt lat="45.57072796254803" lon="11.13473970252622"><ele>701.0</ele><time>2026-04-25T13:15:34.009Z</time></trkpt><trkpt lat="45.57071475792104" lon="11.134580131161998"><ele>703.0</ele><time>2026-04-25T13:15:35.009Z</time></trkpt><trkpt lat="45.570665105021654" lon="11.134433008979528"><ele>705.0</ele><time>2026-04-25T13:15:36.009Z</time></trkpt><trkpt lat="45.57061418399114" lon="11.13430366251861"><ele>707.0</ele><time>2026-04-25T13:15:37.009Z</time></trkpt><trkpt lat="45.57058323962713" lon="11.134199205530356"><ele>707.0</ele><time>2026-04-25T13:15:38.009Z</time></trkpt><trkpt lat="45.570693631680676" lon="11.134058049867946"><ele>707.0</ele><time>2026-04-25T13:15:40.009Z</time></trkpt><trkpt lat="45.57062073513016" lon="11.134122943020827"><ele>707.0</ele><time>2026-04-25T13:15:46.009Z</time></trkpt><trkpt lat="45.5706054710682" lon="11.134216240061418"><ele>707.0</ele><time>2026-04-25T13:15:47.009Z</time></trkpt><trkpt lat="45.57065394751441" lon="11.134362765143983"><ele>707.0</ele><time>2026-04-25T13:15:49.009Z</time></trkpt><trkpt lat="45.57070690851075" lon="11.13446511063941"><ele>707.0</ele><time>2026-04-25T13:15:50.009Z</time></trkpt><trkpt lat="45.570766246522616" lon="11.134537352828024"><ele>707.0</ele><time>2026-04-25T13:15:51.009Z</time></trkpt><trkpt lat="45.57083963818466" lon="11.13459952044202"><ele>707.0</ele><time>2026-04-25T13:15:52.009Z</time></trkpt><trkpt lat="45.570913978912486" lon="11.13467628411947"><ele>707.0</ele><time>2026-04-25T13:15:53.009Z</time></trkpt><trkpt lat="45.57096583560578" lon="11.13478370049334"><ele>707.0</ele><time>2026-04-25T13:15:54.009Z</time></trkpt><trkpt lat="45.571031865971854" lon="11.134861354364267"><ele>707.0</ele><time>2026-04-25T13:15:55.009Z</time></trkpt><trkpt lat="45.57109616408775" lon="11.134911618541205"><ele>707.0</ele><time>2026-04-25T13:15:57.009Z</time></trkpt><trkpt lat="45.57108826823127" lon="11.134681140499879"><ele>707.0</ele><time>2026-04-25T13:16:05.009Z</time></trkpt><trkpt lat="45.57105901770769" lon="11.134540326290866"><ele>707.0</ele><time>2026-04-25T13:16:07.009Z</time></trkpt><trkpt lat="45.57101374214336" lon="11.134410744133126"><ele>707.0</ele><time>2026-04-25T13:16:09.009Z</time></trkpt><trkpt lat="45.57096828325319" lon="11.134283622103673"><ele>707.0</ele><time>2026-04-25T13:16:11.009Z</time></trkpt><trkpt lat="45.57098616343862" lon="11.13410572178695"><ele>707.0</ele><time>2026-04-25T13:16:13.009Z</time></trkpt><trkpt lat="45.57100699356185" lon="11.13392992160228"><ele>707.0</ele><time>2026-04-25T13:16:15.009Z</time></trkpt><trkpt lat="45.57104369531753" lon="11.133779819663141"><ele>707.0</ele><time>2026-04-25T13:16:17.01Z</time></trkpt><trkpt lat="45.57108140413211" lon="11.133666104403128"><ele>706.5</ele><time>2026-04-25T13:16:19.009Z</time></trkpt><trkpt lat="45.57111762677895" lon="11.133592449318487"><ele>706.0</ele><time>2026-04-25T13:16:20.009Z</time></trkpt><trkpt lat="45.57121228213959" lon="11.13347730464345"><ele>705.5</ele><time>2026-04-25T13:16:22.009Z</time></trkpt><trkpt lat="45.57125027386587" lon="11.133390263470353"><ele>705.0</ele><time>2026-04-25T13:16:23.009Z</time></trkpt><trkpt lat="45.57128448191226" lon="11.13330831643985"><ele>704.5</ele><time>2026-04-25T13:16:24.009Z</time></trkpt><trkpt lat="45.571315395021394" lon="11.133227265498387"><ele>704.0</ele><time>2026-04-25T13:16:25.009Z</time></trkpt><trkpt lat="45.571350955400966" lon="11.133144881463068"><ele>707.0</ele><time>2026-04-25T13:16:26.009Z</time></trkpt><trkpt lat="45.57138472396231" lon="11.13305934587362"><ele>710.0</ele><time>2026-04-25T13:16:27.009Z</time></trkpt><trkpt lat="45.57143724476743" lon="11.132977046705335"><ele>713.0</ele><time>2026-04-25T13:16:28.009Z</time></trkpt><trkpt lat="45.57146844923112" lon="11.13289425964768"><ele>716.0</ele><time>2026-04-25T13:16:29.009Z</time></trkpt><trkpt lat="45.571537338549554" lon="11.132763118884847"><ele>719.0</ele><time>2026-04-25T13:16:31.009Z</time></trkpt><trkpt lat="45.571589270089056" lon="11.132655516927933"><ele>722.0</ele><time>2026-04-25T13:16:32.009Z</time></trkpt><trkpt lat="45.57164149625931" lon="11.1325351209058"><ele>722.0</ele><time>2026-04-25T13:16:33.009Z</time></trkpt><trkpt lat="45.571689960860155" lon="11.132401394227617"><ele>722.0</ele><time>2026-04-25T13:16:34.009Z</time></trkpt><trkpt lat="45.571716042866605" lon="11.132261596651501"><ele>722.0</ele><time>2026-04-25T13:16:35.009Z</time></trkpt><trkpt lat="45.57173413315264" lon="11.132131172090121"><ele>722.0</ele><time>2026-04-25T13:16:36.009Z</time></trkpt><trkpt lat="45.571706327990405" lon="11.131981579615383"><ele>722.0</ele><time>2026-04-25T13:16:37.009Z</time></trkpt><trkpt lat="45.57164710861435" lon="11.13183401357238"><ele>722.0</ele><time>2026-04-25T13:16:38.009Z</time></trkpt><trkpt lat="45.571590936374946" lon="11.131734048502572"><ele>722.0</ele><time>2026-04-25T13:16:39.009Z</time></trkpt><trkpt lat="45.57154280105767" lon="11.131623719027745"><ele>722.0</ele><time>2026-04-25T13:16:40.009Z</time></trkpt><trkpt lat="45.57149552660281" lon="11.13151477947293"><ele>722.0</ele><time>2026-04-25T13:16:41.009Z</time></trkpt><trkpt lat="45.57148170647075" lon="11.131391889016509"><ele>722.0</ele><time>2026-04-25T13:16:42.009Z</time></trkpt><trkpt lat="45.57146809167069" lon="11.131289711000267"><ele>722.0</ele><time>2026-04-25T13:16:43.009Z</time></trkpt><trkpt lat="45.571458039834305" lon="11.131141251372123"><ele>723.8333333333333</ele><time>2026-04-25T13:16:45.009Z</time></trkpt><trkpt lat="45.57145684476442" lon="11.131029036329283"><ele>725.6666666666666</ele><time>2026-04-25T13:16:48.009Z</time></trkpt><trkpt lat="45.571422992140675" lon="11.130920364516724"><ele>727.5</ele><time>2026-04-25T13:16:51.009Z</time></trkpt><trkpt lat="45.57137918424145" lon="11.131007483352025"><ele>729.3333333333334</ele><time>2026-04-25T13:16:55.009Z</time></trkpt><trkpt lat="45.5714170666948" lon="11.131085433473817"><ele>731.1666666666667</ele><time>2026-04-25T13:16:56.009Z</time></trkpt><trkpt lat="45.571435790751885" lon="11.131187646778702"><ele>733.0</ele><time>2026-04-25T13:16:57.009Z</time></trkpt><trkpt lat="45.57144821051791" lon="11.131312924244844"><ele>733.0</ele><time>2026-04-25T13:16:58.009Z</time></trkpt><trkpt lat="45.571465246891286" lon="11.131454274233183"><ele>733.0</ele><time>2026-04-25T13:16:59.009Z</time></trkpt><trkpt lat="45.57150711298853" lon="11.131597880401298"><ele>733.0</ele><time>2026-04-25T13:17:00.009Z</time></trkpt><trkpt lat="45.571576521703705" lon="11.131743504715574"><ele>733.0</ele><time>2026-04-25T13:17:01.009Z</time></trkpt><trkpt lat="45.571651299588716" lon="11.131865383548874"><ele>733.0</ele><time>2026-04-25T13:17:02.009Z</time></trkpt><trkpt lat="45.571708110221486" lon="11.131984159032541"><ele>730.8</ele><time>2026-04-25T13:17:03.009Z</time></trkpt><trkpt lat="45.571732736146004" lon="11.132093300662056"><ele>728.5999999999999</ele><time>2026-04-25T13:17:04.009Z</time></trkpt><trkpt lat="45.57171542285024" lon="11.132187300472276"><ele>726.4000000000001</ele><time>2026-04-25T13:17:05.009Z</time></trkpt><trkpt lat="45.57169593450578" lon="11.132281450379981"><ele>724.2</ele><time>2026-04-25T13:17:06.009Z</time></trkpt><trkpt lat="45.571626581460464" lon="11.132393229172559"><ele>722.0</ele><time>2026-04-25T13:17:07.009Z</time></trkpt><trkpt lat="45.57154817357241" lon="11.132549870877487"><ele>722.0</ele><time>2026-04-25T13:17:08.009Z</time></trkpt><trkpt lat="45.57150928758049" lon="11.132698942211668"><ele>722.0</ele><time>2026-04-25T13:17:09.009Z</time></trkpt><trkpt lat="45.57147190347778" lon="11.13285809368542"><ele>722.0</ele><time>2026-04-25T13:17:10.009Z</time></trkpt><trkpt lat="45.57143479513137" lon="11.132992232351047"><ele>722.0</ele><time>2026-04-25T13:17:11.009Z</time></trkpt><trkpt lat="45.57142270714772" lon="11.133167544899077"><ele>723.0</ele><time>2026-04-25T13:17:12.009Z</time></trkpt><trkpt lat="45.57142871881954" lon="11.133355312721624"><ele>724.0</ele><time>2026-04-25T13:17:13.009Z</time></trkpt><trkpt lat="45.57143241865124" lon="11.13352936757893"><ele>725.0</ele><time>2026-04-25T13:17:14.009Z</time></trkpt><trkpt lat="45.57141837556052" lon="11.133670387652618"><ele>726.0</ele><time>2026-04-25T13:17:15.009Z</time></trkpt><trkpt lat="45.57140410349277" lon="11.133788776663662"><ele>727.0</ele><time>2026-04-25T13:17:16.009Z</time></trkpt><trkpt lat="45.571413442875595" lon="11.133880900561355"><ele>727.0</ele><time>2026-04-25T13:17:17.009Z</time></trkpt><trkpt lat="45.57149423178603" lon="11.133999744049817"><ele>727.0</ele><time>2026-04-25T13:17:19.009Z</time></trkpt><trkpt lat="45.57156609537717" lon="11.134011703211367"><ele>727.0</ele><time>2026-04-25T13:17:22.009Z</time></trkpt><trkpt lat="45.57165071582074" lon="11.134052202913386"><ele>727.0</ele><time>2026-04-25T13:17:33.009Z</time></trkpt><trkpt lat="45.571731332652966" lon="11.13403069799459"><ele>727.0</ele><time>2026-04-25T13:17:34.009Z</time></trkpt><trkpt lat="45.57181219464227" lon="11.133975568688015"><ele>727.0</ele><time>2026-04-25T13:17:35.009Z</time></trkpt><trkpt lat="45.57189476006395" lon="11.13390471134967"><ele>727.0</ele><time>2026-04-25T13:17:36.009Z</time></trkpt><trkpt lat="45.57198237749209" lon="11.133850617038814"><ele>727.0</ele><time>2026-04-25T13:17:37.009Z</time></trkpt><trkpt lat="45.572059855606334" lon="11.133786363215146"><ele>727.0</ele><time>2026-04-25T13:17:38.009Z</time></trkpt><trkpt lat="45.57213875084174" lon="11.13372222044482"><ele>727.0</ele><time>2026-04-25T13:17:39.009Z</time></trkpt><trkpt lat="45.57221805739196" lon="11.133663390115824"><ele>727.0</ele><time>2026-04-25T13:17:40.009Z</time></trkpt><trkpt lat="45.57231582675561" lon="11.133581020917113"><ele>728.5</ele><time>2026-04-25T13:17:41.009Z</time></trkpt><trkpt lat="45.57241635282904" lon="11.133521390420016"><ele>730.0</ele><time>2026-04-25T13:17:42.009Z</time></trkpt><trkpt lat="45.57252801681612" lon="11.133439829637007"><ele>731.5</ele><time>2026-04-25T13:17:43.009Z</time></trkpt><trkpt lat="45.57265115000317" lon="11.13336550587333"><ele>733.0</ele><time>2026-04-25T13:17:44.009Z</time></trkpt><trkpt lat="45.57277269234615" lon="11.13328061002415"><ele>734.25</ele><time>2026-04-25T13:17:45.009Z</time></trkpt><trkpt lat="45.57287991440459" lon="11.133188916891608"><ele>735.5</ele><time>2026-04-25T13:17:46.009Z</time></trkpt><trkpt lat="45.572976853411234" lon="11.133081641169944"><ele>736.75</ele><time>2026-04-25T13:17:47.009Z</time></trkpt><trkpt lat="45.573053185892675" lon="11.132964336994515"><ele>738.0</ele><time>2026-04-25T13:17:48.009Z</time></trkpt><trkpt lat="45.573115860430484" lon="11.132842796481519"><ele>738.0</ele><time>2026-04-25T13:17:49.009Z</time></trkpt><trkpt lat="45.573183551604096" lon="11.132706215748627"><ele>738.0</ele><time>2026-04-25T13:17:50.009Z</time></trkpt><trkpt lat="45.573264583237524" lon="11.132592344059209"><ele>738.0</ele><time>2026-04-25T13:17:51.009Z</time></trkpt><trkpt lat="45.57333497727745" lon="11.132472717047415"><ele>738.0</ele><time>2026-04-25T13:17:52.009Z</time></trkpt><trkpt lat="45.57341910338965" lon="11.132362408314904"><ele>738.5999999999999</ele><time>2026-04-25T13:17:53.009Z</time></trkpt><trkpt lat="45.57349249208122" lon="11.132246881582146"><ele>739.1999999999999</ele><time>2026-04-25T13:17:54.008Z</time></trkpt><trkpt lat="45.573568047216035" lon="11.132172207048658"><ele>739.8</ele><time>2026-04-25T13:17:55.008Z</time></trkpt><trkpt lat="45.57363332412374" lon="11.132079796973397"><ele>740.4</ele><time>2026-04-25T13:17:56.008Z</time></trkpt><trkpt lat="45.57371339666998" lon="11.131979527154817"><ele>741.0</ele><time>2026-04-25T13:17:57.008Z</time></trkpt><trkpt lat="45.573786375875706" lon="11.13187597753104"><ele>741.0</ele><time>2026-04-25T13:17:58.008Z</time></trkpt><trkpt lat="45.57386021406414" lon="11.131771649466202"><ele>741.0</ele><time>2026-04-25T13:17:59.008Z</time></trkpt><trkpt lat="45.57394334432004" lon="11.131678352775277"><ele>741.0</ele><time>2026-04-25T13:18:00.008Z</time></trkpt><trkpt lat="45.574030740678744" lon="11.131595116249285"><ele>741.0</ele><time>2026-04-25T13:18:01.008Z</time></trkpt><trkpt lat="45.574104279542155" lon="11.131526117623402"><ele>741.0</ele><time>2026-04-25T13:18:02.008Z</time></trkpt><trkpt lat="45.57417837071745" lon="11.131472854264574"><ele>741.0</ele><time>2026-04-25T13:18:03.008Z</time></trkpt><trkpt lat="45.57424700737156" lon="11.131456475012886"><ele>741.0</ele><time>2026-04-25T13:18:04.008Z</time></trkpt><trkpt lat="45.57430059729816" lon="11.13152496604166"><ele>741.0</ele><time>2026-04-25T13:18:05.008Z</time></trkpt><trkpt lat="45.57432770621821" lon="11.131610198336226"><ele>741.0</ele><time>2026-04-25T13:18:06.008Z</time></trkpt><trkpt lat="45.574339062054605" lon="11.131728510547939"><ele>741.0</ele><time>2026-04-25T13:18:07.008Z</time></trkpt><trkpt lat="45.574338561730784" lon="11.131855538086265"><ele>741.0</ele><time>2026-04-25T13:18:08.008Z</time></trkpt><trkpt lat="45.57431360675023" lon="11.131980855282983"><ele>741.0</ele><time>2026-04-25T13:18:09.008Z</time></trkpt><trkpt lat="45.57427933840527" lon="11.132119957948833"><ele>741.0</ele><time>2026-04-25T13:18:10.008Z</time></trkpt><trkpt lat="45.574246963736336" lon="11.132249491491494"><ele>741.0</ele><time>2026-04-25T13:18:11.008Z</time></trkpt><trkpt lat="45.57420802130626" lon="11.132382525128941"><ele>741.0</ele><time>2026-04-25T13:18:12.008Z</time></trkpt><trkpt lat="45.574182598371436" lon="11.132521467906974"><ele>741.0</ele><time>2026-04-25T13:18:13.008Z</time></trkpt><trkpt lat="45.574164505963644" lon="11.132666231065713"><ele>741.5</ele><time>2026-04-25T13:18:14.008Z</time></trkpt><trkpt lat="45.574164929032904" lon="11.132802161004966"><ele>742.0</ele><time>2026-04-25T13:18:15.008Z</time></trkpt><trkpt lat="45.57416953080007" lon="11.132976221679755"><ele>742.5</ele><time>2026-04-25T13:18:16.01Z</time></trkpt><trkpt lat="45.5741548536733" lon="11.133147848736677"><ele>743.0</ele><time>2026-04-25T13:18:17.009Z</time></trkpt><trkpt lat="45.57414133794975" lon="11.133310116515021"><ele>744.5</ele><time>2026-04-25T13:18:18.009Z</time></trkpt><trkpt lat="45.57414519094168" lon="11.133477956587754"><ele>746.0</ele><time>2026-04-25T13:18:19.01Z</time></trkpt><trkpt lat="45.5741495546119" lon="11.13363399939537"><ele>747.5</ele><time>2026-04-25T13:18:20.01Z</time></trkpt><trkpt lat="45.574155984579356" lon="11.133815273064572"><ele>749.0</ele><time>2026-04-25T13:18:21.01Z</time></trkpt><trkpt lat="45.57415540384562" lon="11.13395836346702"><ele>749.0</ele><time>2026-04-25T13:18:22.01Z</time></trkpt><trkpt lat="45.57417861291268" lon="11.134076780493793"><ele>749.0</ele><time>2026-04-25T13:18:23.009Z</time></trkpt><trkpt lat="45.574217273520645" lon="11.134157158005472"><ele>749.0</ele><time>2026-04-25T13:18:24.009Z</time></trkpt><trkpt lat="45.574281150607405" lon="11.134196345169052"><ele>749.0</ele><time>2026-04-25T13:18:25.009Z</time></trkpt><trkpt lat="45.574348493501375" lon="11.134161883004342"><ele>749.0</ele><time>2026-04-25T13:18:27.009Z</time></trkpt><trkpt lat="45.57437734984696" lon="11.134012182678635"><ele>749.0</ele><time>2026-04-25T13:18:29.009Z</time></trkpt><trkpt lat="45.57436510225546" lon="11.133869602420777"><ele>749.0</ele><time>2026-04-25T13:18:31.009Z</time></trkpt><trkpt lat="45.574368537147144" lon="11.13396051863322"><ele>749.0</ele><time>2026-04-25T13:18:47.009Z</time></trkpt><trkpt lat="45.57436835410376" lon="11.134092528513301"><ele>749.0</ele><time>2026-04-25T13:18:50.009Z</time></trkpt><trkpt lat="45.57437433487122" lon="11.134229138282386"><ele>749.0</ele><time>2026-04-25T13:18:52.009Z</time></trkpt><trkpt lat="45.57441502765301" lon="11.134350365311505"><ele>749.0</ele><time>2026-04-25T13:18:54.009Z</time></trkpt><trkpt lat="45.574463971049596" lon="11.134464200363187"><ele>749.0</ele><time>2026-04-25T13:18:56.009Z</time></trkpt><trkpt lat="45.57451172054443" lon="11.134589635270688"><ele>753.5</ele><time>2026-04-25T13:18:58.009Z</time></trkpt><trkpt lat="45.574576413227135" lon="11.134692496263737"><ele>758.0</ele><time>2026-04-25T13:19:00.009Z</time></trkpt><trkpt lat="45.574651387361456" lon="11.134756288038412"><ele>762.5</ele><time>2026-04-25T13:19:02.009Z</time></trkpt><trkpt lat="45.57473590047567" lon="11.134710681258651"><ele>767.0</ele><time>2026-04-25T13:19:04.009Z</time></trkpt><trkpt lat="45.57475019242948" lon="11.134591157454668"><ele>771.5000000000001</ele><time>2026-04-25T13:19:06.009Z</time></trkpt><trkpt lat="45.574757003860505" lon="11.134494773794412"><ele>776.0</ele><time>2026-04-25T13:19:08.009Z</time></trkpt><trkpt lat="45.574769979958" lon="11.134386756420135"><ele>776.0</ele><time>2026-04-25T13:19:10.009Z</time></trkpt><trkpt lat="45.57479497724196" lon="11.13424975323321"><ele>776.0</ele><time>2026-04-25T13:19:12.009Z</time></trkpt><trkpt lat="45.57480905615229" lon="11.134138311937306"><ele>776.0</ele><time>2026-04-25T13:19:13.009Z</time></trkpt><trkpt lat="45.57483802276773" lon="11.134032579351171"><ele>776.0</ele><time>2026-04-25T13:19:14.009Z</time></trkpt><trkpt lat="45.574895960893734" lon="11.133911316233776"><ele>776.0</ele><time>2026-04-25T13:19:16.009Z</time></trkpt><trkpt lat="45.57499083424351" lon="11.133994435689461"><ele>776.0</ele><time>2026-04-25T13:19:19.009Z</time></trkpt><trkpt lat="45.57501811593738" lon="11.13407560179636"><ele>776.0</ele><time>2026-04-25T13:19:20.009Z</time></trkpt><trkpt lat="45.575045156766265" lon="11.134162136230364"><ele>776.0</ele><time>2026-04-25T13:19:21.009Z</time></trkpt><trkpt lat="45.57508262112891" lon="11.134246937972556"><ele>776.0</ele><time>2026-04-25T13:19:22.009Z</time></trkpt><trkpt lat="45.575131699847184" lon="11.134303935367871"><ele>776.0</ele><time>2026-04-25T13:19:23.009Z</time></trkpt><trkpt lat="45.57519845901123" lon="11.134311028123209"><ele>776.0</ele><time>2026-04-25T13:19:24.009Z</time></trkpt><trkpt lat="45.57526459377778" lon="11.13427378457078"><ele>776.0</ele><time>2026-04-25T13:19:25.009Z</time></trkpt><trkpt lat="45.57533327747253" lon="11.134203727906604"><ele>775.8333333333334</ele><time>2026-04-25T13:19:26.009Z</time></trkpt><trkpt lat="45.575388131986806" lon="11.134114817699224"><ele>775.6666666666667</ele><time>2026-04-25T13:19:27.009Z</time></trkpt><trkpt lat="45.575417526017816" lon="11.134009343247905"><ele>775.5</ele><time>2026-04-25T13:19:28.009Z</time></trkpt><trkpt lat="45.575420182779006" lon="11.133903553223034"><ele>775.3333333333333</ele><time>2026-04-25T13:19:29.009Z</time></trkpt><trkpt lat="45.575427693195486" lon="11.133782603444384"><ele>775.1666666666666</ele><time>2026-04-25T13:19:30.009Z</time></trkpt><trkpt lat="45.57542516931992" lon="11.133633174734639"><ele>775.0</ele><time>2026-04-25T13:19:31.009Z</time></trkpt><trkpt lat="45.5754334245809" lon="11.133491395425382"><ele>779.25</ele><time>2026-04-25T13:19:32.009Z</time></trkpt><trkpt lat="45.57545778572503" lon="11.133352730801866"><ele>783.5</ele><time>2026-04-25T13:19:33.009Z</time></trkpt><trkpt lat="45.57549304963763" lon="11.133207051283902"><ele>787.75</ele><time>2026-04-25T13:19:34.009Z</time></trkpt><trkpt lat="45.57554941358353" lon="11.133042398309037"><ele>792.0</ele><time>2026-04-25T13:19:35.009Z</time></trkpt><trkpt lat="45.575595103886855" lon="11.132880154966434"><ele>792.6</ele><time>2026-04-25T13:19:36.009Z</time></trkpt><trkpt lat="45.57562377228385" lon="11.132742882456458"><ele>793.2</ele><time>2026-04-25T13:19:37.009Z</time></trkpt><trkpt lat="45.5756683861005" lon="11.13262062436297"><ele>793.8</ele><time>2026-04-25T13:19:38.009Z</time></trkpt><trkpt lat="45.575729097045546" lon="11.132508727208728"><ele>794.4</ele><time>2026-04-25T13:19:39.009Z</time></trkpt><trkpt lat="45.57580610363869" lon="11.132399971919353"><ele>795.0</ele><time>2026-04-25T13:19:40.009Z</time></trkpt><trkpt lat="45.57588819626264" lon="11.132294106440574"><ele>795.2</ele><time>2026-04-25T13:19:41.009Z</time></trkpt><trkpt lat="45.57596225363974" lon="11.13219484793831"><ele>795.4</ele><time>2026-04-25T13:19:42.009Z</time></trkpt><trkpt lat="45.57603655220306" lon="11.13210308821395"><ele>795.5999999999999</ele><time>2026-04-25T13:19:43.009Z</time></trkpt><trkpt lat="45.57612859190865" lon="11.132021015544927"><ele>795.8</ele><time>2026-04-25T13:19:44.009Z</time></trkpt><trkpt lat="45.57620575020226" lon="11.131947227566792"><ele>796.0</ele><time>2026-04-25T13:19:45.009Z</time></trkpt><trkpt lat="45.5762777800842" lon="11.131846004558742"><ele>796.0</ele><time>2026-04-25T13:19:46.009Z</time></trkpt><trkpt lat="45.57634445106764" lon="11.131721852234092"><ele>796.0</ele><time>2026-04-25T13:19:47.009Z</time></trkpt><trkpt lat="45.57639773186952" lon="11.131584061145062"><ele>796.0</ele><time>2026-04-25T13:19:48.009Z</time></trkpt><trkpt lat="45.576441066065456" lon="11.131432339564718"><ele>796.0</ele><time>2026-04-25T13:19:49.009Z</time></trkpt><trkpt lat="45.576485013275864" lon="11.131257878392825"><ele>796.1999999999999</ele><time>2026-04-25T13:19:50.009Z</time></trkpt><trkpt lat="45.57652655817939" lon="11.131108569189474"><ele>796.4</ele><time>2026-04-25T13:19:51.009Z</time></trkpt><trkpt lat="45.576576974615456" lon="11.130989390389885"><ele>796.6</ele><time>2026-04-25T13:19:52.009Z</time></trkpt><trkpt lat="45.57664368764486" lon="11.130859420416767"><ele>796.8</ele><time>2026-04-25T13:19:53.009Z</time></trkpt><trkpt lat="45.576708724389434" lon="11.130749827512046"><ele>797.0</ele><time>2026-04-25T13:19:54.009Z</time></trkpt><trkpt lat="45.57676887970321" lon="11.130642029592098"><ele>796.4000000000001</ele><time>2026-04-25T13:19:55.009Z</time></trkpt><trkpt lat="45.57683036704395" lon="11.130528367624915"><ele>795.8000000000001</ele><time>2026-04-25T13:19:56.009Z</time></trkpt><trkpt lat="45.576886427652255" lon="11.130405180263358"><ele>795.2</ele><time>2026-04-25T13:19:57.009Z</time></trkpt><trkpt lat="45.576940107599874" lon="11.130274168830471"><ele>794.6</ele><time>2026-04-25T13:19:58.009Z</time></trkpt><trkpt lat="45.57697564480651" lon="11.130125066224048"><ele>794.0</ele><time>2026-04-25T13:19:59.009Z</time></trkpt><trkpt lat="45.57699488497833" lon="11.129962104807644"><ele>792.5</ele><time>2026-04-25T13:20:00.009Z</time></trkpt><trkpt lat="45.576996555218386" lon="11.129774123742385"><ele>791.0</ele><time>2026-04-25T13:20:01.009Z</time></trkpt><trkpt lat="45.577001543623894" lon="11.1295993589088"><ele>789.5</ele><time>2026-04-25T13:20:02.009Z</time></trkpt><trkpt lat="45.57702813717931" lon="11.129443159519989"><ele>788.0</ele><time>2026-04-25T13:20:03.009Z</time></trkpt><trkpt lat="45.57706318094219" lon="11.129315093386053"><ele>791.5999999999999</ele><time>2026-04-25T13:20:04.009Z</time></trkpt><trkpt lat="45.57713525311321" lon="11.129189279046384"><ele>795.1999999999999</ele><time>2026-04-25T13:20:05.009Z</time></trkpt><trkpt lat="45.57720738719139" lon="11.129094159913384"><ele>798.8</ele><time>2026-04-25T13:20:06.009Z</time></trkpt><trkpt lat="45.577311579899764" lon="11.128994309034294"><ele>802.4</ele><time>2026-04-25T13:20:07.009Z</time></trkpt><trkpt lat="45.57739539636343" lon="11.128892495840946"><ele>806.0</ele><time>2026-04-25T13:20:08.009Z</time></trkpt><trkpt lat="45.57746828104652" lon="11.128795973511428"><ele>806.5999999999999</ele><time>2026-04-25T13:20:09.009Z</time></trkpt><trkpt lat="45.57753868345485" lon="11.128693486438024"><ele>807.2</ele><time>2026-04-25T13:20:10.009Z</time></trkpt><trkpt lat="45.57757339046767" lon="11.128561985406341"><ele>807.8</ele><time>2026-04-25T13:20:11.009Z</time></trkpt><trkpt lat="45.577585093834905" lon="11.128400743403914"><ele>808.4000000000001</ele><time>2026-04-25T13:20:12.009Z</time></trkpt><trkpt lat="45.57757384223945" lon="11.128236183904518"><ele>809.0</ele><time>2026-04-25T13:20:13.009Z</time></trkpt><trkpt lat="45.57756354507225" lon="11.12809746600661"><ele>809.8000000000001</ele><time>2026-04-25T13:20:14.009Z</time></trkpt><trkpt lat="45.577531521063364" lon="11.127936635372777"><ele>810.6</ele><time>2026-04-25T13:20:15.009Z</time></trkpt><trkpt lat="45.57749455350935" lon="11.12780583823223"><ele>811.4</ele><time>2026-04-25T13:20:16.009Z</time></trkpt><trkpt lat="45.57747754036811" lon="11.12768379128658"><ele>812.2</ele><time>2026-04-25T13:20:17.009Z</time></trkpt><trkpt lat="45.57749090591756" lon="11.127569414670454"><ele>813.0</ele><time>2026-04-25T13:20:18.009Z</time></trkpt><trkpt lat="45.57752146968273" lon="11.12744877846617"><ele>813.0</ele><time>2026-04-25T13:20:19.009Z</time></trkpt><trkpt lat="45.577553705031306" lon="11.127330868141234"><ele>813.0</ele><time>2026-04-25T13:20:20.009Z</time></trkpt><trkpt lat="45.57758018026898" lon="11.12721514627878"><ele>813.0</ele><time>2026-04-25T13:20:21.009Z</time></trkpt><trkpt lat="45.57759999048936" lon="11.127065615679838"><ele>813.0</ele><time>2026-04-25T13:20:22.01Z</time></trkpt><trkpt lat="45.57761720611723" lon="11.126912308794585"><ele>813.0</ele><time>2026-04-25T13:20:23.009Z</time></trkpt><trkpt lat="45.57764589582123" lon="11.126770415737553"><ele>813.0</ele><time>2026-04-25T13:20:24.009Z</time></trkpt><trkpt lat="45.57767994452704" lon="11.126636997695677"><ele>813.0</ele><time>2026-04-25T13:20:25.009Z</time></trkpt><trkpt lat="45.57771812096604" lon="11.126488472273014"><ele>813.0</ele><time>2026-04-25T13:20:26.009Z</time></trkpt><trkpt lat="45.57775047926991" lon="11.126317711993634"><ele>813.0</ele><time>2026-04-25T13:20:27.009Z</time></trkpt><trkpt lat="45.577779707277294" lon="11.126162702653861"><ele>813.0</ele><time>2026-04-25T13:20:28.01Z</time></trkpt><trkpt lat="45.57780980027157" lon="11.126028338345312"><ele>814.4</ele><time>2026-04-25T13:20:29.009Z</time></trkpt><trkpt lat="45.5778284192311" lon="11.125893788704"><ele>815.8</ele><time>2026-04-25T13:20:30.009Z</time></trkpt><trkpt lat="45.577849739320364" lon="11.125754501591286"><ele>817.2</ele><time>2026-04-25T13:20:31.009Z</time></trkpt><trkpt lat="45.57785156888401" lon="11.125620142930856"><ele>818.6</ele><time>2026-04-25T13:20:32.009Z</time></trkpt><trkpt lat="45.57784842749545" lon="11.125488329773912"><ele>820.0</ele><time>2026-04-25T13:20:33.009Z</time></trkpt><trkpt lat="45.577810000516415" lon="11.125356963301513"><ele>821.3333333333333</ele><time>2026-04-25T13:20:34.01Z</time></trkpt><trkpt lat="45.577767343361195" lon="11.125254218263052"><ele>822.6666666666666</ele><time>2026-04-25T13:20:35.009Z</time></trkpt><trkpt lat="45.57772338429365" lon="11.12515410519416"><ele>824.0</ele><time>2026-04-25T13:20:36.009Z</time></trkpt><trkpt lat="45.577698451889944" lon="11.125053982466127"><ele>825.3333333333333</ele><time>2026-04-25T13:20:37.009Z</time></trkpt><trkpt lat="45.57766019125661" lon="11.124903721211577"><ele>826.6666666666666</ele><time>2026-04-25T13:20:39.009Z</time></trkpt><trkpt lat="45.57768669653267" lon="11.124787427479225"><ele>828.0</ele><time>2026-04-25T13:20:41.009Z</time></trkpt><trkpt lat="45.577700564486996" lon="11.124686626611949"><ele>830.2</ele><time>2026-04-25T13:20:42.009Z</time></trkpt><trkpt lat="45.57769045004187" lon="11.124583642112555"><ele>832.4</ele><time>2026-04-25T13:20:43.009Z</time></trkpt><trkpt lat="45.57767586638555" lon="11.124482866284708"><ele>834.6</ele><time>2026-04-25T13:20:44.009Z</time></trkpt><trkpt lat="45.57764521226002" lon="11.124360604482147"><ele>836.8000000000001</ele><time>2026-04-25T13:20:45.009Z</time></trkpt><trkpt lat="45.57760795556528" lon="11.12420409762794"><ele>839.0</ele><time>2026-04-25T13:20:46.009Z</time></trkpt><trkpt lat="45.577587347666565" lon="11.124055916352393"><ele>839.5</ele><time>2026-04-25T13:20:47.009Z</time></trkpt><trkpt lat="45.57751280602447" lon="11.123888346705497"><ele>840.0</ele><time>2026-04-25T13:20:48.009Z</time></trkpt><trkpt lat="45.57746710986271" lon="11.123725669771861"><ele>840.5</ele><time>2026-04-25T13:20:49.009Z</time></trkpt><trkpt lat="45.57742570114472" lon="11.12357015341323"><ele>841.0</ele><time>2026-04-25T13:20:50.009Z</time></trkpt><trkpt lat="45.57738397101868" lon="11.123422347508138"><ele>841.0</ele><time>2026-04-25T13:20:51.009Z</time></trkpt><trkpt lat="45.57734581902849" lon="11.123258204331337"><ele>841.0</ele><time>2026-04-25T13:20:52.009Z</time></trkpt><trkpt lat="45.57730269600191" lon="11.123131373227215"><ele>841.0</ele><time>2026-04-25T13:20:53.009Z</time></trkpt><trkpt lat="45.57727210217985" lon="11.12298373412106"><ele>841.0</ele><time>2026-04-25T13:20:54.009Z</time></trkpt><trkpt lat="45.577224752505686" lon="11.122858843049894"><ele>841.0</ele><time>2026-04-25T13:20:55.009Z</time></trkpt><trkpt lat="45.57718602391414" lon="11.122763680947367"><ele>841.0</ele><time>2026-04-25T13:20:56.009Z</time></trkpt><trkpt lat="45.57715143230522" lon="11.122659662406617"><ele>841.0</ele><time>2026-04-25T13:20:57.009Z</time></trkpt><trkpt lat="45.577117280771475" lon="11.122543554389663"><ele>841.0</ele><time>2026-04-25T13:20:58.009Z</time></trkpt><trkpt lat="45.57707169472346" lon="11.122419808094717"><ele>841.0</ele><time>2026-04-25T13:20:59.009Z</time></trkpt><trkpt lat="45.5770320375413" lon="11.122296525873994"><ele>841.0</ele><time>2026-04-25T13:21:00.009Z</time></trkpt><trkpt lat="45.576973504621" lon="11.122127045574246"><ele>846.0</ele><time>2026-04-25T13:21:01.009Z</time></trkpt><trkpt lat="45.57694322525542" lon="11.121973818937965"><ele>851.0</ele><time>2026-04-25T13:21:02.009Z</time></trkpt><trkpt lat="45.57693512589789" lon="11.121836563908213"><ele>855.9999999999999</ele><time>2026-04-25T13:21:03.009Z</time></trkpt><trkpt lat="45.57693746028534" lon="11.121720998085037"><ele>861.0</ele><time>2026-04-25T13:21:04.009Z</time></trkpt><trkpt lat="45.576959014944414" lon="11.121578431016404"><ele>866.0</ele><time>2026-04-25T13:21:05.009Z</time></trkpt><trkpt lat="45.57697162523169" lon="11.121439516291039"><ele>865.8333333333334</ele><time>2026-04-25T13:21:06.009Z</time></trkpt><trkpt lat="45.57699116565379" lon="11.121336206691307"><ele>865.6666666666667</ele><time>2026-04-25T13:21:07.009Z</time></trkpt><trkpt lat="45.577000737395565" lon="11.121247030362"><ele>865.5</ele><time>2026-04-25T13:21:08.009Z</time></trkpt><trkpt lat="45.57703796490457" lon="11.121098153690177"><ele>865.3333333333333</ele><time>2026-04-25T13:21:10.009Z</time></trkpt><trkpt lat="45.577134369193026" lon="11.121006334621077"><ele>865.1666666666666</ele><time>2026-04-25T13:21:12.009Z</time></trkpt><trkpt lat="45.57719831536758" lon="11.120962502821115"><ele>865.0</ele><time>2026-04-25T13:21:13.009Z</time></trkpt><trkpt lat="45.57726049291371" lon="11.120905307950274"><ele>864.9999999999999</ele><time>2026-04-25T13:21:14.009Z</time></trkpt><trkpt lat="45.57733506503803" lon="11.120855618192769"><ele>865.0</ele><time>2026-04-25T13:21:15.009Z</time></trkpt><trkpt lat="45.5774152559213" lon="11.120834093244587"><ele>865.0</ele><time>2026-04-25T13:21:16.009Z</time></trkpt><trkpt lat="45.57750571941366" lon="11.120791635407194"><ele>865.0</ele><time>2026-04-25T13:21:17.009Z</time></trkpt><trkpt lat="45.577588156098706" lon="11.120735630221601"><ele>864.9999999999999</ele><time>2026-04-25T13:21:18.009Z</time></trkpt><trkpt lat="45.577668385896295" lon="11.12065246720423"><ele>865.0</ele><time>2026-04-25T13:21:19.009Z</time></trkpt><trkpt lat="45.577752488144405" lon="11.120593735332264"><ele>866.9999999999999</ele><time>2026-04-25T13:21:20.009Z</time></trkpt><trkpt lat="45.57782636335786" lon="11.12055314265449"><ele>869.0</ele><time>2026-04-25T13:21:21.009Z</time></trkpt><trkpt lat="45.57788856295106" lon="11.120510984560564"><ele>871.0</ele><time>2026-04-25T13:21:22.009Z</time></trkpt><trkpt lat="45.57794358243517" lon="11.120436883340345"><ele>873.0</ele><time>2026-04-25T13:21:23.009Z</time></trkpt><trkpt lat="45.57801253361108" lon="11.120314301361502"><ele>874.9999999999999</ele><time>2026-04-25T13:21:25.009Z</time></trkpt><trkpt lat="45.57803571289893" lon="11.12016357565818"><ele>877.0</ele><time>2026-04-25T13:21:27.009Z</time></trkpt><trkpt lat="45.57800136393839" lon="11.120017167003706"><ele>877.0</ele><time>2026-04-25T13:21:29.009Z</time></trkpt><trkpt lat="45.577952262501874" lon="11.119903313815776"><ele>877.0</ele><time>2026-04-25T13:21:31.009Z</time></trkpt><trkpt lat="45.57794422138233" lon="11.119787706608218"><ele>877.0</ele><time>2026-04-25T13:21:32.009Z</time></trkpt><trkpt lat="45.57792498646595" lon="11.119617959412581"><ele>877.0</ele><time>2026-04-25T13:21:33.009Z</time></trkpt><trkpt lat="45.577897588171346" lon="11.119477823467683"><ele>877.0</ele><time>2026-04-25T13:21:34.009Z</time></trkpt><trkpt lat="45.577861002689744" lon="11.119392568089154"><ele>881.8571428571429</ele><time>2026-04-25T13:21:35.009Z</time></trkpt><trkpt lat="45.57782879738349" lon="11.11930050506381"><ele>886.7142857142858</ele><time>2026-04-25T13:21:44.009Z</time></trkpt><trkpt lat="45.577814789717564" lon="11.119172819004401"><ele>891.5714285714287</ele><time>2026-04-25T13:21:47.009Z</time></trkpt><trkpt lat="45.577816580396245" lon="11.119080367350856"><ele>896.4285714285714</ele><time>2026-04-25T13:21:48.009Z</time></trkpt><trkpt lat="45.577849506666716" lon="11.118985296694094"><ele>901.2857142857142</ele><time>2026-04-25T13:21:49.009Z</time></trkpt><trkpt lat="45.57788621749727" lon="11.118901009906958"><ele>906.1428571428572</ele><time>2026-04-25T13:21:50.009Z</time></trkpt><trkpt lat="45.57791771521611" lon="11.11880112447077"><ele>911.0</ele><time>2026-04-25T13:21:51.009Z</time></trkpt><trkpt lat="45.57795870771116" lon="11.1187134334694"><ele>911.7142857142858</ele><time>2026-04-25T13:21:52.009Z</time></trkpt><trkpt lat="45.57800308363725" lon="11.118633415189898"><ele>912.4285714285713</ele><time>2026-04-25T13:21:53.009Z</time></trkpt><trkpt lat="45.578042716025145" lon="11.118560678525792"><ele>913.1428571428571</ele><time>2026-04-25T13:21:54.009Z</time></trkpt><trkpt lat="45.5780754315774" lon="11.118475730966656"><ele>913.8571428571429</ele><time>2026-04-25T13:21:55.009Z</time></trkpt><trkpt lat="45.57810334483359" lon="11.118389449423127"><ele>914.5714285714287</ele><time>2026-04-25T13:21:56.009Z</time></trkpt><trkpt lat="45.57811773151457" lon="11.118296663033195"><ele>915.2857142857142</ele><time>2026-04-25T13:21:57.009Z</time></trkpt><trkpt lat="45.57813251045709" lon="11.118193183667078"><ele>916.0</ele><time>2026-04-25T13:21:58.009Z</time></trkpt><trkpt lat="45.57814345594362" lon="11.118096872666554"><ele>919.1999999999999</ele><time>2026-04-25T13:21:59.009Z</time></trkpt><trkpt lat="45.57817638300802" lon="11.118001572240038"><ele>922.3999999999999</ele><time>2026-04-25T13:22:00.009Z</time></trkpt><trkpt lat="45.57822765435416" lon="11.117883671497541"><ele>925.6</ele><time>2026-04-25T13:22:01.009Z</time></trkpt><trkpt lat="45.57831111101104" lon="11.117831436118392"><ele>928.8</ele><time>2026-04-25T13:22:02.009Z</time></trkpt><trkpt lat="45.57839256036995" lon="11.117713214077767"><ele>932.0</ele><time>2026-04-25T13:22:03.009Z</time></trkpt><trkpt lat="45.57846740707928" lon="11.11756845445038"><ele>932.0</ele><time>2026-04-25T13:22:04.009Z</time></trkpt><trkpt lat="45.578545861274726" lon="11.117428271861108"><ele>932.0</ele><time>2026-04-25T13:22:05.009Z</time></trkpt><trkpt lat="45.57861380471012" lon="11.117298924512239"><ele>932.0</ele><time>2026-04-25T13:22:06.009Z</time></trkpt><trkpt lat="45.57867702455042" lon="11.117197476688375"><ele>932.0</ele><time>2026-04-25T13:22:07.009Z</time></trkpt><trkpt lat="45.57874093464201" lon="11.11713349843809"><ele>932.0</ele><time>2026-04-25T13:22:08.009Z</time></trkpt><trkpt lat="45.57881235644664" lon="11.11705055318608"><ele>932.2</ele><time>2026-04-25T13:22:09.009Z</time></trkpt><trkpt lat="45.578830918424806" lon="11.116954131603325"><ele>932.4000000000001</ele><time>2026-04-25T13:22:10.009Z</time></trkpt><trkpt lat="45.57881143082418" lon="11.1167979077728"><ele>932.5999999999999</ele><time>2026-04-25T13:22:12.009Z</time></trkpt><trkpt lat="45.5787706803159" lon="11.116678534042483"><ele>932.8</ele><time>2026-04-25T13:22:14.009Z</time></trkpt><trkpt lat="45.57884281359103" lon="11.1165348041169"><ele>933.0</ele><time>2026-04-25T13:22:16.009Z</time></trkpt><trkpt lat="45.57890160959197" lon="11.116452410622307"><ele>933.1666666666666</ele><time>2026-04-25T13:22:17.009Z</time></trkpt><trkpt lat="45.57896007267252" lon="11.116344535632575"><ele>933.3333333333333</ele><time>2026-04-25T13:22:19.009Z</time></trkpt><trkpt lat="45.578967784028585" lon="11.116254434554357"><ele>933.5</ele><time>2026-04-25T13:22:25.009Z</time></trkpt><trkpt lat="45.578980679988504" lon="11.116154255726741"><ele>933.6666666666666</ele><time>2026-04-25T13:22:31.01Z</time></trkpt><trkpt lat="45.579031073181774" lon="11.116009762077077"><ele>933.8333333333333</ele><time>2026-04-25T13:22:33.009Z</time></trkpt><trkpt lat="45.57906660850723" lon="11.115904415078871"><ele>934.0</ele><time>2026-04-25T13:22:36.009Z</time></trkpt><trkpt lat="45.579107754750005" lon="11.115822878700985"><ele>931.9999999999999</ele><time>2026-04-25T13:22:38.009Z</time></trkpt><trkpt lat="45.579145647352696" lon="11.115726386866632"><ele>930.0</ele><time>2026-04-25T13:22:40.01Z</time></trkpt><trkpt lat="45.57920785448026" lon="11.115579856619519"><ele>928.0</ele><time>2026-04-25T13:22:42.009Z</time></trkpt><trkpt lat="45.57924150762624" lon="11.11550282147314"><ele>926.0</ele><time>2026-04-25T13:22:43.009Z</time></trkpt><trkpt lat="45.57928515174081" lon="11.115412350738298"><ele>923.9999999999999</ele><time>2026-04-25T13:22:44.009Z</time></trkpt><trkpt lat="45.57934629762343" lon="11.115321605828786"><ele>922.0</ele><time>2026-04-25T13:22:45.009Z</time></trkpt><trkpt lat="45.579397050044484" lon="11.11524170780516"><ele>922.0</ele><time>2026-04-25T13:22:46.009Z</time></trkpt><trkpt lat="45.579456039739" lon="11.115158440387617"><ele>922.0</ele><time>2026-04-25T13:22:47.009Z</time></trkpt><trkpt lat="45.57950748944218" lon="11.11507735491618"><ele>922.0</ele><time>2026-04-25T13:22:48.009Z</time></trkpt><trkpt lat="45.579588469021964" lon="11.114972668799096"><ele>922.0</ele><time>2026-04-25T13:22:49.009Z</time></trkpt><trkpt lat="45.57966416758375" lon="11.114831656093077"><ele>922.0</ele><time>2026-04-25T13:22:50.009Z</time></trkpt><trkpt lat="45.57973483450659" lon="11.114699211781623"><ele>921.4000000000001</ele><time>2026-04-25T13:22:51.009Z</time></trkpt><trkpt lat="45.57979135451813" lon="11.114568497488467"><ele>920.8000000000001</ele><time>2026-04-25T13:22:52.009Z</time></trkpt><trkpt lat="45.579843308755635" lon="11.114453772934569"><ele>920.2</ele><time>2026-04-25T13:22:53.009Z</time></trkpt><trkpt lat="45.57989281370275" lon="11.114324734522485"><ele>919.6</ele><time>2026-04-25T13:22:54.009Z</time></trkpt><trkpt lat="45.57992705690962" lon="11.114181175021779"><ele>919.0</ele><time>2026-04-25T13:22:55.009Z</time></trkpt><trkpt lat="45.579927774362254" lon="11.114041526079879"><ele>919.0</ele><time>2026-04-25T13:22:56.009Z</time></trkpt><trkpt lat="45.57993306613381" lon="11.113875438218937"><ele>919.0000000000001</ele><time>2026-04-25T13:22:57.009Z</time></trkpt><trkpt lat="45.57994469620399" lon="11.11372369945897"><ele>919.0000000000001</ele><time>2026-04-25T13:22:58.009Z</time></trkpt><trkpt lat="45.57996406038648" lon="11.113576239983828"><ele>919.0</ele><time>2026-04-25T13:22:59.009Z</time></trkpt><trkpt lat="45.579984514164316" lon="11.113419084927472"><ele>919.0</ele><time>2026-04-25T13:23:00.009Z</time></trkpt><trkpt lat="45.58001222483082" lon="11.113232500519548"><ele>918.6</ele><time>2026-04-25T13:23:01.009Z</time></trkpt><trkpt lat="45.58004040298509" lon="11.113071275169622"><ele>918.2</ele><time>2026-04-25T13:23:02.009Z</time></trkpt><trkpt lat="45.58005585557698" lon="11.112905674590078"><ele>917.8000000000001</ele><time>2026-04-25T13:23:03.009Z</time></trkpt><trkpt lat="45.580064449020625" lon="11.112765584794237"><ele>917.4000000000001</ele><time>2026-04-25T13:23:04.009Z</time></trkpt><trkpt lat="45.5800611780034" lon="11.112641248607027"><ele>917.0</ele><time>2026-04-25T13:23:05.009Z</time></trkpt><trkpt lat="45.58007195543426" lon="11.112547723407202"><ele>915.75</ele><time>2026-04-25T13:23:06.009Z</time></trkpt><trkpt lat="45.58004419516206" lon="11.11239426726681"><ele>914.5</ele><time>2026-04-25T13:23:07.009Z</time></trkpt><trkpt lat="45.58004342529606" lon="11.112267306730148"><ele>913.25</ele><time>2026-04-25T13:23:08.009Z</time></trkpt><trkpt lat="45.58003786945658" lon="11.112081158457771"><ele>912.0</ele><time>2026-04-25T13:23:09.009Z</time></trkpt><trkpt lat="45.58001462238987" lon="11.111884438624802"><ele>912.0</ele><time>2026-04-25T13:23:10.009Z</time></trkpt><trkpt lat="45.57999698541324" lon="11.111736129511455"><ele>912.0</ele><time>2026-04-25T13:23:11.009Z</time></trkpt><trkpt lat="45.57996909806322" lon="11.111598463597177"><ele>912.0</ele><time>2026-04-25T13:23:12.009Z</time></trkpt><trkpt lat="45.5799473373838" lon="11.111493259454388"><ele>912.0</ele><time>2026-04-25T13:23:13.009Z</time></trkpt><trkpt lat="45.57988418464125" lon="11.1113656768913"><ele>912.0</ele><time>2026-04-25T13:23:14.009Z</time></trkpt><trkpt lat="45.5797887433135" lon="11.111247398695618"><ele>909.0</ele><time>2026-04-25T13:23:15.009Z</time></trkpt><trkpt lat="45.57968719181107" lon="11.11111591048679"><ele>906.0</ele><time>2026-04-25T13:23:16.009Z</time></trkpt><trkpt lat="45.57958779310055" lon="11.11098110354327"><ele>903.0</ele><time>2026-04-25T13:23:17.009Z</time></trkpt><trkpt lat="45.57949934553889" lon="11.11084597333746"><ele>900.0</ele><time>2026-04-25T13:23:18.009Z</time></trkpt><trkpt lat="45.5794142465379" lon="11.110703719319044"><ele>899.0</ele><time>2026-04-25T13:23:19.009Z</time></trkpt><trkpt lat="45.57932649552933" lon="11.110592592192326"><ele>898.0</ele><time>2026-04-25T13:23:20.009Z</time></trkpt><trkpt lat="45.579228082437055" lon="11.110515791316889"><ele>897.0</ele><time>2026-04-25T13:23:21.009Z</time></trkpt><trkpt lat="45.57915519387531" lon="11.110406159439023"><ele>896.0</ele><time>2026-04-25T13:23:22.009Z</time></trkpt><trkpt lat="45.57911270746673" lon="11.110291464892562"><ele>895.0</ele><time>2026-04-25T13:23:23.009Z</time></trkpt><trkpt lat="45.57906474272011" lon="11.110120114753743"><ele>895.0</ele><time>2026-04-25T13:23:24.009Z</time></trkpt><trkpt lat="45.5790447374655" lon="11.109921207694288"><ele>895.0</ele><time>2026-04-25T13:23:25.009Z</time></trkpt><trkpt lat="45.579017561268" lon="11.109791256245959"><ele>895.0</ele><time>2026-04-25T13:23:26.009Z</time></trkpt><trkpt lat="45.578963703496" lon="11.109651862966816"><ele>895.0</ele><time>2026-04-25T13:23:27.009Z</time></trkpt><trkpt lat="45.57890592475451" lon="11.109535907316172"><ele>895.0</ele><time>2026-04-25T13:23:28.009Z</time></trkpt><trkpt lat="45.57882398436479" lon="11.109437085035328"><ele>894.6</ele><time>2026-04-25T13:23:29.009Z</time></trkpt><trkpt lat="45.57874613716429" lon="11.109347267462626"><ele>894.2</ele><time>2026-04-25T13:23:30.009Z</time></trkpt><trkpt lat="45.578662754560355" lon="11.109276944343778"><ele>893.8</ele><time>2026-04-25T13:23:31.009Z</time></trkpt><trkpt lat="45.57859039982784" lon="11.109181531191577"><ele>893.4</ele><time>2026-04-25T13:23:32.009Z</time></trkpt><trkpt lat="45.57852817837549" lon="11.109065833664882"><ele>893.0</ele><time>2026-04-25T13:23:33.009Z</time></trkpt><trkpt lat="45.578460578966165" lon="11.108962559055385"><ele>891.8333333333334</ele><time>2026-04-25T13:23:34.009Z</time></trkpt><trkpt lat="45.57839336637962" lon="11.10886248155651"><ele>890.6666666666667</ele><time>2026-04-25T13:23:35.009Z</time></trkpt><trkpt lat="45.57833670424137" lon="11.108762506026675"><ele>889.5</ele><time>2026-04-25T13:23:36.009Z</time></trkpt><trkpt lat="45.578306769296745" lon="11.108644036670013"><ele>888.3333333333333</ele><time>2026-04-25T13:23:37.009Z</time></trkpt><trkpt lat="45.57829735717286" lon="11.108532255623652"><ele>887.1666666666666</ele><time>2026-04-25T13:23:38.009Z</time></trkpt><trkpt lat="45.57831192801612" lon="11.108420926380582"><ele>886.0</ele><time>2026-04-25T13:23:39.009Z</time></trkpt><trkpt lat="45.57833761857899" lon="11.108326099362076"><ele>883.4</ele><time>2026-04-25T13:23:40.009Z</time></trkpt><trkpt lat="45.57838239790871" lon="11.108235342505461"><ele>880.8</ele><time>2026-04-25T13:23:41.009Z</time></trkpt><trkpt lat="45.578460833135196" lon="11.108115786385845"><ele>878.1999999999999</ele><time>2026-04-25T13:23:42.009Z</time></trkpt><trkpt lat="45.57853201273534" lon="11.107961619541223"><ele>875.5999999999999</ele><time>2026-04-25T13:23:43.009Z</time></trkpt><trkpt lat="45.578593788065874" lon="11.107835435065251"><ele>873.0</ele><time>2026-04-25T13:23:44.009Z</time></trkpt><trkpt lat="45.57865750069921" lon="11.10772404554028"><ele>873.5999999999999</ele><time>2026-04-25T13:23:45.009Z</time></trkpt><trkpt lat="45.57873420324993" lon="11.10761443554828"><ele>874.1999999999999</ele><time>2026-04-25T13:23:46.009Z</time></trkpt><trkpt lat="45.578816251110865" lon="11.10752312349177"><ele>874.8</ele><time>2026-04-25T13:23:47.009Z</time></trkpt><trkpt lat="45.57890174449285" lon="11.107433411581619"><ele>875.4</ele><time>2026-04-25T13:23:48.009Z</time></trkpt><trkpt lat="45.57896488467938" lon="11.107324566065827"><ele>876.0</ele><time>2026-04-25T13:23:49.009Z</time></trkpt><trkpt lat="45.57902301121673" lon="11.107220128088505"><ele>876.0</ele><time>2026-04-25T13:23:50.009Z</time></trkpt><trkpt lat="45.579071338340874" lon="11.107073191171699"><ele>875.9999999999999</ele><time>2026-04-25T13:23:51.009Z</time></trkpt><trkpt lat="45.579090980335266" lon="11.106918943769244"><ele>875.9999999999999</ele><time>2026-04-25T13:23:52.009Z</time></trkpt><trkpt lat="45.57909793782495" lon="11.10675831282139"><ele>876.0</ele><time>2026-04-25T13:23:53.009Z</time></trkpt><trkpt lat="45.579107833127935" lon="11.106617073620706"><ele>876.0</ele><time>2026-04-25T13:23:54.009Z</time></trkpt><trkpt lat="45.579122891882314" lon="11.106481204773027"><ele>875.0</ele><time>2026-04-25T13:23:55.009Z</time></trkpt><trkpt lat="45.57912009494721" lon="11.106333904922318"><ele>874.0</ele><time>2026-04-25T13:23:56.009Z</time></trkpt><trkpt lat="45.57910053348063" lon="11.106178121920584"><ele>873.0</ele><time>2026-04-25T13:23:57.009Z</time></trkpt><trkpt lat="45.57906604805846" lon="11.106021311364813"><ele>872.0</ele><time>2026-04-25T13:23:58.009Z</time></trkpt><trkpt lat="45.57902679491694" lon="11.105853447188027"><ele>871.5</ele><time>2026-04-25T13:23:59.009Z</time></trkpt><trkpt lat="45.579002036317355" lon="11.105660815254408"><ele>871.0</ele><time>2026-04-25T13:24:00.009Z</time></trkpt><trkpt lat="45.57898373306299" lon="11.105480626371667"><ele>870.5</ele><time>2026-04-25T13:24:01.009Z</time></trkpt><trkpt lat="45.57897046267547" lon="11.105308160423832"><ele>870.0</ele><time>2026-04-25T13:24:02.009Z</time></trkpt><trkpt lat="45.57895864663553" lon="11.105153527643173"><ele>870.0</ele><time>2026-04-25T13:24:03.009Z</time></trkpt><trkpt lat="45.57891746036947" lon="11.105020882081366"><ele>870.0</ele><time>2026-04-25T13:24:04.009Z</time></trkpt><trkpt lat="45.57883080375962" lon="11.104917433095416"><ele>870.0</ele><time>2026-04-25T13:24:05.009Z</time></trkpt><trkpt lat="45.57870756178101" lon="11.10484403569686"><ele>870.0</ele><time>2026-04-25T13:24:06.009Z</time></trkpt><trkpt lat="45.57857528424527" lon="11.10478441117983"><ele>871.5</ele><time>2026-04-25T13:24:07.009Z</time></trkpt><trkpt lat="45.57843704953708" lon="11.104739259483155"><ele>873.0</ele><time>2026-04-25T13:24:08.009Z</time></trkpt><trkpt lat="45.57829836052984" lon="11.10469352565436"><ele>874.5</ele><time>2026-04-25T13:24:09.009Z</time></trkpt><trkpt lat="45.578166477232315" lon="11.10462325900407"><ele>876.0</ele><time>2026-04-25T13:24:10.009Z</time></trkpt><trkpt lat="45.5780164558972" lon="11.104533183092233"><ele>876.0</ele><time>2026-04-25T13:24:11.009Z</time></trkpt><trkpt lat="45.57786375980799" lon="11.10445318532192"><ele>876.0</ele><time>2026-04-25T13:24:12.009Z</time></trkpt><trkpt lat="45.577713576742205" lon="11.10437690946909"><ele>876.0</ele><time>2026-04-25T13:24:13.009Z</time></trkpt><trkpt lat="45.57755836280343" lon="11.10431496516212"><ele>873.6666666666667</ele><time>2026-04-25T13:24:14.009Z</time></trkpt><trkpt lat="45.577404489876066" lon="11.104259549778876"><ele>871.3333333333334</ele><time>2026-04-25T13:24:15.009Z</time></trkpt><trkpt lat="45.577248110325876" lon="11.104213797214081"><ele>869.0</ele><time>2026-04-25T13:24:16.009Z</time></trkpt><trkpt lat="45.577114566462555" lon="11.10417680536611"><ele>866.75</ele><time>2026-04-25T13:24:17.009Z</time></trkpt><trkpt lat="45.57696815501764" lon="11.104134460622932"><ele>864.5</ele><time>2026-04-25T13:24:18.009Z</time></trkpt><trkpt lat="45.57683400545234" lon="11.104102829152215"><ele>862.25</ele><time>2026-04-25T13:24:19.009Z</time></trkpt><trkpt lat="45.576696269968394" lon="11.104073897723994"><ele>860.0</ele><time>2026-04-25T13:24:20.009Z</time></trkpt><trkpt lat="45.57655528240724" lon="11.104061626897417"><ele>860.0</ele><time>2026-04-25T13:24:21.009Z</time></trkpt><trkpt lat="45.57640729292282" lon="11.104080266670373"><ele>860.0</ele><time>2026-04-25T13:24:22.009Z</time></trkpt><trkpt lat="45.576263211698816" lon="11.104126137294509"><ele>860.0</ele><time>2026-04-25T13:24:23.009Z</time></trkpt><trkpt lat="45.5761171573743" lon="11.104164750680177"><ele>860.0</ele><time>2026-04-25T13:24:24.009Z</time></trkpt><trkpt lat="45.57596197299819" lon="11.104205122478154"><ele>857.0</ele><time>2026-04-25T13:24:25.009Z</time></trkpt><trkpt lat="45.57580773828841" lon="11.104239691563189"><ele>854.0</ele><time>2026-04-25T13:24:26.009Z</time></trkpt><trkpt lat="45.575655534408035" lon="11.104272999465287"><ele>851.0</ele><time>2026-04-25T13:24:27.009Z</time></trkpt><trkpt lat="45.57550546166266" lon="11.104289185816008"><ele>851.0</ele><time>2026-04-25T13:24:28.009Z</time></trkpt><trkpt lat="45.57536582323772" lon="11.104310629442345"><ele>851.0</ele><time>2026-04-25T13:24:29.009Z</time></trkpt><trkpt lat="45.57522834067211" lon="11.104325276294784"><ele>851.0</ele><time>2026-04-25T13:24:30.009Z</time></trkpt><trkpt lat="45.575108288669945" lon="11.104322959338843"><ele>851.0</ele><time>2026-04-25T13:24:31.009Z</time></trkpt><trkpt lat="45.57500029981797" lon="11.10430213662086"><ele>849.3333333333334</ele><time>2026-04-25T13:24:32.009Z</time></trkpt><trkpt lat="45.57490685888791" lon="11.104270537765755"><ele>847.6666666666667</ele><time>2026-04-25T13:24:33.009Z</time></trkpt><trkpt lat="45.574824893314464" lon="11.104225905145869"><ele>846.0</ele><time>2026-04-25T13:24:34.01Z</time></trkpt><trkpt lat="45.574782487506404" lon="11.104156714512838"><ele>844.3333333333333</ele><time>2026-04-25T13:24:35.01Z</time></trkpt><trkpt lat="45.574757244862276" lon="11.104067924204195"><ele>842.6666666666666</ele><time>2026-04-25T13:24:37.009Z</time></trkpt><trkpt lat="45.574844880377306" lon="11.103983306139313"><ele>841.0</ele><time>2026-04-25T13:24:42.01Z</time></trkpt><trkpt lat="45.57489810323332" lon="11.103920469002663"><ele>839.8333333333333</ele><time>2026-04-25T13:24:43.01Z</time></trkpt><trkpt lat="45.57494977275208" lon="11.103856207028201"><ele>838.6666666666666</ele><time>2026-04-25T13:24:44.01Z</time></trkpt><trkpt lat="45.57500032276495" lon="11.103774795792932"><ele>837.5</ele><time>2026-04-25T13:24:45.01Z</time></trkpt><trkpt lat="45.575060663083676" lon="11.10368788566496"><ele>836.3333333333333</ele><time>2026-04-25T13:24:46.01Z</time></trkpt><trkpt lat="45.57511032500966" lon="11.103599349258914"><ele>835.1666666666666</ele><time>2026-04-25T13:24:47.01Z</time></trkpt><trkpt lat="45.5751578881001" lon="11.10348454482979"><ele>834.0</ele><time>2026-04-25T13:24:48.01Z</time></trkpt><trkpt lat="45.575198193607406" lon="11.103353784925147"><ele>833.1666666666666</ele><time>2026-04-25T13:24:49.01Z</time></trkpt><trkpt lat="45.57523228062188" lon="11.103232802774821"><ele>832.3333333333333</ele><time>2026-04-25T13:24:50.01Z</time></trkpt><trkpt lat="45.57523927389585" lon="11.103099532226391"><ele>831.5</ele><time>2026-04-25T13:24:51.01Z</time></trkpt><trkpt lat="45.57523594527519" lon="11.102972927378676"><ele>830.6666666666666</ele><time>2026-04-25T13:24:52.01Z</time></trkpt><trkpt lat="45.5752321819153" lon="11.102836423977005"><ele>829.8333333333333</ele><time>2026-04-25T13:24:53.01Z</time></trkpt><trkpt lat="45.57523613034341" lon="11.102745675674292"><ele>829.0</ele><time>2026-04-25T13:24:54.01Z</time></trkpt><trkpt lat="45.575267156364674" lon="11.10260072054256"><ele>829.0</ele><time>2026-04-25T13:24:56.01Z</time></trkpt><trkpt lat="45.57531080031988" lon="11.102462095313694"><ele>829.0</ele><time>2026-04-25T13:24:58.01Z</time></trkpt><trkpt lat="45.57536787073448" lon="11.102336697913781"><ele>829.0</ele><time>2026-04-25T13:25:00.01Z</time></trkpt><trkpt lat="45.575474408429955" lon="11.102436143740322"><ele>829.0</ele><time>2026-04-25T13:25:02.01Z</time></trkpt><trkpt lat="45.57553770513363" lon="11.102464829700615"><ele>829.0</ele><time>2026-04-25T13:25:03.01Z</time></trkpt><trkpt lat="45.57560029383284" lon="11.102487981430045"><ele>829.6666666666666</ele><time>2026-04-25T13:25:04.01Z</time></trkpt><trkpt lat="45.575672429515706" lon="11.102516042687176"><ele>830.3333333333333</ele><time>2026-04-25T13:25:05.01Z</time></trkpt><trkpt lat="45.57575063543054" lon="11.102575498122668"><ele>831.0</ele><time>2026-04-25T13:25:06.01Z</time></trkpt><trkpt lat="45.57583311381747" lon="11.102637030191033"><ele>831.6666666666667</ele><time>2026-04-25T13:25:07.01Z</time></trkpt><trkpt lat="45.575908400945096" lon="11.102647136580577"><ele>832.3333333333334</ele><time>2026-04-25T13:25:08.01Z</time></trkpt><trkpt lat="45.575996723743046" lon="11.102623522003778"><ele>833.0</ele><time>2026-04-25T13:25:09.01Z</time></trkpt><trkpt lat="45.576102855130024" lon="11.102566976726296"><ele>834.5999999999999</ele><time>2026-04-25T13:25:10.01Z</time></trkpt><trkpt lat="45.57619550543902" lon="11.102476070254815"><ele>836.1999999999999</ele><time>2026-04-25T13:25:11.01Z</time></trkpt><trkpt lat="45.57629168378223" lon="11.102379508324129"><ele>837.8</ele><time>2026-04-25T13:25:12.01Z</time></trkpt><trkpt lat="45.57637439869831" lon="11.102293914592934"><ele>839.4</ele><time>2026-04-25T13:25:13.01Z</time></trkpt><trkpt lat="45.57646115856552" lon="11.102248241325247"><ele>841.0</ele><time>2026-04-25T13:25:14.01Z</time></trkpt><trkpt lat="45.57654825528683" lon="11.102284965032972"><ele>837.0</ele><time>2026-04-25T13:25:15.01Z</time></trkpt><trkpt lat="45.57663685750687" lon="11.102312304028018"><ele>833.0</ele><time>2026-04-25T13:25:16.01Z</time></trkpt><trkpt lat="45.5767293545411" lon="11.102280322905536"><ele>829.0</ele><time>2026-04-25T13:25:17.01Z</time></trkpt><trkpt lat="45.57682775840806" lon="11.10218446404721"><ele>825.0</ele><time>2026-04-25T13:25:18.01Z</time></trkpt><trkpt lat="45.57690541315182" lon="11.10206805733278"><ele>821.0</ele><time>2026-04-25T13:25:19.01Z</time></trkpt><trkpt lat="45.57698298292162" lon="11.101961623111709"><ele>823.8333333333334</ele><time>2026-04-25T13:25:20.01Z</time></trkpt><trkpt lat="45.577052642796474" lon="11.101860653071133"><ele>826.6666666666667</ele><time>2026-04-25T13:25:21.01Z</time></trkpt><trkpt lat="45.57711494788177" lon="11.101822188569754"><ele>829.5</ele><time>2026-04-25T13:25:22.01Z</time></trkpt><trkpt lat="45.577186446683115" lon="11.10179747832399"><ele>832.3333333333333</ele><time>2026-04-25T13:25:23.01Z</time></trkpt><trkpt lat="45.57726232918015" lon="11.101771766981274"><ele>835.1666666666666</ele><time>2026-04-25T13:25:24.01Z</time></trkpt><trkpt lat="45.577310152239455" lon="11.101676181222922"><ele>838.0</ele><time>2026-04-25T13:25:26.01Z</time></trkpt><trkpt lat="45.57738442904731" lon="11.101591028281621"><ele>838.1666666666666</ele><time>2026-04-25T13:25:28.01Z</time></trkpt><trkpt lat="45.5774473216195" lon="11.101533563029719"><ele>838.3333333333333</ele><time>2026-04-25T13:25:29.01Z</time></trkpt><trkpt lat="45.57752228610758" lon="11.101465542661558"><ele>838.5</ele><time>2026-04-25T13:25:30.01Z</time></trkpt><trkpt lat="45.57760129517855" lon="11.101406820709704"><ele>838.6666666666667</ele><time>2026-04-25T13:25:31.01Z</time></trkpt><trkpt lat="45.57767416411324" lon="11.10137932973859"><ele>838.8333333333334</ele><time>2026-04-25T13:25:32.01Z</time></trkpt><trkpt lat="45.57774235286969" lon="11.101396707930725"><ele>839.0</ele><time>2026-04-25T13:25:33.01Z</time></trkpt><trkpt lat="45.577942457153384" lon="11.1014040471586"><ele>839.0</ele><time>2026-04-25T13:25:36.01Z</time></trkpt><trkpt lat="45.57801786291956" lon="11.101349675496131"><ele>839.0</ele><time>2026-04-25T13:25:37.01Z</time></trkpt><trkpt lat="45.57808584745436" lon="11.101255112227287"><ele>839.0</ele><time>2026-04-25T13:25:38.01Z</time></trkpt><trkpt lat="45.578146325528735" lon="11.101163061131295"><ele>839.0</ele><time>2026-04-25T13:25:39.01Z</time></trkpt><trkpt lat="45.57815916107344" lon="11.10106686684417"><ele>839.0</ele><time>2026-04-25T13:25:40.01Z</time></trkpt><trkpt lat="45.578144122297964" lon="11.100890418624429"><ele>839.0000000000001</ele><time>2026-04-25T13:25:42.01Z</time></trkpt><trkpt lat="45.57815117771635" lon="11.100780185734529"><ele>839.0</ele><time>2026-04-25T13:25:43.01Z</time></trkpt><trkpt lat="45.57817383450241" lon="11.10067042490316"><ele>839.0</ele><time>2026-04-25T13:25:44.01Z</time></trkpt><trkpt lat="45.578192832913814" lon="11.100572888651225"><ele>839.0</ele><time>2026-04-25T13:25:45.01Z</time></trkpt><trkpt lat="45.578190889038176" lon="11.100428979861835"><ele>839.0000000000001</ele><time>2026-04-25T13:25:46.009Z</time></trkpt><trkpt lat="45.57818820714982" lon="11.100268925409729"><ele>839.0</ele><time>2026-04-25T13:25:47.009Z</time></trkpt><trkpt lat="45.57820546167858" lon="11.100123315680765"><ele>837.4000000000001</ele><time>2026-04-25T13:25:48.009Z</time></trkpt><trkpt lat="45.57820703723141" lon="11.099965402041944"><ele>835.8</ele><time>2026-04-25T13:25:49.009Z</time></trkpt><trkpt lat="45.578191543163236" lon="11.099834131407267"><ele>834.2</ele><time>2026-04-25T13:25:50.009Z</time></trkpt><trkpt lat="45.57819405482146" lon="11.099731860128527"><ele>832.5999999999999</ele><time>2026-04-25T13:25:51.009Z</time></trkpt><trkpt lat="45.578227923466386" lon="11.09958516988623"><ele>831.0</ele><time>2026-04-25T13:25:53.009Z</time></trkpt><trkpt lat="45.57829278064852" lon="11.099486474636388"><ele>827.5</ele><time>2026-04-25T13:25:55.009Z</time></trkpt><trkpt lat="45.5783259557468" lon="11.099391598346969"><ele>824.0</ele><time>2026-04-25T13:25:57.009Z</time></trkpt><trkpt lat="45.578372818588704" lon="11.099331113135692"><ele>820.5</ele><time>2026-04-25T13:25:59.009Z</time></trkpt><trkpt lat="45.57851857911861" lon="11.09937400963527"><ele>817.0</ele><time>2026-04-25T13:26:02.009Z</time></trkpt><trkpt lat="45.57870456990319" lon="11.099364769058992"><ele>816.8333333333333</ele><time>2026-04-25T13:26:07.009Z</time></trkpt><trkpt lat="45.57877420137589" lon="11.099347456445805"><ele>816.6666666666666</ele><time>2026-04-25T13:26:10.009Z</time></trkpt><trkpt lat="45.57878423013586" lon="11.09923543689937"><ele>816.5</ele><time>2026-04-25T13:26:12.009Z</time></trkpt><trkpt lat="45.57877805183505" lon="11.099139862563556"><ele>816.3333333333333</ele><time>2026-04-25T13:26:14.009Z</time></trkpt><trkpt lat="45.578759436666715" lon="11.099038308612315"><ele>816.1666666666666</ele><time>2026-04-25T13:26:16.009Z</time></trkpt><trkpt lat="45.57880717762919" lon="11.098952435099326"><ele>816.0</ele><time>2026-04-25T13:26:19.009Z</time></trkpt><trkpt lat="45.57900961515825" lon="11.099033968088827"><ele>816.0</ele><time>2026-04-25T13:26:25.009Z</time></trkpt><trkpt lat="45.579086850377415" lon="11.09910441479159"><ele>816.0</ele><time>2026-04-25T13:26:28.009Z</time></trkpt><trkpt lat="45.579145889455944" lon="11.099160569927818"><ele>816.0</ele><time>2026-04-25T13:26:30.009Z</time></trkpt><trkpt lat="45.57921446843784" lon="11.099090201457289"><ele>816.0</ele><time>2026-04-25T13:26:37.009Z</time></trkpt><trkpt lat="45.57930008245103" lon="11.09901408366143"><ele>816.0</ele><time>2026-04-25T13:26:42.01Z</time></trkpt><trkpt lat="45.57937664046267" lon="11.09904346133839"><ele>816.0</ele><time>2026-04-25T13:26:45.01Z</time></trkpt><trkpt lat="45.57943590277606" lon="11.099082148381518"><ele>816.0</ele><time>2026-04-25T13:26:47.01Z</time></trkpt><trkpt lat="45.579495291794636" lon="11.099119460739685"><ele>816.0</ele><time>2026-04-25T13:26:50.01Z</time></trkpt><trkpt lat="45.57957709759334" lon="11.099135216741146"><ele>816.0</ele><time>2026-04-25T13:26:53.01Z</time></trkpt><trkpt lat="45.579584526498174" lon="11.098965973017973"><ele>816.0</ele><time>2026-04-25T13:26:55.01Z</time></trkpt><trkpt lat="45.57961157358021" lon="11.098883407784433"><ele>816.0</ele><time>2026-04-25T13:26:57.01Z</time></trkpt><trkpt lat="45.579620443409986" lon="11.09879194612439"><ele>816.0</ele><time>2026-04-25T13:26:59.01Z</time></trkpt><trkpt lat="45.57963359023497" lon="11.098656319791449"><ele>811.0</ele><time>2026-04-25T13:27:02.01Z</time></trkpt><trkpt lat="45.5797673996783" lon="11.098627402346514"><ele>806.0</ele><time>2026-04-25T13:27:12.01Z</time></trkpt><trkpt lat="45.57973219610078" lon="11.098550907785736"><ele>801.0</ele><time>2026-04-25T13:27:14.01Z</time></trkpt><trkpt lat="45.57972292868332" lon="11.098378339025775"><ele>796.0</ele><time>2026-04-25T13:27:16.01Z</time></trkpt><trkpt lat="45.57969352617698" lon="11.098258129420431"><ele>791.0</ele><time>2026-04-25T13:27:17.01Z</time></trkpt><trkpt lat="45.57963779990377" lon="11.098089770662556"><ele>791.0</ele><time>2026-04-25T13:27:18.01Z</time></trkpt><trkpt lat="45.579610545597475" lon="11.097925880147102"><ele>791.0</ele><time>2026-04-25T13:27:19.01Z</time></trkpt><trkpt lat="45.57956713410027" lon="11.097742192408683"><ele>791.0</ele><time>2026-04-25T13:27:20.01Z</time></trkpt><trkpt lat="45.57950881670184" lon="11.097586562305457"><ele>791.0</ele><time>2026-04-25T13:27:21.01Z</time></trkpt><trkpt lat="45.579480588760816" lon="11.097432252773462"><ele>789.8</ele><time>2026-04-25T13:27:22.01Z</time></trkpt><trkpt lat="45.57944422817815" lon="11.09731906008044"><ele>788.5999999999999</ele><time>2026-04-25T13:27:23.01Z</time></trkpt><trkpt lat="45.57940651321368" lon="11.097225437053867"><ele>787.4</ele><time>2026-04-25T13:27:24.01Z</time></trkpt><trkpt lat="45.57936972846473" lon="11.097098877380848"><ele>786.2</ele><time>2026-04-25T13:27:25.01Z</time></trkpt><trkpt lat="45.57930838054833" lon="11.096926431498034"><ele>785.0</ele><time>2026-04-25T13:27:26.01Z</time></trkpt><trkpt lat="45.57925389701544" lon="11.096726337106642"><ele>785.0</ele><time>2026-04-25T13:27:27.01Z</time></trkpt><trkpt lat="45.579182338583" lon="11.096590302224271"><ele>785.0</ele><time>2026-04-25T13:27:28.01Z</time></trkpt><trkpt lat="45.57913262674739" lon="11.096475558983236"><ele>785.0</ele><time>2026-04-25T13:27:29.01Z</time></trkpt><trkpt lat="45.579097333327404" lon="11.096374061109929"><ele>785.0</ele><time>2026-04-25T13:27:31.01Z</time></trkpt><trkpt lat="45.579146903597376" lon="11.09629013286186"><ele>785.0</ele><time>2026-04-25T13:27:33.01Z</time></trkpt><trkpt lat="45.57932234933825" lon="11.096368924067585"><ele>788.5</ele><time>2026-04-25T13:27:40.01Z</time></trkpt><trkpt lat="45.579232685150615" lon="11.09608685482927"><ele>792.0</ele><time>2026-04-25T13:27:44.01Z</time></trkpt><trkpt lat="45.57918530846979" lon="11.09597870424208"><ele>795.5</ele><time>2026-04-25T13:27:45.01Z</time></trkpt><trkpt lat="45.57912165669953" lon="11.09586950524879"><ele>799.0</ele><time>2026-04-25T13:27:46.01Z</time></trkpt><trkpt lat="45.579033782787995" lon="11.095782595769172"><ele>802.0</ele><time>2026-04-25T13:27:47.01Z</time></trkpt><trkpt lat="45.57893085322401" lon="11.09567296032598"><ele>805.0</ele><time>2026-04-25T13:27:48.01Z</time></trkpt><trkpt lat="45.57883526415581" lon="11.095581122436862"><ele>808.0</ele><time>2026-04-25T13:27:49.01Z</time></trkpt><trkpt lat="45.57872587121591" lon="11.095486481548074"><ele>811.0</ele><time>2026-04-25T13:27:50.01Z</time></trkpt><trkpt lat="45.578612504856245" lon="11.095390681263666"><ele>811.0</ele><time>2026-04-25T13:27:51.01Z</time></trkpt><trkpt lat="45.57848504564467" lon="11.09529630809408"><ele>811.0</ele><time>2026-04-25T13:27:52.01Z</time></trkpt><trkpt lat="45.57835263488476" lon="11.095194576961232"><ele>811.0</ele><time>2026-04-25T13:27:53.01Z</time></trkpt><trkpt lat="45.5782258728731" lon="11.095120026688768"><ele>811.0</ele><time>2026-04-25T13:27:54.01Z</time></trkpt><trkpt lat="45.5780921022127" lon="11.09509233533306"><ele>811.0</ele><time>2026-04-25T13:27:55.01Z</time></trkpt><trkpt lat="45.57795396096522" lon="11.095117770252289"><ele>811.0</ele><time>2026-04-25T13:27:56.01Z</time></trkpt><trkpt lat="45.577804805951835" lon="11.095173450431302"><ele>811.0</ele><time>2026-04-25T13:27:57.01Z</time></trkpt><trkpt lat="45.577685658947715" lon="11.095260844612636"><ele>811.0</ele><time>2026-04-25T13:27:58.01Z</time></trkpt><trkpt lat="45.57758068985528" lon="11.095372518593155"><ele>812.0</ele><time>2026-04-25T13:27:59.01Z</time></trkpt><trkpt lat="45.577497208151804" lon="11.09545283277906"><ele>813.0</ele><time>2026-04-25T13:28:00.01Z</time></trkpt><trkpt lat="45.57741196629851" lon="11.09549598452601"><ele>814.0</ele><time>2026-04-25T13:28:01.01Z</time></trkpt><trkpt lat="45.57733161786587" lon="11.09551081497824"><ele>815.0</ele><time>2026-04-25T13:28:02.01Z</time></trkpt><trkpt lat="45.57722950038095" lon="11.09545894880854"><ele>816.0</ele><time>2026-04-25T13:28:03.01Z</time></trkpt><trkpt lat="45.57713974921132" lon="11.095416047920963"><ele>816.0</ele><time>2026-04-25T13:28:04.01Z</time></trkpt><trkpt lat="45.57704052470349" lon="11.095347076258456"><ele>816.0</ele><time>2026-04-25T13:28:05.01Z</time></trkpt><trkpt lat="45.57692038865795" lon="11.095247747784088"><ele>816.0</ele><time>2026-04-25T13:28:06.01Z</time></trkpt><trkpt lat="45.5767970744492" lon="11.095154124378267"><ele>816.0</ele><time>2026-04-25T13:28:07.01Z</time></trkpt><trkpt lat="45.57665595563729" lon="11.095063621521982"><ele>816.5999999999999</ele><time>2026-04-25T13:28:08.01Z</time></trkpt><trkpt lat="45.576541003257866" lon="11.094989900465308"><ele>817.2</ele><time>2026-04-25T13:28:09.01Z</time></trkpt><trkpt lat="45.576438033823415" lon="11.094904115752536"><ele>817.8</ele><time>2026-04-25T13:28:10.01Z</time></trkpt><trkpt lat="45.57639530725475" lon="11.094823398457851"><ele>818.4000000000001</ele><time>2026-04-25T13:28:11.01Z</time></trkpt><trkpt lat="45.576406356028265" lon="11.094682773096059"><ele>819.0</ele><time>2026-04-25T13:28:13.01Z</time></trkpt><trkpt lat="45.57645859305936" lon="11.094576806021378"><ele>819.5</ele><time>2026-04-25T13:28:14.01Z</time></trkpt><trkpt lat="45.57651550249266" lon="11.09445624571455"><ele>820.0</ele><time>2026-04-25T13:28:15.01Z</time></trkpt><trkpt lat="45.57658860328976" lon="11.09435739948686"><ele>820.5</ele><time>2026-04-25T13:28:16.01Z</time></trkpt><trkpt lat="45.57667105958567" lon="11.094207687950032"><ele>821.0</ele><time>2026-04-25T13:28:17.01Z</time></trkpt><trkpt lat="45.57675510551206" lon="11.094077739285623"><ele>821.0000000000001</ele><time>2026-04-25T13:28:18.01Z</time></trkpt><trkpt lat="45.57683069026973" lon="11.093948366446496"><ele>821.0</ele><time>2026-04-25T13:28:19.01Z</time></trkpt><trkpt lat="45.57687083084712" lon="11.093874139060594"><ele>821.0</ele><time>2026-04-25T13:28:20.01Z</time></trkpt><trkpt lat="45.576851029991055" lon="11.093742370019216"><ele>821.0</ele><time>2026-04-25T13:28:22.01Z</time></trkpt><trkpt lat="45.57680184246394" lon="11.093655812023842"><ele>821.0000000000001</ele><time>2026-04-25T13:28:23.01Z</time></trkpt><trkpt lat="45.576745942667664" lon="11.093560306734991"><ele>821.0</ele><time>2026-04-25T13:28:24.01Z</time></trkpt><trkpt lat="45.57671291937812" lon="11.093444614921953"><ele>821.0000000000001</ele><time>2026-04-25T13:28:25.01Z</time></trkpt><trkpt lat="45.57668765455646" lon="11.093342296034535"><ele>821.0</ele><time>2026-04-25T13:28:26.01Z</time></trkpt><trkpt lat="45.576673763466225" lon="11.093229893917782"><ele>821.0</ele><time>2026-04-25T13:28:28.01Z</time></trkpt><trkpt lat="45.57672127205133" lon="11.093148562496898"><ele>821.0</ele><time>2026-04-25T13:28:30.01Z</time></trkpt><trkpt lat="45.576768360056235" lon="11.093046707411714"><ele>821.0000000000001</ele><time>2026-04-25T13:28:32.01Z</time></trkpt><trkpt lat="45.57670819840793" lon="11.0929407747433"><ele>821.0</ele><time>2026-04-25T13:28:34.01Z</time></trkpt><trkpt lat="45.57661954115654" lon="11.092852392631631"><ele>819.5000000000001</ele><time>2026-04-25T13:28:36.01Z</time></trkpt><trkpt lat="45.57655185079625" lon="11.092795418591948"><ele>818.0</ele><time>2026-04-25T13:28:37.01Z</time></trkpt><trkpt lat="45.57648245010024" lon="11.09273702699249"><ele>816.5</ele><time>2026-04-25T13:28:38.01Z</time></trkpt><trkpt lat="45.576420352579355" lon="11.092665890420507"><ele>815.0</ele><time>2026-04-25T13:28:39.01Z</time></trkpt><trkpt lat="45.576359847969236" lon="11.092581164175144"><ele>813.5000000000001</ele><time>2026-04-25T13:28:40.01Z</time></trkpt><trkpt lat="45.576307275331835" lon="11.092449284741477"><ele>812.0</ele><time>2026-04-25T13:28:41.01Z</time></trkpt><trkpt lat="45.57625015501549" lon="11.092322612621842"><ele>807.8</ele><time>2026-04-25T13:28:43.01Z</time></trkpt><trkpt lat="45.57615536050125" lon="11.09231487332064"><ele>803.6</ele><time>2026-04-25T13:28:45.01Z</time></trkpt><trkpt lat="45.57606692522501" lon="11.092289929086467"><ele>799.4</ele><time>2026-04-25T13:28:47.01Z</time></trkpt><trkpt lat="45.575983917120524" lon="11.092231090242317"><ele>795.1999999999999</ele><time>2026-04-25T13:28:48.01Z</time></trkpt><trkpt lat="45.57589304925286" lon="11.092139593458903"><ele>791.0</ele><time>2026-04-25T13:28:49.01Z</time></trkpt><trkpt lat="45.575829986664026" lon="11.09204991548033"><ele>791.0</ele><time>2026-04-25T13:28:50.011Z</time></trkpt><trkpt lat="45.575762049223876" lon="11.091986887061237"><ele>791.0</ele><time>2026-04-25T13:28:51.011Z</time></trkpt><trkpt lat="45.575648330899305" lon="11.091911283365446"><ele>791.0</ele><time>2026-04-25T13:28:53.01Z</time></trkpt><trkpt lat="45.57558552775915" lon="11.091878590996508"><ele>791.0</ele><time>2026-04-25T13:28:54.01Z</time></trkpt><trkpt lat="45.575468713553065" lon="11.091840000982803"><ele>791.0</ele><time>2026-04-25T13:28:55.01Z</time></trkpt><trkpt lat="45.575364638666926" lon="11.091781274548104"><ele>787.8333333333334</ele><time>2026-04-25T13:28:56.01Z</time></trkpt><trkpt lat="45.575279869683996" lon="11.091727631478982"><ele>784.6666666666667</ele><time>2026-04-25T13:28:57.01Z</time></trkpt><trkpt lat="45.575192000007185" lon="11.091650204753194"><ele>781.5</ele><time>2026-04-25T13:28:59.01Z</time></trkpt><trkpt lat="45.575117003751245" lon="11.091602894835217"><ele>778.3333333333333</ele><time>2026-04-25T13:29:01.01Z</time></trkpt><trkpt lat="45.57503899922114" lon="11.091529789985527"><ele>775.1666666666666</ele><time>2026-04-25T13:29:04.01Z</time></trkpt><trkpt lat="45.57499377440355" lon="11.09145338272136"><ele>772.0</ele><time>2026-04-25T13:29:45.01Z</time></trkpt><trkpt lat="45.57508928196601" lon="11.091392090127957"><ele>772.2</ele><time>2026-04-25T13:29:53.01Z</time></trkpt><trkpt lat="45.57519495800172" lon="11.09134148587337"><ele>772.4000000000001</ele><time>2026-04-25T13:29:55.01Z</time></trkpt><trkpt lat="45.57527191782629" lon="11.091315227529359"><ele>772.5999999999999</ele><time>2026-04-25T13:29:56.01Z</time></trkpt><trkpt lat="45.57534578611346" lon="11.091303983100872"><ele>772.8</ele><time>2026-04-25T13:29:57.01Z</time></trkpt><trkpt lat="45.57542594290393" lon="11.091271647510432"><ele>773.0</ele><time>2026-04-25T13:29:58.01Z</time></trkpt><trkpt lat="45.57553139417109" lon="11.091249905006052"><ele>773.0</ele><time>2026-04-25T13:29:59.01Z</time></trkpt><trkpt lat="45.57563014689653" lon="11.09126547479016"><ele>773.0</ele><time>2026-04-25T13:30:00.01Z</time></trkpt><trkpt lat="45.57571685804127" lon="11.091322788981431"><ele>773.0</ele><time>2026-04-25T13:30:01.01Z</time></trkpt><trkpt lat="45.57578168405552" lon="11.091413439376725"><ele>773.0</ele><time>2026-04-25T13:30:02.01Z</time></trkpt><trkpt lat="45.575851336635765" lon="11.09150886738708"><ele>773.0</ele><time>2026-04-25T13:30:03.01Z</time></trkpt><trkpt lat="45.5759183426294" lon="11.091589138027143"><ele>773.0</ele><time>2026-04-25T13:30:04.01Z</time></trkpt><trkpt lat="45.57601358386967" lon="11.091590931001338"><ele>773.0</ele><time>2026-04-25T13:30:05.01Z</time></trkpt><trkpt lat="45.57610008080523" lon="11.091569858060181"><ele>773.0</ele><time>2026-04-25T13:30:06.01Z</time></trkpt><trkpt lat="45.57620425021117" lon="11.091566434408268"><ele>773.0</ele><time>2026-04-25T13:30:08.01Z</time></trkpt><trkpt lat="45.57627668000507" lon="11.091598368143966"><ele>773.0</ele><time>2026-04-25T13:30:09.01Z</time></trkpt><trkpt lat="45.5763841083792" lon="11.091641272451948"><ele>777.4</ele><time>2026-04-25T13:30:10.01Z</time></trkpt><trkpt lat="45.57643701479987" lon="11.091744934874903"><ele>781.8</ele><time>2026-04-25T13:30:11.01Z</time></trkpt><trkpt lat="45.57650836144502" lon="11.091842218329498"><ele>786.2</ele><time>2026-04-25T13:30:12.01Z</time></trkpt><trkpt lat="45.57659024037915" lon="11.09190483767658"><ele>790.6</ele><time>2026-04-25T13:30:13.01Z</time></trkpt><trkpt lat="45.57666376871852" lon="11.091868872036075"><ele>795.0</ele><time>2026-04-25T13:30:15.01Z</time></trkpt><trkpt lat="45.57677118022406" lon="11.091809415646566"><ele>790.25</ele><time>2026-04-25T13:30:16.01Z</time></trkpt><trkpt lat="45.57690726667323" lon="11.09157227456653"><ele>785.5</ele><time>2026-04-25T13:30:18.01Z</time></trkpt><trkpt lat="45.577023663706804" lon="11.091432408933098"><ele>780.75</ele><time>2026-04-25T13:30:20.01Z</time></trkpt><trkpt lat="45.57708714922866" lon="11.091398246916535"><ele>776.0</ele><time>2026-04-25T13:30:21.01Z</time></trkpt><trkpt lat="45.577146277749016" lon="11.091434466484534"><ele>776.0</ele><time>2026-04-25T13:30:22.01Z</time></trkpt><trkpt lat="45.57719436967784" lon="11.091500954233812"><ele>776.0</ele><time>2026-04-25T13:30:23.01Z</time></trkpt><trkpt lat="45.57726290023891" lon="11.091630328014334"><ele>776.0</ele><time>2026-04-25T13:30:24.01Z</time></trkpt><trkpt lat="45.577342409593356" lon="11.091755094638062"><ele>776.0</ele><time>2026-04-25T13:30:25.01Z</time></trkpt><trkpt lat="45.57743834562856" lon="11.091860303646866"><ele>776.0</ele><time>2026-04-25T13:30:26.01Z</time></trkpt><trkpt lat="45.57751788043641" lon="11.091961192395479"><ele>779.8</ele><time>2026-04-25T13:30:27.01Z</time></trkpt><trkpt lat="45.57760348348696" lon="11.09205321785603"><ele>783.5999999999999</ele><time>2026-04-25T13:30:28.01Z</time></trkpt><trkpt lat="45.57768539307368" lon="11.092149033672744"><ele>787.4</ele><time>2026-04-25T13:30:29.01Z</time></trkpt><trkpt lat="45.57778646360496" lon="11.09222352649249"><ele>791.2</ele><time>2026-04-25T13:30:30.01Z</time></trkpt><trkpt lat="45.57789336807343" lon="11.092277108080602"><ele>795.0</ele><time>2026-04-25T13:30:31.01Z</time></trkpt><trkpt lat="45.57798822445021" lon="11.092304878218991"><ele>795.0</ele><time>2026-04-25T13:30:32.01Z</time></trkpt><trkpt lat="45.578060508151005" lon="11.0923430197278"><ele>795.0</ele><time>2026-04-25T13:30:33.01Z</time></trkpt><trkpt lat="45.57812403875332" lon="11.092393031306505"><ele>795.0</ele><time>2026-04-25T13:30:34.01Z</time></trkpt><trkpt lat="45.57823538792971" lon="11.09251140800561"><ele>795.0</ele><time>2026-04-25T13:30:36.01Z</time></trkpt><trkpt lat="45.578309739924954" lon="11.092569759586112"><ele>795.0</ele><time>2026-04-25T13:30:37.01Z</time></trkpt><trkpt lat="45.578386156352444" lon="11.092581413534642"><ele>794.6</ele><time>2026-04-25T13:30:38.01Z</time></trkpt><trkpt lat="45.57845528695266" lon="11.092583528848913"><ele>794.2</ele><time>2026-04-25T13:30:39.01Z</time></trkpt><trkpt lat="45.57854976654929" lon="11.092517691371336"><ele>793.8</ele><time>2026-04-25T13:30:40.01Z</time></trkpt><trkpt lat="45.5786302050767" lon="11.09244121018147"><ele>793.4</ele><time>2026-04-25T13:30:41.01Z</time></trkpt><trkpt lat="45.57874039194432" lon="11.092412994861002"><ele>793.0</ele><time>2026-04-25T13:30:44.01Z</time></trkpt><trkpt lat="45.57883484298833" lon="11.09238472990782"><ele>792.9999999999999</ele><time>2026-04-25T13:30:46.01Z</time></trkpt><trkpt lat="45.57891270883457" lon="11.0923589765373"><ele>793.0</ele><time>2026-04-25T13:30:48.01Z</time></trkpt><trkpt lat="45.57898851987855" lon="11.09238147362884"><ele>793.0</ele><time>2026-04-25T13:30:49.01Z</time></trkpt><trkpt lat="45.57906760408574" lon="11.092399629196306"><ele>793.0</ele><time>2026-04-25T13:30:50.01Z</time></trkpt><trkpt lat="45.579142524593294" lon="11.092433930961949"><ele>792.9999999999999</ele><time>2026-04-25T13:30:51.01Z</time></trkpt><trkpt lat="45.5792305202306" lon="11.092453731124575"><ele>793.0</ele><time>2026-04-25T13:30:52.011Z</time></trkpt><trkpt lat="45.57929189916159" lon="11.092476955909678"><ele>793.8</ele><time>2026-04-25T13:30:53.011Z</time></trkpt><trkpt lat="45.579403314666806" lon="11.092521973840169"><ele>794.5999999999999</ele><time>2026-04-25T13:30:55.01Z</time></trkpt><trkpt lat="45.57949057106554" lon="11.09256061558865"><ele>795.4000000000001</ele><time>2026-04-25T13:30:56.01Z</time></trkpt><trkpt lat="45.57957983383555" lon="11.092615988101869"><ele>796.2</ele><time>2026-04-25T13:30:57.011Z</time></trkpt><trkpt lat="45.579691691231744" lon="11.092654841563903"><ele>797.0</ele><time>2026-04-25T13:30:59.011Z</time></trkpt><trkpt lat="45.57980291188326" lon="11.092753879300723"><ele>797.0</ele><time>2026-04-25T13:31:01.01Z</time></trkpt><trkpt lat="45.579889353518325" lon="11.09281998665229"><ele>797.0</ele><time>2026-04-25T13:31:02.01Z</time></trkpt><trkpt lat="45.57999925600659" lon="11.092862886078978"><ele>797.0</ele><time>2026-04-25T13:31:03.011Z</time></trkpt><trkpt lat="45.58010092267008" lon="11.09285018992578"><ele>797.0</ele><time>2026-04-25T13:31:04.011Z</time></trkpt><trkpt lat="45.58018366692609" lon="11.092788051399276"><ele>797.0</ele><time>2026-04-25T13:31:05.011Z</time></trkpt><trkpt lat="45.580287427710246" lon="11.092731136363156"><ele>797.0000000000001</ele><time>2026-04-25T13:31:07.011Z</time></trkpt><trkpt lat="45.58031709964373" lon="11.092629165003862"><ele>797.0</ele><time>2026-04-25T13:31:10.011Z</time></trkpt><trkpt lat="45.580202330763626" lon="11.092646678610086"><ele>797.0</ele><time>2026-04-25T13:31:12.011Z</time></trkpt><trkpt lat="45.58013953826213" lon="11.092629037972117"><ele>797.0</ele><time>2026-04-25T13:31:13.01Z</time></trkpt><trkpt lat="45.58006464296556" lon="11.092577487654056"><ele>797.0000000000001</ele><time>2026-04-25T13:31:14.01Z</time></trkpt><trkpt lat="45.580017533034535" lon="11.092506659467302"><ele>797.0</ele><time>2026-04-25T13:31:15.01Z</time></trkpt><trkpt lat="45.579954501612136" lon="11.092407190730043"><ele>792.6666666666667</ele><time>2026-04-25T13:31:16.01Z</time></trkpt><trkpt lat="45.579890447958746" lon="11.09232367848099"><ele>788.3333333333334</ele><time>2026-04-25T13:31:17.01Z</time></trkpt><trkpt lat="45.57984131858836" lon="11.092229753336367"><ele>784.0</ele><time>2026-04-25T13:31:18.01Z</time></trkpt><trkpt lat="45.579786130346484" lon="11.092155699211697"><ele>779.6666666666667</ele><time>2026-04-25T13:31:19.01Z</time></trkpt><trkpt lat="45.57971622378889" lon="11.092079509860238"><ele>775.3333333333334</ele><time>2026-04-25T13:31:20.01Z</time></trkpt><trkpt lat="45.5796532304422" lon="11.092015759919175"><ele>771.0</ele><time>2026-04-25T13:31:21.01Z</time></trkpt><trkpt lat="45.579571828822466" lon="11.091962596842926"><ele>770.0</ele><time>2026-04-25T13:31:22.01Z</time></trkpt><trkpt lat="45.579496224850914" lon="11.091904789269778"><ele>769.0</ele><time>2026-04-25T13:31:23.01Z</time></trkpt><trkpt lat="45.57940257835174" lon="11.091844167339437"><ele>768.0</ele><time>2026-04-25T13:31:24.01Z</time></trkpt><trkpt lat="45.579315945313795" lon="11.091765798938937"><ele>767.0</ele><time>2026-04-25T13:31:25.01Z</time></trkpt><trkpt lat="45.57925308919746" lon="11.091671454217215"><ele>766.0</ele><time>2026-04-25T13:31:26.01Z</time></trkpt><trkpt lat="45.57917351312711" lon="11.09157016616385"><ele>766.0</ele><time>2026-04-25T13:31:27.01Z</time></trkpt><trkpt lat="45.57910648294717" lon="11.091483078603638"><ele>766.0</ele><time>2026-04-25T13:31:28.01Z</time></trkpt><trkpt lat="45.57903198174034" lon="11.09139452349126"><ele>766.0</ele><time>2026-04-25T13:31:29.01Z</time></trkpt><trkpt lat="45.57895962152207" lon="11.091297052383505"><ele>766.0</ele><time>2026-04-25T13:31:30.01Z</time></trkpt><trkpt lat="45.57888849184852" lon="11.091186328910883"><ele>766.0</ele><time>2026-04-25T13:31:31.01Z</time></trkpt><trkpt lat="45.57881795969291" lon="11.091059876518042"><ele>766.0</ele><time>2026-04-25T13:31:32.01Z</time></trkpt><trkpt lat="45.57876116989719" lon="11.090952739765756"><ele>766.0</ele><time>2026-04-25T13:31:33.01Z</time></trkpt><trkpt lat="45.57870577936002" lon="11.090843858201358"><ele>766.0</ele><time>2026-04-25T13:31:34.01Z</time></trkpt><trkpt lat="45.578653722288756" lon="11.090741481970204"><ele>766.0</ele><time>2026-04-25T13:31:35.01Z</time></trkpt><trkpt lat="45.57857166510203" lon="11.09065067123019"><ele>766.0</ele><time>2026-04-25T13:31:37.01Z</time></trkpt><trkpt lat="45.578490622402995" lon="11.090600104808843"><ele>766.0</ele><time>2026-04-25T13:31:39.01Z</time></trkpt><trkpt lat="45.57846580915207" lon="11.090491852944744"><ele>766.0</ele><time>2026-04-25T13:31:42.01Z</time></trkpt><trkpt lat="45.57860596246278" lon="11.09057041526875"><ele>766.0</ele><time>2026-04-25T13:31:47.01Z</time></trkpt><trkpt lat="45.57871505182539" lon="11.090703303313916"><ele>766.0</ele><time>2026-04-25T13:31:49.01Z</time></trkpt><trkpt lat="45.57878937742082" lon="11.090800940352429"><ele>766.0</ele><time>2026-04-25T13:31:50.01Z</time></trkpt><trkpt lat="45.5788654143644" lon="11.090871703776493"><ele>766.0</ele><time>2026-04-25T13:31:51.01Z</time></trkpt><trkpt lat="45.578942186592236" lon="11.090949859150072"><ele>766.0</ele><time>2026-04-25T13:31:52.01Z</time></trkpt><trkpt lat="45.57901631046587" lon="11.091025811985434"><ele>766.0</ele><time>2026-04-25T13:31:53.01Z</time></trkpt><trkpt lat="45.579104290135625" lon="11.091096512744661"><ele>766.0</ele><time>2026-04-25T13:31:54.01Z</time></trkpt><trkpt lat="45.579180973437374" lon="11.091172517467578"><ele>766.0</ele><time>2026-04-25T13:31:55.01Z</time></trkpt><trkpt lat="45.57923801120146" lon="11.091224387194929"><ele>766.0</ele><time>2026-04-25T13:31:56.01Z</time></trkpt><trkpt lat="45.57929779211859" lon="11.091263314681251"><ele>766.0</ele><time>2026-04-25T13:31:57.01Z</time></trkpt><trkpt lat="45.57936942246497" lon="11.091314549833239"><ele>766.0</ele><time>2026-04-25T13:31:58.01Z</time></trkpt><trkpt lat="45.579460435596964" lon="11.091353212986256"><ele>766.0</ele><time>2026-04-25T13:31:59.01Z</time></trkpt><trkpt lat="45.579578494335024" lon="11.091413204176447"><ele>766.0</ele><time>2026-04-25T13:32:00.01Z</time></trkpt><trkpt lat="45.57966231922779" lon="11.091457428595534"><ele>767.0</ele><time>2026-04-25T13:32:01.01Z</time></trkpt><trkpt lat="45.57975760190509" lon="11.091480839076393"><ele>768.0</ele><time>2026-04-25T13:32:02.01Z</time></trkpt><trkpt lat="45.579853065394396" lon="11.091506666916603"><ele>769.0</ele><time>2026-04-25T13:32:03.01Z</time></trkpt><trkpt lat="45.579952831865775" lon="11.091556844937898"><ele>770.0</ele><time>2026-04-25T13:32:04.01Z</time></trkpt><trkpt lat="45.58005184720911" lon="11.09159905233717"><ele>771.0</ele><time>2026-04-25T13:32:05.01Z</time></trkpt><trkpt lat="45.58013038347141" lon="11.09163435440192"><ele>771.0</ele><time>2026-04-25T13:32:06.01Z</time></trkpt><trkpt lat="45.58020481038744" lon="11.091662866301265"><ele>771.0</ele><time>2026-04-25T13:32:07.01Z</time></trkpt><trkpt lat="45.58026925221101" lon="11.09165881861955"><ele>771.0</ele><time>2026-04-25T13:32:08.01Z</time></trkpt><trkpt lat="45.58034917652125" lon="11.091615574463445"><ele>771.0</ele><time>2026-04-25T13:32:09.01Z</time></trkpt><trkpt lat="45.580442811226376" lon="11.091582758427977"><ele>771.0</ele><time>2026-04-25T13:32:10.01Z</time></trkpt><trkpt lat="45.580525354680034" lon="11.091540567930258"><ele>771.0</ele><time>2026-04-25T13:32:11.01Z</time></trkpt><trkpt lat="45.5806239881408" lon="11.091501337646445"><ele>769.5999999999999</ele><time>2026-04-25T13:32:12.01Z</time></trkpt><trkpt lat="45.58072570836548" lon="11.091435673430103"><ele>768.2</ele><time>2026-04-25T13:32:13.01Z</time></trkpt><trkpt lat="45.58083143707017" lon="11.091380173592926"><ele>766.8</ele><time>2026-04-25T13:32:14.01Z</time></trkpt><trkpt lat="45.58092079978205" lon="11.09135200713079"><ele>765.4000000000001</ele><time>2026-04-25T13:32:15.01Z</time></trkpt><trkpt lat="45.58098604787889" lon="11.091330169641207"><ele>764.0</ele><time>2026-04-25T13:32:16.01Z</time></trkpt><trkpt lat="45.58106026569946" lon="11.091304825671203"><ele>764.0</ele><time>2026-04-25T13:32:18.01Z</time></trkpt><trkpt lat="45.580997555579884" lon="11.091234399446849"><ele>764.0</ele><time>2026-04-25T13:32:23.01Z</time></trkpt><trkpt lat="45.58089081030262" lon="11.091234267369272"><ele>764.0</ele><time>2026-04-25T13:32:25.01Z</time></trkpt><trkpt lat="45.580821066692664" lon="11.091227071893082"><ele>764.0</ele><time>2026-04-25T13:32:26.01Z</time></trkpt><trkpt lat="45.58072893493243" lon="11.091236083707443"><ele>764.0</ele><time>2026-04-25T13:32:27.01Z</time></trkpt><trkpt lat="45.58057913396146" lon="11.091245170277825"><ele>764.0</ele><time>2026-04-25T13:32:29.01Z</time></trkpt><trkpt lat="45.58046113042657" lon="11.091252379208074"><ele>764.0</ele><time>2026-04-25T13:32:30.01Z</time></trkpt><trkpt lat="45.58035814864422" lon="11.091256408586647"><ele>764.0</ele><time>2026-04-25T13:32:31.01Z</time></trkpt><trkpt lat="45.58025998883717" lon="11.091251261412774"><ele>764.0</ele><time>2026-04-25T13:32:32.01Z</time></trkpt><trkpt lat="45.58017500470822" lon="11.091228088558713"><ele>764.0</ele><time>2026-04-25T13:32:33.01Z</time></trkpt><trkpt lat="45.58010807249098" lon="11.09116200889073"><ele>762.6</ele><time>2026-04-25T13:32:34.01Z</time></trkpt><trkpt lat="45.580025786765106" lon="11.091085060065023"><ele>761.2</ele><time>2026-04-25T13:32:35.01Z</time></trkpt><trkpt lat="45.57992700428214" lon="11.09102604386302"><ele>759.8000000000001</ele><time>2026-04-25T13:32:36.01Z</time></trkpt><trkpt lat="45.57982839435207" lon="11.090976341226023"><ele>758.4000000000001</ele><time>2026-04-25T13:32:37.01Z</time></trkpt><trkpt lat="45.57975063920841" lon="11.0909186037019"><ele>757.0</ele><time>2026-04-25T13:32:38.01Z</time></trkpt><trkpt lat="45.57967294597694" lon="11.090859886945623"><ele>757.0</ele><time>2026-04-25T13:32:39.01Z</time></trkpt><trkpt lat="45.5795863421942" lon="11.090765921847623"><ele>757.0</ele><time>2026-04-25T13:32:40.01Z</time></trkpt><trkpt lat="45.57951393646822" lon="11.090647289963805"><ele>757.0</ele><time>2026-04-25T13:32:41.01Z</time></trkpt><trkpt lat="45.57944115834541" lon="11.090538512183278"><ele>757.0</ele><time>2026-04-25T13:32:42.01Z</time></trkpt><trkpt lat="45.57935771298048" lon="11.09045628377524"><ele>757.0</ele><time>2026-04-25T13:32:43.01Z</time></trkpt><trkpt lat="45.57926600645172" lon="11.090386771433215"><ele>755.8</ele><time>2026-04-25T13:32:44.01Z</time></trkpt><trkpt lat="45.57918807649458" lon="11.090304765772501"><ele>754.6</ele><time>2026-04-25T13:32:45.01Z</time></trkpt><trkpt lat="45.57910112724705" lon="11.09021818637099"><ele>753.4</ele><time>2026-04-25T13:32:46.01Z</time></trkpt><trkpt lat="45.579013162484586" lon="11.09011304269757"><ele>752.1999999999999</ele><time>2026-04-25T13:32:47.01Z</time></trkpt><trkpt lat="45.5789360742813" lon="11.089984365709684"><ele>751.0</ele><time>2026-04-25T13:32:48.01Z</time></trkpt><trkpt lat="45.57885911512901" lon="11.089846152096216"><ele>751.0</ele><time>2026-04-25T13:32:49.01Z</time></trkpt><trkpt lat="45.578784720286535" lon="11.089682960931984"><ele>751.0</ele><time>2026-04-25T13:32:50.01Z</time></trkpt><trkpt lat="45.578711186505814" lon="11.089542156842324"><ele>751.0</ele><time>2026-04-25T13:32:51.01Z</time></trkpt><trkpt lat="45.57865108831614" lon="11.08940282459595"><ele>751.0</ele><time>2026-04-25T13:32:52.01Z</time></trkpt><trkpt lat="45.57859399590275" lon="11.089283882892149"><ele>749.1999999999999</ele><time>2026-04-25T13:32:53.01Z</time></trkpt><trkpt lat="45.57853685410444" lon="11.08917327105319"><ele>747.4</ele><time>2026-04-25T13:32:54.01Z</time></trkpt><trkpt lat="45.578472015254526" lon="11.089074491810702"><ele>745.6</ele><time>2026-04-25T13:32:55.01Z</time></trkpt><trkpt lat="45.57839431178658" lon="11.08894409783559"><ele>743.8</ele><time>2026-04-25T13:32:57.011Z</time></trkpt><trkpt lat="45.57828246972586" lon="11.088868686932004"><ele>742.0</ele><time>2026-04-25T13:32:59.011Z</time></trkpt><trkpt lat="45.57822269219385" lon="11.08882148332302"><ele>741.0</ele><time>2026-04-25T13:33:00.011Z</time></trkpt><trkpt lat="45.578156937022534" lon="11.088772282134324"><ele>740.0</ele><time>2026-04-25T13:33:01.01Z</time></trkpt><trkpt lat="45.57807551907193" lon="11.08872212520964"><ele>739.0</ele><time>2026-04-25T13:33:02.01Z</time></trkpt><trkpt lat="45.577973908854204" lon="11.088647525349515"><ele>738.0</ele><time>2026-04-25T13:33:03.01Z</time></trkpt><trkpt lat="45.57788900069729" lon="11.08854152523053"><ele>737.0</ele><time>2026-04-25T13:33:04.011Z</time></trkpt><trkpt lat="45.57779514289275" lon="11.088473304133498"><ele>735.0</ele><time>2026-04-25T13:33:05.011Z</time></trkpt><trkpt lat="45.57771453781298" lon="11.088401646308572"><ele>733.0</ele><time>2026-04-25T13:33:06.011Z</time></trkpt><trkpt lat="45.57759182565911" lon="11.088366724634264"><ele>731.0</ele><time>2026-04-25T13:33:08.011Z</time></trkpt><trkpt lat="45.577481810911124" lon="11.088363120109321"><ele>729.0</ele><time>2026-04-25T13:33:09.011Z</time></trkpt><trkpt lat="45.577373042321405" lon="11.08837252449888"><ele>727.0</ele><time>2026-04-25T13:33:10.011Z</time></trkpt><trkpt lat="45.57727047216261" lon="11.088376955549057"><ele>727.0</ele><time>2026-04-25T13:33:11.011Z</time></trkpt><trkpt lat="45.57716168127996" lon="11.088367279194848"><ele>727.0</ele><time>2026-04-25T13:33:12.011Z</time></trkpt><trkpt lat="45.577055436671664" lon="11.088360154502785"><ele>727.0</ele><time>2026-04-25T13:33:13.011Z</time></trkpt><trkpt lat="45.57696954314837" lon="11.08833867078012"><ele>727.0</ele><time>2026-04-25T13:33:14.011Z</time></trkpt><trkpt lat="45.57687688108495" lon="11.088333194067426"><ele>727.0</ele><time>2026-04-25T13:33:15.011Z</time></trkpt><trkpt lat="45.576767439556335" lon="11.08833574734436"><ele>726.8</ele><time>2026-04-25T13:33:16.011Z</time></trkpt><trkpt lat="45.57665266954095" lon="11.088338631327574"><ele>726.6</ele><time>2026-04-25T13:33:17.011Z</time></trkpt><trkpt lat="45.57655583912932" lon="11.088343081038856"><ele>726.4</ele><time>2026-04-25T13:33:18.011Z</time></trkpt><trkpt lat="45.57646901672748" lon="11.088345963092081"><ele>726.1999999999999</ele><time>2026-04-25T13:33:19.011Z</time></trkpt><trkpt lat="45.576393226253536" lon="11.088349567266896"><ele>726.0</ele><time>2026-04-25T13:33:20.011Z</time></trkpt><trkpt lat="45.57629665717216" lon="11.088288383670747"><ele>725.5</ele><time>2026-04-25T13:33:22.011Z</time></trkpt><trkpt lat="45.57624110887397" lon="11.08816637478815"><ele>725.0</ele><time>2026-04-25T13:33:24.011Z</time></trkpt><trkpt lat="45.5761760522241" lon="11.088217439014482"><ele>724.5</ele><time>2026-04-25T13:33:26.011Z</time></trkpt><trkpt lat="45.576106664784824" lon="11.088257727869891"><ele>724.0</ele><time>2026-04-25T13:33:27.011Z</time></trkpt><trkpt lat="45.57603828994857" lon="11.08830327008186"><ele>723.5</ele><time>2026-04-25T13:33:28.011Z</time></trkpt><trkpt lat="45.57595597659772" lon="11.088364014455733"><ele>723.0</ele><time>2026-04-25T13:33:29.011Z</time></trkpt><trkpt lat="45.57588078433347" lon="11.08840202717406"><ele>723.0</ele><time>2026-04-25T13:33:30.011Z</time></trkpt><trkpt lat="45.57579461252956" lon="11.08845463878557"><ele>723.0</ele><time>2026-04-25T13:33:31.011Z</time></trkpt><trkpt lat="45.57570778341853" lon="11.088466077135395"><ele>723.0</ele><time>2026-04-25T13:33:32.011Z</time></trkpt><trkpt lat="45.575636051574854" lon="11.088429151905897"><ele>723.0</ele><time>2026-04-25T13:33:33.011Z</time></trkpt><trkpt lat="45.57557000560186" lon="11.0883544149465"><ele>723.0</ele><time>2026-04-25T13:33:34.011Z</time></trkpt><trkpt lat="45.57552336865809" lon="11.088226605149867"><ele>723.0</ele><time>2026-04-25T13:33:35.011Z</time></trkpt><trkpt lat="45.5755082056697" lon="11.08808771055326"><ele>721.2</ele><time>2026-04-25T13:33:36.011Z</time></trkpt><trkpt lat="45.575505435895444" lon="11.08794251723865"><ele>719.4</ele><time>2026-04-25T13:33:37.011Z</time></trkpt><trkpt lat="45.575477366099236" lon="11.087812810721939"><ele>717.6</ele><time>2026-04-25T13:33:38.011Z</time></trkpt><trkpt lat="45.57542655766556" lon="11.087675334833913"><ele>715.8000000000001</ele><time>2026-04-25T13:33:39.011Z</time></trkpt><trkpt lat="45.57534824613693" lon="11.087552369063081"><ele>714.0</ele><time>2026-04-25T13:33:40.011Z</time></trkpt><trkpt lat="45.575271678667825" lon="11.087440611609855"><ele>712.25</ele><time>2026-04-25T13:33:41.011Z</time></trkpt><trkpt lat="45.57515978096848" lon="11.087309646219648"><ele>710.5</ele><time>2026-04-25T13:33:42.011Z</time></trkpt><trkpt lat="45.57504248831579" lon="11.087204561880872"><ele>708.75</ele><time>2026-04-25T13:33:43.011Z</time></trkpt><trkpt lat="45.57493054847621" lon="11.08710357600412"><ele>707.0</ele><time>2026-04-25T13:33:44.011Z</time></trkpt><trkpt lat="45.5748203526122" lon="11.087036839749173"><ele>707.0</ele><time>2026-04-25T13:33:45.011Z</time></trkpt><trkpt lat="45.57469782692379" lon="11.086956640845216"><ele>707.0</ele><time>2026-04-25T13:33:46.011Z</time></trkpt><trkpt lat="45.574591579716106" lon="11.086881598250901"><ele>707.0</ele><time>2026-04-25T13:33:47.011Z</time></trkpt><trkpt lat="45.57446404023123" lon="11.086799242959453"><ele>707.0</ele><time>2026-04-25T13:33:48.011Z</time></trkpt><trkpt lat="45.57437469883704" lon="11.086704736057802"><ele>707.0</ele><time>2026-04-25T13:33:49.011Z</time></trkpt><trkpt lat="45.57428017939854" lon="11.08661868318714"><ele>707.0</ele><time>2026-04-25T13:33:50.011Z</time></trkpt><trkpt lat="45.574161388174765" lon="11.086519456509858"><ele>707.0</ele><time>2026-04-25T13:33:51.011Z</time></trkpt><trkpt lat="45.5740455565977" lon="11.086417616777654"><ele>707.0</ele><time>2026-04-25T13:33:52.011Z</time></trkpt><trkpt lat="45.57394516457099" lon="11.086323203807035"><ele>707.0</ele><time>2026-04-25T13:33:53.011Z</time></trkpt><trkpt lat="45.573840374780836" lon="11.086237257209069"><ele>707.0</ele><time>2026-04-25T13:33:54.011Z</time></trkpt><trkpt lat="45.573753721582534" lon="11.086138957217713"><ele>707.0</ele><time>2026-04-25T13:33:55.011Z</time></trkpt><trkpt lat="45.57367065592792" lon="11.08605807402297"><ele>707.0</ele><time>2026-04-25T13:33:56.011Z</time></trkpt><trkpt lat="45.57360222093374" lon="11.085985964938237"><ele>707.0</ele><time>2026-04-25T13:33:57.011Z</time></trkpt><trkpt lat="45.57351452870831" lon="11.085916569132594"><ele>706.0</ele><time>2026-04-25T13:33:58.011Z</time></trkpt><trkpt lat="45.57341717577923" lon="11.085815288971125"><ele>705.0</ele><time>2026-04-25T13:33:59.011Z</time></trkpt><trkpt lat="45.57332876751462" lon="11.08572015017413"><ele>704.0</ele><time>2026-04-25T13:34:00.011Z</time></trkpt><trkpt lat="45.573235732181644" lon="11.08564782253955"><ele>703.0</ele><time>2026-04-25T13:34:01.011Z</time></trkpt><trkpt lat="45.57315895033648" lon="11.085558100187491"><ele>702.0</ele><time>2026-04-25T13:34:02.011Z</time></trkpt><trkpt lat="45.573098852475546" lon="11.085460017611208"><ele>702.0</ele><time>2026-04-25T13:34:03.011Z</time></trkpt><trkpt lat="45.57303708848331" lon="11.08531843248679"><ele>702.0</ele><time>2026-04-25T13:34:04.011Z</time></trkpt><trkpt lat="45.57292922702747" lon="11.085245893329809"><ele>702.0</ele><time>2026-04-25T13:34:05.011Z</time></trkpt><trkpt lat="45.57290296387218" lon="11.085074902926644"><ele>702.0</ele><time>2026-04-25T13:34:07.011Z</time></trkpt><trkpt lat="45.572899698659526" lon="11.084984716285312"><ele>702.0</ele><time>2026-04-25T13:34:08.011Z</time></trkpt><trkpt lat="45.57289384450541" lon="11.084894813601368"><ele>700.2</ele><time>2026-04-25T13:34:09.011Z</time></trkpt><trkpt lat="45.5728836383831" lon="11.084718959971191"><ele>698.4000000000001</ele><time>2026-04-25T13:34:11.011Z</time></trkpt><trkpt lat="45.57283692094749" lon="11.084568124673295"><ele>696.5999999999999</ele><time>2026-04-25T13:34:12.011Z</time></trkpt><trkpt lat="45.57278697453451" lon="11.084459722862212"><ele>694.8</ele><time>2026-04-25T13:34:13.011Z</time></trkpt><trkpt lat="45.57274139322421" lon="11.084360836782878"><ele>693.0</ele><time>2026-04-25T13:34:14.011Z</time></trkpt><trkpt lat="45.57271058557933" lon="11.084275227030743"><ele>693.0</ele><time>2026-04-25T13:34:15.011Z</time></trkpt><trkpt lat="45.572686853747086" lon="11.08418818269215"><ele>693.0</ele><time>2026-04-25T13:34:16.011Z</time></trkpt><trkpt lat="45.572657293430694" lon="11.084032351758784"><ele>693.0</ele><time>2026-04-25T13:34:18.011Z</time></trkpt><trkpt lat="45.57264077543252" lon="11.083913297590977"><ele>693.0</ele><time>2026-04-25T13:34:19.01Z</time></trkpt><trkpt lat="45.57262017791557" lon="11.083747890835793"><ele>693.0</ele><time>2026-04-25T13:34:20.01Z</time></trkpt><trkpt lat="45.57259580546822" lon="11.083531441290585"><ele>692.0</ele><time>2026-04-25T13:34:22.01Z</time></trkpt><trkpt lat="45.572544280176736" lon="11.083390562829393"><ele>691.0</ele><time>2026-04-25T13:34:23.01Z</time></trkpt><trkpt lat="45.57254018708823" lon="11.08327774415826"><ele>690.0</ele><time>2026-04-25T13:34:24.01Z</time></trkpt><trkpt lat="45.57251437882905" lon="11.083142908556596"><ele>689.0</ele><time>2026-04-25T13:34:25.01Z</time></trkpt><trkpt lat="45.57249966174331" lon="11.08299205753319"><ele>688.0</ele><time>2026-04-25T13:34:26.01Z</time></trkpt><trkpt lat="45.572475726884406" lon="11.082891572749814"><ele>687.3333333333334</ele><time>2026-04-25T13:34:27.01Z</time></trkpt><trkpt lat="45.57243198330235" lon="11.082793824837498"><ele>686.6666666666667</ele><time>2026-04-25T13:34:28.01Z</time></trkpt><trkpt lat="45.57237056155298" lon="11.08268691924913"><ele>686.0</ele><time>2026-04-25T13:34:29.01Z</time></trkpt><trkpt lat="45.572312643645986" lon="11.08260288751346"><ele>685.3333333333334</ele><time>2026-04-25T13:34:30.01Z</time></trkpt><trkpt lat="45.57223744476006" lon="11.082556309440385"><ele>684.6666666666666</ele><time>2026-04-25T13:34:31.01Z</time></trkpt><trkpt lat="45.57215217146473" lon="11.082506292736118"><ele>684.0</ele><time>2026-04-25T13:34:32.01Z</time></trkpt><trkpt lat="45.57208683622858" lon="11.08245925784866"><ele>682.1666666666666</ele><time>2026-04-25T13:34:33.01Z</time></trkpt><trkpt lat="45.57199914187348" lon="11.082416527272702"><ele>680.3333333333334</ele><time>2026-04-25T13:34:34.01Z</time></trkpt><trkpt lat="45.57191377485814" lon="11.08236949559447"><ele>678.5</ele><time>2026-04-25T13:34:35.01Z</time></trkpt><trkpt lat="45.57183163811531" lon="11.08234353951417"><ele>676.6666666666667</ele><time>2026-04-25T13:34:36.01Z</time></trkpt><trkpt lat="45.57175449280541" lon="11.082282029813287"><ele>674.8333333333334</ele><time>2026-04-25T13:34:38.01Z</time></trkpt><trkpt lat="45.57169585659983" lon="11.082182985698969"><ele>673.0</ele><time>2026-04-25T13:34:41.01Z</time></trkpt><trkpt lat="45.5716443716183" lon="11.08212426438667"><ele>673.0</ele><time>2026-04-25T13:34:43.01Z</time></trkpt><trkpt lat="45.57161212803111" lon="11.08203663916863"><ele>673.0</ele><time>2026-04-25T13:34:51.01Z</time></trkpt><trkpt lat="45.57159471546328" lon="11.08193925159553"><ele>673.0</ele><time>2026-04-25T13:34:55.01Z</time></trkpt><trkpt lat="45.571543983754125" lon="11.081817217477775"><ele>673.0</ele><time>2026-04-25T13:34:58.01Z</time></trkpt><trkpt lat="45.571456888568626" lon="11.081714446077525"><ele>673.0</ele><time>2026-04-25T13:35:00.01Z</time></trkpt><trkpt lat="45.57132606645394" lon="11.081685811480712"><ele>673.0</ele><time>2026-04-25T13:35:02.01Z</time></trkpt><trkpt lat="45.57123929281701" lon="11.081682533026619"><ele>673.0</ele><time>2026-04-25T13:35:03.011Z</time></trkpt><trkpt lat="45.571166977011224" lon="11.081677795506813"><ele>673.0</ele><time>2026-04-25T13:35:04.011Z</time></trkpt><trkpt lat="45.571044118028944" lon="11.081693949586166"><ele>673.0</ele><time>2026-04-25T13:35:06.011Z</time></trkpt><trkpt lat="45.570936010544884" lon="11.081702994131657"><ele>673.0</ele><time>2026-04-25T13:35:08.012Z</time></trkpt><trkpt lat="45.5708711146222" lon="11.081708896111014"><ele>673.5999999999999</ele><time>2026-04-25T13:35:09.011Z</time></trkpt><trkpt lat="45.570772922716095" lon="11.081703306501893"><ele>674.1999999999999</ele><time>2026-04-25T13:35:10.011Z</time></trkpt><trkpt lat="45.57065757338404" lon="11.08169614611332"><ele>674.8</ele><time>2026-04-25T13:35:12.011Z</time></trkpt><trkpt lat="45.570567732396945" lon="11.08166133064814"><ele>675.4</ele><time>2026-04-25T13:35:14.01Z</time></trkpt><trkpt lat="45.57051138800941" lon="11.08160077304512"><ele>676.0</ele><time>2026-04-25T13:35:15.011Z</time></trkpt><trkpt lat="45.57044217198722" lon="11.081557848069684"><ele>676.0</ele><time>2026-04-25T13:35:17.011Z</time></trkpt><trkpt lat="45.57038591748399" lon="11.081490735790947"><ele>676.0</ele><time>2026-04-25T13:35:20.011Z</time></trkpt><trkpt lat="45.57036044996624" lon="11.081401352046049"><ele>676.0</ele><time>2026-04-25T13:35:26.011Z</time></trkpt><trkpt lat="45.57030242045619" lon="11.081319623000683"><ele>676.0</ele><time>2026-04-25T13:35:33.011Z</time></trkpt><trkpt lat="45.570234423770536" lon="11.081270707822668"><ele>676.0</ele><time>2026-04-25T13:35:36.011Z</time></trkpt><trkpt lat="45.570164879434806" lon="11.08124522407087"><ele>676.0</ele><time>2026-04-25T13:35:40.011Z</time></trkpt><trkpt lat="45.57009737885099" lon="11.081245807945352"><ele>676.0</ele><time>2026-04-25T13:35:44.01Z</time></trkpt><trkpt lat="45.57002814675277" lon="11.08123689233619"><ele>675.0</ele><time>2026-04-25T13:35:48.01Z</time></trkpt><trkpt lat="45.56995590133056" lon="11.081222481614509"><ele>674.0</ele><time>2026-04-25T13:35:51.01Z</time></trkpt><trkpt lat="45.569875892448025" lon="11.081227365650753"><ele>673.0</ele><time>2026-04-25T13:35:54.01Z</time></trkpt><trkpt lat="45.569793815891515" lon="11.081202736979256"><ele>672.0</ele><time>2026-04-25T13:36:00.01Z</time></trkpt><trkpt lat="45.5697371245933" lon="11.081148705073232"><ele>671.0</ele><time>2026-04-25T13:36:03.01Z</time></trkpt><trkpt lat="45.56964446373686" lon="11.081140973149948"><ele>670.0</ele><time>2026-04-25T13:36:06.01Z</time></trkpt><trkpt lat="45.56957724564701" lon="11.081137969053653"><ele>668.3333333333334</ele><time>2026-04-25T13:36:09.01Z</time></trkpt><trkpt lat="45.56947677538448" lon="11.08112800967118"><ele>666.6666666666667</ele><time>2026-04-25T13:36:12.01Z</time></trkpt><trkpt lat="45.56939762875568" lon="11.081107550743123"><ele>665.0</ele><time>2026-04-25T13:36:15.01Z</time></trkpt><trkpt lat="45.569322970444226" lon="11.081125210708427"><ele>663.3333333333334</ele><time>2026-04-25T13:36:19.01Z</time></trkpt><trkpt lat="45.569255852686325" lon="11.081139472711396"><ele>661.6666666666666</ele><time>2026-04-25T13:36:24.01Z</time></trkpt><trkpt lat="45.56920211035755" lon="11.081088651355584"><ele>660.0</ele><time>2026-04-25T13:36:36.01Z</time></trkpt><trkpt lat="45.569151311615116" lon="11.08115285934742"><ele>660.0000000000001</ele><time>2026-04-25T13:36:41.01Z</time></trkpt><trkpt lat="45.56909578215946" lon="11.081062652756698"><ele>660.0</ele><time>2026-04-25T13:38:53.011Z</time></trkpt><trkpt lat="45.56901559965554" lon="11.081086233411126"><ele>660.0</ele><time>2026-04-25T13:39:15.012Z</time></trkpt><trkpt lat="45.568968724981815" lon="11.081152373334492"><ele>660.0</ele><time>2026-04-25T13:39:23.012Z</time></trkpt><trkpt lat="45.56889684844873" lon="11.0811766731597"><ele>660.0</ele><time>2026-04-25T13:39:48.012Z</time></trkpt><trkpt lat="45.56883329673398" lon="11.08117204858119"><ele>660.0000000000001</ele><time>2026-04-25T13:39:51.012Z</time></trkpt><trkpt lat="45.568754462200616" lon="11.081178557826675"><ele>660.0</ele><time>2026-04-25T13:40:02.012Z</time></trkpt><trkpt lat="45.568647732669824" lon="11.081181019624928"><ele>658.0</ele><time>2026-04-25T13:40:04.012Z</time></trkpt><trkpt lat="45.56857154152806" lon="11.081177214459272"><ele>656.0</ele><time>2026-04-25T13:40:05.012Z</time></trkpt><trkpt lat="45.56845997867963" lon="11.08115719305162"><ele>654.0</ele><time>2026-04-25T13:40:07.012Z</time></trkpt><trkpt lat="45.56832980573758" lon="11.081180305186624"><ele>652.0</ele><time>2026-04-25T13:40:09.012Z</time></trkpt><trkpt lat="45.56826122949897" lon="11.081192778144423"><ele>650.0</ele><time>2026-04-25T13:40:10.012Z</time></trkpt><trkpt lat="45.56816838242386" lon="11.081208557051871"><ele>650.0</ele><time>2026-04-25T13:40:11.012Z</time></trkpt><trkpt lat="45.568077016647905" lon="11.081201366591076"><ele>650.0</ele><time>2026-04-25T13:40:12.012Z</time></trkpt><trkpt lat="45.56798372200437" lon="11.081205399710537"><ele>650.0</ele><time>2026-04-25T13:40:13.012Z</time></trkpt><trkpt lat="45.56791344634567" lon="11.081180925752994"><ele>650.0</ele><time>2026-04-25T13:40:14.012Z</time></trkpt><trkpt lat="45.56783094764294" lon="11.081202078291229"><ele>650.0</ele><time>2026-04-25T13:40:15.012Z</time></trkpt><trkpt lat="45.567763073129804" lon="11.081198525011574"><ele>650.0</ele><time>2026-04-25T13:40:16.012Z</time></trkpt><trkpt lat="45.5676250548424" lon="11.08122011604432"><ele>650.0</ele><time>2026-04-25T13:40:18.012Z</time></trkpt><trkpt lat="45.56753333168043" lon="11.081265314866641"><ele>650.0</ele><time>2026-04-25T13:40:19.012Z</time></trkpt><trkpt lat="45.56744629128909" lon="11.081330193615726"><ele>650.0</ele><time>2026-04-25T13:40:20.012Z</time></trkpt><trkpt lat="45.56733623335339" lon="11.08140719165078"><ele>650.0</ele><time>2026-04-25T13:40:21.012Z</time></trkpt><trkpt lat="45.56722371594187" lon="11.081503510308059"><ele>650.0</ele><time>2026-04-25T13:40:22.012Z</time></trkpt><trkpt lat="45.56713347362352" lon="11.08161189123351"><ele>649.0</ele><time>2026-04-25T13:40:23.012Z</time></trkpt><trkpt lat="45.56705394184928" lon="11.081743401253194"><ele>648.0</ele><time>2026-04-25T13:40:24.012Z</time></trkpt><trkpt lat="45.566975609055724" lon="11.081897585500203"><ele>647.0</ele><time>2026-04-25T13:40:25.012Z</time></trkpt><trkpt lat="45.56691945439578" lon="11.082077783827733"><ele>646.0</ele><time>2026-04-25T13:40:26.012Z</time></trkpt><trkpt lat="45.56687964487596" lon="11.082234955780391"><ele>645.0</ele><time>2026-04-25T13:40:27.012Z</time></trkpt><trkpt lat="45.566872604756576" lon="11.082392925952314"><ele>644.0</ele><time>2026-04-25T13:40:28.012Z</time></trkpt><trkpt lat="45.56686396694292" lon="11.08253511404353"><ele>643.0</ele><time>2026-04-25T13:40:29.012Z</time></trkpt><trkpt lat="45.566839694506946" lon="11.082669092240511"><ele>642.0</ele><time>2026-04-25T13:40:30.012Z</time></trkpt><trkpt lat="45.56681674175796" lon="11.082801564847808"><ele>641.0</ele><time>2026-04-25T13:40:31.012Z</time></trkpt><trkpt lat="45.56677407129952" lon="11.082925893736805"><ele>640.1999999999999</ele><time>2026-04-25T13:40:32.012Z</time></trkpt><trkpt lat="45.56673130024785" lon="11.083040627175984"><ele>639.4</ele><time>2026-04-25T13:40:33.012Z</time></trkpt><trkpt lat="45.566690439312794" lon="11.083191083975796"><ele>638.6</ele><time>2026-04-25T13:40:34.012Z</time></trkpt><trkpt lat="45.5666721985554" lon="11.083344318718094"><ele>637.8</ele><time>2026-04-25T13:40:35.012Z</time></trkpt><trkpt lat="45.56666241268661" lon="11.083522246756065"><ele>637.0</ele><time>2026-04-25T13:40:36.012Z</time></trkpt><trkpt lat="45.5666432790807" lon="11.083677196461268"><ele>637.0</ele><time>2026-04-25T13:40:37.012Z</time></trkpt><trkpt lat="45.56664262403705" lon="11.083861624020555"><ele>637.0</ele><time>2026-04-25T13:40:38.012Z</time></trkpt><trkpt lat="45.5666361805021" lon="11.084056669395348"><ele>637.0</ele><time>2026-04-25T13:40:39.012Z</time></trkpt><trkpt lat="45.566635963584865" lon="11.084204650432978"><ele>637.0</ele><time>2026-04-25T13:40:40.012Z</time></trkpt><trkpt lat="45.566626471541774" lon="11.084322175456334"><ele>636.75</ele><time>2026-04-25T13:40:41.012Z</time></trkpt><trkpt lat="45.566645674984244" lon="11.084462733240555"><ele>636.5</ele><time>2026-04-25T13:40:42.012Z</time></trkpt><trkpt lat="45.56668511119566" lon="11.084611740547741"><ele>636.25</ele><time>2026-04-25T13:40:43.012Z</time></trkpt><trkpt lat="45.56673826368034" lon="11.084762817439085"><ele>636.0</ele><time>2026-04-25T13:40:44.012Z</time></trkpt><trkpt lat="45.56680767536487" lon="11.08493220070509"><ele>636.0</ele><time>2026-04-25T13:40:45.012Z</time></trkpt><trkpt lat="45.56686262067334" lon="11.085109552929127"><ele>636.0</ele><time>2026-04-25T13:40:46.012Z</time></trkpt><trkpt lat="45.566899056352526" lon="11.085232333205168"><ele>636.0</ele><time>2026-04-25T13:40:47.012Z</time></trkpt><trkpt lat="45.5669521157361" lon="11.085353484368715"><ele>636.0</ele><time>2026-04-25T13:40:48.012Z</time></trkpt><trkpt lat="45.567013000409" lon="11.085478316343183"><ele>636.0</ele><time>2026-04-25T13:40:49.012Z</time></trkpt><trkpt lat="45.56707722443639" lon="11.085583723052874"><ele>638.8</ele><time>2026-04-25T13:40:50.012Z</time></trkpt><trkpt lat="45.56715148858375" lon="11.085674342023461"><ele>641.6</ele><time>2026-04-25T13:40:51.012Z</time></trkpt><trkpt lat="45.56720471246181" lon="11.085754907330157"><ele>644.4</ele><time>2026-04-25T13:40:52.012Z</time></trkpt><trkpt lat="45.567241137009276" lon="11.085865995255231"><ele>647.2</ele><time>2026-04-25T13:40:53.012Z</time></trkpt><trkpt lat="45.56724871854977" lon="11.085990988183188"><ele>650.0</ele><time>2026-04-25T13:40:54.012Z</time></trkpt><trkpt lat="45.56724796811403" lon="11.086136660150562"><ele>650.0</ele><time>2026-04-25T13:40:55.012Z</time></trkpt><trkpt lat="45.56724244110439" lon="11.086261236327573"><ele>650.0</ele><time>2026-04-25T13:40:56.012Z</time></trkpt><trkpt lat="45.56719345835006" lon="11.086416311032506"><ele>650.0</ele><time>2026-04-25T13:40:58.012Z</time></trkpt><trkpt lat="45.56712145605262" lon="11.086460217411393"><ele>650.0</ele><time>2026-04-25T13:40:59.012Z</time></trkpt><trkpt lat="45.567030921682715" lon="11.086505920194"><ele>650.0</ele><time>2026-04-25T13:41:00.012Z</time></trkpt><trkpt lat="45.56695082497613" lon="11.086517378406805"><ele>647.8333333333333</ele><time>2026-04-25T13:41:01.012Z</time></trkpt><trkpt lat="45.56685929402825" lon="11.086537775207193"><ele>645.6666666666666</ele><time>2026-04-25T13:41:02.012Z</time></trkpt><trkpt lat="45.56678874317082" lon="11.08654347059283"><ele>643.5</ele><time>2026-04-25T13:41:03.012Z</time></trkpt><trkpt lat="45.56672531864407" lon="11.086574079161878"><ele>641.3333333333334</ele><time>2026-04-25T13:41:04.012Z</time></trkpt><trkpt lat="45.566657625183566" lon="11.08664746274359"><ele>639.1666666666667</ele><time>2026-04-25T13:41:05.012Z</time></trkpt><trkpt lat="45.566599645582556" lon="11.086738542445131"><ele>637.0</ele><time>2026-04-25T13:41:06.012Z</time></trkpt><trkpt lat="45.566535920084895" lon="11.086842786192234"><ele>637.0</ele><time>2026-04-25T13:41:07.012Z</time></trkpt><trkpt lat="45.56647743705611" lon="11.08692295186828"><ele>637.0</ele><time>2026-04-25T13:41:08.012Z</time></trkpt><trkpt lat="45.56643424263657" lon="11.08701998650065"><ele>637.0</ele><time>2026-04-25T13:41:09.012Z</time></trkpt><trkpt lat="45.566416752356936" lon="11.087164621628132"><ele>637.0</ele><time>2026-04-25T13:41:10.012Z</time></trkpt><trkpt lat="45.56641224218708" lon="11.087328499166219"><ele>637.0</ele><time>2026-04-25T13:41:11.012Z</time></trkpt><trkpt lat="45.56640570822817" lon="11.087515436664095"><ele>638.8</ele><time>2026-04-25T13:41:12.012Z</time></trkpt><trkpt lat="45.566414554422764" lon="11.087672854562898"><ele>640.6</ele><time>2026-04-25T13:41:13.012Z</time></trkpt><trkpt lat="45.5664431515467" lon="11.0878190032589"><ele>642.4</ele><time>2026-04-25T13:41:14.012Z</time></trkpt><trkpt lat="45.566486032966736" lon="11.087964043464856"><ele>644.1999999999999</ele><time>2026-04-25T13:41:15.012Z</time></trkpt><trkpt lat="45.566529045212" lon="11.088102813371753"><ele>646.0</ele><time>2026-04-25T13:41:16.012Z</time></trkpt><trkpt lat="45.56656919413762" lon="11.08823551690603"><ele>644.0</ele><time>2026-04-25T13:41:17.012Z</time></trkpt><trkpt lat="45.56664004242364" lon="11.088352777277395"><ele>642.0</ele><time>2026-04-25T13:41:18.012Z</time></trkpt><trkpt lat="45.566706888723516" lon="11.088462373664786"><ele>640.0</ele><time>2026-04-25T13:41:19.012Z</time></trkpt><trkpt lat="45.56678514559562" lon="11.08854977160889"><ele>638.0</ele><time>2026-04-25T13:41:20.012Z</time></trkpt><trkpt lat="45.56687840705036" lon="11.088631408206579"><ele>636.0</ele><time>2026-04-25T13:41:21.012Z</time></trkpt><trkpt lat="45.56697984964629" lon="11.088696412418589"><ele>639.4</ele><time>2026-04-25T13:41:22.012Z</time></trkpt><trkpt lat="45.5670837714633" lon="11.08874584994603"><ele>642.8</ele><time>2026-04-25T13:41:23.012Z</time></trkpt><trkpt lat="45.56718214275902" lon="11.08877595350192"><ele>646.1999999999999</ele><time>2026-04-25T13:41:24.012Z</time></trkpt><trkpt lat="45.56728009818868" lon="11.08882759758509"><ele>649.6</ele><time>2026-04-25T13:41:25.013Z</time></trkpt><trkpt lat="45.56740034862628" lon="11.088909882879069"><ele>653.0</ele><time>2026-04-25T13:41:26.013Z</time></trkpt><trkpt lat="45.567502683953045" lon="11.089000512676947"><ele>653.0</ele><time>2026-04-25T13:41:27.013Z</time></trkpt><trkpt lat="45.56759547277603" lon="11.089089374431078"><ele>653.0</ele><time>2026-04-25T13:41:28.012Z</time></trkpt><trkpt lat="45.567675949623954" lon="11.08917629885618"><ele>653.0</ele><time>2026-04-25T13:41:29.012Z</time></trkpt><trkpt lat="45.56772723005483" lon="11.089265081796686"><ele>653.0</ele><time>2026-04-25T13:41:30.012Z</time></trkpt><trkpt lat="45.56774091180681" lon="11.089369002078397"><ele>653.0</ele><time>2026-04-25T13:41:32.012Z</time></trkpt><trkpt lat="45.56766690435526" lon="11.089346892911912"><ele>653.0</ele><time>2026-04-25T13:41:34.013Z</time></trkpt><trkpt lat="45.56759723160362" lon="11.089316010432263"><ele>650.5999999999999</ele><time>2026-04-25T13:41:35.013Z</time></trkpt><trkpt lat="45.567504186530265" lon="11.089299771431014"><ele>648.1999999999999</ele><time>2026-04-25T13:41:36.013Z</time></trkpt><trkpt lat="45.56741310654761" lon="11.089339475372729"><ele>645.8</ele><time>2026-04-25T13:41:37.013Z</time></trkpt><trkpt lat="45.56728308404187" lon="11.089376270712823"><ele>643.4</ele><time>2026-04-25T13:41:38.013Z</time></trkpt><trkpt lat="45.56717111803038" lon="11.089384739488072"><ele>641.0</ele><time>2026-04-25T13:41:39.013Z</time></trkpt><trkpt lat="45.56704243466893" lon="11.0893986576583"><ele>639.25</ele><time>2026-04-25T13:41:40.013Z</time></trkpt><trkpt lat="45.56690414360365" lon="11.089406663330868"><ele>637.5</ele><time>2026-04-25T13:41:41.013Z</time></trkpt><trkpt lat="45.56680429039984" lon="11.08943635389957"><ele>635.75</ele><time>2026-04-25T13:41:42.013Z</time></trkpt><trkpt lat="45.566670987851424" lon="11.089470088461642"><ele>634.0</ele><time>2026-04-25T13:41:43.013Z</time></trkpt><trkpt lat="45.566562992402034" lon="11.08950346288111"><ele>634.0</ele><time>2026-04-25T13:41:44.013Z</time></trkpt><trkpt lat="45.56643798594041" lon="11.089551416113848"><ele>634.0</ele><time>2026-04-25T13:41:45.013Z</time></trkpt><trkpt lat="45.56633903265673" lon="11.089613633640512"><ele>634.0</ele><time>2026-04-25T13:41:46.013Z</time></trkpt><trkpt lat="45.56625867034096" lon="11.089686811442846"><ele>634.0</ele><time>2026-04-25T13:41:47.013Z</time></trkpt><trkpt lat="45.56619582184874" lon="11.089747927977516"><ele>634.0</ele><time>2026-04-25T13:41:48.013Z</time></trkpt><trkpt lat="45.5661411050578" lon="11.089818338617611"><ele>633.5</ele><time>2026-04-25T13:41:49.013Z</time></trkpt><trkpt lat="45.566073130644064" lon="11.089936399254048"><ele>633.0</ele><time>2026-04-25T13:41:51.013Z</time></trkpt><trkpt lat="45.566000723698224" lon="11.090009499916562"><ele>632.5</ele><time>2026-04-25T13:41:54.013Z</time></trkpt><trkpt lat="45.56593322298912" lon="11.090077202076582"><ele>632.0</ele><time>2026-04-25T13:42:03.013Z</time></trkpt><trkpt lat="45.56586226577684" lon="11.090102119817331"><ele>631.5</ele><time>2026-04-25T13:42:06.012Z</time></trkpt><trkpt lat="45.56580682559399" lon="11.090206906266424"><ele>631.0</ele><time>2026-04-25T13:42:08.012Z</time></trkpt><trkpt lat="45.56579121226262" lon="11.090381028234338"><ele>631.0</ele><time>2026-04-25T13:42:10.012Z</time></trkpt><trkpt lat="45.56578220425831" lon="11.090501439164843"><ele>631.0</ele><time>2026-04-25T13:42:11.012Z</time></trkpt><trkpt lat="45.5657597996921" lon="11.09060399419444"><ele>631.0</ele><time>2026-04-25T13:42:12.012Z</time></trkpt><trkpt lat="45.565741548352214" lon="11.090713906953267"><ele>631.0</ele><time>2026-04-25T13:42:13.012Z</time></trkpt><trkpt lat="45.56573246980231" lon="11.090818599160018"><ele>631.0</ele><time>2026-04-25T13:42:14.012Z</time></trkpt><trkpt lat="45.56572839948006" lon="11.090912240764338"><ele>631.0</ele><time>2026-04-25T13:42:15.012Z</time></trkpt><trkpt lat="45.56570205654683" lon="11.091091000999366"><ele>631.4</ele><time>2026-04-25T13:42:17.012Z</time></trkpt><trkpt lat="45.565693713756076" lon="11.091194775205533"><ele>631.8</ele><time>2026-04-25T13:42:18.012Z</time></trkpt><trkpt lat="45.565694724420744" lon="11.091297526029026"><ele>632.1999999999999</ele><time>2026-04-25T13:42:19.012Z</time></trkpt><trkpt lat="45.56566416745572" lon="11.091461216611469"><ele>632.6</ele><time>2026-04-25T13:42:21.012Z</time></trkpt><trkpt lat="45.565670573403956" lon="11.091628209795717"><ele>633.0</ele><time>2026-04-25T13:42:23.012Z</time></trkpt><trkpt lat="45.565656645912554" lon="11.091746134790748"><ele>633.0</ele><time>2026-04-25T13:42:25.012Z</time></trkpt><trkpt lat="45.565610840092454" lon="11.091878530240695"><ele>633.0</ele><time>2026-04-25T13:42:27.012Z</time></trkpt><trkpt lat="45.565561128215876" lon="11.092033327127536"><ele>633.0</ele><time>2026-04-25T13:42:29.012Z</time></trkpt><trkpt lat="45.56553689959566" lon="11.092220237017598"><ele>633.0</ele><time>2026-04-25T13:42:31.012Z</time></trkpt><trkpt lat="45.56554425687916" lon="11.092320075661537"><ele>633.0</ele><time>2026-04-25T13:42:32.011Z</time></trkpt><trkpt lat="45.565560850067314" lon="11.092499532019811"><ele>632.25</ele><time>2026-04-25T13:42:34.01Z</time></trkpt><trkpt lat="45.56561804829501" lon="11.09264684218582"><ele>631.5</ele><time>2026-04-25T13:42:36.009Z</time></trkpt><trkpt lat="45.56566308028419" lon="11.092799376608248"><ele>630.75</ele><time>2026-04-25T13:42:38.008Z</time></trkpt><trkpt lat="45.565710711749695" lon="11.092943033172563"><ele>630.0</ele><time>2026-04-25T13:42:40.007Z</time></trkpt><trkpt lat="45.56576313919234" lon="11.093086094151186"><ele>630.0</ele><time>2026-04-25T13:42:42.007Z</time></trkpt><trkpt lat="45.565807499543645" lon="11.093168943377533"><ele>630.0</ele><time>2026-04-25T13:42:43.006Z</time></trkpt><trkpt lat="45.56584034543998" lon="11.093260085127877"><ele>630.0</ele><time>2026-04-25T13:42:44.006Z</time></trkpt><trkpt lat="45.565891926141624" lon="11.093394233177301"><ele>630.0</ele><time>2026-04-25T13:42:46.006Z</time></trkpt><trkpt lat="45.56594789874884" lon="11.093563539461506"><ele>630.0</ele><time>2026-04-25T13:42:48.005Z</time></trkpt><trkpt lat="45.5660325733867" lon="11.093662198306644"><ele>629.2</ele><time>2026-04-25T13:42:49.005Z</time></trkpt><trkpt lat="45.56612799832669" lon="11.09376905684035"><ele>628.4</ele><time>2026-04-25T13:42:50.005Z</time></trkpt><trkpt lat="45.56620850910664" lon="11.093872714063203"><ele>627.6</ele><time>2026-04-25T13:42:51.005Z</time></trkpt><trkpt lat="45.56625495531178" lon="11.093948762953083"><ele>626.8</ele><time>2026-04-25T13:42:52.004Z</time></trkpt><trkpt lat="45.5663209676828" lon="11.094094453559684"><ele>626.0</ele><time>2026-04-25T13:42:54.004Z</time></trkpt><trkpt lat="45.566388269233286" lon="11.09421915090008"><ele>626.0</ele><time>2026-04-25T13:42:56.004Z</time></trkpt><trkpt lat="45.56641720137022" lon="11.094324336275296"><ele>626.0</ele><time>2026-04-25T13:42:58.004Z</time></trkpt><trkpt lat="45.566482286859966" lon="11.094432334182889"><ele>626.0</ele><time>2026-04-25T13:43:00.003Z</time></trkpt><trkpt lat="45.56653327464402" lon="11.094500440321825"><ele>626.0</ele><time>2026-04-25T13:43:01.003Z</time></trkpt><trkpt lat="45.566590546498624" lon="11.094569992763091"><ele>626.0</ele><time>2026-04-25T13:43:02.003Z</time></trkpt><trkpt lat="45.566654563361084" lon="11.094614179088072"><ele>626.0</ele><time>2026-04-25T13:43:03.003Z</time></trkpt><trkpt lat="45.56671508034853" lon="11.094650605175957"><ele>626.0</ele><time>2026-04-25T13:43:04.003Z</time></trkpt><trkpt lat="45.56676410829783" lon="11.09471319403429"><ele>626.0</ele><time>2026-04-25T13:43:05.003Z</time></trkpt><trkpt lat="45.566885393130676" lon="11.094823630990602"><ele>626.0</ele><time>2026-04-25T13:43:07.003Z</time></trkpt><trkpt lat="45.566947224719094" lon="11.094891528114452"><ele>626.0</ele><time>2026-04-25T13:43:08.003Z</time></trkpt><trkpt lat="45.56700092169749" lon="11.094963409108965"><ele>626.0</ele><time>2026-04-25T13:43:09.003Z</time></trkpt><trkpt lat="45.56705335428351" lon="11.095051046152797"><ele>626.0</ele><time>2026-04-25T13:43:10.003Z</time></trkpt><trkpt lat="45.56709651089417" lon="11.095154066477216"><ele>628.3333333333333</ele><time>2026-04-25T13:43:11.003Z</time></trkpt><trkpt lat="45.56715505395505" lon="11.095237264633761"><ele>630.6666666666666</ele><time>2026-04-25T13:43:12.002Z</time></trkpt><trkpt lat="45.56722550687833" lon="11.095301568146207"><ele>633.0</ele><time>2026-04-25T13:43:13.002Z</time></trkpt><trkpt lat="45.56729860564667" lon="11.095354422356648"><ele>635.3333333333334</ele><time>2026-04-25T13:43:14.002Z</time></trkpt><trkpt lat="45.56735401038407" lon="11.09545615809889"><ele>637.6666666666667</ele><time>2026-04-25T13:43:16.002Z</time></trkpt><trkpt lat="45.5673840787651" lon="11.095592730023087"><ele>640.0</ele><time>2026-04-25T13:43:18.002Z</time></trkpt><trkpt lat="45.56744556236688" lon="11.09569990468506"><ele>637.1666666666667</ele><time>2026-04-25T13:43:20.002Z</time></trkpt><trkpt lat="45.56751899093991" lon="11.095771037437858"><ele>634.3333333333334</ele><time>2026-04-25T13:43:22.002Z</time></trkpt><trkpt lat="45.56758694286104" lon="11.095861074941004"><ele>631.5</ele><time>2026-04-25T13:43:24.002Z</time></trkpt><trkpt lat="45.56765943750864" lon="11.095947422859421"><ele>628.6666666666666</ele><time>2026-04-25T13:43:26.002Z</time></trkpt><trkpt lat="45.567729122646696" lon="11.095996112377748"><ele>625.8333333333333</ele><time>2026-04-25T13:43:28.002Z</time></trkpt><trkpt lat="45.567751138799565" lon="11.09609342289476"><ele>623.0</ele><time>2026-04-25T13:43:30.002Z</time></trkpt><trkpt lat="45.56780714404055" lon="11.096159116804044"><ele>623.0</ele><time>2026-04-25T13:43:33.003Z</time></trkpt><trkpt lat="45.567825688976164" lon="11.096256356613289"><ele>623.0</ele><time>2026-04-25T13:43:39.002Z</time></trkpt><trkpt lat="45.56778040235651" lon="11.096175756501902"><ele>623.0</ele><time>2026-04-25T13:43:45.002Z</time></trkpt><trkpt lat="45.56771541902325" lon="11.09609693168038"><ele>623.0</ele><time>2026-04-25T13:43:48.002Z</time></trkpt><trkpt lat="45.56763124081609" lon="11.096060046195852"><ele>623.0</ele><time>2026-04-25T13:43:50.002Z</time></trkpt><trkpt lat="45.56755775149382" lon="11.096051937504908"><ele>623.0</ele><time>2026-04-25T13:43:51.002Z</time></trkpt><trkpt lat="45.567466439704205" lon="11.096117917401042"><ele>623.0</ele><time>2026-04-25T13:43:52.002Z</time></trkpt><trkpt lat="45.56740253724172" lon="11.096130484370768"><ele>623.0</ele><time>2026-04-25T13:43:53.002Z</time></trkpt><trkpt lat="45.56733726084148" lon="11.09615021893985"><ele>623.0</ele><time>2026-04-25T13:43:54.002Z</time></trkpt><trkpt lat="45.56727623433291" lon="11.096113058007404"><ele>623.0</ele><time>2026-04-25T13:43:55.002Z</time></trkpt><trkpt lat="45.56718362886352" lon="11.096064574931313"><ele>623.0</ele><time>2026-04-25T13:43:57.002Z</time></trkpt><trkpt lat="45.56709614733279" lon="11.09603193568616"><ele>623.0</ele><time>2026-04-25T13:43:59.002Z</time></trkpt><trkpt lat="45.56703271627922" lon="11.095997077259028"><ele>622.6666666666666</ele><time>2026-04-25T13:44:00.002Z</time></trkpt><trkpt lat="45.56692518988035" lon="11.095942437050093"><ele>622.3333333333333</ele><time>2026-04-25T13:44:02.002Z</time></trkpt><trkpt lat="45.56686286357325" lon="11.095912087936894"><ele>622.0</ele><time>2026-04-25T13:44:03.002Z</time></trkpt><trkpt lat="45.566780557004364" lon="11.09589042450795"><ele>621.6666666666666</ele><time>2026-04-25T13:44:04.002Z</time></trkpt><trkpt lat="45.56671961888603" lon="11.095858173282469"><ele>621.3333333333334</ele><time>2026-04-25T13:44:05.002Z</time></trkpt><trkpt lat="45.56662798249418" lon="11.095770072875291"><ele>621.0</ele><time>2026-04-25T13:44:07.002Z</time></trkpt><trkpt lat="45.56657382354895" lon="11.095716768348078"><ele>619.4</ele><time>2026-04-25T13:44:08.002Z</time></trkpt><trkpt lat="45.56648579226029" lon="11.095654628120641"><ele>617.8</ele><time>2026-04-25T13:44:09.002Z</time></trkpt><trkpt lat="45.56639590733003" lon="11.095599995911103"><ele>616.1999999999999</ele><time>2026-04-25T13:44:10.002Z</time></trkpt><trkpt lat="45.56631724175985" lon="11.095526653914199"><ele>614.6</ele><time>2026-04-25T13:44:11.002Z</time></trkpt><trkpt lat="45.56623586194266" lon="11.09547711682781"><ele>613.0</ele><time>2026-04-25T13:44:12.002Z</time></trkpt><trkpt lat="45.56616318464445" lon="11.09542545858017"><ele>613.0</ele><time>2026-04-25T13:44:14.002Z</time></trkpt><trkpt lat="45.5660947120864" lon="11.095346374936675"><ele>613.0</ele><time>2026-04-25T13:44:16.002Z</time></trkpt><trkpt lat="45.565981963913146" lon="11.095258039039065"><ele>613.0</ele><time>2026-04-25T13:44:18.002Z</time></trkpt><trkpt lat="45.56592533593442" lon="11.095210447495784"><ele>613.0</ele><time>2026-04-25T13:44:19.001Z</time></trkpt><trkpt lat="45.5658352102795" lon="11.095136111466493"><ele>613.0</ele><time>2026-04-25T13:44:21.001Z</time></trkpt><trkpt lat="45.56578064838776" lon="11.095062888726542"><ele>613.0</ele><time>2026-04-25T13:44:22.001Z</time></trkpt><trkpt lat="45.56571455044153" lon="11.09493972574974"><ele>613.0</ele><time>2026-04-25T13:44:23.001Z</time></trkpt><trkpt lat="45.565631896794336" lon="11.094854603105102"><ele>613.0</ele><time>2026-04-25T13:44:24.001Z</time></trkpt><trkpt lat="45.56553239248131" lon="11.09480217996296"><ele>613.0</ele><time>2026-04-25T13:44:25.001Z</time></trkpt><trkpt lat="45.565414320239775" lon="11.094775123281737"><ele>613.0</ele><time>2026-04-25T13:44:26.001Z</time></trkpt><trkpt lat="45.565285760421276" lon="11.094763899409198"><ele>610.0</ele><time>2026-04-25T13:44:27.001Z</time></trkpt><trkpt lat="45.56516962337849" lon="11.094728026997975"><ele>607.0</ele><time>2026-04-25T13:44:28.001Z</time></trkpt><trkpt lat="45.5650607055947" lon="11.094692390192176"><ele>604.0</ele><time>2026-04-25T13:44:29.001Z</time></trkpt><trkpt lat="45.56494758937618" lon="11.094629148077754"><ele>601.0</ele><time>2026-04-25T13:44:30.001Z</time></trkpt><trkpt lat="45.56482849234996" lon="11.094567638285454"><ele>601.0</ele><time>2026-04-25T13:44:31.001Z</time></trkpt><trkpt lat="45.56471927460033" lon="11.094486477126516"><ele>601.0</ele><time>2026-04-25T13:44:32.001Z</time></trkpt><trkpt lat="45.564613476679895" lon="11.094399733636678"><ele>601.0</ele><time>2026-04-25T13:44:33.001Z</time></trkpt><trkpt lat="45.564518819375024" lon="11.094296712198917"><ele>601.0</ele><time>2026-04-25T13:44:34.001Z</time></trkpt><trkpt lat="45.56444647256922" lon="11.094201874355852"><ele>599.6</ele><time>2026-04-25T13:44:35.001Z</time></trkpt><trkpt lat="45.564351557372476" lon="11.09414444658101"><ele>598.2</ele><time>2026-04-25T13:44:36.001Z</time></trkpt><trkpt lat="45.564253117619096" lon="11.094129057619647"><ele>596.8</ele><time>2026-04-25T13:44:37.001Z</time></trkpt><trkpt lat="45.56414378829096" lon="11.094173203781978"><ele>595.4</ele><time>2026-04-25T13:44:38.001Z</time></trkpt><trkpt lat="45.564028899823725" lon="11.094256960201665"><ele>594.0</ele><time>2026-04-25T13:44:39.001Z</time></trkpt><trkpt lat="45.56390694811987" lon="11.094375259959945"><ele>594.0</ele><time>2026-04-25T13:44:40.001Z</time></trkpt><trkpt lat="45.563778190098645" lon="11.094426329090387"><ele>594.0</ele><time>2026-04-25T13:44:41.001Z</time></trkpt><trkpt lat="45.56365515449934" lon="11.094469520659118"><ele>594.0</ele><time>2026-04-25T13:44:42.001Z</time></trkpt><trkpt lat="45.563530063791866" lon="11.094524685739252"><ele>594.0</ele><time>2026-04-25T13:44:43.001Z</time></trkpt><trkpt lat="45.563442777660214" lon="11.09461208344077"><ele>592.4</ele><time>2026-04-25T13:44:44.001Z</time></trkpt><trkpt lat="45.56338582327802" lon="11.09471187167597"><ele>590.8</ele><time>2026-04-25T13:44:45.001Z</time></trkpt><trkpt lat="45.56335636217789" lon="11.094828151235097"><ele>589.2</ele><time>2026-04-25T13:44:46.001Z</time></trkpt><trkpt lat="45.563364301750404" lon="11.094988122009472"><ele>587.6</ele><time>2026-04-25T13:44:47.001Z</time></trkpt><trkpt lat="45.56337152144225" lon="11.095141699977132"><ele>586.0</ele><time>2026-04-25T13:44:48.001Z</time></trkpt><trkpt lat="45.56337940933301" lon="11.095290799071357"><ele>586.0</ele><time>2026-04-25T13:44:49.001Z</time></trkpt><trkpt lat="45.563352951379414" lon="11.095429086168304"><ele>586.0</ele><time>2026-04-25T13:44:50.001Z</time></trkpt><trkpt lat="45.56330885789554" lon="11.095568988373927"><ele>586.0</ele><time>2026-04-25T13:44:51.001Z</time></trkpt><trkpt lat="45.56325846803983" lon="11.095688942685847"><ele>586.0</ele><time>2026-04-25T13:44:52.001Z</time></trkpt><trkpt lat="45.56321783203938" lon="11.095758991240707"><ele>586.0</ele><time>2026-04-25T13:44:53.001Z</time></trkpt><trkpt lat="45.5631351049787" lon="11.095806473387611"><ele>586.0</ele><time>2026-04-25T13:44:55.001Z</time></trkpt><trkpt lat="45.563086992448795" lon="11.095637019891882"><ele>586.0</ele><time>2026-04-25T13:44:57.001Z</time></trkpt><trkpt lat="45.56310261924476" lon="11.095505720560675"><ele>586.0</ele><time>2026-04-25T13:44:58.001Z</time></trkpt><trkpt lat="45.56309311727744" lon="11.095367604921215"><ele>586.0</ele><time>2026-04-25T13:44:59.001Z</time></trkpt><trkpt lat="45.56306131768974" lon="11.09522168210945"><ele>586.0</ele><time>2026-04-25T13:45:00.001Z</time></trkpt><trkpt lat="45.563006555879454" lon="11.095104523410564"><ele>586.0</ele><time>2026-04-25T13:45:01.001Z</time></trkpt><trkpt lat="45.56295150357634" lon="11.095027836881071"><ele>586.0</ele><time>2026-04-25T13:45:02.001Z</time></trkpt><trkpt lat="45.56290575957218" lon="11.094912942947436"><ele>586.0</ele><time>2026-04-25T13:45:04.001Z</time></trkpt><trkpt lat="45.56290962733867" lon="11.094809746385248"><ele>586.0</ele><time>2026-04-25T13:45:07.001Z</time></trkpt><trkpt lat="45.56286436488449" lon="11.094718240055663"><ele>586.0</ele><time>2026-04-25T13:45:12.001Z</time></trkpt><trkpt lat="45.562778115240114" lon="11.094623084980961"><ele>586.0</ele><time>2026-04-25T13:45:14.001Z</time></trkpt><trkpt lat="45.562676307415956" lon="11.094559890490604"><ele>579.75</ele><time>2026-04-25T13:45:16.001Z</time></trkpt><trkpt lat="45.56254540004379" lon="11.094518301556338"><ele>573.5</ele><time>2026-04-25T13:45:18.001Z</time></trkpt><trkpt lat="45.562472239943204" lon="11.094506009120188"><ele>567.25</ele><time>2026-04-25T13:45:19.001Z</time></trkpt><trkpt lat="45.5623048298397" lon="11.094519151017094"><ele>561.0</ele><time>2026-04-25T13:45:21.001Z</time></trkpt><trkpt lat="45.562197705083065" lon="11.094546326355934"><ele>561.0</ele><time>2026-04-25T13:45:22.001Z</time></trkpt><trkpt lat="45.56209237761312" lon="11.094570962530046"><ele>561.0</ele><time>2026-04-25T13:45:23.001Z</time></trkpt><trkpt lat="45.561988356373725" lon="11.094587662195021"><ele>561.0</ele><time>2026-04-25T13:45:24.001Z</time></trkpt><trkpt lat="45.56191323138383" lon="11.094608476052658"><ele>561.0</ele><time>2026-04-25T13:45:25.001Z</time></trkpt><trkpt lat="45.561848523470644" lon="11.09462686395933"><ele>561.0</ele><time>2026-04-25T13:45:26.001Z</time></trkpt><trkpt lat="45.56159474190852" lon="11.094731567847834"><ele>560.8333333333334</ele><time>2026-04-25T13:45:39.003Z</time></trkpt><trkpt lat="45.561532623065936" lon="11.094771804814268"><ele>560.6666666666666</ele><time>2026-04-25T13:45:40.003Z</time></trkpt><trkpt lat="45.561479015698325" lon="11.094824310007755"><ele>560.5</ele><time>2026-04-25T13:45:41.002Z</time></trkpt><trkpt lat="45.561415736780376" lon="11.09488424721169"><ele>560.3333333333333</ele><time>2026-04-25T13:45:42.002Z</time></trkpt><trkpt lat="45.56135301680789" lon="11.09497830430934"><ele>560.1666666666666</ele><time>2026-04-25T13:45:43.002Z</time></trkpt><trkpt lat="45.561296694183625" lon="11.095039484470451"><ele>560.0</ele><time>2026-04-25T13:45:44.002Z</time></trkpt><trkpt lat="45.561242592540864" lon="11.095134012412744"><ele>563.0</ele><time>2026-04-25T13:45:45.003Z</time></trkpt><trkpt lat="45.56119780391573" lon="11.095212517994641"><ele>566.0</ele><time>2026-04-25T13:45:46.003Z</time></trkpt><trkpt lat="45.561118060275774" lon="11.095304466360128"><ele>569.0</ele><time>2026-04-25T13:45:48.003Z</time></trkpt><trkpt lat="45.56102485280982" lon="11.095317373728063"><ele>572.0</ele><time>2026-04-25T13:45:50.003Z</time></trkpt><trkpt lat="45.560907870113354" lon="11.095347232000446"><ele>575.0</ele><time>2026-04-25T13:45:52.003Z</time></trkpt><trkpt lat="45.56084739795915" lon="11.095376523964278"><ele>575.0</ele><time>2026-04-25T13:45:53.003Z</time></trkpt><trkpt lat="45.56073652952898" lon="11.09542341778131"><ele>575.0</ele><time>2026-04-25T13:45:55.003Z</time></trkpt><trkpt lat="45.56066881864321" lon="11.095425200169004"><ele>575.0</ele><time>2026-04-25T13:45:56.003Z</time></trkpt><trkpt lat="45.56058090478501" lon="11.095403224110056"><ele>575.0</ele><time>2026-04-25T13:45:58.003Z</time></trkpt><trkpt lat="45.560516336573826" lon="11.095401299200322"><ele>575.0</ele><time>2026-04-25T13:45:59.002Z</time></trkpt><trkpt lat="45.56039948464151" lon="11.095352610533105"><ele>572.0</ele><time>2026-04-25T13:46:01.002Z</time></trkpt><trkpt lat="45.56027085238062" lon="11.0953147206757"><ele>569.0</ele><time>2026-04-25T13:46:03.002Z</time></trkpt><trkpt lat="45.56018804888555" lon="11.095305421583479"><ele>566.0</ele><time>2026-04-25T13:46:04.002Z</time></trkpt><trkpt lat="45.560082758560675" lon="11.095308757160973"><ele>563.0</ele><time>2026-04-25T13:46:06.002Z</time></trkpt><trkpt lat="45.559977207463284" lon="11.095302299624278"><ele>560.0</ele><time>2026-04-25T13:46:08.002Z</time></trkpt><trkpt lat="45.55985816843196" lon="11.095252004167603"><ele>560.0</ele><time>2026-04-25T13:46:10.002Z</time></trkpt><trkpt lat="45.55975930245532" lon="11.095186571062504"><ele>560.0</ele><time>2026-04-25T13:46:12.002Z</time></trkpt><trkpt lat="45.55968108584467" lon="11.095163772444822"><ele>560.0</ele><time>2026-04-25T13:46:13.002Z</time></trkpt><trkpt lat="45.559564984908164" lon="11.09510935052661"><ele>560.0</ele><time>2026-04-25T13:46:15.002Z</time></trkpt><trkpt lat="45.559504903171984" lon="11.095076889937626"><ele>560.0</ele><time>2026-04-25T13:46:16.002Z</time></trkpt><trkpt lat="45.559388016131855" lon="11.09504676733436"><ele>560.3333333333333</ele><time>2026-04-25T13:46:18.002Z</time></trkpt><trkpt lat="45.55930721199423" lon="11.095012722177092"><ele>560.6666666666666</ele><time>2026-04-25T13:46:20.002Z</time></trkpt><trkpt lat="45.55919691071803" lon="11.094972539360354"><ele>561.0</ele><time>2026-04-25T13:46:22.002Z</time></trkpt><trkpt lat="45.55913569154905" lon="11.094936936011232"><ele>561.3333333333334</ele><time>2026-04-25T13:46:23.002Z</time></trkpt><trkpt lat="45.55906199308273" lon="11.094890574418669"><ele>561.6666666666667</ele><time>2026-04-25T13:46:24.002Z</time></trkpt><trkpt lat="45.55899885642683" lon="11.094868542761809"><ele>562.0</ele><time>2026-04-25T13:46:25.002Z</time></trkpt><trkpt lat="45.55888875067386" lon="11.094810456764478"><ele>557.8333333333334</ele><time>2026-04-25T13:46:27.002Z</time></trkpt><trkpt lat="45.558819538644364" lon="11.094778650604523"><ele>553.6666666666667</ele><time>2026-04-25T13:46:28.002Z</time></trkpt><trkpt lat="45.55874761275898" lon="11.094739967455508"><ele>549.5</ele><time>2026-04-25T13:46:29.002Z</time></trkpt><trkpt lat="45.55867030389648" lon="11.094712333353804"><ele>545.3333333333334</ele><time>2026-04-25T13:46:30.002Z</time></trkpt><trkpt lat="45.558588116736736" lon="11.094689319584878"><ele>541.1666666666666</ele><time>2026-04-25T13:46:31.002Z</time></trkpt><trkpt lat="45.55852000344038" lon="11.094666343767294"><ele>537.0</ele><time>2026-04-25T13:46:32.002Z</time></trkpt><trkpt lat="45.55844832428997" lon="11.094634933282137"><ele>537.0</ele><time>2026-04-25T13:46:34.002Z</time></trkpt><trkpt lat="45.558338497132844" lon="11.09453131070194"><ele>537.0</ele><time>2026-04-25T13:46:36.002Z</time></trkpt><trkpt lat="45.55828174135006" lon="11.094467214866162"><ele>537.0</ele><time>2026-04-25T13:46:38.002Z</time></trkpt><trkpt lat="45.55833841294022" lon="11.094412132402613"><ele>537.0</ele><time>2026-04-25T13:47:08.002Z</time></trkpt><trkpt lat="45.5584183436767" lon="11.094396473064112"><ele>537.0</ele><time>2026-04-25T13:47:11.002Z</time></trkpt><trkpt lat="45.558525007032486" lon="11.094388026085861"><ele>537.0</ele><time>2026-04-25T13:47:14.002Z</time></trkpt><trkpt lat="45.55861866203326" lon="11.09438265379145"><ele>537.0</ele><time>2026-04-25T13:47:17.002Z</time></trkpt><trkpt lat="45.55870719442992" lon="11.094390177288842"><ele>537.0</ele><time>2026-04-25T13:47:19.002Z</time></trkpt><trkpt lat="45.55879921237946" lon="11.094403863136808"><ele>537.0</ele><time>2026-04-25T13:47:21.002Z</time></trkpt><trkpt lat="45.55886369030026" lon="11.094414926672183"><ele>537.0</ele><time>2026-04-25T13:47:23.002Z</time></trkpt><trkpt lat="45.559033692995385" lon="11.094419156543939"><ele>536.6666666666666</ele><time>2026-04-25T13:47:31.002Z</time></trkpt><trkpt lat="45.559118559108875" lon="11.094421833632929"><ele>536.3333333333334</ele><time>2026-04-25T13:47:33.002Z</time></trkpt><trkpt lat="45.55920287607157" lon="11.094366994760751"><ele>536.0</ele><time>2026-04-25T13:47:36.002Z</time></trkpt><trkpt lat="45.55926660579943" lon="11.094290871002732"><ele>535.6666666666667</ele><time>2026-04-25T13:47:38.003Z</time></trkpt><trkpt lat="45.55931182790922" lon="11.094212458544797"><ele>535.3333333333334</ele><time>2026-04-25T13:47:41.002Z</time></trkpt><trkpt lat="45.559297882338306" lon="11.094097111383757"><ele>535.0</ele><time>2026-04-25T13:47:43.003Z</time></trkpt><trkpt lat="45.559231509224894" lon="11.09400549365584"><ele>535.8333333333334</ele><time>2026-04-25T13:47:46.002Z</time></trkpt><trkpt lat="45.55918557348871" lon="11.093917960949407"><ele>536.6666666666667</ele><time>2026-04-25T13:47:49.002Z</time></trkpt><trkpt lat="45.55912958793298" lon="11.093849045029048"><ele>537.5</ele><time>2026-04-25T13:47:53.003Z</time></trkpt><trkpt lat="45.55909267943217" lon="11.093764125606608"><ele>538.3333333333334</ele><time>2026-04-25T13:47:55.003Z</time></trkpt><trkpt lat="45.55902531952392" lon="11.093662224698917"><ele>539.1666666666666</ele><time>2026-04-25T13:47:58.003Z</time></trkpt><trkpt lat="45.558945414976506" lon="11.093665857200065"><ele>540.0</ele><time>2026-04-25T13:48:02.003Z</time></trkpt><trkpt lat="45.55887249384542" lon="11.093640357981238"><ele>540.0</ele><time>2026-04-25T13:48:05.003Z</time></trkpt><trkpt lat="45.55878867032025" lon="11.09359997220553"><ele>540.0</ele><time>2026-04-25T13:48:08.003Z</time></trkpt><trkpt lat="45.558693816559796" lon="11.093584212829615"><ele>540.0</ele><time>2026-04-25T13:48:12.002Z</time></trkpt><trkpt lat="45.55861147519135" lon="11.093560081093015"><ele>540.0</ele><time>2026-04-25T13:48:14.002Z</time></trkpt><trkpt lat="45.55853806554727" lon="11.093503248758184"><ele>540.0</ele><time>2026-04-25T13:48:17.002Z</time></trkpt><trkpt lat="45.558459689783255" lon="11.093432783813908"><ele>540.0</ele><time>2026-04-25T13:48:19.002Z</time></trkpt><trkpt lat="45.558389077482445" lon="11.09343402294844"><ele>540.0</ele><time>2026-04-25T13:48:21.002Z</time></trkpt><trkpt lat="45.55830769136229" lon="11.09339036527682"><ele>540.0</ele><time>2026-04-25T13:48:23.002Z</time></trkpt><trkpt lat="45.55821991028506" lon="11.093353068112343"><ele>540.0</ele><time>2026-04-25T13:48:25.002Z</time></trkpt><trkpt lat="45.55813830887437" lon="11.093320314926485"><ele>540.0</ele><time>2026-04-25T13:48:27.002Z</time></trkpt><trkpt lat="45.55803669814212" lon="11.093245238036328"><ele>540.0</ele><time>2026-04-25T13:48:29.002Z</time></trkpt><trkpt lat="45.55797068217323" lon="11.093186823651788"><ele>543.5</ele><time>2026-04-25T13:48:31.002Z</time></trkpt><trkpt lat="45.55788369166169" lon="11.093154120578827"><ele>547.0</ele><time>2026-04-25T13:48:33.002Z</time></trkpt><trkpt lat="45.557800234879984" lon="11.0931226324677"><ele>550.5</ele><time>2026-04-25T13:48:35.002Z</time></trkpt><trkpt lat="45.55772129385443" lon="11.09310587202932"><ele>554.0</ele><time>2026-04-25T13:48:37.002Z</time></trkpt><trkpt lat="45.557609015880715" lon="11.09307375928183"><ele>557.5</ele><time>2026-04-25T13:48:39.002Z</time></trkpt><trkpt lat="45.55753313189565" lon="11.093043351786728"><ele>561.0</ele><time>2026-04-25T13:48:41.002Z</time></trkpt><trkpt lat="45.557472340251636" lon="11.093001274861832"><ele>562.1666666666666</ele><time>2026-04-25T13:48:42.002Z</time></trkpt><trkpt lat="45.55740878527583" lon="11.092983768767304"><ele>563.3333333333334</ele><time>2026-04-25T13:48:44.002Z</time></trkpt><trkpt lat="45.557336902466666" lon="11.092914691795638"><ele>564.5</ele><time>2026-04-25T13:48:46.002Z</time></trkpt><trkpt lat="45.55722725338426" lon="11.092815216503611"><ele>565.6666666666667</ele><time>2026-04-25T13:48:48.002Z</time></trkpt><trkpt lat="45.55716007113379" lon="11.092783456611043"><ele>566.8333333333334</ele><time>2026-04-25T13:48:50.002Z</time></trkpt><trkpt lat="45.55709908454445" lon="11.092748159367135"><ele>568.0</ele><time>2026-04-25T13:48:52.002Z</time></trkpt><trkpt lat="45.55700062647872" lon="11.092643452543822"><ele>568.6</ele><time>2026-04-25T13:48:54.002Z</time></trkpt><trkpt lat="45.55689791816853" lon="11.09260588728335"><ele>569.1999999999999</ele><time>2026-04-25T13:48:56.002Z</time></trkpt><trkpt lat="45.55681789452412" lon="11.09257705288038"><ele>569.8</ele><time>2026-04-25T13:48:58.002Z</time></trkpt><trkpt lat="45.5567483581601" lon="11.092504106469063"><ele>570.4</ele><time>2026-04-25T13:49:00.002Z</time></trkpt><trkpt lat="45.55667432963421" lon="11.09244373902852"><ele>571.0</ele><time>2026-04-25T13:49:02.002Z</time></trkpt><trkpt lat="45.556582214172266" lon="11.092369956599587"><ele>576.1666666666667</ele><time>2026-04-25T13:49:04.002Z</time></trkpt><trkpt lat="45.55653265803343" lon="11.092309343636881"><ele>581.3333333333334</ele><time>2026-04-25T13:49:06.002Z</time></trkpt><trkpt lat="45.55647418377222" lon="11.092212372008042"><ele>586.5</ele><time>2026-04-25T13:49:08.002Z</time></trkpt><trkpt lat="45.556401725869804" lon="11.092160604415412"><ele>591.6666666666666</ele><time>2026-04-25T13:49:10.002Z</time></trkpt><trkpt lat="45.55637389793614" lon="11.09197833984352"><ele>596.8333333333333</ele><time>2026-04-25T13:49:12.002Z</time></trkpt><trkpt lat="45.55632796446977" lon="11.091916037992883"><ele>602.0</ele><time>2026-04-25T13:49:14.002Z</time></trkpt><trkpt lat="45.55627338413796" lon="11.09183176737843"><ele>602.0</ele><time>2026-04-25T13:49:16.002Z</time></trkpt><trkpt lat="45.55623345280323" lon="11.091682230986303"><ele>602.0</ele><time>2026-04-25T13:49:18.002Z</time></trkpt><trkpt lat="45.55619251466383" lon="11.091603195139642"><ele>602.0</ele><time>2026-04-25T13:49:19.002Z</time></trkpt><trkpt lat="45.556128682079674" lon="11.09149808727246"><ele>602.0</ele><time>2026-04-25T13:49:20.002Z</time></trkpt><trkpt lat="45.55607458992605" lon="11.091376651315432"><ele>602.0</ele><time>2026-04-25T13:49:21.002Z</time></trkpt><trkpt lat="45.55603312692314" lon="11.091237337222982"><ele>601.6666666666666</ele><time>2026-04-25T13:49:22.002Z</time></trkpt><trkpt lat="45.55599773064511" lon="11.091144646041451"><ele>601.3333333333333</ele><time>2026-04-25T13:49:23.002Z</time></trkpt><trkpt lat="45.55592793667434" lon="11.091081602133888"><ele>601.0</ele><time>2026-04-25T13:49:24.002Z</time></trkpt><trkpt lat="45.55582015469012" lon="11.090984828517602"><ele>600.6666666666666</ele><time>2026-04-25T13:49:26.002Z</time></trkpt><trkpt lat="45.55575739342103" lon="11.09092400524328"><ele>600.3333333333334</ele><time>2026-04-25T13:49:27.002Z</time></trkpt><trkpt lat="45.55568650994143" lon="11.090914592306902"><ele>600.0</ele><time>2026-04-25T13:49:28.002Z</time></trkpt><trkpt lat="45.5556108925966" lon="11.090914601302318"><ele>600.0</ele><time>2026-04-25T13:49:30.002Z</time></trkpt><trkpt lat="45.55545044448506" lon="11.090909929119093"><ele>600.0</ele><time>2026-04-25T13:49:32.002Z</time></trkpt><trkpt lat="45.55539863504813" lon="11.090839217800223"><ele>600.0</ele><time>2026-04-25T13:49:34.002Z</time></trkpt><trkpt lat="45.55534690290228" lon="11.090739313308589"><ele>600.0</ele><time>2026-04-25T13:49:35.002Z</time></trkpt><trkpt lat="45.55527737596382" lon="11.09067557408303"><ele>600.0</ele><time>2026-04-25T13:49:37.002Z</time></trkpt><trkpt lat="45.55526056547158" lon="11.09055231797971"><ele>601.0</ele><time>2026-04-25T13:49:40.002Z</time></trkpt><trkpt lat="45.5552761427889" lon="11.090430389754093"><ele>602.0</ele><time>2026-04-25T13:49:41.002Z</time></trkpt><trkpt lat="45.55518519766549" lon="11.090124536581234"><ele>603.0</ele><time>2026-04-25T13:49:42.002Z</time></trkpt><trkpt lat="45.55516129977862" lon="11.089937107157695"><ele>606.25</ele><time>2026-04-25T13:49:43.002Z</time></trkpt><trkpt lat="45.555131973409196" lon="11.089752861427975"><ele>609.5</ele><time>2026-04-25T13:49:44.002Z</time></trkpt><trkpt lat="45.555114765967915" lon="11.089574221757868"><ele>612.75</ele><time>2026-04-25T13:49:45.002Z</time></trkpt><trkpt lat="45.55510532017561" lon="11.089402015064406"><ele>616.0</ele><time>2026-04-25T13:49:46.002Z</time></trkpt><trkpt lat="45.555102811401845" lon="11.089242725963137"><ele>619.0</ele><time>2026-04-25T13:49:47.002Z</time></trkpt><trkpt lat="45.55509283854635" lon="11.08906327128551"><ele>622.0</ele><time>2026-04-25T13:49:48.002Z</time></trkpt><trkpt lat="45.55507421170061" lon="11.088900365452231"><ele>625.0</ele><time>2026-04-25T13:49:49.002Z</time></trkpt><trkpt lat="45.555052753387514" lon="11.088751472237078"><ele>628.0</ele><time>2026-04-25T13:49:50.002Z</time></trkpt><trkpt lat="45.55497477468538" lon="11.088610125146559"><ele>628.0</ele><time>2026-04-25T13:49:51.002Z</time></trkpt><trkpt lat="45.55488598262131" lon="11.08848041314604"><ele>628.0</ele><time>2026-04-25T13:49:52.002Z</time></trkpt><trkpt lat="45.55480832640704" lon="11.088341958621106"><ele>628.0</ele><time>2026-04-25T13:49:53.002Z</time></trkpt><trkpt lat="45.554732810469815" lon="11.088194105366815"><ele>628.0</ele><time>2026-04-25T13:49:54.002Z</time></trkpt><trkpt lat="45.55466994029975" lon="11.088033516927876"><ele>627.25</ele><time>2026-04-25T13:49:55.002Z</time></trkpt><trkpt lat="45.554612220599864" lon="11.087889541690137"><ele>626.5</ele><time>2026-04-25T13:49:56.002Z</time></trkpt><trkpt lat="45.55454819237409" lon="11.087744676319515"><ele>625.75</ele><time>2026-04-25T13:49:57.002Z</time></trkpt><trkpt lat="45.55452805224439" lon="11.087546234119959"><ele>625.0</ele><time>2026-04-25T13:49:58.002Z</time></trkpt><trkpt lat="45.55445594547041" lon="11.087396078918053"><ele>627.8</ele><time>2026-04-25T13:49:59.002Z</time></trkpt><trkpt lat="45.554364651680146" lon="11.087279995615678"><ele>630.6</ele><time>2026-04-25T13:50:00.002Z</time></trkpt><trkpt lat="45.55427269773398" lon="11.087193321138258"><ele>633.4</ele><time>2026-04-25T13:50:01.002Z</time></trkpt><trkpt lat="45.55419146369599" lon="11.087106154238182"><ele>636.2</ele><time>2026-04-25T13:50:02.002Z</time></trkpt><trkpt lat="45.55410032057511" lon="11.087013592735245"><ele>639.0</ele><time>2026-04-25T13:50:03.002Z</time></trkpt><trkpt lat="45.55400216561168" lon="11.086923196600086"><ele>639.0</ele><time>2026-04-25T13:50:04.002Z</time></trkpt><trkpt lat="45.55389619928354" lon="11.086839426611046"><ele>639.0</ele><time>2026-04-25T13:50:05.002Z</time></trkpt><trkpt lat="45.553752259144666" lon="11.086723088424971"><ele>639.0</ele><time>2026-04-25T13:50:06.002Z</time></trkpt><trkpt lat="45.55363824544778" lon="11.0866441738763"><ele>639.0</ele><time>2026-04-25T13:50:07.002Z</time></trkpt><trkpt lat="45.55354102895521" lon="11.086542367614504"><ele>639.25</ele><time>2026-04-25T13:50:08.002Z</time></trkpt><trkpt lat="45.55341280097808" lon="11.086449997412497"><ele>639.5</ele><time>2026-04-25T13:50:09.002Z</time></trkpt><trkpt lat="45.55329861198628" lon="11.086370708514547"><ele>639.75</ele><time>2026-04-25T13:50:10.002Z</time></trkpt><trkpt lat="45.55318572401406" lon="11.086288522291804"><ele>640.0</ele><time>2026-04-25T13:50:11.002Z</time></trkpt><trkpt lat="45.553083311162936" lon="11.08623315581977"><ele>640.0</ele><time>2026-04-25T13:50:12.002Z</time></trkpt><trkpt lat="45.552969218695154" lon="11.086214707736149"><ele>640.0</ele><time>2026-04-25T13:50:13.002Z</time></trkpt><trkpt lat="45.552848909807665" lon="11.086220540796978"><ele>640.0</ele><time>2026-04-25T13:50:14.002Z</time></trkpt><trkpt lat="45.55273687989675" lon="11.086237612015257"><ele>640.0</ele><time>2026-04-25T13:50:15.002Z</time></trkpt><trkpt lat="45.55263123808783" lon="11.08627791842075"><ele>639.6</ele><time>2026-04-25T13:50:16.002Z</time></trkpt><trkpt lat="45.55252629099495" lon="11.086318753418476"><ele>639.2</ele><time>2026-04-25T13:50:17.002Z</time></trkpt><trkpt lat="45.5524405603519" lon="11.086358374761513"><ele>638.8</ele><time>2026-04-25T13:50:18.002Z</time></trkpt><trkpt lat="45.552368305829575" lon="11.086414594007513"><ele>638.4</ele><time>2026-04-25T13:50:19.002Z</time></trkpt><trkpt lat="45.5522767761526" lon="11.086465748125852"><ele>638.0</ele><time>2026-04-25T13:50:20.002Z</time></trkpt><trkpt lat="45.5521909761734" lon="11.08648730355573"><ele>638.0</ele><time>2026-04-25T13:50:21.002Z</time></trkpt><trkpt lat="45.55210991359201" lon="11.086489016029569"><ele>638.0</ele><time>2026-04-25T13:50:22.002Z</time></trkpt><trkpt lat="45.55203778113321" lon="11.086489754215348"><ele>638.0</ele><time>2026-04-25T13:50:23.002Z</time></trkpt><trkpt lat="45.55197465351968" lon="11.08649309383733"><ele>638.0</ele><time>2026-04-25T13:50:24.002Z</time></trkpt><trkpt lat="45.55190361266264" lon="11.086503493317347"><ele>638.0</ele><time>2026-04-25T13:50:25.002Z</time></trkpt><trkpt lat="45.55162992317796" lon="11.086563510607423"><ele>638.0</ele><time>2026-04-25T13:51:44.002Z</time></trkpt><trkpt lat="45.55158049035245" lon="11.086647463438437"><ele>638.0</ele><time>2026-04-25T13:51:45.002Z</time></trkpt><trkpt lat="45.55151776202332" lon="11.08670508464663"><ele>638.0</ele><time>2026-04-25T13:51:46.002Z</time></trkpt><trkpt lat="45.55145233508262" lon="11.086748343803984"><ele>638.0</ele><time>2026-04-25T13:51:48.002Z</time></trkpt><trkpt lat="45.55137703934666" lon="11.086659890827649"><ele>638.0</ele><time>2026-04-25T13:55:21.002Z</time></trkpt><trkpt lat="45.55131555104832" lon="11.086606567478084"><ele>638.0</ele><time>2026-04-25T13:55:26.002Z</time></trkpt><trkpt lat="45.55128433258481" lon="11.086687742419958"><ele>638.0</ele><time>2026-04-25T13:56:20.002Z</time></trkpt><trkpt lat="45.551214048186885" lon="11.08676802454992"><ele>638.0</ele><time>2026-04-25T13:56:23.002Z</time></trkpt><trkpt lat="45.55118182722202" lon="11.086857000019329"><ele>638.0</ele><time>2026-04-25T13:56:27.002Z</time></trkpt><trkpt lat="45.55125182298891" lon="11.086889271128314"><ele>638.0</ele><time>2026-04-25T13:56:31.002Z</time></trkpt><trkpt lat="45.551298891346384" lon="11.086987007095352"><ele>638.0</ele><time>2026-04-25T13:56:44.002Z</time></trkpt><trkpt lat="45.55143167326956" lon="11.087045327658174"><ele>638.0</ele><time>2026-04-25T13:57:33.002Z</time></trkpt><trkpt lat="45.55136534909701" lon="11.08694272123142"><ele>638.0</ele><time>2026-04-25T13:58:25.002Z</time></trkpt><trkpt lat="45.551439509611356" lon="11.086860096152884"><ele>638.0</ele><time>2026-04-25T13:58:29.002Z</time></trkpt><trkpt lat="45.55152195592837" lon="11.086846468659271"><ele>638.0</ele><time>2026-04-25T13:58:31.002Z</time></trkpt><trkpt lat="45.55147822517936" lon="11.086776789249035"><ele>638.0</ele><time>2026-04-25T13:59:15.99Z</time></trkpt><trkpt lat="45.55140574334871" lon="11.086657265530963"><ele>638.0</ele><time>2026-04-25T13:59:44.99Z</time></trkpt><trkpt lat="45.5513397275768" lon="11.086647618195672"><ele>638.0</ele><time>2026-04-25T13:59:45.99Z</time></trkpt><trkpt lat="45.55127031281413" lon="11.086690224275083"><ele>638.0</ele><time>2026-04-25T13:59:46.99Z</time></trkpt><trkpt lat="45.55121234679046" lon="11.086736715590634"><ele>638.0</ele><time>2026-04-25T13:59:47.99Z</time></trkpt><trkpt lat="45.551130583169375" lon="11.086763967537149"><ele>638.0</ele><time>2026-04-25T13:59:48.99Z</time></trkpt><trkpt lat="45.55103881451331" lon="11.086821037753875"><ele>638.0</ele><time>2026-04-25T13:59:49.989Z</time></trkpt><trkpt lat="45.55091818099707" lon="11.086838758629035"><ele>638.25</ele><time>2026-04-25T13:59:50.989Z</time></trkpt><trkpt lat="45.55079133523574" lon="11.086906393596022"><ele>638.5</ele><time>2026-04-25T13:59:51.989Z</time></trkpt><trkpt lat="45.550657204588" lon="11.08699800223008"><ele>638.75</ele><time>2026-04-25T13:59:52.989Z</time></trkpt><trkpt lat="45.5505332071005" lon="11.087081966434377"><ele>639.0</ele><time>2026-04-25T13:59:53.989Z</time></trkpt><trkpt lat="45.55041917099486" lon="11.087166847549144"><ele>638.5</ele><time>2026-04-25T13:59:54.989Z</time></trkpt><trkpt lat="45.55030053441609" lon="11.08726040782396"><ele>638.0</ele><time>2026-04-25T13:59:55.989Z</time></trkpt><trkpt lat="45.55020270673424" lon="11.08739109671893"><ele>637.5</ele><time>2026-04-25T13:59:56.989Z</time></trkpt><trkpt lat="45.550108899568365" lon="11.087525144699605"><ele>637.0</ele><time>2026-04-25T13:59:57.989Z</time></trkpt><trkpt lat="45.550027999057086" lon="11.087673568642002"><ele>636.25</ele><time>2026-04-25T13:59:58.989Z</time></trkpt><trkpt lat="45.5499235573774" lon="11.087828777795465"><ele>635.5</ele><time>2026-04-25T13:59:59.989Z</time></trkpt><trkpt lat="45.54982346948021" lon="11.087981688009545"><ele>634.75</ele><time>2026-04-25T14:00:00.989Z</time></trkpt><trkpt lat="45.54972788033491" lon="11.08813811171236"><ele>634.0</ele><time>2026-04-25T14:00:01.989Z</time></trkpt><trkpt lat="45.54964097117397" lon="11.088288105340345"><ele>634.25</ele><time>2026-04-25T14:00:02.989Z</time></trkpt><trkpt lat="45.54955400792372" lon="11.088433486150468"><ele>634.5</ele><time>2026-04-25T14:00:03.989Z</time></trkpt><trkpt lat="45.549474592665945" lon="11.088566749864599"><ele>634.75</ele><time>2026-04-25T14:00:04.989Z</time></trkpt><trkpt lat="45.54939158525444" lon="11.088700723175066"><ele>635.0</ele><time>2026-04-25T14:00:05.989Z</time></trkpt><trkpt lat="45.549319197649325" lon="11.088834605122237"><ele>635.0</ele><time>2026-04-25T14:00:06.989Z</time></trkpt><trkpt lat="45.5492528978629" lon="11.088995746701645"><ele>635.0</ele><time>2026-04-25T14:00:07.989Z</time></trkpt><trkpt lat="45.549178376087326" lon="11.089165956206225"><ele>635.0</ele><time>2026-04-25T14:00:08.989Z</time></trkpt><trkpt lat="45.549104877504256" lon="11.089329531745154"><ele>635.0</ele><time>2026-04-25T14:00:09.989Z</time></trkpt><trkpt lat="45.549034418215726" lon="11.089486527467576"><ele>633.75</ele><time>2026-04-25T14:00:10.989Z</time></trkpt><trkpt lat="45.548947319263725" lon="11.089641972493448"><ele>632.5</ele><time>2026-04-25T14:00:11.989Z</time></trkpt><trkpt lat="45.54884719209719" lon="11.089765767267949"><ele>631.25</ele><time>2026-04-25T14:00:12.989Z</time></trkpt><trkpt lat="45.5487277754996" lon="11.089872778093921"><ele>630.0</ele><time>2026-04-25T14:00:13.99Z</time></trkpt><trkpt lat="45.54858577772798" lon="11.089955791383206"><ele>626.6666666666666</ele><time>2026-04-25T14:00:14.99Z</time></trkpt><trkpt lat="45.54843723893092" lon="11.090010770339807"><ele>623.3333333333333</ele><time>2026-04-25T14:00:15.99Z</time></trkpt><trkpt lat="45.54828350050341" lon="11.09003356200564"><ele>620.0</ele><time>2026-04-25T14:00:16.99Z</time></trkpt><trkpt lat="45.54812283972812" lon="11.090032348151665"><ele>620.0</ele><time>2026-04-25T14:00:17.989Z</time></trkpt><trkpt lat="45.54795870816363" lon="11.090019093922253"><ele>620.0</ele><time>2026-04-25T14:00:18.989Z</time></trkpt><trkpt lat="45.547796119953674" lon="11.090003151271503"><ele>620.0</ele><time>2026-04-25T14:00:19.99Z</time></trkpt><trkpt lat="45.547639822813544" lon="11.08996453755279"><ele>620.3333333333333</ele><time>2026-04-25T14:00:20.99Z</time></trkpt><trkpt lat="45.547481101949174" lon="11.089899426551533"><ele>620.6666666666666</ele><time>2026-04-25T14:00:21.99Z</time></trkpt><trkpt lat="45.54732250248643" lon="11.089813460358416"><ele>621.0</ele><time>2026-04-25T14:00:22.99Z</time></trkpt><trkpt lat="45.54718060589068" lon="11.089693084409754"><ele>617.3333333333334</ele><time>2026-04-25T14:00:23.99Z</time></trkpt><trkpt lat="45.54704106801417" lon="11.089563716686161"><ele>613.6666666666667</ele><time>2026-04-25T14:00:24.99Z</time></trkpt><trkpt lat="45.546903363480034" lon="11.089437575902052"><ele>610.0</ele><time>2026-04-25T14:00:25.99Z</time></trkpt><trkpt lat="45.5467640861561" lon="11.089322278864845"><ele>610.0</ele><time>2026-04-25T14:00:26.99Z</time></trkpt><trkpt lat="45.5466260758599" lon="11.089210215750763"><ele>610.0</ele><time>2026-04-25T14:00:27.99Z</time></trkpt><trkpt lat="45.54648847112838" lon="11.089103321741838"><ele>610.0</ele><time>2026-04-25T14:00:28.99Z</time></trkpt><trkpt lat="45.546352796768765" lon="11.089012399499984"><ele>612.0</ele><time>2026-04-25T14:00:29.99Z</time></trkpt><trkpt lat="45.54621177828086" lon="11.08893678451602"><ele>614.0</ele><time>2026-04-25T14:00:30.99Z</time></trkpt><trkpt lat="45.54606485664799" lon="11.088871246031603"><ele>616.0</ele><time>2026-04-25T14:00:31.99Z</time></trkpt><trkpt lat="45.54591405158076" lon="11.08883264585521"><ele>609.6666666666667</ele><time>2026-04-25T14:00:32.99Z</time></trkpt><trkpt lat="45.54575370286619" lon="11.088822707671856"><ele>603.3333333333334</ele><time>2026-04-25T14:00:33.99Z</time></trkpt><trkpt lat="45.54558400286419" lon="11.088825790203838"><ele>597.0</ele><time>2026-04-25T14:00:34.99Z</time></trkpt><trkpt lat="45.545414465280864" lon="11.08882687654797"><ele>596.6666666666666</ele><time>2026-04-25T14:00:35.99Z</time></trkpt><trkpt lat="45.54524855127004" lon="11.088828394592108"><ele>596.3333333333333</ele><time>2026-04-25T14:00:36.99Z</time></trkpt><trkpt lat="45.54508266246683" lon="11.088838306943119"><ele>596.0</ele><time>2026-04-25T14:00:37.99Z</time></trkpt><trkpt lat="45.54491880797542" lon="11.088859286256548"><ele>596.0</ele><time>2026-04-25T14:00:38.99Z</time></trkpt><trkpt lat="45.54475639352269" lon="11.088886524408853"><ele>596.0</ele><time>2026-04-25T14:00:39.99Z</time></trkpt><trkpt lat="45.54459339576988" lon="11.088915109765983"><ele>596.0</ele><time>2026-04-25T14:00:40.99Z</time></trkpt><trkpt lat="45.54442594906441" lon="11.088947566890203"><ele>596.6666666666666</ele><time>2026-04-25T14:00:41.99Z</time></trkpt><trkpt lat="45.544269871752235" lon="11.088988469312877"><ele>597.3333333333334</ele><time>2026-04-25T14:00:42.99Z</time></trkpt><trkpt lat="45.544107691147914" lon="11.089013318476669"><ele>598.0</ele><time>2026-04-25T14:00:43.99Z</time></trkpt><trkpt lat="45.543949124975164" lon="11.08907178489"><ele>599.0</ele><time>2026-04-25T14:00:44.99Z</time></trkpt><trkpt lat="45.5437971909202" lon="11.089143646680201"><ele>600.0</ele><time>2026-04-25T14:00:45.99Z</time></trkpt><trkpt lat="45.543634198654495" lon="11.089221464471676"><ele>601.0</ele><time>2026-04-25T14:00:46.99Z</time></trkpt><trkpt lat="45.54347205341059" lon="11.089302180688664"><ele>599.0</ele><time>2026-04-25T14:00:47.99Z</time></trkpt><trkpt lat="45.54330847797346" lon="11.08938526697508"><ele>597.0</ele><time>2026-04-25T14:00:48.99Z</time></trkpt><trkpt lat="45.543149454405906" lon="11.089462063105977"><ele>595.0</ele><time>2026-04-25T14:00:49.99Z</time></trkpt><trkpt lat="45.54299202116969" lon="11.089540655319016"><ele>595.3333333333334</ele><time>2026-04-25T14:00:50.99Z</time></trkpt><trkpt lat="45.54283708934301" lon="11.089624867407714"><ele>595.6666666666666</ele><time>2026-04-25T14:00:51.99Z</time></trkpt><trkpt lat="45.542688129186644" lon="11.089715161665378"><ele>596.0</ele><time>2026-04-25T14:00:52.99Z</time></trkpt><trkpt lat="45.5425422447595" lon="11.089818648032258"><ele>596.0</ele><time>2026-04-25T14:00:53.99Z</time></trkpt><trkpt lat="45.54240060142186" lon="11.089935115847025"><ele>596.0</ele><time>2026-04-25T14:00:54.99Z</time></trkpt><trkpt lat="45.542258484935765" lon="11.090050814228466"><ele>596.0</ele><time>2026-04-25T14:00:55.99Z</time></trkpt><trkpt lat="45.542111902694714" lon="11.090148353162917"><ele>596.6666666666666</ele><time>2026-04-25T14:00:56.99Z</time></trkpt><trkpt lat="45.54196313147711" lon="11.090228708235104"><ele>597.3333333333334</ele><time>2026-04-25T14:00:57.99Z</time></trkpt><trkpt lat="45.54181543199848" lon="11.090273462470357"><ele>598.0</ele><time>2026-04-25T14:00:58.99Z</time></trkpt><trkpt lat="45.54167033504392" lon="11.090277826155642"><ele>598.0</ele><time>2026-04-25T14:00:59.99Z</time></trkpt><trkpt lat="45.54151030155672" lon="11.090284155995702"><ele>598.0</ele><time>2026-04-25T14:01:00.99Z</time></trkpt><trkpt lat="45.541337657700375" lon="11.090256013346218"><ele>598.0</ele><time>2026-04-25T14:01:01.99Z</time></trkpt><trkpt lat="45.54117850870964" lon="11.090195502703066"><ele>596.3333333333334</ele><time>2026-04-25T14:01:02.99Z</time></trkpt><trkpt lat="45.54103189472693" lon="11.090112899813976"><ele>594.6666666666666</ele><time>2026-04-25T14:01:03.99Z</time></trkpt><trkpt lat="45.54088102229611" lon="11.090054373672185"><ele>593.0</ele><time>2026-04-25T14:01:04.99Z</time></trkpt><trkpt lat="45.54072572169567" lon="11.090010964227838"><ele>593.0</ele><time>2026-04-25T14:01:05.99Z</time></trkpt><trkpt lat="45.540569672808914" lon="11.090003635116137"><ele>593.0</ele><time>2026-04-25T14:01:06.99Z</time></trkpt><trkpt lat="45.54041167396999" lon="11.090039080620505"><ele>593.0</ele><time>2026-04-25T14:01:07.99Z</time></trkpt><trkpt lat="45.54024728999078" lon="11.090107008196107"><ele>592.0</ele><time>2026-04-25T14:01:08.99Z</time></trkpt><trkpt lat="45.54008863021663" lon="11.090194271549107"><ele>591.0</ele><time>2026-04-25T14:01:09.99Z</time></trkpt><trkpt lat="45.53992249106743" lon="11.090309637757727"><ele>590.0</ele><time>2026-04-25T14:01:10.99Z</time></trkpt><trkpt lat="45.53976766364795" lon="11.090434409216861"><ele>590.0</ele><time>2026-04-25T14:01:11.99Z</time></trkpt><trkpt lat="45.53960653977064" lon="11.090554999185214"><ele>590.0</ele><time>2026-04-25T14:01:12.99Z</time></trkpt><trkpt lat="45.539447704143015" lon="11.09066675975345"><ele>590.0</ele><time>2026-04-25T14:01:13.99Z</time></trkpt><trkpt lat="45.53928851182339" lon="11.090772435384405"><ele>594.6666666666666</ele><time>2026-04-25T14:01:14.99Z</time></trkpt><trkpt lat="45.53912734803677" lon="11.090868468586173"><ele>599.3333333333334</ele><time>2026-04-25T14:01:15.99Z</time></trkpt><trkpt lat="45.538957731100034" lon="11.090938652091447"><ele>604.0</ele><time>2026-04-25T14:01:16.99Z</time></trkpt><trkpt lat="45.538794193612574" lon="11.090972559836942"><ele>606.0</ele><time>2026-04-25T14:01:17.99Z</time></trkpt><trkpt lat="45.53863295501451" lon="11.090986204805084"><ele>608.0</ele><time>2026-04-25T14:01:18.99Z</time></trkpt><trkpt lat="45.53846244777197" lon="11.09097618446055"><ele>610.0</ele><time>2026-04-25T14:01:19.99Z</time></trkpt><trkpt lat="45.53828878662497" lon="11.090987428251758"><ele>610.0</ele><time>2026-04-25T14:01:20.99Z</time></trkpt><trkpt lat="45.53811923781825" lon="11.090998774639395"><ele>610.0</ele><time>2026-04-25T14:01:21.99Z</time></trkpt><trkpt lat="45.537967269111206" lon="11.091032198171483"><ele>610.0</ele><time>2026-04-25T14:01:22.99Z</time></trkpt><trkpt lat="45.53780714231565" lon="11.091087078218406"><ele>613.6666666666667</ele><time>2026-04-25T14:01:23.99Z</time></trkpt><trkpt lat="45.53765373679402" lon="11.091174259530705"><ele>617.3333333333334</ele><time>2026-04-25T14:01:24.99Z</time></trkpt><trkpt lat="45.537512956571554" lon="11.091291076975752"><ele>621.0</ele><time>2026-04-25T14:01:25.99Z</time></trkpt><trkpt lat="45.537385660597536" lon="11.091397547274642"><ele>621.0</ele><time>2026-04-25T14:01:26.99Z</time></trkpt><trkpt lat="45.53726551507712" lon="11.09148413639821"><ele>621.0</ele><time>2026-04-25T14:01:27.99Z</time></trkpt><trkpt lat="45.53714746189602" lon="11.091551770628966"><ele>621.0</ele><time>2026-04-25T14:01:28.99Z</time></trkpt><trkpt lat="45.537035189041866" lon="11.091605105388767"><ele>621.0</ele><time>2026-04-25T14:01:29.99Z</time></trkpt><trkpt lat="45.5369271812029" lon="11.091638879890796"><ele>621.0</ele><time>2026-04-25T14:01:30.99Z</time></trkpt><trkpt lat="45.53682471265267" lon="11.091636280573885"><ele>621.0</ele><time>2026-04-25T14:01:31.99Z</time></trkpt><trkpt lat="45.53673379380433" lon="11.09164229064657"><ele>621.0</ele><time>2026-04-25T14:01:32.99Z</time></trkpt><trkpt lat="45.536670276249346" lon="11.0916396167518"><ele>621.0</ele><time>2026-04-25T14:01:33.99Z</time></trkpt><trkpt lat="45.53659132990215" lon="11.091634344074274"><ele>621.0</ele><time>2026-04-25T14:01:35.99Z</time></trkpt><trkpt lat="45.53649519407028" lon="11.091623050263934"><ele>621.0</ele><time>2026-04-25T14:01:38.99Z</time></trkpt><trkpt lat="45.5363997176004" lon="11.091601851361991"><ele>622.6666666666666</ele><time>2026-04-25T14:01:40.989Z</time></trkpt><trkpt lat="45.53633612621106" lon="11.091586157692404"><ele>624.3333333333334</ele><time>2026-04-25T14:01:41.989Z</time></trkpt><trkpt lat="45.536271092077286" lon="11.091566400239051"><ele>626.0</ele><time>2026-04-25T14:01:42.989Z</time></trkpt><trkpt lat="45.536206782840395" lon="11.091545347058004"><ele>627.6666666666667</ele><time>2026-04-25T14:01:43.989Z</time></trkpt><trkpt lat="45.536088643003275" lon="11.091506236818976"><ele>629.3333333333334</ele><time>2026-04-25T14:01:45.989Z</time></trkpt><trkpt lat="45.53597378220267" lon="11.091466050221165"><ele>631.0</ele><time>2026-04-25T14:01:47.989Z</time></trkpt><trkpt lat="45.53585833355902" lon="11.091428794660256"><ele>631.1666666666667</ele><time>2026-04-25T14:01:49.989Z</time></trkpt><trkpt lat="45.53579248435854" lon="11.091412577938534"><ele>631.3333333333334</ele><time>2026-04-25T14:01:50.989Z</time></trkpt><trkpt lat="45.53563760884123" lon="11.091388816724551"><ele>631.5</ele><time>2026-04-25T14:01:52.989Z</time></trkpt><trkpt lat="45.5355726888333" lon="11.091387784979418"><ele>631.6666666666666</ele><time>2026-04-25T14:01:53.989Z</time></trkpt><trkpt lat="45.53549010012765" lon="11.091391774589313"><ele>631.8333333333333</ele><time>2026-04-25T14:01:54.989Z</time></trkpt><trkpt lat="45.535426608415115" lon="11.09140037765088"><ele>632.0</ele><time>2026-04-25T14:01:55.989Z</time></trkpt><trkpt lat="45.53534572558205" lon="11.091413218759579"><ele>632.0</ele><time>2026-04-25T14:01:56.989Z</time></trkpt><trkpt lat="45.53525970822234" lon="11.091429814534795"><ele>632.0</ele><time>2026-04-25T14:01:57.989Z</time></trkpt><trkpt lat="45.53517310454053" lon="11.091449191036174"><ele>632.0</ele><time>2026-04-25T14:01:58.989Z</time></trkpt><trkpt lat="45.535101334144485" lon="11.091469538674614"><ele>632.0</ele><time>2026-04-25T14:01:59.989Z</time></trkpt><trkpt lat="45.53502117751689" lon="11.09149270810793"><ele>632.0</ele><time>2026-04-25T14:02:00.989Z</time></trkpt><trkpt lat="45.53492689214814" lon="11.091523336842108"><ele>632.0</ele><time>2026-04-25T14:02:01.989Z</time></trkpt><trkpt lat="45.53484520205016" lon="11.091553453818722"><ele>630.4</ele><time>2026-04-25T14:02:02.989Z</time></trkpt><trkpt lat="45.53474484208793" lon="11.091590453903269"><ele>628.8000000000001</ele><time>2026-04-25T14:02:03.989Z</time></trkpt><trkpt lat="45.53463938388157" lon="11.091628696836363"><ele>627.2</ele><time>2026-04-25T14:02:04.989Z</time></trkpt><trkpt lat="45.53456529950244" lon="11.091651839028575"><ele>625.6</ele><time>2026-04-25T14:02:05.989Z</time></trkpt><trkpt lat="45.53447774903099" lon="11.091729947941515"><ele>624.0</ele><time>2026-04-25T14:02:06.989Z</time></trkpt><trkpt lat="45.53439673569824" lon="11.091807214268398"><ele>607.0</ele><time>2026-04-25T14:02:07.989Z</time></trkpt><trkpt lat="45.53440013979446" lon="11.092844226296824"><ele>607.0</ele><time>2026-04-25T14:02:08.989Z</time></trkpt><trkpt lat="45.5343156914562" lon="11.092905321564613"><ele>607.0</ele><time>2026-04-25T14:02:09.989Z</time></trkpt><trkpt lat="45.53424687908024" lon="11.092936850344719"><ele>607.0</ele><time>2026-04-25T14:02:10.989Z</time></trkpt><trkpt lat="45.53417567486945" lon="11.092951269756327"><ele>607.0</ele><time>2026-04-25T14:02:11.989Z</time></trkpt><trkpt lat="45.53403999712936" lon="11.09296209347126"><ele>607.0</ele><time>2026-04-25T14:02:13.989Z</time></trkpt><trkpt lat="45.53396292210485" lon="11.092995060558964"><ele>607.0</ele><time>2026-04-25T14:02:14.989Z</time></trkpt><trkpt lat="45.53387235659277" lon="11.093022293748124"><ele>607.0</ele><time>2026-04-25T14:02:15.989Z</time></trkpt><trkpt lat="45.53377703608333" lon="11.09304617541303"><ele>607.0</ele><time>2026-04-25T14:02:16.989Z</time></trkpt><trkpt lat="45.533683310158345" lon="11.093063990636278"><ele>607.0</ele><time>2026-04-25T14:02:17.989Z</time></trkpt><trkpt lat="45.53359417878239" lon="11.09308236795603"><ele>607.0</ele><time>2026-04-25T14:02:18.989Z</time></trkpt><trkpt lat="45.53350766091132" lon="11.093103243663368"><ele>607.3333333333334</ele><time>2026-04-25T14:02:19.989Z</time></trkpt><trkpt lat="45.53343235577775" lon="11.093153881063612"><ele>607.6666666666667</ele><time>2026-04-25T14:02:20.989Z</time></trkpt><trkpt lat="45.53337673477712" lon="11.09325012781007"><ele>608.0</ele><time>2026-04-25T14:02:21.989Z</time></trkpt><trkpt lat="45.53333590262946" lon="11.093340503954737"><ele>608.3333333333334</ele><time>2026-04-25T14:02:22.989Z</time></trkpt><trkpt lat="45.53329363493932" lon="11.093425737604004"><ele>608.6666666666666</ele><time>2026-04-25T14:02:23.989Z</time></trkpt><trkpt lat="45.53323192268177" lon="11.093502562997697"><ele>609.0</ele><time>2026-04-25T14:02:24.989Z</time></trkpt><trkpt lat="45.53316928781029" lon="11.09357246537036"><ele>607.0</ele><time>2026-04-25T14:02:25.99Z</time></trkpt><trkpt lat="45.533094719073056" lon="11.093598403143474"><ele>605.0</ele><time>2026-04-25T14:02:26.989Z</time></trkpt><trkpt lat="45.5330054932439" lon="11.093664239307273"><ele>603.0</ele><time>2026-04-25T14:02:27.989Z</time></trkpt><trkpt lat="45.53291105634828" lon="11.093733537641162"><ele>601.0</ele><time>2026-04-25T14:02:28.99Z</time></trkpt><trkpt lat="45.53281628897555" lon="11.093793224169948"><ele>599.0</ele><time>2026-04-25T14:02:29.989Z</time></trkpt><trkpt lat="45.53271829389595" lon="11.093867866330491"><ele>599.0</ele><time>2026-04-25T14:02:30.989Z</time></trkpt><trkpt lat="45.53263428738232" lon="11.09392963516346"><ele>599.0</ele><time>2026-04-25T14:02:31.989Z</time></trkpt><trkpt lat="45.532530267524784" lon="11.093981723499182"><ele>599.0</ele><time>2026-04-25T14:02:32.99Z</time></trkpt><trkpt lat="45.53242567995691" lon="11.094063440198974"><ele>599.0</ele><time>2026-04-25T14:02:33.99Z</time></trkpt><trkpt lat="45.532333575261404" lon="11.094131933068814"><ele>599.0</ele><time>2026-04-25T14:02:34.99Z</time></trkpt><trkpt lat="45.5322257896532" lon="11.094221948873857"><ele>597.4</ele><time>2026-04-25T14:02:35.99Z</time></trkpt><trkpt lat="45.53214566446432" lon="11.094312236440013"><ele>595.8</ele><time>2026-04-25T14:02:36.99Z</time></trkpt><trkpt lat="45.53205088789604" lon="11.094394196533484"><ele>594.2</ele><time>2026-04-25T14:02:37.99Z</time></trkpt><trkpt lat="45.53196216617531" lon="11.094469130416472"><ele>592.6</ele><time>2026-04-25T14:02:38.99Z</time></trkpt><trkpt lat="45.531860901163576" lon="11.094571363259771"><ele>591.0</ele><time>2026-04-25T14:02:39.99Z</time></trkpt><trkpt lat="45.53176739229325" lon="11.09467820720614"><ele>591.0</ele><time>2026-04-25T14:02:40.99Z</time></trkpt><trkpt lat="45.5316735922956" lon="11.094789308112142"><ele>591.0</ele><time>2026-04-25T14:02:41.99Z</time></trkpt><trkpt lat="45.53157058966653" lon="11.094910268845574"><ele>591.0</ele><time>2026-04-25T14:02:42.99Z</time></trkpt><trkpt lat="45.53147650416533" lon="11.095072861441942"><ele>591.0</ele><time>2026-04-25T14:02:43.99Z</time></trkpt><trkpt lat="45.53139314761694" lon="11.09520387365039"><ele>587.75</ele><time>2026-04-25T14:02:44.99Z</time></trkpt><trkpt lat="45.531281500525154" lon="11.09530623908748"><ele>584.5</ele><time>2026-04-25T14:02:45.99Z</time></trkpt><trkpt lat="45.53116152898577" lon="11.095393359305525"><ele>581.25</ele><time>2026-04-25T14:02:46.99Z</time></trkpt><trkpt lat="45.5310376034102" lon="11.09549326052019"><ele>578.0</ele><time>2026-04-25T14:02:47.99Z</time></trkpt><trkpt lat="45.53094592015011" lon="11.095601408313057"><ele>578.0</ele><time>2026-04-25T14:02:48.99Z</time></trkpt><trkpt lat="45.53087260523165" lon="11.095690353252392"><ele>578.0</ele><time>2026-04-25T14:02:49.99Z</time></trkpt><trkpt lat="45.5308203399273" lon="11.095751951385246"><ele>578.0</ele><time>2026-04-25T14:02:50.99Z</time></trkpt><trkpt lat="45.53077396587324" lon="11.095902795041289"><ele>578.0</ele><time>2026-04-25T14:02:52.99Z</time></trkpt><trkpt lat="45.530776572681546" lon="11.09599992147464"><ele>578.0</ele><time>2026-04-25T14:02:53.99Z</time></trkpt><trkpt lat="45.530773955837596" lon="11.096102804951448"><ele>578.0</ele><time>2026-04-25T14:02:54.99Z</time></trkpt><trkpt lat="45.53074331965156" lon="11.096250194343776"><ele>576.3333333333333</ele><time>2026-04-25T14:02:56.99Z</time></trkpt><trkpt lat="45.530726499592085" lon="11.096397189900976"><ele>574.6666666666666</ele><time>2026-04-25T14:02:58.99Z</time></trkpt><trkpt lat="45.530722323343724" lon="11.09649189354925"><ele>573.0</ele><time>2026-04-25T14:02:59.99Z</time></trkpt><trkpt lat="45.53073696714857" lon="11.096601061983026"><ele>571.3333333333334</ele><time>2026-04-25T14:03:00.99Z</time></trkpt><trkpt lat="45.53075268304155" lon="11.096712821554455"><ele>569.6666666666667</ele><time>2026-04-25T14:03:01.99Z</time></trkpt><trkpt lat="45.530764390692944" lon="11.09682739112257"><ele>568.0</ele><time>2026-04-25T14:03:02.99Z</time></trkpt><trkpt lat="45.53077139351187" lon="11.096939829182098"><ele>565.6</ele><time>2026-04-25T14:03:03.99Z</time></trkpt><trkpt lat="45.53076328214292" lon="11.09705254099658"><ele>563.1999999999999</ele><time>2026-04-25T14:03:04.99Z</time></trkpt><trkpt lat="45.53071013361987" lon="11.097180529308723"><ele>560.8</ele><time>2026-04-25T14:03:05.99Z</time></trkpt><trkpt lat="45.53062824369992" lon="11.097320220414568"><ele>558.4</ele><time>2026-04-25T14:03:06.99Z</time></trkpt><trkpt lat="45.53054336481991" lon="11.097456536768275"><ele>556.0</ele><time>2026-04-25T14:03:07.99Z</time></trkpt><trkpt lat="45.53046573185829" lon="11.097592753320326"><ele>553.0</ele><time>2026-04-25T14:03:08.99Z</time></trkpt><trkpt lat="45.53038395552565" lon="11.097728898791857"><ele>550.0</ele><time>2026-04-25T14:03:09.989Z</time></trkpt><trkpt lat="45.53030312114343" lon="11.09787080152806"><ele>547.0</ele><time>2026-04-25T14:03:10.989Z</time></trkpt><trkpt lat="45.530220450706416" lon="11.097987347794456"><ele>544.0</ele><time>2026-04-25T14:03:11.989Z</time></trkpt><trkpt lat="45.530149021694534" lon="11.098135470191725"><ele>541.5</ele><time>2026-04-25T14:03:12.989Z</time></trkpt><trkpt lat="45.53008566318068" lon="11.098278832329926"><ele>539.0</ele><time>2026-04-25T14:03:13.989Z</time></trkpt><trkpt lat="45.53003221628835" lon="11.098426230438546"><ele>536.5</ele><time>2026-04-25T14:03:14.989Z</time></trkpt><trkpt lat="45.52998506947108" lon="11.098572754390869"><ele>534.0</ele><time>2026-04-25T14:03:15.989Z</time></trkpt><trkpt lat="45.52992974565446" lon="11.098723185706952"><ele>534.0</ele><time>2026-04-25T14:03:16.989Z</time></trkpt><trkpt lat="45.52988594572776" lon="11.09887662118191"><ele>534.0</ele><time>2026-04-25T14:03:17.989Z</time></trkpt><trkpt lat="45.52983986808042" lon="11.099042987248875"><ele>534.0</ele><time>2026-04-25T14:03:18.989Z</time></trkpt><trkpt lat="45.52980302858881" lon="11.099208312112523"><ele>534.0</ele><time>2026-04-25T14:03:19.989Z</time></trkpt><trkpt lat="45.52976762925061" lon="11.099360942548802"><ele>531.0</ele><time>2026-04-25T14:03:20.989Z</time></trkpt><trkpt lat="45.52973050157078" lon="11.099515757842893"><ele>528.0</ele><time>2026-04-25T14:03:21.989Z</time></trkpt><trkpt lat="45.529697179317395" lon="11.099674359632672"><ele>525.0</ele><time>2026-04-25T14:03:22.989Z</time></trkpt><trkpt lat="45.52968300896451" lon="11.099839944447623"><ele>522.0</ele><time>2026-04-25T14:03:23.989Z</time></trkpt><trkpt lat="45.52966112548871" lon="11.099983456381615"><ele>519.6</ele><time>2026-04-25T14:03:24.989Z</time></trkpt><trkpt lat="45.52964951505496" lon="11.100108813051031"><ele>517.2</ele><time>2026-04-25T14:03:25.989Z</time></trkpt><trkpt lat="45.52963098087953" lon="11.100253338004908"><ele>514.8</ele><time>2026-04-25T14:03:27.989Z</time></trkpt><trkpt lat="45.52961183667746" lon="11.100343799513224"><ele>512.4</ele><time>2026-04-25T14:03:32.989Z</time></trkpt><trkpt lat="45.5296529849261" lon="11.10059667401693"><ele>510.0</ele><time>2026-04-25T14:04:58.989Z</time></trkpt><trkpt lat="45.52967402187452" lon="11.100714806781072"><ele>510.0</ele><time>2026-04-25T14:04:59.988Z</time></trkpt><trkpt lat="45.52969958447117" lon="11.10082860418598"><ele>510.0</ele><time>2026-04-25T14:05:00.988Z</time></trkpt><trkpt lat="45.529711192015434" lon="11.100941531907896"><ele>510.0</ele><time>2026-04-25T14:05:01.988Z</time></trkpt><trkpt lat="45.52973965086452" lon="11.10103992665692"><ele>510.0</ele><time>2026-04-25T14:05:02.988Z</time></trkpt><trkpt lat="45.52973027731343" lon="11.10113072429775"><ele>510.0</ele><time>2026-04-25T14:05:03.988Z</time></trkpt><trkpt lat="45.52963072669854" lon="11.10126080691871"><ele>510.0</ele><time>2026-04-25T14:05:05.988Z</time></trkpt><trkpt lat="45.529547498478415" lon="11.101250566688147"><ele>510.0</ele><time>2026-04-25T14:05:06.988Z</time></trkpt><trkpt lat="45.5294594887582" lon="11.101219196560738"><ele>510.0</ele><time>2026-04-25T14:05:07.988Z</time></trkpt><trkpt lat="45.52939654549747" lon="11.10119100406067"><ele>510.0</ele><time>2026-04-25T14:05:08.988Z</time></trkpt><trkpt lat="45.529311778939814" lon="11.101138334726816"><ele>510.0</ele><time>2026-04-25T14:05:09.988Z</time></trkpt><trkpt lat="45.52922292769799" lon="11.101042237560403"><ele>510.0</ele><time>2026-04-25T14:05:10.988Z</time></trkpt><trkpt lat="45.529152996692225" lon="11.100928246098466"><ele>510.0</ele><time>2026-04-25T14:05:11.988Z</time></trkpt><trkpt lat="45.52908506844036" lon="11.100822785400684"><ele>510.0</ele><time>2026-04-25T14:05:12.988Z</time></trkpt><trkpt lat="45.52905610689748" lon="11.100676139801278"><ele>510.0</ele><time>2026-04-25T14:05:13.988Z</time></trkpt><trkpt lat="45.52902240891355" lon="11.100540221493418"><ele>510.0</ele><time>2026-04-25T14:05:14.988Z</time></trkpt><trkpt lat="45.52899093429099" lon="11.100418509417583"><ele>510.0</ele><time>2026-04-25T14:05:15.988Z</time></trkpt><trkpt lat="45.52894435073871" lon="11.100283835327541"><ele>511.25</ele><time>2026-04-25T14:05:16.988Z</time></trkpt><trkpt lat="45.5288948655863" lon="11.100145172992988"><ele>512.5</ele><time>2026-04-25T14:05:17.988Z</time></trkpt><trkpt lat="45.52882754923947" lon="11.10000912857363"><ele>513.75</ele><time>2026-04-25T14:05:18.988Z</time></trkpt><trkpt lat="45.52874883378206" lon="11.099887001632768"><ele>515.0</ele><time>2026-04-25T14:05:19.988Z</time></trkpt><trkpt lat="45.52868066606703" lon="11.09976191078374"><ele>510.25</ele><time>2026-04-25T14:05:20.988Z</time></trkpt><trkpt lat="45.52858333409932" lon="11.099670868510763"><ele>505.5</ele><time>2026-04-25T14:05:21.988Z</time></trkpt><trkpt lat="45.528454772970264" lon="11.099655242259502"><ele>500.75</ele><time>2026-04-25T14:05:22.988Z</time></trkpt><trkpt lat="45.52833634141619" lon="11.099712730218416"><ele>496.0</ele><time>2026-04-25T14:05:23.988Z</time></trkpt><trkpt lat="45.52822909578487" lon="11.099772001392044"><ele>496.00000000000006</ele><time>2026-04-25T14:05:24.988Z</time></trkpt><trkpt lat="45.52813961144134" lon="11.09984296455026"><ele>496.0</ele><time>2026-04-25T14:05:25.988Z</time></trkpt><trkpt lat="45.52806356811993" lon="11.099888302426454"><ele>496.0</ele><time>2026-04-25T14:05:26.988Z</time></trkpt><trkpt lat="45.528001760323214" lon="11.099906537210604"><ele>496.0</ele><time>2026-04-25T14:05:27.988Z</time></trkpt><trkpt lat="45.52794246645911" lon="11.099873667385559"><ele>496.00000000000006</ele><time>2026-04-25T14:05:28.988Z</time></trkpt><trkpt lat="45.52791770739884" lon="11.099698519431827"><ele>496.0</ele><time>2026-04-25T14:05:30.988Z</time></trkpt><trkpt lat="45.527999226424676" lon="11.099596203317336"><ele>496.0</ele><time>2026-04-25T14:05:31.988Z</time></trkpt><trkpt lat="45.52806779255596" lon="11.099497187541886"><ele>496.0</ele><time>2026-04-25T14:05:32.988Z</time></trkpt><trkpt lat="45.52813850049114" lon="11.099394595132704"><ele>496.0</ele><time>2026-04-25T14:05:33.988Z</time></trkpt><trkpt lat="45.52817145835646" lon="11.09928045984518"><ele>496.0</ele><time>2026-04-25T14:05:34.988Z</time></trkpt><trkpt lat="45.52816429064303" lon="11.099145819853945"><ele>496.0</ele><time>2026-04-25T14:05:35.988Z</time></trkpt><trkpt lat="45.52811128878048" lon="11.09904070563528"><ele>496.6</ele><time>2026-04-25T14:05:36.988Z</time></trkpt><trkpt lat="45.52802318782003" lon="11.098985411481252"><ele>497.20000000000005</ele><time>2026-04-25T14:05:37.988Z</time></trkpt><trkpt lat="45.52792707861823" lon="11.098992536964696"><ele>497.79999999999995</ele><time>2026-04-25T14:05:38.988Z</time></trkpt><trkpt lat="45.527831618474615" lon="11.099022101990187"><ele>498.4</ele><time>2026-04-25T14:05:39.988Z</time></trkpt><trkpt lat="45.527714029581404" lon="11.099081158981452"><ele>499.0</ele><time>2026-04-25T14:05:40.988Z</time></trkpt><trkpt lat="45.52760074605465" lon="11.09912742795669"><ele>496.75</ele><time>2026-04-25T14:05:41.988Z</time></trkpt><trkpt lat="45.5274785988447" lon="11.09916537226887"><ele>494.5</ele><time>2026-04-25T14:05:42.988Z</time></trkpt><trkpt lat="45.52735086277686" lon="11.099214012110798"><ele>492.25</ele><time>2026-04-25T14:05:43.988Z</time></trkpt><trkpt lat="45.52722557596228" lon="11.0992557470543"><ele>490.0</ele><time>2026-04-25T14:05:44.988Z</time></trkpt><trkpt lat="45.52709645011575" lon="11.099289940973614"><ele>493.0</ele><time>2026-04-25T14:05:45.988Z</time></trkpt><trkpt lat="45.52698555465818" lon="11.099340824905827"><ele>496.0</ele><time>2026-04-25T14:05:46.988Z</time></trkpt><trkpt lat="45.5268888950226" lon="11.09943107612191"><ele>499.0</ele><time>2026-04-25T14:05:47.988Z</time></trkpt><trkpt lat="45.5268130418804" lon="11.099563630412861"><ele>502.0</ele><time>2026-04-25T14:05:48.988Z</time></trkpt><trkpt lat="45.5267661070364" lon="11.099714446669342"><ele>502.0</ele><time>2026-04-25T14:05:49.988Z</time></trkpt><trkpt lat="45.52673642602862" lon="11.099894228912799"><ele>502.0</ele><time>2026-04-25T14:05:50.988Z</time></trkpt><trkpt lat="45.52671879341573" lon="11.100065600867731"><ele>502.0</ele><time>2026-04-25T14:05:51.988Z</time></trkpt><trkpt lat="45.52668840422577" lon="11.100236008547034"><ele>502.0</ele><time>2026-04-25T14:05:52.988Z</time></trkpt><trkpt lat="45.526653980933006" lon="11.100392642315505"><ele>502.25</ele><time>2026-04-25T14:05:53.988Z</time></trkpt><trkpt lat="45.526622481988426" lon="11.100552090107895"><ele>502.5</ele><time>2026-04-25T14:05:54.988Z</time></trkpt><trkpt lat="45.52659251240271" lon="11.100710901969451"><ele>502.75</ele><time>2026-04-25T14:05:55.988Z</time></trkpt><trkpt lat="45.52656867269865" lon="11.100876676881857"><ele>503.0</ele><time>2026-04-25T14:05:56.988Z</time></trkpt><trkpt lat="45.526553915778806" lon="11.101054378815018"><ele>503.0</ele><time>2026-04-25T14:05:57.988Z</time></trkpt><trkpt lat="45.526532177847315" lon="11.10123365941285"><ele>503.0</ele><time>2026-04-25T14:05:58.988Z</time></trkpt><trkpt lat="45.5265053984391" lon="11.101391100525447"><ele>503.0</ele><time>2026-04-25T14:05:59.988Z</time></trkpt><trkpt lat="45.526462733380875" lon="11.101546444214572"><ele>503.0</ele><time>2026-04-25T14:06:00.988Z</time></trkpt><trkpt lat="45.526405669555324" lon="11.10169613640228"><ele>503.25</ele><time>2026-04-25T14:06:01.988Z</time></trkpt><trkpt lat="45.52632710198123" lon="11.101837674347092"><ele>503.5</ele><time>2026-04-25T14:06:02.988Z</time></trkpt><trkpt lat="45.52623450229612" lon="11.10192547594111"><ele>503.75</ele><time>2026-04-25T14:06:03.988Z</time></trkpt><trkpt lat="45.526114297041545" lon="11.101990909805314"><ele>504.0</ele><time>2026-04-25T14:06:04.988Z</time></trkpt><trkpt lat="45.52601821190709" lon="11.102066012299675"><ele>508.25</ele><time>2026-04-25T14:06:05.988Z</time></trkpt><trkpt lat="45.52595509034731" lon="11.102192701172017"><ele>512.5</ele><time>2026-04-25T14:06:06.988Z</time></trkpt><trkpt lat="45.525896862551356" lon="11.102353591223558"><ele>516.75</ele><time>2026-04-25T14:06:07.988Z</time></trkpt><trkpt lat="45.52581802911414" lon="11.102523713072944"><ele>521.0</ele><time>2026-04-25T14:06:08.988Z</time></trkpt><trkpt lat="45.52571993514303" lon="11.102698477835533"><ele>521.0</ele><time>2026-04-25T14:06:09.988Z</time></trkpt><trkpt lat="45.525593094400776" lon="11.102847961291221"><ele>521.0</ele><time>2026-04-25T14:06:10.988Z</time></trkpt><trkpt lat="45.52551202608533" lon="11.103005589575302"><ele>521.0</ele><time>2026-04-25T14:06:11.988Z</time></trkpt><trkpt lat="45.525454658690656" lon="11.103205155000083"><ele>522.5</ele><time>2026-04-25T14:06:12.988Z</time></trkpt><trkpt lat="45.52540695001675" lon="11.103374428967836"><ele>524.0</ele><time>2026-04-25T14:06:13.988Z</time></trkpt><trkpt lat="45.52534486197548" lon="11.103522238247567"><ele>525.5</ele><time>2026-04-25T14:06:14.988Z</time></trkpt><trkpt lat="45.52525026851252" lon="11.103646851486126"><ele>527.0</ele><time>2026-04-25T14:06:15.988Z</time></trkpt><trkpt lat="45.525137871934845" lon="11.103734495043023"><ele>527.0</ele><time>2026-04-25T14:06:16.988Z</time></trkpt><trkpt lat="45.525009731833435" lon="11.10382515445345"><ele>527.0</ele><time>2026-04-25T14:06:17.988Z</time></trkpt><trkpt lat="45.5248779173637" lon="11.103893521922313"><ele>527.0</ele><time>2026-04-25T14:06:18.988Z</time></trkpt><trkpt lat="45.52476739416465" lon="11.103960024910338"><ele>527.0</ele><time>2026-04-25T14:06:19.988Z</time></trkpt><trkpt lat="45.5246655041917" lon="11.104094005583086"><ele>527.5</ele><time>2026-04-25T14:06:20.988Z</time></trkpt><trkpt lat="45.52458371780488" lon="11.104242632140084"><ele>528.0</ele><time>2026-04-25T14:06:21.988Z</time></trkpt><trkpt lat="45.52450069815751" lon="11.104389138516764"><ele>528.5</ele><time>2026-04-25T14:06:22.988Z</time></trkpt><trkpt lat="45.524429843875375" lon="11.104531039119427"><ele>529.0</ele><time>2026-04-25T14:06:23.988Z</time></trkpt><trkpt lat="45.52439384770138" lon="11.10469314095509"><ele>529.0</ele><time>2026-04-25T14:06:24.988Z</time></trkpt><trkpt lat="45.524384548954565" lon="11.10488123284274"><ele>529.0</ele><time>2026-04-25T14:06:25.988Z</time></trkpt><trkpt lat="45.52440000433038" lon="11.10505674419871"><ele>529.0</ele><time>2026-04-25T14:06:26.988Z</time></trkpt><trkpt lat="45.524407911141616" lon="11.105234306721666"><ele>529.0</ele><time>2026-04-25T14:06:27.988Z</time></trkpt><trkpt lat="45.524393695066124" lon="11.105403961632359"><ele>526.75</ele><time>2026-04-25T14:06:28.988Z</time></trkpt><trkpt lat="45.52433434872577" lon="11.10555523574221"><ele>524.5</ele><time>2026-04-25T14:06:29.988Z</time></trkpt><trkpt lat="45.52426327997801" lon="11.10569306543017"><ele>522.25</ele><time>2026-04-25T14:06:30.988Z</time></trkpt><trkpt lat="45.52418629076154" lon="11.105838582420722"><ele>520.0</ele><time>2026-04-25T14:06:31.988Z</time></trkpt><trkpt lat="45.524126744956064" lon="11.105931886750527"><ele>517.25</ele><time>2026-04-25T14:06:32.989Z</time></trkpt><trkpt lat="45.52401948172481" lon="11.105977703508145"><ele>514.5</ele><time>2026-04-25T14:06:33.989Z</time></trkpt><trkpt lat="45.52386913315714" lon="11.105990463637578"><ele>511.75</ele><time>2026-04-25T14:06:34.988Z</time></trkpt><trkpt lat="45.523725680659176" lon="11.105983292650034"><ele>509.0</ele><time>2026-04-25T14:06:35.988Z</time></trkpt><trkpt lat="45.52360405205234" lon="11.105937073051729"><ele>507.0</ele><time>2026-04-25T14:06:36.988Z</time></trkpt><trkpt lat="45.52349187955485" lon="11.105858844838892"><ele>505.0</ele><time>2026-04-25T14:06:37.988Z</time></trkpt><trkpt lat="45.52339663723016" lon="11.105764209189475"><ele>503.0</ele><time>2026-04-25T14:06:38.988Z</time></trkpt><trkpt lat="45.52330448012054" lon="11.105662280439109"><ele>501.0</ele><time>2026-04-25T14:06:39.988Z</time></trkpt><trkpt lat="45.52320825080473" lon="11.105614638916226"><ele>502.75</ele><time>2026-04-25T14:06:40.988Z</time></trkpt><trkpt lat="45.52309561325863" lon="11.105618314857464"><ele>504.5</ele><time>2026-04-25T14:06:41.988Z</time></trkpt><trkpt lat="45.52298282744659" lon="11.10564303573116"><ele>506.25</ele><time>2026-04-25T14:06:42.988Z</time></trkpt><trkpt lat="45.52286153899525" lon="11.105678390785252"><ele>508.0</ele><time>2026-04-25T14:06:43.988Z</time></trkpt><trkpt lat="45.52273837817873" lon="11.105701877717943"><ele>508.0</ele><time>2026-04-25T14:06:44.988Z</time></trkpt><trkpt lat="45.52260309184505" lon="11.105723509822113"><ele>508.0</ele><time>2026-04-25T14:06:45.988Z</time></trkpt><trkpt lat="45.52244942122644" lon="11.105751876995004"><ele>508.0</ele><time>2026-04-25T14:06:46.988Z</time></trkpt><trkpt lat="45.522300560811665" lon="11.105802687844943"><ele>508.0</ele><time>2026-04-25T14:06:47.988Z</time></trkpt><trkpt lat="45.52214528858912" lon="11.105860716691105"><ele>502.5</ele><time>2026-04-25T14:06:48.988Z</time></trkpt><trkpt lat="45.52201216404207" lon="11.105924594736132"><ele>497.0</ele><time>2026-04-25T14:06:49.988Z</time></trkpt><trkpt lat="45.5218793034678" lon="11.105989625487162"><ele>491.5</ele><time>2026-04-25T14:06:50.988Z</time></trkpt><trkpt lat="45.521747969492935" lon="11.106054378421284"><ele>486.0</ele><time>2026-04-25T14:06:51.988Z</time></trkpt><trkpt lat="45.521617152764094" lon="11.106091726611288"><ele>486.0</ele><time>2026-04-25T14:06:52.988Z</time></trkpt><trkpt lat="45.521493293807865" lon="11.10609193967404"><ele>486.0</ele><time>2026-04-25T14:06:53.988Z</time></trkpt><trkpt lat="45.521373120835996" lon="11.106044152560353"><ele>486.0</ele><time>2026-04-25T14:06:54.988Z</time></trkpt><trkpt lat="45.521250436930366" lon="11.105969811840282"><ele>486.0</ele><time>2026-04-25T14:06:55.988Z</time></trkpt><trkpt lat="45.521129288035795" lon="11.105873787614692"><ele>487.66666666666663</ele><time>2026-04-25T14:06:56.988Z</time></trkpt><trkpt lat="45.5210010206399" lon="11.105782683466288"><ele>489.3333333333333</ele><time>2026-04-25T14:06:57.988Z</time></trkpt><trkpt lat="45.52085938421667" lon="11.105737200464617"><ele>491.0</ele><time>2026-04-25T14:06:58.988Z</time></trkpt><trkpt lat="45.520698423087374" lon="11.105727813093802"><ele>487.0</ele><time>2026-04-25T14:06:59.988Z</time></trkpt><trkpt lat="45.520538444387256" lon="11.105747141825578"><ele>483.0</ele><time>2026-04-25T14:07:00.988Z</time></trkpt><trkpt lat="45.52038389028413" lon="11.105777945275173"><ele>479.0</ele><time>2026-04-25T14:07:01.988Z</time></trkpt><trkpt lat="45.520242926961274" lon="11.105806116050674"><ele>478.5</ele><time>2026-04-25T14:07:02.988Z</time></trkpt><trkpt lat="45.52010024494649" lon="11.105834062309134"><ele>478.0</ele><time>2026-04-25T14:07:03.988Z</time></trkpt><trkpt lat="45.51996145393969" lon="11.10585244994485"><ele>477.5</ele><time>2026-04-25T14:07:04.988Z</time></trkpt><trkpt lat="45.51984066836474" lon="11.105878450608865"><ele>477.0</ele><time>2026-04-25T14:07:05.988Z</time></trkpt><trkpt lat="45.51972011770256" lon="11.105905906872904"><ele>477.0</ele><time>2026-04-25T14:07:06.988Z</time></trkpt><trkpt lat="45.51961588682384" lon="11.105928805399895"><ele>477.00000000000006</ele><time>2026-04-25T14:07:07.988Z</time></trkpt><trkpt lat="45.51950944484693" lon="11.105933587557656"><ele>477.00000000000006</ele><time>2026-04-25T14:07:08.988Z</time></trkpt><trkpt lat="45.51940757817144" lon="11.105963011750308"><ele>477.0</ele><time>2026-04-25T14:07:09.988Z</time></trkpt><trkpt lat="45.519322397411656" lon="11.105980250938902"><ele>477.0</ele><time>2026-04-25T14:07:10.988Z</time></trkpt><trkpt lat="45.51924604808737" lon="11.105984732142414"><ele>477.0</ele><time>2026-04-25T14:07:11.988Z</time></trkpt><trkpt lat="45.51916807075322" lon="11.105945252270121"><ele>477.0</ele><time>2026-04-25T14:07:12.988Z</time></trkpt><trkpt lat="45.51908810470158" lon="11.10592753732954"><ele>477.0</ele><time>2026-04-25T14:07:13.988Z</time></trkpt><trkpt lat="45.519009243014786" lon="11.105952840357572"><ele>477.0</ele><time>2026-04-25T14:07:15.988Z</time></trkpt><trkpt lat="45.51893758911526" lon="11.105955775079172"><ele>477.0</ele><time>2026-04-25T14:07:18.988Z</time></trkpt><trkpt lat="45.518855893246375" lon="11.105952732618578"><ele>477.0</ele><time>2026-04-25T14:07:48.988Z</time></trkpt><trkpt lat="45.51879236413166" lon="11.105968994149238"><ele>480.0</ele><time>2026-04-25T14:07:52.988Z</time></trkpt><trkpt lat="45.51873544322459" lon="11.105639283593217"><ele>483.0</ele><time>2026-04-25T14:07:59.988Z</time></trkpt><trkpt lat="45.518696351035075" lon="11.105465461657099"><ele>486.0</ele><time>2026-04-25T14:08:01.988Z</time></trkpt><trkpt lat="45.5186703854533" lon="11.10534629720489"><ele>483.20000000000005</ele><time>2026-04-25T14:08:02.988Z</time></trkpt><trkpt lat="45.51864146780922" lon="11.105218502565155"><ele>480.40000000000003</ele><time>2026-04-25T14:08:03.988Z</time></trkpt><trkpt lat="45.51861116595221" lon="11.10508466971379"><ele>477.6</ele><time>2026-04-25T14:08:04.988Z</time></trkpt><trkpt lat="45.518563943762736" lon="11.104932442548348"><ele>474.8</ele><time>2026-04-25T14:08:05.988Z</time></trkpt><trkpt lat="45.5185313906692" lon="11.10479548647892"><ele>472.0</ele><time>2026-04-25T14:08:06.988Z</time></trkpt><trkpt lat="45.51848909805536" lon="11.104682377316225"><ele>472.00000000000006</ele><time>2026-04-25T14:08:07.988Z</time></trkpt><trkpt lat="45.51844364228226" lon="11.104590529386812"><ele>472.0</ele><time>2026-04-25T14:08:08.988Z</time></trkpt><trkpt lat="45.51839482248601" lon="11.10451626953742"><ele>472.0</ele><time>2026-04-25T14:08:09.988Z</time></trkpt><trkpt lat="45.51837216233812" lon="11.104427005412777"><ele>472.0</ele><time>2026-04-25T14:08:10.988Z</time></trkpt><trkpt lat="45.518337916266" lon="11.104330566441208"><ele>472.00000000000006</ele><time>2026-04-25T14:08:11.988Z</time></trkpt><trkpt lat="45.518314627902775" lon="11.104239629867534"><ele>472.0</ele><time>2026-04-25T14:08:12.987Z</time></trkpt><trkpt lat="45.51825177126389" lon="11.104064743641775"><ele>473.6</ele><time>2026-04-25T14:08:14.987Z</time></trkpt><trkpt lat="45.51818338110975" lon="11.103952451614525"><ele>475.20000000000005</ele><time>2026-04-25T14:08:15.987Z</time></trkpt><trkpt lat="45.5181088862632" lon="11.103837335916953"><ele>476.8</ele><time>2026-04-25T14:08:16.987Z</time></trkpt><trkpt lat="45.518036545481955" lon="11.103723793152822"><ele>478.4</ele><time>2026-04-25T14:08:17.987Z</time></trkpt><trkpt lat="45.517971928976024" lon="11.103619265770694"><ele>480.0</ele><time>2026-04-25T14:08:18.987Z</time></trkpt><trkpt lat="45.517909709020316" lon="11.103516340329552"><ele>477.4</ele><time>2026-04-25T14:08:19.987Z</time></trkpt><trkpt lat="45.51784478714956" lon="11.10342291612275"><ele>474.8</ele><time>2026-04-25T14:08:20.987Z</time></trkpt><trkpt lat="45.51777344248647" lon="11.103330547477752"><ele>472.20000000000005</ele><time>2026-04-25T14:08:21.987Z</time></trkpt><trkpt lat="45.51771388561535" lon="11.103235746502826"><ele>469.6</ele><time>2026-04-25T14:08:22.987Z</time></trkpt><trkpt lat="45.51764729554075" lon="11.103139958546983"><ele>467.0</ele><time>2026-04-25T14:08:23.987Z</time></trkpt><trkpt lat="45.51759397395022" lon="11.103022560462486"><ele>467.0</ele><time>2026-04-25T14:08:24.987Z</time></trkpt><trkpt lat="45.51754525523609" lon="11.102897560758082"><ele>467.00000000000006</ele><time>2026-04-25T14:08:25.987Z</time></trkpt><trkpt lat="45.51752996677905" lon="11.102777143079093"><ele>467.00000000000006</ele><time>2026-04-25T14:08:26.987Z</time></trkpt><trkpt lat="45.51749851585864" lon="11.102678331273175"><ele>467.0</ele><time>2026-04-25T14:08:27.987Z</time></trkpt><trkpt lat="45.51749413120535" lon="11.102491709245207"><ele>467.0</ele><time>2026-04-25T14:08:29.987Z</time></trkpt><trkpt lat="45.517508666097626" lon="11.102389593663526"><ele>469.6</ele><time>2026-04-25T14:08:30.987Z</time></trkpt><trkpt lat="45.51755599626483" lon="11.102222153724975"><ele>472.20000000000005</ele><time>2026-04-25T14:08:32.987Z</time></trkpt><trkpt lat="45.51751837227008" lon="11.102110982875395"><ele>474.8</ele><time>2026-04-25T14:08:34.987Z</time></trkpt><trkpt lat="45.517464697812386" lon="11.101985307300394"><ele>477.4</ele><time>2026-04-25T14:08:36.987Z</time></trkpt><trkpt lat="45.51742487487955" lon="11.10189890702439"><ele>480.0</ele><time>2026-04-25T14:08:37.988Z</time></trkpt><trkpt lat="45.517399855835144" lon="11.101811065496596"><ele>480.0</ele><time>2026-04-25T14:08:38.987Z</time></trkpt><trkpt lat="45.51741585048564" lon="11.101636245089695"><ele>480.0</ele><time>2026-04-25T14:08:40.988Z</time></trkpt><trkpt lat="45.5174386308239" lon="11.101540823872396"><ele>480.0</ele><time>2026-04-25T14:08:41.988Z</time></trkpt><trkpt lat="45.51746831444345" lon="11.10142823736134"><ele>480.0</ele><time>2026-04-25T14:08:42.988Z</time></trkpt><trkpt lat="45.5175001779374" lon="11.101319266459166"><ele>480.0</ele><time>2026-04-25T14:08:43.987Z</time></trkpt><trkpt lat="45.5175171118265" lon="11.101209343367401"><ele>480.0</ele><time>2026-04-25T14:08:44.987Z</time></trkpt><trkpt lat="45.51748020808175" lon="11.101108402398978"><ele>483.4</ele><time>2026-04-25T14:08:46.987Z</time></trkpt><trkpt lat="45.517390415263186" lon="11.101034226126822"><ele>486.8</ele><time>2026-04-25T14:08:48.988Z</time></trkpt><trkpt lat="45.517306771095676" lon="11.101046597444471"><ele>490.20000000000005</ele><time>2026-04-25T14:08:49.987Z</time></trkpt><trkpt lat="45.51719193302163" lon="11.101068241173893"><ele>493.6</ele><time>2026-04-25T14:08:51.988Z</time></trkpt><trkpt lat="45.51711736790257" lon="11.101129733958269"><ele>497.0</ele><time>2026-04-25T14:08:53.988Z</time></trkpt><trkpt lat="45.517065642033515" lon="11.10105170545272"><ele>496.99999999999994</ele><time>2026-04-25T14:08:56.988Z</time></trkpt><trkpt lat="45.51711838848521" lon="11.100917160286759"><ele>497.0</ele><time>2026-04-25T14:09:00.988Z</time></trkpt><trkpt lat="45.51707004571288" lon="11.100842801971952"><ele>497.0</ele><time>2026-04-25T14:09:02.988Z</time></trkpt><trkpt lat="45.51700506812723" lon="11.10078817846475"><ele>497.0</ele><time>2026-04-25T14:09:04.988Z</time></trkpt><trkpt lat="45.51695203322912" lon="11.100714531799513"><ele>496.99999999999994</ele><time>2026-04-25T14:09:06.988Z</time></trkpt><trkpt lat="45.51694998514019" lon="11.100554212415753"><ele>497.0</ele><time>2026-04-25T14:09:08.988Z</time></trkpt><trkpt lat="45.51697112032387" lon="11.100464687154732"><ele>500.6</ele><time>2026-04-25T14:09:09.988Z</time></trkpt><trkpt lat="45.51702606006254" lon="11.100337608856348"><ele>504.20000000000005</ele><time>2026-04-25T14:09:11.988Z</time></trkpt><trkpt lat="45.51710519330432" lon="11.100243105270899"><ele>507.8</ele><time>2026-04-25T14:09:13.988Z</time></trkpt><trkpt lat="45.517139772007546" lon="11.100112193941511"><ele>511.4</ele><time>2026-04-25T14:09:15.988Z</time></trkpt><trkpt lat="45.5171009694201" lon="11.100020159606974"><ele>515.0</ele><time>2026-04-25T14:09:17.988Z</time></trkpt><trkpt lat="45.51704955011521" lon="11.099892207673374"><ele>517.5</ele><time>2026-04-25T14:09:19.988Z</time></trkpt><trkpt lat="45.517015108835274" lon="11.099789176798646"><ele>520.0</ele><time>2026-04-25T14:09:20.988Z</time></trkpt><trkpt lat="45.51698722231597" lon="11.099668557172304"><ele>522.5</ele><time>2026-04-25T14:09:21.988Z</time></trkpt><trkpt lat="45.516947438511586" lon="11.099544294760557"><ele>525.0</ele><time>2026-04-25T14:09:22.988Z</time></trkpt><trkpt lat="45.5169279338461" lon="11.099456183937049"><ele>527.5</ele><time>2026-04-25T14:09:23.988Z</time></trkpt><trkpt lat="45.5168858388668" lon="11.099384311885931"><ele>530.0</ele><time>2026-04-25T14:09:24.988Z</time></trkpt><trkpt lat="45.51676762754267" lon="11.099295774919762"><ele>530.0</ele><time>2026-04-25T14:09:26.988Z</time></trkpt><trkpt lat="45.51667924532019" lon="11.099206395157895"><ele>530.0</ele><time>2026-04-25T14:09:27.988Z</time></trkpt><trkpt lat="45.51659769957292" lon="11.099088805558784"><ele>530.0</ele><time>2026-04-25T14:09:28.988Z</time></trkpt><trkpt lat="45.5165306137865" lon="11.099009436506933"><ele>530.0</ele><time>2026-04-25T14:09:29.988Z</time></trkpt><trkpt lat="45.51647239532923" lon="11.098872717167866"><ele>530.0</ele><time>2026-04-25T14:09:31.988Z</time></trkpt><trkpt lat="45.51640045738134" lon="11.098645320323358"><ele>533.8</ele><time>2026-04-25T14:09:33.988Z</time></trkpt><trkpt lat="45.51636692819258" lon="11.098520789589065"><ele>537.6</ele><time>2026-04-25T14:09:34.988Z</time></trkpt><trkpt lat="45.51631383882628" lon="11.098368209789472"><ele>541.4</ele><time>2026-04-25T14:09:35.988Z</time></trkpt><trkpt lat="45.51624696532759" lon="11.098267433335481"><ele>545.2</ele><time>2026-04-25T14:09:36.988Z</time></trkpt><trkpt lat="45.516178121760845" lon="11.098179415233576"><ele>549.0</ele><time>2026-04-25T14:09:37.988Z</time></trkpt><trkpt lat="45.51611652002403" lon="11.09809562888625"><ele>547.8</ele><time>2026-04-25T14:09:38.988Z</time></trkpt><trkpt lat="45.516036838696806" lon="11.098132514513836"><ele>546.5999999999999</ele><time>2026-04-25T14:09:42.987Z</time></trkpt><trkpt lat="45.515933660040744" lon="11.098184679722511"><ele>545.4</ele><time>2026-04-25T14:09:44.987Z</time></trkpt><trkpt lat="45.51585730126208" lon="11.098261024595107"><ele>544.1999999999999</ele><time>2026-04-25T14:09:45.987Z</time></trkpt><trkpt lat="45.515775542265715" lon="11.098347044986864"><ele>543.0</ele><time>2026-04-25T14:09:47.987Z</time></trkpt><trkpt lat="45.51572033055535" lon="11.098401728524658"><ele>543.0</ele><time>2026-04-25T14:09:49.987Z</time></trkpt><trkpt lat="45.51563946867729" lon="11.098436288019759"><ele>543.0</ele><time>2026-04-25T14:09:50.987Z</time></trkpt><trkpt lat="45.51559260757192" lon="11.09850609147019"><ele>543.0</ele><time>2026-04-25T14:09:51.987Z</time></trkpt><trkpt lat="45.51553363925552" lon="11.09859239238557"><ele>543.0</ele><time>2026-04-25T14:09:53.987Z</time></trkpt><trkpt lat="45.515455382646394" lon="11.098690731312159"><ele>543.0</ele><time>2026-04-25T14:09:55.987Z</time></trkpt><trkpt lat="45.515396709922136" lon="11.098736584941252"><ele>543.0</ele><time>2026-04-25T14:09:56.987Z</time></trkpt><trkpt lat="45.51529809826877" lon="11.098852105965468"><ele>548.4</ele><time>2026-04-25T14:09:58.987Z</time></trkpt><trkpt lat="45.515237735441204" lon="11.098964393412732"><ele>553.8</ele><time>2026-04-25T14:10:00.987Z</time></trkpt><trkpt lat="45.515133363915254" lon="11.098926515246488"><ele>559.2</ele><time>2026-04-25T14:10:02.987Z</time></trkpt><trkpt lat="45.51502888826144" lon="11.098879794212381"><ele>564.6</ele><time>2026-04-25T14:10:04.987Z</time></trkpt><trkpt lat="45.514965683513275" lon="11.098802362116595"><ele>570.0</ele><time>2026-04-25T14:10:06.987Z</time></trkpt><trkpt lat="45.514887183819134" lon="11.098882394222269"><ele>570.0</ele><time>2026-04-25T14:10:08.987Z</time></trkpt><trkpt lat="45.51482455837356" lon="11.098926052096417"><ele>570.0</ele><time>2026-04-25T14:10:09.987Z</time></trkpt><trkpt lat="45.51477268718291" lon="11.09897931013735"><ele>570.0</ele><time>2026-04-25T14:10:10.987Z</time></trkpt><trkpt lat="45.51469377049437" lon="11.099035161321426"><ele>570.0</ele><time>2026-04-25T14:10:11.987Z</time></trkpt><trkpt lat="45.51461920482465" lon="11.09909473355022"><ele>570.0</ele><time>2026-04-25T14:10:12.987Z</time></trkpt><trkpt lat="45.51456400211696" lon="11.099144520768721"><ele>570.0</ele><time>2026-04-25T14:10:13.987Z</time></trkpt><trkpt lat="45.514486709537515" lon="11.099186802782251"><ele>570.1666666666666</ele><time>2026-04-25T14:10:14.987Z</time></trkpt><trkpt lat="45.51437556183641" lon="11.09922595972918"><ele>570.3333333333334</ele><time>2026-04-25T14:10:15.987Z</time></trkpt><trkpt lat="45.51429129199054" lon="11.0992553004777"><ele>570.5</ele><time>2026-04-25T14:10:16.987Z</time></trkpt><trkpt lat="45.514237893759734" lon="11.099302932109202"><ele>570.6666666666667</ele><time>2026-04-25T14:10:17.987Z</time></trkpt><trkpt lat="45.514170888645594" lon="11.099376789332727"><ele>570.8333333333334</ele><time>2026-04-25T14:10:18.987Z</time></trkpt><trkpt lat="45.514113101579824" lon="11.099463163308739"><ele>571.0</ele><time>2026-04-25T14:10:19.987Z</time></trkpt><trkpt lat="45.514054793025565" lon="11.099545915592866"><ele>571.0</ele><time>2026-04-25T14:10:20.987Z</time></trkpt><trkpt lat="45.51398317509065" lon="11.09963134899033"><ele>571.0</ele><time>2026-04-25T14:10:21.987Z</time></trkpt><trkpt lat="45.51392456587722" lon="11.099699374322826"><ele>571.0</ele><time>2026-04-25T14:10:22.987Z</time></trkpt><trkpt lat="45.51381142430035" lon="11.09979193814545"><ele>571.0</ele><time>2026-04-25T14:10:24.987Z</time></trkpt><trkpt lat="45.51374636043356" lon="11.099887945763994"><ele>571.0</ele><time>2026-04-25T14:10:25.987Z</time></trkpt><trkpt lat="45.51369349269693" lon="11.099942748142038"><ele>567.5</ele><time>2026-04-25T14:10:26.987Z</time></trkpt><trkpt lat="45.51355536753019" lon="11.100024419576327"><ele>564.0</ele><time>2026-04-25T14:10:28.987Z</time></trkpt><trkpt lat="45.51342735600287" lon="11.100133788132114"><ele>560.5</ele><time>2026-04-25T14:10:30.987Z</time></trkpt><trkpt lat="45.513357640053876" lon="11.10018912974379"><ele>557.0</ele><time>2026-04-25T14:10:31.987Z</time></trkpt><trkpt lat="45.51327581525329" lon="11.10022204285011"><ele>557.0</ele><time>2026-04-25T14:10:32.987Z</time></trkpt><trkpt lat="45.51318763952344" lon="11.100207930516287"><ele>557.0</ele><time>2026-04-25T14:10:34.987Z</time></trkpt><trkpt lat="45.513150771628275" lon="11.100112064559644"><ele>557.0</ele><time>2026-04-25T14:10:36.987Z</time></trkpt><trkpt lat="45.513139217121406" lon="11.100023418527929"><ele>557.0</ele><time>2026-04-25T14:10:38.987Z</time></trkpt><trkpt lat="45.51313413586512" lon="11.099865667650775"><ele>557.0</ele><time>2026-04-25T14:10:41.987Z</time></trkpt><trkpt lat="45.51310633648416" lon="11.099754749741315"><ele>557.0</ele><time>2026-04-25T14:10:43.987Z</time></trkpt><trkpt lat="45.513084124054906" lon="11.099639557075214"><ele>559.8333333333333</ele><time>2026-04-25T14:10:46.987Z</time></trkpt><trkpt lat="45.51304340058431" lon="11.09954172577691"><ele>562.6666666666666</ele><time>2026-04-25T14:10:48.987Z</time></trkpt><trkpt lat="45.51300497311572" lon="11.09946893755181"><ele>565.5</ele><time>2026-04-25T14:10:50.987Z</time></trkpt><trkpt lat="45.51294719831365" lon="11.099383649031335"><ele>568.3333333333334</ele><time>2026-04-25T14:10:52.987Z</time></trkpt><trkpt lat="45.512896302844" lon="11.09932733725143"><ele>571.1666666666667</ele><time>2026-04-25T14:10:54.986Z</time></trkpt><trkpt lat="45.51282172155283" lon="11.099237713930554"><ele>574.0</ele><time>2026-04-25T14:10:56.986Z</time></trkpt><trkpt lat="45.51275228508883" lon="11.099145111850778"><ele>574.0</ele><time>2026-04-25T14:10:58.986Z</time></trkpt><trkpt lat="45.51269502333441" lon="11.099089989019864"><ele>574.0</ele><time>2026-04-25T14:10:59.986Z</time></trkpt><trkpt lat="45.51264638688954" lon="11.099023658437181"><ele>574.0</ele><time>2026-04-25T14:11:01.986Z</time></trkpt><trkpt lat="45.51259630565418" lon="11.09888219808599"><ele>574.0</ele><time>2026-04-25T14:11:03.986Z</time></trkpt><trkpt lat="45.512575794253785" lon="11.098794708947855"><ele>574.0</ele><time>2026-04-25T14:11:04.986Z</time></trkpt><trkpt lat="45.51252845458651" lon="11.09870582789769"><ele>574.0</ele><time>2026-04-25T14:11:06.986Z</time></trkpt><trkpt lat="45.51245691710658" lon="11.098637278753166"><ele>577.4</ele><time>2026-04-25T14:11:08.986Z</time></trkpt><trkpt lat="45.51236825412331" lon="11.098544423571811"><ele>580.8</ele><time>2026-04-25T14:11:10.986Z</time></trkpt><trkpt lat="45.51226928608874" lon="11.098489024763667"><ele>584.2</ele><time>2026-04-25T14:11:13.986Z</time></trkpt><trkpt lat="45.512200318322115" lon="11.098465064209238"><ele>587.6</ele><time>2026-04-25T14:11:14.986Z</time></trkpt><trkpt lat="45.51213327680103" lon="11.09841238668888"><ele>591.0</ele><time>2026-04-25T14:11:15.986Z</time></trkpt><trkpt lat="45.5120311039711" lon="11.098301093350532"><ele>596.2</ele><time>2026-04-25T14:11:16.986Z</time></trkpt><trkpt lat="45.511932440203005" lon="11.098217734721468"><ele>601.4000000000001</ele><time>2026-04-25T14:11:17.986Z</time></trkpt><trkpt lat="45.51183525917243" lon="11.098128579981022"><ele>606.6</ele><time>2026-04-25T14:11:19.986Z</time></trkpt><trkpt lat="45.511770167552655" lon="11.098085579835582"><ele>611.8000000000001</ele><time>2026-04-25T14:11:20.986Z</time></trkpt><trkpt lat="45.51168187827796" lon="11.09803308414135"><ele>617.0</ele><time>2026-04-25T14:11:22.986Z</time></trkpt><trkpt lat="45.5116170128457" lon="11.09796751800769"><ele>617.0</ele><time>2026-04-25T14:11:23.986Z</time></trkpt><trkpt lat="45.511541788440965" lon="11.097868796576007"><ele>617.0</ele><time>2026-04-25T14:11:24.986Z</time></trkpt><trkpt lat="45.51147928408719" lon="11.097779249366393"><ele>617.0</ele><time>2026-04-25T14:11:25.986Z</time></trkpt><trkpt lat="45.511393764959415" lon="11.097707817873081"><ele>617.0</ele><time>2026-04-25T14:11:26.986Z</time></trkpt><trkpt lat="45.51132815712251" lon="11.097656857257583"><ele>617.0</ele><time>2026-04-25T14:11:27.986Z</time></trkpt><trkpt lat="45.51125993987608" lon="11.097573532547802"><ele>614.8000000000001</ele><time>2026-04-25T14:11:28.986Z</time></trkpt><trkpt lat="45.51117618505831" lon="11.097537992981025"><ele>612.6</ele><time>2026-04-25T14:11:29.986Z</time></trkpt><trkpt lat="45.51107537124878" lon="11.097529762139535"><ele>610.4000000000001</ele><time>2026-04-25T14:11:30.986Z</time></trkpt><trkpt lat="45.5109560258212" lon="11.097525240532779"><ele>608.2</ele><time>2026-04-25T14:11:31.986Z</time></trkpt><trkpt lat="45.510864549446936" lon="11.097534639307002"><ele>606.0</ele><time>2026-04-25T14:11:32.986Z</time></trkpt><trkpt lat="45.510793652725255" lon="11.097514624604965"><ele>606.0</ele><time>2026-04-25T14:11:33.986Z</time></trkpt><trkpt lat="45.51067275941951" lon="11.09749803434187"><ele>606.0</ele><time>2026-04-25T14:11:34.986Z</time></trkpt><trkpt lat="45.510561738244704" lon="11.097463356769651"><ele>606.0</ele><time>2026-04-25T14:11:35.986Z</time></trkpt><trkpt lat="45.51045936380797" lon="11.097419012505425"><ele>606.0</ele><time>2026-04-25T14:11:36.986Z</time></trkpt><trkpt lat="45.510366366474564" lon="11.097394285981899"><ele>606.0</ele><time>2026-04-25T14:11:37.986Z</time></trkpt><trkpt lat="45.51025032459116" lon="11.097344468578065"><ele>610.5</ele><time>2026-04-25T14:11:38.986Z</time></trkpt><trkpt lat="45.510126886268736" lon="11.09729005323993"><ele>615.0</ele><time>2026-04-25T14:11:39.986Z</time></trkpt><trkpt lat="45.51001384702885" lon="11.097229853265924"><ele>619.5</ele><time>2026-04-25T14:11:40.986Z</time></trkpt><trkpt lat="45.50988803164338" lon="11.097169981856574"><ele>624.0</ele><time>2026-04-25T14:11:41.986Z</time></trkpt><trkpt lat="45.509801492520616" lon="11.09712494276961"><ele>624.0</ele><time>2026-04-25T14:11:42.986Z</time></trkpt><trkpt lat="45.5096700638443" lon="11.09707517617818"><ele>624.0</ele><time>2026-04-25T14:11:44.986Z</time></trkpt><trkpt lat="45.50956712192572" lon="11.097062570758046"><ele>624.0</ele><time>2026-04-25T14:11:45.986Z</time></trkpt><trkpt lat="45.50944894404727" lon="11.097057479300757"><ele>624.0</ele><time>2026-04-25T14:11:46.986Z</time></trkpt><trkpt lat="45.509313281188724" lon="11.097063939393712"><ele>624.0</ele><time>2026-04-25T14:11:47.986Z</time></trkpt><trkpt lat="45.5092022214442" lon="11.097037790462045"><ele>624.0</ele><time>2026-04-25T14:11:48.986Z</time></trkpt><trkpt lat="45.50910380497613" lon="11.097033818007123"><ele>624.0</ele><time>2026-04-25T14:11:49.986Z</time></trkpt><trkpt lat="45.5090135622068" lon="11.097007067911337"><ele>624.0</ele><time>2026-04-25T14:11:50.986Z</time></trkpt><trkpt lat="45.508888826131965" lon="11.096987665162969"><ele>624.0</ele><time>2026-04-25T14:11:51.986Z</time></trkpt><trkpt lat="45.508797149303746" lon="11.096943938469236"><ele>622.75</ele><time>2026-04-25T14:11:52.986Z</time></trkpt><trkpt lat="45.508733655447806" lon="11.096914226553205"><ele>621.5</ele><time>2026-04-25T14:11:54.986Z</time></trkpt><trkpt lat="45.50864467515481" lon="11.096714288298593"><ele>620.25</ele><time>2026-04-25T14:12:03.986Z</time></trkpt><trkpt lat="45.508676496962174" lon="11.09655240488132"><ele>619.0</ele><time>2026-04-25T14:12:05.986Z</time></trkpt><trkpt lat="45.50869830794129" lon="11.096387911592874"><ele>618.8333333333334</ele><time>2026-04-25T14:12:07.986Z</time></trkpt><trkpt lat="45.50869312590616" lon="11.096269767865"><ele>618.6666666666667</ele><time>2026-04-25T14:12:09.986Z</time></trkpt><trkpt lat="45.50867996135859" lon="11.096165317519"><ele>618.5</ele><time>2026-04-25T14:12:11.986Z</time></trkpt><trkpt lat="45.508605292622654" lon="11.096116792209882"><ele>618.3333333333334</ele><time>2026-04-25T14:12:13.986Z</time></trkpt><trkpt lat="45.50852264909285" lon="11.09619635246601"><ele>618.1666666666666</ele><time>2026-04-25T14:12:15.986Z</time></trkpt><trkpt lat="45.50846764401529" lon="11.096263971536892"><ele>618.0</ele><time>2026-04-25T14:12:16.986Z</time></trkpt><trkpt lat="45.50839645049432" lon="11.096323151937552"><ele>618.0</ele><time>2026-04-25T14:12:17.986Z</time></trkpt><trkpt lat="45.508325900477764" lon="11.09640252473104"><ele>618.0</ele><time>2026-04-25T14:12:18.986Z</time></trkpt><trkpt lat="45.508268628890114" lon="11.096482142865675"><ele>618.0</ele><time>2026-04-25T14:12:19.986Z</time></trkpt><trkpt lat="45.50821085967676" lon="11.096554235016741"><ele>618.0</ele><time>2026-04-25T14:12:20.986Z</time></trkpt><trkpt lat="45.50811847302078" lon="11.096622174323876"><ele>618.0</ele><time>2026-04-25T14:12:21.986Z</time></trkpt><trkpt lat="45.50803866825305" lon="11.09670731748572"><ele>618.1999999999999</ele><time>2026-04-25T14:12:22.986Z</time></trkpt><trkpt lat="45.507962654563954" lon="11.096794926846254"><ele>618.4</ele><time>2026-04-25T14:12:23.986Z</time></trkpt><trkpt lat="45.50788584535846" lon="11.09688946739504"><ele>618.5999999999999</ele><time>2026-04-25T14:12:24.986Z</time></trkpt><trkpt lat="45.50778296286736" lon="11.096959027339468"><ele>618.8</ele><time>2026-04-25T14:12:25.986Z</time></trkpt><trkpt lat="45.50768595675688" lon="11.097025292497491"><ele>619.0</ele><time>2026-04-25T14:12:26.986Z</time></trkpt><trkpt lat="45.50759039771225" lon="11.097105056720988"><ele>617.4</ele><time>2026-04-25T14:12:27.986Z</time></trkpt><trkpt lat="45.50750918694425" lon="11.09720877852352"><ele>615.8</ele><time>2026-04-25T14:12:28.986Z</time></trkpt><trkpt lat="45.50741038077995" lon="11.097295551733014"><ele>614.2</ele><time>2026-04-25T14:12:29.986Z</time></trkpt><trkpt lat="45.50733051663526" lon="11.097388522445014"><ele>612.6</ele><time>2026-04-25T14:12:30.986Z</time></trkpt><trkpt lat="45.50725437840535" lon="11.097467626760618"><ele>611.0</ele><time>2026-04-25T14:12:31.986Z</time></trkpt><trkpt lat="45.50717948913602" lon="11.097527580174452"><ele>611.0</ele><time>2026-04-25T14:12:32.986Z</time></trkpt><trkpt lat="45.50709520536784" lon="11.097582998380648"><ele>611.0</ele><time>2026-04-25T14:12:33.985Z</time></trkpt><trkpt lat="45.50700035446613" lon="11.097615389801723"><ele>611.0</ele><time>2026-04-25T14:12:34.985Z</time></trkpt><trkpt lat="45.50691287336793" lon="11.097666159905954"><ele>611.0</ele><time>2026-04-25T14:12:35.985Z</time></trkpt><trkpt lat="45.506829905628095" lon="11.097735439735512"><ele>611.0</ele><time>2026-04-25T14:12:36.985Z</time></trkpt><trkpt lat="45.50674954876513" lon="11.097803616834895"><ele>608.6666666666666</ele><time>2026-04-25T14:12:37.985Z</time></trkpt><trkpt lat="45.506675200308145" lon="11.097844045031893"><ele>606.3333333333333</ele><time>2026-04-25T14:12:38.985Z</time></trkpt><trkpt lat="45.506598465564025" lon="11.097898124076451"><ele>604.0</ele><time>2026-04-25T14:12:39.985Z</time></trkpt><trkpt lat="45.50652003653561" lon="11.097957300856377"><ele>601.6666666666666</ele><time>2026-04-25T14:12:40.985Z</time></trkpt><trkpt lat="45.50646030956491" lon="11.09801591038607"><ele>599.3333333333334</ele><time>2026-04-25T14:12:41.985Z</time></trkpt><trkpt lat="45.50640885167183" lon="11.098073147720138"><ele>597.0</ele><time>2026-04-25T14:12:42.985Z</time></trkpt><trkpt lat="45.506316208896926" lon="11.098116048371859"><ele>597.0</ele><time>2026-04-25T14:12:44.985Z</time></trkpt><trkpt lat="45.50628582467545" lon="11.097926242507224"><ele>597.0</ele><time>2026-04-25T14:12:47.985Z</time></trkpt><trkpt lat="45.506284390033706" lon="11.097733931413922"><ele>597.0</ele><time>2026-04-25T14:12:49.987Z</time></trkpt><trkpt lat="45.50630365732982" lon="11.097602613507021"><ele>597.0</ele><time>2026-04-25T14:12:51.986Z</time></trkpt><trkpt lat="45.506321048029626" lon="11.097508583100385"><ele>597.0</ele><time>2026-04-25T14:12:52.987Z</time></trkpt><trkpt lat="45.50635331807992" lon="11.097396115318416"><ele>596.5</ele><time>2026-04-25T14:12:53.987Z</time></trkpt><trkpt lat="45.50636022006375" lon="11.097282054906422"><ele>596.0</ele><time>2026-04-25T14:12:54.987Z</time></trkpt><trkpt lat="45.50634055134135" lon="11.09717771429135"><ele>595.5</ele><time>2026-04-25T14:12:55.987Z</time></trkpt><trkpt lat="45.50632548904311" lon="11.097045312497539"><ele>595.0</ele><time>2026-04-25T14:12:56.987Z</time></trkpt><trkpt lat="45.50632342579917" lon="11.096937032444911"><ele>594.5</ele><time>2026-04-25T14:12:57.987Z</time></trkpt><trkpt lat="45.50629800659321" lon="11.096831719861907"><ele>594.0</ele><time>2026-04-25T14:12:58.987Z</time></trkpt><trkpt lat="45.50628750581411" lon="11.096688941341013"><ele>593.4</ele><time>2026-04-25T14:12:59.987Z</time></trkpt><trkpt lat="45.506259959468636" lon="11.09657990804981"><ele>592.8</ele><time>2026-04-25T14:13:00.987Z</time></trkpt><trkpt lat="45.50619449955178" lon="11.096472648069835"><ele>592.2</ele><time>2026-04-25T14:13:02.987Z</time></trkpt><trkpt lat="45.50610892126119" lon="11.09642069727275"><ele>591.6</ele><time>2026-04-25T14:13:03.987Z</time></trkpt><trkpt lat="45.50595193051615" lon="11.096431527001855"><ele>591.0</ele><time>2026-04-25T14:13:04.987Z</time></trkpt><trkpt lat="45.50582445993007" lon="11.09650592672618"><ele>587.5</ele><time>2026-04-25T14:13:05.987Z</time></trkpt><trkpt lat="45.5056891538282" lon="11.096586597787024"><ele>584.0</ele><time>2026-04-25T14:13:06.987Z</time></trkpt><trkpt lat="45.50556296385109" lon="11.096630826399204"><ele>580.5</ele><time>2026-04-25T14:13:07.987Z</time></trkpt><trkpt lat="45.505457562530594" lon="11.096667027104404"><ele>577.0</ele><time>2026-04-25T14:13:08.987Z</time></trkpt><trkpt lat="45.50537504935752" lon="11.096686942919037"><ele>575.4</ele><time>2026-04-25T14:13:09.987Z</time></trkpt><trkpt lat="45.50530639806333" lon="11.096671622293076"><ele>573.8000000000001</ele><time>2026-04-25T14:13:10.987Z</time></trkpt><trkpt lat="45.50524088039293" lon="11.096632102690245"><ele>572.2</ele><time>2026-04-25T14:13:11.987Z</time></trkpt><trkpt lat="45.505177960784245" lon="11.096538370573173"><ele>570.6</ele><time>2026-04-25T14:13:12.987Z</time></trkpt><trkpt lat="45.50513768933315" lon="11.096362012747726"><ele>569.0</ele><time>2026-04-25T14:13:13.987Z</time></trkpt><trkpt lat="45.5051011923541" lon="11.096156474507385"><ele>568.75</ele><time>2026-04-25T14:13:14.987Z</time></trkpt><trkpt lat="45.50504176471825" lon="11.095973118405542"><ele>568.5</ele><time>2026-04-25T14:13:15.987Z</time></trkpt><trkpt lat="45.50499146989007" lon="11.095810635717065"><ele>568.25</ele><time>2026-04-25T14:13:16.987Z</time></trkpt><trkpt lat="45.504946063813236" lon="11.095649071796299"><ele>568.0</ele><time>2026-04-25T14:13:17.986Z</time></trkpt><trkpt lat="45.50492401991687" lon="11.095483327294748"><ele>566.0</ele><time>2026-04-25T14:13:18.986Z</time></trkpt><trkpt lat="45.50489072169965" lon="11.095310895552402"><ele>564.0</ele><time>2026-04-25T14:13:19.986Z</time></trkpt><trkpt lat="45.50485171189418" lon="11.095160039509663"><ele>562.0</ele><time>2026-04-25T14:13:20.986Z</time></trkpt><trkpt lat="45.50480605800264" lon="11.095004875606005"><ele>560.0</ele><time>2026-04-25T14:13:21.986Z</time></trkpt><trkpt lat="45.50477375263378" lon="11.094856181520594"><ele>559.0</ele><time>2026-04-25T14:13:22.986Z</time></trkpt><trkpt lat="45.50473849592277" lon="11.094709097631894"><ele>558.0</ele><time>2026-04-25T14:13:23.986Z</time></trkpt><trkpt lat="45.504713400206725" lon="11.094560112994095"><ele>557.0</ele><time>2026-04-25T14:13:24.986Z</time></trkpt><trkpt lat="45.50469789882472" lon="11.094427120284625"><ele>556.0</ele><time>2026-04-25T14:13:25.985Z</time></trkpt><trkpt lat="45.504684126752146" lon="11.094319676667165"><ele>555.0</ele><time>2026-04-25T14:13:26.985Z</time></trkpt><trkpt lat="45.5046774402166" lon="11.094227941567118"><ele>555.0</ele><time>2026-04-25T14:13:27.984Z</time></trkpt><trkpt lat="45.504650352348705" lon="11.094126527653016"><ele>555.0</ele><time>2026-04-25T14:13:29.984Z</time></trkpt><trkpt lat="45.50455165290313" lon="11.094064053023226"><ele>555.0</ele><time>2026-04-25T14:13:31.983Z</time></trkpt><trkpt lat="45.50447424590147" lon="11.093966471347498"><ele>555.0</ele><time>2026-04-25T14:13:33.983Z</time></trkpt><trkpt lat="45.50446409340543" lon="11.093848636016599"><ele>555.0</ele><time>2026-04-25T14:13:34.982Z</time></trkpt><trkpt lat="45.504462504260765" lon="11.093710755656486"><ele>554.2</ele><time>2026-04-25T14:13:35.982Z</time></trkpt><trkpt lat="45.50446433500922" lon="11.09356136864318"><ele>553.4</ele><time>2026-04-25T14:13:36.982Z</time></trkpt><trkpt lat="45.50445275384863" lon="11.093423141296572"><ele>552.6</ele><time>2026-04-25T14:13:37.982Z</time></trkpt><trkpt lat="45.504445627448405" lon="11.093274166837821"><ele>551.8</ele><time>2026-04-25T14:13:38.982Z</time></trkpt><trkpt lat="45.50444979081285" lon="11.093108546416431"><ele>551.0</ele><time>2026-04-25T14:13:39.981Z</time></trkpt><trkpt lat="45.50446078275174" lon="11.092944478495827"><ele>549.5</ele><time>2026-04-25T14:13:40.981Z</time></trkpt><trkpt lat="45.50444820489846" lon="11.092763967096483"><ele>548.0</ele><time>2026-04-25T14:13:41.981Z</time></trkpt><trkpt lat="45.50443855554206" lon="11.092595461439128"><ele>546.5</ele><time>2026-04-25T14:13:42.981Z</time></trkpt><trkpt lat="45.50445843944865" lon="11.092443757955447"><ele>545.0</ele><time>2026-04-25T14:13:43.981Z</time></trkpt><trkpt lat="45.50448086512853" lon="11.092287298628849"><ele>543.75</ele><time>2026-04-25T14:13:44.981Z</time></trkpt><trkpt lat="45.50452609407738" lon="11.092132299273628"><ele>542.5</ele><time>2026-04-25T14:13:45.981Z</time></trkpt><trkpt lat="45.50457749278416" lon="11.091949744136562"><ele>541.25</ele><time>2026-04-25T14:13:46.98Z</time></trkpt><trkpt lat="45.5046305249022" lon="11.091773681856775"><ele>540.0</ele><time>2026-04-25T14:13:47.98Z</time></trkpt><trkpt lat="45.50465893914905" lon="11.091581630836309"><ele>539.0</ele><time>2026-04-25T14:13:48.98Z</time></trkpt><trkpt lat="45.504680349140706" lon="11.091379959046115"><ele>538.0</ele><time>2026-04-25T14:13:49.98Z</time></trkpt><trkpt lat="45.504714891065866" lon="11.091224030827485"><ele>537.0</ele><time>2026-04-25T14:13:50.98Z</time></trkpt><trkpt lat="45.50475441107144" lon="11.09107827735348"><ele>536.0</ele><time>2026-04-25T14:13:51.98Z</time></trkpt><trkpt lat="45.50480359297341" lon="11.090934785465617"><ele>536.0</ele><time>2026-04-25T14:13:52.98Z</time></trkpt><trkpt lat="45.50483291506021" lon="11.090787065825289"><ele>536.0</ele><time>2026-04-25T14:13:53.98Z</time></trkpt><trkpt lat="45.504869374329665" lon="11.090640283791647"><ele>536.0</ele><time>2026-04-25T14:13:54.98Z</time></trkpt><trkpt lat="45.50490898526353" lon="11.090494516322426"><ele>536.0</ele><time>2026-04-25T14:13:55.98Z</time></trkpt><trkpt lat="45.50493432956236" lon="11.090336111814493"><ele>536.0</ele><time>2026-04-25T14:13:56.98Z</time></trkpt><trkpt lat="45.50493432990277" lon="11.090180810751894"><ele>535.0</ele><time>2026-04-25T14:13:57.979Z</time></trkpt><trkpt lat="45.504950372672724" lon="11.090083844939091"><ele>534.0</ele><time>2026-04-25T14:13:58.979Z</time></trkpt><trkpt lat="45.50492961151461" lon="11.089973512014604"><ele>533.0</ele><time>2026-04-25T14:13:59.979Z</time></trkpt><trkpt lat="45.50490446378048" lon="11.089865579112129"><ele>532.0</ele><time>2026-04-25T14:14:00.979Z</time></trkpt><trkpt lat="45.504872436726274" lon="11.08977195475982"><ele>531.0</ele><time>2026-04-25T14:14:01.979Z</time></trkpt><trkpt lat="45.504830187828034" lon="11.089687977803731"><ele>530.0</ele><time>2026-04-25T14:14:02.979Z</time></trkpt><trkpt lat="45.504782584865566" lon="11.089606330561006"><ele>529.0</ele><time>2026-04-25T14:14:03.979Z</time></trkpt><trkpt lat="45.5047155082375" lon="11.089549932855125"><ele>526.8</ele><time>2026-04-25T14:14:04.979Z</time></trkpt><trkpt lat="45.50464287751098" lon="11.089507623953988"><ele>524.5999999999999</ele><time>2026-04-25T14:14:05.979Z</time></trkpt><trkpt lat="45.504567341276434" lon="11.08946963694246"><ele>522.4</ele><time>2026-04-25T14:14:06.979Z</time></trkpt><trkpt lat="45.504493753392914" lon="11.089378546134308"><ele>520.1999999999999</ele><time>2026-04-25T14:14:08.979Z</time></trkpt><trkpt lat="45.504533136054185" lon="11.08919288462352"><ele>518.0</ele><time>2026-04-25T14:14:10.979Z</time></trkpt><trkpt lat="45.50455862143001" lon="11.089074641918184"><ele>514.8</ele><time>2026-04-25T14:14:11.979Z</time></trkpt><trkpt lat="45.5045762712985" lon="11.088960074179717"><ele>511.59999999999997</ele><time>2026-04-25T14:14:12.979Z</time></trkpt><trkpt lat="45.50460078289466" lon="11.088852763138824"><ele>508.40000000000003</ele><time>2026-04-25T14:14:13.979Z</time></trkpt><trkpt lat="45.50466552282237" lon="11.088735436910508"><ele>505.20000000000005</ele><time>2026-04-25T14:14:15.979Z</time></trkpt><trkpt lat="45.50477227035162" lon="11.088659158741327"><ele>502.0</ele><time>2026-04-25T14:14:17.979Z</time></trkpt><trkpt lat="45.50486662353965" lon="11.088656361837891"><ele>501.6666666666667</ele><time>2026-04-25T14:14:19.979Z</time></trkpt><trkpt lat="45.50492262854574" lon="11.088578174779663"><ele>501.33333333333337</ele><time>2026-04-25T14:14:22.979Z</time></trkpt><trkpt lat="45.504901223168986" lon="11.088492693746007"><ele>501.0</ele><time>2026-04-25T14:14:23.979Z</time></trkpt><trkpt lat="45.504855843860824" lon="11.088390607718377"><ele>500.66666666666663</ele><time>2026-04-25T14:14:24.979Z</time></trkpt><trkpt lat="45.50481717966851" lon="11.088287225844939"><ele>500.3333333333333</ele><time>2026-04-25T14:14:25.979Z</time></trkpt><trkpt lat="45.50475565498346" lon="11.088194750909306"><ele>500.0</ele><time>2026-04-25T14:14:26.979Z</time></trkpt><trkpt lat="45.50469741314088" lon="11.088096835202624"><ele>498.0</ele><time>2026-04-25T14:14:27.979Z</time></trkpt><trkpt lat="45.50463709770221" lon="11.087992698542426"><ele>496.0</ele><time>2026-04-25T14:14:28.979Z</time></trkpt><trkpt lat="45.504585689620946" lon="11.087875474046136"><ele>494.0</ele><time>2026-04-25T14:14:29.978Z</time></trkpt><trkpt lat="45.504546893128754" lon="11.087751095199728"><ele>492.0</ele><time>2026-04-25T14:14:30.978Z</time></trkpt><trkpt lat="45.50451265269229" lon="11.087619583980153"><ele>490.0</ele><time>2026-04-25T14:14:31.978Z</time></trkpt><trkpt lat="45.50445724189244" lon="11.087531304334052"><ele>490.0</ele><time>2026-04-25T14:14:32.978Z</time></trkpt><trkpt lat="45.5044098413023" lon="11.087429317468146"><ele>490.0</ele><time>2026-04-25T14:14:33.978Z</time></trkpt><trkpt lat="45.50437941872332" lon="11.087312887013995"><ele>490.0</ele><time>2026-04-25T14:14:34.978Z</time></trkpt><trkpt lat="45.50436460732996" lon="11.087176781424194"><ele>490.0</ele><time>2026-04-25T14:14:35.978Z</time></trkpt><trkpt lat="45.50435436911372" lon="11.087028996755347"><ele>490.0</ele><time>2026-04-25T14:14:36.978Z</time></trkpt><trkpt lat="45.5043540188563" lon="11.086885374078184"><ele>485.75</ele><time>2026-04-25T14:14:37.978Z</time></trkpt><trkpt lat="45.504389703329664" lon="11.086739418216794"><ele>481.5</ele><time>2026-04-25T14:14:38.978Z</time></trkpt><trkpt lat="45.50443221555231" lon="11.086566168751547"><ele>477.25</ele><time>2026-04-25T14:14:39.978Z</time></trkpt><trkpt lat="45.504454871966" lon="11.086386427087938"><ele>473.0</ele><time>2026-04-25T14:14:40.978Z</time></trkpt><trkpt lat="45.5044906875943" lon="11.086215654956082"><ele>471.2</ele><time>2026-04-25T14:14:41.978Z</time></trkpt><trkpt lat="45.50453199241347" lon="11.086058572045276"><ele>469.4</ele><time>2026-04-25T14:14:42.978Z</time></trkpt><trkpt lat="45.504551075676666" lon="11.085900412571755"><ele>467.59999999999997</ele><time>2026-04-25T14:14:43.978Z</time></trkpt><trkpt lat="45.50458642846708" lon="11.085768782372545"><ele>465.79999999999995</ele><time>2026-04-25T14:14:44.978Z</time></trkpt><trkpt lat="45.504642221449856" lon="11.085652542395637"><ele>464.0</ele><time>2026-04-25T14:14:45.978Z</time></trkpt><trkpt lat="45.504676583547734" lon="11.085535850417198"><ele>462.2</ele><time>2026-04-25T14:14:46.978Z</time></trkpt><trkpt lat="45.50471819988646" lon="11.085451213808225"><ele>460.4</ele><time>2026-04-25T14:14:47.978Z</time></trkpt><trkpt lat="45.50476151835946" lon="11.085378476583438"><ele>458.6</ele><time>2026-04-25T14:14:48.978Z</time></trkpt><trkpt lat="45.50479982672015" lon="11.085180103581925"><ele>456.8</ele><time>2026-04-25T14:14:50.978Z</time></trkpt><trkpt lat="45.50481235729511" lon="11.08504857542812"><ele>455.0</ele><time>2026-04-25T14:14:51.978Z</time></trkpt><trkpt lat="45.50483332384044" lon="11.084906715349819"><ele>453.0</ele><time>2026-04-25T14:14:52.978Z</time></trkpt><trkpt lat="45.50480255932674" lon="11.084764943063723"><ele>451.0</ele><time>2026-04-25T14:14:53.978Z</time></trkpt><trkpt lat="45.504794121643116" lon="11.08459804111892"><ele>449.0</ele><time>2026-04-25T14:14:54.978Z</time></trkpt><trkpt lat="45.504785037444165" lon="11.084437639928922"><ele>447.0</ele><time>2026-04-25T14:14:55.978Z</time></trkpt><trkpt lat="45.504774097906726" lon="11.084288106772956"><ele>445.0</ele><time>2026-04-25T14:14:56.979Z</time></trkpt><trkpt lat="45.50477163695149" lon="11.084143720887162"><ele>444.2</ele><time>2026-04-25T14:14:57.979Z</time></trkpt><trkpt lat="45.504761499939654" lon="11.083997005530268"><ele>443.4</ele><time>2026-04-25T14:14:58.979Z</time></trkpt><trkpt lat="45.50477756641099" lon="11.083843594750917"><ele>442.6</ele><time>2026-04-25T14:14:59.979Z</time></trkpt><trkpt lat="45.5048131885814" lon="11.083714596718709"><ele>441.8</ele><time>2026-04-25T14:15:00.979Z</time></trkpt><trkpt lat="45.50483434738182" lon="11.083584023573234"><ele>441.0</ele><time>2026-04-25T14:15:01.978Z</time></trkpt><trkpt lat="45.50488097490117" lon="11.083489686665072"><ele>441.0</ele><time>2026-04-25T14:15:02.978Z</time></trkpt><trkpt lat="45.5049275670187" lon="11.083414654923562"><ele>441.0</ele><time>2026-04-25T14:15:03.978Z</time></trkpt><trkpt lat="45.504964664664435" lon="11.083328269610197"><ele>441.0</ele><time>2026-04-25T14:15:04.978Z</time></trkpt><trkpt lat="45.5050314796553" lon="11.083246799638527"><ele>441.0</ele><time>2026-04-25T14:15:06.978Z</time></trkpt><trkpt lat="45.505051401205456" lon="11.083131525261594"><ele>441.0</ele><time>2026-04-25T14:15:09.978Z</time></trkpt><trkpt lat="45.504975301128106" lon="11.083012031742212"><ele>441.0</ele><time>2026-04-25T14:15:11.978Z</time></trkpt><trkpt lat="45.50489423703614" lon="11.082936899841025"><ele>440.0</ele><time>2026-04-25T14:15:12.978Z</time></trkpt><trkpt lat="45.50479684161022" lon="11.082879605043939"><ele>439.0</ele><time>2026-04-25T14:15:13.978Z</time></trkpt><trkpt lat="45.504701727138986" lon="11.082804411861325"><ele>438.0</ele><time>2026-04-25T14:15:14.978Z</time></trkpt><trkpt lat="45.50459802892543" lon="11.082725219909474"><ele>437.0</ele><time>2026-04-25T14:15:15.978Z</time></trkpt><trkpt lat="45.50449915953286" lon="11.08265418417401"><ele>436.0</ele><time>2026-04-25T14:15:16.978Z</time></trkpt><trkpt lat="45.50440519739912" lon="11.08258846739707"><ele>436.0</ele><time>2026-04-25T14:15:17.978Z</time></trkpt><trkpt lat="45.50430602252293" lon="11.082551573369734"><ele>436.0</ele><time>2026-04-25T14:15:18.978Z</time></trkpt><trkpt lat="45.504200479220785" lon="11.082531238195632"><ele>436.0</ele><time>2026-04-25T14:15:19.978Z</time></trkpt><trkpt lat="45.50409687331537" lon="11.08252714840628"><ele>436.0</ele><time>2026-04-25T14:15:20.978Z</time></trkpt><trkpt lat="45.503993486440415" lon="11.082500737255035"><ele>436.0</ele><time>2026-04-25T14:15:21.978Z</time></trkpt><trkpt lat="45.50389360282577" lon="11.082476766859788"><ele>436.0</ele><time>2026-04-25T14:15:22.978Z</time></trkpt><trkpt lat="45.50379361475386" lon="11.082441441664802"><ele>436.0</ele><time>2026-04-25T14:15:23.978Z</time></trkpt><trkpt lat="45.50370717070527" lon="11.082381407761401"><ele>436.0</ele><time>2026-04-25T14:15:24.978Z</time></trkpt><trkpt lat="45.503646136114774" lon="11.082298238396195"><ele>436.0</ele><time>2026-04-25T14:15:25.978Z</time></trkpt><trkpt lat="45.50361213058501" lon="11.082169198156743"><ele>436.0</ele><time>2026-04-25T14:15:26.978Z</time></trkpt><trkpt lat="45.50360123348205" lon="11.082038637421403"><ele>433.1666666666667</ele><time>2026-04-25T14:15:27.978Z</time></trkpt><trkpt lat="45.5036233957629" lon="11.081912590148246"><ele>430.33333333333337</ele><time>2026-04-25T14:15:28.978Z</time></trkpt><trkpt lat="45.50364478762339" lon="11.081773519666669"><ele>427.5</ele><time>2026-04-25T14:15:29.978Z</time></trkpt><trkpt lat="45.50365444397947" lon="11.081658640993426"><ele>424.66666666666663</ele><time>2026-04-25T14:15:30.978Z</time></trkpt><trkpt lat="45.50364562786847" lon="11.081563266405007"><ele>421.8333333333333</ele><time>2026-04-25T14:15:31.978Z</time></trkpt><trkpt lat="45.50362538191845" lon="11.081452365601953"><ele>419.0</ele><time>2026-04-25T14:15:32.978Z</time></trkpt><trkpt lat="45.50358744835377" lon="11.081344808005822"><ele>417.8333333333333</ele><time>2026-04-25T14:15:33.978Z</time></trkpt><trkpt lat="45.503529004445596" lon="11.081253714354029"><ele>416.66666666666663</ele><time>2026-04-25T14:15:34.978Z</time></trkpt><trkpt lat="45.503462604273146" lon="11.081185288209195"><ele>415.5</ele><time>2026-04-25T14:15:35.978Z</time></trkpt><trkpt lat="45.503398442841366" lon="11.081137834693271"><ele>414.33333333333337</ele><time>2026-04-25T14:15:36.978Z</time></trkpt><trkpt lat="45.50332317658752" lon="11.081134759230036"><ele>413.1666666666667</ele><time>2026-04-25T14:15:37.978Z</time></trkpt><trkpt lat="45.5032511375466" lon="11.081132800371241"><ele>412.0</ele><time>2026-04-25T14:15:38.978Z</time></trkpt><trkpt lat="45.50314362170775" lon="11.08112757606162"><ele>412.00000000000006</ele><time>2026-04-25T14:15:40.978Z</time></trkpt><trkpt lat="45.50306520945905" lon="11.081139320283318"><ele>412.0</ele><time>2026-04-25T14:15:42.978Z</time></trkpt><trkpt lat="45.502981772761515" lon="11.08123747919489"><ele>412.0</ele><time>2026-04-25T14:15:44.978Z</time></trkpt><trkpt lat="45.50296243403475" lon="11.081344091693202"><ele>412.0</ele><time>2026-04-25T14:15:45.978Z</time></trkpt><trkpt lat="45.50292479397079" lon="11.081454207558453"><ele>412.00000000000006</ele><time>2026-04-25T14:15:46.978Z</time></trkpt><trkpt lat="45.50290027108233" lon="11.081580859597869"><ele>412.0</ele><time>2026-04-25T14:15:47.978Z</time></trkpt><trkpt lat="45.50287759465293" lon="11.081675903288597"><ele>410.6</ele><time>2026-04-25T14:15:48.978Z</time></trkpt><trkpt lat="45.502876900380706" lon="11.081809974739924"><ele>409.20000000000005</ele><time>2026-04-25T14:15:50.978Z</time></trkpt><trkpt lat="45.50290116320688" lon="11.081966287647049"><ele>407.8</ele><time>2026-04-25T14:15:52.978Z</time></trkpt><trkpt lat="45.502931349786586" lon="11.08210708541548"><ele>406.4</ele><time>2026-04-25T14:15:54.978Z</time></trkpt><trkpt lat="45.50286988803386" lon="11.082251631184567"><ele>405.0</ele><time>2026-04-25T14:15:56.978Z</time></trkpt><trkpt lat="45.502820702486936" lon="11.08236417236926"><ele>406.25</ele><time>2026-04-25T14:15:57.978Z</time></trkpt><trkpt lat="45.502774190488736" lon="11.082497117931656"><ele>407.5</ele><time>2026-04-25T14:15:58.978Z</time></trkpt><trkpt lat="45.5027227215045" lon="11.082643890986445"><ele>408.75</ele><time>2026-04-25T14:15:59.978Z</time></trkpt><trkpt lat="45.50267589644967" lon="11.082798588743707"><ele>410.0</ele><time>2026-04-25T14:16:00.978Z</time></trkpt><trkpt lat="45.502618978836374" lon="11.08296932282284"><ele>410.0</ele><time>2026-04-25T14:16:01.978Z</time></trkpt><trkpt lat="45.50257287370768" lon="11.08314910534332"><ele>410.0</ele><time>2026-04-25T14:16:02.978Z</time></trkpt><trkpt lat="45.50252472214041" lon="11.083300008214502"><ele>410.0</ele><time>2026-04-25T14:16:03.978Z</time></trkpt><trkpt lat="45.50247695472351" lon="11.083438840158646"><ele>410.0</ele><time>2026-04-25T14:16:04.978Z</time></trkpt><trkpt lat="45.50242737141157" lon="11.083573182788115"><ele>411.4</ele><time>2026-04-25T14:16:05.978Z</time></trkpt><trkpt lat="45.502387399052054" lon="11.083682364399094"><ele>412.8</ele><time>2026-04-25T14:16:06.978Z</time></trkpt><trkpt lat="45.50235922802062" lon="11.083802994489313"><ele>414.20000000000005</ele><time>2026-04-25T14:16:07.978Z</time></trkpt><trkpt lat="45.5023502480628" lon="11.083940166245117"><ele>415.6</ele><time>2026-04-25T14:16:08.978Z</time></trkpt><trkpt lat="45.50236770728262" lon="11.08408799136699"><ele>417.0</ele><time>2026-04-25T14:16:09.978Z</time></trkpt><trkpt lat="45.502377030222355" lon="11.084234066310945"><ele>416.5</ele><time>2026-04-25T14:16:10.978Z</time></trkpt><trkpt lat="45.50237138998948" lon="11.084385875947762"><ele>416.0</ele><time>2026-04-25T14:16:11.978Z</time></trkpt><trkpt lat="45.50235896643421" lon="11.084547037613449"><ele>415.5</ele><time>2026-04-25T14:16:12.978Z</time></trkpt><trkpt lat="45.50237513893887" lon="11.0847527254907"><ele>415.0</ele><time>2026-04-25T14:16:13.978Z</time></trkpt><trkpt lat="45.50237073569545" lon="11.084934075508862"><ele>415.0</ele><time>2026-04-25T14:16:14.978Z</time></trkpt><trkpt lat="45.50237590308519" lon="11.085099099527302"><ele>415.0</ele><time>2026-04-25T14:16:15.978Z</time></trkpt><trkpt lat="45.502373767996396" lon="11.085266080363773"><ele>415.0</ele><time>2026-04-25T14:16:16.978Z</time></trkpt><trkpt lat="45.502367816912276" lon="11.085406892061567"><ele>415.0</ele><time>2026-04-25T14:16:17.978Z</time></trkpt><trkpt lat="45.5023801739317" lon="11.085520480070057"><ele>415.0</ele><time>2026-04-25T14:16:18.978Z</time></trkpt><trkpt lat="45.502389924791366" lon="11.085646914362727"><ele>415.00000000000006</ele><time>2026-04-25T14:16:20.978Z</time></trkpt><trkpt lat="45.50232781639702" lon="11.085674977977584"><ele>415.0</ele><time>2026-04-25T14:16:21.978Z</time></trkpt><trkpt lat="45.50223246384802" lon="11.085692312641912"><ele>415.0</ele><time>2026-04-25T14:16:22.978Z</time></trkpt><trkpt lat="45.50215798563048" lon="11.085687952877706"><ele>415.0</ele><time>2026-04-25T14:16:23.978Z</time></trkpt><trkpt lat="45.50209470389917" lon="11.085694449725452"><ele>415.00000000000006</ele><time>2026-04-25T14:16:24.978Z</time></trkpt><trkpt lat="45.502010860176505" lon="11.085733713449002"><ele>415.0</ele><time>2026-04-25T14:16:25.978Z</time></trkpt><trkpt lat="45.501945497887824" lon="11.085773074422834"><ele>412.6</ele><time>2026-04-25T14:16:26.978Z</time></trkpt><trkpt lat="45.5018796984614" lon="11.085820626205537"><ele>410.2</ele><time>2026-04-25T14:16:27.978Z</time></trkpt><trkpt lat="45.50181781502097" lon="11.08586037259906"><ele>407.79999999999995</ele><time>2026-04-25T14:16:28.978Z</time></trkpt><trkpt lat="45.501699891392235" lon="11.085888245976866"><ele>405.4</ele><time>2026-04-25T14:16:30.978Z</time></trkpt><trkpt lat="45.50158205918583" lon="11.08592642531843"><ele>403.0</ele><time>2026-04-25T14:16:32.978Z</time></trkpt><trkpt lat="45.501508308814564" lon="11.085937364807622"><ele>403.00000000000006</ele><time>2026-04-25T14:16:33.978Z</time></trkpt><trkpt lat="45.50145385893537" lon="11.085995124824183"><ele>403.0</ele><time>2026-04-25T14:16:34.978Z</time></trkpt><trkpt lat="45.50140128880821" lon="11.086068949348888"><ele>403.0</ele><time>2026-04-25T14:16:35.978Z</time></trkpt><trkpt lat="45.50134582310077" lon="11.086144753926984"><ele>403.0</ele><time>2026-04-25T14:16:36.978Z</time></trkpt><trkpt lat="45.501284017416324" lon="11.086209760903126"><ele>403.00000000000006</ele><time>2026-04-25T14:16:37.978Z</time></trkpt><trkpt lat="45.501226307961765" lon="11.086276380062914"><ele>403.0</ele><time>2026-04-25T14:16:38.978Z</time></trkpt><trkpt lat="45.50116320003303" lon="11.086351120522767"><ele>401.59999999999997</ele><time>2026-04-25T14:16:39.978Z</time></trkpt><trkpt lat="45.50111365108511" lon="11.086452877218425"><ele>400.2</ele><time>2026-04-25T14:16:40.978Z</time></trkpt><trkpt lat="45.50103485818464" lon="11.086511821679812"><ele>398.8</ele><time>2026-04-25T14:16:41.978Z</time></trkpt><trkpt lat="45.50097109523331" lon="11.086546389972227"><ele>397.4</ele><time>2026-04-25T14:16:42.978Z</time></trkpt><trkpt lat="45.50089604182033" lon="11.086692559901195"><ele>396.0</ele><time>2026-04-25T14:16:44.978Z</time></trkpt><trkpt lat="45.50084685990926" lon="11.08678046892983"><ele>396.0</ele><time>2026-04-25T14:16:45.978Z</time></trkpt><trkpt lat="45.50082261273387" lon="11.0868732955482"><ele>396.0</ele><time>2026-04-25T14:16:46.978Z</time></trkpt><trkpt lat="45.500804884002946" lon="11.08699271769602"><ele>396.0</ele><time>2026-04-25T14:16:48.978Z</time></trkpt><trkpt lat="45.500783912830634" lon="11.087093324856728"><ele>396.0</ele><time>2026-04-25T14:16:50.978Z</time></trkpt><trkpt lat="45.500809291389544" lon="11.08721685614606"><ele>396.0</ele><time>2026-04-25T14:16:53.978Z</time></trkpt><trkpt lat="45.50081484557626" lon="11.08731997380107"><ele>396.0</ele><time>2026-04-25T14:16:56.978Z</time></trkpt><trkpt lat="45.5007536613271" lon="11.087252512235152"><ele>396.0</ele><time>2026-04-25T14:16:58.978Z</time></trkpt><trkpt lat="45.50070788342966" lon="11.087156339329836"><ele>396.0</ele><time>2026-04-25T14:17:00.978Z</time></trkpt><trkpt lat="45.500659895376984" lon="11.087087943816893"><ele>396.0</ele><time>2026-04-25T14:17:02.978Z</time></trkpt><trkpt lat="45.50051454277046" lon="11.087072108295512"><ele>396.0</ele><time>2026-04-25T14:17:04.978Z</time></trkpt><trkpt lat="45.500405009598424" lon="11.087123368598693"><ele>396.0</ele><time>2026-04-25T14:17:07.978Z</time></trkpt><trkpt lat="45.50029999554427" lon="11.087198221348359"><ele>396.3333333333333</ele><time>2026-04-25T14:17:09.978Z</time></trkpt><trkpt lat="45.50022730736277" lon="11.087265913810928"><ele>396.66666666666663</ele><time>2026-04-25T14:17:10.978Z</time></trkpt><trkpt lat="45.50016330979655" lon="11.087320839704574"><ele>397.0</ele><time>2026-04-25T14:17:11.978Z</time></trkpt><trkpt lat="45.50011172365901" lon="11.087403836849935"><ele>397.3333333333333</ele><time>2026-04-25T14:17:12.978Z</time></trkpt><trkpt lat="45.5000781620085" lon="11.087494783724434"><ele>397.66666666666663</ele><time>2026-04-25T14:17:13.978Z</time></trkpt><trkpt lat="45.50004194334004" lon="11.087630079766083"><ele>398.0</ele><time>2026-04-25T14:17:15.978Z</time></trkpt><trkpt lat="45.49995982923923" lon="11.08760828889047"><ele>397.99999999999994</ele><time>2026-04-25T14:17:17.978Z</time></trkpt><trkpt lat="45.49991537677719" lon="11.087533785004174"><ele>398.0</ele><time>2026-04-25T14:17:18.978Z</time></trkpt><trkpt lat="45.49988046725256" lon="11.087406332229508"><ele>398.0</ele><time>2026-04-25T14:17:19.978Z</time></trkpt><trkpt lat="45.49984083924719" lon="11.08726187016436"><ele>398.0</ele><time>2026-04-25T14:17:20.978Z</time></trkpt><trkpt lat="45.499797040507836" lon="11.087145685873711"><ele>397.99999999999994</ele><time>2026-04-25T14:17:21.978Z</time></trkpt><trkpt lat="45.49974445206905" lon="11.087056662023132"><ele>398.0</ele><time>2026-04-25T14:17:22.978Z</time></trkpt><trkpt lat="45.49969689904418" lon="11.086996985699402"><ele>396.0</ele><time>2026-04-25T14:17:23.978Z</time></trkpt><trkpt lat="45.4996151929808" lon="11.086946255226968"><ele>394.0</ele><time>2026-04-25T14:17:24.978Z</time></trkpt><trkpt lat="45.49954721646745" lon="11.086893026535673"><ele>392.0</ele><time>2026-04-25T14:17:25.978Z</time></trkpt><trkpt lat="45.49945266062374" lon="11.086810118948753"><ele>390.0</ele><time>2026-04-25T14:17:26.978Z</time></trkpt><trkpt lat="45.49936661795168" lon="11.086729324390962"><ele>388.0</ele><time>2026-04-25T14:17:27.978Z</time></trkpt><trkpt lat="45.499290319019096" lon="11.086665239950138"><ele>387.0</ele><time>2026-04-25T14:17:28.978Z</time></trkpt><trkpt lat="45.49921449605742" lon="11.086628442142619"><ele>386.0</ele><time>2026-04-25T14:17:29.978Z</time></trkpt><trkpt lat="45.49910208657658" lon="11.086620479128865"><ele>385.0</ele><time>2026-04-25T14:17:30.978Z</time></trkpt><trkpt lat="45.49896491780766" lon="11.086633534093709"><ele>384.0</ele><time>2026-04-25T14:17:31.978Z</time></trkpt><trkpt lat="45.49882742953561" lon="11.086665210503101"><ele>382.75</ele><time>2026-04-25T14:17:32.978Z</time></trkpt><trkpt lat="45.498702129541066" lon="11.086694902546203"><ele>381.5</ele><time>2026-04-25T14:17:33.978Z</time></trkpt><trkpt lat="45.4985862230939" lon="11.086707221483909"><ele>380.25</ele><time>2026-04-25T14:17:34.978Z</time></trkpt><trkpt lat="45.498480823705194" lon="11.086699316901244"><ele>379.0</ele><time>2026-04-25T14:17:35.978Z</time></trkpt><trkpt lat="45.504462504260765" lon="11.093710755656486"><ele>412.2</ele><time>2026-04-25T14:13:35.982Z</time></trkpt><trkpt lat="45.50446433500922" lon="11.09356136864318"><ele>445.4</ele><time>2026-04-25T14:13:36.982Z</time></trkpt><trkpt lat="45.50445275384863" lon="11.093423141296572"><ele>478.6</ele><time>2026-04-25T14:13:37.982Z</time></trkpt><trkpt lat="45.504445627448405" lon="11.093274166837821"><ele>511.8</ele><time>2026-04-25T14:13:38.982Z</time></trkpt><trkpt lat="45.50444979081285" lon="11.093108546416431"><ele>545.0</ele><time>2026-04-25T14:13:39.981Z</time></trkpt><trkpt lat="45.50446078275174" lon="11.092944478495827"><ele>545.0</ele><time>2026-04-25T14:13:40.981Z</time></trkpt><trkpt lat="45.50444820489846" lon="11.092763967096483"><ele>545.0</ele><time>2026-04-25T14:13:41.981Z</time></trkpt><trkpt lat="45.50443855554206" lon="11.092595461439128"><ele>545.0</ele><time>2026-04-25T14:13:42.981Z</time></trkpt><trkpt lat="45.50445843944865" lon="11.092443757955447"><ele>545.0</ele><time>2026-04-25T14:13:43.981Z</time></trkpt><trkpt lat="45.50448086512853" lon="11.092287298628849"><ele>543.75</ele><time>2026-04-25T14:13:44.981Z</time></trkpt><trkpt lat="45.50452609407738" lon="11.092132299273628"><ele>542.5</ele><time>2026-04-25T14:13:45.981Z</time></trkpt><trkpt lat="45.50457749278416" lon="11.091949744136562"><ele>541.25</ele><time>2026-04-25T14:13:46.98Z</time></trkpt><trkpt lat="45.5046305249022" lon="11.091773681856775"><ele>540.0</ele><time>2026-04-25T14:13:47.98Z</time></trkpt><trkpt lat="45.50465893914905" lon="11.091581630836309"><ele>539.0</ele><time>2026-04-25T14:13:48.98Z</time></trkpt><trkpt lat="45.504680349140706" lon="11.091379959046115"><ele>538.0</ele><time>2026-04-25T14:13:49.98Z</time></trkpt><trkpt lat="45.504714891065866" lon="11.091224030827485"><ele>537.0</ele><time>2026-04-25T14:13:50.98Z</time></trkpt><trkpt lat="45.50475441107144" lon="11.09107827735348"><ele>536.0</ele><time>2026-04-25T14:13:51.98Z</time></trkpt><trkpt lat="45.50480359297341" lon="11.090934785465617"><ele>536.0</ele><time>2026-04-25T14:13:52.98Z</time></trkpt><trkpt lat="45.50483291506021" lon="11.090787065825289"><ele>536.0</ele><time>2026-04-25T14:13:53.98Z</time></trkpt><trkpt lat="45.504869374329665" lon="11.090640283791647"><ele>536.0</ele><time>2026-04-25T14:13:54.98Z</time></trkpt><trkpt lat="45.50490898526353" lon="11.090494516322426"><ele>536.0</ele><time>2026-04-25T14:13:55.98Z</time></trkpt><trkpt lat="45.50493432956236" lon="11.090336111814493"><ele>536.0</ele><time>2026-04-25T14:13:56.98Z</time></trkpt><trkpt lat="45.50493432990277" lon="11.090180810751894"><ele>535.0</ele><time>2026-04-25T14:13:57.979Z</time></trkpt><trkpt lat="45.504950372672724" lon="11.090083844939091"><ele>534.0</ele><time>2026-04-25T14:13:58.979Z</time></trkpt><trkpt lat="45.50492961151461" lon="11.089973512014604"><ele>533.0</ele><time>2026-04-25T14:13:59.979Z</time></trkpt><trkpt lat="45.50490446378048" lon="11.089865579112129"><ele>532.0</ele><time>2026-04-25T14:14:00.979Z</time></trkpt><trkpt lat="45.504872436726274" lon="11.08977195475982"><ele>531.0</ele><time>2026-04-25T14:14:01.979Z</time></trkpt><trkpt lat="45.504830187828034" lon="11.089687977803731"><ele>530.0</ele><time>2026-04-25T14:14:02.979Z</time></trkpt><trkpt lat="45.504782584865566" lon="11.089606330561006"><ele>529.0</ele><time>2026-04-25T14:14:03.979Z</time></trkpt><trkpt lat="45.5047155082375" lon="11.089549932855125"><ele>526.8</ele><time>2026-04-25T14:14:04.979Z</time></trkpt><trkpt lat="45.50464287751098" lon="11.089507623953988"><ele>524.5999999999999</ele><time>2026-04-25T14:14:05.979Z</time></trkpt><trkpt lat="45.504567341276434" lon="11.08946963694246"><ele>522.4</ele><time>2026-04-25T14:14:06.979Z</time></trkpt><trkpt lat="45.504493753392914" lon="11.089378546134308"><ele>520.1999999999999</ele><time>2026-04-25T14:14:08.979Z</time></trkpt><trkpt lat="45.504533136054185" lon="11.08919288462352"><ele>518.0</ele><time>2026-04-25T14:14:10.979Z</time></trkpt><trkpt lat="45.50455862143001" lon="11.089074641918184"><ele>514.8</ele><time>2026-04-25T14:14:11.979Z</time></trkpt><trkpt lat="45.5045762712985" lon="11.088960074179717"><ele>511.59999999999997</ele><time>2026-04-25T14:14:12.979Z</time></trkpt><trkpt lat="45.50460078289466" lon="11.088852763138824"><ele>508.40000000000003</ele><time>2026-04-25T14:14:13.979Z</time></trkpt><trkpt lat="45.50466552282237" lon="11.088735436910508"><ele>505.20000000000005</ele><time>2026-04-25T14:14:15.979Z</time></trkpt><trkpt lat="45.50477227035162" lon="11.088659158741327"><ele>502.0</ele><time>2026-04-25T14:14:17.979Z</time></trkpt><trkpt lat="45.50486662353965" lon="11.088656361837891"><ele>501.6666666666667</ele><time>2026-04-25T14:14:19.979Z</time></trkpt><trkpt lat="45.50492262854574" lon="11.088578174779663"><ele>501.33333333333337</ele><time>2026-04-25T14:14:22.979Z</time></trkpt><trkpt lat="45.504901223168986" lon="11.088492693746007"><ele>501.0</ele><time>2026-04-25T14:14:23.979Z</time></trkpt><trkpt lat="45.504855843860824" lon="11.088390607718377"><ele>500.66666666666663</ele><time>2026-04-25T14:14:24.979Z</time></trkpt><trkpt lat="45.50481717966851" lon="11.088287225844939"><ele>500.3333333333333</ele><time>2026-04-25T14:14:25.979Z</time></trkpt><trkpt lat="45.50475565498346" lon="11.088194750909306"><ele>500.0</ele><time>2026-04-25T14:14:26.979Z</time></trkpt><trkpt lat="45.50469741314088" lon="11.088096835202624"><ele>498.0</ele><time>2026-04-25T14:14:27.979Z</time></trkpt><trkpt lat="45.50463709770221" lon="11.087992698542426"><ele>496.0</ele><time>2026-04-25T14:14:28.979Z</time></trkpt><trkpt lat="45.504585689620946" lon="11.087875474046136"><ele>494.0</ele><time>2026-04-25T14:14:29.978Z</time></trkpt><trkpt lat="45.504546893128754" lon="11.087751095199728"><ele>492.0</ele><time>2026-04-25T14:14:30.978Z</time></trkpt><trkpt lat="45.50451265269229" lon="11.087619583980153"><ele>490.0</ele><time>2026-04-25T14:14:31.978Z</time></trkpt><trkpt lat="45.50445724189244" lon="11.087531304334052"><ele>490.0</ele><time>2026-04-25T14:14:32.978Z</time></trkpt><trkpt lat="45.5044098413023" lon="11.087429317468146"><ele>490.0</ele><time>2026-04-25T14:14:33.978Z</time></trkpt><trkpt lat="45.50437941872332" lon="11.087312887013995"><ele>490.0</ele><time>2026-04-25T14:14:34.978Z</time></trkpt><trkpt lat="45.50436460732996" lon="11.087176781424194"><ele>490.0</ele><time>2026-04-25T14:14:35.978Z</time></trkpt><trkpt lat="45.50435436911372" lon="11.087028996755347"><ele>490.0</ele><time>2026-04-25T14:14:36.978Z</time></trkpt><trkpt lat="45.5043540188563" lon="11.086885374078184"><ele>485.75</ele><time>2026-04-25T14:14:37.978Z</time></trkpt><trkpt lat="45.504389703329664" lon="11.086739418216794"><ele>481.5</ele><time>2026-04-25T14:14:38.978Z</time></trkpt><trkpt lat="45.50443221555231" lon="11.086566168751547"><ele>477.25</ele><time>2026-04-25T14:14:39.978Z</time></trkpt><trkpt lat="45.504454871966" lon="11.086386427087938"><ele>473.0</ele><time>2026-04-25T14:14:40.978Z</time></trkpt><trkpt lat="45.5044906875943" lon="11.086215654956082"><ele>471.2</ele><time>2026-04-25T14:14:41.978Z</time></trkpt><trkpt lat="45.50453199241347" lon="11.086058572045276"><ele>469.4</ele><time>2026-04-25T14:14:42.978Z</time></trkpt><trkpt lat="45.504551075676666" lon="11.085900412571755"><ele>467.59999999999997</ele><time>2026-04-25T14:14:43.978Z</time></trkpt><trkpt lat="45.50458642846708" lon="11.085768782372545"><ele>465.79999999999995</ele><time>2026-04-25T14:14:44.978Z</time></trkpt><trkpt lat="45.504642221449856" lon="11.085652542395637"><ele>464.0</ele><time>2026-04-25T14:14:45.978Z</time></trkpt><trkpt lat="45.504676583547734" lon="11.085535850417198"><ele>462.2</ele><time>2026-04-25T14:14:46.978Z</time></trkpt><trkpt lat="45.50471819988646" lon="11.085451213808225"><ele>460.4</ele><time>2026-04-25T14:14:47.978Z</time></trkpt><trkpt lat="45.50476151835946" lon="11.085378476583438"><ele>458.6</ele><time>2026-04-25T14:14:48.978Z</time></trkpt><trkpt lat="45.50479982672015" lon="11.085180103581925"><ele>456.8</ele><time>2026-04-25T14:14:50.978Z</time></trkpt><trkpt lat="45.50481235729511" lon="11.08504857542812"><ele>455.0</ele><time>2026-04-25T14:14:51.978Z</time></trkpt><trkpt lat="45.50483332384044" lon="11.084906715349819"><ele>453.0</ele><time>2026-04-25T14:14:52.978Z</time></trkpt><trkpt lat="45.50480255932674" lon="11.084764943063723"><ele>451.0</ele><time>2026-04-25T14:14:53.978Z</time></trkpt><trkpt lat="45.504794121643116" lon="11.08459804111892"><ele>449.0</ele><time>2026-04-25T14:14:54.978Z</time></trkpt><trkpt lat="45.504785037444165" lon="11.084437639928922"><ele>447.0</ele><time>2026-04-25T14:14:55.978Z</time></trkpt><trkpt lat="45.504774097906726" lon="11.084288106772956"><ele>445.0</ele><time>2026-04-25T14:14:56.979Z</time></trkpt><trkpt lat="45.50477163695149" lon="11.084143720887162"><ele>444.2</ele><time>2026-04-25T14:14:57.979Z</time></trkpt><trkpt lat="45.504761499939654" lon="11.083997005530268"><ele>443.4</ele><time>2026-04-25T14:14:58.979Z</time></trkpt><trkpt lat="45.50477756641099" lon="11.083843594750917"><ele>442.6</ele><time>2026-04-25T14:14:59.979Z</time></trkpt><trkpt lat="45.5048131885814" lon="11.083714596718709"><ele>441.8</ele><time>2026-04-25T14:15:00.979Z</time></trkpt><trkpt lat="45.50483434738182" lon="11.083584023573234"><ele>441.0</ele><time>2026-04-25T14:15:01.978Z</time></trkpt><trkpt lat="45.50488097490117" lon="11.083489686665072"><ele>441.0</ele><time>2026-04-25T14:15:02.978Z</time></trkpt><trkpt lat="45.5049275670187" lon="11.083414654923562"><ele>441.0</ele><time>2026-04-25T14:15:03.978Z</time></trkpt><trkpt lat="45.504964664664435" lon="11.083328269610197"><ele>441.0</ele><time>2026-04-25T14:15:04.978Z</time></trkpt><trkpt lat="45.5050314796553" lon="11.083246799638527"><ele>441.0</ele><time>2026-04-25T14:15:06.978Z</time></trkpt><trkpt lat="45.505051401205456" lon="11.083131525261594"><ele>441.0</ele><time>2026-04-25T14:15:09.978Z</time></trkpt><trkpt lat="45.504975301128106" lon="11.083012031742212"><ele>441.0</ele><time>2026-04-25T14:15:11.978Z</time></trkpt><trkpt lat="45.50489423703614" lon="11.082936899841025"><ele>440.0</ele><time>2026-04-25T14:15:12.978Z</time></trkpt><trkpt lat="45.50479684161022" lon="11.082879605043939"><ele>439.0</ele><time>2026-04-25T14:15:13.978Z</time></trkpt><trkpt lat="45.504701727138986" lon="11.082804411861325"><ele>438.0</ele><time>2026-04-25T14:15:14.978Z</time></trkpt><trkpt lat="45.50459802892543" lon="11.082725219909474"><ele>437.0</ele><time>2026-04-25T14:15:15.978Z</time></trkpt><trkpt lat="45.50449915953286" lon="11.08265418417401"><ele>436.0</ele><time>2026-04-25T14:15:16.978Z</time></trkpt><trkpt lat="45.50440519739912" lon="11.08258846739707"><ele>436.0</ele><time>2026-04-25T14:15:17.978Z</time></trkpt><trkpt lat="45.50430602252293" lon="11.082551573369734"><ele>436.0</ele><time>2026-04-25T14:15:18.978Z</time></trkpt><trkpt lat="45.504200479220785" lon="11.082531238195632"><ele>436.0</ele><time>2026-04-25T14:15:19.978Z</time></trkpt><trkpt lat="45.50409687331537" lon="11.08252714840628"><ele>436.0</ele><time>2026-04-25T14:15:20.978Z</time></trkpt><trkpt lat="45.503993486440415" lon="11.082500737255035"><ele>436.0</ele><time>2026-04-25T14:15:21.978Z</time></trkpt><trkpt lat="45.50389360282577" lon="11.082476766859788"><ele>436.0</ele><time>2026-04-25T14:15:22.978Z</time></trkpt><trkpt lat="45.50379361475386" lon="11.082441441664802"><ele>436.0</ele><time>2026-04-25T14:15:23.978Z</time></trkpt><trkpt lat="45.50370717070527" lon="11.082381407761401"><ele>436.0</ele><time>2026-04-25T14:15:24.978Z</time></trkpt><trkpt lat="45.503646136114774" lon="11.082298238396195"><ele>436.0</ele><time>2026-04-25T14:15:25.978Z</time></trkpt><trkpt lat="45.50361213058501" lon="11.082169198156743"><ele>436.0</ele><time>2026-04-25T14:15:26.978Z</time></trkpt><trkpt lat="45.50360123348205" lon="11.082038637421403"><ele>433.1666666666667</ele><time>2026-04-25T14:15:27.978Z</time></trkpt><trkpt lat="45.5036233957629" lon="11.081912590148246"><ele>430.33333333333337</ele><time>2026-04-25T14:15:28.978Z</time></trkpt><trkpt lat="45.50364478762339" lon="11.081773519666669"><ele>427.5</ele><time>2026-04-25T14:15:29.978Z</time></trkpt><trkpt lat="45.50365444397947" lon="11.081658640993426"><ele>424.66666666666663</ele><time>2026-04-25T14:15:30.978Z</time></trkpt><trkpt lat="45.50364562786847" lon="11.081563266405007"><ele>421.8333333333333</ele><time>2026-04-25T14:15:31.978Z</time></trkpt><trkpt lat="45.50362538191845" lon="11.081452365601953"><ele>419.0</ele><time>2026-04-25T14:15:32.978Z</time></trkpt><trkpt lat="45.50358744835377" lon="11.081344808005822"><ele>417.8333333333333</ele><time>2026-04-25T14:15:33.978Z</time></trkpt><trkpt lat="45.503529004445596" lon="11.081253714354029"><ele>416.66666666666663</ele><time>2026-04-25T14:15:34.978Z</time></trkpt><trkpt lat="45.503462604273146" lon="11.081185288209195"><ele>415.5</ele><time>2026-04-25T14:15:35.978Z</time></trkpt><trkpt lat="45.503398442841366" lon="11.081137834693271"><ele>414.33333333333337</ele><time>2026-04-25T14:15:36.978Z</time></trkpt><trkpt lat="45.50332317658752" lon="11.081134759230036"><ele>413.1666666666667</ele><time>2026-04-25T14:15:37.978Z</time></trkpt><trkpt lat="45.5032511375466" lon="11.081132800371241"><ele>412.0</ele><time>2026-04-25T14:15:38.978Z</time></trkpt><trkpt lat="45.50314362170775" lon="11.08112757606162"><ele>412.00000000000006</ele><time>2026-04-25T14:15:40.978Z</time></trkpt><trkpt lat="45.50306520945905" lon="11.081139320283318"><ele>412.0</ele><time>2026-04-25T14:15:42.978Z</time></trkpt><trkpt lat="45.502981772761515" lon="11.08123747919489"><ele>412.0</ele><time>2026-04-25T14:15:44.978Z</time></trkpt><trkpt lat="45.50296243403475" lon="11.081344091693202"><ele>412.0</ele><time>2026-04-25T14:15:45.978Z</time></trkpt><trkpt lat="45.50292479397079" lon="11.081454207558453"><ele>412.00000000000006</ele><time>2026-04-25T14:15:46.978Z</time></trkpt><trkpt lat="45.50290027108233" lon="11.081580859597869"><ele>412.0</ele><time>2026-04-25T14:15:47.978Z</time></trkpt><trkpt lat="45.50287759465293" lon="11.081675903288597"><ele>410.6</ele><time>2026-04-25T14:15:48.978Z</time></trkpt><trkpt lat="45.502876900380706" lon="11.081809974739924"><ele>409.20000000000005</ele><time>2026-04-25T14:15:50.978Z</time></trkpt><trkpt lat="45.50290116320688" lon="11.081966287647049"><ele>407.8</ele><time>2026-04-25T14:15:52.978Z</time></trkpt><trkpt lat="45.502931349786586" lon="11.08210708541548"><ele>406.4</ele><time>2026-04-25T14:15:54.978Z</time></trkpt><trkpt lat="45.50286988803386" lon="11.082251631184567"><ele>405.0</ele><time>2026-04-25T14:15:56.978Z</time></trkpt><trkpt lat="45.502820702486936" lon="11.08236417236926"><ele>406.25</ele><time>2026-04-25T14:15:57.978Z</time></trkpt><trkpt lat="45.502774190488736" lon="11.082497117931656"><ele>407.5</ele><time>2026-04-25T14:15:58.978Z</time></trkpt><trkpt lat="45.5027227215045" lon="11.082643890986445"><ele>408.75</ele><time>2026-04-25T14:15:59.978Z</time></trkpt><trkpt lat="45.50267589644967" lon="11.082798588743707"><ele>410.0</ele><time>2026-04-25T14:16:00.978Z</time></trkpt><trkpt lat="45.502618978836374" lon="11.08296932282284"><ele>410.0</ele><time>2026-04-25T14:16:01.978Z</time></trkpt><trkpt lat="45.50257287370768" lon="11.08314910534332"><ele>410.0</ele><time>2026-04-25T14:16:02.978Z</time></trkpt><trkpt lat="45.50252472214041" lon="11.083300008214502"><ele>410.0</ele><time>2026-04-25T14:16:03.978Z</time></trkpt><trkpt lat="45.50247695472351" lon="11.083438840158646"><ele>410.0</ele><time>2026-04-25T14:16:04.978Z</time></trkpt><trkpt lat="45.50242737141157" lon="11.083573182788115"><ele>411.4</ele><time>2026-04-25T14:16:05.978Z</time></trkpt><trkpt lat="45.502387399052054" lon="11.083682364399094"><ele>412.8</ele><time>2026-04-25T14:16:06.978Z</time></trkpt><trkpt lat="45.50235922802062" lon="11.083802994489313"><ele>414.20000000000005</ele><time>2026-04-25T14:16:07.978Z</time></trkpt><trkpt lat="45.5023502480628" lon="11.083940166245117"><ele>415.6</ele><time>2026-04-25T14:16:08.978Z</time></trkpt><trkpt lat="45.50236770728262" lon="11.08408799136699"><ele>417.0</ele><time>2026-04-25T14:16:09.978Z</time></trkpt><trkpt lat="45.502377030222355" lon="11.084234066310945"><ele>416.5</ele><time>2026-04-25T14:16:10.978Z</time></trkpt><trkpt lat="45.50237138998948" lon="11.084385875947762"><ele>416.0</ele><time>2026-04-25T14:16:11.978Z</time></trkpt><trkpt lat="45.50235896643421" lon="11.084547037613449"><ele>415.5</ele><time>2026-04-25T14:16:12.978Z</time></trkpt><trkpt lat="45.50237513893887" lon="11.0847527254907"><ele>415.0</ele><time>2026-04-25T14:16:13.978Z</time></trkpt><trkpt lat="45.50237073569545" lon="11.084934075508862"><ele>415.0</ele><time>2026-04-25T14:16:14.978Z</time></trkpt><trkpt lat="45.50237590308519" lon="11.085099099527302"><ele>415.0</ele><time>2026-04-25T14:16:15.978Z</time></trkpt><trkpt lat="45.502373767996396" lon="11.085266080363773"><ele>415.0</ele><time>2026-04-25T14:16:16.978Z</time></trkpt><trkpt lat="45.502367816912276" lon="11.085406892061567"><ele>415.0</ele><time>2026-04-25T14:16:17.978Z</time></trkpt><trkpt lat="45.5023801739317" lon="11.085520480070057"><ele>415.0</ele><time>2026-04-25T14:16:18.978Z</time></trkpt><trkpt lat="45.502389924791366" lon="11.085646914362727"><ele>415.00000000000006</ele><time>2026-04-25T14:16:20.978Z</time></trkpt><trkpt lat="45.50232781639702" lon="11.085674977977584"><ele>415.0</ele><time>2026-04-25T14:16:21.978Z</time></trkpt><trkpt lat="45.50223246384802" lon="11.085692312641912"><ele>415.0</ele><time>2026-04-25T14:16:22.978Z</time></trkpt><trkpt lat="45.50215798563048" lon="11.085687952877706"><ele>415.0</ele><time>2026-04-25T14:16:23.978Z</time></trkpt><trkpt lat="45.50209470389917" lon="11.085694449725452"><ele>415.00000000000006</ele><time>2026-04-25T14:16:24.978Z</time></trkpt><trkpt lat="45.502010860176505" lon="11.085733713449002"><ele>415.0</ele><time>2026-04-25T14:16:25.978Z</time></trkpt><trkpt lat="45.501945497887824" lon="11.085773074422834"><ele>412.6</ele><time>2026-04-25T14:16:26.978Z</time></trkpt><trkpt lat="45.5018796984614" lon="11.085820626205537"><ele>410.2</ele><time>2026-04-25T14:16:27.978Z</time></trkpt><trkpt lat="45.50181781502097" lon="11.08586037259906"><ele>407.79999999999995</ele><time>2026-04-25T14:16:28.978Z</time></trkpt><trkpt lat="45.501699891392235" lon="11.085888245976866"><ele>405.4</ele><time>2026-04-25T14:16:30.978Z</time></trkpt><trkpt lat="45.50158205918583" lon="11.08592642531843"><ele>403.0</ele><time>2026-04-25T14:16:32.978Z</time></trkpt><trkpt lat="45.501508308814564" lon="11.085937364807622"><ele>403.00000000000006</ele><time>2026-04-25T14:16:33.978Z</time></trkpt><trkpt lat="45.50145385893537" lon="11.085995124824183"><ele>403.0</ele><time>2026-04-25T14:16:34.978Z</time></trkpt><trkpt lat="45.50140128880821" lon="11.086068949348888"><ele>403.0</ele><time>2026-04-25T14:16:35.978Z</time></trkpt><trkpt lat="45.50134582310077" lon="11.086144753926984"><ele>403.0</ele><time>2026-04-25T14:16:36.978Z</time></trkpt><trkpt lat="45.501284017416324" lon="11.086209760903126"><ele>403.00000000000006</ele><time>2026-04-25T14:16:37.978Z</time></trkpt><trkpt lat="45.501226307961765" lon="11.086276380062914"><ele>403.0</ele><time>2026-04-25T14:16:38.978Z</time></trkpt><trkpt lat="45.50116320003303" lon="11.086351120522767"><ele>401.59999999999997</ele><time>2026-04-25T14:16:39.978Z</time></trkpt><trkpt lat="45.50111365108511" lon="11.086452877218425"><ele>400.2</ele><time>2026-04-25T14:16:40.978Z</time></trkpt><trkpt lat="45.50103485818464" lon="11.086511821679812"><ele>398.8</ele><time>2026-04-25T14:16:41.978Z</time></trkpt><trkpt lat="45.50097109523331" lon="11.086546389972227"><ele>397.4</ele><time>2026-04-25T14:16:42.978Z</time></trkpt><trkpt lat="45.50089604182033" lon="11.086692559901195"><ele>396.0</ele><time>2026-04-25T14:16:44.978Z</time></trkpt><trkpt lat="45.50084685990926" lon="11.08678046892983"><ele>396.0</ele><time>2026-04-25T14:16:45.978Z</time></trkpt><trkpt lat="45.50082261273387" lon="11.0868732955482"><ele>396.0</ele><time>2026-04-25T14:16:46.978Z</time></trkpt><trkpt lat="45.500804884002946" lon="11.08699271769602"><ele>396.0</ele><time>2026-04-25T14:16:48.978Z</time></trkpt><trkpt lat="45.500783912830634" lon="11.087093324856728"><ele>396.0</ele><time>2026-04-25T14:16:50.978Z</time></trkpt><trkpt lat="45.500809291389544" lon="11.08721685614606"><ele>396.0</ele><time>2026-04-25T14:16:53.978Z</time></trkpt><trkpt lat="45.50081484557626" lon="11.08731997380107"><ele>396.0</ele><time>2026-04-25T14:16:56.978Z</time></trkpt><trkpt lat="45.5007536613271" lon="11.087252512235152"><ele>396.0</ele><time>2026-04-25T14:16:58.978Z</time></trkpt><trkpt lat="45.50070788342966" lon="11.087156339329836"><ele>396.0</ele><time>2026-04-25T14:17:00.978Z</time></trkpt><trkpt lat="45.500659895376984" lon="11.087087943816893"><ele>396.0</ele><time>2026-04-25T14:17:02.978Z</time></trkpt><trkpt lat="45.50051454277046" lon="11.087072108295512"><ele>396.0</ele><time>2026-04-25T14:17:04.978Z</time></trkpt><trkpt lat="45.500405009598424" lon="11.087123368598693"><ele>396.0</ele><time>2026-04-25T14:17:07.978Z</time></trkpt><trkpt lat="45.50029999554427" lon="11.087198221348359"><ele>396.3333333333333</ele><time>2026-04-25T14:17:09.978Z</time></trkpt><trkpt lat="45.50022730736277" lon="11.087265913810928"><ele>396.66666666666663</ele><time>2026-04-25T14:17:10.978Z</time></trkpt><trkpt lat="45.50016330979655" lon="11.087320839704574"><ele>397.0</ele><time>2026-04-25T14:17:11.978Z</time></trkpt><trkpt lat="45.50011172365901" lon="11.087403836849935"><ele>397.3333333333333</ele><time>2026-04-25T14:17:12.978Z</time></trkpt><trkpt lat="45.5000781620085" lon="11.087494783724434"><ele>397.66666666666663</ele><time>2026-04-25T14:17:13.978Z</time></trkpt><trkpt lat="45.50004194334004" lon="11.087630079766083"><ele>398.0</ele><time>2026-04-25T14:17:15.978Z</time></trkpt><trkpt lat="45.49995982923923" lon="11.08760828889047"><ele>397.99999999999994</ele><time>2026-04-25T14:17:17.978Z</time></trkpt><trkpt lat="45.49991537677719" lon="11.087533785004174"><ele>398.0</ele><time>2026-04-25T14:17:18.978Z</time></trkpt><trkpt lat="45.49988046725256" lon="11.087406332229508"><ele>398.0</ele><time>2026-04-25T14:17:19.978Z</time></trkpt><trkpt lat="45.49984083924719" lon="11.08726187016436"><ele>398.0</ele><time>2026-04-25T14:17:20.978Z</time></trkpt><trkpt lat="45.499797040507836" lon="11.087145685873711"><ele>397.99999999999994</ele><time>2026-04-25T14:17:21.978Z</time></trkpt><trkpt lat="45.49974445206905" lon="11.087056662023132"><ele>398.0</ele><time>2026-04-25T14:17:22.978Z</time></trkpt><trkpt lat="45.49969689904418" lon="11.086996985699402"><ele>396.0</ele><time>2026-04-25T14:17:23.978Z</time></trkpt><trkpt lat="45.4996151929808" lon="11.086946255226968"><ele>394.0</ele><time>2026-04-25T14:17:24.978Z</time></trkpt><trkpt lat="45.49954721646745" lon="11.086893026535673"><ele>392.0</ele><time>2026-04-25T14:17:25.978Z</time></trkpt><trkpt lat="45.49945266062374" lon="11.086810118948753"><ele>390.0</ele><time>2026-04-25T14:17:26.978Z</time></trkpt><trkpt lat="45.49936661795168" lon="11.086729324390962"><ele>388.0</ele><time>2026-04-25T14:17:27.978Z</time></trkpt><trkpt lat="45.499290319019096" lon="11.086665239950138"><ele>387.0</ele><time>2026-04-25T14:17:28.978Z</time></trkpt><trkpt lat="45.49921449605742" lon="11.086628442142619"><ele>386.0</ele><time>2026-04-25T14:17:29.978Z</time></trkpt><trkpt lat="45.49910208657658" lon="11.086620479128865"><ele>385.0</ele><time>2026-04-25T14:17:30.978Z</time></trkpt><trkpt lat="45.49896491780766" lon="11.086633534093709"><ele>384.0</ele><time>2026-04-25T14:17:31.978Z</time></trkpt><trkpt lat="45.49882742953561" lon="11.086665210503101"><ele>382.75</ele><time>2026-04-25T14:17:32.978Z</time></trkpt><trkpt lat="45.498702129541066" lon="11.086694902546203"><ele>381.5</ele><time>2026-04-25T14:17:33.978Z</time></trkpt><trkpt lat="45.4985862230939" lon="11.086707221483909"><ele>380.25</ele><time>2026-04-25T14:17:34.978Z</time></trkpt><trkpt lat="45.498480823705194" lon="11.086699316901244"><ele>379.0</ele><time>2026-04-25T14:17:35.978Z</time></trkpt><trkpt lat="45.498365129584585" lon="11.086655310670306"><ele>379.0</ele><time>2026-04-25T14:17:36.978Z</time></trkpt><trkpt lat="45.498229490429324" lon="11.086629798589463"><ele>379.0</ele><time>2026-04-25T14:17:37.978Z</time></trkpt><trkpt lat="45.49807052820018" lon="11.086622900593808"><ele>379.0</ele><time>2026-04-25T14:17:38.978Z</time></trkpt><trkpt lat="45.497903748359136" lon="11.086626427350877"><ele>378.3333333333333</ele><time>2026-04-25T14:17:39.978Z</time></trkpt><trkpt lat="45.49772334962141" lon="11.086636360341386"><ele>377.6666666666667</ele><time>2026-04-25T14:17:40.978Z</time></trkpt><trkpt lat="45.49757234972273" lon="11.08663415473387"><ele>377.0</ele><time>2026-04-25T14:17:41.978Z</time></trkpt><trkpt lat="45.49745436831515" lon="11.086617358652646"><ele>375.0</ele><time>2026-04-25T14:17:42.978Z</time></trkpt><trkpt lat="45.497356136135885" lon="11.086569275156638"><ele>373.0</ele><time>2026-04-25T14:17:43.978Z</time></trkpt><trkpt lat="45.49726806636383" lon="11.086496963540098"><ele>371.0</ele><time>2026-04-25T14:17:44.978Z</time></trkpt><trkpt lat="45.497168458499104" lon="11.086376410489715"><ele>369.0</ele><time>2026-04-25T14:17:45.978Z</time></trkpt><trkpt lat="45.49706922571497" lon="11.086275496982742"><ele>369.0</ele><time>2026-04-25T14:17:46.978Z</time></trkpt><trkpt lat="45.49696105968727" lon="11.086176177554167"><ele>369.0</ele><time>2026-04-25T14:17:47.978Z</time></trkpt><trkpt lat="45.49687374252071" lon="11.086072040225785"><ele>369.0</ele><time>2026-04-25T14:17:48.978Z</time></trkpt><trkpt lat="45.49680368194851" lon="11.085936246328066"><ele>369.0</ele><time>2026-04-25T14:17:49.978Z</time></trkpt><trkpt lat="45.49674950226348" lon="11.085758329876334"><ele>366.5</ele><time>2026-04-25T14:17:50.978Z</time></trkpt><trkpt lat="45.496708636045895" lon="11.085583343037655"><ele>364.0</ele><time>2026-04-25T14:17:51.978Z</time></trkpt><trkpt lat="45.49665022186231" lon="11.085419235301735"><ele>361.5</ele><time>2026-04-25T14:17:52.978Z</time></trkpt><trkpt lat="45.49657189057892" lon="11.08526051612539"><ele>359.0</ele><time>2026-04-25T14:17:53.978Z</time></trkpt><trkpt lat="45.4965023923814" lon="11.085122660852344"><ele>359.0</ele><time>2026-04-25T14:17:54.978Z</time></trkpt><trkpt lat="45.49645867276119" lon="11.085043023333931"><ele>359.0</ele><time>2026-04-25T14:17:55.978Z</time></trkpt><trkpt lat="45.49639812164628" lon="11.085008431566708"><ele>359.0</ele><time>2026-04-25T14:17:58.978Z</time></trkpt><trkpt lat="45.49631472190203" lon="11.085116803427626"><ele>359.0</ele><time>2026-04-25T14:18:00.978Z</time></trkpt><trkpt lat="45.49620747161845" lon="11.085195097999444"><ele>359.0</ele><time>2026-04-25T14:18:02.978Z</time></trkpt><trkpt lat="45.496127251864436" lon="11.085283633415179"><ele>360.4</ele><time>2026-04-25T14:18:04.978Z</time></trkpt><trkpt lat="45.49612760570516" lon="11.0854454610521"><ele>361.79999999999995</ele><time>2026-04-25T14:18:06.978Z</time></trkpt><trkpt lat="45.496140393501335" lon="11.085546082123326"><ele>363.20000000000005</ele><time>2026-04-25T14:18:07.978Z</time></trkpt><trkpt lat="45.49616080269842" lon="11.085667172707705"><ele>364.6</ele><time>2026-04-25T14:18:08.978Z</time></trkpt><trkpt lat="45.49619536066228" lon="11.085818248351371"><ele>366.0</ele><time>2026-04-25T14:18:09.978Z</time></trkpt><trkpt lat="45.496212263652765" lon="11.08596749246518"><ele>367.5</ele><time>2026-04-25T14:18:10.978Z</time></trkpt><trkpt lat="45.49621144751085" lon="11.086120254345376"><ele>369.0</ele><time>2026-04-25T14:18:11.978Z</time></trkpt><trkpt lat="45.496190094783685" lon="11.08629675587684"><ele>370.5</ele><time>2026-04-25T14:18:12.978Z</time></trkpt><trkpt lat="45.4961535631107" lon="11.086467044927712"><ele>372.0</ele><time>2026-04-25T14:18:13.978Z</time></trkpt><trkpt lat="45.496125718054195" lon="11.086643166951841"><ele>374.6666666666667</ele><time>2026-04-25T14:18:14.978Z</time></trkpt><trkpt lat="45.496119792753255" lon="11.086826434315775"><ele>377.33333333333337</ele><time>2026-04-25T14:18:15.978Z</time></trkpt><trkpt lat="45.49612242650469" lon="11.087058753586996"><ele>380.0</ele><time>2026-04-25T14:18:16.977Z</time></trkpt><trkpt lat="45.49611944770786" lon="11.087295594637602"><ele>382.33333333333337</ele><time>2026-04-25T14:18:17.977Z</time></trkpt><trkpt lat="45.49611932700551" lon="11.087527836681364"><ele>384.6666666666667</ele><time>2026-04-25T14:18:18.977Z</time></trkpt><trkpt lat="45.49611953488956" lon="11.087751550576659"><ele>387.0</ele><time>2026-04-25T14:18:19.977Z</time></trkpt><trkpt lat="45.496123126653146" lon="11.087964631677263"><ele>387.0</ele><time>2026-04-25T14:18:20.977Z</time></trkpt><trkpt lat="45.49611340972473" lon="11.088135201285526"><ele>387.0</ele><time>2026-04-25T14:18:21.977Z</time></trkpt><trkpt lat="45.496091615926474" lon="11.088267408714712"><ele>387.0</ele><time>2026-04-25T14:18:22.977Z</time></trkpt><trkpt lat="45.49604105518715" lon="11.088379600101966"><ele>387.0</ele><time>2026-04-25T14:18:24.977Z</time></trkpt><trkpt lat="45.49596291835781" lon="11.088435114305724"><ele>387.0</ele><time>2026-04-25T14:18:25.977Z</time></trkpt><trkpt lat="45.49588965192571" lon="11.088547225513668"><ele>390.0</ele><time>2026-04-25T14:18:26.977Z</time></trkpt><trkpt lat="45.495801968066594" lon="11.088668453382923"><ele>393.0</ele><time>2026-04-25T14:18:27.977Z</time></trkpt><trkpt lat="45.49570582939657" lon="11.08876660158726"><ele>396.0</ele><time>2026-04-25T14:18:28.977Z</time></trkpt><trkpt lat="45.49560750784195" lon="11.088884899113244"><ele>399.0</ele><time>2026-04-25T14:18:29.977Z</time></trkpt><trkpt lat="45.4955245439598" lon="11.088988921639652"><ele>400.0</ele><time>2026-04-25T14:18:30.977Z</time></trkpt><trkpt lat="45.49545074045656" lon="11.089125973972816"><ele>401.0</ele><time>2026-04-25T14:18:31.977Z</time></trkpt><trkpt lat="45.49539535965191" lon="11.089254930929918"><ele>402.0</ele><time>2026-04-25T14:18:32.977Z</time></trkpt><trkpt lat="45.495340775755125" lon="11.089372043798303"><ele>403.0</ele><time>2026-04-25T14:18:33.977Z</time></trkpt><trkpt lat="45.495311559598505" lon="11.08953194021771"><ele>404.0</ele><time>2026-04-25T14:18:34.977Z</time></trkpt><trkpt lat="45.495272651267165" lon="11.089637111998575"><ele>404.0</ele><time>2026-04-25T14:18:35.977Z</time></trkpt><trkpt lat="45.495216752459996" lon="11.08969570120449"><ele>404.0</ele><time>2026-04-25T14:18:36.977Z</time></trkpt><trkpt lat="45.49513363345746" lon="11.089776446228804"><ele>404.0</ele><time>2026-04-25T14:18:37.977Z</time></trkpt><trkpt lat="45.495036750531455" lon="11.089875948644742"><ele>404.0</ele><time>2026-04-25T14:18:38.977Z</time></trkpt><trkpt lat="45.49496090005782" lon="11.089988952592877"><ele>404.0</ele><time>2026-04-25T14:18:39.977Z</time></trkpt><trkpt lat="45.494870348754176" lon="11.09005050848043"><ele>408.16666666666663</ele><time>2026-04-25T14:18:40.977Z</time></trkpt><trkpt lat="45.49478566443923" lon="11.090109885005884"><ele>412.3333333333333</ele><time>2026-04-25T14:18:41.977Z</time></trkpt><trkpt lat="45.49470902786066" lon="11.090174518749114"><ele>416.5</ele><time>2026-04-25T14:18:42.977Z</time></trkpt><trkpt lat="45.494640926134366" lon="11.09021897676697"><ele>420.66666666666663</ele><time>2026-04-25T14:18:43.977Z</time></trkpt><trkpt lat="45.49460001309682" lon="11.09030855973161"><ele>424.8333333333333</ele><time>2026-04-25T14:18:45.977Z</time></trkpt><trkpt lat="45.494673698945434" lon="11.090427121861737"><ele>429.0</ele><time>2026-04-25T14:18:47.977Z</time></trkpt><trkpt lat="45.494734343132436" lon="11.090455162237648"><ele>429.0</ele><time>2026-04-25T14:18:48.977Z</time></trkpt><trkpt lat="45.49482113742957" lon="11.090482608209193"><ele>429.0</ele><time>2026-04-25T14:18:49.977Z</time></trkpt><trkpt lat="45.49491476949628" lon="11.090505062400585"><ele>429.0</ele><time>2026-04-25T14:18:50.977Z</time></trkpt><trkpt lat="45.49499782222936" lon="11.090528396332914"><ele>429.0</ele><time>2026-04-25T14:18:51.977Z</time></trkpt><trkpt lat="45.495045168419516" lon="11.090596762141335"><ele>429.0</ele><time>2026-04-25T14:18:53.977Z</time></trkpt><trkpt lat="45.49500980189485" lon="11.09070424298131"><ele>429.0</ele><time>2026-04-25T14:18:55.977Z</time></trkpt><trkpt lat="45.494986816822326" lon="11.0907972570031"><ele>431.1666666666667</ele><time>2026-04-25T14:18:56.977Z</time></trkpt><trkpt lat="45.49494219377854" lon="11.090867745467527"><ele>433.33333333333337</ele><time>2026-04-25T14:18:57.977Z</time></trkpt><trkpt lat="45.494854121985114" lon="11.090906552345247"><ele>435.5</ele><time>2026-04-25T14:18:59.977Z</time></trkpt><trkpt lat="45.49478555453265" lon="11.090888271128454"><ele>437.6666666666667</ele><time>2026-04-25T14:19:00.977Z</time></trkpt><trkpt lat="45.49471845447548" lon="11.090855013383278"><ele>439.83333333333337</ele><time>2026-04-25T14:19:01.977Z</time></trkpt><trkpt lat="45.494636115820995" lon="11.090790939083265"><ele>442.0</ele><time>2026-04-25T14:19:02.977Z</time></trkpt><trkpt lat="45.4945125895515" lon="11.090767614501003"><ele>442.0</ele><time>2026-04-25T14:19:03.977Z</time></trkpt><trkpt lat="45.49439420158806" lon="11.09075784697889"><ele>442.0</ele><time>2026-04-25T14:19:04.977Z</time></trkpt><trkpt lat="45.49425575068245" lon="11.090793159975243"><ele>442.0</ele><time>2026-04-25T14:19:05.977Z</time></trkpt><trkpt lat="45.49411663979762" lon="11.090777333849328"><ele>442.0</ele><time>2026-04-25T14:19:06.977Z</time></trkpt><trkpt lat="45.49398041963253" lon="11.090771164297887"><ele>442.0</ele><time>2026-04-25T14:19:07.978Z</time></trkpt><trkpt lat="45.493832793663664" lon="11.090778045592582"><ele>442.0</ele><time>2026-04-25T14:19:08.977Z</time></trkpt><trkpt lat="45.49368716545691" lon="11.090776727615406"><ele>442.0</ele><time>2026-04-25T14:19:09.977Z</time></trkpt><trkpt lat="45.49356140379559" lon="11.090748348230669"><ele>442.0</ele><time>2026-04-25T14:19:10.977Z</time></trkpt><trkpt lat="45.49342485581199" lon="11.090765862072464"><ele>440.25</ele><time>2026-04-25T14:19:11.977Z</time></trkpt><trkpt lat="45.4933055270977" lon="11.09080548204998"><ele>438.5</ele><time>2026-04-25T14:19:12.977Z</time></trkpt><trkpt lat="45.493190368484136" lon="11.090898006521925"><ele>436.75</ele><time>2026-04-25T14:19:13.978Z</time></trkpt><trkpt lat="45.493083304262015" lon="11.0910096910155"><ele>435.0</ele><time>2026-04-25T14:19:14.978Z</time></trkpt><trkpt lat="45.49297218717824" lon="11.09108332158581"><ele>431.0</ele><time>2026-04-25T14:19:15.978Z</time></trkpt><trkpt lat="45.492844968204444" lon="11.091151259038451"><ele>427.0</ele><time>2026-04-25T14:19:16.977Z</time></trkpt><trkpt lat="45.49271175442971" lon="11.091169157969038"><ele>423.0</ele><time>2026-04-25T14:19:17.977Z</time></trkpt><trkpt lat="45.49257995837694" lon="11.091184613094557"><ele>419.0</ele><time>2026-04-25T14:19:18.977Z</time></trkpt><trkpt lat="45.49244162724012" lon="11.091221144693828"><ele>419.0</ele><time>2026-04-25T14:19:19.978Z</time></trkpt><trkpt lat="45.49230429317401" lon="11.09127488910099"><ele>419.0</ele><time>2026-04-25T14:19:20.977Z</time></trkpt><trkpt lat="45.492187529495006" lon="11.091338990109344"><ele>419.0</ele><time>2026-04-25T14:19:21.977Z</time></trkpt><trkpt lat="45.49209076360144" lon="11.09140492669767"><ele>419.0</ele><time>2026-04-25T14:19:22.977Z</time></trkpt><trkpt lat="45.492026672479106" lon="11.09147645445853"><ele>419.0</ele><time>2026-04-25T14:19:23.977Z</time></trkpt><trkpt lat="45.4919445203358" lon="11.091535360279892"><ele>419.0</ele><time>2026-04-25T14:19:25.977Z</time></trkpt><trkpt lat="45.49187578487232" lon="11.091476172573415"><ele>419.0</ele><time>2026-04-25T14:19:27.977Z</time></trkpt><trkpt lat="45.49195294371609" lon="11.091331508299607"><ele>419.0</ele><time>2026-04-25T14:19:29.977Z</time></trkpt><trkpt lat="45.492046061626475" lon="11.091264986981674"><ele>419.0</ele><time>2026-04-25T14:19:30.977Z</time></trkpt><trkpt lat="45.492125030609756" lon="11.09120268017618"><ele>419.0</ele><time>2026-04-25T14:19:31.977Z</time></trkpt><trkpt lat="45.49221414803951" lon="11.091114978848479"><ele>419.0</ele><time>2026-04-25T14:19:32.977Z</time></trkpt><trkpt lat="45.49231932022309" lon="11.091027062936373"><ele>419.0</ele><time>2026-04-25T14:19:33.977Z</time></trkpt><trkpt lat="45.49240796304638" lon="11.090921712731246"><ele>419.0</ele><time>2026-04-25T14:19:34.977Z</time></trkpt><trkpt lat="45.49249322258341" lon="11.090849249653523"><ele>419.0</ele><time>2026-04-25T14:19:35.977Z</time></trkpt><trkpt lat="45.492571213960034" lon="11.090812242689035"><ele>414.6</ele><time>2026-04-25T14:19:36.977Z</time></trkpt><trkpt lat="45.49263180414037" lon="11.090712318244574"><ele>410.2</ele><time>2026-04-25T14:19:38.977Z</time></trkpt><trkpt lat="45.49254211052792" lon="11.090604612804476"><ele>405.8</ele><time>2026-04-25T14:19:40.977Z</time></trkpt><trkpt lat="45.49244657878024" lon="11.090624379311068"><ele>401.40000000000003</ele><time>2026-04-25T14:19:41.977Z</time></trkpt><trkpt lat="45.492330124449126" lon="11.09067356215988"><ele>397.0</ele><time>2026-04-25T14:19:42.977Z</time></trkpt><trkpt lat="45.49221481774233" lon="11.09072616151512"><ele>399.0</ele><time>2026-04-25T14:19:43.977Z</time></trkpt><trkpt lat="45.49210639306254" lon="11.090761266240872"><ele>401.0</ele><time>2026-04-25T14:19:44.977Z</time></trkpt><trkpt lat="45.491965169983565" lon="11.090773816702372"><ele>403.0</ele><time>2026-04-25T14:19:45.977Z</time></trkpt><trkpt lat="45.49182135615791" lon="11.090797343764232"><ele>405.0</ele><time>2026-04-25T14:19:46.977Z</time></trkpt><trkpt lat="45.49169826974059" lon="11.090826416165628"><ele>405.0</ele><time>2026-04-25T14:19:47.977Z</time></trkpt><trkpt lat="45.49155419518849" lon="11.090860333656584"><ele>405.0</ele><time>2026-04-25T14:19:48.977Z</time></trkpt><trkpt lat="45.49139282667927" lon="11.090870302757448"><ele>405.0</ele><time>2026-04-25T14:19:49.977Z</time></trkpt><trkpt lat="45.49124105828619" lon="11.090854028300871"><ele>403.5</ele><time>2026-04-25T14:19:50.977Z</time></trkpt><trkpt lat="45.49109551342008" lon="11.09081291381496"><ele>402.0</ele><time>2026-04-25T14:19:51.977Z</time></trkpt><trkpt lat="45.490958727890785" lon="11.090763539539061"><ele>400.5</ele><time>2026-04-25T14:19:52.977Z</time></trkpt><trkpt lat="45.490818140627304" lon="11.090696395665535"><ele>399.0</ele><time>2026-04-25T14:19:53.977Z</time></trkpt><trkpt lat="45.4906872926523" lon="11.090652560216997"><ele>396.0</ele><time>2026-04-25T14:19:54.977Z</time></trkpt><trkpt lat="45.49055046742558" lon="11.090601501304532"><ele>393.0</ele><time>2026-04-25T14:19:55.977Z</time></trkpt><trkpt lat="45.49040370908108" lon="11.090540880383106"><ele>390.0</ele><time>2026-04-25T14:19:56.977Z</time></trkpt><trkpt lat="45.490257674257286" lon="11.090480860321934"><ele>387.0</ele><time>2026-04-25T14:19:57.977Z</time></trkpt><trkpt lat="45.4901139520326" lon="11.090425217352989"><ele>384.3333333333333</ele><time>2026-04-25T14:19:58.977Z</time></trkpt><trkpt lat="45.48996570345178" lon="11.090374763996515"><ele>381.66666666666663</ele><time>2026-04-25T14:19:59.977Z</time></trkpt><trkpt lat="45.48981764446131" lon="11.09033401880944"><ele>379.0</ele><time>2026-04-25T14:20:00.977Z</time></trkpt><trkpt lat="45.48966856273955" lon="11.090304493753864"><ele>378.66666666666663</ele><time>2026-04-25T14:20:01.977Z</time></trkpt><trkpt lat="45.48952255281623" lon="11.090278593619141"><ele>378.3333333333333</ele><time>2026-04-25T14:20:02.977Z</time></trkpt><trkpt lat="45.48937156884135" lon="11.090255361417043"><ele>378.0</ele><time>2026-04-25T14:20:03.977Z</time></trkpt><trkpt lat="45.489219577001656" lon="11.090223524546394"><ele>378.0</ele><time>2026-04-25T14:20:04.977Z</time></trkpt><trkpt lat="45.489064733200756" lon="11.090186469971739"><ele>378.0</ele><time>2026-04-25T14:20:05.977Z</time></trkpt><trkpt lat="45.488910214875204" lon="11.090132259383711"><ele>378.0</ele><time>2026-04-25T14:20:06.977Z</time></trkpt><trkpt lat="45.488760361241" lon="11.090068519389384"><ele>377.6666666666667</ele><time>2026-04-25T14:20:07.977Z</time></trkpt><trkpt lat="45.4886052021855" lon="11.09000885018939"><ele>377.33333333333337</ele><time>2026-04-25T14:20:08.977Z</time></trkpt><trkpt lat="45.488456949010455" lon="11.089930003142117"><ele>377.0</ele><time>2026-04-25T14:20:09.977Z</time></trkpt><trkpt lat="45.488312982489575" lon="11.089859805595347"><ele>375.0</ele><time>2026-04-25T14:20:10.977Z</time></trkpt><trkpt lat="45.48816485447017" lon="11.089798141396937"><ele>373.0</ele><time>2026-04-25T14:20:11.977Z</time></trkpt><trkpt lat="45.48802071493382" lon="11.08974255238891"><ele>371.0</ele><time>2026-04-25T14:20:12.977Z</time></trkpt><trkpt lat="45.487879689000664" lon="11.089680608645754"><ele>371.0</ele><time>2026-04-25T14:20:13.977Z</time></trkpt><trkpt lat="45.48773900551962" lon="11.089626125021555"><ele>371.0</ele><time>2026-04-25T14:20:14.977Z</time></trkpt><trkpt lat="45.48759815154447" lon="11.08956812900811"><ele>371.0</ele><time>2026-04-25T14:20:15.977Z</time></trkpt><trkpt lat="45.487458880262906" lon="11.089511841208143"><ele>371.0</ele><time>2026-04-25T14:20:16.977Z</time></trkpt><trkpt lat="45.48731380938719" lon="11.089459778943512"><ele>371.0</ele><time>2026-04-25T14:20:17.977Z</time></trkpt><trkpt lat="45.487178477088094" lon="11.089416442345287"><ele>371.0</ele><time>2026-04-25T14:20:18.977Z</time></trkpt><trkpt lat="45.4870417750343" lon="11.089374996052605"><ele>371.0</ele><time>2026-04-25T14:20:19.977Z</time></trkpt><trkpt lat="45.48690309324252" lon="11.089338206380186"><ele>371.0</ele><time>2026-04-25T14:20:20.977Z</time></trkpt><trkpt lat="45.486764624196944" lon="11.08930980853921"><ele>371.0</ele><time>2026-04-25T14:20:21.977Z</time></trkpt><trkpt lat="45.486634943975446" lon="11.089294423627553"><ele>371.0</ele><time>2026-04-25T14:20:22.977Z</time></trkpt><trkpt lat="45.48651119773355" lon="11.089279083483897"><ele>371.0</ele><time>2026-04-25T14:20:23.977Z</time></trkpt><trkpt lat="45.48638444320487" lon="11.089269907117043"><ele>371.0</ele><time>2026-04-25T14:20:24.977Z</time></trkpt><trkpt lat="45.4862539376655" lon="11.089267716905951"><ele>370.0</ele><time>2026-04-25T14:20:25.977Z</time></trkpt><trkpt lat="45.48612484063453" lon="11.08926333535709"><ele>369.0</ele><time>2026-04-25T14:20:26.977Z</time></trkpt><trkpt lat="45.48599896566709" lon="11.089267402026447"><ele>368.0</ele><time>2026-04-25T14:20:27.977Z</time></trkpt><trkpt lat="45.485879842761584" lon="11.089264602674849"><ele>367.0</ele><time>2026-04-25T14:20:28.977Z</time></trkpt><trkpt lat="45.48575698336937" lon="11.089258224292443"><ele>367.0</ele><time>2026-04-25T14:20:29.977Z</time></trkpt><trkpt lat="45.48561767792939" lon="11.08925159145367"><ele>367.0</ele><time>2026-04-25T14:20:30.977Z</time></trkpt><trkpt lat="45.485489927804316" lon="11.089251481493879"><ele>367.0</ele><time>2026-04-25T14:20:31.977Z</time></trkpt><trkpt lat="45.485365757123354" lon="11.089263002327327"><ele>367.0</ele><time>2026-04-25T14:20:32.977Z</time></trkpt><trkpt lat="45.485245106534194" lon="11.089277230912254"><ele>366.0</ele><time>2026-04-25T14:20:33.977Z</time></trkpt><trkpt lat="45.48513482106065" lon="11.089306920445845"><ele>365.0</ele><time>2026-04-25T14:20:34.977Z</time></trkpt><trkpt lat="45.48503331399015" lon="11.089319057926813"><ele>364.0</ele><time>2026-04-25T14:20:35.977Z</time></trkpt><trkpt lat="45.484926714781295" lon="11.089337419623089"><ele>363.0</ele><time>2026-04-25T14:20:36.977Z</time></trkpt><trkpt lat="45.48482195329149" lon="11.089367987567456"><ele>362.0</ele><time>2026-04-25T14:20:37.977Z</time></trkpt><trkpt lat="45.48472006167931" lon="11.089396661504699"><ele>362.0</ele><time>2026-04-25T14:20:38.977Z</time></trkpt><trkpt lat="45.484618137264384" lon="11.089391216244197"><ele>362.0</ele><time>2026-04-25T14:20:39.977Z</time></trkpt><trkpt lat="45.48451708313366" lon="11.089382926594743"><ele>362.0</ele><time>2026-04-25T14:20:40.977Z</time></trkpt><trkpt lat="45.48441434308924" lon="11.08936245547341"><ele>362.0</ele><time>2026-04-25T14:20:41.977Z</time></trkpt><trkpt lat="45.484290020904105" lon="11.08934447286311"><ele>362.0</ele><time>2026-04-25T14:20:42.977Z</time></trkpt><trkpt lat="45.48417239197679" lon="11.089317901036017"><ele>360.75</ele><time>2026-04-25T14:20:43.977Z</time></trkpt><trkpt lat="45.48405976614926" lon="11.089292672392755"><ele>359.5</ele><time>2026-04-25T14:20:44.977Z</time></trkpt><trkpt lat="45.48393718960355" lon="11.089283961543687"><ele>358.25</ele><time>2026-04-25T14:20:45.977Z</time></trkpt><trkpt lat="45.483820328100045" lon="11.089274381400141"><ele>357.0</ele><time>2026-04-25T14:20:46.977Z</time></trkpt><trkpt lat="45.483718613297704" lon="11.089248020428212"><ele>356.20000000000005</ele><time>2026-04-25T14:20:47.977Z</time></trkpt><trkpt lat="45.48361932068827" lon="11.089234053608852"><ele>355.4</ele><time>2026-04-25T14:20:48.976Z</time></trkpt><trkpt lat="45.48352460524957" lon="11.089223721992983"><ele>354.6</ele><time>2026-04-25T14:20:49.976Z</time></trkpt><trkpt lat="45.48342861934473" lon="11.08922320147047"><ele>353.79999999999995</ele><time>2026-04-25T14:20:50.976Z</time></trkpt><trkpt lat="45.48334643545353" lon="11.08919311294628"><ele>353.0</ele><time>2026-04-25T14:20:51.976Z</time></trkpt><trkpt lat="45.48324733193271" lon="11.089190082597868"><ele>353.0</ele><time>2026-04-25T14:20:52.976Z</time></trkpt><trkpt lat="45.483159774006715" lon="11.08915296864895"><ele>353.0</ele><time>2026-04-25T14:20:53.976Z</time></trkpt><trkpt lat="45.48306398058416" lon="11.089141348123263"><ele>353.0</ele><time>2026-04-25T14:20:54.976Z</time></trkpt><trkpt lat="45.48297923809163" lon="11.08909923791163"><ele>353.0</ele><time>2026-04-25T14:20:55.976Z</time></trkpt><trkpt lat="45.482897432577964" lon="11.089090221427098"><ele>353.0</ele><time>2026-04-25T14:20:56.976Z</time></trkpt><trkpt lat="45.4828118462766" lon="11.089043722979024"><ele>351.0</ele><time>2026-04-25T14:20:57.976Z</time></trkpt><trkpt lat="45.482722361751364" lon="11.0889827818885"><ele>349.0</ele><time>2026-04-25T14:20:58.976Z</time></trkpt><trkpt lat="45.48262038092908" lon="11.088917053086957"><ele>347.0</ele><time>2026-04-25T14:20:59.976Z</time></trkpt><trkpt lat="45.48252815859717" lon="11.088853898109724"><ele>345.0</ele><time>2026-04-25T14:21:00.976Z</time></trkpt><trkpt lat="45.48243443609867" lon="11.088781172477937"><ele>343.0</ele><time>2026-04-25T14:21:01.976Z</time></trkpt><trkpt lat="45.48232475310411" lon="11.088710668902179"><ele>343.0</ele><time>2026-04-25T14:21:02.976Z</time></trkpt><trkpt lat="45.48223783174883" lon="11.088638569766408"><ele>343.0</ele><time>2026-04-25T14:21:03.976Z</time></trkpt><trkpt lat="45.482145994782634" lon="11.088557408052239"><ele>343.0</ele><time>2026-04-25T14:21:04.976Z</time></trkpt><trkpt lat="45.48205232794357" lon="11.088472398780421"><ele>343.0</ele><time>2026-04-25T14:21:05.976Z</time></trkpt><trkpt lat="45.48194550754167" lon="11.088391574953848"><ele>343.0</ele><time>2026-04-25T14:21:06.976Z</time></trkpt><trkpt lat="45.481840749637016" lon="11.088313963810448"><ele>340.0</ele><time>2026-04-25T14:21:07.976Z</time></trkpt><trkpt lat="45.4817301635311" lon="11.088249264805322"><ele>337.0</ele><time>2026-04-25T14:21:08.976Z</time></trkpt><trkpt lat="45.481612011569474" lon="11.088204712771008"><ele>334.0</ele><time>2026-04-25T14:21:09.976Z</time></trkpt><trkpt lat="45.48149342042701" lon="11.08817895944589"><ele>331.0</ele><time>2026-04-25T14:21:10.976Z</time></trkpt><trkpt lat="45.481368448763185" lon="11.088185400890522"><ele>329.75</ele><time>2026-04-25T14:21:11.976Z</time></trkpt><trkpt lat="45.481238596126694" lon="11.088218421164195"><ele>328.5</ele><time>2026-04-25T14:21:12.976Z</time></trkpt><trkpt lat="45.481109665895055" lon="11.088250803102014"><ele>327.25</ele><time>2026-04-25T14:21:13.977Z</time></trkpt><trkpt lat="45.48098091487105" lon="11.088282828564688"><ele>326.0</ele><time>2026-04-25T14:21:14.976Z</time></trkpt><trkpt lat="45.48085354139427" lon="11.088297968664838"><ele>326.0</ele><time>2026-04-25T14:21:15.976Z</time></trkpt><trkpt lat="45.48073765833641" lon="11.088267321585036"><ele>326.0</ele><time>2026-04-25T14:21:16.977Z</time></trkpt><trkpt lat="45.48060759405646" lon="11.08822263877287"><ele>326.0</ele><time>2026-04-25T14:21:17.977Z</time></trkpt><trkpt lat="45.48047807984031" lon="11.088176334080543"><ele>326.0</ele><time>2026-04-25T14:21:18.977Z</time></trkpt><trkpt lat="45.48035196480655" lon="11.088131776459248"><ele>326.75</ele><time>2026-04-25T14:21:19.977Z</time></trkpt><trkpt lat="45.480229024904745" lon="11.088067044288133"><ele>327.5</ele><time>2026-04-25T14:21:20.976Z</time></trkpt><trkpt lat="45.480107690350835" lon="11.087997424305426"><ele>328.25</ele><time>2026-04-25T14:21:21.976Z</time></trkpt><trkpt lat="45.47998717456489" lon="11.087925753456942"><ele>329.0</ele><time>2026-04-25T14:21:22.977Z</time></trkpt><trkpt lat="45.47987206804033" lon="11.087836815241568"><ele>329.0</ele><time>2026-04-25T14:21:23.977Z</time></trkpt><trkpt lat="45.47976441206401" lon="11.087736797690818"><ele>329.0</ele><time>2026-04-25T14:21:24.977Z</time></trkpt><trkpt lat="45.479661452008216" lon="11.087628256708864"><ele>329.0</ele><time>2026-04-25T14:21:25.977Z</time></trkpt><trkpt lat="45.479558612722165" lon="11.087528380819155"><ele>329.0</ele><time>2026-04-25T14:21:26.977Z</time></trkpt><trkpt lat="45.47945541356736" lon="11.087412306287327"><ele>327.6</ele><time>2026-04-25T14:21:27.977Z</time></trkpt><trkpt lat="45.479345778494675" lon="11.087316285276083"><ele>326.2</ele><time>2026-04-25T14:21:28.977Z</time></trkpt><trkpt lat="45.479242440678526" lon="11.087235724838937"><ele>324.8</ele><time>2026-04-25T14:21:29.977Z</time></trkpt><trkpt lat="45.479154736935314" lon="11.087169490317573"><ele>323.40000000000003</ele><time>2026-04-25T14:21:30.977Z</time></trkpt><trkpt lat="45.47907527444579" lon="11.087107067412955"><ele>322.0</ele><time>2026-04-25T14:21:31.977Z</time></trkpt><trkpt lat="45.47900973050163" lon="11.087042657100655"><ele>322.0</ele><time>2026-04-25T14:21:32.977Z</time></trkpt><trkpt lat="45.478909358536036" lon="11.086991679655734"><ele>322.0</ele><time>2026-04-25T14:21:34.977Z</time></trkpt><trkpt lat="45.47883311884401" lon="11.086923270551964"><ele>322.0</ele><time>2026-04-25T14:21:36.977Z</time></trkpt><trkpt lat="45.47876805692291" lon="11.086893876485673"><ele>322.0</ele><time>2026-04-25T14:21:38.977Z</time></trkpt><trkpt lat="45.47869205116635" lon="11.08684620756655"><ele>322.0</ele><time>2026-04-25T14:21:41.977Z</time></trkpt><trkpt lat="45.47862797685257" lon="11.086789455929559"><ele>322.0</ele><time>2026-04-25T14:21:43.977Z</time></trkpt><trkpt lat="45.47856249316075" lon="11.086772707670216"><ele>322.5</ele><time>2026-04-25T14:21:45.977Z</time></trkpt><trkpt lat="45.47849679684028" lon="11.086672923405317"><ele>323.0</ele><time>2026-04-25T14:21:47.977Z</time></trkpt><trkpt lat="45.47838457724223" lon="11.086609967293635"><ele>323.5</ele><time>2026-04-25T14:21:49.977Z</time></trkpt><trkpt lat="45.47830838537568" lon="11.086580012607985"><ele>324.0</ele><time>2026-04-25T14:21:51.976Z</time></trkpt><trkpt lat="45.47824759252554" lon="11.086550475690087"><ele>324.5</ele><time>2026-04-25T14:21:54.976Z</time></trkpt><trkpt lat="45.47818109458268" lon="11.086524630272713"><ele>325.0</ele><time>2026-04-25T14:21:57.976Z</time></trkpt><trkpt lat="45.47810986172083" lon="11.086454909344626"><ele>322.6</ele><time>2026-04-25T14:22:00.976Z</time></trkpt><trkpt lat="45.4781148070963" lon="11.086359270582918"><ele>320.2</ele><time>2026-04-25T14:22:03.976Z</time></trkpt><trkpt lat="45.47802792707392" lon="11.086261856146175"><ele>317.8</ele><time>2026-04-25T14:22:05.976Z</time></trkpt><trkpt lat="45.47791428603485" lon="11.086132970698445"><ele>315.4</ele><time>2026-04-25T14:22:08.976Z</time></trkpt><trkpt lat="45.47782036128939" lon="11.086073611237294"><ele>313.0</ele><time>2026-04-25T14:22:09.976Z</time></trkpt><trkpt lat="45.477753004626365" lon="11.086039848182004"><ele>313.0</ele><time>2026-04-25T14:22:11.976Z</time></trkpt><trkpt lat="45.47768177446011" lon="11.085988388771103"><ele>313.0</ele><time>2026-04-25T14:22:13.976Z</time></trkpt><trkpt lat="45.477584861539405" lon="11.085867721807432"><ele>313.0</ele><time>2026-04-25T14:22:15.976Z</time></trkpt><trkpt lat="45.47752364931464" lon="11.085829409018524"><ele>313.0</ele><time>2026-04-25T14:22:17.976Z</time></trkpt><trkpt lat="45.477455050309516" lon="11.085805637721915"><ele>313.0</ele><time>2026-04-25T14:22:19.976Z</time></trkpt><trkpt lat="45.47738536098059" lon="11.085752925680703"><ele>313.0</ele><time>2026-04-25T14:22:21.976Z</time></trkpt><trkpt lat="45.47731426643492" lon="11.085712092717502"><ele>310.66666666666663</ele><time>2026-04-25T14:22:23.976Z</time></trkpt><trkpt lat="45.47725131690685" lon="11.085673416221404"><ele>308.3333333333333</ele><time>2026-04-25T14:22:25.976Z</time></trkpt><trkpt lat="45.47718392989005" lon="11.085627015591943"><ele>306.0</ele><time>2026-04-25T14:22:27.976Z</time></trkpt><trkpt lat="45.477091913243605" lon="11.085565719432545"><ele>303.6666666666667</ele><time>2026-04-25T14:22:30.976Z</time></trkpt><trkpt lat="45.477047083938864" lon="11.085499930650268"><ele>301.33333333333337</ele><time>2026-04-25T14:22:32.976Z</time></trkpt><trkpt lat="45.47696098574137" lon="11.085437551307134"><ele>299.0</ele><time>2026-04-25T14:22:34.976Z</time></trkpt><trkpt lat="45.47692968568385" lon="11.085353759434213"><ele>299.0</ele><time>2026-04-25T14:22:37.976Z</time></trkpt><trkpt lat="45.47690660172196" lon="11.085192566502156"><ele>299.0</ele><time>2026-04-25T14:22:39.976Z</time></trkpt><trkpt lat="45.47687099465588" lon="11.085016161059649"><ele>299.0</ele><time>2026-04-25T14:22:41.976Z</time></trkpt><trkpt lat="45.476773764044836" lon="11.084929729234448"><ele>299.0</ele><time>2026-04-25T14:22:43.976Z</time></trkpt><trkpt lat="45.47670426029851" lon="11.084887139513446"><ele>299.0</ele><time>2026-04-25T14:22:44.976Z</time></trkpt><trkpt lat="45.47663129618858" lon="11.084860782876271"><ele>296.6666666666667</ele><time>2026-04-25T14:22:45.976Z</time></trkpt><trkpt lat="45.476539165696" lon="11.08479756501211"><ele>294.33333333333337</ele><time>2026-04-25T14:22:46.976Z</time></trkpt><trkpt lat="45.476489490607044" lon="11.084737024529613"><ele>292.0</ele><time>2026-04-25T14:22:47.976Z</time></trkpt><trkpt lat="45.47642124304646" lon="11.08468399082529"><ele>289.6666666666667</ele><time>2026-04-25T14:22:48.976Z</time></trkpt><trkpt lat="45.476363999719176" lon="11.084627069601682"><ele>287.3333333333333</ele><time>2026-04-25T14:22:49.976Z</time></trkpt><trkpt lat="45.47630302508706" lon="11.084582633932936"><ele>285.0</ele><time>2026-04-25T14:22:51.976Z</time></trkpt><trkpt lat="45.47622345500787" lon="11.084534153953093"><ele>285.0</ele><time>2026-04-25T14:22:53.976Z</time></trkpt><trkpt lat="45.47616991669364" lon="11.084451865557389"><ele>285.0</ele><time>2026-04-25T14:22:55.976Z</time></trkpt><trkpt lat="45.47609087796929" lon="11.08442328755722"><ele>285.0</ele><time>2026-04-25T14:23:06.976Z</time></trkpt><trkpt lat="45.47602616086537" lon="11.084403168705862"><ele>285.0</ele><time>2026-04-25T14:23:10.976Z</time></trkpt><trkpt lat="45.47598036790518" lon="11.08433593732436"><ele>285.0</ele><time>2026-04-25T14:23:16.976Z</time></trkpt><trkpt lat="45.47590214346588" lon="11.084243003961268"><ele>285.0</ele><time>2026-04-25T14:23:19.976Z</time></trkpt><trkpt lat="45.47583116439206" lon="11.0841731756687"><ele>285.0</ele><time>2026-04-25T14:23:21.976Z</time></trkpt><trkpt lat="45.47575222395478" lon="11.084109059777713"><ele>285.0</ele><time>2026-04-25T14:23:23.976Z</time></trkpt><trkpt lat="45.475729422954494" lon="11.084013399048166"><ele>285.0</ele><time>2026-04-25T14:23:26.976Z</time></trkpt><trkpt lat="45.47569528052288" lon="11.083917149769348"><ele>285.0</ele><time>2026-04-25T14:23:28.976Z</time></trkpt><trkpt lat="45.47568569694229" lon="11.083731200004797"><ele>285.0</ele><time>2026-04-25T14:23:30.976Z</time></trkpt><trkpt lat="45.47574713321839" lon="11.083543200989343"><ele>281.8</ele><time>2026-04-25T14:23:32.975Z</time></trkpt><trkpt lat="45.47577303078472" lon="11.083453881568543"><ele>278.6</ele><time>2026-04-25T14:23:33.975Z</time></trkpt><trkpt lat="45.475809697939" lon="11.083333478883716"><ele>275.4</ele><time>2026-04-25T14:23:35.975Z</time></trkpt><trkpt lat="45.47581714714174" lon="11.083172781864649"><ele>272.2</ele><time>2026-04-25T14:23:37.975Z</time></trkpt><trkpt lat="45.475816087414856" lon="11.082995198041317"><ele>269.0</ele><time>2026-04-25T14:23:39.975Z</time></trkpt><trkpt lat="45.47580429437395" lon="11.082878118875657"><ele>267.5</ele><time>2026-04-25T14:23:40.975Z</time></trkpt><trkpt lat="45.47579684285512" lon="11.082752080950096"><ele>266.0</ele><time>2026-04-25T14:23:41.975Z</time></trkpt><trkpt lat="45.47578369341436" lon="11.082617612354255"><ele>264.5</ele><time>2026-04-25T14:23:42.975Z</time></trkpt><trkpt lat="45.475747153445205" lon="11.082504062886697"><ele>263.0</ele><time>2026-04-25T14:23:43.975Z</time></trkpt><trkpt lat="45.475731774695426" lon="11.082380007573384"><ele>261.5</ele><time>2026-04-25T14:23:45.975Z</time></trkpt><trkpt lat="45.47576204064005" lon="11.082292276323567"><ele>260.0</ele><time>2026-04-25T14:23:51.975Z</time></trkpt><trkpt lat="45.4757230391049" lon="11.082216736434166"><ele>258.5</ele><time>2026-04-25T14:23:56.975Z</time></trkpt><trkpt lat="45.47564300421447" lon="11.082180135511225"><ele>257.0</ele><time>2026-04-25T14:24:00.975Z</time></trkpt><trkpt lat="45.47552572416176" lon="11.08212123583888"><ele>255.5</ele><time>2026-04-25T14:24:02.975Z</time></trkpt><trkpt lat="45.475464358972644" lon="11.082093405913152"><ele>254.0</ele><time>2026-04-25T14:24:03.975Z</time></trkpt><trkpt lat="45.47538510992636" lon="11.082054878860868"><ele>252.50000000000003</ele><time>2026-04-25T14:24:04.975Z</time></trkpt><trkpt lat="45.47531501546429" lon="11.081994354761983"><ele>251.0</ele><time>2026-04-25T14:24:05.975Z</time></trkpt><trkpt lat="45.47522974208179" lon="11.081983408827178"><ele>251.0</ele><time>2026-04-25T14:24:06.975Z</time></trkpt><trkpt lat="45.475153531128186" lon="11.08195815317165"><ele>251.00000000000003</ele><time>2026-04-25T14:24:07.975Z</time></trkpt><trkpt lat="45.47503479403282" lon="11.081975722619514"><ele>251.00000000000003</ele><time>2026-04-25T14:24:09.975Z</time></trkpt><trkpt lat="45.47493443731029" lon="11.082007721347578"><ele>251.0</ele><time>2026-04-25T14:24:11.975Z</time></trkpt><trkpt lat="45.474866939296255" lon="11.081991596724183"><ele>251.0</ele><time>2026-04-25T14:24:15.975Z</time></trkpt><trkpt lat="45.47477653228031" lon="11.081954064996022"><ele>251.0</ele><time>2026-04-25T14:24:19.975Z</time></trkpt><trkpt lat="45.4746768785226" lon="11.081875141308144"><ele>251.00000000000003</ele><time>2026-04-25T14:24:21.975Z</time></trkpt><trkpt lat="45.474610625081205" lon="11.081777284796512"><ele>251.00000000000003</ele><time>2026-04-25T14:24:23.975Z</time></trkpt><trkpt lat="45.47448074647197" lon="11.081783793269366"><ele>251.0</ele><time>2026-04-25T14:24:25.975Z</time></trkpt><trkpt lat="45.47440992585933" lon="11.081779225219918"><ele>251.0</ele><time>2026-04-25T14:24:26.975Z</time></trkpt><trkpt lat="45.47429757728877" lon="11.081810161166644"><ele>250.4</ele><time>2026-04-25T14:24:27.975Z</time></trkpt><trkpt lat="45.47419881891616" lon="11.081823356886506"><ele>249.8</ele><time>2026-04-25T14:24:28.975Z</time></trkpt><trkpt lat="45.47410252869547" lon="11.081831422795556"><ele>249.20000000000002</ele><time>2026-04-25T14:24:29.975Z</time></trkpt><trkpt lat="45.47398754698001" lon="11.081791759508281"><ele>248.60000000000002</ele><time>2026-04-25T14:24:30.975Z</time></trkpt><trkpt lat="45.473893058173466" lon="11.081760762953001"><ele>248.0</ele><time>2026-04-25T14:24:31.975Z</time></trkpt><trkpt lat="45.473811594523816" lon="11.081753624834308"><ele>248.25</ele><time>2026-04-25T14:24:32.975Z</time></trkpt><trkpt lat="45.47370176210372" lon="11.081681067430992"><ele>248.5</ele><time>2026-04-25T14:24:34.975Z</time></trkpt><trkpt lat="45.47366191826657" lon="11.081475963375713"><ele>248.75</ele><time>2026-04-25T14:24:36.975Z</time></trkpt><trkpt lat="45.47360971009903" lon="11.081315328330847"><ele>249.0</ele><time>2026-04-25T14:24:37.975Z</time></trkpt><trkpt lat="45.47352615666256" lon="11.081140062581959"><ele>246.2</ele><time>2026-04-25T14:24:38.975Z</time></trkpt><trkpt lat="45.473466130683526" lon="11.081017735267338"><ele>243.39999999999998</ele><time>2026-04-25T14:24:39.975Z</time></trkpt><trkpt lat="45.47339592382477" lon="11.080895622901503"><ele>240.6</ele><time>2026-04-25T14:24:40.975Z</time></trkpt><trkpt lat="45.47332770745197" lon="11.080775023738859"><ele>237.8</ele><time>2026-04-25T14:24:41.975Z</time></trkpt><trkpt lat="45.4732452093921" lon="11.080656201136929"><ele>235.0</ele><time>2026-04-25T14:24:42.975Z</time></trkpt><trkpt lat="45.47313373304123" lon="11.080545013022254"><ele>234.5</ele><time>2026-04-25T14:24:43.975Z</time></trkpt><trkpt lat="45.47303159735212" lon="11.080414710101183"><ele>234.0</ele><time>2026-04-25T14:24:44.975Z</time></trkpt><trkpt lat="45.47295125813436" lon="11.080302708255667"><ele>233.5</ele><time>2026-04-25T14:24:45.975Z</time></trkpt><trkpt lat="45.47287654553512" lon="11.080197991491268"><ele>233.0</ele><time>2026-04-25T14:24:46.975Z</time></trkpt><trkpt lat="45.472793466435" lon="11.080114486467776"><ele>233.0</ele><time>2026-04-25T14:24:47.974Z</time></trkpt><trkpt lat="45.47272602138846" lon="11.079981805957846"><ele>233.0</ele><time>2026-04-25T14:24:48.974Z</time></trkpt><trkpt lat="45.47268176737661" lon="11.079854786987708"><ele>233.0</ele><time>2026-04-25T14:24:49.974Z</time></trkpt><trkpt lat="45.47262946010456" lon="11.079707158790274"><ele>233.0</ele><time>2026-04-25T14:24:50.974Z</time></trkpt><trkpt lat="45.47258557945915" lon="11.079534117534378"><ele>229.5</ele><time>2026-04-25T14:24:51.974Z</time></trkpt><trkpt lat="45.4725379590293" lon="11.079372492628487"><ele>226.0</ele><time>2026-04-25T14:24:52.974Z</time></trkpt><trkpt lat="45.47247946634043" lon="11.079229626079664"><ele>222.5</ele><time>2026-04-25T14:24:53.974Z</time></trkpt><trkpt lat="45.47241920570515" lon="11.07909157917039"><ele>219.0</ele><time>2026-04-25T14:24:54.974Z</time></trkpt><trkpt lat="45.47235352932248" lon="11.078959458267464"><ele>217.0</ele><time>2026-04-25T14:24:55.974Z</time></trkpt><trkpt lat="45.47228148701289" lon="11.078840748217916"><ele>214.99999999999997</ele><time>2026-04-25T14:24:56.974Z</time></trkpt><trkpt lat="45.47219500983756" lon="11.078729537594823"><ele>213.0</ele><time>2026-04-25T14:24:57.974Z</time></trkpt><trkpt lat="45.47211868992934" lon="11.07861735368085"><ele>211.0</ele><time>2026-04-25T14:24:58.974Z</time></trkpt><trkpt lat="45.47204306144762" lon="11.078497370158043"><ele>209.0</ele><time>2026-04-25T14:24:59.974Z</time></trkpt><trkpt lat="45.471973030327796" lon="11.078362958956461"><ele>206.39999999999998</ele><time>2026-04-25T14:25:00.974Z</time></trkpt><trkpt lat="45.47192054281403" lon="11.078213250539784"><ele>203.8</ele><time>2026-04-25T14:25:01.974Z</time></trkpt><trkpt lat="45.47186324247661" lon="11.078064926391056"><ele>201.2</ele><time>2026-04-25T14:25:02.974Z</time></trkpt><trkpt lat="45.47180504128424" lon="11.077944700904556"><ele>198.60000000000002</ele><time>2026-04-25T14:25:03.974Z</time></trkpt><trkpt lat="45.47175936195077" lon="11.077820294216941"><ele>196.0</ele><time>2026-04-25T14:25:04.974Z</time></trkpt><trkpt lat="45.471737197983835" lon="11.077689622642229"><ele>195.99999999999997</ele><time>2026-04-25T14:25:05.974Z</time></trkpt><trkpt lat="45.47171399862939" lon="11.077573268652818"><ele>196.0</ele><time>2026-04-25T14:25:06.974Z</time></trkpt><trkpt lat="45.47168215677237" lon="11.07747177520444"><ele>196.0</ele><time>2026-04-25T14:25:07.974Z</time></trkpt><trkpt lat="45.4716427448572" lon="11.077396947790453"><ele>196.0</ele><time>2026-04-25T14:25:08.974Z</time></trkpt><trkpt lat="45.471594185175306" lon="11.077286952373964"><ele>195.99999999999997</ele><time>2026-04-25T14:25:10.974Z</time></trkpt><trkpt lat="45.4715521057313" lon="11.077161572005036"><ele>196.0</ele><time>2026-04-25T14:25:12.974Z</time></trkpt><trkpt lat="45.47150770943514" lon="11.077089997495168"><ele>193.99999999999997</ele><time>2026-04-25T14:25:13.974Z</time></trkpt><trkpt lat="45.47145994062959" lon="11.076926191861043"><ele>192.0</ele><time>2026-04-25T14:25:15.974Z</time></trkpt><trkpt lat="45.471435058964595" lon="11.076824644189747"><ele>190.0</ele><time>2026-04-25T14:25:16.974Z</time></trkpt><trkpt lat="45.47143261519988" lon="11.07669287308927"><ele>188.0</ele><time>2026-04-25T14:25:17.974Z</time></trkpt><trkpt lat="45.4714325000573" lon="11.076588351534483"><ele>186.0</ele><time>2026-04-25T14:25:18.974Z</time></trkpt><trkpt lat="45.471440561070764" lon="11.076489169220777"><ele>184.0</ele><time>2026-04-25T14:25:19.974Z</time></trkpt><trkpt lat="45.47147793982906" lon="11.076380602527225"><ele>182.39999999999998</ele><time>2026-04-25T14:25:20.974Z</time></trkpt><trkpt lat="45.4715105910504" lon="11.076250028215464"><ele>180.8</ele><time>2026-04-25T14:25:21.974Z</time></trkpt><trkpt lat="45.471545468078915" lon="11.076106240423696"><ele>179.2</ele><time>2026-04-25T14:25:22.974Z</time></trkpt><trkpt lat="45.4715811198617" lon="11.075955581717935"><ele>177.60000000000002</ele><time>2026-04-25T14:25:23.974Z</time></trkpt><trkpt lat="45.47159111311888" lon="11.075815728810447"><ele>176.0</ele><time>2026-04-25T14:25:24.974Z</time></trkpt><trkpt lat="45.47157394963052" lon="11.075675183598577"><ele>174.0</ele><time>2026-04-25T14:25:25.976Z</time></trkpt><trkpt lat="45.47155111235925" lon="11.075513005293216"><ele>172.0</ele><time>2026-04-25T14:25:26.975Z</time></trkpt><trkpt lat="45.471521707499626" lon="11.07534780012722"><ele>170.0</ele><time>2026-04-25T14:25:27.975Z</time></trkpt><trkpt lat="45.47150058884097" lon="11.075170529488526"><ele>168.0</ele><time>2026-04-25T14:25:28.975Z</time></trkpt><trkpt lat="45.47148752968625" lon="11.075003481890414"><ele>166.25</ele><time>2026-04-25T14:25:29.975Z</time></trkpt><trkpt lat="45.471474927256835" lon="11.074839655463188"><ele>164.5</ele><time>2026-04-25T14:25:30.975Z</time></trkpt><trkpt lat="45.471485850864845" lon="11.074672492520977"><ele>162.75</ele><time>2026-04-25T14:25:31.976Z</time></trkpt><trkpt lat="45.47150353698405" lon="11.074497340751671"><ele>161.0</ele><time>2026-04-25T14:25:32.975Z</time></trkpt><trkpt lat="45.4715348073769" lon="11.074321701176256"><ele>161.0</ele><time>2026-04-25T14:25:33.975Z</time></trkpt><trkpt lat="45.47156993946543" lon="11.07415835781776"><ele>161.0</ele><time>2026-04-25T14:25:34.976Z</time></trkpt><trkpt lat="45.471604981818146" lon="11.073976102193953"><ele>161.0</ele><time>2026-04-25T14:25:35.976Z</time></trkpt><trkpt lat="45.47163833445042" lon="11.073819612026528"><ele>161.0</ele><time>2026-04-25T14:25:36.976Z</time></trkpt><trkpt lat="45.47166109168499" lon="11.073663984094614"><ele>159.5</ele><time>2026-04-25T14:25:37.976Z</time></trkpt><trkpt lat="45.47168059200879" lon="11.073519769923882"><ele>158.0</ele><time>2026-04-25T14:25:38.975Z</time></trkpt><trkpt lat="45.471690323423815" lon="11.073405874795194"><ele>156.5</ele><time>2026-04-25T14:25:39.975Z</time></trkpt><trkpt lat="45.471701514456825" lon="11.07330300064445"><ele>155.0</ele><time>2026-04-25T14:25:40.975Z</time></trkpt><trkpt lat="45.47174160236193" lon="11.073214056638724"><ele>153.5</ele><time>2026-04-25T14:25:41.975Z</time></trkpt><trkpt lat="45.471806276448746" lon="11.073103127054987"><ele>152.0</ele><time>2026-04-25T14:25:42.975Z</time></trkpt><trkpt lat="45.47190039537929" lon="11.072961728227806"><ele>151.0</ele><time>2026-04-25T14:25:43.975Z</time></trkpt><trkpt lat="45.47198743120471" lon="11.072830006610433"><ele>150.0</ele><time>2026-04-25T14:25:44.975Z</time></trkpt><trkpt lat="45.4720668836321" lon="11.072710339122525"><ele>149.0</ele><time>2026-04-25T14:25:45.975Z</time></trkpt><trkpt lat="45.47211872493118" lon="11.072582811765697"><ele>148.0</ele><time>2026-04-25T14:25:46.975Z</time></trkpt><trkpt lat="45.472161098297136" lon="11.072455991419572"><ele>147.0</ele><time>2026-04-25T14:25:47.975Z</time></trkpt><trkpt lat="45.47217863448839" lon="11.07229721762793"><ele>141.5</ele><time>2026-04-25T14:25:48.975Z</time></trkpt><trkpt lat="45.472171553076635" lon="11.072107562461714"><ele>136.0</ele><time>2026-04-25T14:25:49.975Z</time></trkpt><trkpt lat="45.47216773759476" lon="11.071906238664695"><ele>130.5</ele><time>2026-04-25T14:25:50.975Z</time></trkpt><trkpt lat="45.472169707231956" lon="11.07172229723552"><ele>125.0</ele><time>2026-04-25T14:25:51.975Z</time></trkpt><trkpt lat="45.47217247908627" lon="11.071556487750291"><ele>124.6</ele><time>2026-04-25T14:25:52.975Z</time></trkpt><trkpt lat="45.47216166246701" lon="11.07142474365325"><ele>124.2</ele><time>2026-04-25T14:25:53.975Z</time></trkpt><trkpt lat="45.47215005164715" lon="11.071314339085916"><ele>123.80000000000001</ele><time>2026-04-25T14:25:54.975Z</time></trkpt><trkpt lat="45.47206798678468" lon="11.071199777378753"><ele>123.4</ele><time>2026-04-25T14:25:56.975Z</time></trkpt><trkpt lat="45.471999258321674" lon="11.071151258977524"><ele>123.0</ele><time>2026-04-25T14:25:57.975Z</time></trkpt><trkpt lat="45.471888256560476" lon="11.071096486509974"><ele>123.0</ele><time>2026-04-25T14:25:58.975Z</time></trkpt><trkpt lat="45.4717822994821" lon="11.071050269957457"><ele>123.0</ele><time>2026-04-25T14:25:59.975Z</time></trkpt><trkpt lat="45.471630434607206" lon="11.071004551550054"><ele>123.0</ele><time>2026-04-25T14:26:00.975Z</time></trkpt><trkpt lat="45.47150047252286" lon="11.070952300818854"><ele>123.0</ele><time>2026-04-25T14:26:01.975Z</time></trkpt><trkpt lat="45.47134525074853" lon="11.070913459696312"><ele>121.33333333333334</ele><time>2026-04-25T14:26:02.975Z</time></trkpt><trkpt lat="45.4711809859241" lon="11.07089288714332"><ele>119.66666666666667</ele><time>2026-04-25T14:26:03.975Z</time></trkpt><trkpt lat="45.47101946685348" lon="11.070881545878125"><ele>118.0</ele><time>2026-04-25T14:26:04.975Z</time></trkpt><trkpt lat="45.47087506025355" lon="11.070890872723226"><ele>118.0</ele><time>2026-04-25T14:26:05.975Z</time></trkpt><trkpt lat="45.47074665361664" lon="11.070894109291556"><ele>118.0</ele><time>2026-04-25T14:26:06.975Z</time></trkpt><trkpt lat="45.47062028102965" lon="11.070871662339236"><ele>118.0</ele><time>2026-04-25T14:26:07.975Z</time></trkpt><trkpt lat="45.47047890582396" lon="11.070846480756869"><ele>118.0</ele><time>2026-04-25T14:26:08.975Z</time></trkpt><trkpt lat="45.47035170710164" lon="11.070849682635739"><ele>116.4</ele><time>2026-04-25T14:26:09.975Z</time></trkpt><trkpt lat="45.47025338405338" lon="11.07086625401583"><ele>114.80000000000001</ele><time>2026-04-25T14:26:10.975Z</time></trkpt><trkpt lat="45.47017823573871" lon="11.070868133584554"><ele>113.2</ele><time>2026-04-25T14:26:11.975Z</time></trkpt><trkpt lat="45.470110199732794" lon="11.070890191237712"><ele>111.6</ele><time>2026-04-25T14:26:12.975Z</time></trkpt><trkpt lat="45.47001480627714" lon="11.071015162921393"><ele>110.0</ele><time>2026-04-25T14:26:14.975Z</time></trkpt><trkpt lat="45.46996103411534" lon="11.07109212982806"><ele>109.99999999999999</ele><time>2026-04-25T14:26:15.975Z</time></trkpt><trkpt lat="45.46990117937003" lon="11.071153436086634"><ele>110.0</ele><time>2026-04-25T14:26:16.975Z</time></trkpt><trkpt lat="45.46985010993624" lon="11.071212388989803"><ele>110.0</ele><time>2026-04-25T14:26:17.975Z</time></trkpt><trkpt lat="45.46978616669383" lon="11.071191799580882"><ele>110.0</ele><time>2026-04-25T14:26:18.975Z</time></trkpt><trkpt lat="45.46969964020596" lon="11.071188433021574"><ele>109.99999999999999</ele><time>2026-04-25T14:26:19.975Z</time></trkpt><trkpt lat="45.469597043678746" lon="11.071237050604857"><ele>110.0</ele><time>2026-04-25T14:26:20.975Z</time></trkpt><trkpt lat="45.469514426163904" lon="11.07131999147527"><ele>109.49999999999999</ele><time>2026-04-25T14:26:21.975Z</time></trkpt><trkpt lat="45.46944096080969" lon="11.071412611256848"><ele>109.0</ele><time>2026-04-25T14:26:22.975Z</time></trkpt><trkpt lat="45.46937662458668" lon="11.071479490593394"><ele>108.5</ele><time>2026-04-25T14:26:23.975Z</time></trkpt><trkpt lat="45.46930126373064" lon="11.0715406484119"><ele>108.0</ele><time>2026-04-25T14:26:24.975Z</time></trkpt><trkpt lat="45.46923901948451" lon="11.071613368174251"><ele>107.49999999999999</ele><time>2026-04-25T14:26:25.974Z</time></trkpt><trkpt lat="45.46916317522997" lon="11.07163836102391"><ele>107.0</ele><time>2026-04-25T14:26:26.974Z</time></trkpt><trkpt lat="45.4690400670722" lon="11.071606715602387"><ele>105.39999999999999</ele><time>2026-04-25T14:26:28.974Z</time></trkpt><trkpt lat="45.46892726838372" lon="11.071543491114253"><ele>103.79999999999998</ele><time>2026-04-25T14:26:29.974Z</time></trkpt><trkpt lat="45.468811430799896" lon="11.071490775240376"><ele>102.2</ele><time>2026-04-25T14:26:30.974Z</time></trkpt><trkpt lat="45.468739771773784" lon="11.071450859126559"><ele>100.6</ele><time>2026-04-25T14:26:31.974Z</time></trkpt><trkpt lat="45.468649425350605" lon="11.071350938253325"><ele>99.0</ele><time>2026-04-25T14:26:33.974Z</time></trkpt><trkpt lat="45.468626253127375" lon="11.0712406821888"><ele>98.6</ele><time>2026-04-25T14:26:34.974Z</time></trkpt><trkpt lat="45.468605268873546" lon="11.071081328238426"><ele>98.2</ele><time>2026-04-25T14:26:35.974Z</time></trkpt><trkpt lat="45.46862867958536" lon="11.070947053438386"><ele>97.8</ele><time>2026-04-25T14:26:36.974Z</time></trkpt><trkpt lat="45.46863814431573" lon="11.070793422891803"><ele>97.39999999999999</ele><time>2026-04-25T14:26:37.974Z</time></trkpt><trkpt lat="45.46864014298223" lon="11.070632901384561"><ele>97.0</ele><time>2026-04-25T14:26:38.974Z</time></trkpt><trkpt lat="45.468636021811854" lon="11.070514409484428"><ele>96.19999999999999</ele><time>2026-04-25T14:26:39.974Z</time></trkpt><trkpt lat="45.46861833242094" lon="11.07036942077051"><ele>95.4</ele><time>2026-04-25T14:26:40.974Z</time></trkpt><trkpt lat="45.46858622550283" lon="11.0702499284932"><ele>94.6</ele><time>2026-04-25T14:26:41.974Z</time></trkpt><trkpt lat="45.46853694906515" lon="11.070127069993177"><ele>93.80000000000001</ele><time>2026-04-25T14:26:42.974Z</time></trkpt><trkpt lat="45.46846290713068" lon="11.070018770374475"><ele>93.0</ele><time>2026-04-25T14:26:43.974Z</time></trkpt><trkpt lat="45.46837578797826" lon="11.069946154768912"><ele>92.0</ele><time>2026-04-25T14:26:44.974Z</time></trkpt><trkpt lat="45.46828417185092" lon="11.069888103472863"><ele>91.0</ele><time>2026-04-25T14:26:45.974Z</time></trkpt><trkpt lat="45.468157076979665" lon="11.069821272974092"><ele>90.0</ele><time>2026-04-25T14:26:46.974Z</time></trkpt><trkpt lat="45.46807638555368" lon="11.069761813676864"><ele>89.0</ele><time>2026-04-25T14:26:47.974Z</time></trkpt><trkpt lat="45.467988017427906" lon="11.06970213943301"><ele>88.0</ele><time>2026-04-25T14:26:48.974Z</time></trkpt><trkpt lat="45.46789960745919" lon="11.069639113491444"><ele>87.2</ele><time>2026-04-25T14:26:49.974Z</time></trkpt><trkpt lat="45.46780798446807" lon="11.069572111734162"><ele>86.4</ele><time>2026-04-25T14:26:50.974Z</time></trkpt><trkpt lat="45.467718586599396" lon="11.069496850664285"><ele>85.60000000000001</ele><time>2026-04-25T14:26:51.974Z</time></trkpt><trkpt lat="45.467636379693204" lon="11.06941437604441"><ele>84.80000000000001</ele><time>2026-04-25T14:26:52.974Z</time></trkpt><trkpt lat="45.46755354635494" lon="11.069312106841013"><ele>84.0</ele><time>2026-04-25T14:26:53.974Z</time></trkpt><trkpt lat="45.46745179319313" lon="11.06920107308516"><ele>84.0</ele><time>2026-04-25T14:26:54.974Z</time></trkpt><trkpt lat="45.46735469493322" lon="11.069140346328194"><ele>84.0</ele><time>2026-04-25T14:26:55.974Z</time></trkpt><trkpt lat="45.46724827810951" lon="11.069125672835252"><ele>84.0</ele><time>2026-04-25T14:26:56.974Z</time></trkpt><trkpt lat="45.467140227927466" lon="11.06913639239669"><ele>84.0</ele><time>2026-04-25T14:26:57.974Z</time></trkpt><trkpt lat="45.46703219355144" lon="11.069142673500568"><ele>84.0</ele><time>2026-04-25T14:26:58.974Z</time></trkpt><trkpt lat="45.466934259463635" lon="11.069099257286444"><ele>82.0</ele><time>2026-04-25T14:26:59.974Z</time></trkpt><trkpt lat="45.46683364676319" lon="11.069036308270803"><ele>80.0</ele><time>2026-04-25T14:27:00.974Z</time></trkpt><trkpt lat="45.46672897308833" lon="11.068987651583296"><ele>78.0</ele><time>2026-04-25T14:27:01.974Z</time></trkpt><trkpt lat="45.4666261931182" lon="11.06892370972438"><ele>76.0</ele><time>2026-04-25T14:27:02.974Z</time></trkpt><trkpt lat="45.466532077408196" lon="11.068839560774059"><ele>74.0</ele><time>2026-04-25T14:27:03.974Z</time></trkpt><trkpt lat="45.46643803505517" lon="11.068756789630909"><ele>74.0</ele><time>2026-04-25T14:27:04.974Z</time></trkpt><trkpt lat="45.46634952640832" lon="11.068673665681493"><ele>74.0</ele><time>2026-04-25T14:27:05.974Z</time></trkpt><trkpt lat="45.466259802563165" lon="11.06859675511099"><ele>74.0</ele><time>2026-04-25T14:27:06.974Z</time></trkpt><trkpt lat="45.466169224958726" lon="11.06851551981232"><ele>74.0</ele><time>2026-04-25T14:27:07.974Z</time></trkpt><trkpt lat="45.46608468142956" lon="11.068441447992011"><ele>74.0</ele><time>2026-04-25T14:27:08.974Z</time></trkpt><trkpt lat="45.465994376420525" lon="11.06834937541657"><ele>72.60000000000001</ele><time>2026-04-25T14:27:09.974Z</time></trkpt><trkpt lat="45.46591956424528" lon="11.068264082382253"><ele>71.2</ele><time>2026-04-25T14:27:10.974Z</time></trkpt><trkpt lat="45.46585291374833" lon="11.068169886567"><ele>69.80000000000001</ele><time>2026-04-25T14:27:11.974Z</time></trkpt><trkpt lat="45.46579084365744" lon="11.068066257511013"><ele>68.4</ele><time>2026-04-25T14:27:12.974Z</time></trkpt><trkpt lat="45.46574634784926" lon="11.06795449592712"><ele>67.0</ele><time>2026-04-25T14:27:13.974Z</time></trkpt><trkpt lat="45.46569734010224" lon="11.06786679301449"><ele>67.0</ele><time>2026-04-25T14:27:14.974Z</time></trkpt><trkpt lat="45.46562263004645" lon="11.0677795332641"><ele>67.0</ele><time>2026-04-25T14:27:16.974Z</time></trkpt><trkpt lat="45.46558908905809" lon="11.067677317158866"><ele>67.0</ele><time>2026-04-25T14:27:19.974Z</time></trkpt><trkpt lat="45.4655115216164" lon="11.067553273615783"><ele>67.0</ele><time>2026-04-25T14:27:21.974Z</time></trkpt><trkpt lat="45.46545149211261" lon="11.067490374888498"><ele>67.0</ele><time>2026-04-25T14:27:22.974Z</time></trkpt><trkpt lat="45.465388692075116" lon="11.067382357450334"><ele>66.66666666666666</ele><time>2026-04-25T14:27:24.974Z</time></trkpt><trkpt lat="45.465370526285525" lon="11.067267678754794"><ele>66.33333333333333</ele><time>2026-04-25T14:27:25.974Z</time></trkpt><trkpt lat="45.46537862863307" lon="11.067146313367491"><ele>66.0</ele><time>2026-04-25T14:27:26.974Z</time></trkpt><trkpt lat="45.46539012058982" lon="11.067030670656436"><ele>65.66666666666667</ele><time>2026-04-25T14:27:27.974Z</time></trkpt><trkpt lat="45.46542137088562" lon="11.06690511479674"><ele>65.33333333333334</ele><time>2026-04-25T14:27:28.974Z</time></trkpt><trkpt lat="45.46544317107774" lon="11.066778845466365"><ele>65.0</ele><time>2026-04-25T14:27:29.974Z</time></trkpt><trkpt lat="45.46545290468615" lon="11.066652788768764"><ele>64.8</ele><time>2026-04-25T14:27:30.974Z</time></trkpt><trkpt lat="45.46547320344963" lon="11.066535509558266"><ele>64.6</ele><time>2026-04-25T14:27:31.974Z</time></trkpt><trkpt lat="45.465496697014764" lon="11.066403191761966"><ele>64.4</ele><time>2026-04-25T14:27:32.975Z</time></trkpt><trkpt lat="45.46550688716819" lon="11.066260360693716"><ele>64.2</ele><time>2026-04-25T14:27:33.975Z</time></trkpt><trkpt lat="45.465513963135685" lon="11.066117082256302"><ele>64.0</ele><time>2026-04-25T14:27:34.974Z</time></trkpt><trkpt lat="45.46553599940064" lon="11.066009274358361"><ele>64.0</ele><time>2026-04-25T14:27:35.975Z</time></trkpt><trkpt lat="45.46554685603859" lon="11.065866828000084"><ele>64.0</ele><time>2026-04-25T14:27:36.975Z</time></trkpt><trkpt lat="45.46553972508473" lon="11.065733287205742"><ele>64.0</ele><time>2026-04-25T14:27:37.975Z</time></trkpt><trkpt lat="45.46553682824088" lon="11.06557560850012"><ele>64.0</ele><time>2026-04-25T14:27:38.975Z</time></trkpt><trkpt lat="45.46552936339127" lon="11.06542571309394"><ele>64.0</ele><time>2026-04-25T14:27:39.975Z</time></trkpt><trkpt lat="45.46551986547724" lon="11.065274894857401"><ele>64.5</ele><time>2026-04-25T14:27:40.975Z</time></trkpt><trkpt lat="45.46549837275475" lon="11.065115094797534"><ele>65.0</ele><time>2026-04-25T14:27:41.974Z</time></trkpt><trkpt lat="45.465482074960626" lon="11.064955481863693"><ele>65.5</ele><time>2026-04-25T14:27:42.974Z</time></trkpt><trkpt lat="45.465459947801705" lon="11.064794937748612"><ele>66.0</ele><time>2026-04-25T14:27:43.974Z</time></trkpt><trkpt lat="45.46544921108267" lon="11.064635693688391"><ele>65.2</ele><time>2026-04-25T14:27:44.975Z</time></trkpt><trkpt lat="45.46544475779596" lon="11.06449988997237"><ele>64.39999999999999</ele><time>2026-04-25T14:27:45.975Z</time></trkpt><trkpt lat="45.46544353708695" lon="11.064347424220655"><ele>63.6</ele><time>2026-04-25T14:27:46.975Z</time></trkpt><trkpt lat="45.4654239829099" lon="11.064196498687467"><ele>62.8</ele><time>2026-04-25T14:27:47.975Z</time></trkpt><trkpt lat="45.465412183588974" lon="11.064052574991695"><ele>62.0</ele><time>2026-04-25T14:27:48.975Z</time></trkpt><trkpt lat="45.465397649667075" lon="11.063907579304665"><ele>62.0</ele><time>2026-04-25T14:27:49.975Z</time></trkpt><trkpt lat="45.4653866464309" lon="11.063764340183939"><ele>62.0</ele><time>2026-04-25T14:27:50.975Z</time></trkpt><trkpt lat="45.465374750259755" lon="11.063626115937497"><ele>62.0</ele><time>2026-04-25T14:27:51.975Z</time></trkpt><trkpt lat="45.46535655972601" lon="11.063485598336252"><ele>62.0</ele><time>2026-04-25T14:27:52.975Z</time></trkpt><trkpt lat="45.46533768388132" lon="11.063354274845759"><ele>62.0</ele><time>2026-04-25T14:27:53.975Z</time></trkpt><trkpt lat="45.465334559570934" lon="11.063232423346705"><ele>62.400000000000006</ele><time>2026-04-25T14:27:54.975Z</time></trkpt><trkpt lat="45.465357562074075" lon="11.063144137538151"><ele>62.800000000000004</ele><time>2026-04-25T14:27:55.974Z</time></trkpt><trkpt lat="45.46538623942125" lon="11.063064155405007"><ele>63.2</ele><time>2026-04-25T14:27:56.974Z</time></trkpt><trkpt lat="45.46556546350448" lon="11.063044792250375"><ele>63.6</ele><time>2026-04-25T14:28:07.974Z</time></trkpt><trkpt lat="45.465636839092824" lon="11.063039840303114"><ele>64.0</ele><time>2026-04-25T14:28:08.974Z</time></trkpt><trkpt lat="45.465711346055684" lon="11.063046973066923"><ele>64.2</ele><time>2026-04-25T14:28:09.974Z</time></trkpt><trkpt lat="45.46579942873276" lon="11.06306572537698"><ele>64.4</ele><time>2026-04-25T14:28:10.974Z</time></trkpt><trkpt lat="45.46589653002064" lon="11.063074628399162"><ele>64.6</ele><time>2026-04-25T14:28:11.974Z</time></trkpt><trkpt lat="45.4660112510601" lon="11.063057384668573"><ele>64.8</ele><time>2026-04-25T14:28:12.974Z</time></trkpt><trkpt lat="45.46611477968113" lon="11.063065265147454"><ele>65.0</ele><time>2026-04-25T14:28:13.974Z</time></trkpt><trkpt lat="45.46623302917326" lon="11.063054044597447"><ele>65.25</ele><time>2026-04-25T14:28:14.974Z</time></trkpt><trkpt lat="45.46636878154406" lon="11.063057723010758"><ele>65.5</ele><time>2026-04-25T14:28:15.974Z</time></trkpt><trkpt lat="45.466487742174586" lon="11.063071292365745"><ele>65.75</ele><time>2026-04-25T14:28:16.974Z</time></trkpt><trkpt lat="45.46662566787557" lon="11.063079618141106"><ele>66.0</ele><time>2026-04-25T14:28:17.974Z</time></trkpt><trkpt lat="45.466771399709394" lon="11.063077829663298"><ele>66.0</ele><time>2026-04-25T14:28:18.974Z</time></trkpt><trkpt lat="45.46690952254509" lon="11.063087922099283"><ele>66.0</ele><time>2026-04-25T14:28:19.974Z</time></trkpt><trkpt lat="45.46704494059145" lon="11.063094637679484"><ele>66.0</ele><time>2026-04-25T14:28:20.974Z</time></trkpt><trkpt lat="45.467183219592435" lon="11.063093814355934"><ele>66.0</ele><time>2026-04-25T14:28:21.974Z</time></trkpt><trkpt lat="45.46731063170132" lon="11.06309447081272"><ele>66.25</ele><time>2026-04-25T14:28:22.974Z</time></trkpt><trkpt lat="45.467439885523554" lon="11.063103140225456"><ele>66.5</ele><time>2026-04-25T14:28:23.974Z</time></trkpt><trkpt lat="45.467568959884325" lon="11.063096159314911"><ele>66.75</ele><time>2026-04-25T14:28:24.974Z</time></trkpt><trkpt lat="45.467694686486986" lon="11.063086291514587"><ele>67.0</ele><time>2026-04-25T14:28:25.974Z</time></trkpt><trkpt lat="45.46781685239324" lon="11.063100075115555"><ele>67.0</ele><time>2026-04-25T14:28:26.974Z</time></trkpt><trkpt lat="45.467943228769435" lon="11.063103677093444"><ele>67.0</ele><time>2026-04-25T14:28:27.974Z</time></trkpt><trkpt lat="45.46805619866138" lon="11.063117128218426"><ele>67.0</ele><time>2026-04-25T14:28:28.974Z</time></trkpt><trkpt lat="45.46816738111658" lon="11.063130600072906"><ele>67.0</ele><time>2026-04-25T14:28:29.974Z</time></trkpt><trkpt lat="45.46826956530216" lon="11.063133480651523"><ele>67.16666666666666</ele><time>2026-04-25T14:28:30.974Z</time></trkpt><trkpt lat="45.46835413937821" lon="11.063145001337562"><ele>67.33333333333333</ele><time>2026-04-25T14:28:31.974Z</time></trkpt><trkpt lat="45.46842181215866" lon="11.063180692256413"><ele>67.5</ele><time>2026-04-25T14:28:32.974Z</time></trkpt><trkpt lat="45.46847494781325" lon="11.063235129680564"><ele>67.66666666666667</ele><time>2026-04-25T14:28:33.974Z</time></trkpt><trkpt lat="45.46857025152202" lon="11.063301282487963"><ele>67.83333333333334</ele><time>2026-04-25T14:28:35.974Z</time></trkpt><trkpt lat="45.468656091516245" lon="11.063248930929806"><ele>68.0</ele><time>2026-04-25T14:28:37.974Z</time></trkpt><trkpt lat="45.4688154465101" lon="11.063162357479916"><ele>69.0</ele><time>2026-04-25T14:42:46.966Z</time></trkpt><trkpt lat="45.46870364771" lon="11.063199364940361"><ele>69.0</ele><time>2026-04-25T14:43:34.966Z</time></trkpt><trkpt lat="45.46863747786378" lon="11.063288530288268"><ele>68.0</ele><time>2026-04-25T14:44:11.966Z</time></trkpt></trkseg></trk></gpx>